
Distance (Route):
Temperature : 18.7°C
Humidity : 77.2%
Pressure : 994.0hPa| Receiver | Frames | First received | Last received |
|---|---|---|---|
| KRY50SP-1 | 810 | 2026-08-30 04:58:40 | 2026-08-30 08:08:26 |
| AA1-15 | 543 | 2026-08-30 05:03:03 | 2026-08-30 07:08:54 |
| DB0DAN | 529 | 2026-08-30 04:50:40 | 2026-08-30 07:25:40 |
| SP3BTT-10 | 277 | 2026-08-30 04:51:16 | 2026-08-30 08:11:57 |
| DL1XH-west | 216 | 2026-08-30 05:39:15 | 2026-08-30 06:22:52 |
| DM0DOS-11 | 207 | 2026-08-30 05:29:02 | 2026-08-30 06:26:20 |
| EDDB2-12 | 185 | 2026-08-30 04:45:40 | 2026-08-30 07:46:43 |
| SONDE2-12 | 178 | 2026-08-30 04:47:24 | 2026-08-30 07:16:53 |
| DL1XH1-15 | 160 | 2026-08-30 05:44:31 | 2026-08-30 06:22:36 |
| EDDB2-11 | 157 | 2026-08-30 04:45:35 | 2026-08-30 07:40:55 |
| SONDE2-11 | 148 | 2026-08-30 04:45:40 | 2026-08-30 07:46:49 |
| DF8AY | 145 | 2026-08-30 05:30:31 | 2026-08-30 06:25:23 |
| SP6BVK | 131 | 2026-08-30 05:06:26 | 2026-08-30 07:40:19 |
| SP3WXH-11 | 128 | 2026-08-30 05:17:56 | 2026-08-30 07:59:47 |
| SQ2ODE-11 | 98 | 2026-08-30 05:35:07 | 2026-08-30 07:09:28 |
| DAC517 | 94 | 2026-08-30 04:48:39 | 2026-08-30 07:07:26 |
| 13BRC | 85 | 2026-08-30 04:53:01 | 2026-08-30 06:45:26 |
| S3001 | 65 | 2026-08-30 04:57:43 | 2026-08-30 07:03:02 |
| DL2RXE-15 | 58 | 2026-08-30 04:53:14 | 2026-08-30 06:50:13 |
| SONCRA | 39 | 2026-08-30 05:25:15 | 2026-08-30 06:35:38 |
| D01LWL | 21 | 2026-08-30 05:40:58 | 2026-08-30 06:19:47 |
| POL1PZ | 20 | 2026-08-30 05:44:02 | 2026-08-30 06:19:13 |
| DJ2DS-15 | 18 | 2026-08-30 05:54:48 | 2026-08-30 06:07:39 |
| MECKS9 | 16 | 2026-08-30 05:18:03 | 2026-08-30 06:35:34 |
| OE3JTB-15 | 16 | 2026-08-30 06:03:42 | 2026-08-30 06:40:57 |
| DC4HF-4 | 6 | 2026-08-30 05:55:28 | 2026-08-30 06:11:42 |
| DO3MHA-11 | 4 | 2026-08-30 06:03:47 | 2026-08-30 06:09:40 |
| NBG1-10 | 3 | 2026-08-30 05:33:13 | 2026-08-30 05:34:19 |
| Receiver | Date | Latitude | Longitude | Direction | Speed | Altitude | Climb | Temperature | Humidity | Pressure | Voltage | Killtimer | Uptime | BKT | XDATA |
|---|---|---|---|---|---|---|---|---|---|---|---|---|---|---|---|
| SP3BTT-10 | 2026-08-30 08:11:57 | 52.81386 | 16.49348 | 14° | 24km/h | 173m | -2.7m/s | 18.7°C | 77.2% | 994.0hPa | 2.7V | 00:00:00 | 00:00:00 | 08:30:00 | |
| SP3BTT-10 | 2026-08-30 08:11:55 | 52.81373 | 16.49342 | 21° | 26km/h | 177m | -2.2m/s | 18.6°C | 76.8% | 993.4hPa | 2.7V | 00:00:00 | 00:00:00 | 00:00:00 | |
| SP3BTT-10 | 2026-08-30 08:11:53 | 52.81362 | 16.49335 | 18° | 24km/h | 181m | -1.3m/s | 18.6°C | 76.6% | 992.7hPa | 2.7V | 00:00:00 | 00:00:00 | 00:00:00 | |
| SP3BTT-10 | 2026-08-30 08:11:51 | 52.81350 | 16.49329 | 16° | 24km/h | 183m | -1.2m/s | 18.6°C | 77.2% | 992.3hPa | 2.7V | 00:00:00 | 00:00:00 | 00:00:00 | |
| SP3BTT-10 | 2026-08-30 08:11:49 | 52.81338 | 16.49323 | 11° | 24km/h | 185m | -1.3m/s | 18.5°C | 77.6% | 992.1hPa | 2.7V | 00:00:00 | 00:00:00 | 00:00:00 | |
| SP3BTT-10 | 2026-08-30 08:11:47 | 52.81326 | 16.49319 | 8° | 24km/h | 187m | -1.8m/s | 18.5°C | 78.2% | 991.6hPa | 2.7V | 00:00:00 | 00:00:00 | 00:00:00 | |
| SP3BTT-10 | 2026-08-30 08:11:45 | 52.81314 | 16.49314 | 11° | 26km/h | 191m | -2.1m/s | 18.5°C | 78.4% | 991.4hPa | 2.7V | 00:00:00 | 00:00:00 | 00:00:00 | |
| SP3BTT-10 | 2026-08-30 08:11:43 | 52.81301 | 16.49308 | 16° | 27km/h | 194m | -1.9m/s | 18.5°C | 77.8% | 991.0hPa | 2.7V | 00:00:00 | 00:00:00 | 00:00:00 | |
| SP3BTT-10 | 2026-08-30 08:11:41 | 52.81288 | 16.49300 | 19° | 31km/h | 198m | -2.2m/s | 18.5°C | 77.1% | 990.6hPa | 2.7V | 00:00:00 | 00:00:00 | 00:00:00 | |
| SP3BTT-10 | 2026-08-30 08:11:39 | 52.81273 | 16.49293 | 15° | 31km/h | 202m | -2.0m/s | 18.5°C | 74.3% | 990.0hPa | 2.7V | 00:00:00 | 00:00:00 | 08:30:00 | |
| SP3BTT-10 | 2026-08-30 08:11:37 | 52.81257 | 16.49286 | 15° | 29km/h | 206m | -1.9m/s | 18.4°C | 76.0% | 989.6hPa | 2.7V | 00:00:00 | 00:00:00 | 00:00:00 | |
| SP3BTT-10 | 2026-08-30 08:11:35 | 52.81244 | 16.49280 | 14° | 26km/h | 210m | -1.3m/s | 18.4°C | 75.3% | 989.2hPa | 2.7V | 00:00:00 | 00:00:00 | 00:00:00 | |
| SP3BTT-10 | 2026-08-30 08:11:33 | 52.81231 | 16.49275 | 14° | 27km/h | 212m | -1.2m/s | 18.4°C | 75.2% | 989.0hPa | 2.7V | 00:00:00 | 00:00:00 | 00:00:00 | |
| SP3BTT-10 | 2026-08-30 08:11:31 | 52.81217 | 16.49269 | 13° | 29km/h | 215m | -1.8m/s | 18.3°C | 76.2% | 988.5hPa | 2.7V | 00:00:00 | 00:00:00 | 00:00:00 | |
| SP3BTT-10 | 2026-08-30 08:11:29 | 52.81203 | 16.49264 | 14° | 29km/h | 219m | -2.1m/s | 18.3°C | 76.1% | 988.2hPa | 2.7V | 00:00:00 | 00:00:00 | 00:00:00 | |
| SP3BTT-10 | 2026-08-30 08:11:27 | 52.81188 | 16.49258 | 14° | 31km/h | 223m | -2.0m/s | 18.2°C | 76.1% | 987.7hPa | 2.7V | 00:00:00 | 00:00:00 | 00:00:00 | |
| SP3BTT-10 | 2026-08-30 08:11:25 | 52.81173 | 16.49252 | 14° | 29km/h | 227m | -1.6m/s | 18.2°C | 76.3% | 987.4hPa | 2.7V | 00:00:00 | 00:00:00 | 00:00:00 | |
| SP3BTT-10 | 2026-08-30 08:11:23 | 52.81159 | 16.49245 | 20° | 31km/h | 230m | -1.4m/s | 18.2°C | 75.9% | 986.9hPa | 2.7V | 00:00:00 | 00:00:00 | 00:00:00 | |
| SP3BTT-10 | 2026-08-30 08:11:21 | 52.81144 | 16.49236 | 21° | 35km/h | 234m | -2.0m/s | 18.2°C | 75.3% | 986.7hPa | 2.7V | 00:00:00 | 00:00:00 | 08:30:00 | |
| SP3BTT-10 | 2026-08-30 08:11:19 | 52.81127 | 16.49226 | 18° | 33km/h | 238m | -1.8m/s | 18.2°C | 74.2% | 986.1hPa | 2.7V | 00:00:00 | 00:00:00 | 00:00:00 | |
| SP3BTT-10 | 2026-08-30 08:11:17 | 52.81111 | 16.49217 | 20° | 33km/h | 241m | -1.3m/s | 18.2°C | 74.1% | 985.9hPa | 2.7V | 00:00:00 | 00:00:00 | 00:00:00 | |
| SP3BTT-10 | 2026-08-30 08:11:15 | 52.81096 | 16.49208 | 22° | 35km/h | 244m | -1.3m/s | 18.2°C | 74.4% | 985.4hPa | 2.7V | 00:00:00 | 00:00:00 | 00:00:00 | |
| SP3BTT-10 | 2026-08-30 08:11:13 | 52.81080 | 16.49197 | 24° | 37km/h | 247m | -1.5m/s | 18.2°C | 74.6% | 985.2hPa | 2.7V | 00:00:00 | 00:00:00 | 00:00:00 | |
| SP3BTT-10 | 2026-08-30 08:11:11 | 52.81063 | 16.49184 | 29° | 35km/h | 251m | -1.3m/s | 18.2°C | 74.1% | 984.7hPa | 2.7V | 00:00:00 | 00:00:00 | 00:00:00 | |
| SP3BTT-10 | 2026-08-30 08:11:09 | 52.81047 | 16.49169 | 29° | 35km/h | 253m | -1.5m/s | 18.1°C | 75.2% | 984.5hPa | 2.7V | 00:00:00 | 00:00:00 | 00:00:00 | |
| SP3BTT-10 | 2026-08-30 08:11:05 | 52.81017 | 16.49140 | 31° | 33km/h | 260m | -1.8m/s | 18.1°C | 73.7% | 983.8hPa | 2.7V | 00:00:00 | 00:00:00 | 00:00:00 | |
| SP3BTT-10 | 2026-08-30 08:11:01 | 52.80992 | 16.49112 | 36° | 27km/h | 267m | -2.0m/s | 18.1°C | 73.5% | 982.8hPa | 2.7V | 00:00:00 | 00:00:00 | 00:00:00 | |
| SP3BTT-10 | 2026-08-30 08:10:59 | 52.80981 | 16.49099 | 30° | 24km/h | 271m | -1.8m/s | 18.0°C | 74.0% | 982.6hPa | 2.7V | 00:00:00 | 00:00:00 | 00:00:00 | |
| SP3BTT-10 | 2026-08-30 08:10:57 | 52.80970 | 16.49091 | 20° | 26km/h | 274m | -1.3m/s | 18.0°C | 74.5% | 982.2hPa | 2.7V | 00:00:00 | 00:00:00 | 00:00:00 | |
| SP3BTT-10 | 2026-08-30 08:10:55 | 52.80957 | 16.49084 | 17° | 31km/h | 277m | -1.1m/s | 18.0°C | 74.5% | 981.8hPa | 2.7V | 00:00:00 | 00:00:00 | 00:00:00 | |
| SP3BTT-10 | 2026-08-30 08:10:53 | 52.80941 | 16.49076 | 18° | 35km/h | 279m | -1.6m/s | 18.0°C | 73.8% | 981.5hPa | 2.7V | 00:00:00 | 00:00:00 | 00:00:00 | |
| SP3BTT-10 | 2026-08-30 08:10:51 | 52.80924 | 16.49066 | 21° | 37km/h | 282m | -1.3m/s | 18.1°C | 72.5% | 981.3hPa | 2.7V | 00:00:00 | 00:00:00 | 00:00:00 | |
| SP3BTT-10 | 2026-08-30 08:10:47 | 52.80890 | 16.49040 | 31° | 37km/h | 289m | -1.8m/s | 18.2°C | 71.5% | 980.4hPa | 2.7V | 00:00:00 | 00:00:00 | 00:00:00 | |
| SP3BTT-10 | 2026-08-30 08:10:45 | 52.80874 | 16.49024 | 36° | 33km/h | 293m | -1.1m/s | 18.1°C | 71.7% | 980.1hPa | 2.7V | 00:00:00 | 00:00:00 | 08:30:00 | |
| SP3BTT-10 | 2026-08-30 08:10:43 | 52.80861 | 16.49007 | 38° | 29km/h | 295m | -1.4m/s | 18.1°C | 71.6% | 979.7hPa | 2.7V | 00:00:00 | 00:00:00 | 00:00:00 | |
| SP3BTT-10 | 2026-08-30 08:10:41 | 52.80849 | 16.48993 | 31° | 29km/h | 298m | -1.4m/s | 18.0°C | 72.0% | 979.3hPa | 2.7V | 00:00:00 | 00:00:00 | 00:00:00 | |
| SP3BTT-10 | 2026-08-30 08:10:39 | 52.80835 | 16.48982 | 25° | 31km/h | 301m | -1.2m/s | 18.0°C | 72.1% | 978.9hPa | 2.7V | 00:00:00 | 00:00:00 | 00:00:00 | |
| SP3BTT-10 | 2026-08-30 08:10:37 | 52.80821 | 16.48973 | 20° | 33km/h | 303m | -1.5m/s | 18.0°C | 72.4% | 978.5hPa | 2.7V | 00:00:00 | 00:00:00 | 00:00:00 | |
| SP3BTT-10 | 2026-08-30 08:10:35 | 52.80805 | 16.48962 | 25° | 37km/h | 306m | -1.3m/s | 18.0°C | 72.3% | 978.2hPa | 2.7V | 00:00:00 | 00:00:00 | 00:00:00 | |
| SP3BTT-10 | 2026-08-30 08:10:33 | 52.80788 | 16.48949 | 28° | 38km/h | 309m | -1.4m/s | 18.0°C | 72.3% | 978.0hPa | 2.7V | 00:00:00 | 00:00:00 | 00:00:00 | |
| SP3BTT-10 | 2026-08-30 08:10:31 | 52.80771 | 16.48935 | 27° | 38km/h | 312m | -1.5m/s | 18.0°C | 72.0% | 977.4hPa | 2.7V | 00:00:00 | 00:00:00 | 00:00:00 | |
| SP3BTT-10 | 2026-08-30 08:10:29 | 52.80754 | 16.48919 | 28° | 38km/h | 315m | -2.0m/s | 17.9°C | 72.0% | 977.0hPa | 2.7V | 00:00:00 | 00:00:00 | 00:00:00 | |
| SP3BTT-10 | 2026-08-30 08:10:27 | 52.80736 | 16.48903 | 30° | 40km/h | 319m | -1.6m/s | 17.9°C | 72.3% | 976.8hPa | 2.7V | 00:00:00 | 00:00:00 | 08:30:00 | |
| SP3BTT-10 | 2026-08-30 08:10:25 | 52.80719 | 16.48886 | 33° | 38km/h | 323m | -1.5m/s | 17.9°C | 72.2% | 976.4hPa | 2.7V | 00:00:00 | 00:00:00 | 00:00:00 | |
| SP3BTT-10 | 2026-08-30 08:10:23 | 52.80703 | 16.48867 | 36° | 40km/h | 326m | -1.7m/s | 17.9°C | 72.5% | 975.9hPa | 2.7V | 00:00:00 | 00:00:00 | 00:00:00 | |
| SP3BTT-10 | 2026-08-30 08:10:17 | 52.80655 | 16.48809 | 40° | 37km/h | 337m | -1.6m/s | 17.8°C | 72.4% | 974.7hPa | 2.7V | 00:00:00 | 00:00:00 | 00:00:00 | |
| SP3BTT-10 | 2026-08-30 08:10:11 | 52.80612 | 16.48749 | 44° | 31km/h | 348m | -1.7m/s | 17.7°C | 72.7% | 973.6hPa | 2.7V | 00:00:00 | 00:00:00 | 00:00:00 | |
| SP3BTT-10 | 2026-08-30 08:10:05 | 52.80575 | 16.48699 | 30° | 37km/h | 357m | -1.3m/s | 17.7°C | 72.7% | 972.5hPa | 2.7V | 00:00:00 | 00:00:00 | 00:00:00 | |
| SP3BTT-10 | 2026-08-30 08:09:59 | 52.80526 | 16.48653 | 34° | 40km/h | 365m | -1.5m/s | 17.6°C | 73.2% | 971.4hPa | 2.7V | 00:00:00 | 00:00:00 | 00:00:00 | |
| SP3BTT-10 | 2026-08-30 08:09:53 | 52.80476 | 16.48593 | 41° | 44km/h | 376m | -2.0m/s | 17.7°C | 71.4% | 970.2hPa | 2.7V | 00:00:00 | 00:00:00 | 00:00:00 | |
| SP3BTT-10 | 2026-08-30 08:09:47 | 52.80428 | 16.48519 | 46° | 44km/h | 390m | -2.0m/s | 17.7°C | 71.6% | 968.9hPa | 2.7V | 00:00:00 | 00:00:00 | 00:00:00 | |
| SP3BTT-10 | 2026-08-30 08:09:41 | 52.80383 | 16.48439 | 48° | 44km/h | 402m | -2.1m/s | 17.6°C | 71.4% | 967.6hPa | 2.7V | 00:00:00 | 00:00:00 | 08:30:00 | |
| SP3BTT-10 | 2026-08-30 08:09:35 | 52.80338 | 16.48355 | 51° | 46km/h | 416m | -2.4m/s | 17.6°C | 71.4% | 966.1hPa | 2.7V | 00:00:00 | 00:00:00 | 00:00:00 | |
| SP3BTT-10 | 2026-08-30 08:09:29 | 52.80296 | 16.48268 | 52° | 44km/h | 429m | -1.9m/s | 17.5°C | 71.4% | 964.7hPa | 2.7V | 00:00:00 | 00:00:00 | 00:00:00 | |
| SP3BTT-10 | 2026-08-30 08:09:23 | 52.80256 | 16.48179 | 56° | 44km/h | 441m | -2.0m/s | 17.5°C | 71.7% | 963.2hPa | 2.7V | 00:00:00 | 00:00:00 | 00:00:00 | |
| SP3BTT-10 | 2026-08-30 08:09:17 | 52.80219 | 16.48087 | 60° | 38km/h | 453m | -1.6m/s | 17.5°C | 70.9% | 962.0hPa | 2.7V | 00:00:00 | 00:00:00 | 00:00:00 | |
| SP3BTT-10 | 2026-08-30 08:09:11 | 52.80187 | 16.48008 | 52° | 37km/h | 461m | -1.7m/s | 17.6°C | 70.6% | 961.0hPa | 2.7V | 00:00:00 | 00:00:00 | 00:00:00 | |
| SP3BTT-10 | 2026-08-30 08:09:05 | 52.80148 | 16.47940 | 43° | 44km/h | 472m | -1.8m/s | 17.6°C | 70.4% | 959.8hPa | 2.7V | 00:00:00 | 00:00:00 | 00:00:00 | |
| SP3BTT-10 | 2026-08-30 08:08:59 | 52.80099 | 16.47864 | 47° | 47km/h | 484m | -1.7m/s | 17.7°C | 69.5% | 958.6hPa | 2.7V | 00:00:00 | 00:00:00 | 00:00:00 | |
| SP3BTT-10 | 2026-08-30 08:08:53 | 52.80054 | 16.47770 | 56° | 44km/h | 496m | -1.8m/s | 17.9°C | 68.5% | 957.4hPa | 2.7V | 00:00:00 | 00:00:00 | 00:00:00 | |
| SP3BTT-10 | 2026-08-30 08:08:47 | 52.80019 | 16.47676 | 59° | 40km/h | 506m | -1.8m/s | 17.9°C | 68.8% | 956.3hPa | 2.7V | 00:00:00 | 00:00:00 | 08:30:00 | |
| SP3BTT-10 | 2026-08-30 08:08:41 | 52.79989 | 16.47590 | 58° | 37km/h | 516m | -1.6m/s | 17.9°C | 68.5% | 955.1hPa | 2.7V | 00:00:00 | 00:00:00 | 00:00:00 | |
| SP3BTT-10 | 2026-08-30 08:08:35 | 52.79956 | 16.47518 | 47° | 37km/h | 526m | -1.9m/s | 17.9°C | 68.4% | 953.9hPa | 2.7V | 00:00:00 | 00:00:00 | 00:00:00 | |
| SP3BTT-10 | 2026-08-30 08:08:29 | 52.79917 | 16.47454 | 42° | 40km/h | 537m | -1.8m/s | 17.9°C | 68.7% | 952.7hPa | 2.7V | 00:00:00 | 00:00:00 | 00:00:00 | |
| KRY50SP-1 | 2026-08-30 08:08:26 | 52.79902 | 16.47433 | 40° | 40km/h | 540m | -2.2m/s | 17.9°C | 67.5% | 952.3hPa | 2.7V | 00:00:00 | 00:00:00 | 00:00:00 | |
| KRY50SP-1 | 2026-08-30 08:08:18 | 52.79836 | 16.47339 | 44° | 47km/h | 555m | -1.5m/s | 17.7°C | 68.0% | 950.7hPa | 2.7V | 00:00:00 | 00:00:00 | 00:00:00 | |
| SP3BTT-10 | 2026-08-30 08:08:17 | 52.79819 | 16.47313 | 44° | 47km/h | 558m | -1.6m/s | 17.7°C | 69.3% | 950.5hPa | 2.7V | 00:00:00 | 00:00:00 | 00:00:00 | |
| SP3BTT-10 | 2026-08-30 08:08:11 | 52.79770 | 16.47225 | 53° | 44km/h | 569m | -1.6m/s | 17.7°C | 69.1% | 949.5hPa | 2.7V | 00:00:00 | 00:00:00 | 00:00:00 | |
| SP3BTT-10 | 2026-08-30 08:08:05 | 52.79731 | 16.47138 | 53° | 38km/h | 579m | -1.6m/s | 17.7°C | 69.1% | 948.2hPa | 2.7V | 00:00:00 | 00:00:00 | 00:00:00 | |
| KRY50SP-1 | 2026-08-30 08:08:03 | 52.79725 | 16.47125 | 52° | 38km/h | 580m | -1.7m/s | 17.7°C | 68.0% | 948.1hPa | 2.7V | 00:00:00 | 00:00:00 | 00:00:00 | |
| SP3BTT-10 | 2026-08-30 08:07:59 | 52.79694 | 16.47064 | 49° | 37km/h | 589m | -1.7m/s | 17.6°C | 69.2% | 947.1hPa | 2.7V | 00:00:00 | 00:00:00 | 00:00:00 | |
| KRY50SP-1 | 2026-08-30 08:07:56 | 52.79682 | 16.47041 | 49° | 37km/h | 592m | -1.7m/s | 17.6°C | 68.2% | 946.8hPa | 2.7V | 00:00:00 | 00:00:00 | 00:00:00 | |
| SP3BTT-10 | 2026-08-30 08:07:53 | 52.79656 | 16.46996 | 47° | 37km/h | 599m | -1.7m/s | 17.6°C | 70.4% | 946.1hPa | 2.7V | 00:00:00 | 00:00:00 | 08:30:00 | |
| SP3BTT-10 | 2026-08-30 08:07:47 | 52.79617 | 16.46932 | 44° | 37km/h | 609m | -1.7m/s | 17.6°C | 70.4% | 944.8hPa | 2.7V | 00:00:00 | 00:00:00 | 00:00:00 | |
| KRY50SP-1 | 2026-08-30 08:07:46 | 52.79617 | 16.46932 | 45° | 37km/h | 609m | -1.7m/s | 17.6°C | 69.4% | 944.9hPa | 2.7V | 00:00:00 | 00:00:00 | 00:00:00 | |
| KRY50SP-1 | 2026-08-30 08:07:41 | 52.79582 | 16.46879 | 42° | 38km/h | 618m | -1.5m/s | 17.6°C | 68.5% | 943.9hPa | 2.7V | 00:00:00 | 00:00:00 | 00:00:00 | |
| SP3BTT-10 | 2026-08-30 08:07:41 | 52.79575 | 16.46869 | 41° | 38km/h | 619m | -1.7m/s | 17.5°C | 69.9% | 943.7hPa | 2.7V | 00:00:00 | 00:00:00 | 00:00:00 | |
| KRY50SP-1 | 2026-08-30 08:07:36 | 52.79545 | 16.46828 | 40° | 40km/h | 626m | -1.7m/s | 17.6°C | 68.3% | 943.0hPa | 2.7V | 00:00:00 | 00:00:00 | 00:00:00 | |
| SP3BTT-10 | 2026-08-30 08:07:35 | 52.79529 | 16.46807 | 39° | 40km/h | 629m | -1.4m/s | 17.5°C | 69.0% | 942.6hPa | 2.7V | 00:00:00 | 00:00:00 | 00:00:00 | |
| SP3BTT-10 | 2026-08-30 08:07:29 | 52.79480 | 16.46744 | 38° | 42km/h | 640m | -1.7m/s | 17.4°C | 69.6% | 941.5hPa | 2.7V | 00:00:00 | 00:00:00 | 00:00:00 | |
| KRY50SP-1 | 2026-08-30 08:07:26 | 52.79464 | 16.46723 | 39° | 42km/h | 643m | -1.6m/s | 17.5°C | 67.6% | 941.1hPa | 2.7V | 00:00:00 | 00:00:00 | 00:00:00 | |
| SP3BTT-10 | 2026-08-30 08:07:23 | 52.79429 | 16.46679 | 38° | 44km/h | 650m | -1.5m/s | 17.5°C | 68.1% | 940.4hPa | 2.7V | 00:00:00 | 00:00:00 | 00:00:00 | |
| KRY50SP-1 | 2026-08-30 08:07:19 | 52.79402 | 16.46645 | 38° | 46km/h | 655m | -1.8m/s | 17.6°C | 66.0% | 939.6hPa | 2.7V | 00:00:00 | 00:00:00 | 00:00:00 | |
| SP3BTT-10 | 2026-08-30 08:07:17 | 52.79375 | 16.46611 | 38° | 46km/h | 660m | -1.7m/s | 17.5°C | 67.1% | 939.3hPa | 2.7V | 00:00:00 | 00:00:00 | 00:00:00 | |
| KRY50SP-1 | 2026-08-30 08:07:11 | 52.79329 | 16.46554 | 38° | 46km/h | 669m | -1.8m/s | 17.4°C | 66.7% | 938.3hPa | 2.7V | 00:00:00 | 00:00:00 | 00:00:00 | |
| SP3BTT-10 | 2026-08-30 08:07:11 | 52.79320 | 16.46543 | 37° | 46km/h | 671m | -1.8m/s | 17.4°C | 67.7% | 938.1hPa | 2.7V | 00:00:00 | 00:00:00 | 00:00:00 | |
| KRY50SP-1 | 2026-08-30 08:07:06 | 52.79283 | 16.46498 | 37° | 46km/h | 678m | -1.8m/s | 17.4°C | 66.7% | 937.2hPa | 2.7V | 00:00:00 | 00:00:00 | 00:00:00 | |
| SP3BTT-10 | 2026-08-30 08:07:05 | 52.79265 | 16.46476 | 36° | 44km/h | 681m | -1.7m/s | 17.3°C | 68.1% | 936.9hPa | 2.7V | 00:00:00 | 00:00:00 | 00:00:00 | |
| KRY50SP-1 | 2026-08-30 08:07:00 | 52.79229 | 16.46433 | 36° | 44km/h | 688m | -1.7m/s | 17.3°C | 66.1% | 936.2hPa | 2.7V | 00:00:00 | 00:00:00 | 00:00:00 | |
| SP3BTT-10 | 2026-08-30 08:06:59 | 52.79211 | 16.46412 | 35° | 42km/h | 691m | -1.7m/s | 17.2°C | 68.1% | 935.7hPa | 2.7V | 00:00:00 | 00:00:00 | 08:30:00 | |
| KRY50SP-1 | 2026-08-30 08:06:54 | 52.79175 | 16.46373 | 35° | 42km/h | 698m | -1.6m/s | 17.2°C | 66.4% | 935.1hPa | 2.7V | 00:00:00 | 00:00:00 | 00:00:00 | |
| SP3BTT-10 | 2026-08-30 08:06:53 | 52.79158 | 16.46353 | 34° | 42km/h | 701m | -1.8m/s | 17.1°C | 68.3% | 934.7hPa | 2.7V | 00:00:00 | 00:00:00 | 00:00:00 | |
| KRY50SP-1 | 2026-08-30 08:06:48 | 52.79123 | 16.46314 | 34° | 42km/h | 708m | -1.6m/s | 17.2°C | 66.3% | 934.0hPa | 2.7V | 00:00:00 | 00:00:00 | 00:00:00 | |
| SP3BTT-10 | 2026-08-30 08:06:47 | 52.79105 | 16.46295 | 34° | 44km/h | 711m | -1.6m/s | 17.1°C | 68.0% | 933.5hPa | 2.7V | 00:00:00 | 00:00:00 | 00:00:00 | |
| KRY50SP-1 | 2026-08-30 08:06:41 | 52.79058 | 16.46242 | 36° | 47km/h | 720m | -1.8m/s | 17.1°C | 67.6% | 932.7hPa | 2.7V | 00:00:00 | 00:00:00 | 00:00:00 | |
| SP3BTT-10 | 2026-08-30 08:06:41 | 52.79048 | 16.46231 | 37° | 49km/h | 721m | -1.7m/s | 17.1°C | 67.6% | 932.6hPa | 2.7V | 00:00:00 | 00:00:00 | 00:00:00 | |
| SP3BTT-10 | 2026-08-30 08:06:35 | 52.78992 | 16.46153 | 44° | 47km/h | 732m | -1.8m/s | 17.1°C | 66.8% | 931.4hPa | 2.7V | 00:00:00 | 00:00:00 | 00:00:00 | |
| KRY50SP-1 | 2026-08-30 08:06:32 | 52.78974 | 16.46124 | 46° | 47km/h | 735m | -1.6m/s | 17.1°C | 65.5% | 931.1hPa | 2.7V | 00:00:00 | 00:00:00 | 00:00:00 | |
| SP3BTT-10 | 2026-08-30 08:06:29 | 52.78942 | 16.46068 | 48° | 44km/h | 742m | -1.7m/s | 17.0°C | 68.3% | 930.2hPa | 2.7V | 00:00:00 | 00:00:00 | 00:00:00 | |
| KRY50SP-1 | 2026-08-30 08:06:26 | 52.78926 | 16.46040 | 49° | 44km/h | 746m | -1.5m/s | 17.0°C | 67.2% | 930.0hPa | 2.7V | 00:00:00 | 00:00:00 | 00:00:00 | |
| SP3BTT-10 | 2026-08-30 08:06:23 | 52.78898 | 16.45986 | 49° | 40km/h | 753m | -1.6m/s | 16.9°C | 67.7% | 929.1hPa | 2.7V | 00:00:00 | 00:00:00 | 00:00:00 | |
| KRY50SP-1 | 2026-08-30 08:06:21 | 52.78891 | 16.45973 | 49° | 40km/h | 754m | -1.6m/s | 16.9°C | 66.4% | 928.9hPa | 2.7V | 00:00:00 | 00:00:00 | 00:00:00 | |
| SP3BTT-10 | 2026-08-30 08:06:17 | 52.78857 | 16.45914 | 44° | 38km/h | 763m | -1.8m/s | 16.8°C | 67.5% | 928.0hPa | 2.7V | 00:00:00 | 00:00:00 | 00:00:00 | |
| KRY50SP-1 | 2026-08-30 08:06:15 | 52.78849 | 16.45903 | 43° | 38km/h | 765m | -1.8m/s | 16.9°C | 66.9% | 927.9hPa | 2.7V | 00:00:00 | 00:00:00 | 00:00:00 | |
| SP3BTT-10 | 2026-08-30 08:06:11 | 52.78811 | 16.45854 | 35° | 42km/h | 774m | -1.7m/s | 16.7°C | 68.3% | 926.8hPa | 2.7V | 00:00:00 | 00:00:00 | 00:00:00 | |
| KRY50SP-1 | 2026-08-30 08:06:09 | 52.78802 | 16.45845 | 35° | 40km/h | 775m | -1.8m/s | 16.7°C | 68.2% | 926.7hPa | 2.7V | 00:00:00 | 00:00:00 | 00:00:00 | |
| SP3BTT-10 | 2026-08-30 08:06:05 | 52.78757 | 16.45795 | 35° | 47km/h | 784m | -1.9m/s | 16.7°C | 67.8% | 925.7hPa | 2.7V | 00:00:00 | 00:00:00 | 08:30:00 | |
| KRY50SP-1 | 2026-08-30 08:06:03 | 52.78747 | 16.45784 | 36° | 46km/h | 786m | -1.7m/s | 16.7°C | 68.1% | 925.6hPa | 2.7V | 00:00:00 | 00:00:00 | 00:00:00 | |
| SP3BTT-10 | 2026-08-30 08:05:59 | 52.78700 | 16.45723 | 40° | 49km/h | 795m | -1.7m/s | 16.6°C | 69.6% | 924.5hPa | 2.7V | 00:00:00 | 00:00:00 | 00:00:00 | |
| KRY50SP-1 | 2026-08-30 08:05:58 | 52.78700 | 16.45723 | 41° | 49km/h | 795m | -1.8m/s | 16.6°C | 68.4% | 924.6hPa | 2.7V | 00:00:00 | 00:00:00 | 00:00:00 | |
| SP3BTT-10 | 2026-08-30 08:05:53 | 52.78643 | 16.45642 | 42° | 49km/h | 806m | -1.5m/s | 16.5°C | 68.8% | 923.2hPa | 2.7V | 00:00:00 | 00:00:00 | 00:00:00 | |
| KRY50SP-1 | 2026-08-30 08:05:51 | 52.78634 | 16.45628 | 42° | 49km/h | 807m | -1.5m/s | 16.5°C | 68.8% | 923.3hPa | 2.7V | 00:00:00 | 00:00:00 | 00:00:00 | |
| SP3BTT-10 | 2026-08-30 08:05:47 | 52.78586 | 16.45560 | 42° | 51km/h | 816m | -1.7m/s | 16.3°C | 70.0% | 922.2hPa | 2.7V | 00:00:00 | 00:00:00 | 00:00:00 | |
| KRY50SP-1 | 2026-08-30 08:05:43 | 52.78557 | 16.45517 | 43° | 51km/h | 821m | -2.0m/s | 16.4°C | 68.0% | 921.7hPa | 2.7V | 00:00:00 | 00:00:00 | 00:00:00 | |
| SP3BTT-10 | 2026-08-30 08:05:41 | 52.78527 | 16.45474 | 42° | 51km/h | 827m | -2.1m/s | 16.3°C | 69.8% | 921.1hPa | 2.7V | 00:00:00 | 00:00:00 | 00:00:00 | |
| KRY50SP-1 | 2026-08-30 08:05:37 | 52.78499 | 16.45431 | 43° | 51km/h | 833m | -1.9m/s | 16.3°C | 69.1% | 920.5hPa | 2.7V | 00:00:00 | 00:00:00 | 00:00:00 | |
| KRY50SP-1 | 2026-08-30 08:05:31 | 52.78441 | 16.45346 | 42° | 51km/h | 845m | -2.0m/s | 16.1°C | 70.1% | 919.2hPa | 2.7V | 00:00:00 | 00:00:00 | 00:00:00 | |
| SP3BTT-10 | 2026-08-30 08:05:29 | 52.78411 | 16.45304 | 41° | 51km/h | 851m | -1.8m/s | 16.0°C | 71.3% | 918.3hPa | 2.7V | 00:00:00 | 00:00:00 | 00:00:00 | |
| KRY50SP-1 | 2026-08-30 08:05:26 | 52.78392 | 16.45275 | 43° | 53km/h | 854m | -1.8m/s | 16.1°C | 69.6% | 918.2hPa | 2.7V | 00:00:00 | 00:00:00 | 00:00:00 | |
| SP3BTT-10 | 2026-08-30 08:05:23 | 52.78353 | 16.45217 | 44° | 51km/h | 862m | -1.7m/s | 16.0°C | 70.5% | 917.2hPa | 2.7V | 00:00:00 | 00:00:00 | 00:00:00 | |
| KRY50SP-1 | 2026-08-30 08:05:19 | 52.78324 | 16.45172 | 44° | 53km/h | 868m | -2.1m/s | 16.0°C | 69.5% | 916.9hPa | 2.7V | 00:00:00 | 00:00:00 | 00:00:00 | |
| SP3BTT-10 | 2026-08-30 08:05:17 | 52.78295 | 16.45128 | 43° | 53km/h | 874m | -2.0m/s | 15.9°C | 71.0% | 916.1hPa | 2.7V | 00:00:00 | 00:00:00 | 00:00:00 | |
| KRY50SP-1 | 2026-08-30 08:05:13 | 52.78266 | 16.45084 | 43° | 53km/h | 880m | -1.9m/s | 15.9°C | 69.4% | 915.5hPa | 2.7V | 00:00:00 | 00:00:00 | 00:00:00 | |
| SP3BTT-10 | 2026-08-30 08:05:11 | 52.78236 | 16.45040 | 43° | 53km/h | 886m | -1.9m/s | 15.8°C | 71.5% | 914.8hPa | 2.7V | 00:00:00 | 00:00:00 | 08:30:00 | |
| KRY50SP-1 | 2026-08-30 08:05:08 | 52.78217 | 16.45010 | 45° | 53km/h | 890m | -2.1m/s | 15.8°C | 70.0% | 914.3hPa | 2.7V | 00:00:00 | 00:00:00 | 00:00:00 | |
| SP3BTT-10 | 2026-08-30 08:05:05 | 52.78179 | 16.44949 | 46° | 53km/h | 898m | -1.9m/s | 15.7°C | 71.9% | 913.5hPa | 2.7V | 00:00:00 | 00:00:00 | 00:00:00 | |
| KRY50SP-1 | 2026-08-30 08:05:03 | 52.78170 | 16.44933 | 47° | 53km/h | 900m | -1.9m/s | 15.7°C | 71.3% | 913.1hPa | 2.7V | 00:00:00 | 00:00:00 | 00:00:00 | |
| SP3BTT-10 | 2026-08-30 08:04:59 | 52.78125 | 16.44852 | 49° | 55km/h | 911m | -1.9m/s | 15.6°C | 72.1% | 912.0hPa | 2.7V | 00:00:00 | 00:00:00 | 00:00:00 | |
| KRY50SP-1 | 2026-08-30 08:04:57 | 52.78116 | 16.44835 | 49° | 55km/h | 913m | -2.1m/s | 15.6°C | 71.3% | 911.8hPa | 2.7V | 00:00:00 | 00:00:00 | 00:00:00 | |
| SP3BTT-10 | 2026-08-30 08:04:53 | 52.78069 | 16.44749 | 49° | 55km/h | 925m | -2.6m/s | 15.4°C | 73.3% | 910.5hPa | 2.7V | 00:00:00 | 00:00:00 | 00:00:00 | |
| KRY50SP-1 | 2026-08-30 08:04:51 | 52.78060 | 16.44732 | 49° | 55km/h | 928m | -2.7m/s | 15.5°C | 71.2% | 910.4hPa | 2.7V | 00:00:00 | 00:00:00 | 00:00:00 | |
| SP3BTT-10 | 2026-08-30 08:04:47 | 52.78012 | 16.44648 | 47° | 57km/h | 939m | -2.3m/s | 15.3°C | 73.3% | 909.1hPa | 2.7V | 00:00:00 | 00:00:00 | 00:00:00 | |
| KRY50SP-1 | 2026-08-30 08:04:45 | 52.78003 | 16.44631 | 48° | 57km/h | 941m | -2.0m/s | 15.3°C | 72.0% | 908.8hPa | 2.7V | 00:00:00 | 00:00:00 | 00:00:00 | |
| SP3BTT-10 | 2026-08-30 08:04:41 | 52.77955 | 16.44545 | 48° | 57km/h | 951m | -2.0m/s | 15.2°C | 73.8% | 907.7hPa | 2.7V | 00:00:00 | 00:00:00 | 00:00:00 | |
| KRY50SP-1 | 2026-08-30 08:04:39 | 52.77945 | 16.44527 | 48° | 55km/h | 953m | -2.0m/s | 15.2°C | 72.7% | 907.4hPa | 2.7V | 00:00:00 | 00:00:00 | 00:00:00 | |
| SP3BTT-10 | 2026-08-30 08:04:35 | 52.77897 | 16.44442 | 48° | 57km/h | 963m | -1.9m/s | 15.1°C | 74.3% | 906.3hPa | 2.7V | 00:00:00 | 00:00:00 | 00:00:00 | |
| KRY50SP-1 | 2026-08-30 08:04:33 | 52.77888 | 16.44425 | 48° | 57km/h | 965m | -1.9m/s | 15.1°C | 73.3% | 906.3hPa | 2.7V | 00:00:00 | 00:00:00 | 00:00:00 | |
| SP3BTT-10 | 2026-08-30 08:04:29 | 52.77839 | 16.44338 | 47° | 57km/h | 975m | -1.9m/s | 15.0°C | 74.3% | 905.1hPa | 2.7V | 00:00:00 | 00:00:00 | 00:00:00 | |
| SP3BTT-10 | 2026-08-30 08:04:23 | 52.77779 | 16.44236 | 46° | 57km/h | 987m | -2.0m/s | 14.9°C | 75.3% | 903.7hPa | 2.7V | 00:00:00 | 00:00:00 | 00:00:00 | |
| KRY50SP-1 | 2026-08-30 08:04:22 | 52.77779 | 16.44236 | 46° | 57km/h | 987m | -2.0m/s | 14.9°C | 73.8% | 903.7hPa | 2.7V | 00:00:00 | 00:00:00 | 00:00:00 | |
| SP3BTT-10 | 2026-08-30 08:04:17 | 52.77717 | 16.44135 | 45° | 57km/h | 1000m | -1.9m/s | 14.8°C | 75.3% | 902.4hPa | 2.7V | 00:00:00 | 00:00:00 | 08:30:00 | |
| KRY50SP-1 | 2026-08-30 08:04:16 | 52.77716 | 16.44135 | 46° | 57km/h | 1000m | -1.9m/s | 14.9°C | 73.8% | 902.4hPa | 2.7V | 00:00:00 | 00:00:00 | 00:00:00 | |
| SP3BTT-10 | 2026-08-30 08:04:11 | 52.77654 | 16.44035 | 43° | 57km/h | 1011m | -1.8m/s | 14.7°C | 75.8% | 901.3hPa | 2.7V | 00:00:00 | 00:00:00 | 00:00:00 | |
| KRY50SP-1 | 2026-08-30 08:04:10 | 52.77654 | 16.44035 | 44° | 57km/h | 1011m | -1.9m/s | 14.8°C | 74.3% | 901.3hPa | 2.7V | 00:00:00 | 00:00:00 | 00:00:00 | |
| KRY50SP-1 | 2026-08-30 08:04:05 | 52.77600 | 16.43956 | 43° | 57km/h | 1021m | -2.1m/s | 14.7°C | 74.1% | 900.2hPa | 2.7V | 00:00:00 | 00:00:00 | 00:00:00 | |
| SP3BTT-10 | 2026-08-30 08:04:05 | 52.77590 | 16.43940 | 42° | 57km/h | 1023m | -1.8m/s | 14.6°C | 75.7% | 900.0hPa | 2.7V | 00:00:00 | 00:00:00 | 00:00:00 | |
| KRY50SP-1 | 2026-08-30 08:03:59 | 52.77536 | 16.43863 | 41° | 57km/h | 1033m | -2.0m/s | 14.6°C | 74.9% | 898.9hPa | 2.7V | 00:00:00 | 00:00:00 | 00:00:00 | |
| SP3BTT-10 | 2026-08-30 08:03:59 | 52.77525 | 16.43848 | 40° | 55km/h | 1035m | -2.1m/s | 14.5°C | 76.5% | 898.6hPa | 2.7V | 00:00:00 | 00:00:00 | 00:00:00 | |
| KRY50SP-1 | 2026-08-30 08:03:54 | 52.77481 | 16.43790 | 40° | 55km/h | 1043m | -2.1m/s | 14.6°C | 74.3% | 897.8hPa | 2.7V | 00:00:00 | 00:00:00 | 00:00:00 | |
| SP3BTT-10 | 2026-08-30 08:03:53 | 52.77460 | 16.43760 | 40° | 55km/h | 1047m | -2.0m/s | 14.4°C | 77.1% | 897.3hPa | 2.7V | 00:00:00 | 00:00:00 | 00:00:00 | |
| KRY50SP-1 | 2026-08-30 08:03:49 | 52.77427 | 16.43717 | 40° | 55km/h | 1054m | -2.0m/s | 14.5°C | 76.6% | 896.8hPa | 2.7V | 00:00:00 | 00:00:00 | 00:00:00 | |
| SP3BTT-10 | 2026-08-30 08:03:47 | 52.77395 | 16.43675 | 39° | 53km/h | 1060m | -1.9m/s | 14.3°C | 78.1% | 896.0hPa | 2.7V | 00:00:00 | 00:00:00 | 00:00:00 | |
| KRY50SP-1 | 2026-08-30 08:03:44 | 52.77374 | 16.43647 | 40° | 53km/h | 1064m | -1.9m/s | 14.4°C | 76.1% | 895.7hPa | 2.7V | 00:00:00 | 00:00:00 | 00:00:00 | |
| SP3BTT-10 | 2026-08-30 08:03:41 | 52.77333 | 16.43591 | 40° | 53km/h | 1072m | -2.1m/s | 14.3°C | 79.2% | 894.9hPa | 2.7V | 00:00:00 | 00:00:00 | 00:00:00 | |
| KRY50SP-1 | 2026-08-30 08:03:38 | 52.77312 | 16.43563 | 40° | 53km/h | 1076m | -2.0m/s | 14.3°C | 76.3% | 894.5hPa | 2.7V | 00:00:00 | 00:00:00 | 00:00:00 | |
| SP3BTT-10 | 2026-08-30 08:03:35 | 52.77270 | 16.43508 | 39° | 55km/h | 1084m | -1.9m/s | 14.2°C | 78.2% | 893.6hPa | 2.7V | 00:00:00 | 00:00:00 | 00:00:00 | |
| KRY50SP-1 | 2026-08-30 08:03:32 | 52.77249 | 16.43480 | 39° | 55km/h | 1088m | -2.0m/s | 14.3°C | 76.5% | 893.3hPa | 2.7V | 00:00:00 | 00:00:00 | 00:00:00 | |
| SP3BTT-10 | 2026-08-30 08:03:29 | 52.77205 | 16.43424 | 38° | 57km/h | 1096m | -1.8m/s | 14.2°C | 77.0% | 892.4hPa | 2.7V | 00:00:00 | 00:00:00 | 00:00:00 | |
| KRY50SP-1 | 2026-08-30 08:03:26 | 52.77183 | 16.43395 | 39° | 57km/h | 1100m | -1.9m/s | 14.2°C | 75.7% | 892.1hPa | 2.7V | 00:00:00 | 00:00:00 | 00:00:00 | |
| SP3BTT-10 | 2026-08-30 08:03:23 | 52.77137 | 16.43336 | 39° | 60km/h | 1107m | -1.9m/s | 14.1°C | 77.1% | 891.2hPa | 2.7V | 00:00:00 | 00:00:00 | 08:30:00 | |
| KRY50SP-1 | 2026-08-30 08:03:20 | 52.77114 | 16.43304 | 40° | 60km/h | 1111m | -2.0m/s | 14.2°C | 74.5% | 890.7hPa | 2.7V | 00:00:00 | 00:00:00 | 00:00:00 | |
| SP3BTT-10 | 2026-08-30 08:03:16 | 52.77055 | 16.43225 | 39° | 62km/h | 1121m | -1.9m/s | 14.0°C | 76.3% | 889.7hPa | 2.7V | 00:00:00 | 00:00:00 | 00:00:00 | |
| KRY50SP-1 | 2026-08-30 08:03:15 | 52.77055 | 16.43226 | 40° | 60km/h | 1121m | -1.9m/s | 14.1°C | 74.7% | 889.7hPa | 2.7V | 00:00:00 | 00:00:00 | 00:00:00 | |
| KRY50SP-1 | 2026-08-30 08:03:10 | 52.76995 | 16.43145 | 40° | 62km/h | 1131m | -1.9m/s | 14.0°C | 75.3% | 888.6hPa | 2.7V | 00:00:00 | 00:00:00 | 00:00:00 | |
| KRY50SP-1 | 2026-08-30 08:03:05 | 52.76936 | 16.43062 | 42° | 62km/h | 1141m | -1.9m/s | 14.0°C | 74.4% | 887.6hPa | 2.7V | 00:00:00 | 00:00:00 | 00:00:00 | |
| KRY50SP-1 | 2026-08-30 08:02:59 | 52.76866 | 16.42958 | 45° | 62km/h | 1152m | -1.8m/s | 13.9°C | 74.8% | 886.5hPa | 2.7V | 00:00:00 | 00:00:00 | 00:00:00 | |
| SP3BTT-10 | 2026-08-30 08:02:56 | 52.76823 | 16.42886 | 48° | 55km/h | 1159m | -1.9m/s | 13.8°C | 76.5% | 885.6hPa | 2.7V | 00:00:00 | 00:00:00 | 00:00:00 | |
| KRY50SP-1 | 2026-08-30 08:02:53 | 52.76803 | 16.42851 | 49° | 57km/h | 1163m | -1.9m/s | 13.9°C | 75.2% | 885.3hPa | 2.7V | 00:00:00 | 00:00:00 | 00:00:00 | |
| KRY50SP-1 | 2026-08-30 08:02:48 | 52.76756 | 16.42766 | 49° | 55km/h | 1173m | -1.8m/s | 13.8°C | 74.3% | 884.3hPa | 2.7V | 00:00:00 | 00:00:00 | 00:00:00 | |
| KRY50SP-1 | 2026-08-30 08:02:43 | 52.76710 | 16.42682 | 48° | 53km/h | 1182m | -1.9m/s | 13.7°C | 75.7% | 883.3hPa | 2.7V | 00:00:00 | 00:00:00 | 00:00:00 | |
| KRY50SP-1 | 2026-08-30 08:02:37 | 52.76655 | 16.42584 | 49° | 53km/h | 1193m | -1.9m/s | 13.6°C | 77.1% | 882.2hPa | 2.7V | 00:00:00 | 00:00:00 | 00:00:00 | |
| SP3BTT-10 | 2026-08-30 08:02:36 | 52.76636 | 16.42551 | 48° | 51km/h | 1197m | -1.7m/s | 13.5°C | 78.6% | 881.6hPa | 2.7V | 00:00:00 | 00:00:00 | 00:00:00 | |
| KRY50SP-1 | 2026-08-30 08:02:31 | 52.76600 | 16.42487 | 47° | 53km/h | 1204m | -2.0m/s | 13.6°C | 76.9% | 881.0hPa | 2.7V | 00:00:00 | 00:00:00 | 00:00:00 | |
| KRY50SP-1 | 2026-08-30 08:02:26 | 52.76554 | 16.42410 | 46° | 51km/h | 1214m | -2.0m/s | 13.5°C | 76.4% | 879.9hPa | 2.7V | 00:00:00 | 00:00:00 | 00:00:00 | |
| KRY50SP-1 | 2026-08-30 08:02:20 | 52.76498 | 16.42322 | 43° | 51km/h | 1226m | -1.9m/s | 13.4°C | 77.5% | 878.6hPa | 2.7V | 00:00:00 | 00:00:00 | 00:00:00 | |
| SP3BTT-10 | 2026-08-30 08:02:16 | 52.76450 | 16.42253 | 40° | 58km/h | 1236m | -1.8m/s | 13.2°C | 79.0% | 877.7hPa | 2.7V | 00:00:00 | 00:00:00 | 00:00:00 | |
| KRY50SP-1 | 2026-08-30 08:02:14 | 52.76440 | 16.42239 | 40° | 51km/h | 1238m | -1.9m/s | 13.2°C | 78.2% | 877.4hPa | 2.7V | 00:00:00 | 00:00:00 | 00:00:00 | |
| KRY50SP-1 | 2026-08-30 08:02:08 | 52.76374 | 16.42157 | 38° | 57km/h | 1249m | -1.8m/s | 13.2°C | 76.8% | 876.3hPa | 2.7V | 00:00:00 | 00:00:00 | 00:00:00 | |
| KRY50SP-1 | 2026-08-30 08:02:02 | 52.76303 | 16.42068 | 39° | 60km/h | 1260m | -1.9m/s | 13.0°C | 78.3% | 875.1hPa | 2.7V | 00:00:00 | 00:00:00 | 00:00:00 | |
| KRY50SP-1 | 2026-08-30 08:01:57 | 52.76243 | 16.41989 | 40° | 60km/h | 1269m | -1.8m/s | 12.9°C | 79.1% | 874.1hPa | 2.7V | 00:00:00 | 00:00:00 | 00:00:00 | |
| SP3BTT-10 | 2026-08-30 08:01:56 | 52.76219 | 16.41956 | 41° | 60km/h | 1273m | -1.7m/s | 12.9°C | 80.4% | 873.6hPa | 2.7V | 00:00:00 | 00:00:00 | 00:00:00 | |
| KRY50SP-1 | 2026-08-30 08:01:52 | 52.76184 | 16.41906 | 43° | 62km/h | 1279m | -1.9m/s | 12.9°C | 78.1% | 873.2hPa | 2.7V | 00:00:00 | 00:00:00 | 00:00:00 | |
| KRY50SP-1 | 2026-08-30 08:01:47 | 52.76127 | 16.41817 | 46° | 62km/h | 1289m | -2.0m/s | 12.8°C | 79.2% | 872.1hPa | 2.7V | 00:00:00 | 00:00:00 | 00:00:00 | |
| KRY50SP-1 | 2026-08-30 08:01:41 | 52.76066 | 16.41710 | 48° | 57km/h | 1300m | -2.0m/s | 12.7°C | 78.6% | 871.0hPa | 2.7V | 00:00:00 | 00:00:00 | 00:00:00 | |
| KRY50SP-1 | 2026-08-30 08:01:36 | 52.76017 | 16.41622 | 49° | 58km/h | 1310m | -2.0m/s | 12.6°C | 79.6% | 869.9hPa | 2.7V | 00:00:00 | 00:00:00 | 00:00:00 | |
| SP3BTT-10 | 2026-08-30 08:01:36 | 52.76007 | 16.41604 | 48° | 55km/h | 1312m | -1.8m/s | 12.5°C | 81.9% | 869.8hPa | 2.7V | 00:00:00 | 00:00:00 | 00:00:00 | |
| KRY50SP-1 | 2026-08-30 08:01:31 | 52.75968 | 16.41532 | 49° | 58km/h | 1320m | -1.8m/s | 12.5°C | 79.9% | 869.1hPa | 2.7V | 00:00:00 | 00:00:00 | 00:00:00 | |
| KRY50SP-1 | 2026-08-30 08:01:25 | 52.75912 | 16.41429 | 48° | 53km/h | 1331m | -2.1m/s | 12.3°C | 80.8% | 867.8hPa | 2.7V | 00:00:00 | 00:00:00 | 00:00:00 | |
| KRY50SP-1 | 2026-08-30 08:01:20 | 52.75866 | 16.41352 | 44° | 51km/h | 1341m | -1.9m/s | 12.3°C | 81.2% | 866.8hPa | 2.7V | 00:00:00 | 00:00:00 | 00:00:00 | |
| SP3BTT-10 | 2026-08-30 08:01:16 | 52.75815 | 16.41282 | 39° | 58km/h | 1351m | -2.0m/s | 12.1°C | 84.0% | 865.7hPa | 2.7V | 00:00:00 | 00:00:00 | 00:00:00 | |
| KRY50SP-1 | 2026-08-30 08:01:14 | 52.75805 | 16.41268 | 39° | 55km/h | 1353m | -1.8m/s | 12.2°C | 80.6% | 865.6hPa | 2.7V | 00:00:00 | 00:00:00 | 00:00:00 | |
| KRY50SP-1 | 2026-08-30 08:01:08 | 52.75735 | 16.41181 | 38° | 58km/h | 1364m | -1.9m/s | 12.0°C | 82.2% | 864.4hPa | 2.7V | 00:00:00 | 00:00:00 | 00:00:00 | |
| KRY50SP-1 | 2026-08-30 08:01:02 | 52.75664 | 16.41093 | 38° | 58km/h | 1376m | -2.1m/s | 11.9°C | 81.4% | 863.0hPa | 2.7V | 00:00:00 | 00:00:00 | 00:00:00 | |
| KRY50SP-1 | 2026-08-30 08:00:56 | 52.75592 | 16.41003 | 40° | 60km/h | 1389m | -2.0m/s | 11.7°C | 83.3% | 861.7hPa | 2.7V | 00:00:00 | 00:00:00 | 00:00:00 | |
| SP3BTT-10 | 2026-08-30 08:00:56 | 52.75580 | 16.40987 | 40° | 60km/h | 1391m | -2.0m/s | 11.7°C | 85.8% | 861.5hPa | 2.7V | 00:00:00 | 00:00:00 | 00:00:00 | |
| KRY50SP-1 | 2026-08-30 08:00:51 | 52.75532 | 16.40919 | 43° | 62km/h | 1398m | -2.2m/s | 11.7°C | 83.8% | 860.8hPa | 2.7V | 00:00:00 | 00:00:00 | 00:00:00 | |
| KRY50SP-1 | 2026-08-30 08:00:45 | 52.75466 | 16.40811 | 48° | 60km/h | 1411m | -2.0m/s | 11.6°C | 83.1% | 859.6hPa | 2.7V | 00:00:00 | 00:00:00 | 00:00:00 | |
| KRY50SP-1 | 2026-08-30 08:00:39 | 52.75406 | 16.40703 | 49° | 57km/h | 1423m | -1.9m/s | 11.5°C | 85.1% | 858.3hPa | 2.7V | 00:00:00 | 00:00:00 | 00:00:00 | |
| SP3BTT-10 | 2026-08-30 08:00:36 | 52.75368 | 16.40634 | 48° | 51km/h | 1431m | -2.0m/s | 11.3°C | 87.5% | 857.4hPa | 2.7V | 00:00:00 | 00:00:00 | 08:30:00 | |
| KRY50SP-1 | 2026-08-30 08:00:33 | 52.75349 | 16.40601 | 48° | 53km/h | 1435m | -2.0m/s | 11.4°C | 85.2% | 857.0hPa | 2.7V | 00:00:00 | 00:00:00 | 00:00:00 | |
| KRY50SP-1 | 2026-08-30 08:00:28 | 52.75303 | 16.40522 | 47° | 51km/h | 1445m | -2.2m/s | 11.3°C | 84.9% | 855.9hPa | 2.7V | 00:00:00 | 00:00:00 | 00:00:00 | |
| KRY50SP-1 | 2026-08-30 08:00:23 | 52.75257 | 16.40446 | 45° | 51km/h | 1456m | -1.9m/s | 11.3°C | 86.1% | 855.0hPa | 2.7V | 00:00:00 | 00:00:00 | 00:00:00 | |
| KRY50SP-1 | 2026-08-30 08:00:17 | 52.75201 | 16.40362 | 41° | 49km/h | 1469m | -2.1m/s | 11.1°C | 86.7% | 853.6hPa | 2.7V | 00:00:00 | 00:00:00 | 00:00:00 | |
| SP3BTT-10 | 2026-08-30 08:00:16 | 52.75181 | 16.40335 | 40° | 49km/h | 1473m | -2.2m/s | 11.0°C | 89.5% | 853.1hPa | 2.7V | 00:00:00 | 00:00:00 | 00:00:00 | |
| KRY50SP-1 | 2026-08-30 08:00:11 | 52.75142 | 16.40282 | 40° | 51km/h | 1482m | -2.0m/s | 11.1°C | 87.1% | 852.2hPa | 2.7V | 00:00:00 | 00:00:00 | 00:00:00 | |
| KRY50SP-1 | 2026-08-30 08:00:05 | 52.75082 | 16.40204 | 39° | 49km/h | 1495m | -2.3m/s | 11.2°C | 86.8% | 850.8hPa | 2.7V | 00:00:00 | 00:00:00 | 00:00:00 | |
| SP3WXH-11 | 2026-08-30 07:59:47 | 52.74903 | 16.39968 | 37° | 47km/h | 1534m | -2.0m/s | 10.9°C | 87.1% | 846.9hPa | 2.7V | 00:00:00 | 00:00:00 | 00:00:00 | |
| KRY50SP-1 | 2026-08-30 07:59:43 | 52.74874 | 16.39932 | 38° | 47km/h | 1541m | -2.1m/s | 10.9°C | 87.1% | 846.3hPa | 2.7V | 00:00:00 | 00:00:00 | 00:00:00 | |
| KRY50SP-1 | 2026-08-30 07:59:38 | 52.74827 | 16.39873 | 39° | 46km/h | 1551m | -2.1m/s | 10.8°C | 88.2% | 845.2hPa | 2.7V | 00:00:00 | 00:00:00 | 00:00:00 | |
| SP3BTT-10 | 2026-08-30 07:59:36 | 52.74801 | 16.39838 | 40° | 46km/h | 1558m | -2.1m/s | 10.7°C | 89.1% | 844.4hPa | 2.7V | 00:00:00 | 00:00:00 | 00:00:00 | |
| KRY50SP-1 | 2026-08-30 07:59:32 | 52.74774 | 16.39801 | 42° | 46km/h | 1564m | -2.1m/s | 10.7°C | 88.0% | 843.8hPa | 2.7V | 00:00:00 | 00:00:00 | 00:00:00 | |
| KRY50SP-1 | 2026-08-30 07:59:27 | 52.74731 | 16.39738 | 43° | 46km/h | 1575m | -2.3m/s | 10.6°C | 88.9% | 842.9hPa | 2.7V | 00:00:00 | 00:00:00 | 00:00:00 | |
| KRY50SP-1 | 2026-08-30 07:59:21 | 52.74680 | 16.39662 | 43° | 46km/h | 1587m | -2.2m/s | 10.5°C | 88.4% | 841.5hPa | 2.7V | 00:00:00 | 00:00:00 | 00:00:00 | |
| SP3WXH-11 | 2026-08-30 07:59:16 | 52.74629 | 16.39586 | 42° | 44km/h | 1600m | -2.3m/s | 10.4°C | 89.1% | 840.2hPa | 2.7V | 00:00:00 | 00:00:00 | 00:00:00 | |
| SP3BTT-10 | 2026-08-30 07:59:16 | 52.74629 | 16.39586 | 43° | 46km/h | 1600m | -2.3m/s | 10.3°C | 91.7% | 840.1hPa | 2.7V | 00:00:00 | 00:00:00 | 00:00:00 | |
| KRY50SP-1 | 2026-08-30 07:59:15 | 52.74629 | 16.39585 | 43° | 44km/h | 1600m | -2.3m/s | 10.4°C | 89.2% | 840.2hPa | 2.7V | 00:00:00 | 00:00:00 | 00:00:00 | |
| KRY50SP-1 | 2026-08-30 07:59:09 | 52.74578 | 16.39510 | 44° | 46km/h | 1614m | -2.1m/s | 10.2°C | 90.1% | 838.8hPa | 2.7V | 00:00:00 | 00:00:00 | 00:00:00 | |
| KRY50SP-1 | 2026-08-30 07:59:04 | 52.74537 | 16.39446 | 43° | 44km/h | 1624m | -2.1m/s | 10.1°C | 90.8% | 837.8hPa | 2.7V | 00:00:00 | 00:00:00 | 00:00:00 | |
| SP3WXH-11 | 2026-08-30 07:58:45 | 52.74365 | 16.39203 | 34° | 46km/h | 1666m | -2.3m/s | 9.9°C | 91.3% | 833.6hPa | 2.7V | 00:00:00 | 00:00:00 | 00:00:00 | |
| KRY50SP-1 | 2026-08-30 07:58:42 | 52.74345 | 16.39181 | 35° | 47km/h | 1671m | -2.3m/s | 9.9°C | 91.0% | 833.2hPa | 2.7V | 00:00:00 | 00:00:00 | 00:00:00 | |
| KRY50SP-1 | 2026-08-30 07:58:36 | 52.74282 | 16.39109 | 38° | 53km/h | 1685m | -2.3m/s | 9.8°C | 90.9% | 831.8hPa | 2.7V | 00:00:00 | 00:00:00 | 00:00:00 | |
| SP3BTT-10 | 2026-08-30 07:58:36 | 52.74271 | 16.39095 | 39° | 55km/h | 1687m | -2.2m/s | 9.7°C | 93.2% | 831.4hPa | 2.7V | 00:00:00 | 00:00:00 | 00:00:00 | |
| KRY50SP-1 | 2026-08-30 07:58:31 | 52.74229 | 16.39037 | 41° | 55km/h | 1696m | -2.3m/s | 9.7°C | 91.1% | 830.8hPa | 2.7V | 00:00:00 | 00:00:00 | 00:00:00 | |
| KRY50SP-1 | 2026-08-30 07:58:25 | 52.74165 | 16.38948 | 42° | 55km/h | 1709m | -2.3m/s | 9.6°C | 91.8% | 829.3hPa | 2.7V | 00:00:00 | 00:00:00 | 00:00:00 | |
| KRY50SP-1 | 2026-08-30 07:58:20 | 52.74113 | 16.38872 | 43° | 55km/h | 1721m | -2.3m/s | 9.6°C | 92.4% | 828.2hPa | 2.7V | 00:00:00 | 00:00:00 | 00:00:00 | |
| SP3BTT-10 | 2026-08-30 07:58:16 | 52.74061 | 16.38795 | 43° | 51km/h | 1732m | -2.1m/s | 9.4°C | 94.6% | 827.0hPa | 2.7V | 00:00:00 | 00:00:00 | 00:00:00 | |
| KRY50SP-1 | 2026-08-30 07:58:15 | 52.74061 | 16.38795 | 43° | 55km/h | 1732m | -2.2m/s | 9.5°C | 91.8% | 827.1hPa | 2.7V | 00:00:00 | 00:00:00 | 00:00:00 | |
| SP3WXH-11 | 2026-08-30 07:58:14 | 52.74041 | 16.38764 | 43° | 53km/h | 1736m | -2.1m/s | 9.5°C | 92.1% | 826.6hPa | 2.7V | 00:00:00 | 00:00:00 | 00:00:00 | |
| KRY50SP-1 | 2026-08-30 07:58:10 | 52.74012 | 16.38717 | 46° | 53km/h | 1742m | -2.0m/s | 9.4°C | 92.2% | 826.1hPa | 2.7V | 00:00:00 | 00:00:00 | 00:00:00 | |
| KRY50SP-1 | 2026-08-30 07:58:04 | 52.73957 | 16.38623 | 47° | 51km/h | 1755m | -2.1m/s | 9.4°C | 92.9% | 824.8hPa | 2.7V | 00:00:00 | 00:00:00 | 00:00:00 | |
| KRY50SP-1 | 2026-08-30 07:57:59 | 52.73913 | 16.38545 | 49° | 51km/h | 1765m | -2.2m/s | 9.3°C | 92.1% | 823.9hPa | 2.7V | 00:00:00 | 00:00:00 | 00:00:00 | |
| SP3BTT-10 | 2026-08-30 07:57:56 | 52.73879 | 16.38484 | 49° | 47km/h | 1773m | -2.0m/s | 9.2°C | 95.9% | 822.9hPa | 2.7V | 00:00:00 | 00:00:00 | 00:00:00 | |
| KRY50SP-1 | 2026-08-30 07:57:54 | 52.73871 | 16.38469 | 49° | 49km/h | 1775m | -2.0m/s | 9.3°C | 92.0% | 822.9hPa | 2.7V | 00:00:00 | 00:00:00 | 00:00:00 | |
| KRY50SP-1 | 2026-08-30 07:57:48 | 52.73823 | 16.38380 | 49° | 47km/h | 1787m | -1.9m/s | 9.2°C | 93.8% | 821.8hPa | 2.7V | 00:00:00 | 00:00:00 | 00:00:00 | |
| SP3WXH-11 | 2026-08-30 07:57:43 | 52.73775 | 16.38292 | 48° | 46km/h | 1799m | -2.1m/s | 9.1°C | 92.0% | 820.6hPa | 2.7V | 00:00:00 | 00:00:00 | 00:00:00 | |
| KRY50SP-1 | 2026-08-30 07:57:42 | 52.73775 | 16.38292 | 49° | 47km/h | 1799m | -2.1m/s | 9.1°C | 92.1% | 820.6hPa | 2.7V | 00:00:00 | 00:00:00 | 00:00:00 | |
| KRY50SP-1 | 2026-08-30 07:57:37 | 52.73735 | 16.38219 | 49° | 46km/h | 1809m | -2.1m/s | 9.0°C | 92.8% | 819.6hPa | 2.7V | 00:00:00 | 00:00:00 | 00:00:00 | |
| SP3BTT-10 | 2026-08-30 07:57:36 | 52.73719 | 16.38190 | 48° | 46km/h | 1813m | -2.1m/s | 8.9°C | 96.8% | 819.1hPa | 2.7V | 00:00:00 | 00:00:00 | 08:30:00 | |
| KRY50SP-1 | 2026-08-30 07:57:31 | 52.73687 | 16.38133 | 49° | 46km/h | 1822m | -2.1m/s | 9.0°C | 92.7% | 818.2hPa | 2.7V | 00:00:00 | 00:00:00 | 00:00:00 | |
| KRY50SP-1 | 2026-08-30 07:57:25 | 52.73640 | 16.38047 | 49° | 46km/h | 1835m | -2.1m/s | 8.9°C | 93.5% | 817.0hPa | 2.7V | 00:00:00 | 00:00:00 | 00:00:00 | |
| KRY50SP-1 | 2026-08-30 07:57:20 | 52.73601 | 16.37976 | 49° | 46km/h | 1846m | -2.2m/s | 8.8°C | 93.4% | 815.9hPa | 2.7V | 00:00:00 | 00:00:00 | 00:00:00 | |
| SP3BTT-10 | 2026-08-30 07:57:16 | 52.73562 | 16.37907 | 48° | 44km/h | 1857m | -2.1m/s | 8.7°C | 97.1% | 814.9hPa | 2.7V | 00:00:00 | 00:00:00 | 00:00:00 | |
| KRY50SP-1 | 2026-08-30 07:57:15 | 52.73562 | 16.37907 | 48° | 44km/h | 1857m | -2.2m/s | 8.7°C | 94.1% | 814.9hPa | 2.7V | 00:00:00 | 00:00:00 | 00:00:00 | |
| SP3WXH-11 | 2026-08-30 07:57:12 | 52.73532 | 16.37853 | 45° | 42km/h | 1866m | -2.2m/s | 8.6°C | 94.9% | 814.0hPa | 2.7V | 00:00:00 | 00:00:00 | 00:00:00 | |
| KRY50SP-1 | 2026-08-30 07:57:09 | 52.73516 | 16.37828 | 44° | 44km/h | 1870m | -2.3m/s | 8.6°C | 93.6% | 813.5hPa | 2.7V | 00:00:00 | 00:00:00 | 00:00:00 | |
| KRY50SP-1 | 2026-08-30 07:57:03 | 52.73464 | 16.37758 | 38° | 46km/h | 1884m | -2.6m/s | 8.5°C | 94.5% | 812.1hPa | 2.7V | 00:00:00 | 00:00:00 | 00:00:00 | |
| KRY50SP-1 | 2026-08-30 07:56:57 | 52.73408 | 16.37691 | 37° | 46km/h | 1898m | -2.4m/s | 8.4°C | 95.1% | 810.8hPa | 2.7V | 00:00:00 | 00:00:00 | 00:00:00 | |
| SP3BTT-10 | 2026-08-30 07:56:56 | 52.73389 | 16.37668 | 36° | 49km/h | 1903m | -2.3m/s | 8.3°C | 97.7% | 810.3hPa | 2.7V | 00:00:00 | 00:00:00 | 00:00:00 | |
| KRY50SP-1 | 2026-08-30 07:56:52 | 52.73359 | 16.37634 | 36° | 47km/h | 1910m | -2.4m/s | 8.3°C | 95.8% | 809.7hPa | 2.7V | 00:00:00 | 00:00:00 | 00:00:00 | |
| KRY50SP-1 | 2026-08-30 07:56:47 | 52.73308 | 16.37575 | 36° | 49km/h | 1922m | -2.6m/s | 8.2°C | 95.1% | 808.5hPa | 2.7V | 00:00:00 | 00:00:00 | 00:00:00 | |
| KRY50SP-1 | 2026-08-30 07:56:42 | 52.73257 | 16.37515 | 37° | 51km/h | 1935m | -2.5m/s | 8.1°C | 95.5% | 807.2hPa | 2.7V | 00:00:00 | 00:00:00 | 00:00:00 | |
| SP3WXH-11 | 2026-08-30 07:56:41 | 52.73236 | 16.37490 | 36° | 51km/h | 1939m | -2.4m/s | 8.1°C | 96.4% | 806.9hPa | 2.7V | 00:00:00 | 00:00:00 | 00:00:00 | |
| KRY50SP-1 | 2026-08-30 07:56:36 | 52.73193 | 16.37437 | 40° | 53km/h | 1949m | -2.3m/s | 8.1°C | 95.8% | 805.9hPa | 2.7V | 00:00:00 | 00:00:00 | 00:00:00 | |
| SP3BTT-10 | 2026-08-30 07:56:36 | 52.73183 | 16.37423 | 40° | 53km/h | 1952m | -2.2m/s | 8.0°C | 99.3% | 805.6hPa | 2.7V | 00:00:00 | 00:00:00 | 00:00:00 | |
| KRY50SP-1 | 2026-08-30 07:56:30 | 52.73132 | 16.37349 | 43° | 53km/h | 1963m | -2.3m/s | 8.0°C | 95.5% | 804.4hPa | 2.7V | 00:00:00 | 00:00:00 | 00:00:00 | |
| KRY50SP-1 | 2026-08-30 07:56:19 | 52.73024 | 16.37177 | 46° | 53km/h | 1989m | -2.5m/s | 7.8°C | 97.3% | 802.1hPa | 2.7V | 00:00:00 | 00:00:00 | 00:00:00 | |
| SP3BTT-10 | 2026-08-30 07:56:16 | 52.72985 | 16.37113 | 45° | 53km/h | 1999m | -2.3m/s | 7.7°C | 0% | 801.1hPa | 2.7V | 00:00:00 | 00:00:00 | 00:00:00 | |
| KRY50SP-1 | 2026-08-30 07:56:14 | 52.72975 | 16.37097 | 45° | 55km/h | 2001m | -2.4m/s | 7.8°C | 98.2% | 800.9hPa | 2.7V | 00:00:00 | 00:00:00 | 00:00:00 | |
| SP3WXH-11 | 2026-08-30 07:56:10 | 52.72927 | 16.37018 | 45° | 53km/h | 2013m | -2.4m/s | 7.7°C | 97.8% | 799.8hPa | 2.7V | 00:00:00 | 00:00:00 | 00:00:00 | |
| KRY50SP-1 | 2026-08-30 07:56:08 | 52.72917 | 16.37001 | 47° | 55km/h | 2015m | -2.3m/s | 7.7°C | 97.3% | 799.5hPa | 2.7V | 00:00:00 | 00:00:00 | 00:00:00 | |
| KRY50SP-1 | 2026-08-30 07:56:02 | 52.72862 | 16.36904 | 49° | 51km/h | 2029m | -2.2m/s | 7.6°C | 97.5% | 798.2hPa | 2.7V | 00:00:00 | 00:00:00 | 00:00:00 | |
| SP3BTT-10 | 2026-08-30 07:55:56 | 52.72804 | 16.36799 | 47° | 46km/h | 2044m | -2.1m/s | 7.4°C | 0% | 796.6hPa | 2.7V | 00:00:00 | 00:00:00 | 00:00:00 | |
| KRY50SP-1 | 2026-08-30 07:55:51 | 52.72772 | 16.36745 | 44° | 44km/h | 2053m | -2.2m/s | 7.4°C | 97.7% | 796.0hPa | 2.7V | 00:00:00 | 00:00:00 | 00:00:00 | |
| KRY50SP-1 | 2026-08-30 07:55:45 | 52.72720 | 16.36673 | 39° | 46km/h | 2067m | -2.3m/s | 7.4°C | 98.6% | 794.7hPa | 2.7V | 00:00:00 | 00:00:00 | 00:00:00 | |
| SP3WXH-11 | 2026-08-30 07:55:39 | 52.72655 | 16.36592 | 36° | 46km/h | 2083m | -2.4m/s | 7.3°C | 98.4% | 793.0hPa | 2.7V | 00:00:00 | 00:00:00 | 00:00:00 | |
| SP3BTT-10 | 2026-08-30 07:55:36 | 52.72626 | 16.36558 | 36° | 49km/h | 2090m | -2.4m/s | 7.2°C | 0% | 792.3hPa | 2.7V | 00:00:00 | 00:00:00 | 00:00:00 | |
| KRY50SP-1 | 2026-08-30 07:55:33 | 52.72606 | 16.36534 | 37° | 49km/h | 2096m | -2.4m/s | 7.2°C | 99.4% | 791.9hPa | 2.7V | 00:00:00 | 00:00:00 | 00:00:00 | |
| KRY50SP-1 | 2026-08-30 07:55:27 | 52.72545 | 16.36463 | 37° | 49km/h | 2110m | -2.5m/s | 7.1°C | 98.6% | 790.5hPa | 2.7V | 00:00:00 | 00:00:00 | 00:00:00 | |
| KRY50SP-1 | 2026-08-30 07:55:21 | 52.72485 | 16.36392 | 36° | 49km/h | 2125m | -2.5m/s | 7.1°C | 99.1% | 789.0hPa | 2.7V | 00:00:00 | 00:00:00 | 00:00:00 | |
| SP3BTT-10 | 2026-08-30 07:55:16 | 52.72424 | 16.36320 | 36° | 53km/h | 2140m | -2.4m/s | 6.9°C | 0% | 787.6hPa | 2.7V | 00:00:00 | 00:00:00 | 00:00:00 | |
| KRY50SP-1 | 2026-08-30 07:55:15 | 52.72424 | 16.36320 | 37° | 49km/h | 2140m | -2.4m/s | 7.0°C | 98.9% | 787.6hPa | 2.7V | 00:00:00 | 00:00:00 | 00:00:00 | |
| KRY50SP-1 | 2026-08-30 07:55:09 | 52.72361 | 16.36243 | 39° | 53km/h | 2154m | -2.3m/s | 6.9°C | 99.1% | 786.1hPa | 2.7V | 00:00:00 | 00:00:00 | 00:00:00 | |
| SP3WXH-11 | 2026-08-30 07:55:08 | 52.72340 | 16.36215 | 38° | 53km/h | 2158m | -2.2m/s | 6.9°C | 99.0% | 785.9hPa | 2.7V | 00:00:00 | 00:00:00 | 00:00:00 | |
| KRY50SP-1 | 2026-08-30 07:55:03 | 52.72298 | 16.36158 | 41° | 53km/h | 2168m | -2.4m/s | 6.8°C | 99.0% | 785.0hPa | 2.7V | 00:00:00 | 00:00:00 | 00:00:00 | |
| KRY50SP-1 | 2026-08-30 07:54:57 | 52.72236 | 16.36070 | 44° | 55km/h | 2182m | -2.1m/s | 6.8°C | 0% | 783.6hPa | 2.7V | 00:00:00 | 00:00:00 | 00:00:00 | |
| SP3BTT-10 | 2026-08-30 07:54:56 | 52.72216 | 16.36038 | 44° | 51km/h | 2186m | -2.3m/s | 6.7°C | 0% | 783.2hPa | 2.7V | 00:00:00 | 00:00:00 | 00:00:00 | |
| KRY50SP-1 | 2026-08-30 07:54:52 | 52.72186 | 16.35991 | 46° | 53km/h | 2193m | -2.3m/s | 6.7°C | 0% | 782.7hPa | 2.7V | 00:00:00 | 00:00:00 | 00:00:00 | |
| KRY50SP-1 | 2026-08-30 07:54:46 | 52.72133 | 16.35896 | 50° | 51km/h | 2207m | -1.9m/s | 6.6°C | 0% | 781.3hPa | 2.7V | 00:00:00 | 00:00:00 | 00:00:00 | |
| KRY50SP-1 | 2026-08-30 07:54:41 | 52.72092 | 16.35816 | 51° | 49km/h | 2218m | -2.3m/s | 6.6°C | 0% | 780.3hPa | 2.7V | 00:00:00 | 00:00:00 | 00:00:00 | |
| SP3WXH-11 | 2026-08-30 07:54:37 | 52.72055 | 16.35739 | 50° | 42km/h | 2230m | -2.5m/s | 6.5°C | 99.9% | 779.1hPa | 2.7V | 00:00:00 | 00:00:00 | 00:00:00 | |
| SP3BTT-10 | 2026-08-30 07:54:36 | 52.72048 | 16.35725 | 50° | 51km/h | 2232m | -2.3m/s | 6.4°C | 0% | 778.8hPa | 2.7V | 00:00:00 | 00:00:00 | 08:30:00 | |
| KRY50SP-1 | 2026-08-30 07:54:35 | 52.72048 | 16.35725 | 50° | 44km/h | 2232m | -2.4m/s | 6.5°C | 0% | 778.9hPa | 2.7V | 00:00:00 | 00:00:00 | 00:00:00 | |
| KRY50SP-1 | 2026-08-30 07:54:29 | 52.71999 | 16.35650 | 40° | 47km/h | 2246m | -2.2m/s | 6.4°C | 0% | 777.6hPa | 2.7V | 00:00:00 | 00:00:00 | 00:00:00 | |
| KRY50SP-1 | 2026-08-30 07:54:23 | 52.71936 | 16.35567 | 42° | 55km/h | 2261m | -2.5m/s | 6.3°C | 0% | 776.2hPa | 2.7V | 00:00:00 | 00:00:00 | 00:00:00 | |
| KRY50SP-1 | 2026-08-30 07:54:18 | 52.71883 | 16.35487 | 46° | 57km/h | 2273m | -2.2m/s | 6.3°C | 0% | 775.0hPa | 2.7V | 00:00:00 | 00:00:00 | 00:00:00 | |
| SP3BTT-10 | 2026-08-30 07:54:16 | 52.71853 | 16.35434 | 50° | 51km/h | 2280m | -2.4m/s | 6.2°C | 0% | 774.3hPa | 2.7V | 00:00:00 | 00:00:00 | 00:00:00 | |
| KRY50SP-1 | 2026-08-30 07:54:12 | 52.71826 | 16.35381 | 52° | 55km/h | 2286m | -2.1m/s | 6.2°C | 0% | 773.7hPa | 2.7V | 00:00:00 | 00:00:00 | 00:00:00 | |
| KRY50SP-1 | 2026-08-30 07:54:07 | 52.71786 | 16.35295 | 52° | 47km/h | 2296m | -1.9m/s | 6.2°C | 0% | 772.7hPa | 2.7V | 00:00:00 | 00:00:00 | 00:00:00 | |
| SP3WXH-11 | 2026-08-30 07:54:06 | 52.71771 | 16.35265 | 48° | 44km/h | 2300m | -2.3m/s | 6.1°C | 100.0% | 772.4hPa | 2.7V | 00:00:00 | 00:00:00 | 00:00:00 | |
| KRY50SP-1 | 2026-08-30 07:54:01 | 52.71736 | 16.35211 | 43° | 47km/h | 2309m | -2.1m/s | 6.1°C | 0% | 771.6hPa | 2.7V | 00:00:00 | 00:00:00 | 00:00:00 | |
| SP3BTT-10 | 2026-08-30 07:53:56 | 52.71677 | 16.35129 | 40° | 57km/h | 2322m | -2.0m/s | 6.0°C | 0% | 770.6hPa | 2.7V | 00:00:00 | 00:00:00 | 00:00:00 | |
| KRY50SP-1 | 2026-08-30 07:53:50 | 52.71623 | 16.35052 | 44° | 57km/h | 2331m | -1.6m/s | 6.0°C | 0% | 769.5hPa | 2.7V | 00:00:00 | 00:00:00 | 00:00:00 | |
| KRY50SP-1 | 2026-08-30 07:53:45 | 52.71571 | 16.34969 | 46° | 60km/h | 2340m | -1.8m/s | 6.0°C | 0% | 768.7hPa | 2.7V | 00:00:00 | 00:00:00 | 00:00:00 | |
| KRY50SP-1 | 2026-08-30 07:53:39 | 52.71511 | 16.34860 | 53° | 57km/h | 2351m | -1.8m/s | 5.9°C | 0% | 767.7hPa | 2.7V | 00:00:00 | 00:00:00 | 00:00:00 | |
| SP3WXH-11 | 2026-08-30 07:53:35 | 52.71469 | 16.34770 | 53° | 53km/h | 2361m | -1.6m/s | 5.9°C | 100.0% | 766.8hPa | 2.7V | 00:00:00 | 00:00:00 | 00:00:00 | |
| KRY50SP-1 | 2026-08-30 07:53:34 | 52.71469 | 16.34770 | 54° | 53km/h | 2361m | -1.6m/s | 5.9°C | 0% | 766.8hPa | 2.7V | 00:00:00 | 00:00:00 | 00:00:00 | |
| KRY50SP-1 | 2026-08-30 07:53:28 | 52.71422 | 16.34671 | 51° | 47km/h | 2371m | -1.4m/s | 5.8°C | 0% | 766.0hPa | 2.7V | 00:00:00 | 00:00:00 | 00:00:00 | |
| KRY50SP-1 | 2026-08-30 07:53:22 | 52.71369 | 16.34586 | 42° | 51km/h | 2381m | -1.7m/s | 5.8°C | 0% | 764.9hPa | 2.7V | 00:00:00 | 00:00:00 | 00:00:00 | |
| SP3BTT-10 | 2026-08-30 07:53:16 | 52.71297 | 16.34482 | 43° | 55km/h | 2395m | -2.0m/s | 5.7°C | 0% | 763.9hPa | 2.7V | 00:00:00 | 00:00:00 | 00:00:00 | |
| KRY50SP-1 | 2026-08-30 07:53:11 | 52.71254 | 16.34414 | 47° | 58km/h | 2402m | -1.4m/s | 5.7°C | 0% | 763.2hPa | 2.7V | 00:00:00 | 00:00:00 | 00:00:00 | |
| SP3WXH-11 | 2026-08-30 07:53:04 | 52.71182 | 16.34268 | 54° | 51km/h | 2415m | -1.5m/s | 5.6°C | 100.0% | 761.8hPa | 2.7V | 00:00:00 | 00:00:00 | 00:00:00 | |
| KRY50SP-1 | 2026-08-30 07:52:59 | 52.71151 | 16.34200 | 52° | 51km/h | 2423m | -2.0m/s | 5.6°C | 0% | 761.1hPa | 2.7V | 00:00:00 | 00:00:00 | 00:00:00 | |
| SP3BTT-10 | 2026-08-30 07:52:56 | 52.71121 | 16.34138 | 50° | 53km/h | 2431m | -1.8m/s | 5.5°C | 0% | 760.3hPa | 2.7V | 00:00:00 | 00:00:00 | 00:00:00 | |
| KRY50SP-1 | 2026-08-30 07:52:53 | 52.71106 | 16.34110 | 48° | 46km/h | 2434m | -1.7m/s | 5.5°C | 0% | 759.9hPa | 2.7V | 00:00:00 | 00:00:00 | 00:00:00 | |
| KRY50SP-1 | 2026-08-30 07:52:47 | 52.71053 | 16.34027 | 43° | 53km/h | 2446m | -1.8m/s | 5.4°C | 0% | 759.0hPa | 2.7V | 00:00:00 | 00:00:00 | 00:00:00 | |
| KRY50SP-1 | 2026-08-30 07:52:41 | 52.70991 | 16.33931 | 47° | 57km/h | 2457m | -1.8m/s | 5.4°C | 0% | 758.0hPa | 2.7V | 00:00:00 | 00:00:00 | 00:00:00 | |
| SP3BTT-10 | 2026-08-30 07:52:36 | 52.70932 | 16.33826 | 51° | 55km/h | 2468m | -1.6m/s | 5.3°C | 0% | 756.9hPa | 2.7V | 00:00:00 | 00:00:00 | 00:00:00 | |
| KRY50SP-1 | 2026-08-30 07:52:35 | 52.70932 | 16.33826 | 51° | 55km/h | 2468m | -1.6m/s | 5.3°C | 0% | 757.0hPa | 2.7V | 00:00:00 | 00:00:00 | 00:00:00 | |
| SP3WXH-11 | 2026-08-30 07:52:33 | 52.70896 | 16.33754 | 51° | 57km/h | 2474m | -1.8m/s | 5.3°C | 100.0% | 756.3hPa | 2.7V | 00:00:00 | 00:00:00 | 00:00:00 | |
| KRY50SP-1 | 2026-08-30 07:52:30 | 52.70887 | 16.33735 | 53° | 55km/h | 2476m | -2.0m/s | 5.3°C | 0% | 756.2hPa | 2.7V | 00:00:00 | 00:00:00 | 00:00:00 | |
| KRY50SP-1 | 2026-08-30 07:52:24 | 52.70835 | 16.33623 | 57° | 55km/h | 2486m | -1.7m/s | 5.2°C | 0% | 755.0hPa | 2.7V | 00:00:00 | 00:00:00 | 00:00:00 | |
| KRY50SP-1 | 2026-08-30 07:52:19 | 52.70797 | 16.33529 | 58° | 53km/h | 2494m | -1.9m/s | 5.2°C | 0% | 754.3hPa | 2.7V | 00:00:00 | 00:00:00 | 00:00:00 | |
| SP3BTT-10 | 2026-08-30 07:52:16 | 52.70769 | 16.33460 | 55° | 53km/h | 2501m | -1.4m/s | 5.1°C | 0% | 753.6hPa | 2.7V | 00:00:00 | 00:00:00 | 00:00:00 | |
| KRY50SP-1 | 2026-08-30 07:52:13 | 52.70755 | 16.33430 | 50° | 46km/h | 2504m | -1.4m/s | 5.1°C | 0% | 753.4hPa | 2.7V | 00:00:00 | 00:00:00 | 00:00:00 | |
| KRY50SP-1 | 2026-08-30 07:52:07 | 52.70701 | 16.33342 | 47° | 55km/h | 2515m | -1.7m/s | 5.1°C | 0% | 752.4hPa | 2.7V | 00:00:00 | 00:00:00 | 00:00:00 | |
| SP3WXH-11 | 2026-08-30 07:52:02 | 52.70646 | 16.33236 | 52° | 55km/h | 2524m | -1.9m/s | 5.0°C | 100.0% | 751.8hPa | 2.7V | 00:00:00 | 00:00:00 | 00:00:00 | |
| KRY50SP-1 | 2026-08-30 07:51:57 | 52.70612 | 16.33160 | 56° | 57km/h | 2531m | -1.8m/s | 5.0°C | 0% | 751.1hPa | 2.7V | 00:00:00 | 00:00:00 | 00:00:00 | |
| SP3BTT-10 | 2026-08-30 07:51:56 | 52.70596 | 16.33122 | 57° | 49km/h | 2535m | -1.8m/s | 5.0°C | 0% | 750.7hPa | 2.7V | 00:00:00 | 00:00:00 | 00:00:00 | |
| KRY50SP-1 | 2026-08-30 07:51:51 | 52.70565 | 16.33045 | 59° | 55km/h | 2543m | -1.6m/s | 5.0°C | 0% | 749.9hPa | 2.7V | 00:00:00 | 00:00:00 | 00:00:00 | |
| KRY50SP-1 | 2026-08-30 07:51:46 | 52.70532 | 16.32951 | 62° | 51km/h | 2552m | -2.0m/s | 5.0°C | 0% | 749.0hPa | 2.7V | 00:00:00 | 00:00:00 | 00:00:00 | |
| KRY50SP-1 | 2026-08-30 07:51:40 | 52.70495 | 16.32846 | 59° | 46km/h | 2562m | -1.7m/s | 4.9°C | 0% | 748.1hPa | 2.7V | 00:00:00 | 00:00:00 | 00:00:00 | |
| SP3BTT-10 | 2026-08-30 07:51:36 | 52.70462 | 16.32772 | 50° | 53km/h | 2572m | -1.9m/s | 4.8°C | 0% | 747.3hPa | 2.7V | 00:00:00 | 00:00:00 | 08:30:00 | |
| KRY50SP-1 | 2026-08-30 07:51:35 | 52.70462 | 16.32772 | 50° | 46km/h | 2572m | -1.9m/s | 4.9°C | 0% | 747.4hPa | 2.7V | 00:00:00 | 00:00:00 | 00:00:00 | |
| SP3WXH-11 | 2026-08-30 07:51:31 | 52.70412 | 16.32683 | 47° | 51km/h | 2582m | -1.6m/s | 4.8°C | 100.0% | 746.5hPa | 2.7V | 00:00:00 | 00:00:00 | 00:00:00 | |
| KRY50SP-1 | 2026-08-30 07:51:29 | 52.70412 | 16.32683 | 48° | 53km/h | 2582m | -1.6m/s | 4.8°C | 0% | 746.5hPa | 2.7V | 00:00:00 | 00:00:00 | 00:00:00 | |
| KRY50SP-1 | 2026-08-30 07:51:23 | 52.70359 | 16.32579 | 54° | 55km/h | 2593m | -1.6m/s | 4.8°C | 0% | 745.4hPa | 2.7V | 00:00:00 | 00:00:00 | 00:00:00 | |
| KRY50SP-1 | 2026-08-30 07:51:17 | 52.70312 | 16.32466 | 59° | 53km/h | 2604m | -1.5m/s | 4.8°C | 0% | 744.5hPa | 2.7V | 00:00:00 | 00:00:00 | 00:00:00 | |
| SP3BTT-10 | 2026-08-30 07:51:16 | 52.70299 | 16.32429 | 61° | 47km/h | 2607m | -1.6m/s | 4.7°C | 0% | 744.1hPa | 2.7V | 00:00:00 | 00:00:00 | 00:00:00 | |
| KRY50SP-1 | 2026-08-30 07:51:12 | 52.70280 | 16.32375 | 62° | 49km/h | 2612m | -1.7m/s | 4.7°C | 0% | 743.7hPa | 2.7V | 00:00:00 | 00:00:00 | 00:00:00 | |
| KRY50SP-1 | 2026-08-30 07:51:06 | 52.70245 | 16.32278 | 57° | 44km/h | 2622m | -1.4m/s | 4.6°C | 0% | 742.8hPa | 2.7V | 00:00:00 | 00:00:00 | 00:00:00 | |
| SP3WXH-11 | 2026-08-30 07:51:00 | 52.70185 | 16.32162 | 47° | 47km/h | 2635m | -1.7m/s | 4.6°C | 100.0% | 741.5hPa | 2.7V | 00:00:00 | 00:00:00 | 00:00:00 | |
| SP3BTT-10 | 2026-08-30 07:50:56 | 52.70159 | 16.32114 | 49° | 53km/h | 2640m | -1.7m/s | 4.5°C | 0% | 741.0hPa | 2.7V | 00:00:00 | 00:00:00 | 00:00:00 | |
| KRY50SP-1 | 2026-08-30 07:50:54 | 52.70150 | 16.32097 | 51° | 53km/h | 2642m | -1.5m/s | 4.5°C | 0% | 740.9hPa | 2.7V | 00:00:00 | 00:00:00 | 00:00:00 | |
| KRY50SP-1 | 2026-08-30 07:50:48 | 52.70098 | 16.31991 | 54° | 55km/h | 2651m | -1.4m/s | 4.5°C | 0% | 740.1hPa | 2.7V | 00:00:00 | 00:00:00 | 00:00:00 | |
| KRY50SP-1 | 2026-08-30 07:50:42 | 52.70051 | 16.31877 | 60° | 55km/h | 2661m | -1.3m/s | 4.4°C | 0% | 739.2hPa | 2.7V | 00:00:00 | 00:00:00 | 00:00:00 | |
| SP3BTT-10 | 2026-08-30 07:50:36 | 52.70007 | 16.31749 | 59° | 49km/h | 2672m | -1.5m/s | 4.3°C | 0% | 738.1hPa | 2.7V | 00:00:00 | 00:00:00 | 00:00:00 | |
| SP3WXH-11 | 2026-08-30 07:50:29 | 52.69955 | 16.31628 | 47° | 46km/h | 2684m | -1.7m/s | 4.3°C | 100.0% | 737.1hPa | 2.7V | 00:00:00 | 00:00:00 | 00:00:00 | |
| KRY50SP-1 | 2026-08-30 07:50:24 | 52.69931 | 16.31585 | 48° | 47km/h | 2689m | -1.4m/s | 4.3°C | 0% | 736.7hPa | 2.7V | 00:00:00 | 00:00:00 | 00:00:00 | |
| KRY50SP-1 | 2026-08-30 07:50:18 | 52.69878 | 16.31487 | 52° | 55km/h | 2697m | -1.4m/s | 4.2°C | 0% | 736.0hPa | 2.7V | 00:00:00 | 00:00:00 | 00:00:00 | |
| SP3BTT-10 | 2026-08-30 07:50:16 | 52.69853 | 16.31432 | 56° | 49km/h | 2702m | -1.4m/s | 4.2°C | 0% | 735.4hPa | 2.7V | 00:00:00 | 00:00:00 | 00:00:00 | |
| KRY50SP-1 | 2026-08-30 07:50:12 | 52.69830 | 16.31375 | 59° | 55km/h | 2706m | -1.8m/s | 4.2°C | 0% | 735.2hPa | 2.7V | 00:00:00 | 00:00:00 | 00:00:00 | |
| KRY50SP-1 | 2026-08-30 07:50:07 | 52.69795 | 16.31280 | 62° | 51km/h | 2714m | -1.1m/s | 4.2°C | 0% | 734.5hPa | 2.7V | 00:00:00 | 00:00:00 | 00:00:00 | |
| KRY50SP-1 | 2026-08-30 07:50:01 | 52.69761 | 16.31182 | 57° | 42km/h | 2722m | -1.3m/s | 4.2°C | 0% | 733.8hPa | 2.7V | 00:00:00 | 00:00:00 | 00:00:00 | |
| SP3WXH-11 | 2026-08-30 07:49:58 | 52.69725 | 16.31109 | 48° | 49km/h | 2728m | -0.9m/s | 4.1°C | 100.0% | 733.2hPa | 2.7V | 00:00:00 | 00:00:00 | 00:00:00 | |
| SP3BTT-10 | 2026-08-30 07:49:56 | 52.69716 | 16.31092 | 49° | 51km/h | 2729m | -1.1m/s | 4.0°C | 0% | 733.2hPa | 2.7V | 00:00:00 | 00:00:00 | 00:00:00 | |
| KRY50SP-1 | 2026-08-30 07:49:55 | 52.69716 | 16.31092 | 49° | 53km/h | 2729m | -1.2m/s | 4.1°C | 0% | 733.2hPa | 2.7V | 00:00:00 | 00:00:00 | 00:00:00 | |
| KRY50SP-1 | 2026-08-30 07:49:50 | 52.69673 | 16.31004 | 56° | 55km/h | 2734m | -1.1m/s | 4.1°C | 0% | 732.7hPa | 2.7V | 00:00:00 | 00:00:00 | 00:00:00 | |
| KRY50SP-1 | 2026-08-30 07:49:45 | 52.69637 | 16.30910 | 61° | 51km/h | 2741m | -1.2m/s | 4.0°C | 0% | 732.1hPa | 2.7V | 00:00:00 | 00:00:00 | 00:00:00 | |
| KRY50SP-1 | 2026-08-30 07:49:39 | 52.69599 | 16.30805 | 60° | 46km/h | 2750m | -1.2m/s | 4.0°C | 0% | 731.3hPa | 2.7V | 00:00:00 | 00:00:00 | 00:00:00 | |
| SP3BTT-10 | 2026-08-30 07:49:36 | 52.69574 | 16.30745 | 53° | 49km/h | 2756m | -1.1m/s | 3.9°C | 0% | 730.7hPa | 2.7V | 00:00:00 | 00:00:00 | 00:00:00 | |
| KRY50SP-1 | 2026-08-30 07:49:33 | 52.69560 | 16.30717 | 49° | 46km/h | 2758m | -1.5m/s | 4.0°C | 0% | 730.6hPa | 2.7V | 00:00:00 | 00:00:00 | 00:00:00 | |
| SP3WXH-11 | 2026-08-30 07:49:27 | 52.69496 | 16.30597 | 48° | 49km/h | 2768m | -1.0m/s | 3.9°C | 100.0% | 729.8hPa | 2.7V | 00:00:00 | 00:00:00 | 00:00:00 | |
| KRY50SP-1 | 2026-08-30 07:49:21 | 52.69462 | 16.30535 | 47° | 51km/h | 2772m | -1.3m/s | 3.9°C | 0% | 729.3hPa | 2.7V | 00:00:00 | 00:00:00 | 00:00:00 | |
| SP3BTT-10 | 2026-08-30 07:49:16 | 52.69408 | 16.30437 | 50° | 53km/h | 2779m | -0.9m/s | 3.8°C | 0% | 728.5hPa | 2.7V | 00:00:00 | 00:00:00 | 00:00:00 | |
| KRY50SP-1 | 2026-08-30 07:49:15 | 52.69408 | 16.30437 | 50° | 57km/h | 2779m | -1.0m/s | 3.9°C | 0% | 728.6hPa | 2.7V | 00:00:00 | 00:00:00 | 00:00:00 | |
| KRY50SP-1 | 2026-08-30 07:49:10 | 52.69363 | 16.30341 | 56° | 60km/h | 2785m | -0.9m/s | 3.9°C | 0% | 728.1hPa | 2.7V | 00:00:00 | 00:00:00 | 00:00:00 | |
| KRY50SP-1 | 2026-08-30 07:49:04 | 52.69319 | 16.30221 | 63° | 51km/h | 2792m | -1.0m/s | 3.8°C | 0% | 727.5hPa | 2.7V | 00:00:00 | 00:00:00 | 00:00:00 | |
| SP3WXH-11 | 2026-08-30 07:48:56 | 52.69249 | 16.30056 | 47° | 49km/h | 2804m | -0.9m/s | 3.7°C | 100.0% | 726.4hPa | 2.7V | 00:00:00 | 00:00:00 | 00:00:00 | |
| KRY50SP-1 | 2026-08-30 07:48:52 | 52.69232 | 16.30024 | 49° | 53km/h | 2807m | -0.9m/s | 3.7°C | 0% | 726.1hPa | 2.7V | 00:00:00 | 00:00:00 | 00:00:00 | |
| KRY50SP-1 | 2026-08-30 07:48:40 | 52.69127 | 16.29805 | 58° | 57km/h | 2821m | -1.5m/s | 3.6°C | 0% | 724.9hPa | 2.7V | 00:00:00 | 00:00:00 | 00:00:00 | |
| SP3BTT-10 | 2026-08-30 07:48:36 | 52.69091 | 16.29706 | 61° | 49km/h | 2828m | -1.3m/s | 3.6°C | 0% | 724.2hPa | 2.7V | 00:00:00 | 00:00:00 | 08:30:00 | |
| KRY50SP-1 | 2026-08-30 07:48:34 | 52.69084 | 16.29687 | 61° | 55km/h | 2830m | -1.4m/s | 3.6°C | 0% | 724.0hPa | 2.7V | 00:00:00 | 00:00:00 | 00:00:00 | |
| KRY50SP-1 | 2026-08-30 07:48:28 | 52.69047 | 16.29576 | 60° | 47km/h | 2837m | -1.2m/s | 3.6°C | 0% | 723.5hPa | 2.7V | 00:00:00 | 00:00:00 | 00:00:00 | |
| SP3WXH-11 | 2026-08-30 07:48:25 | 52.69013 | 16.29498 | 51° | 46km/h | 2843m | -0.9m/s | 3.5°C | 100.0% | 723.0hPa | 2.7V | 00:00:00 | 00:00:00 | 00:00:00 | |
| KRY50SP-1 | 2026-08-30 07:48:17 | 52.68963 | 16.29402 | 50° | 55km/h | 2849m | -1.0m/s | 3.5°C | 0% | 722.6hPa | 2.7V | 00:00:00 | 00:00:00 | 00:00:00 | |
| SP3BTT-10 | 2026-08-30 07:48:16 | 52.68945 | 16.29368 | 51° | 57km/h | 2851m | -1.0m/s | 3.5°C | 0% | 722.2hPa | 2.7V | 00:00:00 | 00:00:00 | 00:00:00 | |
| KRY50SP-1 | 2026-08-30 07:48:12 | 52.68917 | 16.29312 | 53° | 58km/h | 2855m | -1.1m/s | 3.5°C | 0% | 721.9hPa | 2.7V | 00:00:00 | 00:00:00 | 00:00:00 | |
| KRY50SP-1 | 2026-08-30 07:48:07 | 52.68873 | 16.29214 | 56° | 58km/h | 2861m | -0.9m/s | 3.5°C | 0% | 721.4hPa | 2.7V | 00:00:00 | 00:00:00 | 00:00:00 | |
| KRY50SP-1 | 2026-08-30 07:48:01 | 52.68827 | 16.29091 | 63° | 55km/h | 2867m | -1.2m/s | 3.4°C | 0% | 720.6hPa | 2.7V | 00:00:00 | 00:00:00 | 00:00:00 | |
| SP3WXH-11 | 2026-08-30 07:47:54 | 52.68770 | 16.28930 | 51° | 46km/h | 2877m | -1.3m/s | 3.4°C | 100.0% | 719.9hPa | 2.7V | 00:00:00 | 00:00:00 | 00:00:00 | |
| KRY50SP-1 | 2026-08-30 07:47:50 | 52.68753 | 16.28899 | 51° | 51km/h | 2880m | -1.0m/s | 3.4°C | 0% | 719.5hPa | 2.7V | 00:00:00 | 00:00:00 | 00:00:00 | |
| KRY50SP-1 | 2026-08-30 07:47:44 | 52.68700 | 16.28793 | 53° | 58km/h | 2887m | -1.1m/s | 3.3°C | 0% | 719.0hPa | 2.7V | 00:00:00 | 00:00:00 | 00:00:00 | |
| KRY50SP-1 | 2026-08-30 07:47:38 | 52.68651 | 16.28671 | 61° | 58km/h | 2894m | -1.2m/s | 3.3°C | 0% | 718.2hPa | 2.7V | 00:00:00 | 00:00:00 | 00:00:00 | |
| SP3BTT-10 | 2026-08-30 07:47:36 | 52.68630 | 16.28611 | 62° | 49km/h | 2897m | -0.8m/s | 3.3°C | 0% | 717.9hPa | 2.7V | 00:00:00 | 00:00:00 | 00:00:00 | |
| KRY50SP-1 | 2026-08-30 07:47:33 | 52.68617 | 16.28572 | 62° | 53km/h | 2898m | -0.7m/s | 3.3°C | 0% | 717.8hPa | 2.7V | 00:00:00 | 00:00:00 | 00:00:00 | |
| KRY50SP-1 | 2026-08-30 07:47:27 | 52.68579 | 16.28465 | 59° | 47km/h | 2904m | -1.1m/s | 3.3°C | 0% | 717.4hPa | 2.7V | 00:00:00 | 00:00:00 | 00:00:00 | |
| SP3WXH-11 | 2026-08-30 07:47:23 | 52.68536 | 16.28370 | 50° | 47km/h | 2911m | -1.2m/s | 3.2°C | 100.0% | 716.7hPa | 2.7V | 00:00:00 | 00:00:00 | 00:00:00 | |
| KRY50SP-1 | 2026-08-30 07:47:21 | 52.68536 | 16.28370 | 52° | 47km/h | 2911m | -1.2m/s | 3.2°C | 0% | 716.7hPa | 2.7V | 00:00:00 | 00:00:00 | 00:00:00 | |
| SP3BTT-10 | 2026-08-30 07:47:16 | 52.68484 | 16.28274 | 48° | 55km/h | 2918m | -1.4m/s | 3.2°C | 0% | 716.1hPa | 2.7V | 00:00:00 | 00:00:00 | 00:00:00 | |
| KRY50SP-1 | 2026-08-30 07:47:10 | 52.68438 | 16.28182 | 55° | 58km/h | 2925m | -1.2m/s | 3.1°C | 0% | 715.5hPa | 2.7V | 00:00:00 | 00:00:00 | 00:00:00 | |
| KRY50SP-1 | 2026-08-30 07:47:04 | 52.68390 | 16.28060 | 62° | 57km/h | 2933m | -1.5m/s | 3.1°C | 0% | 715.1hPa | 2.7V | 00:00:00 | 00:00:00 | 00:00:00 | |
| SP3WXH-11 | 2026-08-30 07:46:52 | 52.68289 | 16.27822 | 47° | 49km/h | 2952m | -1.8m/s | 3.0°C | 100.0% | 713.3hPa | 2.7V | 00:00:00 | 00:00:00 | 00:00:00 | |
| SONDE2-11 | 2026-08-30 07:46:49 | 52.68271 | 16.27790 | 47° | 55km/h | 2955m | -1.3m/s | 2.9°C | 100.0% | 713.0hPa | 2.7V | 00:00:00 | 00:00:00 | 00:00:00 | |
| KRY50SP-1 | 2026-08-30 07:46:48 | 52.68271 | 16.27790 | 49° | 55km/h | 2956m | -1.3m/s | 2.9°C | 0% | 713.0hPa | 2.7V | 00:00:00 | 00:00:00 | 00:00:00 | |
| EDDB2-12 | 2026-08-30 07:46:43 | 52.68208 | 16.27656 | 58° | 58km/h | 2966m | -1.3m/s | 2.9°C | 100.0% | 712.1hPa | 2.7V | 00:00:00 | 00:00:00 | 00:00:00 | |
| KRY50SP-1 | 2026-08-30 07:46:38 | 52.68186 | 16.27593 | 63° | 55km/h | 2970m | -1.5m/s | 2.9°C | 0% | 711.6hPa | 2.7V | 00:00:00 | 00:00:00 | 00:00:00 | |
| SP3BTT-10 | 2026-08-30 07:46:36 | 52.68166 | 16.27534 | 62° | 53km/h | 2975m | -1.4m/s | 2.8°C | 0% | 711.1hPa | 2.7V | 00:00:00 | 00:00:00 | 00:00:00 | |
| KRY50SP-1 | 2026-08-30 07:46:32 | 52.68147 | 16.27483 | 57° | 47km/h | 2979m | -1.4m/s | 2.8°C | 0% | 710.9hPa | 2.7V | 00:00:00 | 00:00:00 | 00:00:00 | |
| KRY50SP-1 | 2026-08-30 07:46:26 | 52.68100 | 16.27388 | 50° | 55km/h | 2989m | -1.3m/s | 2.7°C | 0% | 710.1hPa | 2.7V | 00:00:00 | 00:00:00 | 00:00:00 | |
| KRY50SP-1 | 2026-08-30 07:46:20 | 52.68047 | 16.27278 | 54° | 58km/h | 2997m | -1.5m/s | 2.7°C | 0% | 709.3hPa | 2.7V | 00:00:00 | 00:00:00 | 00:00:00 | |
| SONDE2-11 | 2026-08-30 07:46:18 | 52.68014 | 16.27200 | 57° | 57km/h | 3003m | -1.1m/s | 2.7°C | 100.0% | 708.8hPa | 2.7V | 00:00:00 | 00:00:00 | 00:00:00 | |
| SP3BTT-10 | 2026-08-30 07:46:16 | 52.68006 | 16.27180 | 59° | 53km/h | 3004m | -1.1m/s | 2.6°C | 0% | 708.6hPa | 2.7V | 00:00:00 | 00:00:00 | 00:00:00 | |
| KRY50SP-1 | 2026-08-30 07:46:14 | 52.67999 | 16.27160 | 59° | 57km/h | 3005m | -1.0m/s | 2.6°C | 0% | 708.7hPa | 2.7V | 00:00:00 | 00:00:00 | 00:00:00 | |
| EDDB2-12 | 2026-08-30 07:46:12 | 52.67975 | 16.27099 | 60° | 57km/h | 3009m | -1.1m/s | 2.6°C | 100.0% | 708.1hPa | 2.7V | 00:00:00 | 00:00:00 | 00:00:00 | |
| KRY50SP-1 | 2026-08-30 07:46:03 | 52.67922 | 16.26938 | 65° | 51km/h | 3019m | -1.5m/s | 2.5°C | 0% | 707.3hPa | 2.7V | 00:00:00 | 00:00:00 | 00:00:00 | |
| SP3WXH-11 | 2026-08-30 07:45:49 | 52.67813 | 16.26680 | 51° | 53km/h | 3045m | -1.5m/s | 2.4°C | 100.0% | 705.2hPa | 2.7V | 00:00:00 | 00:00:00 | 00:00:00 | |
| SONDE2-11 | 2026-08-30 07:45:47 | 52.67795 | 16.26644 | 50° | 55km/h | 3048m | -1.6m/s | 2.4°C | 100.0% | 704.8hPa | 2.7V | 00:00:00 | 00:00:00 | 00:00:00 | |
| KRY50SP-1 | 2026-08-30 07:45:42 | 52.67759 | 16.26572 | 52° | 57km/h | 3055m | -1.8m/s | 2.3°C | 0% | 704.2hPa | 2.7V | 00:00:00 | 00:00:00 | 00:00:00 | |
| EDDB2-12 | 2026-08-30 07:45:41 | 52.67741 | 16.26535 | 52° | 57km/h | 3058m | -1.4m/s | 2.3°C | 100.0% | 703.9hPa | 2.7V | 00:00:00 | 00:00:00 | 00:00:00 | |
| SP3BTT-10 | 2026-08-30 07:45:36 | 52.67702 | 16.26436 | 63° | 51km/h | 3064m | -0.8m/s | 2.3°C | 0% | 703.4hPa | 2.7V | 00:00:00 | 00:00:00 | 08:30:00 | |
| KRY50SP-1 | 2026-08-30 07:45:30 | 52.67672 | 16.26339 | 65° | 49km/h | 3070m | -1.8m/s | 2.2°C | 0% | 702.8hPa | 2.7V | 00:00:00 | 00:00:00 | 00:00:00 | |
| KRY50SP-1 | 2026-08-30 07:45:24 | 52.67636 | 16.26235 | 54° | 47km/h | 3082m | -1.6m/s | 2.1°C | 0% | 701.9hPa | 2.7V | 00:00:00 | 00:00:00 | 00:00:00 | |
| SP3WXH-11 | 2026-08-30 07:45:18 | 52.67577 | 16.26115 | 50° | 58km/h | 3092m | -2.0m/s | 1.9°C | 100.0% | 700.9hPa | 2.7V | 00:00:00 | 00:00:00 | 00:00:00 | |
| SP3BTT-10 | 2026-08-30 07:45:16 | 52.67558 | 16.26075 | 55° | 55km/h | 3096m | -2.1m/s | 1.9°C | 0% | 700.6hPa | 2.7V | 00:00:00 | 00:00:00 | 00:00:00 | |
| KRY50SP-1 | 2026-08-30 07:45:13 | 52.67541 | 16.26034 | 59° | 60km/h | 3100m | -1.4m/s | 1.9°C | 0% | 700.3hPa | 2.7V | 00:00:00 | 00:00:00 | 00:00:00 | |
| EDDB2-12 | 2026-08-30 07:45:10 | 52.67512 | 16.25950 | 64° | 53km/h | 3107m | -1.6m/s | 1.9°C | 100.0% | 699.7hPa | 2.7V | 00:00:00 | 00:00:00 | 00:00:00 | |
| KRY50SP-1 | 2026-08-30 07:45:07 | 52.67500 | 16.25910 | 64° | 53km/h | 3111m | -2.0m/s | 1.9°C | 0% | 699.3hPa | 2.7V | 00:00:00 | 00:00:00 | 00:00:00 | |
| KRY50SP-1 | 2026-08-30 07:45:01 | 52.67464 | 16.25805 | 56° | 47km/h | 3123m | -1.7m/s | 1.8°C | 0% | 698.3hPa | 2.7V | 00:00:00 | 00:00:00 | 00:00:00 | |
| SP3WXH-11 | 2026-08-30 07:44:47 | 52.67339 | 16.25521 | 56° | 60km/h | 3147m | -1.4m/s | 1.7°C | 100.0% | 696.0hPa | 2.7V | 00:00:00 | 00:00:00 | 00:00:00 | |
| SONDE2-11 | 2026-08-30 07:44:45 | 52.67314 | 16.25458 | 55° | 60km/h | 3152m | -1.4m/s | 1.8°C | 100.0% | 695.7hPa | 2.7V | 00:00:00 | 00:00:00 | 00:00:00 | |
| KRY50SP-1 | 2026-08-30 07:44:43 | 52.67314 | 16.25458 | 57° | 62km/h | 3152m | -1.4m/s | 1.8°C | 0% | 695.7hPa | 2.7V | 00:00:00 | 00:00:00 | 00:00:00 | |
| EDDB2-12 | 2026-08-30 07:44:39 | 52.67275 | 16.25352 | 62° | 57km/h | 3158m | -1.1m/s | 1.7°C | 100.0% | 695.1hPa | 2.7V | 00:00:00 | 00:00:00 | 00:00:00 | |
| KRY50SP-1 | 2026-08-30 07:44:37 | 52.67268 | 16.25331 | 64° | 57km/h | 3160m | -1.4m/s | 1.6°C | 0% | 695.1hPa | 2.7V | 00:00:00 | 00:00:00 | 00:00:00 | |
| KRY50SP-1 | 2026-08-30 07:44:32 | 52.67238 | 16.25230 | 64° | 51km/h | 3167m | -1.8m/s | 1.7°C | 0% | 694.2hPa | 2.7V | 00:00:00 | 00:00:00 | 00:00:00 | |
| KRY50SP-1 | 2026-08-30 07:44:26 | 52.67203 | 16.25119 | 61° | 49km/h | 3179m | -2.0m/s | 1.6°C | 0% | 693.3hPa | 2.7V | 00:00:00 | 00:00:00 | 00:00:00 | |
| KRY50SP-1 | 2026-08-30 07:44:21 | 52.67166 | 16.25030 | 55° | 55km/h | 3190m | -2.0m/s | 1.5°C | 0% | 692.4hPa | 2.7V | 00:00:00 | 00:00:00 | 00:00:00 | |
| SP3BTT-10 | 2026-08-30 07:44:16 | 52.67112 | 16.24915 | 53° | 60km/h | 3202m | -1.8m/s | 1.4°C | 0% | 691.3hPa | 2.7V | 00:00:00 | 00:00:00 | 00:00:00 | |
| KRY50SP-1 | 2026-08-30 07:44:15 | 52.67112 | 16.24915 | 54° | 60km/h | 3202m | -1.8m/s | 1.4°C | 0% | 691.3hPa | 2.7V | 00:00:00 | 00:00:00 | 00:00:00 | |
| SONDE2-11 | 2026-08-30 07:44:14 | 52.67085 | 16.24854 | 55° | 62km/h | 3207m | -1.9m/s | 1.3°C | 97.8% | 690.8hPa | 2.7V | 00:00:00 | 00:00:00 | 00:00:00 | |
| KRY50SP-1 | 2026-08-30 07:44:09 | 52.67059 | 16.24789 | 59° | 62km/h | 3214m | -2.3m/s | 1.2°C | 99.6% | 690.3hPa | 2.7V | 00:00:00 | 00:00:00 | 00:00:00 | |
| EDDB2-12 | 2026-08-30 07:44:08 | 52.67034 | 16.24725 | 55° | 62km/h | 3220m | -1.9m/s | 1.2°C | 97.1% | 689.8hPa | 2.7V | 00:00:00 | 00:00:00 | 00:00:00 | |
| KRY50SP-1 | 2026-08-30 07:44:03 | 52.67008 | 16.24660 | 56° | 64km/h | 3226m | -1.6m/s | 1.1°C | 99.3% | 689.3hPa | 2.7V | 00:00:00 | 00:00:00 | 00:00:00 | |
| SP3WXH-11 | 2026-08-30 07:43:45 | 52.66872 | 16.24241 | 62° | 51km/h | 3264m | -1.6m/s | 0.9°C | 98.6% | 686.2hPa | 2.7V | 00:00:00 | 00:00:00 | 00:00:00 | |
| SONDE2-11 | 2026-08-30 07:43:43 | 52.66851 | 16.24183 | 58° | 55km/h | 3269m | -1.6m/s | 0.8°C | 100.0% | 685.7hPa | 2.7V | 00:00:00 | 00:00:00 | 00:00:00 | |
| KRY50SP-1 | 2026-08-30 07:43:40 | 52.66844 | 16.24164 | 57° | 55km/h | 3271m | -1.6m/s | 0.8°C | 100.0% | 685.6hPa | 2.7V | 00:00:00 | 00:00:00 | 00:00:00 | |
| EDDB2-12 | 2026-08-30 07:43:37 | 52.66810 | 16.24083 | 53° | 62km/h | 3277m | -1.8m/s | 0.7°C | 100.0% | 685.0hPa | 2.7V | 00:00:00 | 00:00:00 | 00:00:00 | |
| KRY50SP-1 | 2026-08-30 07:43:34 | 52.66792 | 16.24041 | 57° | 62km/h | 3281m | -2.1m/s | 0.7°C | 99.1% | 684.8hPa | 2.7V | 00:00:00 | 00:00:00 | 00:00:00 | |
| KRY50SP-1 | 2026-08-30 07:43:28 | 52.66739 | 16.23903 | 62° | 66km/h | 3292m | -2.1m/s | 0.7°C | 99.5% | 683.7hPa | 2.7V | 00:00:00 | 00:00:00 | 00:00:00 | |
| KRY50SP-1 | 2026-08-30 07:43:22 | 52.66695 | 16.23756 | 66° | 62km/h | 3304m | -2.0m/s | 0.6°C | 99.6% | 682.6hPa | 2.7V | 00:00:00 | 00:00:00 | 00:00:00 | |
| SP3BTT-10 | 2026-08-30 07:43:16 | 52.66645 | 16.23608 | 57° | 64km/h | 3319m | -2.0m/s | 0.5°C | 0% | 681.4hPa | 2.7V | 00:00:00 | 00:00:00 | 00:00:00 | |
| SP3WXH-11 | 2026-08-30 07:43:14 | 52.66628 | 16.23567 | 56° | 60km/h | 3323m | -2.1m/s | 0.6°C | 96.6% | 681.1hPa | 2.7V | 00:00:00 | 00:00:00 | 00:00:00 | |
| KRY50SP-1 | 2026-08-30 07:43:11 | 52.66609 | 16.23524 | 55° | 64km/h | 3327m | -2.2m/s | 0.5°C | 97.9% | 680.8hPa | 2.7V | 00:00:00 | 00:00:00 | 00:00:00 | |
| EDDB2-12 | 2026-08-30 07:43:06 | 52.66553 | 16.23390 | 56° | 68km/h | 3342m | -2.5m/s | 0.4°C | 98.3% | 679.6hPa | 2.7V | 00:00:00 | 00:00:00 | 00:00:00 | |
| KRY50SP-1 | 2026-08-30 07:43:00 | 52.66506 | 16.23268 | 62° | 71km/h | 3354m | -2.3m/s | 0.7°C | 88.1% | 678.7hPa | 2.7V | 00:00:00 | 00:00:00 | 00:00:00 | |
| KRY50SP-1 | 2026-08-30 07:42:55 | 52.66468 | 16.23142 | 66° | 64km/h | 3366m | -2.4m/s | 0.6°C | 88.6% | 677.6hPa | 2.7V | 00:00:00 | 00:00:00 | 00:00:00 | |
| KRY50SP-1 | 2026-08-30 07:42:49 | 52.66424 | 16.23010 | 59° | 58km/h | 3381m | -2.4m/s | 0.5°C | 88.6% | 676.4hPa | 2.7V | 00:00:00 | 00:00:00 | 00:00:00 | |
| SP3BTT-10 | 2026-08-30 07:42:46 | 52.66389 | 16.22928 | 56° | 64km/h | 3391m | -2.2m/s | 0.3°C | 93.3% | 675.5hPa | 2.7V | 00:00:00 | 00:00:00 | 00:00:00 | |
| SP3WXH-11 | 2026-08-30 07:42:43 | 52.66361 | 16.22861 | 56° | 68km/h | 3399m | -2.2m/s | 0.3°C | 89.0% | 675.0hPa | 2.7V | 00:00:00 | 00:00:00 | 00:00:00 | |
| EDDB2-12 | 2026-08-30 07:42:35 | 52.66290 | 16.22662 | 63° | 66km/h | 3418m | -2.5m/s | 0.2°C | 89.9% | 673.2hPa | 2.7V | 00:00:00 | 00:00:00 | 00:00:00 | |
| KRY50SP-1 | 2026-08-30 07:42:31 | 52.66269 | 16.22589 | 64° | 64km/h | 3426m | -2.2m/s | 0.1°C | 90.3% | 672.7hPa | 2.7V | 00:00:00 | 00:00:00 | 00:00:00 | |
| KRY50SP-1 | 2026-08-30 07:42:26 | 52.66233 | 16.22473 | 63° | 62km/h | 3438m | -2.3m/s | 0.3°C | 84.9% | 671.6hPa | 2.7V | 00:00:00 | 00:00:00 | 00:00:00 | |
| KRY50SP-1 | 2026-08-30 07:42:20 | 52.66192 | 16.22342 | 63° | 57km/h | 3453m | -2.9m/s | 0.2°C | 85.4% | 670.4hPa | 2.7V | 00:00:00 | 00:00:00 | 00:00:00 | |
| SP3BTT-10 | 2026-08-30 07:42:16 | 52.66153 | 16.22240 | 54° | 62km/h | 3465m | -2.4m/s | 0.1°C | 90.5% | 669.3hPa | 2.7V | 00:00:00 | 00:00:00 | 00:00:00 | |
| KRY50SP-1 | 2026-08-30 07:42:15 | 52.66153 | 16.22240 | 54° | 62km/h | 3465m | -2.4m/s | 0.1°C | 86.0% | 669.4hPa | 2.7V | 00:00:00 | 00:00:00 | 00:00:00 | |
| SP3WXH-11 | 2026-08-30 07:42:12 | 52.66115 | 16.22153 | 56° | 68km/h | 3475m | -2.5m/s | 0.0°C | 86.4% | 668.6hPa | 2.7V | 00:00:00 | 00:00:00 | 00:00:00 | |
| SONDE2-11 | 2026-08-30 07:42:10 | 52.66089 | 16.22080 | 62° | 68km/h | 3482m | -2.2m/s | -0.0°C | 86.7% | 668.0hPa | 2.7V | 00:00:00 | 00:00:00 | 00:00:00 | |
| KRY50SP-1 | 2026-08-30 07:42:04 | 52.66052 | 16.21958 | 64° | 66km/h | 3494m | -2.1m/s | -0.1°C | 87.4% | 666.9hPa | 2.7V | 00:00:00 | 00:00:00 | 00:00:00 | |
| KRY50SP-1 | 2026-08-30 07:41:52 | 52.65977 | 16.21719 | 56° | 58km/h | 3520m | -2.4m/s | -0.4°C | 88.5% | 664.6hPa | 2.7V | 00:00:00 | 00:00:00 | 00:00:00 | |
| SP3BTT-10 | 2026-08-30 07:41:46 | 52.65914 | 16.21577 | 54° | 60km/h | 3537m | -2.1m/s | -0.5°C | 94.0% | 663.2hPa | 2.7V | 00:00:00 | 00:00:00 | 00:00:00 | |
| SP3WXH-11 | 2026-08-30 07:41:41 | 52.65868 | 16.21462 | 59° | 62km/h | 3548m | -2.2m/s | -0.6°C | 90.0% | 662.4hPa | 2.7V | 00:00:00 | 00:00:00 | 00:00:00 | |
| KRY50SP-1 | 2026-08-30 07:41:40 | 52.65868 | 16.21462 | 61° | 64km/h | 3548m | -2.2m/s | -0.6°C | 90.1% | 662.4hPa | 2.7V | 00:00:00 | 00:00:00 | 00:00:00 | |
| SONDE2-11 | 2026-08-30 07:41:39 | 52.65845 | 16.21394 | 62° | 58km/h | 3554m | -2.4m/s | -0.7°C | 90.4% | 661.8hPa | 2.7V | 00:00:00 | 00:00:00 | 00:00:00 | |
| KRY50SP-1 | 2026-08-30 07:41:34 | 52.65824 | 16.21328 | 61° | 58km/h | 3561m | -2.1m/s | -0.8°C | 90.8% | 661.3hPa | 2.7V | 00:00:00 | 00:00:00 | 00:00:00 | |
| EDDB2-12 | 2026-08-30 07:41:33 | 52.65809 | 16.21286 | 59° | 57km/h | 3565m | -2.1m/s | -0.8°C | 90.7% | 660.9hPa | 2.7V | 00:00:00 | 00:00:00 | 00:00:00 | |
| KRY50SP-1 | 2026-08-30 07:41:23 | 52.65744 | 16.21110 | 55° | 53km/h | 3585m | -2.4m/s | -0.8°C | 90.3% | 659.2hPa | 2.7V | 00:00:00 | 00:00:00 | 00:00:00 | |
| KRY50SP-1 | 2026-08-30 07:41:17 | 52.65690 | 16.20997 | 53° | 60km/h | 3598m | -2.3m/s | -0.9°C | 90.2% | 658.2hPa | 2.7V | 00:00:00 | 00:00:00 | 00:00:00 | |
| SP3BTT-10 | 2026-08-30 07:41:16 | 52.65671 | 16.20955 | 55° | 60km/h | 3603m | -1.8m/s | -0.9°C | 95.3% | 657.8hPa | 2.7V | 00:00:00 | 00:00:00 | 08:30:00 | |
| KRY50SP-1 | 2026-08-30 07:41:12 | 52.65643 | 16.20887 | 59° | 66km/h | 3608m | -1.9m/s | -1.0°C | 90.7% | 657.3hPa | 2.7V | 00:00:00 | 00:00:00 | 00:00:00 | |
| SP3WXH-11 | 2026-08-30 07:41:10 | 52.65619 | 16.20819 | 61° | 62km/h | 3614m | -1.8m/s | -1.1°C | 91.3% | 656.8hPa | 2.7V | 00:00:00 | 00:00:00 | 00:00:00 | |
| KRY50SP-1 | 2026-08-30 07:41:06 | 52.65597 | 16.20754 | 61° | 57km/h | 3619m | -1.6m/s | -1.1°C | 91.2% | 656.5hPa | 2.7V | 00:00:00 | 00:00:00 | 00:00:00 | |
| EDDB2-12 | 2026-08-30 07:41:02 | 52.65560 | 16.20657 | 55° | 51km/h | 3628m | -2.0m/s | -1.2°C | 91.7% | 655.7hPa | 2.7V | 00:00:00 | 00:00:00 | 00:00:00 | |
| EDDB2-11 | 2026-08-30 07:40:55 | 52.65497 | 16.20524 | 53° | 60km/h | 3641m | -1.9m/s | -1.3°C | 92.1% | 654.5hPa | 2.7V | 00:00:00 | 00:00:00 | 00:00:00 | |
| SP3BTT-10 | 2026-08-30 07:40:46 | 52.65423 | 16.20329 | 61° | 57km/h | 3660m | -1.8m/s | -1.4°C | 98.0% | 653.1hPa | 2.7V | 00:00:00 | 00:00:00 | 00:00:00 | |
| KRY50SP-1 | 2026-08-30 07:40:44 | 52.65416 | 16.20308 | 62° | 58km/h | 3662m | -1.9m/s | -1.5°C | 93.0% | 652.9hPa | 2.7V | 00:00:00 | 00:00:00 | 00:00:00 | |
| SP3WXH-11 | 2026-08-30 07:40:39 | 52.65373 | 16.20184 | 59° | 55km/h | 3673m | -1.8m/s | -1.6°C | 93.4% | 652.0hPa | 2.7V | 00:00:00 | 00:00:00 | 00:00:00 | |
| SONDE2-11 | 2026-08-30 07:40:36 | 52.65353 | 16.20125 | 58° | 53km/h | 3680m | -1.7m/s | -1.6°C | 93.8% | 651.5hPa | 2.7V | 00:00:00 | 00:00:00 | 00:00:00 | |
| KRY50SP-1 | 2026-08-30 07:40:33 | 52.65340 | 16.20087 | 60° | 51km/h | 3684m | -2.2m/s | -1.7°C | 94.0% | 651.1hPa | 2.7V | 00:00:00 | 00:00:00 | 00:00:00 | |
| EDDB2-12 | 2026-08-30 07:40:31 | 52.65320 | 16.20033 | 55° | 49km/h | 3690m | -2.2m/s | -1.7°C | 94.1% | 650.6hPa | 2.7V | 00:00:00 | 00:00:00 | 00:00:00 | |
| KRY50SP-1 | 2026-08-30 07:40:28 | 52.65305 | 16.19997 | 54° | 53km/h | 3694m | -1.6m/s | -1.8°C | 94.3% | 650.3hPa | 2.7V | 00:00:00 | 00:00:00 | 00:00:00 | |
| EDDB2-11 | 2026-08-30 07:40:24 | 52.65260 | 16.19909 | 51° | 58km/h | 3704m | -1.6m/s | -1.8°C | 94.3% | 649.5hPa | 2.7V | 00:00:00 | 00:00:00 | 00:00:00 | |
| KRY50SP-1 | 2026-08-30 07:40:22 | 52.65250 | 16.19889 | 52° | 60km/h | 3706m | -1.8m/s | -1.8°C | 94.6% | 649.3hPa | 2.7V | 00:00:00 | 00:00:00 | 00:00:00 | |
| SP6BVK | 2026-08-30 07:40:19 | 52.65223 | 16.19825 | 58° | 64km/h | 3712m | -1.6m/s | -1.9°C | 94.9% | 648.9hPa | 2.7V | 00:00:00 | 00:00:00 | 00:00:00 | |
| KRY50SP-1 | 2026-08-30 07:40:17 | 52.65206 | 16.19780 | 61° | 64km/h | 3715m | -1.7m/s | -1.9°C | 95.1% | 648.5hPa | 2.7V | 00:00:00 | 00:00:00 | 00:00:00 | |
| SP3BTT-10 | 2026-08-30 07:40:16 | 52.65192 | 16.19735 | 65° | 58km/h | 3719m | -2.2m/s | -1.9°C | 0% | 648.2hPa | 2.7V | 00:00:00 | 00:00:00 | 00:00:00 | |
| KRY50SP-1 | 2026-08-30 07:40:11 | 52.65167 | 16.19653 | 63° | 51km/h | 3726m | -1.6m/s | -2.0°C | 95.5% | 647.6hPa | 2.7V | 00:00:00 | 00:00:00 | 00:00:00 | |
| SP3WXH-11 | 2026-08-30 07:40:08 | 52.65141 | 16.19581 | 54° | 49km/h | 3734m | -2.0m/s | -2.1°C | 96.0% | 647.1hPa | 2.7V | 00:00:00 | 00:00:00 | 00:00:00 | |
| KRY50SP-1 | 2026-08-30 07:40:06 | 52.65132 | 16.19564 | 52° | 55km/h | 3736m | -2.1m/s | -2.1°C | 96.0% | 646.8hPa | 2.7V | 00:00:00 | 00:00:00 | 00:00:00 | |
| SONDE2-11 | 2026-08-30 07:40:05 | 52.65115 | 16.19527 | 50° | 58km/h | 3740m | -1.7m/s | -2.1°C | 96.3% | 646.5hPa | 2.7V | 00:00:00 | 00:00:00 | 00:00:00 | |
| EDDB2-12 | 2026-08-30 07:40:00 | 52.65070 | 16.19425 | 55° | 60km/h | 3750m | -2.0m/s | -2.2°C | 96.8% | 645.8hPa | 2.7V | 00:00:00 | 00:00:00 | 00:00:00 | |
| EDDB2-11 | 2026-08-30 07:39:53 | 52.65012 | 16.19269 | 60° | 62km/h | 3763m | -1.5m/s | -2.3°C | 96.9% | 644.7hPa | 2.7V | 00:00:00 | 00:00:00 | 00:00:00 | |
| KRY50SP-1 | 2026-08-30 07:39:48 | 52.64984 | 16.19180 | 64° | 57km/h | 3770m | -1.5m/s | -2.3°C | 97.1% | 644.0hPa | 2.7V | 00:00:00 | 00:00:00 | 00:00:00 | |
| SP3BTT-10 | 2026-08-30 07:39:46 | 52.64966 | 16.19120 | 63° | 62km/h | 3776m | -1.8m/s | -2.3°C | 0% | 643.6hPa | 2.7V | 00:00:00 | 00:00:00 | 00:00:00 | |
| KRY50SP-1 | 2026-08-30 07:39:42 | 52.64946 | 16.19066 | 58° | 51km/h | 3780m | -2.0m/s | -2.4°C | 97.4% | 643.1hPa | 2.7V | 00:00:00 | 00:00:00 | 00:00:00 | |
| SP6BVK | 2026-08-30 07:39:38 | 52.64914 | 16.18991 | 54° | 58km/h | 3787m | -1.4m/s | -2.5°C | 98.0% | 642.7hPa | 2.7V | 00:00:00 | 00:00:00 | 00:00:00 | |
| SP3WXH-11 | 2026-08-30 07:39:37 | 52.64896 | 16.18951 | 55° | 58km/h | 3790m | -1.6m/s | -2.5°C | 97.8% | 642.3hPa | 2.7V | 00:00:00 | 00:00:00 | 00:00:00 | |
| SONDE2-11 | 2026-08-30 07:39:34 | 52.64870 | 16.18886 | 57° | 62km/h | 3795m | -1.9m/s | -2.5°C | 98.1% | 641.9hPa | 2.7V | 00:00:00 | 00:00:00 | 00:00:00 | |
| KRY50SP-1 | 2026-08-30 07:39:32 | 52.64861 | 16.18864 | 57° | 64km/h | 3797m | -1.3m/s | -2.5°C | 98.1% | 641.7hPa | 2.7V | 00:00:00 | 00:00:00 | 00:00:00 | |
| EDDB2-12 | 2026-08-30 07:39:29 | 52.64827 | 16.18775 | 57° | 62km/h | 3804m | -2.0m/s | -2.6°C | 97.9% | 641.2hPa | 2.7V | 00:00:00 | 00:00:00 | 00:00:00 | |
| KRY50SP-1 | 2026-08-30 07:39:27 | 52.64818 | 16.18753 | 58° | 66km/h | 3806m | -1.9m/s | -2.6°C | 98.4% | 641.1hPa | 2.7V | 00:00:00 | 00:00:00 | 00:00:00 | |
| EDDB2-11 | 2026-08-30 07:39:22 | 52.64749 | 16.18567 | 61° | 66km/h | 3820m | -1.9m/s | -2.6°C | 97.6% | 640.0hPa | 2.7V | 00:00:00 | 00:00:00 | 00:00:00 | |
| SP3BTT-10 | 2026-08-30 07:39:16 | 52.64715 | 16.18469 | 63° | 64km/h | 3826m | -1.6m/s | -2.6°C | 0% | 639.4hPa | 2.7V | 00:00:00 | 00:00:00 | 00:00:00 | |
| KRY50SP-1 | 2026-08-30 07:39:10 | 52.64679 | 16.18344 | 69° | 64km/h | 3834m | -2.0m/s | -2.6°C | 93.8% | 638.8hPa | 2.7V | 00:00:00 | 00:00:00 | 00:00:00 | |
| SP3WXH-11 | 2026-08-30 07:39:06 | 52.64649 | 16.18232 | 63° | 57km/h | 3843m | -1.5m/s | -2.6°C | 92.2% | 638.1hPa | 2.7V | 00:00:00 | 00:00:00 | 00:00:00 | |
| KRY50SP-1 | 2026-08-30 07:39:05 | 52.64649 | 16.18232 | 64° | 57km/h | 3844m | -1.5m/s | -2.6°C | 92.3% | 638.1hPa | 2.7V | 00:00:00 | 00:00:00 | 00:00:00 | |
| SONDE2-11 | 2026-08-30 07:39:03 | 52.64627 | 16.18169 | 58° | 58km/h | 3847m | -1.5m/s | -2.6°C | 90.6% | 637.8hPa | 2.7V | 00:00:00 | 00:00:00 | 00:00:00 | |
| EDDB2-12 | 2026-08-30 07:38:58 | 52.64583 | 16.18058 | 58° | 66km/h | 3855m | -1.8m/s | -2.6°C | 88.1% | 637.2hPa | 2.7V | 00:00:00 | 00:00:00 | 00:00:00 | |
| EDDB2-11 | 2026-08-30 07:38:51 | 52.64521 | 16.17883 | 63° | 69km/h | 3865m | -1.3m/s | -2.7°C | 88.3% | 636.3hPa | 2.7V | 00:00:00 | 00:00:00 | 00:00:00 | |
| KRY50SP-1 | 2026-08-30 07:38:48 | 52.64507 | 16.17831 | 68° | 66km/h | 3869m | -1.1m/s | -2.6°C | 88.4% | 636.0hPa | 2.7V | 00:00:00 | 00:00:00 | 00:00:00 | |
| SP3BTT-10 | 2026-08-30 07:38:46 | 52.64488 | 16.17760 | 66° | 64km/h | 3872m | -1.5m/s | -2.6°C | 93.9% | 635.7hPa | 2.7V | 00:00:00 | 00:00:00 | 00:00:00 | |
| KRY50SP-1 | 2026-08-30 07:38:42 | 52.64469 | 16.17697 | 61° | 57km/h | 3878m | -1.6m/s | -2.7°C | 88.8% | 635.3hPa | 2.7V | 00:00:00 | 00:00:00 | 00:00:00 | |
| KRY50SP-1 | 2026-08-30 07:38:37 | 52.64427 | 16.17588 | 58° | 66km/h | 3885m | -1.4m/s | -2.6°C | 88.4% | 634.7hPa | 2.7V | 00:00:00 | 00:00:00 | 00:00:00 | |
| SP3WXH-11 | 2026-08-30 07:38:35 | 52.64400 | 16.17516 | 59° | 69km/h | 3889m | -1.6m/s | -2.6°C | 88.5% | 634.3hPa | 2.7V | 00:00:00 | 00:00:00 | 00:00:00 | |
| SONDE2-11 | 2026-08-30 07:38:32 | 52.64375 | 16.17440 | 63° | 69km/h | 3894m | -1.5m/s | -2.6°C | 88.2% | 634.0hPa | 2.7V | 00:00:00 | 00:00:00 | 00:00:00 | |
| KRY50SP-1 | 2026-08-30 07:38:31 | 52.64375 | 16.17440 | 64° | 69km/h | 3894m | -1.5m/s | -2.5°C | 88.3% | 634.0hPa | 2.7V | 00:00:00 | 00:00:00 | 00:00:00 | |
| EDDB2-12 | 2026-08-30 07:38:27 | 52.64332 | 16.17283 | 68° | 66km/h | 3903m | -1.7m/s | -2.7°C | 88.5% | 633.2hPa | 2.7V | 00:00:00 | 00:00:00 | 00:00:00 | |
| KRY50SP-1 | 2026-08-30 07:38:25 | 52.64332 | 16.17283 | 69° | 66km/h | 3903m | -1.7m/s | -2.7°C | 88.6% | 633.2hPa | 2.7V | 00:00:00 | 00:00:00 | 00:00:00 | |
| EDDB2-11 | 2026-08-30 07:38:20 | 52.64292 | 16.17114 | 67° | 57km/h | 3915m | -1.7m/s | -2.9°C | 90.0% | 632.3hPa | 2.7V | 00:00:00 | 00:00:00 | 00:00:00 | |
| SP3BTT-10 | 2026-08-30 07:38:16 | 52.64274 | 16.17049 | 63° | 62km/h | 3920m | -1.7m/s | -2.9°C | 95.8% | 631.8hPa | 2.7V | 00:00:00 | 00:00:00 | 00:00:00 | |
| KRY50SP-1 | 2026-08-30 07:38:14 | 52.64267 | 16.17029 | 61° | 57km/h | 3922m | -1.6m/s | -3.0°C | 90.6% | 631.8hPa | 2.7V | 00:00:00 | 00:00:00 | 00:00:00 | |
| KRY50SP-1 | 2026-08-30 07:38:08 | 52.64217 | 16.16895 | 61° | 69km/h | 3932m | -1.4m/s | -3.1°C | 89.5% | 631.0hPa | 2.7V | 00:00:00 | 00:00:00 | 00:00:00 | |
| SP3WXH-11 | 2026-08-30 07:38:04 | 52.64179 | 16.16765 | 68° | 66km/h | 3940m | -1.7m/s | -3.2°C | 89.6% | 630.3hPa | 2.7V | 00:00:00 | 00:00:00 | 00:00:00 | |
| EDDB2-12 | 2026-08-30 07:37:56 | 52.64127 | 16.16553 | 63° | 55km/h | 3955m | -1.7m/s | -3.2°C | 86.3% | 629.1hPa | 2.7V | 00:00:00 | 00:00:00 | 00:00:00 | |
| EDDB2-11 | 2026-08-30 07:37:49 | 52.64073 | 16.16408 | 55° | 62km/h | 3968m | -1.7m/s | -3.3°C | 82.3% | 628.2hPa | 2.7V | 00:00:00 | 00:00:00 | 00:00:00 | |
| SP6BVK | 2026-08-30 07:37:47 | 52.64073 | 16.16408 | 57° | 64km/h | 3968m | -1.7m/s | -3.3°C | 82.4% | 628.2hPa | 2.7V | 00:00:00 | 00:00:00 | 00:00:00 | |
| SP3BTT-10 | 2026-08-30 07:37:46 | 52.64055 | 16.16363 | 58° | 62km/h | 3971m | -1.6m/s | -3.2°C | 86.9% | 627.8hPa | 2.7V | 00:00:00 | 00:00:00 | 00:00:00 | |
| KRY50SP-1 | 2026-08-30 07:37:40 | 52.64014 | 16.16238 | 67° | 68km/h | 3979m | -1.6m/s | -3.3°C | 79.1% | 627.2hPa | 2.7V | 00:00:00 | 00:00:00 | 00:00:00 | |
| KRY50SP-1 | 2026-08-30 07:37:34 | 52.63978 | 16.16090 | 69° | 60km/h | 3989m | -1.6m/s | -3.3°C | 80.2% | 626.5hPa | 2.7V | 00:00:00 | 00:00:00 | 00:00:00 | |
| SP3WXH-11 | 2026-08-30 07:37:33 | 52.63967 | 16.16045 | 68° | 57km/h | 3992m | -1.7m/s | -3.4°C | 80.1% | 626.2hPa | 2.7V | 00:00:00 | 00:00:00 | 00:00:00 | |
| SONDE2-11 | 2026-08-30 07:37:30 | 52.63951 | 16.15980 | 66° | 53km/h | 3997m | -1.9m/s | -3.4°C | 81.3% | 625.7hPa | 2.7V | 00:00:00 | 00:00:00 | 00:00:00 | |
| KRY50SP-1 | 2026-08-30 07:37:29 | 52.63951 | 16.15980 | 67° | 55km/h | 3997m | -1.9m/s | -3.4°C | 81.4% | 625.7hPa | 2.7V | 00:00:00 | 00:00:00 | 00:00:00 | |
| EDDB2-12 | 2026-08-30 07:37:25 | 52.63909 | 16.15861 | 55° | 58km/h | 4007m | -1.9m/s | -3.5°C | 77.4% | 624.9hPa | 2.7V | 00:00:00 | 00:00:00 | 00:00:00 | |
| KRY50SP-1 | 2026-08-30 07:37:23 | 52.63909 | 16.15861 | 57° | 60km/h | 4007m | -1.9m/s | -3.5°C | 77.5% | 624.9hPa | 2.7V | 00:00:00 | 00:00:00 | 00:00:00 | |
| KRY50SP-1 | 2026-08-30 07:37:17 | 52.63857 | 16.15724 | 64° | 68km/h | 4018m | -1.6m/s | -3.5°C | 77.7% | 624.2hPa | 2.7V | 00:00:00 | 00:00:00 | 00:00:00 | |
| SP3BTT-10 | 2026-08-30 07:37:16 | 52.63842 | 16.15674 | 67° | 58km/h | 4021m | -1.5m/s | -3.5°C | 82.3% | 623.9hPa | 2.7V | 00:00:00 | 00:00:00 | 00:00:00 | |
| KRY50SP-1 | 2026-08-30 07:37:12 | 52.63824 | 16.15602 | 70° | 60km/h | 4025m | -1.7m/s | -3.6°C | 78.0% | 623.5hPa | 2.7V | 00:00:00 | 00:00:00 | 00:00:00 | |
| KRY50SP-1 | 2026-08-30 07:37:07 | 52.63799 | 16.15490 | 68° | 55km/h | 4034m | -1.9m/s | -3.7°C | 77.9% | 622.7hPa | 2.7V | 00:00:00 | 00:00:00 | 00:00:00 | |
| SONDE2-11 | 2026-08-30 07:36:59 | 52.63735 | 16.15313 | 57° | 60km/h | 4050m | -1.7m/s | -3.7°C | 74.3% | 621.6hPa | 2.7V | 00:00:00 | 00:00:00 | 00:00:00 | |
| EDDB2-12 | 2026-08-30 07:36:54 | 52.63690 | 16.15172 | 65° | 64km/h | 4059m | -1.8m/s | -3.8°C | 74.8% | 620.8hPa | 2.7V | 00:00:00 | 00:00:00 | 00:00:00 | |
| EDDB2-11 | 2026-08-30 07:36:47 | 52.63650 | 16.15012 | 67° | 53km/h | 4072m | -1.8m/s | -3.8°C | 72.6% | 619.9hPa | 2.7V | 00:00:00 | 00:00:00 | 00:00:00 | |
| SP3BTT-10 | 2026-08-30 07:36:46 | 52.63650 | 16.15012 | 68° | 55km/h | 4072m | -1.8m/s | -3.7°C | 77.2% | 619.9hPa | 2.7V | 00:00:00 | 00:00:00 | 08:30:00 | |
| KRY50SP-1 | 2026-08-30 07:36:45 | 52.63650 | 16.15012 | 69° | 55km/h | 4072m | -1.8m/s | -3.8°C | 72.7% | 619.9hPa | 2.7V | 00:00:00 | 00:00:00 | 00:00:00 | |
| KRY50SP-1 | 2026-08-30 07:36:40 | 52.63623 | 16.14914 | 61° | 51km/h | 4082m | -1.7m/s | -3.8°C | 70.2% | 619.0hPa | 2.7V | 00:00:00 | 00:00:00 | 00:00:00 | |
| KRY50SP-1 | 2026-08-30 07:36:35 | 52.63588 | 16.14823 | 55° | 55km/h | 4089m | -1.5m/s | -3.8°C | 69.1% | 618.4hPa | 2.7V | 00:00:00 | 00:00:00 | 00:00:00 | |
| SP3WXH-11 | 2026-08-30 07:36:31 | 52.63547 | 16.14719 | 61° | 60km/h | 4097m | -1.7m/s | -3.9°C | 69.3% | 617.8hPa | 2.7V | 00:00:00 | 00:00:00 | 00:00:00 | |
| KRY50SP-1 | 2026-08-30 07:36:30 | 52.63547 | 16.14719 | 63° | 62km/h | 4097m | -1.7m/s | -3.9°C | 69.4% | 617.8hPa | 2.7V | 00:00:00 | 00:00:00 | 00:00:00 | |
| SONDE2-11 | 2026-08-30 07:36:28 | 52.63526 | 16.14650 | 65° | 60km/h | 4102m | -1.6m/s | -3.9°C | 69.6% | 617.4hPa | 2.7V | 00:00:00 | 00:00:00 | 00:00:00 | |
| KRY50SP-1 | 2026-08-30 07:36:24 | 52.63510 | 16.14580 | 71° | 57km/h | 4107m | -1.6m/s | -4.0°C | 69.8% | 617.1hPa | 2.7V | 00:00:00 | 00:00:00 | 00:00:00 | |
| EDDB2-12 | 2026-08-30 07:36:23 | 52.63495 | 16.14514 | 70° | 53km/h | 4111m | -2.0m/s | -4.0°C | 69.2% | 616.6hPa | 2.7V | 00:00:00 | 00:00:00 | 00:00:00 | |
| KRY50SP-1 | 2026-08-30 07:36:19 | 52.63486 | 16.14474 | 69° | 51km/h | 4115m | -1.8m/s | -4.0°C | 69.1% | 616.4hPa | 2.7V | 00:00:00 | 00:00:00 | 00:00:00 | |
| EDDB2-11 | 2026-08-30 07:36:16 | 52.63460 | 16.14383 | 58° | 47km/h | 4124m | -1.7m/s | -4.1°C | 68.0% | 615.7hPa | 2.7V | 00:00:00 | 00:00:00 | 00:00:00 | |
| KRY50SP-1 | 2026-08-30 07:36:14 | 52.63460 | 16.14383 | 60° | 47km/h | 4124m | -1.7m/s | -4.0°C | 68.1% | 615.7hPa | 2.7V | 00:00:00 | 00:00:00 | 00:00:00 | |
| KRY50SP-1 | 2026-08-30 07:36:09 | 52.63420 | 16.14292 | 54° | 60km/h | 4133m | -1.9m/s | -4.1°C | 67.7% | 615.2hPa | 2.7V | 00:00:00 | 00:00:00 | 00:00:00 | |
| KRY50SP-1 | 2026-08-30 07:36:03 | 52.63371 | 16.14159 | 64° | 64km/h | 4143m | -1.6m/s | -3.9°C | 61.9% | 614.3hPa | 2.7V | 00:00:00 | 00:00:00 | 00:00:00 | |
| SP3WXH-11 | 2026-08-30 07:36:00 | 52.63347 | 16.14066 | 69° | 57km/h | 4150m | -1.7m/s | -3.8°C | 56.3% | 613.7hPa | 2.7V | 00:00:00 | 00:00:00 | 00:00:00 | |
| SONDE2-11 | 2026-08-30 07:35:57 | 52.63332 | 16.14004 | 66° | 49km/h | 4155m | -1.7m/s | -3.7°C | 51.7% | 613.3hPa | 2.7V | 00:00:00 | 00:00:00 | 00:00:00 | |
| EDDB2-12 | 2026-08-30 07:35:52 | 52.63293 | 16.13892 | 58° | 53km/h | 4166m | -1.7m/s | -3.7°C | 45.3% | 612.6hPa | 2.7V | 00:00:00 | 00:00:00 | 00:00:00 | |
| EDDB2-11 | 2026-08-30 07:35:45 | 52.63240 | 16.13742 | 63° | 62km/h | 4177m | -1.5m/s | -3.7°C | 45.5% | 611.6hPa | 2.7V | 00:00:00 | 00:00:00 | 00:00:00 | |
| KRY50SP-1 | 2026-08-30 07:35:40 | 52.63220 | 16.13672 | 68° | 62km/h | 4182m | -1.8m/s | -3.7°C | 45.2% | 611.2hPa | 2.7V | 00:00:00 | 00:00:00 | 00:00:00 | |
| KRY50SP-1 | 2026-08-30 07:35:35 | 52.63190 | 16.13554 | 71° | 62km/h | 4191m | -2.1m/s | -3.6°C | 40.6% | 610.6hPa | 2.7V | 00:00:00 | 00:00:00 | 00:00:00 | |
| SP3BTT-10 | 2026-08-30 07:35:31 | 52.63166 | 16.13438 | 71° | 55km/h | 4200m | -1.5m/s | -3.5°C | 40.3% | 609.8hPa | 2.7V | 00:00:00 | 00:00:00 | 00:00:00 | |
| SP3WXH-11 | 2026-08-30 07:35:29 | 52.63158 | 16.13398 | 69° | 49km/h | 4204m | -1.9m/s | -3.6°C | 37.6% | 609.5hPa | 2.7V | 00:00:00 | 00:00:00 | 00:00:00 | |
| SONDE2-11 | 2026-08-30 07:35:26 | 52.63142 | 16.13341 | 62° | 49km/h | 4209m | -1.7m/s | -3.4°C | 31.3% | 609.2hPa | 2.7V | 00:00:00 | 00:00:00 | 00:00:00 | |
| KRY50SP-1 | 2026-08-30 07:35:24 | 52.63136 | 16.13323 | 62° | 51km/h | 4211m | -1.7m/s | -3.4°C | 30.7% | 609.0hPa | 2.7V | 00:00:00 | 00:00:00 | 00:00:00 | |
| EDDB2-12 | 2026-08-30 07:35:20 | 52.63100 | 16.13224 | 61° | 58km/h | 4219m | -1.6m/s | -3.4°C | 27.5% | 608.5hPa | 2.7V | 00:00:00 | 00:00:00 | 00:00:00 | |
| KRY50SP-1 | 2026-08-30 07:35:18 | 52.63093 | 16.13202 | 63° | 60km/h | 4221m | -1.8m/s | -3.4°C | 27.2% | 608.3hPa | 2.7V | 00:00:00 | 00:00:00 | 00:00:00 | |
| SP6BVK | 2026-08-30 07:35:15 | 52.63073 | 16.13133 | 67° | 62km/h | 4226m | -1.8m/s | -3.4°C | 25.1% | 607.9hPa | 2.7V | 00:00:00 | 00:00:00 | 00:00:00 | |
| EDDB2-11 | 2026-08-30 07:35:14 | 52.63054 | 16.13061 | 70° | 60km/h | 4231m | -1.8m/s | -3.4°C | 24.2% | 607.4hPa | 2.7V | 00:00:00 | 00:00:00 | 00:00:00 | |
| KRY50SP-1 | 2026-08-30 07:35:12 | 52.63055 | 16.13061 | 71° | 62km/h | 4231m | -1.8m/s | -3.4°C | 24.2% | 607.4hPa | 2.7V | 00:00:00 | 00:00:00 | 00:00:00 | |
| KRY50SP-1 | 2026-08-30 07:35:07 | 52.63032 | 16.12947 | 73° | 55km/h | 4240m | -1.5m/s | -3.4°C | 22.7% | 606.7hPa | 2.7V | 00:00:00 | 00:00:00 | 00:00:00 | |
| KRY50SP-1 | 2026-08-30 07:35:02 | 52.63012 | 16.12848 | 73° | 46km/h | 4248m | -2.1m/s | -3.5°C | 21.5% | 606.1hPa | 2.7V | 00:00:00 | 00:00:00 | 00:00:00 | |
| SP3WXH-11 | 2026-08-30 07:34:58 | 52.62986 | 16.12760 | 59° | 49km/h | 4256m | -1.7m/s | -3.6°C | 20.3% | 605.4hPa | 2.7V | 00:00:00 | 00:00:00 | 00:00:00 | |
| SONDE2-11 | 2026-08-30 07:34:55 | 52.62964 | 16.12703 | 59° | 57km/h | 4261m | -1.8m/s | -3.6°C | 19.6% | 605.0hPa | 2.7V | 00:00:00 | 00:00:00 | 00:00:00 | |
| EDDB2-12 | 2026-08-30 07:34:49 | 52.62924 | 16.12565 | 72° | 58km/h | 4271m | -1.9m/s | -3.7°C | 19.7% | 604.2hPa | 2.7V | 00:00:00 | 00:00:00 | 00:00:00 | |
| SP3BTT-10 | 2026-08-30 07:34:47 | 52.62915 | 16.12518 | 74° | 57km/h | 4275m | -1.8m/s | -3.6°C | 21.0% | 603.9hPa | 2.7V | 00:00:00 | 00:00:00 | 00:00:00 | |
| KRY50SP-1 | 2026-08-30 07:34:46 | 52.62915 | 16.12519 | 75° | 58km/h | 4275m | -1.9m/s | -3.7°C | 19.7% | 603.9hPa | 2.6V | 00:00:00 | 00:00:00 | 00:00:00 | |
| EDDB2-11 | 2026-08-30 07:34:42 | 52.62896 | 16.12413 | 71° | 47km/h | 4285m | -2.1m/s | -3.8°C | 19.5% | 603.2hPa | 2.6V | 00:00:00 | 00:00:00 | 00:00:00 | |
| KRY50SP-1 | 2026-08-30 07:34:41 | 52.62896 | 16.12413 | 72° | 47km/h | 4285m | -2.1m/s | -3.8°C | 19.5% | 603.2hPa | 2.6V | 00:00:00 | 00:00:00 | 00:00:00 | |
| KRY50SP-1 | 2026-08-30 07:34:35 | 52.62865 | 16.12304 | 61° | 55km/h | 4296m | -1.8m/s | -3.8°C | 19.9% | 602.3hPa | 2.6V | 00:00:00 | 00:00:00 | 00:00:00 | |
| KRY50SP-1 | 2026-08-30 07:34:29 | 52.62822 | 16.12177 | 65° | 62km/h | 4306m | -1.8m/s | -3.9°C | 20.0% | 601.6hPa | 2.6V | 00:00:00 | 00:00:00 | 00:00:00 | |
| SP3WXH-11 | 2026-08-30 07:34:27 | 52.62803 | 16.12106 | 68° | 62km/h | 4311m | -2.1m/s | -4.0°C | 20.0% | 601.2hPa | 2.6V | 00:00:00 | 00:00:00 | 00:00:00 | |
| SONDE2-11 | 2026-08-30 07:34:24 | 52.62788 | 16.12034 | 72° | 58km/h | 4318m | -1.7m/s | -4.0°C | 19.8% | 600.7hPa | 2.6V | 00:00:00 | 00:00:00 | 00:00:00 | |
| KRY50SP-1 | 2026-08-30 07:34:23 | 52.62788 | 16.12034 | 73° | 60km/h | 4318m | -1.7m/s | -4.0°C | 19.8% | 600.7hPa | 2.6V | 00:00:00 | 00:00:00 | 00:00:00 | |
| KRY50SP-1 | 2026-08-30 07:34:18 | 52.62769 | 16.11921 | 76° | 51km/h | 4327m | -2.0m/s | -4.1°C | 19.0% | 600.0hPa | 2.6V | 00:00:00 | 00:00:00 | 00:00:00 | |
| EDDB2-11 | 2026-08-30 07:34:12 | 52.62730 | 16.11772 | 59° | 53km/h | 4341m | -1.7m/s | -4.2°C | 17.3% | 599.0hPa | 2.6V | 00:00:00 | 00:00:00 | 00:00:00 | |
| KRY50SP-1 | 2026-08-30 07:34:06 | 52.62701 | 16.11688 | 64° | 60km/h | 4348m | -1.9m/s | -4.2°C | 16.4% | 598.4hPa | 2.6V | 00:00:00 | 00:00:00 | 00:00:00 | |
| SP3WXH-11 | 2026-08-30 07:33:56 | 52.62648 | 16.11429 | 76° | 53km/h | 4368m | -1.8m/s | -4.3°C | 14.4% | 596.9hPa | 2.6V | 00:00:00 | 00:00:00 | 00:00:00 | |
| SONDE2-11 | 2026-08-30 07:33:53 | 52.62637 | 16.11368 | 71° | 47km/h | 4373m | -1.6m/s | -4.3°C | 14.1% | 596.6hPa | 2.6V | 00:00:00 | 00:00:00 | 00:00:00 | |
| EDDB2-12 | 2026-08-30 07:33:47 | 52.62605 | 16.11255 | 61° | 55km/h | 4383m | -1.8m/s | -4.4°C | 13.3% | 595.8hPa | 2.6V | 00:00:00 | 00:00:00 | 00:00:00 | |
| KRY50SP-1 | 2026-08-30 07:33:44 | 52.62592 | 16.11214 | 66° | 57km/h | 4387m | -1.8m/s | -4.4°C | 13.2% | 595.5hPa | 2.6V | 00:00:00 | 00:00:00 | 00:00:00 | |
| EDDB2-11 | 2026-08-30 07:33:40 | 52.62564 | 16.11100 | 69° | 60km/h | 4395m | -1.5m/s | -4.4°C | 13.0% | 594.8hPa | 2.6V | 00:00:00 | 00:00:00 | 00:00:00 | |
| KRY50SP-1 | 2026-08-30 07:33:39 | 52.62564 | 16.11100 | 71° | 60km/h | 4395m | -1.5m/s | -4.4°C | 13.1% | 594.8hPa | 2.6V | 00:00:00 | 00:00:00 | 00:00:00 | |
| KRY50SP-1 | 2026-08-30 07:33:33 | 52.62542 | 16.10962 | 78° | 55km/h | 4406m | -1.7m/s | -4.3°C | 10.8% | 594.0hPa | 2.6V | 00:00:00 | 00:00:00 | 00:00:00 | |
| KRY50SP-1 | 2026-08-30 07:33:27 | 52.62521 | 16.10842 | 72° | 47km/h | 4416m | -1.5m/s | -4.3°C | 9.6% | 593.2hPa | 2.6V | 00:00:00 | 00:00:00 | 00:00:00 | |
| SP3WXH-11 | 2026-08-30 07:33:25 | 52.62501 | 16.10770 | 60° | 49km/h | 4423m | -1.8m/s | -4.4°C | 8.9% | 592.8hPa | 2.6V | 00:00:00 | 00:00:00 | 00:00:00 | |
| SONDE2-11 | 2026-08-30 07:33:22 | 52.62488 | 16.10732 | 61° | 53km/h | 4426m | -1.8m/s | -4.4°C | 8.7% | 592.5hPa | 2.6V | 00:00:00 | 00:00:00 | 00:00:00 | |
| KRY50SP-1 | 2026-08-30 07:33:21 | 52.62488 | 16.10732 | 62° | 53km/h | 4426m | -1.8m/s | -4.4°C | 8.7% | 592.5hPa | 2.6V | 00:00:00 | 00:00:00 | 00:00:00 | |
| SP3BTT-10 | 2026-08-30 07:33:16 | 52.62451 | 16.10602 | 70° | 53km/h | 4437m | -1.6m/s | -4.3°C | 8.6% | 591.7hPa | 2.6V | 00:00:00 | 00:00:00 | 00:00:00 | |
| KRY50SP-1 | 2026-08-30 07:33:15 | 52.62451 | 16.10602 | 70° | 60km/h | 4437m | -1.6m/s | -4.4°C | 8.0% | 591.7hPa | 2.6V | 00:00:00 | 00:00:00 | 00:00:00 | |
| SP6BVK | 2026-08-30 07:33:12 | 52.62438 | 16.10532 | 75° | 57km/h | 4442m | -1.6m/s | -4.4°C | 7.5% | 591.3hPa | 2.6V | 00:00:00 | 00:00:00 | 00:00:00 | |
| EDDB2-11 | 2026-08-30 07:33:09 | 52.62423 | 16.10447 | 75° | 49km/h | 4447m | -1.8m/s | -4.4°C | 7.1% | 590.9hPa | 2.6V | 00:00:00 | 00:00:00 | 00:00:00 | |
| KRY50SP-1 | 2026-08-30 07:33:04 | 52.62409 | 16.10372 | 70° | 46km/h | 4454m | -1.5m/s | -4.4°C | 6.9% | 590.5hPa | 2.6V | 00:00:00 | 00:00:00 | 00:00:00 | |
| SP3WXH-11 | 2026-08-30 07:32:54 | 52.62338 | 16.10146 | 64° | 58km/h | 4475m | -2.1m/s | -4.5°C | 6.5% | 588.8hPa | 2.6V | 00:00:00 | 00:00:00 | 00:00:00 | |
| SONDE2-11 | 2026-08-30 07:32:51 | 52.62327 | 16.10100 | 69° | 58km/h | 4479m | -1.9m/s | -4.5°C | 6.3% | 588.6hPa | 2.6V | 00:00:00 | 00:00:00 | 00:00:00 | |
| EDDB2-12 | 2026-08-30 07:32:45 | 52.62303 | 16.09966 | 76° | 49km/h | 4489m | -1.9m/s | -4.5°C | 5.8% | 587.8hPa | 2.6V | 00:00:00 | 00:00:00 | 00:00:00 | |
| KRY50SP-1 | 2026-08-30 07:32:41 | 52.62293 | 16.09910 | 72° | 46km/h | 4495m | -1.8m/s | -4.5°C | 5.7% | 587.4hPa | 2.6V | 00:00:00 | 00:00:00 | 00:00:00 | |
| EDDB2-11 | 2026-08-30 07:32:38 | 52.62273 | 16.09841 | 61° | 47km/h | 4502m | -1.7m/s | -4.5°C | 5.9% | 586.8hPa | 2.6V | 00:00:00 | 00:00:00 | 00:00:00 | |
| KRY50SP-1 | 2026-08-30 07:32:36 | 52.62267 | 16.09823 | 59° | 49km/h | 4504m | -2.0m/s | -4.5°C | 6.2% | 586.7hPa | 2.6V | 00:00:00 | 00:00:00 | 00:00:00 | |
| SP3BTT-10 | 2026-08-30 07:32:31 | 52.62225 | 16.09700 | 66° | 55km/h | 4515m | -1.9m/s | -4.5°C | 8.3% | 585.7hPa | 2.6V | 00:00:00 | 00:00:00 | 00:00:00 | |
| KRY50SP-1 | 2026-08-30 07:32:30 | 52.62225 | 16.09700 | 66° | 60km/h | 4515m | -2.0m/s | -4.6°C | 7.7% | 585.8hPa | 2.7V | 00:00:00 | 00:00:00 | 00:00:00 | |
| KRY50SP-1 | 2026-08-30 07:32:24 | 52.62198 | 16.09563 | 77° | 53km/h | 4527m | -1.9m/s | -4.7°C | 8.8% | 585.0hPa | 2.7V | 00:00:00 | 00:00:00 | 00:00:00 | |
| SP3WXH-11 | 2026-08-30 07:32:23 | 52.62192 | 16.09523 | 73° | 47km/h | 4531m | -2.0m/s | -4.7°C | 8.8% | 584.7hPa | 2.7V | 00:00:00 | 00:00:00 | 00:00:00 | |
| SONDE2-11 | 2026-08-30 07:32:20 | 52.62176 | 16.09450 | 63° | 46km/h | 4539m | -2.0m/s | -4.8°C | 9.0% | 584.2hPa | 2.7V | 00:00:00 | 00:00:00 | 00:00:00 | |
| KRY50SP-1 | 2026-08-30 07:32:18 | 52.62176 | 16.09450 | 64° | 46km/h | 4539m | -2.0m/s | -4.8°C | 9.0% | 584.2hPa | 2.7V | 00:00:00 | 00:00:00 | 00:00:00 | |
| EDDB2-12 | 2026-08-30 07:32:14 | 52.62145 | 16.09360 | 57° | 55km/h | 4548m | -2.0m/s | -4.9°C | 9.6% | 583.4hPa | 2.7V | 00:00:00 | 00:00:00 | 00:00:00 | |
| KRY50SP-1 | 2026-08-30 07:32:12 | 52.62138 | 16.09340 | 62° | 58km/h | 4550m | -2.0m/s | -4.8°C | 8.5% | 583.3hPa | 2.7V | 00:00:00 | 00:00:00 | 00:00:00 | |
| SP6BVK | 2026-08-30 07:32:08 | 52.62111 | 16.09250 | 70° | 60km/h | 4557m | -1.9m/s | -4.9°C | 7.6% | 582.6hPa | 2.7V | 00:00:00 | 00:00:00 | 00:00:00 | |
| KRY50SP-1 | 2026-08-30 07:32:07 | 52.62105 | 16.09227 | 70° | 60km/h | 4559m | -1.8m/s | -4.9°C | 8.1% | 582.5hPa | 2.7V | 00:00:00 | 00:00:00 | 00:00:00 | |
| KRY50SP-1 | 2026-08-30 07:32:01 | 52.62082 | 16.09095 | 75° | 47km/h | 4570m | -1.9m/s | -5.0°C | 8.6% | 581.6hPa | 2.7V | 00:00:00 | 00:00:00 | 00:00:00 | |
| SP3WXH-11 | 2026-08-30 07:31:52 | 52.62021 | 16.08894 | 61° | 55km/h | 4591m | -2.1m/s | -5.2°C | 9.0% | 580.2hPa | 2.7V | 00:00:00 | 00:00:00 | 00:00:00 | |
| SONDE2-11 | 2026-08-30 07:31:49 | 52.62001 | 16.08831 | 63° | 58km/h | 4597m | -2.2m/s | -5.2°C | 8.7% | 579.7hPa | 2.7V | 00:00:00 | 00:00:00 | 00:00:00 | |
| SP6BVK | 2026-08-30 07:31:47 | 52.62001 | 16.08831 | 65° | 58km/h | 4598m | -2.2m/s | -5.2°C | 8.7% | 579.7hPa | 2.7V | 00:00:00 | 00:00:00 | 00:00:00 | |
| SP3BTT-10 | 2026-08-30 07:31:46 | 52.61988 | 16.08786 | 67° | 58km/h | 4602m | -1.8m/s | -5.2°C | 9.2% | 579.4hPa | 2.7V | 00:00:00 | 00:00:00 | 00:00:00 | |
| KRY50SP-1 | 2026-08-30 07:31:44 | 52.61982 | 16.08762 | 68° | 62km/h | 4604m | -1.9m/s | -5.3°C | 8.5% | 579.2hPa | 2.7V | 00:00:00 | 00:00:00 | 00:00:00 | |
| EDDB2-12 | 2026-08-30 07:31:43 | 52.61970 | 16.08714 | 70° | 60km/h | 4607m | -2.1m/s | -5.3°C | 8.3% | 578.9hPa | 2.7V | 00:00:00 | 00:00:00 | 00:00:00 | |
| KRY50SP-1 | 2026-08-30 07:31:38 | 52.61953 | 16.08620 | 79° | 55km/h | 4616m | -2.0m/s | -5.3°C | 7.9% | 578.3hPa | 2.7V | 00:00:00 | 00:00:00 | 00:00:00 | |
| EDDB2-11 | 2026-08-30 07:31:36 | 52.61943 | 16.08559 | 72° | 46km/h | 4622m | -1.8m/s | -5.4°C | 7.8% | 578.0hPa | 2.7V | 00:00:00 | 00:00:00 | 00:00:00 | |
| KRY50SP-1 | 2026-08-30 07:31:32 | 52.61931 | 16.08505 | 67° | 47km/h | 4628m | -2.0m/s | -5.5°C | 7.9% | 577.5hPa | 2.7V | 00:00:00 | 00:00:00 | 00:00:00 | |
| SP6BVK | 2026-08-30 07:31:26 | 52.61893 | 16.08393 | 62° | 58km/h | 4639m | -2.1m/s | -5.6°C | 8.2% | 576.7hPa | 2.7V | 00:00:00 | 00:00:00 | 00:00:00 | |
| SP3WXH-11 | 2026-08-30 07:31:21 | 52.61849 | 16.08234 | 71° | 58km/h | 4653m | -2.0m/s | -5.7°C | 8.5% | 575.6hPa | 2.7V | 00:00:00 | 00:00:00 | 00:00:00 | |
| SONDE2-11 | 2026-08-30 07:31:18 | 52.61837 | 16.08166 | 74° | 51km/h | 4659m | -2.1m/s | -5.7°C | 8.5% | 575.1hPa | 2.7V | 00:00:00 | 00:00:00 | 00:00:00 | |
| SP3BTT-10 | 2026-08-30 07:31:16 | 52.61834 | 16.08145 | 76° | 51km/h | 4662m | -2.1m/s | -5.7°C | 9.1% | 574.9hPa | 2.7V | 00:00:00 | 00:00:00 | 00:00:00 | |
| KRY50SP-1 | 2026-08-30 07:31:15 | 52.61834 | 16.08145 | 77° | 51km/h | 4662m | -2.2m/s | -5.7°C | 8.4% | 575.0hPa | 2.7V | 00:00:00 | 00:00:00 | 00:00:00 | |
| EDDB2-12 | 2026-08-30 07:31:12 | 52.61818 | 16.08070 | 66° | 46km/h | 4670m | -1.7m/s | -5.8°C | 8.4% | 574.4hPa | 2.7V | 00:00:00 | 00:00:00 | 00:00:00 | |
| KRY50SP-1 | 2026-08-30 07:31:10 | 52.61813 | 16.08052 | 66° | 47km/h | 4671m | -1.8m/s | -5.8°C | 8.4% | 574.2hPa | 2.7V | 00:00:00 | 00:00:00 | 00:00:00 | |
| SP6BVK | 2026-08-30 07:31:05 | 52.61782 | 16.07958 | 62° | 57km/h | 4681m | -2.1m/s | -5.9°C | 8.5% | 573.6hPa | 2.7V | 00:00:00 | 00:00:00 | 00:00:00 | |
| KRY50SP-1 | 2026-08-30 07:31:04 | 52.61775 | 16.07937 | 63° | 57km/h | 4683m | -2.1m/s | -6.0°C | 8.9% | 573.4hPa | 2.7V | 00:00:00 | 00:00:00 | 00:00:00 | |
| SP3WXH-11 | 2026-08-30 07:30:50 | 52.61697 | 16.07593 | 64° | 46km/h | 4714m | -2.1m/s | -6.3°C | 10.3% | 571.1hPa | 2.7V | 00:00:00 | 00:00:00 | 00:00:00 | |
| SONDE2-11 | 2026-08-30 07:30:47 | 52.61679 | 16.07539 | 58° | 51km/h | 4721m | -2.1m/s | -6.3°C | 10.9% | 570.6hPa | 2.7V | 00:00:00 | 00:00:00 | 00:00:00 | |
| SP3BTT-10 | 2026-08-30 07:30:46 | 52.61679 | 16.07538 | 59° | 53km/h | 4721m | -2.0m/s | -6.3°C | 11.8% | 570.6hPa | 2.7V | 00:00:00 | 00:00:00 | 08:30:00 | |
| SP6BVK | 2026-08-30 07:30:44 | 52.61672 | 16.07519 | 60° | 55km/h | 4723m | -2.1m/s | -6.3°C | 10.9% | 570.5hPa | 2.6V | 00:00:00 | 00:00:00 | 00:00:00 | |
| KRY50SP-1 | 2026-08-30 07:30:42 | 52.61657 | 16.07479 | 60° | 58km/h | 4727m | -2.0m/s | -6.4°C | 10.6% | 570.3hPa | 2.6V | 00:00:00 | 00:00:00 | 00:00:00 | |
| EDDB2-12 | 2026-08-30 07:30:41 | 52.61643 | 16.07436 | 63° | 58km/h | 4731m | -2.2m/s | -6.4°C | 10.4% | 570.0hPa | 2.6V | 00:00:00 | 00:00:00 | 00:00:00 | |
| KRY50SP-1 | 2026-08-30 07:30:37 | 52.61624 | 16.07365 | 68° | 64km/h | 4738m | -2.1m/s | -6.4°C | 10.8% | 569.5hPa | 2.6V | 00:00:00 | 00:00:00 | 00:00:00 | |
| EDDB2-11 | 2026-08-30 07:30:34 | 52.61602 | 16.07269 | 73° | 58km/h | 4745m | -2.3m/s | -6.5°C | 10.9% | 568.9hPa | 2.6V | 00:00:00 | 00:00:00 | 00:00:00 | |
| KRY50SP-1 | 2026-08-30 07:30:32 | 52.61598 | 16.07245 | 77° | 58km/h | 4748m | -2.1m/s | -6.5°C | 11.0% | 568.7hPa | 2.6V | 00:00:00 | 00:00:00 | 00:00:00 | |
| KRY50SP-1 | 2026-08-30 07:30:27 | 52.61582 | 16.07140 | 71° | 47km/h | 4758m | -1.8m/s | -6.6°C | 11.0% | 568.0hPa | 2.6V | 00:00:00 | 00:00:00 | 00:00:00 | |
| SP6BVK | 2026-08-30 07:30:24 | 52.61568 | 16.07085 | 63° | 49km/h | 4764m | -2.1m/s | -6.7°C | 10.8% | 567.4hPa | 2.6V | 00:00:00 | 00:00:00 | 00:00:00 | |
| KRY50SP-1 | 2026-08-30 07:30:21 | 52.61548 | 16.07028 | 59° | 57km/h | 4771m | -2.2m/s | -6.7°C | 10.6% | 567.1hPa | 2.6V | 00:00:00 | 00:00:00 | 00:00:00 | |
| SP3WXH-11 | 2026-08-30 07:30:19 | 52.61520 | 16.06941 | 64° | 60km/h | 4779m | -2.0m/s | -6.8°C | 11.5% | 566.5hPa | 2.6V | 00:00:00 | 00:00:00 | 00:00:00 | |
| KRY50SP-1 | 2026-08-30 07:30:15 | 52.61508 | 16.06894 | 70° | 60km/h | 4783m | -1.9m/s | -6.8°C | 11.6% | 566.3hPa | 2.6V | 00:00:00 | 00:00:00 | 00:00:00 | |
| EDDB2-12 | 2026-08-30 07:30:10 | 52.61482 | 16.06758 | 74° | 53km/h | 4794m | -1.9m/s | -6.9°C | 9.6% | 565.4hPa | 2.6V | 00:00:00 | 00:00:00 | 00:00:00 | |
| KRY50SP-1 | 2026-08-30 07:30:09 | 52.61482 | 16.06758 | 75° | 53km/h | 4795m | -1.9m/s | -6.9°C | 9.6% | 565.4hPa | 2.6V | 00:00:00 | 00:00:00 | 00:00:00 | |
| EDDB2-11 | 2026-08-30 07:30:03 | 52.61455 | 16.06624 | 68° | 44km/h | 4808m | -2.3m/s | -7.0°C | 8.5% | 564.3hPa | 2.6V | 00:00:00 | 00:00:00 | 00:00:00 | |
| SP3WXH-11 | 2026-08-30 07:29:48 | 52.61355 | 16.06300 | 72° | 58km/h | 4839m | -2.1m/s | -7.1°C | 9.6% | 562.0hPa | 2.6V | 00:00:00 | 00:00:00 | 00:00:00 | |
| SONDE2-11 | 2026-08-30 07:29:45 | 52.61342 | 16.06234 | 70° | 51km/h | 4845m | -1.9m/s | -7.2°C | 9.3% | 561.5hPa | 2.6V | 00:00:00 | 00:00:00 | 00:00:00 | |
| SP6BVK | 2026-08-30 07:29:43 | 52.61342 | 16.06234 | 72° | 51km/h | 4846m | -1.9m/s | -7.1°C | 9.3% | 561.5hPa | 2.6V | 00:00:00 | 00:00:00 | 00:00:00 | |
| KRY50SP-1 | 2026-08-30 07:29:40 | 52.61329 | 16.06176 | 67° | 49km/h | 4852m | -2.4m/s | -7.2°C | 9.2% | 561.0hPa | 2.6V | 00:00:00 | 00:00:00 | 00:00:00 | |
| EDDB2-12 | 2026-08-30 07:29:39 | 52.61318 | 16.06140 | 62° | 47km/h | 4856m | -2.4m/s | -7.2°C | 9.2% | 560.8hPa | 2.6V | 00:00:00 | 00:00:00 | 00:00:00 | |
| KRY50SP-1 | 2026-08-30 07:29:34 | 52.61292 | 16.06067 | 57° | 55km/h | 4864m | -2.0m/s | -7.2°C | 9.2% | 560.2hPa | 2.6V | 00:00:00 | 00:00:00 | 00:00:00 | |
| EDDB2-11 | 2026-08-30 07:29:32 | 52.61270 | 16.06008 | 58° | 57km/h | 4871m | -2.2m/s | -7.1°C | 8.5% | 559.8hPa | 2.6V | 00:00:00 | 00:00:00 | 00:00:00 | |
| KRY50SP-1 | 2026-08-30 07:29:28 | 52.61247 | 16.05943 | 65° | 62km/h | 4877m | -2.1m/s | -7.1°C | 8.2% | 559.3hPa | 2.6V | 00:00:00 | 00:00:00 | 00:00:00 | |
| KRY50SP-1 | 2026-08-30 07:29:22 | 52.61212 | 16.05806 | 71° | 57km/h | 4888m | -1.9m/s | -7.0°C | 7.0% | 558.5hPa | 2.6V | 00:00:00 | 00:00:00 | 00:00:00 | |
| SP6BVK | 2026-08-30 07:29:18 | 52.61194 | 16.05719 | 73° | 53km/h | 4897m | -1.9m/s | -7.0°C | 6.7% | 557.8hPa | 2.6V | 00:00:00 | 00:00:00 | 00:00:00 | |
| SP3WXH-11 | 2026-08-30 07:29:17 | 52.61181 | 16.05660 | 70° | 49km/h | 4902m | -2.0m/s | -7.0°C | 6.7% | 557.4hPa | 2.6V | 00:00:00 | 00:00:00 | 00:00:00 | |
| SONDE2-11 | 2026-08-30 07:29:14 | 52.61167 | 16.05604 | 67° | 46km/h | 4908m | -2.2m/s | -7.0°C | 6.6% | 557.0hPa | 2.6V | 00:00:00 | 00:00:00 | 00:00:00 | |
| KRY50SP-1 | 2026-08-30 07:29:11 | 52.61163 | 16.05586 | 67° | 44km/h | 4911m | -2.4m/s | -7.0°C | 6.5% | 556.8hPa | 2.6V | 00:00:00 | 00:00:00 | 00:00:00 | |
| EDDB2-12 | 2026-08-30 07:29:08 | 52.61139 | 16.05520 | 56° | 46km/h | 4919m | -2.6m/s | -7.1°C | 6.5% | 556.1hPa | 2.6V | 00:00:00 | 00:00:00 | 00:00:00 | |
| KRY50SP-1 | 2026-08-30 07:29:05 | 52.61125 | 16.05486 | 56° | 51km/h | 4924m | -2.2m/s | -7.1°C | 6.6% | 555.8hPa | 2.6V | 00:00:00 | 00:00:00 | 00:00:00 | |
| EDDB2-11 | 2026-08-30 07:29:01 | 52.61086 | 16.05385 | 63° | 60km/h | 4934m | -2.0m/s | -7.1°C | 7.0% | 555.1hPa | 2.6V | 00:00:00 | 00:00:00 | 00:00:00 | |
| SP3WXH-11 | 2026-08-30 07:28:46 | 52.60997 | 16.05075 | 54° | 57km/h | 4968m | -2.0m/s | -7.4°C | 7.3% | 552.7hPa | 2.6V | 00:00:00 | 00:00:00 | 00:00:00 | |
| KRY50SP-1 | 2026-08-30 07:28:43 | 52.60989 | 16.05055 | 57° | 58km/h | 4970m | -2.0m/s | -7.4°C | 7.3% | 552.6hPa | 2.6V | 00:00:00 | 00:00:00 | 00:00:00 | |
| SONDE2-11 | 2026-08-30 07:28:42 | 52.60973 | 16.05014 | 58° | 58km/h | 4974m | -2.3m/s | -7.4°C | 7.3% | 552.3hPa | 2.6V | 00:00:00 | 00:00:00 | 00:00:00 | |
| EDDB2-12 | 2026-08-30 07:28:37 | 52.60937 | 16.04903 | 67° | 60km/h | 4985m | -2.5m/s | -7.5°C | 7.4% | 551.6hPa | 2.6V | 00:00:00 | 00:00:00 | 00:00:00 | |
| SP3BTT-10 | 2026-08-30 07:28:31 | 52.60907 | 16.04770 | 74° | 55km/h | 4999m | -2.5m/s | -7.5°C | 8.1% | 550.6hPa | 2.6V | 00:00:00 | 00:00:00 | 00:00:00 | |
| EDDB2-11 | 2026-08-30 07:28:30 | 52.60903 | 16.04750 | 72° | 47km/h | 5001m | -2.5m/s | -7.6°C | 7.4% | 550.4hPa | 2.6V | 00:00:00 | 00:00:00 | 00:00:00 | |
| KRY50SP-1 | 2026-08-30 07:28:26 | 52.60890 | 16.04697 | 63° | 46km/h | 5008m | -1.8m/s | -7.6°C | 7.4% | 549.9hPa | 2.6V | 00:00:00 | 00:00:00 | 00:00:00 | |
| KRY50SP-1 | 2026-08-30 07:28:20 | 52.60851 | 16.04592 | 58° | 57km/h | 5020m | -2.2m/s | -7.7°C | 7.4% | 549.1hPa | 2.6V | 00:00:00 | 00:00:00 | 00:00:00 | |
| SP6BVK | 2026-08-30 07:28:16 | 52.60819 | 16.04509 | 62° | 60km/h | 5028m | -2.3m/s | -7.8°C | 7.4% | 548.4hPa | 2.6V | 00:00:00 | 00:00:00 | 00:00:00 | |
| KRY50SP-1 | 2026-08-30 07:28:15 | 52.60812 | 16.04487 | 65° | 60km/h | 5030m | -2.5m/s | -7.8°C | 7.4% | 548.3hPa | 2.6V | 00:00:00 | 00:00:00 | 00:00:00 | |
| SP3WXH-11 | 2026-08-30 07:28:14 | 52.60799 | 16.04441 | 67° | 60km/h | 5034m | -2.5m/s | -7.8°C | 7.4% | 548.0hPa | 2.6V | 00:00:00 | 00:00:00 | 00:00:00 | |
| SONDE2-11 | 2026-08-30 07:28:11 | 52.60783 | 16.04372 | 71° | 55km/h | 5041m | -2.3m/s | -7.9°C | 7.4% | 547.5hPa | 2.6V | 00:00:00 | 00:00:00 | 00:00:00 | |
| KRY50SP-1 | 2026-08-30 07:28:10 | 52.60783 | 16.04372 | 73° | 57km/h | 5041m | -2.3m/s | -7.9°C | 7.4% | 547.5hPa | 2.6V | 00:00:00 | 00:00:00 | 00:00:00 | |
| EDDB2-12 | 2026-08-30 07:28:06 | 52.60762 | 16.04272 | 67° | 46km/h | 5051m | -2.4m/s | -7.9°C | 7.4% | 546.9hPa | 2.6V | 00:00:00 | 00:00:00 | 00:00:00 | |
| KRY50SP-1 | 2026-08-30 07:28:04 | 52.60758 | 16.04255 | 67° | 46km/h | 5054m | -2.3m/s | -7.9°C | 7.4% | 546.7hPa | 2.6V | 00:00:00 | 00:00:00 | 00:00:00 | |
| EDDB2-11 | 2026-08-30 07:27:59 | 52.60719 | 16.04150 | 55° | 55km/h | 5066m | -2.4m/s | -8.0°C | 7.4% | 545.8hPa | 2.6V | 00:00:00 | 00:00:00 | 00:00:00 | |
| SP6BVK | 2026-08-30 07:27:56 | 52.60703 | 16.04110 | 59° | 60km/h | 5071m | -1.9m/s | -8.0°C | 7.4% | 545.5hPa | 2.6V | 00:00:00 | 00:00:00 | 00:00:00 | |
| KRY50SP-1 | 2026-08-30 07:27:53 | 52.60679 | 16.04045 | 63° | 62km/h | 5078m | -2.3m/s | -8.1°C | 7.4% | 545.0hPa | 2.6V | 00:00:00 | 00:00:00 | 00:00:00 | |
| KRY50SP-1 | 2026-08-30 07:27:48 | 52.60647 | 16.03928 | 71° | 58km/h | 5089m | -2.3m/s | -8.2°C | 7.5% | 544.2hPa | 2.6V | 00:00:00 | 00:00:00 | 00:00:00 | |
| SP3BTT-10 | 2026-08-30 07:27:47 | 52.60638 | 16.03883 | 73° | 58km/h | 5094m | -2.4m/s | -8.1°C | 8.2% | 543.8hPa | 2.6V | 00:00:00 | 00:00:00 | 00:00:00 | |
| KRY50SP-1 | 2026-08-30 07:27:43 | 52.60625 | 16.03823 | 67° | 49km/h | 5101m | -2.1m/s | -8.2°C | 7.5% | 543.4hPa | 2.6V | 00:00:00 | 00:00:00 | 00:00:00 | |
| SONDE2-11 | 2026-08-30 07:27:40 | 52.60603 | 16.03750 | 59° | 49km/h | 5109m | -1.9m/s | -8.3°C | 7.5% | 542.9hPa | 2.6V | 00:00:00 | 00:00:00 | 00:00:00 | |
| KRY50SP-1 | 2026-08-30 07:27:37 | 52.60590 | 16.03714 | 57° | 53km/h | 5113m | -2.0m/s | -8.4°C | 7.5% | 542.6hPa | 2.6V | 00:00:00 | 00:00:00 | 00:00:00 | |
| EDDB2-12 | 2026-08-30 07:27:35 | 52.60566 | 16.03657 | 57° | 58km/h | 5119m | -2.0m/s | -8.4°C | 7.5% | 542.2hPa | 2.6V | 00:00:00 | 00:00:00 | 00:00:00 | |
| KRY50SP-1 | 2026-08-30 07:27:32 | 52.60549 | 16.03614 | 61° | 60km/h | 5123m | -2.3m/s | -8.4°C | 7.6% | 541.8hPa | 2.6V | 00:00:00 | 00:00:00 | 00:00:00 | |
| EDDB2-11 | 2026-08-30 07:27:28 | 52.60514 | 16.03498 | 68° | 62km/h | 5135m | -2.5m/s | -8.5°C | 7.5% | 541.1hPa | 2.6V | 00:00:00 | 00:00:00 | 00:00:00 | |
| KRY50SP-1 | 2026-08-30 07:27:27 | 52.60514 | 16.03498 | 70° | 62km/h | 5135m | -2.5m/s | -8.5°C | 7.5% | 541.1hPa | 2.6V | 00:00:00 | 00:00:00 | 00:00:00 | |
| KRY50SP-1 | 2026-08-30 07:27:21 | 52.60484 | 16.03362 | 72° | 53km/h | 5148m | -2.1m/s | -8.6°C | 7.5% | 540.2hPa | 2.6V | 00:00:00 | 00:00:00 | 00:00:00 | |
| KRY50SP-1 | 2026-08-30 07:27:16 | 52.60456 | 16.03267 | 61° | 51km/h | 5158m | -2.2m/s | -8.6°C | 7.5% | 539.4hPa | 2.6V | 00:00:00 | 00:00:00 | 00:00:00 | |
| SP6BVK | 2026-08-30 07:27:14 | 52.60442 | 16.03229 | 60° | 55km/h | 5162m | -2.2m/s | -8.7°C | 7.6% | 539.2hPa | 2.6V | 00:00:00 | 00:00:00 | 00:00:00 | |
| SP3WXH-11 | 2026-08-30 07:27:12 | 52.60419 | 16.03168 | 58° | 60km/h | 5168m | -2.1m/s | -8.7°C | 7.5% | 538.8hPa | 2.6V | 00:00:00 | 00:00:00 | 00:00:00 | |
| KRY50SP-1 | 2026-08-30 07:27:11 | 52.60419 | 16.03168 | 59° | 60km/h | 5168m | -2.1m/s | -8.7°C | 7.5% | 538.8hPa | 2.6V | 00:00:00 | 00:00:00 | 00:00:00 | |
| SONDE2-11 | 2026-08-30 07:27:09 | 52.60394 | 16.03103 | 60° | 62km/h | 5174m | -2.3m/s | -8.8°C | 7.5% | 538.3hPa | 2.6V | 00:00:00 | 00:00:00 | 00:00:00 | |
| KRY50SP-1 | 2026-08-30 07:27:05 | 52.60371 | 16.03033 | 64° | 66km/h | 5181m | -2.3m/s | -8.8°C | 7.5% | 537.8hPa | 2.6V | 00:00:00 | 00:00:00 | 00:00:00 | |
| EDDB2-12 | 2026-08-30 07:27:04 | 52.60356 | 16.02984 | 64° | 66km/h | 5185m | -2.2m/s | -8.8°C | 7.5% | 537.4hPa | 2.6V | 00:00:00 | 00:00:00 | 00:00:00 | |
| EDDB2-11 | 2026-08-30 07:26:57 | 52.60318 | 16.02816 | 71° | 55km/h | 5201m | -2.2m/s | -8.9°C | 7.8% | 536.5hPa | 2.6V | 00:00:00 | 00:00:00 | 00:00:00 | |
| KRY50SP-1 | 2026-08-30 07:26:54 | 52.60308 | 16.02775 | 67° | 51km/h | 5205m | -2.3m/s | -9.0°C | 7.8% | 536.2hPa | 2.6V | 00:00:00 | 00:00:00 | 00:00:00 | |
| SP6BVK | 2026-08-30 07:26:53 | 52.60303 | 16.02756 | 66° | 51km/h | 5208m | -2.4m/s | -9.0°C | 7.8% | 536.0hPa | 2.6V | 00:00:00 | 00:00:00 | 00:00:00 | |
| KRY50SP-1 | 2026-08-30 07:26:48 | 52.60270 | 16.02658 | 60° | 58km/h | 5219m | -2.3m/s | -9.1°C | 8.0% | 535.2hPa | 2.6V | 00:00:00 | 00:00:00 | 00:00:00 | |
| KRY50SP-1 | 2026-08-30 07:26:43 | 52.60229 | 16.02546 | 62° | 66km/h | 5229m | -2.2m/s | -9.2°C | 8.1% | 534.5hPa | 2.6V | 00:00:00 | 00:00:00 | 00:00:00 | |
| SP3WXH-11 | 2026-08-30 07:26:41 | 52.60205 | 16.02472 | 64° | 68km/h | 5235m | -2.3m/s | -9.2°C | 8.1% | 534.1hPa | 2.6V | 00:00:00 | 00:00:00 | 00:00:00 | |
| SONDE2-11 | 2026-08-30 07:26:38 | 52.60184 | 16.02394 | 69° | 66km/h | 5242m | -2.5m/s | -9.3°C | 8.1% | 533.6hPa | 2.6V | 00:00:00 | 00:00:00 | 00:00:00 | |
| KRY50SP-1 | 2026-08-30 07:26:37 | 52.60184 | 16.02394 | 71° | 68km/h | 5242m | -2.5m/s | -9.3°C | 8.1% | 533.6hPa | 2.6V | 00:00:00 | 00:00:00 | 00:00:00 | |
| EDDB2-12 | 2026-08-30 07:26:33 | 52.60160 | 16.02269 | 72° | 57km/h | 5254m | -2.5m/s | -9.4°C | 8.1% | 532.8hPa | 2.6V | 00:00:00 | 00:00:00 | 00:00:00 | |
| KRY50SP-1 | 2026-08-30 07:26:31 | 52.60155 | 16.02246 | 73° | 55km/h | 5256m | -2.5m/s | -9.4°C | 8.2% | 532.7hPa | 2.6V | 00:00:00 | 00:00:00 | 00:00:00 | |
| EDDB2-11 | 2026-08-30 07:26:26 | 52.60118 | 16.02127 | 55° | 58km/h | 5269m | -2.3m/s | -9.6°C | 8.2% | 531.8hPa | 2.6V | 00:00:00 | 00:00:00 | 00:00:00 | |
| KRY50SP-1 | 2026-08-30 07:26:25 | 52.60118 | 16.02127 | 57° | 58km/h | 5269m | -2.3m/s | -9.6°C | 8.3% | 531.8hPa | 2.6V | 00:00:00 | 00:00:00 | 00:00:00 | |
| KRY50SP-1 | 2026-08-30 07:26:19 | 52.60069 | 16.01990 | 65° | 68km/h | 5281m | -1.8m/s | -9.7°C | 8.4% | 530.8hPa | 2.6V | 00:00:00 | 00:00:00 | 00:00:00 | |
| SP3BTT-10 | 2026-08-30 07:26:16 | 52.60044 | 16.01890 | 72° | 60km/h | 5289m | -2.3m/s | -9.7°C | 9.4% | 530.3hPa | 2.6V | 00:00:00 | 00:00:00 | 00:00:00 | |
| KRY50SP-1 | 2026-08-30 07:26:14 | 52.60040 | 16.01866 | 72° | 60km/h | 5291m | -2.1m/s | -9.7°C | 8.6% | 530.1hPa | 2.6V | 00:00:00 | 00:00:00 | 00:00:00 | |
| SP6BVK | 2026-08-30 07:26:12 | 52.60030 | 16.01820 | 73° | 57km/h | 5295m | -2.2m/s | -9.8°C | 8.6% | 529.9hPa | 2.6V | 00:00:00 | 00:00:00 | 00:00:00 | |
| SP3WXH-11 | 2026-08-30 07:26:10 | 52.60017 | 16.01755 | 69° | 51km/h | 5302m | -2.2m/s | -9.8°C | 8.7% | 529.4hPa | 2.6V | 00:00:00 | 00:00:00 | 00:00:00 | |
| KRY50SP-1 | 2026-08-30 07:26:08 | 52.60012 | 16.01735 | 69° | 51km/h | 5304m | -2.1m/s | -9.8°C | 8.8% | 529.3hPa | 2.6V | 00:00:00 | 00:00:00 | 00:00:00 | |
| SONDE2-11 | 2026-08-30 07:26:07 | 52.60002 | 16.01695 | 66° | 51km/h | 5309m | -2.2m/s | -9.9°C | 8.9% | 528.9hPa | 2.6V | 00:00:00 | 00:00:00 | 00:00:00 | |
| EDDB2-12 | 2026-08-30 07:26:02 | 52.59972 | 16.01600 | 56° | 55km/h | 5319m | -2.4m/s | -9.9°C | 9.4% | 528.3hPa | 2.6V | 00:00:00 | 00:00:00 | 00:00:00 | |
| EDDB2-11 | 2026-08-30 07:25:55 | 52.59917 | 16.01449 | 65° | 64km/h | 5333m | -1.9m/s | -10.0°C | 9.2% | 527.3hPa | 2.6V | 00:00:00 | 00:00:00 | 00:00:00 | |
| KRY50SP-1 | 2026-08-30 07:25:51 | 52.59899 | 16.01377 | 72° | 60km/h | 5339m | -1.9m/s | -10.0°C | 9.2% | 526.9hPa | 2.6V | 00:00:00 | 00:00:00 | 00:00:00 | |
| SP6BVK | 2026-08-30 07:25:47 | 52.59881 | 16.01285 | 74° | 53km/h | 5347m | -2.2m/s | -10.1°C | 9.3% | 526.4hPa | 2.6V | 00:00:00 | 00:00:00 | 00:00:00 | |
| SP3BTT-10 | 2026-08-30 07:25:46 | 52.59872 | 16.01244 | 70° | 51km/h | 5351m | -2.3m/s | -10.1°C | 10.3% | 526.1hPa | 2.6V | 00:00:00 | 00:00:00 | 00:00:00 | |
| KRY50SP-1 | 2026-08-30 07:25:41 | 52.59853 | 16.01168 | 64° | 49km/h | 5360m | -2.0m/s | -10.2°C | 9.4% | 525.5hPa | 2.6V | 00:00:00 | 00:00:00 | 00:00:00 | |
| DB0DAN | 2026-08-30 07:25:40 | 52.59841 | 16.01132 | 59° | 49km/h | 5364m | -1.6m/s | -10.2°C | 9.3% | 525.16hPa | 2.6V | 00:00:00 | 00:00:00 | 00:00:00 | |
| SP3WXH-11 | 2026-08-30 07:25:39 | 52.59834 | 16.01114 | 55° | 51km/h | 5365m | -1.8m/s | -10.3°C | 9.3% | 525.1hPa | 2.7V | 00:00:00 | 00:00:00 | 00:00:00 | |
| SONDE2-11 | 2026-08-30 07:25:36 | 52.59810 | 16.01056 | 55° | 58km/h | 5371m | -2.0m/s | -10.3°C | 9.0% | 524.7hPa | 2.7V | 00:00:00 | 00:00:00 | 00:00:00 | |
| EDDB2-12 | 2026-08-30 07:25:31 | 52.59773 | 16.00943 | 66° | 60km/h | 5381m | -1.9m/s | -10.4°C | 8.9% | 524.0hPa | 2.7V | 00:00:00 | 00:00:00 | 00:00:00 | |
| KRY50SP-1 | 2026-08-30 07:25:30 | 52.59772 | 16.00943 | 68° | 62km/h | 5381m | -1.9m/s | -10.4°C | 8.9% | 524.0hPa | 2.7V | 00:00:00 | 00:00:00 | 00:00:00 | |
| SP6BVK | 2026-08-30 07:25:26 | 52.59751 | 16.00851 | 72° | 57km/h | 5390m | -2.2m/s | -10.4°C | 8.8% | 523.5hPa | 2.7V | 00:00:00 | 00:00:00 | 00:00:00 | |
| DB0DAN | 2026-08-30 07:25:25 | 52.59742 | 16.00809 | 72° | 51km/h | 5394m | -2.1m/s | -10.4°C | 8.9% | 523.21hPa | 2.7V | 00:00:00 | 00:00:00 | 00:00:00 | |
| KRY50SP-1 | 2026-08-30 07:25:19 | 52.59718 | 16.00714 | 65° | 46km/h | 5404m | -2.3m/s | -10.5°C | 8.8% | 522.5hPa | 2.7V | 00:00:00 | 00:00:00 | 00:00:00 | |
| SP3BTT-10 | 2026-08-30 07:25:16 | 52.59692 | 16.00645 | 57° | 57km/h | 5412m | -2.2m/s | -10.6°C | 9.8% | 521.9hPa | 2.7V | 00:00:00 | 00:00:00 | 00:00:00 | |
| KRY50SP-1 | 2026-08-30 07:25:14 | 52.59685 | 16.00627 | 54° | 55km/h | 5414m | -2.0m/s | -10.6°C | 8.8% | 521.8hPa | 2.7V | 00:00:00 | 00:00:00 | 00:00:00 | |
| DB0DAN | 2026-08-30 07:25:10 | 52.59644 | 16.00525 | 61° | 60km/h | 5425m | -2m/s | -10.7°C | 8.8% | 521.11hPa | 2.7V | 00:00:00 | 00:00:00 | 00:00:00 | |
| SP3WXH-11 | 2026-08-30 07:25:08 | 52.59630 | 16.00479 | 64° | 60km/h | 5428m | -1.6m/s | -10.8°C | 8.9% | 520.9hPa | 2.7V | 00:00:00 | 00:00:00 | 00:00:00 | |
| SP6BVK | 2026-08-30 07:25:06 | 52.59623 | 16.00456 | 67° | 60km/h | 5430m | -1.9m/s | -10.8°C | 8.9% | 520.7hPa | 2.7V | 00:00:00 | 00:00:00 | 00:00:00 | |
| SONDE2-11 | 2026-08-30 07:25:05 | 52.59612 | 16.00410 | 71° | 57km/h | 5435m | -2.4m/s | -10.8°C | 8.9% | 520.5hPa | 2.7V | 00:00:00 | 00:00:00 | 00:00:00 | |
| KRY50SP-1 | 2026-08-30 07:25:02 | 52.59603 | 16.00367 | 72° | 53km/h | 5440m | -2.2m/s | -10.9°C | 8.9% | 520.2hPa | 2.7V | 00:00:00 | 00:00:00 | 00:00:00 | |
| EDDB2-12 | 2026-08-30 07:25:00 | 52.59585 | 16.00289 | 66° | 46km/h | 5449m | -2.2m/s | -10.9°C | 8.9% | 519.6hPa | 2.7V | 00:00:00 | 00:00:00 | 00:00:00 | |
| KRY50SP-1 | 2026-08-30 07:24:56 | 52.59574 | 16.00254 | 60° | 49km/h | 5453m | -2.2m/s | -11.0°C | 8.9% | 519.3hPa | 2.7V | 00:00:00 | 00:00:00 | 00:00:00 | |
| DB0DAN | 2026-08-30 07:24:55 | 52.59560 | 16.00219 | 58° | 49km/h | 5457m | -1.8m/s | -11°C | 8.9% | 519.16hPa | 2.7V | 00:00:00 | 00:00:00 | 00:00:00 | |
| EDDB2-11 | 2026-08-30 07:24:53 | 52.59539 | 16.00162 | 56° | 55km/h | 5462m | -2.1m/s | -11.1°C | 8.9% | 518.7hPa | 2.7V | 00:00:00 | 00:00:00 | 00:00:00 | |
| KRY50SP-1 | 2026-08-30 07:24:50 | 52.59530 | 16.00142 | 58° | 58km/h | 5464m | -2.0m/s | -11.1°C | 8.9% | 518.6hPa | 2.7V | 00:00:00 | 00:00:00 | 00:00:00 | |
| SP6BVK | 2026-08-30 07:24:46 | 52.59500 | 16.00056 | 63° | 62km/h | 5472m | -2.1m/s | -11.1°C | 9.0% | 518.1hPa | 2.7V | 00:00:00 | 00:00:00 | 00:00:00 | |
| KRY50SP-1 | 2026-08-30 07:24:44 | 52.59486 | 16.00010 | 65° | 62km/h | 5475m | -2.1m/s | -11.2°C | 9.0% | 517.8hPa | 2.7V | 00:00:00 | 00:00:00 | 00:00:00 | |
| DB0DAN | 2026-08-30 07:24:40 | 52.59453 | 15.99892 | 69° | 58km/h | 5486m | -2.3m/s | -11.3°C | 9% | 517.1hPa | 2.7V | 00:00:00 | 00:00:00 | 00:00:00 | |
| KRY50SP-1 | 2026-08-30 07:24:39 | 52.59453 | 15.99892 | 70° | 62km/h | 5486m | -2.3m/s | -11.3°C | 9.0% | 517.1hPa | 2.7V | 00:00:00 | 00:00:00 | 00:00:00 | |
| SP3WXH-11 | 2026-08-30 07:24:37 | 52.59436 | 15.99820 | 69° | 60km/h | 5492m | -2.0m/s | -11.3°C | 9.0% | 516.5hPa | 2.7V | 00:00:00 | 00:00:00 | 00:00:00 | |
| SONDE2-11 | 2026-08-30 07:24:34 | 52.59421 | 15.99749 | 72° | 58km/h | 5497m | -1.8m/s | -11.4°C | 8.9% | 516.2hPa | 2.7V | 00:00:00 | 00:00:00 | 00:00:00 | |
| KRY50SP-1 | 2026-08-30 07:24:33 | 52.59421 | 15.99749 | 74° | 58km/h | 5497m | -1.8m/s | -11.4°C | 8.9% | 516.2hPa | 2.7V | 00:00:00 | 00:00:00 | 00:00:00 | |
| SP3BTT-10 | 2026-08-30 07:24:32 | 52.59412 | 15.99703 | 75° | 58km/h | 5501m | -2.3m/s | -11.4°C | 9.9% | 515.8hPa | 2.7V | 00:00:00 | 00:00:00 | 08:30:00 | |
| KRY50SP-1 | 2026-08-30 07:24:28 | 52.59401 | 15.99638 | 74° | 53km/h | 5507m | -2.5m/s | -11.5°C | 8.8% | 515.3hPa | 2.7V | 00:00:00 | 00:00:00 | 00:00:00 | |
| DB0DAN | 2026-08-30 07:24:25 | 52.59385 | 15.99559 | 67° | 46km/h | 5516m | -1.8m/s | -11.4°C | 8.6% | 514.79hPa | 2.7V | 00:00:00 | 00:00:00 | 00:00:00 | |
| SP6BVK | 2026-08-30 07:24:24 | 52.59385 | 15.99558 | 68° | 47km/h | 5516m | -1.8m/s | -11.4°C | 8.6% | 514.8hPa | 2.6V | 00:00:00 | 00:00:00 | 00:00:00 | |
| EDDB2-11 | 2026-08-30 07:24:22 | 52.59368 | 15.99503 | 61° | 51km/h | 5521m | -2.3m/s | -11.5°C | 8.5% | 514.5hPa | 2.6V | 00:00:00 | 00:00:00 | 00:00:00 | |
| KRY50SP-1 | 2026-08-30 07:24:16 | 52.59333 | 15.99397 | 66° | 64km/h | 5532m | -2.3m/s | -11.4°C | 8.5% | 513.7hPa | 2.6V | 00:00:00 | 00:00:00 | 00:00:00 | |
| DB0DAN | 2026-08-30 07:24:10 | 52.59295 | 15.99225 | 76° | 58km/h | 5548m | -2.6m/s | -11.5°C | 8.9% | 512.67hPa | 2.6V | 00:00:00 | 00:00:00 | 00:00:00 | |
| SP3WXH-11 | 2026-08-30 07:24:06 | 52.59282 | 15.99134 | 75° | 51km/h | 5557m | -2.1m/s | -11.6°C | 9.0% | 512.2hPa | 2.7V | 00:00:00 | 00:00:00 | 00:00:00 | |
| KRY50SP-1 | 2026-08-30 07:24:04 | 52.59278 | 15.99113 | 75° | 49km/h | 5559m | -2.3m/s | -11.6°C | 9.0% | 512.1hPa | 2.7V | 00:00:00 | 00:00:00 | 00:00:00 | |
| SONDE2-11 | 2026-08-30 07:24:03 | 52.59269 | 15.99074 | 67° | 51km/h | 5563m | -1.9m/s | -11.6°C | 9.1% | 511.8hPa | 2.7V | 00:00:00 | 00:00:00 | 00:00:00 | |
| EDDB2-12 | 2026-08-30 07:23:58 | 52.59239 | 15.98974 | 63° | 57km/h | 5573m | -2.3m/s | -11.7°C | 9.2% | 511.2hPa | 2.7V | 00:00:00 | 00:00:00 | 00:00:00 | |
| DB0DAN | 2026-08-30 07:23:55 | 52.59218 | 15.98907 | 64° | 58km/h | 5579m | -2.2m/s | -11.7°C | 9.3% | 510.78hPa | 2.7V | 00:00:00 | 00:00:00 | 00:00:00 | |
| EDDB2-11 | 2026-08-30 07:23:51 | 52.59190 | 15.98812 | 66° | 66km/h | 5586m | -2.1m/s | -11.8°C | 9.6% | 510.2hPa | 2.7V | 00:00:00 | 00:00:00 | 00:00:00 | |
| SP3BTT-10 | 2026-08-30 07:23:49 | 52.59177 | 15.98762 | 69° | 58km/h | 5590m | -1.8m/s | -11.8°C | 10.6% | 509.9hPa | 2.7V | 00:00:00 | 00:00:00 | 00:00:00 | |
| KRY50SP-1 | 2026-08-30 07:23:46 | 52.59166 | 15.98710 | 74° | 68km/h | 5594m | -2.3m/s | -11.9°C | 9.4% | 509.6hPa | 2.7V | 00:00:00 | 00:00:00 | 00:00:00 | |
| SP6BVK | 2026-08-30 07:23:43 | 52.59152 | 15.98632 | 78° | 64km/h | 5600m | -2.5m/s | -11.9°C | 9.5% | 509.3hPa | 2.7V | 00:00:00 | 00:00:00 | 00:00:00 | |
| DB0DAN | 2026-08-30 07:23:40 | 52.59139 | 15.98534 | 78° | 53km/h | 5608m | -2.4m/s | -12°C | 9.6% | 508.66hPa | 2.7V | 00:00:00 | 00:00:00 | 00:00:00 | |
| SP3WXH-11 | 2026-08-30 07:23:35 | 52.59120 | 15.98431 | 65° | 51km/h | 5620m | -1.8m/s | -12.1°C | 9.7% | 507.9hPa | 2.7V | 00:00:00 | 00:00:00 | 00:00:00 | |
| SONDE2-11 | 2026-08-30 07:23:32 | 52.59102 | 15.98370 | 64° | 57km/h | 5626m | -2.1m/s | -12.2°C | 9.8% | 507.4hPa | 2.7V | 00:00:00 | 00:00:00 | 00:00:00 | |
| KRY50SP-1 | 2026-08-30 07:23:29 | 52.59090 | 15.98324 | 67° | 62km/h | 5631m | -2.2m/s | -12.2°C | 9.8% | 507.3hPa | 2.7V | 00:00:00 | 00:00:00 | 00:00:00 | |
| DB0DAN | 2026-08-30 07:23:25 | 52.59059 | 15.98200 | 70° | 62km/h | 5641m | -1.8m/s | -12.3°C | 9.9% | 506.55hPa | 2.7V | 00:00:00 | 00:00:00 | 00:00:00 | |
| KRY50SP-1 | 2026-08-30 07:23:23 | 52.59054 | 15.98173 | 75° | 66km/h | 5642m | -2.2m/s | -12.4°C | 9.9% | 506.5hPa | 2.6V | 00:00:00 | 00:00:00 | 00:00:00 | |
| SP6BVK | 2026-08-30 07:23:22 | 52.59049 | 15.98147 | 74° | 66km/h | 5645m | -1.9m/s | -12.4°C | 9.9% | 506.4hPa | 2.6V | 00:00:00 | 00:00:00 | 00:00:00 | |
| EDDB2-11 | 2026-08-30 07:23:20 | 52.59033 | 15.98044 | 78° | 60km/h | 5653m | -2.4m/s | -12.5°C | 9.9% | 505.7hPa | 2.6V | 00:00:00 | 00:00:00 | 00:00:00 | |
| KRY50SP-1 | 2026-08-30 07:23:17 | 52.59030 | 15.98019 | 81° | 62km/h | 5655m | -2.4m/s | -12.5°C | 10.1% | 505.5hPa | 2.6V | 00:00:00 | 00:00:00 | 00:00:00 | |
| KRY50SP-1 | 2026-08-30 07:23:12 | 52.59018 | 15.97902 | 79° | 53km/h | 5666m | -2.4m/s | -12.6°C | 10.3% | 504.9hPa | 2.6V | 00:00:00 | 00:00:00 | 00:00:00 | |
| DB0DAN | 2026-08-30 07:23:10 | 52.59007 | 15.97841 | 71° | 49km/h | 5673m | -1.9m/s | -12.6°C | 10.4% | 504.49hPa | 2.6V | 00:00:00 | 00:00:00 | 00:00:00 | |
| KRY50SP-1 | 2026-08-30 07:23:06 | 52.58992 | 15.97780 | 66° | 57km/h | 5679m | -2.1m/s | -12.7°C | 10.5% | 504.1hPa | 2.7V | 00:00:00 | 00:00:00 | 00:00:00 | |
| SP3WXH-11 | 2026-08-30 07:23:04 | 52.58973 | 15.97712 | 65° | 62km/h | 5685m | -2.3m/s | -12.7°C | 10.5% | 503.7hPa | 2.7V | 00:00:00 | 00:00:00 | 00:00:00 | |
| KRY50SP-1 | 2026-08-30 07:23:01 | 52.58961 | 15.97663 | 72° | 66km/h | 5689m | -2.1m/s | -12.8°C | 10.5% | 503.4hPa | 2.7V | 00:00:00 | 00:00:00 | 00:00:00 | |
| EDDB2-12 | 2026-08-30 07:22:56 | 52.58935 | 15.97484 | 79° | 58km/h | 5703m | -2.1m/s | -12.9°C | 10.7% | 502.5hPa | 2.7V | 00:00:00 | 00:00:00 | 00:00:00 | |
| DB0DAN | 2026-08-30 07:22:55 | 52.58935 | 15.97484 | 80° | 57km/h | 5703m | -2.1m/s | -12.9°C | 10.7% | 502.48hPa | 2.7V | 00:00:00 | 00:00:00 | 00:00:00 | |
| EDDB2-11 | 2026-08-30 07:22:49 | 52.58912 | 15.97333 | 70° | 51km/h | 5718m | -2.1m/s | -13.0°C | 11.2% | 501.6hPa | 2.7V | 00:00:00 | 00:00:00 | 00:00:00 | |
| SP3BTT-10 | 2026-08-30 07:22:48 | 52.58912 | 15.97333 | 71° | 60km/h | 5718m | -2.0m/s | -12.9°C | 12.5% | 501.5hPa | 2.7V | 00:00:00 | 00:00:00 | 00:00:00 | |
| KRY50SP-1 | 2026-08-30 07:22:45 | 52.58902 | 15.97292 | 69° | 53km/h | 5722m | -2.1m/s | -13.0°C | 11.6% | 501.3hPa | 2.7V | 00:00:00 | 00:00:00 | 00:00:00 | |
| DB0DAN | 2026-08-30 07:22:40 | 52.58867 | 15.97160 | 67° | 60km/h | 5735m | -2.2m/s | -13.2°C | 11.8% | 500.35hPa | 2.7V | 00:00:00 | 00:00:00 | 00:00:00 | |
| KRY50SP-1 | 2026-08-30 07:22:39 | 52.58867 | 15.97160 | 68° | 62km/h | 5735m | -2.2m/s | -13.2°C | 11.8% | 500.4hPa | 2.6V | 00:00:00 | 00:00:00 | 00:00:00 | |
| KRY50SP-1 | 2026-08-30 07:22:34 | 52.58838 | 15.97033 | 75° | 66km/h | 5746m | -2.3m/s | -13.2°C | 12.0% | 499.7hPa | 2.6V | 00:00:00 | 00:00:00 | 00:00:00 | |
| SP3WXH-11 | 2026-08-30 07:22:33 | 52.58830 | 15.96981 | 76° | 64km/h | 5750m | -2.2m/s | -13.3°C | 11.9% | 499.5hPa | 2.6V | 00:00:00 | 00:00:00 | 00:00:00 | |
| SONDE2-11 | 2026-08-30 07:22:30 | 52.58819 | 15.96907 | 76° | 57km/h | 5756m | -1.8m/s | -13.3°C | 12.1% | 499.1hPa | 2.6V | 00:00:00 | 00:00:00 | 00:00:00 | |
| KRY50SP-1 | 2026-08-30 07:22:28 | 52.58816 | 15.96884 | 77° | 57km/h | 5759m | -2.0m/s | -13.3°C | 12.1% | 498.9hPa | 2.6V | 00:00:00 | 00:00:00 | 00:00:00 | |
| DB0DAN | 2026-08-30 07:22:25 | 52.58800 | 15.96798 | 69° | 51km/h | 5767m | -2.1m/s | -13.4°C | 12.5% | 498.46hPa | 2.6V | 00:00:00 | 00:00:00 | 00:00:00 | |
| EDDB2-12 | 2026-08-30 07:22:25 | 52.58795 | 15.96777 | 69° | 53km/h | 5769m | -1.8m/s | -13.4°C | 12.5% | 498.3hPa | 2.7V | 00:00:00 | 00:00:00 | 00:00:00 | |
| KRY50SP-1 | 2026-08-30 07:22:22 | 52.58790 | 15.96756 | 69° | 53km/h | 5771m | -2.0m/s | -13.4°C | 12.6% | 498.2hPa | 2.7V | 00:00:00 | 00:00:00 | 00:00:00 | |
| SP6BVK | 2026-08-30 07:22:19 | 52.58774 | 15.96695 | 65° | 55km/h | 5777m | -2.0m/s | -13.5°C | 12.6% | 497.7hPa | 2.7V | 00:00:00 | 00:00:00 | 00:00:00 | |
| KRY50SP-1 | 2026-08-30 07:22:17 | 52.58761 | 15.96653 | 64° | 58km/h | 5781m | -2.1m/s | -13.5°C | 12.5% | 497.5hPa | 2.7V | 00:00:00 | 00:00:00 | 00:00:00 | |
| KRY50SP-1 | 2026-08-30 07:22:12 | 52.58727 | 15.96537 | 68° | 66km/h | 5792m | -2.0m/s | -13.5°C | 12.0% | 496.8hPa | 2.7V | 00:00:00 | 00:00:00 | 00:00:00 | |
| DB0DAN | 2026-08-30 07:22:10 | 52.58709 | 15.96459 | 72° | 64km/h | 5798m | -1.9m/s | -13.5°C | 12.8% | 496.35hPa | 2.7V | 00:00:00 | 00:00:00 | 00:00:00 | |
| KRY50SP-1 | 2026-08-30 07:22:07 | 52.58699 | 15.96406 | 76° | 66km/h | 5803m | -2.1m/s | -13.6°C | 13.0% | 496.1hPa | 2.7V | 00:00:00 | 00:00:00 | 00:00:00 | |
| SP3WXH-11 | 2026-08-30 07:22:02 | 52.58677 | 15.96264 | 72° | 53km/h | 5816m | -2.0m/s | -13.6°C | 13.5% | 495.2hPa | 2.7V | 00:00:00 | 00:00:00 | 00:00:00 | |
| SONDE2-11 | 2026-08-30 07:21:59 | 52.58662 | 15.96201 | 66° | 55km/h | 5822m | -2.2m/s | -13.7°C | 13.7% | 494.8hPa | 2.7V | 00:00:00 | 00:00:00 | 00:00:00 | |
| SP6BVK | 2026-08-30 07:21:58 | 52.58662 | 15.96201 | 67° | 55km/h | 5822m | -2.2m/s | -13.7°C | 13.7% | 494.8hPa | 2.7V | 00:00:00 | 00:00:00 | 00:00:00 | |
| KRY50SP-1 | 2026-08-30 07:21:56 | 52.58649 | 15.96159 | 65° | 58km/h | 5826m | -2.3m/s | -13.7°C | 13.7% | 494.5hPa | 2.7V | 00:00:00 | 00:00:00 | 00:00:00 | |
| DB0DAN | 2026-08-30 07:21:55 | 52.58636 | 15.96114 | 64° | 58km/h | 5831m | -2.3m/s | -13.7°C | 13.8% | 494.21hPa | 2.7V | 00:00:00 | 00:00:00 | 00:00:00 | |
| EDDB2-12 | 2026-08-30 07:21:54 | 52.58621 | 15.96066 | 64° | 66km/h | 5835m | -2.1m/s | -13.7°C | 13.9% | 494.0hPa | 2.6V | 00:00:00 | 00:00:00 | 00:00:00 | |
| EDDB2-11 | 2026-08-30 07:21:47 | 52.58580 | 15.95881 | 73° | 64km/h | 5849m | -1.9m/s | -13.9°C | 14.3% | 493.0hPa | 2.6V | 00:00:00 | 00:00:00 | 00:00:00 | |
| KRY50SP-1 | 2026-08-30 07:21:45 | 52.58580 | 15.95881 | 75° | 66km/h | 5849m | -1.9m/s | -13.9°C | 14.3% | 493.0hPa | 2.6V | 00:00:00 | 00:00:00 | 00:00:00 | |
| DB0DAN | 2026-08-30 07:21:40 | 52.58556 | 15.95737 | 73° | 53km/h | 5862m | -2m/s | -14°C | 14.3% | 492.12hPa | 2.6V | 00:00:00 | 00:00:00 | 00:00:00 | |
| KRY50SP-1 | 2026-08-30 07:21:39 | 52.58556 | 15.95737 | 74° | 57km/h | 5862m | -2.0m/s | -14.0°C | 14.3% | 492.1hPa | 2.7V | 00:00:00 | 00:00:00 | 00:00:00 | |
| SP6BVK | 2026-08-30 07:21:38 | 52.58552 | 15.95716 | 72° | 55km/h | 5864m | -2.3m/s | -14.0°C | 14.4% | 492.0hPa | 2.7V | 00:00:00 | 00:00:00 | 00:00:00 | |
| KRY50SP-1 | 2026-08-30 07:21:33 | 52.58523 | 15.95609 | 64° | 58km/h | 5875m | -2.3m/s | -14.1°C | 14.5% | 491.2hPa | 2.7V | 00:00:00 | 00:00:00 | 00:00:00 | |
| SP3WXH-11 | 2026-08-30 07:21:31 | 52.58501 | 15.95540 | 63° | 66km/h | 5881m | -1.8m/s | -14.2°C | 14.6% | 490.9hPa | 2.7V | 00:00:00 | 00:00:00 | 00:00:00 | |
| SONDE2-11 | 2026-08-30 07:21:28 | 52.58480 | 15.95464 | 66° | 68km/h | 5888m | -2.1m/s | -14.2°C | 14.8% | 490.4hPa | 2.7V | 00:00:00 | 00:00:00 | 00:00:00 | |
| KRY50SP-1 | 2026-08-30 07:21:27 | 52.58480 | 15.95464 | 68° | 69km/h | 5888m | -2.1m/s | -14.2°C | 14.8% | 490.4hPa | 2.7V | 00:00:00 | 00:00:00 | 00:00:00 | |
| DB0DAN | 2026-08-30 07:21:25 | 52.58461 | 15.95383 | 72° | 66km/h | 5895m | -2.2m/s | -14.3°C | 14.9% | 490.01hPa | 2.7V | 00:00:00 | 00:00:00 | 00:00:00 | |
| EDDB2-12 | 2026-08-30 07:21:22 | 52.58446 | 15.95302 | 75° | 64km/h | 5902m | -2.2m/s | -14.4°C | 15.1% | 489.4hPa | 2.7V | 00:00:00 | 00:00:00 | 00:00:00 | |
| KRY50SP-1 | 2026-08-30 07:21:21 | 52.58446 | 15.95302 | 76° | 66km/h | 5902m | -2.2m/s | -14.4°C | 15.1% | 489.4hPa | 2.7V | 00:00:00 | 00:00:00 | 00:00:00 | |
| SP6BVK | 2026-08-30 07:21:17 | 52.58430 | 15.95203 | 74° | 57km/h | 5910m | -2.3m/s | -14.4°C | 15.2% | 489.0hPa | 2.7V | 00:00:00 | 00:00:00 | 00:00:00 | |
| KRY50SP-1 | 2026-08-30 07:21:15 | 52.58422 | 15.95159 | 71° | 57km/h | 5914m | -2.0m/s | -14.5°C | 15.3% | 488.7hPa | 2.7V | 00:00:00 | 00:00:00 | 00:00:00 | |
| KRY50SP-1 | 2026-08-30 07:21:10 | 52.58391 | 15.95050 | 64° | 62km/h | 5925m | -2.2m/s | -14.6°C | 15.5% | 488.1hPa | 2.7V | 00:00:00 | 00:00:00 | 00:00:00 | |
| KRY50SP-1 | 2026-08-30 07:21:04 | 52.58347 | 15.94900 | 70° | 71km/h | 5939m | -2.2m/s | -14.7°C | 15.5% | 487.1hPa | 2.7V | 00:00:00 | 00:00:00 | 00:00:00 | |
| SP3WXH-11 | 2026-08-30 07:21:00 | 52.58321 | 15.94763 | 74° | 66km/h | 5949m | -2.2m/s | -14.8°C | 15.6% | 486.5hPa | 2.7V | 00:00:00 | 00:00:00 | 00:00:00 | |
| SONDE2-11 | 2026-08-30 07:20:57 | 52.58308 | 15.94686 | 75° | 60km/h | 5956m | -1.8m/s | -14.9°C | 15.6% | 486.1hPa | 2.7V | 00:00:00 | 00:00:00 | 00:00:00 | |
| EDDB2-12 | 2026-08-30 07:20:51 | 52.58279 | 15.94551 | 64° | 58km/h | 5970m | -2.1m/s | -15.0°C | 15.8% | 485.2hPa | 2.7V | 00:00:00 | 00:00:00 | 00:00:00 | |
| EDDB2-11 | 2026-08-30 07:20:45 | 52.58229 | 15.94380 | 67° | 69km/h | 5984m | -2.4m/s | -15.1°C | 16.0% | 484.2hPa | 2.7V | 00:00:00 | 00:00:00 | 00:00:00 | |
| KRY50SP-1 | 2026-08-30 07:20:41 | 52.58215 | 15.94326 | 70° | 71km/h | 5989m | -2.2m/s | -15.2°C | 16.2% | 484.0hPa | 2.7V | 00:00:00 | 00:00:00 | 00:00:00 | |
| KRY50SP-1 | 2026-08-30 07:20:36 | 52.58189 | 15.94189 | 77° | 64km/h | 5999m | -2.3m/s | -15.3°C | 16.2% | 483.2hPa | 2.7V | 00:00:00 | 00:00:00 | 00:00:00 | |
| KRY50SP-1 | 2026-08-30 07:20:30 | 52.58163 | 15.94046 | 70° | 58km/h | 6012m | -2.0m/s | -15.4°C | 16.1% | 482.5hPa | 2.7V | 00:00:00 | 00:00:00 | 00:00:00 | |
| SP3WXH-11 | 2026-08-30 07:20:29 | 52.58152 | 15.94002 | 64° | 58km/h | 6016m | -2.1m/s | -15.4°C | 16.0% | 482.1hPa | 2.7V | 00:00:00 | 00:00:00 | 00:00:00 | |
| SONDE2-11 | 2026-08-30 07:20:26 | 52.58123 | 15.93911 | 62° | 66km/h | 6025m | -2.0m/s | -15.5°C | 16.1% | 481.6hPa | 2.7V | 00:00:00 | 00:00:00 | 00:00:00 | |
| KRY50SP-1 | 2026-08-30 07:20:24 | 52.58123 | 15.93910 | 64° | 66km/h | 6025m | -2.0m/s | -15.5°C | 16.1% | 481.6hPa | 2.7V | 00:00:00 | 00:00:00 | 00:00:00 | |
| EDDB2-12 | 2026-08-30 07:20:20 | 52.58084 | 15.93781 | 67° | 71km/h | 6036m | -2.2m/s | -15.6°C | 16.3% | 481.0hPa | 2.7V | 00:00:00 | 00:00:00 | 00:00:00 | |
| KRY50SP-1 | 2026-08-30 07:20:19 | 52.58084 | 15.93781 | 68° | 73km/h | 6036m | -2.2m/s | -15.6°C | 16.3% | 481.0hPa | 2.7V | 00:00:00 | 00:00:00 | 00:00:00 | |
| SP6BVK | 2026-08-30 07:20:15 | 52.58061 | 15.93669 | 75° | 69km/h | 6044m | -2.3m/s | -15.7°C | 16.3% | 480.3hPa | 2.7V | 00:00:00 | 00:00:00 | 00:00:00 | |
| KRY50SP-1 | 2026-08-30 07:20:13 | 52.58052 | 15.93616 | 77° | 64km/h | 6049m | -2.3m/s | -15.7°C | 16.5% | 480.1hPa | 2.7V | 00:00:00 | 00:00:00 | 00:00:00 | |
| KRY50SP-1 | 2026-08-30 07:20:07 | 52.58023 | 15.93475 | 66° | 58km/h | 6062m | -2.1m/s | -15.9°C | 16.9% | 479.3hPa | 2.7V | 00:00:00 | 00:00:00 | 00:00:00 | |
| KRY50SP-1 | 2026-08-30 07:20:01 | 52.57981 | 15.93338 | 64° | 68km/h | 6075m | -1.9m/s | -16.0°C | 17.1% | 478.5hPa | 2.7V | 00:00:00 | 00:00:00 | 00:00:00 | |
| SP3WXH-11 | 2026-08-30 07:19:58 | 52.57951 | 15.93232 | 67° | 71km/h | 6084m | -2.2m/s | -16.1°C | 17.1% | 477.9hPa | 2.7V | 00:00:00 | 00:00:00 | 00:00:00 | |
| SONDE2-11 | 2026-08-30 07:19:55 | 52.57927 | 15.93119 | 74° | 69km/h | 6092m | -2.5m/s | -16.2°C | 17.0% | 477.4hPa | 2.7V | 00:00:00 | 00:00:00 | 00:00:00 | |
| SP6BVK | 2026-08-30 07:19:54 | 52.57932 | 15.93147 | 74° | 71km/h | 6090m | -2.1m/s | -16.1°C | 17.0% | 477.4hPa | 2.7V | 00:00:00 | 00:00:00 | 00:00:00 | |
| KRY50SP-1 | 2026-08-30 07:19:49 | 52.57910 | 15.93015 | 75° | 62km/h | 6101m | -2.2m/s | -16.2°C | 17.1% | 476.8hPa | 2.7V | 00:00:00 | 00:00:00 | 00:00:00 | |
| SP3BTT-10 | 2026-08-30 07:19:48 | 52.57901 | 15.92968 | 70° | 62km/h | 6105m | -2.0m/s | -16.2°C | 19.3% | 476.5hPa | 2.7V | 00:00:00 | 00:00:00 | 00:00:00 | |
| KRY50SP-1 | 2026-08-30 07:19:44 | 52.57876 | 15.92880 | 64° | 58km/h | 6112m | -2.1m/s | -16.3°C | 17.2% | 476.0hPa | 2.7V | 00:00:00 | 00:00:00 | 00:00:00 | |
| EDDB2-11 | 2026-08-30 07:19:42 | 52.57862 | 15.92835 | 61° | 60km/h | 6117m | -2.2m/s | -16.4°C | 17.2% | 475.7hPa | 2.7V | 00:00:00 | 00:00:00 | 00:00:00 | |
| KRY50SP-1 | 2026-08-30 07:19:37 | 52.57831 | 15.92736 | 64° | 71km/h | 6126m | -2.1m/s | -16.4°C | 17.2% | 475.3hPa | 2.7V | 00:00:00 | 00:00:00 | 00:00:00 | |
| SP6BVK | 2026-08-30 07:19:34 | 52.57809 | 15.92654 | 71° | 73km/h | 6132m | -2.1m/s | -16.5°C | 17.4% | 474.8hPa | 2.7V | 00:00:00 | 00:00:00 | 00:00:00 | |
| KRY50SP-1 | 2026-08-30 07:19:32 | 52.57792 | 15.92570 | 75° | 68km/h | 6138m | -2.4m/s | -16.6°C | 17.5% | 474.4hPa | 2.7V | 00:00:00 | 00:00:00 | 00:00:00 | |
| SP3WXH-11 | 2026-08-30 07:19:27 | 52.57769 | 15.92446 | 69° | 57km/h | 6148m | -2.2m/s | -16.7°C | 17.8% | 473.7hPa | 2.7V | 00:00:00 | 00:00:00 | 00:00:00 | |
| KRY50SP-1 | 2026-08-30 07:19:25 | 52.57764 | 15.92423 | 70° | 57km/h | 6151m | -2.1m/s | -16.7°C | 17.8% | 473.6hPa | 2.7V | 00:00:00 | 00:00:00 | 00:00:00 | |
| SONDE2-11 | 2026-08-30 07:19:24 | 52.57746 | 15.92357 | 63° | 58km/h | 6157m | -2.2m/s | -16.8°C | 17.9% | 473.2hPa | 2.7V | 00:00:00 | 00:00:00 | 00:00:00 | |
| KRY50SP-1 | 2026-08-30 07:19:20 | 52.57731 | 15.92312 | 63° | 62km/h | 6161m | -2.1m/s | -16.8°C | 17.9% | 472.9hPa | 2.7V | 00:00:00 | 00:00:00 | 00:00:00 | |
| EDDB2-12 | 2026-08-30 07:19:18 | 52.57708 | 15.92242 | 61° | 66km/h | 6167m | -1.9m/s | -16.8°C | 17.9% | 472.6hPa | 2.7V | 00:00:00 | 00:00:00 | 00:00:00 | |
| KRY50SP-1 | 2026-08-30 07:19:15 | 52.57692 | 15.92191 | 65° | 69km/h | 6171m | -2.1m/s | -16.9°C | 18.0% | 472.3hPa | 2.7V | 00:00:00 | 00:00:00 | 00:00:00 | |
| SP6BVK | 2026-08-30 07:19:13 | 52.57677 | 15.92137 | 68° | 71km/h | 6176m | -2.0m/s | -16.9°C | 18.0% | 472.1hPa | 2.7V | 00:00:00 | 00:00:00 | 00:00:00 | |
| EDDB2-11 | 2026-08-30 07:19:11 | 52.57658 | 15.92054 | 70° | 69km/h | 6181m | -2.1m/s | -17.0°C | 18.1% | 471.7hPa | 2.7V | 00:00:00 | 00:00:00 | 00:00:00 | |
| KRY50SP-1 | 2026-08-30 07:19:09 | 52.57652 | 15.92026 | 73° | 69km/h | 6183m | -2.0m/s | -17.0°C | 18.1% | 471.5hPa | 2.7V | 00:00:00 | 00:00:00 | 00:00:00 | |
| KRY50SP-1 | 2026-08-30 07:19:03 | 52.57624 | 15.91875 | 73° | 58km/h | 6196m | -2.1m/s | -17.1°C | 18.3% | 470.8hPa | 2.7V | 00:00:00 | 00:00:00 | 00:00:00 | |
| SP3WXH-11 | 2026-08-30 07:18:56 | 52.57580 | 15.91700 | 61° | 58km/h | 6213m | -2.0m/s | -17.3°C | 18.3% | 469.8hPa | 2.7V | 00:00:00 | 00:00:00 | 00:00:00 | |
| SONDE2-11 | 2026-08-30 07:18:53 | 52.57549 | 15.91607 | 63° | 68km/h | 6221m | -1.9m/s | -17.3°C | 18.6% | 469.4hPa | 2.7V | 00:00:00 | 00:00:00 | 00:00:00 | |
| EDDB2-12 | 2026-08-30 07:18:48 | 52.57515 | 15.91473 | 71° | 69km/h | 6230m | -2.2m/s | -17.4°C | 18.5% | 468.7hPa | 2.7V | 00:00:00 | 00:00:00 | 00:00:00 | |
| KRY50SP-1 | 2026-08-30 07:18:47 | 52.57521 | 15.91500 | 70° | 69km/h | 6229m | -2.3m/s | -17.4°C | 18.4% | 468.8hPa | 2.7V | 00:00:00 | 00:00:00 | 00:00:00 | |
| KRY50SP-1 | 2026-08-30 07:18:41 | 52.57491 | 15.91341 | 77° | 62km/h | 6240m | -2.2m/s | -17.5°C | 18.5% | 468.0hPa | 2.7V | 00:00:00 | 00:00:00 | 00:00:00 | |
| EDDB2-11 | 2026-08-30 07:18:40 | 52.57483 | 15.91293 | 74° | 57km/h | 6244m | -2.0m/s | -17.6°C | 18.4% | 467.8hPa | 2.7V | 00:00:00 | 00:00:00 | 00:00:00 | |
| KRY50SP-1 | 2026-08-30 07:18:36 | 52.57469 | 15.91228 | 68° | 55km/h | 6251m | -2.1m/s | -17.6°C | 18.5% | 467.4hPa | 2.7V | 00:00:00 | 00:00:00 | 00:00:00 | |
| KRY50SP-1 | 2026-08-30 07:18:31 | 52.57435 | 15.91119 | 62° | 64km/h | 6261m | -1.7m/s | -17.7°C | 18.8% | 466.8hPa | 2.7V | 00:00:00 | 00:00:00 | 00:00:00 | |
| SP6BVK | 2026-08-30 07:18:30 | 52.57427 | 15.91096 | 63° | 66km/h | 6263m | -2.2m/s | -17.7°C | 18.8% | 466.6hPa | 2.7V | 00:00:00 | 00:00:00 | 00:00:00 | |
| KRY50SP-1 | 2026-08-30 07:18:26 | 52.57399 | 15.90992 | 71° | 69km/h | 6270m | -2.1m/s | -17.8°C | 18.8% | 466.3hPa | 2.7V | 00:00:00 | 00:00:00 | 00:00:00 | |
| KRY50SP-1 | 2026-08-30 07:18:21 | 52.57375 | 15.90860 | 77° | 62km/h | 6280m | -1.7m/s | -17.8°C | 18.8% | 465.6hPa | 2.7V | 00:00:00 | 00:00:00 | 00:00:00 | |
| EDDB2-12 | 2026-08-30 07:18:16 | 52.57350 | 15.90724 | 69° | 55km/h | 6292m | -1.5m/s | -17.9°C | 18.8% | 464.9hPa | 2.7V | 00:00:00 | 00:00:00 | 00:00:00 | |
| KRY50SP-1 | 2026-08-30 07:18:15 | 52.57350 | 15.90724 | 70° | 55km/h | 6292m | -1.5m/s | -17.9°C | 18.8% | 464.9hPa | 2.7V | 00:00:00 | 00:00:00 | 00:00:00 | |
| SP6BVK | 2026-08-30 07:18:10 | 52.57319 | 15.90619 | 63° | 62km/h | 6301m | -1.7m/s | -18.0°C | 19.0% | 464.3hPa | 2.7V | 00:00:00 | 00:00:00 | 00:00:00 | |
| KRY50SP-1 | 2026-08-30 07:18:09 | 52.57312 | 15.90596 | 63° | 62km/h | 6303m | -2.0m/s | -18.0°C | 18.8% | 464.1hPa | 2.7V | 00:00:00 | 00:00:00 | 00:00:00 | |
| KRY50SP-1 | 2026-08-30 07:18:03 | 52.57271 | 15.90446 | 71° | 66km/h | 6314m | -2.0m/s | -18.1°C | 18.7% | 463.4hPa | 2.7V | 00:00:00 | 00:00:00 | 00:00:00 | |
| SP3WXH-11 | 2026-08-30 07:17:54 | 52.57232 | 15.90200 | 75° | 53km/h | 6334m | -2.3m/s | -18.3°C | 18.4% | 462.3hPa | 2.7V | 00:00:00 | 00:00:00 | 00:00:00 | |
| SONDE2-11 | 2026-08-30 07:17:48 | 52.57202 | 15.90080 | 62° | 55km/h | 6346m | -1.8m/s | -18.3°C | 17.9% | 461.5hPa | 2.7V | 00:00:00 | 00:00:00 | 00:00:00 | |
| EDDB2-12 | 2026-08-30 07:17:45 | 52.57181 | 15.90014 | 63° | 62km/h | 6352m | -1.9m/s | -18.4°C | 17.8% | 461.1hPa | 2.7V | 00:00:00 | 00:00:00 | 00:00:00 | |
| KRY50SP-1 | 2026-08-30 07:17:40 | 52.57156 | 15.89914 | 74° | 64km/h | 6359m | -1.6m/s | -18.4°C | 17.4% | 460.7hPa | 2.7V | 00:00:00 | 00:00:00 | 00:00:00 | |
| EDDB2-11 | 2026-08-30 07:17:38 | 52.57144 | 15.89839 | 77° | 58km/h | 6364m | -1.8m/s | -18.4°C | 16.2% | 460.3hPa | 2.7V | 00:00:00 | 00:00:00 | 00:00:00 | |
| KRY50SP-1 | 2026-08-30 07:17:35 | 52.57137 | 15.89792 | 79° | 57km/h | 6367m | -2.0m/s | -18.4°C | 16.1% | 460.1hPa | 2.7V | 00:00:00 | 00:00:00 | 00:00:00 | |
| SP6BVK | 2026-08-30 07:17:30 | 52.57118 | 15.89689 | 69° | 49km/h | 6377m | -2.0m/s | -18.5°C | 16.3% | 459.5hPa | 2.7V | 00:00:00 | 00:00:00 | 00:00:00 | |
| KRY50SP-1 | 2026-08-30 07:17:24 | 52.57082 | 15.89568 | 65° | 60km/h | 6389m | -2.2m/s | -18.6°C | 15.9% | 458.8hPa | 2.7V | 00:00:00 | 00:00:00 | 00:00:00 | |
| SP3WXH-11 | 2026-08-30 07:17:23 | 52.57068 | 15.89521 | 67° | 62km/h | 6393m | -1.9m/s | -18.6°C | 15.7% | 458.6hPa | 2.7V | 00:00:00 | 00:00:00 | 00:00:00 | |
| KRY50SP-1 | 2026-08-30 07:17:18 | 52.57047 | 15.89420 | 76° | 64km/h | 6401m | -1.9m/s | -18.6°C | 15.1% | 458.1hPa | 2.7V | 00:00:00 | 00:00:00 | 00:00:00 | |
| SONDE2-11 | 2026-08-30 07:17:17 | 52.57040 | 15.89371 | 77° | 58km/h | 6404m | -1.8m/s | -18.7°C | 14.8% | 457.8hPa | 2.7V | 00:00:00 | 00:00:00 | 00:00:00 | |
| EDDB2-12 | 2026-08-30 07:17:14 | 52.57031 | 15.89302 | 77° | 53km/h | 6411m | -2.1m/s | -18.7°C | 14.9% | 457.4hPa | 2.7V | 00:00:00 | 00:00:00 | 00:00:00 | |
| KRY50SP-1 | 2026-08-30 07:17:12 | 52.57028 | 15.89281 | 77° | 51km/h | 6413m | -1.7m/s | -18.7°C | 14.8% | 457.3hPa | 2.7V | 00:00:00 | 00:00:00 | 00:00:00 | |
| DB0DAN | 2026-08-30 07:17:10 | 52.57016 | 15.89223 | 67° | 47km/h | 6418m | -1.9m/s | -18.7°C | 14.4% | 457.01hPa | 2.7V | 00:00:00 | 00:00:00 | 00:00:00 | |
| SP6BVK | 2026-08-30 07:17:09 | 52.57016 | 15.89223 | 68° | 49km/h | 6418m | -1.9m/s | -18.7°C | 14.4% | 457.0hPa | 2.6V | 00:00:00 | 00:00:00 | 00:00:00 | |
| EDDB2-11 | 2026-08-30 07:17:07 | 52.56999 | 15.89165 | 62° | 53km/h | 6424m | -2.0m/s | -18.8°C | 14.4% | 456.6hPa | 2.6V | 00:00:00 | 00:00:00 | 00:00:00 | |
| KRY50SP-1 | 2026-08-30 07:17:01 | 52.56966 | 15.89055 | 67° | 64km/h | 6434m | -1.9m/s | -18.8°C | 14.2% | 456.1hPa | 2.6V | 00:00:00 | 00:00:00 | 00:00:00 | |
| DB0DAN | 2026-08-30 07:16:55 | 52.56933 | 15.88884 | 77° | 55km/h | 6447m | -1.9m/s | -18.9°C | 14.8% | 455.26hPa | 2.6V | 00:00:00 | 00:00:00 | 00:00:00 | |
| SONDE2-12 | 2026-08-30 07:16:53 | 52.56923 | 15.88817 | 76° | 51km/h | 6453m | -1.8m/s | -18.9°C | 16.3% | 455.0hPa | 2.7V | 00:00:00 | 00:00:00 | 00:00:00 | |
| SP3WXH-11 | 2026-08-30 07:16:52 | 52.56923 | 15.88817 | 76° | 51km/h | 6453m | -1.8m/s | -19.0°C | 14.8% | 455.0hPa | 2.7V | 00:00:00 | 00:00:00 | 00:00:00 | |
| SONDE2-11 | 2026-08-30 07:16:46 | 52.56898 | 15.88697 | 65° | 51km/h | 6464m | -2.0m/s | -19.0°C | 16.7% | 454.2hPa | 2.7V | 00:00:00 | 00:00:00 | 00:00:00 | |
| KRY50SP-1 | 2026-08-30 07:16:45 | 52.56898 | 15.88697 | 66° | 53km/h | 6464m | -2.0m/s | -19.0°C | 16.7% | 454.2hPa | 2.7V | 00:00:00 | 00:00:00 | 00:00:00 | |
| EDDB2-12 | 2026-08-30 07:16:43 | 52.56880 | 15.88636 | 64° | 57km/h | 6470m | -1.8m/s | -19.1°C | 18.1% | 453.9hPa | 2.7V | 00:00:00 | 00:00:00 | 00:00:00 | |
| DB0DAN | 2026-08-30 07:16:40 | 52.56860 | 15.88571 | 64° | 57km/h | 6476m | -2m/s | -19.1°C | 19.3% | 453.59hPa | 2.7V | 00:00:00 | 00:00:00 | 00:00:00 | |
| EDDB2-11 | 2026-08-30 07:16:36 | 52.56833 | 15.88478 | 65° | 64km/h | 6484m | -2.1m/s | -19.2°C | 20.0% | 453.1hPa | 2.7V | 00:00:00 | 00:00:00 | 00:00:00 | |
| KRY50SP-1 | 2026-08-30 07:16:34 | 52.56826 | 15.88453 | 68° | 64km/h | 6486m | -1.8m/s | -19.2°C | 20.5% | 453.0hPa | 2.7V | 00:00:00 | 00:00:00 | 00:00:00 | |
| KRY50SP-1 | 2026-08-30 07:16:28 | 52.56796 | 15.88298 | 79° | 62km/h | 6497m | -1.9m/s | -19.3°C | 29.8% | 452.2hPa | 2.7V | 00:00:00 | 00:00:00 | 00:00:00 | |
| SP6BVK | 2026-08-30 07:16:27 | 52.56793 | 15.88273 | 80° | 58km/h | 6499m | -1.7m/s | -19.3°C | 29.4% | 452.0hPa | 2.7V | 00:00:00 | 00:00:00 | 00:00:00 | |
| DB0DAN | 2026-08-30 07:16:25 | 52.56784 | 15.88206 | 77° | 51km/h | 6504m | -1.6m/s | -19.3°C | 22.4% | 451.8hPa | 2.7V | 00:00:00 | 00:00:00 | 00:00:00 | |
| KRY50SP-1 | 2026-08-30 07:16:23 | 52.56781 | 15.88184 | 75° | 51km/h | 6506m | -1.9m/s | -19.3°C | 22.2% | 451.7hPa | 2.6V | 00:00:00 | 00:00:00 | 00:00:00 | |
| SP3WXH-11 | 2026-08-30 07:16:21 | 52.56761 | 15.88103 | 65° | 57km/h | 6513m | -1.8m/s | -19.4°C | 22.1% | 451.2hPa | 2.6V | 00:00:00 | 00:00:00 | 00:00:00 | |
| KRY50SP-1 | 2026-08-30 07:16:18 | 52.56749 | 15.88059 | 65° | 60km/h | 6517m | -1.9m/s | -19.4°C | 22.1% | 451.0hPa | 2.6V | 00:00:00 | 00:00:00 | 00:00:00 | |
| EDDB2-12 | 2026-08-30 07:16:12 | 52.56711 | 15.87911 | 71° | 66km/h | 6528m | -1.9m/s | -19.5°C | 21.3% | 450.4hPa | 2.6V | 00:00:00 | 00:00:00 | 00:00:00 | |
| DB0DAN | 2026-08-30 07:16:10 | 52.56700 | 15.87858 | 75° | 64km/h | 6532m | -2.2m/s | -19.5°C | 20.3% | 450.09hPa | 2.6V | 00:00:00 | 00:00:00 | 00:00:00 | |
| KRY50SP-1 | 2026-08-30 07:16:06 | 52.56689 | 15.87779 | 80° | 62km/h | 6538m | -1.7m/s | -19.5°C | 20.0% | 449.8hPa | 2.7V | 00:00:00 | 00:00:00 | 00:00:00 | |
| EDDB2-11 | 2026-08-30 07:16:05 | 52.56684 | 15.87730 | 79° | 57km/h | 6542m | -1.8m/s | -19.6°C | 20.0% | 449.5hPa | 2.7V | 00:00:00 | 00:00:00 | 00:00:00 | |
| KRY50SP-1 | 2026-08-30 07:16:01 | 52.56675 | 15.87663 | 75° | 53km/h | 6548m | -2.0m/s | -19.6°C | 19.8% | 449.1hPa | 2.7V | 00:00:00 | 00:00:00 | 00:00:00 | |
| KRY50SP-1 | 2026-08-30 07:15:56 | 52.56649 | 15.87555 | 66° | 60km/h | 6557m | -1.8m/s | -19.6°C | 16.7% | 448.6hPa | 2.7V | 00:00:00 | 00:00:00 | 00:00:00 | |
| DB0DAN | 2026-08-30 07:15:55 | 52.56637 | 15.87509 | 66° | 58km/h | 6560m | -1.9m/s | -19.6°C | 16.2% | 448.35hPa | 2.7V | 00:00:00 | 00:00:00 | 00:00:00 | |
| SP3WXH-11 | 2026-08-30 07:15:50 | 52.56605 | 15.87384 | 69° | 68km/h | 6570m | -2.1m/s | -19.7°C | 15.6% | 447.8hPa | 2.7V | 00:00:00 | 00:00:00 | 00:00:00 | |
| SONDE2-11 | 2026-08-30 07:15:44 | 52.56577 | 15.87221 | 79° | 64km/h | 6582m | -1.8m/s | -19.8°C | 15.7% | 447.1hPa | 2.7V | 00:00:00 | 00:00:00 | 00:00:00 | |
| DB0DAN | 2026-08-30 07:15:40 | 52.56566 | 15.87120 | 80° | 55km/h | 6590m | -1.7m/s | -19.8°C | 15.8% | 446.61hPa | 2.7V | 00:00:00 | 00:00:00 | 00:00:00 | |
| EDDB2-11 | 2026-08-30 07:15:34 | 52.56541 | 15.86992 | 67° | 55km/h | 6601m | -2.0m/s | -19.9°C | 15.8% | 446.0hPa | 2.6V | 00:00:00 | 00:00:00 | 00:00:00 | |
| KRY50SP-1 | 2026-08-30 07:15:28 | 52.56509 | 15.86874 | 69° | 68km/h | 6610m | -1.7m/s | -20.0°C | 15.5% | 445.3hPa | 2.6V | 00:00:00 | 00:00:00 | 00:00:00 | |
| DB0DAN | 2026-08-30 07:15:25 | 52.56487 | 15.86767 | 76° | 66km/h | 6618m | -2.2m/s | -20°C | 15.1% | 444.91hPa | 2.6V | 00:00:00 | 00:00:00 | 00:00:00 | |
| KRY50SP-1 | 2026-08-30 07:15:23 | 52.56483 | 15.86740 | 79° | 68km/h | 6620m | -2.0m/s | -20.0°C | 15.1% | 444.8hPa | 2.7V | 00:00:00 | 00:00:00 | 00:00:00 | |
| SP3WXH-11 | 2026-08-30 07:15:19 | 52.56466 | 15.86587 | 77° | 55km/h | 6631m | -1.6m/s | -20.1°C | 15.1% | 444.1hPa | 2.7V | 00:00:00 | 00:00:00 | 00:00:00 | |
| KRY50SP-1 | 2026-08-30 07:15:17 | 52.56466 | 15.86587 | 79° | 57km/h | 6631m | -1.6m/s | -20.1°C | 15.1% | 444.1hPa | 2.7V | 00:00:00 | 00:00:00 | 00:00:00 | |
| KRY50SP-1 | 2026-08-30 07:15:12 | 52.56446 | 15.86479 | 71° | 57km/h | 6640m | -2.0m/s | -20.2°C | 16.7% | 443.6hPa | 2.7V | 00:00:00 | 00:00:00 | 00:00:00 | |
| DB0DAN | 2026-08-30 07:15:10 | 52.56429 | 15.86411 | 68° | 58km/h | 6646m | -1.8m/s | -20.2°C | 17.2% | 443.26hPa | 2.7V | 00:00:00 | 00:00:00 | 00:00:00 | |
| KRY50SP-1 | 2026-08-30 07:15:06 | 52.56411 | 15.86337 | 70° | 66km/h | 6651m | -1.8m/s | -20.3°C | 17.8% | 443.0hPa | 2.7V | 00:00:00 | 00:00:00 | 00:00:00 | |
| SP6BVK | 2026-08-30 07:15:04 | 52.56399 | 15.86285 | 70° | 68km/h | 6655m | -1.8m/s | -20.3°C | 18.3% | 442.7hPa | 2.7V | 00:00:00 | 00:00:00 | 00:00:00 | |
| EDDB2-11 | 2026-08-30 07:15:03 | 52.56388 | 15.86231 | 70° | 68km/h | 6659m | -2.2m/s | -20.4°C | 18.7% | 442.5hPa | 2.7V | 00:00:00 | 00:00:00 | 00:00:00 | |
| KRY50SP-1 | 2026-08-30 07:15:00 | 52.56377 | 15.86176 | 75° | 71km/h | 6663m | -2.2m/s | -20.4°C | 18.9% | 442.2hPa | 2.7V | 00:00:00 | 00:00:00 | 00:00:00 | |
| DB0DAN | 2026-08-30 07:14:55 | 52.56356 | 15.86012 | 81° | 58km/h | 6674m | -1.7m/s | -20.5°C | 19.4% | 441.53hPa | 2.7V | 00:00:00 | 00:00:00 | 00:00:00 | |
| SP3WXH-11 | 2026-08-30 07:14:48 | 52.56323 | 15.85829 | 66° | 60km/h | 6690m | -1.8m/s | -20.6°C | 20.3% | 440.6hPa | 2.7V | 00:00:00 | 00:00:00 | 00:00:00 | |
| SP6BVK | 2026-08-30 07:14:44 | 52.56304 | 15.85754 | 70° | 68km/h | 6696m | -2.0m/s | -20.7°C | 20.2% | 440.2hPa | 2.7V | 00:00:00 | 00:00:00 | 00:00:00 | |
| KRY50SP-1 | 2026-08-30 07:14:43 | 52.56304 | 15.85754 | 70° | 68km/h | 6696m | -2.0m/s | -20.7°C | 20.2% | 440.2hPa | 2.7V | 00:00:00 | 00:00:00 | 00:00:00 | |
| DB0DAN | 2026-08-30 07:14:40 | 52.56280 | 15.85645 | 73° | 68km/h | 6704m | -1.8m/s | -20.8°C | 20.4% | 439.77hPa | 2.7V | 00:00:00 | 00:00:00 | 00:00:00 | |
| EDDB2-12 | 2026-08-30 07:14:39 | 52.56275 | 15.85616 | 75° | 71km/h | 6706m | -2.0m/s | -20.8°C | 20.5% | 439.7hPa | 2.6V | 00:00:00 | 00:00:00 | 00:00:00 | |
| KRY50SP-1 | 2026-08-30 07:14:37 | 52.56271 | 15.85588 | 78° | 71km/h | 6708m | -2.3m/s | -20.8°C | 20.9% | 439.5hPa | 2.6V | 00:00:00 | 00:00:00 | 00:00:00 | |
| EDDB2-11 | 2026-08-30 07:14:32 | 52.56255 | 15.85427 | 81° | 58km/h | 6721m | -2.2m/s | -20.9°C | 21.5% | 438.8hPa | 2.6V | 00:00:00 | 00:00:00 | 00:00:00 | |
| KRY50SP-1 | 2026-08-30 07:14:31 | 52.56255 | 15.85427 | 82° | 58km/h | 6721m | -2.2m/s | -20.9°C | 21.5% | 438.8hPa | 2.6V | 00:00:00 | 00:00:00 | 00:00:00 | |
| KRY50SP-1 | 2026-08-30 07:14:26 | 52.56236 | 15.85312 | 68° | 60km/h | 6732m | -1.9m/s | -21.0°C | 21.5% | 438.2hPa | 2.6V | 00:00:00 | 00:00:00 | 00:00:00 | |
| DB0DAN | 2026-08-30 07:14:25 | 52.56224 | 15.85264 | 67° | 60km/h | 6736m | -2.1m/s | -21.1°C | 21.6% | 437.98hPa | 2.6V | 00:00:00 | 00:00:00 | 00:00:00 | |
| SP6BVK | 2026-08-30 07:14:23 | 52.56217 | 15.85240 | 69° | 66km/h | 6738m | -2.3m/s | -21.1°C | 21.6% | 437.9hPa | 2.6V | 00:00:00 | 00:00:00 | 00:00:00 | |
| KRY50SP-1 | 2026-08-30 07:14:20 | 52.56199 | 15.85161 | 71° | 69km/h | 6744m | -1.9m/s | -21.1°C | 21.8% | 437.5hPa | 2.6V | 00:00:00 | 00:00:00 | 00:00:00 | |
| SP3WXH-11 | 2026-08-30 07:14:17 | 52.56176 | 15.85019 | 79° | 68km/h | 6754m | -1.8m/s | -21.2°C | 23.5% | 436.8hPa | 2.6V | 00:00:00 | 00:00:00 | 00:00:00 | |
| KRY50SP-1 | 2026-08-30 07:14:14 | 52.56173 | 15.84992 | 82° | 68km/h | 6756m | -2.3m/s | -21.2°C | 23.5% | 436.7hPa | 2.6V | 00:00:00 | 00:00:00 | 00:00:00 | |
| DB0DAN | 2026-08-30 07:14:10 | 52.56161 | 15.84864 | 81° | 55km/h | 6766m | -2.3m/s | -21.3°C | 24.2% | 436.13hPa | 2.6V | 00:00:00 | 00:00:00 | 00:00:00 | |
| KRY50SP-1 | 2026-08-30 07:14:09 | 52.56161 | 15.84864 | 82° | 58km/h | 6767m | -2.3m/s | -21.3°C | 24.2% | 436.1hPa | 2.6V | 00:00:00 | 00:00:00 | 00:00:00 | |
| EDDB2-12 | 2026-08-30 07:14:08 | 52.56155 | 15.84818 | 76° | 55km/h | 6771m | -1.8m/s | -21.3°C | 24.3% | 435.9hPa | 2.6V | 00:00:00 | 00:00:00 | 00:00:00 | |
| KRY50SP-1 | 2026-08-30 07:14:03 | 52.56137 | 15.84729 | 69° | 58km/h | 6779m | -2.2m/s | -21.4°C | 24.7% | 435.4hPa | 2.6V | 00:00:00 | 00:00:00 | 00:00:00 | |
| SP6BVK | 2026-08-30 07:14:02 | 52.56131 | 15.84706 | 69° | 60km/h | 6781m | -1.9m/s | -21.4°C | 24.9% | 435.2hPa | 2.6V | 00:00:00 | 00:00:00 | 00:00:00 | |
| EDDB2-11 | 2026-08-30 07:14:01 | 52.56119 | 15.84657 | 67° | 64km/h | 6785m | -1.7m/s | -21.5°C | 24.8% | 435.0hPa | 2.6V | 00:00:00 | 00:00:00 | 00:00:00 | |
| KRY50SP-1 | 2026-08-30 07:13:58 | 52.56106 | 15.84605 | 71° | 69km/h | 6790m | -1.9m/s | -21.5°C | 24.8% | 434.8hPa | 2.6V | 00:00:00 | 00:00:00 | 00:00:00 | |
| DB0DAN | 2026-08-30 07:13:55 | 52.56087 | 15.84492 | 77° | 68km/h | 6798m | -1.7m/s | -21.6°C | 25% | 434.29hPa | 2.6V | 00:00:00 | 00:00:00 | 00:00:00 | |
| SP3WXH-11 | 2026-08-30 07:13:46 | 52.56056 | 15.84241 | 71° | 55km/h | 6818m | -2.1m/s | -21.7°C | 25.2% | 433.1hPa | 2.6V | 00:00:00 | 00:00:00 | 00:00:00 | |
| SP6BVK | 2026-08-30 07:13:42 | 52.56046 | 15.84196 | 70° | 58km/h | 6822m | -2.1m/s | -21.8°C | 25.4% | 432.9hPa | 2.6V | 00:00:00 | 00:00:00 | 00:00:00 | |
| DB0DAN | 2026-08-30 07:13:40 | 52.56028 | 15.84126 | 68° | 62km/h | 6828m | -2.1m/s | -21.8°C | 25.3% | 432.52hPa | 2.6V | 00:00:00 | 00:00:00 | 00:00:00 | |
| SONDE2-11 | 2026-08-30 07:13:40 | 52.56021 | 15.84102 | 65° | 66km/h | 6830m | -1.9m/s | -21.9°C | 25.3% | 432.4hPa | 2.7V | 00:00:00 | 00:00:00 | 00:00:00 | |
| EDDB2-12 | 2026-08-30 07:13:37 | 52.56008 | 15.84049 | 67° | 68km/h | 6834m | -2.0m/s | -21.9°C | 25.4% | 432.2hPa | 2.7V | 00:00:00 | 00:00:00 | 00:00:00 | |
| KRY50SP-1 | 2026-08-30 07:13:36 | 52.56008 | 15.84049 | 69° | 69km/h | 6834m | -2.0m/s | -21.9°C | 25.4% | 432.2hPa | 2.7V | 00:00:00 | 00:00:00 | 00:00:00 | |
| KRY50SP-1 | 2026-08-30 07:13:31 | 52.55982 | 15.83910 | 79° | 68km/h | 6844m | -2.0m/s | -22.0°C | 25.6% | 431.6hPa | 2.7V | 00:00:00 | 00:00:00 | 00:00:00 | |
| EDDB2-11 | 2026-08-30 07:13:30 | 52.55976 | 15.83855 | 78° | 66km/h | 6848m | -2.1m/s | -22.0°C | 25.6% | 431.4hPa | 2.7V | 00:00:00 | 00:00:00 | 00:00:00 | |
| KRY50SP-1 | 2026-08-30 07:13:25 | 52.55967 | 15.83752 | 80° | 58km/h | 6856m | -2.2m/s | -22.1°C | 25.9% | 430.9hPa | 2.7V | 00:00:00 | 00:00:00 | 00:00:00 | |
| SP6BVK | 2026-08-30 07:13:22 | 52.55957 | 15.83685 | 76° | 55km/h | 6863m | -2.3m/s | -22.2°C | 26.1% | 430.5hPa | 2.7V | 00:00:00 | 00:00:00 | 00:00:00 | |
| KRY50SP-1 | 2026-08-30 07:13:19 | 52.55943 | 15.83620 | 69° | 58km/h | 6869m | -2.1m/s | -22.2°C | 26.2% | 430.1hPa | 2.7V | 00:00:00 | 00:00:00 | 00:00:00 | |
| SP3WXH-11 | 2026-08-30 07:13:15 | 52.55905 | 15.83471 | 71° | 71km/h | 6880m | -1.9m/s | -22.3°C | 26.5% | 429.4hPa | 2.7V | 00:00:00 | 00:00:00 | 00:00:00 | |
| KRY50SP-1 | 2026-08-30 07:13:13 | 52.55906 | 15.83471 | 72° | 71km/h | 6881m | -1.9m/s | -22.3°C | 26.6% | 429.4hPa | 2.7V | 00:00:00 | 00:00:00 | 00:00:00 | |
| KRY50SP-1 | 2026-08-30 07:13:08 | 52.55883 | 15.83331 | 81° | 68km/h | 6891m | -2.1m/s | -22.4°C | 27.0% | 428.8hPa | 2.7V | 00:00:00 | 00:00:00 | 00:00:00 | |
| EDDB2-12 | 2026-08-30 07:13:06 | 52.55875 | 15.83253 | 78° | 58km/h | 6897m | -2.2m/s | -22.5°C | 27.2% | 428.5hPa | 2.7V | 00:00:00 | 00:00:00 | 00:00:00 | |
| KRY50SP-1 | 2026-08-30 07:13:02 | 52.55866 | 15.83184 | 77° | 57km/h | 6904m | -1.8m/s | -22.5°C | 27.5% | 428.1hPa | 2.7V | 00:00:00 | 00:00:00 | 00:00:00 | |
| EDDB2-11 | 2026-08-30 07:12:59 | 52.55848 | 15.83096 | 68° | 58km/h | 6912m | -2.2m/s | -22.6°C | 27.5% | 427.6hPa | 2.7V | 00:00:00 | 00:00:00 | 00:00:00 | |
| KRY50SP-1 | 2026-08-30 07:12:56 | 52.55836 | 15.83050 | 68° | 62km/h | 6917m | -2.3m/s | -22.7°C | 27.5% | 427.4hPa | 2.7V | 00:00:00 | 00:00:00 | 00:00:00 | |
| KRY50SP-1 | 2026-08-30 07:12:50 | 52.55799 | 15.82894 | 73° | 71km/h | 6929m | -2.2m/s | -22.8°C | 27.9% | 426.7hPa | 2.7V | 00:00:00 | 00:00:00 | 00:00:00 | |
| SP3BTT-10 | 2026-08-30 07:12:48 | 52.55785 | 15.82810 | 78° | 64km/h | 6935m | -1.9m/s | -22.8°C | 31.8% | 426.2hPa | 2.7V | 00:00:00 | 00:00:00 | 00:00:00 | |
| SP3WXH-11 | 2026-08-30 07:12:44 | 52.55770 | 15.82678 | 80° | 58km/h | 6946m | -2.0m/s | -23.0°C | 28.3% | 425.7hPa | 2.6V | 00:00:00 | 00:00:00 | 00:00:00 | |
| SP6BVK | 2026-08-30 07:12:41 | 52.55767 | 15.82654 | 79° | 58km/h | 6948m | -2.3m/s | -23.0°C | 28.4% | 425.6hPa | 2.6V | 00:00:00 | 00:00:00 | 00:00:00 | |
| KRY50SP-1 | 2026-08-30 07:12:40 | 52.55764 | 15.82630 | 80° | 58km/h | 6950m | -1.8m/s | -23.0°C | 28.5% | 425.5hPa | 2.6V | 00:00:00 | 00:00:00 | 00:00:00 | |
| SONDE2-11 | 2026-08-30 07:12:37 | 52.55748 | 15.82541 | 71° | 57km/h | 6957m | -2.1m/s | -23.1°C | 28.7% | 424.9hPa | 2.6V | 00:00:00 | 00:00:00 | 00:00:00 | |
| EDDB2-12 | 2026-08-30 07:12:35 | 52.55737 | 15.82496 | 68° | 58km/h | 6961m | -2.0m/s | -23.1°C | 28.8% | 424.8hPa | 2.6V | 00:00:00 | 00:00:00 | 00:00:00 | |
| KRY50SP-1 | 2026-08-30 07:12:34 | 52.55736 | 15.82496 | 69° | 58km/h | 6961m | -2.0m/s | -23.1°C | 28.8% | 424.8hPa | 2.6V | 00:00:00 | 00:00:00 | 00:00:00 | |
| EDDB2-11 | 2026-08-30 07:12:28 | 52.55693 | 15.82319 | 72° | 71km/h | 6975m | -2.3m/s | -23.3°C | 29.1% | 423.9hPa | 2.6V | 00:00:00 | 00:00:00 | 00:00:00 | |
| KRY50SP-1 | 2026-08-30 07:12:23 | 52.55675 | 15.82206 | 78° | 69km/h | 6985m | -2.0m/s | -23.3°C | 29.2% | 423.3hPa | 2.6V | 00:00:00 | 00:00:00 | 00:00:00 | |
| SP6BVK | 2026-08-30 07:12:20 | 52.55667 | 15.82124 | 83° | 64km/h | 6991m | -2.4m/s | -23.4°C | 29.4% | 423.1hPa | 2.6V | 00:00:00 | 00:00:00 | 00:00:00 | |
| KRY50SP-1 | 2026-08-30 07:12:17 | 52.55659 | 15.82050 | 80° | 57km/h | 6998m | -2.4m/s | -23.5°C | 29.2% | 422.7hPa | 2.6V | 00:00:00 | 00:00:00 | 00:00:00 | |
| KRY50SP-1 | 2026-08-30 07:12:12 | 52.55640 | 15.81938 | 72° | 58km/h | 7008m | -2.2m/s | -23.5°C | 28.9% | 422.0hPa | 2.6V | 00:00:00 | 00:00:00 | 00:00:00 | |
| SONDE2-11 | 2026-08-30 07:12:06 | 52.55600 | 15.81764 | 71° | 69km/h | 7022m | -1.8m/s | -23.7°C | 28.2% | 421.2hPa | 2.6V | 00:00:00 | 00:00:00 | 00:00:00 | |
| EDDB2-12 | 2026-08-30 07:12:04 | 52.55590 | 15.81708 | 74° | 69km/h | 7026m | -2.2m/s | -23.7°C | 28.0% | 421.0hPa | 2.6V | 00:00:00 | 00:00:00 | 00:00:00 | |
| KRY50SP-1 | 2026-08-30 07:12:01 | 52.55581 | 15.81650 | 80° | 71km/h | 7030m | -2.6m/s | -23.8°C | 28.0% | 420.7hPa | 2.6V | 00:00:00 | 00:00:00 | 00:00:00 | |
| EDDB2-11 | 2026-08-30 07:11:57 | 52.55570 | 15.81512 | 83° | 62km/h | 7041m | -2.1m/s | -23.9°C | 27.5% | 420.1hPa | 2.6V | 00:00:00 | 00:00:00 | 00:00:00 | |
| KRY50SP-1 | 2026-08-30 07:11:56 | 52.55570 | 15.81512 | 85° | 62km/h | 7041m | -2.1m/s | -23.8°C | 27.5% | 420.1hPa | 2.6V | 00:00:00 | 00:00:00 | 00:00:00 | |
| KRY50SP-1 | 2026-08-30 07:11:51 | 52.55556 | 15.81397 | 72° | 55km/h | 7052m | -2.1m/s | -24.0°C | 27.7% | 419.5hPa | 2.6V | 00:00:00 | 00:00:00 | 00:00:00 | |
| SONDE2-12 | 2026-08-30 07:11:42 | 52.55472 | 15.80863 | 76° | 55km/h | 7095m | -2.3m/s | -24.3°C | 24.4% | 417.0hPa | 2.6V | 00:00:00 | 00:00:00 | 00:00:00 | |
| DB0DAN | 2026-08-30 07:11:40 | 52.55495 | 15.81088 | 80° | 66km/h | 7076m | -1.9m/s | -24.1°C | 23.6% | 418.02hPa | 2.6V | 00:00:00 | 00:00:00 | 00:00:00 | |
| SP6BVK | 2026-08-30 07:11:38 | 52.55492 | 15.81060 | 82° | 68km/h | 7078m | -2.4m/s | -24.1°C | 23.5% | 417.9hPa | 2.7V | 00:00:00 | 00:00:00 | 00:00:00 | |
| SONDE2-11 | 2026-08-30 07:11:35 | 52.55483 | 15.80956 | 82° | 60km/h | 7086m | -2.0m/s | -24.2°C | 22.7% | 417.4hPa | 2.7V | 00:00:00 | 00:00:00 | 00:00:00 | |
| KRY50SP-1 | 2026-08-30 07:11:34 | 52.55482 | 15.80956 | 84° | 60km/h | 7086m | -2.0m/s | -24.2°C | 22.7% | 417.4hPa | 2.7V | 00:00:00 | 00:00:00 | 00:00:00 | |
| EDDB2-12 | 2026-08-30 07:11:33 | 52.55478 | 15.80908 | 79° | 57km/h | 7090m | -2.2m/s | -24.3°C | 22.4% | 417.3hPa | 2.7V | 00:00:00 | 00:00:00 | 00:00:00 | |
| KRY50SP-1 | 2026-08-30 07:11:29 | 52.55468 | 15.80841 | 76° | 55km/h | 7097m | -2.3m/s | -24.3°C | 21.8% | 416.9hPa | 2.7V | 00:00:00 | 00:00:00 | 00:00:00 | |
| DB0DAN | 2026-08-30 07:11:25 | 52.55445 | 15.80726 | 69° | 58km/h | 7109m | -2.4m/s | -24.4°C | 20.6% | 416.22hPa | 2.7V | 00:00:00 | 00:00:00 | 00:00:00 | |
| KRY50SP-1 | 2026-08-30 07:11:24 | 52.55445 | 15.80726 | 70° | 62km/h | 7109m | -2.4m/s | -24.4°C | 20.7% | 416.2hPa | 2.6V | 00:00:00 | 00:00:00 | 00:00:00 | |
| SP6BVK | 2026-08-30 07:11:18 | 52.55410 | 15.80569 | 74° | 71km/h | 7121m | -2.5m/s | -24.5°C | 20.7% | 415.5hPa | 2.6V | 00:00:00 | 00:00:00 | 00:00:00 | |
| KRY50SP-1 | 2026-08-30 07:11:12 | 52.55390 | 15.80401 | 84° | 64km/h | 7133m | -2.2m/s | -24.6°C | 20.5% | 414.7hPa | 2.6V | 00:00:00 | 00:00:00 | 00:00:00 | |
| DB0DAN | 2026-08-30 07:11:10 | 52.55383 | 15.80327 | 78° | 55km/h | 7140m | -2.2m/s | -24.6°C | 19.9% | 414.37hPa | 2.6V | 00:00:00 | 00:00:00 | 00:00:00 | |
| KRY50SP-1 | 2026-08-30 07:11:06 | 52.55373 | 15.80259 | 73° | 55km/h | 7146m | -2.1m/s | -24.7°C | 20.6% | 414.1hPa | 2.6V | 00:00:00 | 00:00:00 | 00:00:00 | |
| SONDE2-11 | 2026-08-30 07:11:04 | 52.55358 | 15.80193 | 67° | 58km/h | 7153m | -2.1m/s | -24.8°C | 21.5% | 413.7hPa | 2.6V | 00:00:00 | 00:00:00 | 00:00:00 | |
| KRY50SP-1 | 2026-08-30 07:11:01 | 52.55346 | 15.80147 | 69° | 62km/h | 7158m | -2.2m/s | -24.8°C | 21.6% | 413.5hPa | 2.6V | 00:00:00 | 00:00:00 | 00:00:00 | |
| SP6BVK | 2026-08-30 07:10:57 | 52.55322 | 15.80044 | 71° | 69km/h | 7166m | -1.7m/s | -24.8°C | 21.4% | 412.9hPa | 2.6V | 00:00:00 | 00:00:00 | 00:00:00 | |
| DB0DAN | 2026-08-30 07:10:55 | 52.55307 | 15.79960 | 76° | 68km/h | 7171m | -2m/s | -24.9°C | 21.5% | 412.59hPa | 2.6V | 00:00:00 | 00:00:00 | 00:00:00 | |
| EDDB2-11 | 2026-08-30 07:10:55 | 52.55307 | 15.79960 | 75° | 69km/h | 7171m | -2.0m/s | -24.9°C | 21.5% | 412.6hPa | 2.6V | 00:00:00 | 00:00:00 | 00:00:00 | |
| KRY50SP-1 | 2026-08-30 07:10:49 | 52.55291 | 15.79823 | 82° | 62km/h | 7180m | -2.0m/s | -25.0°C | 22.3% | 412.0hPa | 2.6V | 00:00:00 | 00:00:00 | 00:00:00 | |
| SP3BTT-10 | 2026-08-30 07:10:48 | 52.55286 | 15.79774 | 80° | 64km/h | 7185m | -2.2m/s | -25.0°C | 26.7% | 411.7hPa | 2.6V | 00:00:00 | 00:00:00 | 00:00:00 | |
| KRY50SP-1 | 2026-08-30 07:10:43 | 52.55273 | 15.79684 | 73° | 55km/h | 7194m | -2.0m/s | -25.1°C | 23.4% | 411.3hPa | 2.6V | 00:00:00 | 00:00:00 | 00:00:00 | |
| DB0DAN | 2026-08-30 07:10:40 | 52.55251 | 15.79595 | 66° | 58km/h | 7201m | -2.1m/s | -25.2°C | 23.5% | 410.78hPa | 2.6V | 00:00:00 | 00:00:00 | 00:00:00 | |
| SP3WXH-11 | 2026-08-30 07:10:40 | 52.55245 | 15.79572 | 66° | 62km/h | 7203m | -2.0m/s | -25.2°C | 23.5% | 410.7hPa | 2.6V | 00:00:00 | 00:00:00 | 00:00:00 | |
| SP6BVK | 2026-08-30 07:10:37 | 52.55239 | 15.79547 | 69° | 66km/h | 7205m | -2.0m/s | -25.2°C | 23.4% | 410.6hPa | 2.6V | 00:00:00 | 00:00:00 | 00:00:00 | |
| SONDE2-11 | 2026-08-30 07:10:33 | 52.55211 | 15.79411 | 75° | 69km/h | 7216m | -1.8m/s | -25.3°C | 23.6% | 410.0hPa | 2.6V | 00:00:00 | 00:00:00 | 00:00:00 | |
| KRY50SP-1 | 2026-08-30 07:10:32 | 52.55211 | 15.79410 | 76° | 69km/h | 7216m | -1.8m/s | -25.3°C | 23.7% | 410.0hPa | 2.6V | 00:00:00 | 00:00:00 | 00:00:00 | |
| EDDB2-12 | 2026-08-30 07:10:31 | 52.55200 | 15.79327 | 79° | 66km/h | 7221m | -2.2m/s | -25.4°C | 23.6% | 409.6hPa | 2.6V | 00:00:00 | 00:00:00 | 00:00:00 | |
| KRY50SP-1 | 2026-08-30 07:10:27 | 52.55194 | 15.79274 | 83° | 64km/h | 7226m | -2.5m/s | -25.4°C | 23.9% | 409.4hPa | 2.6V | 00:00:00 | 00:00:00 | 00:00:00 | |
| DB0DAN | 2026-08-30 07:10:25 | 52.55188 | 15.79199 | 80° | 55km/h | 7232m | -2.6m/s | -25.5°C | 24.8% | 409.07hPa | 2.6V | 00:00:00 | 00:00:00 | 00:00:00 | |
| EDDB2-11 | 2026-08-30 07:10:24 | 52.55186 | 15.79176 | 81° | 57km/h | 7235m | -2.1m/s | -25.5°C | 25.0% | 408.9hPa | 2.6V | 00:00:00 | 00:00:00 | 00:00:00 | |
| KRY50SP-1 | 2026-08-30 07:10:21 | 52.55180 | 15.79131 | 76° | 55km/h | 7239m | -2.1m/s | -25.5°C | 25.0% | 408.7hPa | 2.6V | 00:00:00 | 00:00:00 | 00:00:00 | |
| SP6BVK | 2026-08-30 07:10:17 | 52.55162 | 15.79044 | 68° | 58km/h | 7247m | -2.1m/s | -25.6°C | 24.9% | 408.2hPa | 2.6V | 00:00:00 | 00:00:00 | 00:00:00 | |
| DB0DAN | 2026-08-30 07:10:10 | 52.55115 | 15.78836 | 77° | 68km/h | 7265m | -2.5m/s | -25.8°C | 24.8% | 407.19hPa | 2.6V | 00:00:00 | 00:00:00 | 00:00:00 | |
| SP3WXH-11 | 2026-08-30 07:10:09 | 52.55109 | 15.78779 | 81° | 68km/h | 7269m | -2.1m/s | -25.8°C | 24.9% | 407.0hPa | 2.6V | 00:00:00 | 00:00:00 | 00:00:00 | |
| KRY50SP-1 | 2026-08-30 07:10:04 | 52.55103 | 15.78701 | 83° | 58km/h | 7275m | -1.8m/s | -25.8°C | 25.1% | 406.6hPa | 2.6V | 00:00:00 | 00:00:00 | 00:00:00 | |
| SONDE2-11 | 2026-08-30 07:10:02 | 52.55094 | 15.78633 | 74° | 53km/h | 7281m | -2.0m/s | -25.9°C | 25.3% | 406.3hPa | 2.6V | 00:00:00 | 00:00:00 | 00:00:00 | |
| EDDB2-12 | 2026-08-30 07:10:00 | 52.55081 | 15.78568 | 67° | 57km/h | 7287m | -1.8m/s | -26.0°C | 25.2% | 405.9hPa | 2.6V | 00:00:00 | 00:00:00 | 00:00:00 | |
| KRY50SP-1 | 2026-08-30 07:09:59 | 52.55086 | 15.78590 | 70° | 57km/h | 7285m | -1.9m/s | -26.0°C | 25.3% | 406.1hPa | 2.6V | 00:00:00 | 00:00:00 | 00:00:00 | |
| SP6BVK | 2026-08-30 07:09:56 | 52.55069 | 15.78523 | 67° | 62km/h | 7291m | -1.7m/s | -26.0°C | 24.4% | 405.7hPa | 2.6V | 00:00:00 | 00:00:00 | 00:00:00 | |
| DB0DAN | 2026-08-30 07:09:55 | 52.55055 | 15.78474 | 67° | 64km/h | 7294m | -2m/s | -26°C | 23.8% | 405.49hPa | 2.6V | 00:00:00 | 00:00:00 | 00:00:00 | |
| EDDB2-11 | 2026-08-30 07:09:53 | 52.55043 | 15.78421 | 70° | 68km/h | 7298m | -2.4m/s | -26.1°C | 24.0% | 405.2hPa | 2.6V | 00:00:00 | 00:00:00 | 00:00:00 | |
| KRY50SP-1 | 2026-08-30 07:09:49 | 52.55024 | 15.78310 | 79° | 69km/h | 7307m | -2.0m/s | -26.1°C | 24.2% | 404.8hPa | 2.6V | 00:00:00 | 00:00:00 | 00:00:00 | |
| SP3BTT-10 | 2026-08-30 07:09:48 | 52.55021 | 15.78281 | 80° | 64km/h | 7309m | -1.9m/s | -26.1°C | 28.3% | 404.6hPa | 2.6V | 00:00:00 | 00:00:00 | 00:00:00 | |
| KRY50SP-1 | 2026-08-30 07:09:43 | 52.55010 | 15.78175 | 82° | 60km/h | 7317m | -2.4m/s | -26.2°C | 23.2% | 404.1hPa | 2.6V | 00:00:00 | 00:00:00 | 00:00:00 | |
| KRY50SP-1 | 2026-08-30 07:09:38 | 52.54997 | 15.78061 | 76° | 53km/h | 7328m | -2.1m/s | -26.2°C | 20.8% | 403.7hPa | 2.6V | 00:00:00 | 00:00:00 | 00:00:00 | |
| SP3WXH-11 | 2026-08-30 07:09:37 | 52.54989 | 15.78019 | 73° | 53km/h | 7332m | -2.2m/s | -26.2°C | 20.5% | 403.4hPa | 2.6V | 00:00:00 | 00:00:00 | 00:00:00 | |
| SP6BVK | 2026-08-30 07:09:35 | 52.54984 | 15.77998 | 69° | 55km/h | 7334m | -1.9m/s | -26.2°C | 20.4% | 403.3hPa | 2.6V | 00:00:00 | 00:00:00 | 00:00:00 | |
| KRY50SP-1 | 2026-08-30 07:09:33 | 52.54973 | 15.77954 | 69° | 58km/h | 7338m | -2.3m/s | -26.2°C | 19.9% | 403.1hPa | 2.6V | 00:00:00 | 00:00:00 | 00:00:00 | |
| SONDE2-11 | 2026-08-30 07:09:31 | 52.54954 | 15.77883 | 66° | 64km/h | 7343m | -2.0m/s | -26.3°C | 19.7% | 402.7hPa | 2.6V | 00:00:00 | 00:00:00 | 00:00:00 | |
| SQ2ODE-11 | 2026-08-30 07:09:28 | 52.54942 | 15.77831 | 72° | 69km/h | 7347m | -2.2m/s | -26.3°C | 19.7% | 402.4hPa | 2.6V | 00:00:00 | 00:00:00 | 00:00:00 | |
| KRY50SP-1 | 2026-08-30 07:09:27 | 52.54937 | 15.77803 | 73° | 71km/h | 7350m | -2.2m/s | -26.3°C | 19.8% | 402.3hPa | 2.6V | 00:00:00 | 00:00:00 | 00:00:00 | |
| EDDB2-11 | 2026-08-30 07:09:22 | 52.54916 | 15.77639 | 80° | 60km/h | 7361m | -2.6m/s | -26.4°C | 19.8% | 401.6hPa | 2.6V | 00:00:00 | 00:00:00 | 00:00:00 | |
| KRY50SP-1 | 2026-08-30 07:09:17 | 52.54903 | 15.77546 | 75° | 55km/h | 7371m | -2.3m/s | -26.4°C | 19.8% | 401.2hPa | 2.6V | 00:00:00 | 00:00:00 | 00:00:00 | |
| SQ2ODE-11 | 2026-08-30 07:09:16 | 52.54899 | 15.77525 | 74° | 55km/h | 7373m | -2.0m/s | -26.5°C | 19.8% | 401.2hPa | 2.6V | 00:00:00 | 00:00:00 | 00:00:00 | |
| SP6BVK | 2026-08-30 07:09:15 | 52.54895 | 15.77503 | 73° | 55km/h | 7376m | -2.1m/s | -26.5°C | 19.7% | 401.0hPa | 2.6V | 00:00:00 | 00:00:00 | 00:00:00 | |
| KRY50SP-1 | 2026-08-30 07:09:11 | 52.54875 | 15.77414 | 69° | 60km/h | 7384m | -1.9m/s | -26.5°C | 19.9% | 400.6hPa | 2.6V | 00:00:00 | 00:00:00 | 00:00:00 | |
| AA1-15 | 2026-08-30 07:08:54 | 52.54791 | 15.76944 | 81° | 58km/h | 7420m | -1.9m/s | -26.7°C | 21.4% | 398.5hPa | 2.6V | 18:12:15 | 02:51:45 | 00:00:00 | |
| EDDB2-11 | 2026-08-30 07:08:51 | 52.54781 | 15.76876 | 72° | 53km/h | 7426m | -1.9m/s | -26.7°C | 18.0% | 398.2hPa | 2.6V | 00:00:00 | 00:00:00 | 00:00:00 | |
| AA1-15 | 2026-08-30 07:08:38 | 52.54705 | 15.76552 | 77° | 71km/h | 7453m | -2.3m/s | -26.9°C | 21.6% | 396.8hPa | 2.6V | 18:12:15 | 02:51:29 | 00:00:00 | |
| AA1-15 | 2026-08-30 07:08:27 | 52.54664 | 15.76281 | 70° | 58km/h | 7475m | -2.2m/s | -27.1°C | 23.2% | 395.6hPa | 2.6V | 18:12:15 | 02:51:18 | 00:00:00 | |
| DB0DAN | 2026-08-30 07:08:25 | 52.54653 | 15.76236 | 67° | 58km/h | 7479m | -2.4m/s | -27.1°C | 18.8% | 395.29hPa | 2.6V | 00:00:00 | 00:00:00 | 00:00:00 | |
| AA1-15 | 2026-08-30 07:08:17 | 52.54602 | 15.76023 | 75° | 73km/h | 7496m | -2.3m/s | -27.2°C | 20.1% | 394.3hPa | 2.5V | 18:12:15 | 02:51:08 | 00:00:00 | |
| KRY50SP-1 | 2026-08-30 07:08:16 | 52.54602 | 15.76023 | 76° | 73km/h | 7496m | -2.3m/s | -27.2°C | 16.7% | 394.3hPa | 2.6V | 00:00:00 | 00:00:00 | 00:00:00 | |
| SP6BVK | 2026-08-30 07:08:14 | 52.54593 | 15.75965 | 80° | 71km/h | 7501m | -2.5m/s | -27.3°C | 16.7% | 394.1hPa | 2.6V | 00:00:00 | 00:00:00 | 00:00:00 | |
| DB0DAN | 2026-08-30 07:08:10 | 52.54579 | 15.75832 | 80° | 57km/h | 7512m | -1.7m/s | -27.3°C | 16.5% | 393.58hPa | 2.6V | 00:00:00 | 00:00:00 | 00:00:00 | |
| AA1-15 | 2026-08-30 07:08:06 | 52.54564 | 15.75740 | 71° | 58km/h | 7519m | -1.5m/s | -27.4°C | 19.8% | 393.2hPa | 2.5V | 18:12:15 | 02:50:57 | 00:00:00 | |
| AA1-15 | 2026-08-30 07:07:56 | 52.54502 | 15.75478 | 73° | 73km/h | 7536m | -1.9m/s | -27.5°C | 19.7% | 392.1hPa | 2.6V | 18:12:15 | 02:50:47 | 00:00:00 | |
| EDDB2-12 | 2026-08-30 07:07:56 | 52.54497 | 15.75449 | 75° | 73km/h | 7538m | -1.9m/s | -27.5°C | 16.4% | 392.1hPa | 2.6V | 00:00:00 | 00:00:00 | 00:00:00 | |
| DB0DAN | 2026-08-30 07:07:55 | 52.54497 | 15.75449 | 76° | 69km/h | 7538m | -1.9m/s | -27.5°C | 16.4% | 392.08hPa | 2.6V | 00:00:00 | 00:00:00 | 00:00:00 | |
| AA1-15 | 2026-08-30 07:07:45 | 52.54465 | 15.75183 | 75° | 57km/h | 7559m | -1.6m/s | -27.6°C | 19.7% | 390.9hPa | 2.6V | 18:12:15 | 02:50:36 | 00:00:00 | |
| KRY50SP-1 | 2026-08-30 07:07:44 | 52.54465 | 15.75183 | 76° | 57km/h | 7559m | -1.6m/s | -27.6°C | 16.4% | 390.9hPa | 2.6V | 00:00:00 | 00:00:00 | 00:00:00 | |
| DB0DAN | 2026-08-30 07:07:40 | 52.54441 | 15.75070 | 66° | 57km/h | 7569m | -2m/s | -27.6°C | 16.4% | 390.36hPa | 2.6V | 00:00:00 | 00:00:00 | 00:00:00 | |
| AA1-15 | 2026-08-30 07:07:34 | 52.54401 | 15.74916 | 71° | 73km/h | 7581m | -2.1m/s | -27.7°C | 19.6% | 389.7hPa | 2.5V | 18:12:15 | 02:50:25 | 00:00:00 | |
| KRY50SP-1 | 2026-08-30 07:07:28 | 52.54376 | 15.74772 | 80° | 69km/h | 7591m | -2.1m/s | -27.8°C | 16.4% | 389.2hPa | 2.6V | 00:00:00 | 00:00:00 | 00:00:00 | |
| SONDE2-11 | 2026-08-30 07:07:27 | 52.54370 | 15.74715 | 81° | 66km/h | 7595m | -1.8m/s | -27.8°C | 16.3% | 389.0hPa | 2.6V | 00:00:00 | 00:00:00 | 00:00:00 | |
| DAC517 | 2026-08-30 07:07:26 | 52.54370 | 15.74715 | 82° | 68km/h | 7595m | -1.8m/s | -27.8°C | 16.3% | 389.0hPa | 2.6V | 00:00:00 | 00:00:00 | 00:00:00 | |
| DB0DAN | 2026-08-30 07:07:25 | 52.54365 | 15.74663 | 81° | 60km/h | 7599m | -2.4m/s | -27.8°C | 16.1% | 388.69hPa | 2.6V | 00:00:00 | 00:00:00 | 00:00:00 | |
| AA1-15 | 2026-08-30 07:07:23 | 52.54360 | 15.74613 | 77° | 58km/h | 7603m | -2.3m/s | -27.8°C | 19.2% | 388.5hPa | 2.5V | 18:12:15 | 02:50:14 | 00:00:00 | |
| KRY50SP-1 | 2026-08-30 07:07:17 | 52.54340 | 15.74499 | 69° | 58km/h | 7614m | -1.9m/s | -27.9°C | 15.9% | 387.9hPa | 2.6V | 00:00:00 | 00:00:00 | 00:00:00 | |
| KRY50SP-1 | 2026-08-30 07:07:12 | 52.54308 | 15.74375 | 69° | 69km/h | 7624m | -2.0m/s | -28.0°C | 15.9% | 387.4hPa | 2.6V | 00:00:00 | 00:00:00 | 00:00:00 | |
| SP6BVK | 2026-08-30 07:07:11 | 52.54301 | 15.74347 | 71° | 71km/h | 7625m | -2.2m/s | -28.0°C | 15.9% | 387.3hPa | 2.6V | 00:00:00 | 00:00:00 | 00:00:00 | |
| DB0DAN | 2026-08-30 07:07:10 | 52.54290 | 15.74292 | 72° | 69km/h | 7629m | -2.2m/s | -28°C | 15.9% | 387.11hPa | 2.6V | 00:00:00 | 00:00:00 | 00:00:00 | |
| SONDE2-12 | 2026-08-30 07:07:03 | 52.54264 | 15.74092 | 82° | 66km/h | 7642m | -2.1m/s | -28.1°C | 18.0% | 386.3hPa | 2.5V | 00:00:00 | 00:00:00 | 00:00:00 | |
| SP3WXH-11 | 2026-08-30 07:07:02 | 52.54262 | 15.74065 | 80° | 64km/h | 7644m | -2.5m/s | -28.1°C | 15.9% | 386.3hPa | 2.5V | 00:00:00 | 00:00:00 | 00:00:00 | |
| KRY50SP-1 | 2026-08-30 07:07:01 | 52.54261 | 15.74065 | 82° | 64km/h | 7645m | -2.5m/s | -28.1°C | 15.9% | 386.3hPa | 2.5V | 00:00:00 | 00:00:00 | 00:00:00 | |
| SONDE2-11 | 2026-08-30 07:06:56 | 52.54244 | 15.73924 | 72° | 55km/h | 7658m | -2.3m/s | -28.3°C | 16.0% | 385.6hPa | 2.5V | 00:00:00 | 00:00:00 | 00:00:00 | |
| DB0DAN | 2026-08-30 07:06:55 | 52.54239 | 15.73902 | 70° | 53km/h | 7660m | -1.9m/s | -28.3°C | 16% | 385.45hPa | 2.5V | 00:00:00 | 00:00:00 | 00:00:00 | |
| EDDB2-12 | 2026-08-30 07:06:54 | 52.54228 | 15.73857 | 68° | 60km/h | 7664m | -1.9m/s | -28.3°C | 16.0% | 385.3hPa | 2.6V | 00:00:00 | 00:00:00 | 00:00:00 | |
| EDDB2-11 | 2026-08-30 07:06:47 | 52.54188 | 15.73669 | 77° | 71km/h | 7677m | -1.8m/s | -28.4°C | 16.1% | 384.5hPa | 2.6V | 00:00:00 | 00:00:00 | 00:00:00 | |
| AA1-15 | 2026-08-30 07:06:42 | 52.54175 | 15.73555 | 81° | 66km/h | 7684m | -2.5m/s | -28.5°C | 19.3% | 384.2hPa | 2.6V | 18:12:15 | 02:49:33 | 00:00:00 | |
| DB0DAN | 2026-08-30 07:06:40 | 52.54170 | 15.73503 | 83° | 58km/h | 7688m | -1.8m/s | -28.5°C | 16% | 383.92hPa | 2.5V | 00:00:00 | 00:00:00 | 00:00:00 | |
| AA1-15 | 2026-08-30 07:06:31 | 52.54136 | 15.73297 | 69° | 62km/h | 7707m | -2.2m/s | -28.6°C | 19.2% | 383hPa | 2.6V | 18:12:15 | 02:49:22 | 00:00:00 | |
| KRY50SP-1 | 2026-08-30 07:06:27 | 52.54116 | 15.73221 | 70° | 69km/h | 7712m | -2.2m/s | -28.7°C | 15.8% | 382.7hPa | 2.5V | 00:00:00 | 00:00:00 | 00:00:00 | |
| DB0DAN | 2026-08-30 07:06:25 | 52.54099 | 15.73138 | 73° | 69km/h | 7718m | -2.5m/s | -28.7°C | 15.4% | 382.34hPa | 2.5V | 00:00:00 | 00:00:00 | 00:00:00 | |
| AA1-15 | 2026-08-30 07:06:18 | 52.54075 | 15.72942 | 83° | 64km/h | 7732m | -1.8m/s | -28.8°C | 18.3% | 381.6hPa | 2.5V | 18:12:15 | 02:49:09 | 00:00:00 | |
| EDDB2-11 | 2026-08-30 07:06:16 | 52.54068 | 15.72869 | 80° | 57km/h | 7738m | -2.1m/s | -28.8°C | 15.3% | 381.3hPa | 2.6V | 00:00:00 | 00:00:00 | 00:00:00 | |
| DB0DAN | 2026-08-30 07:06:10 | 52.54047 | 15.72757 | 67° | 55km/h | 7747m | -2m/s | -28.9°C | 15.2% | 380.77hPa | 2.6V | 00:00:00 | 00:00:00 | 00:00:00 | |
| AA1-15 | 2026-08-30 07:06:07 | 52.54028 | 15.72686 | 66° | 66km/h | 7753m | -2.3m/s | -28.9°C | 18.6% | 380.5hPa | 2.6V | 18:12:15 | 02:48:58 | 00:00:00 | |
| AA1-15 | 2026-08-30 07:05:57 | 52.53979 | 15.72408 | 81° | 64km/h | 7771m | -2.5m/s | -29.1°C | 18.6% | 379.4hPa | 2.5V | 18:12:15 | 02:48:48 | 00:00:00 | |
| DB0DAN | 2026-08-30 07:05:55 | 52.53974 | 15.72358 | 81° | 57km/h | 7776m | -1.7m/s | -29.1°C | 15.4% | 379.12hPa | 2.6V | 00:00:00 | 00:00:00 | 00:00:00 | |
| AA1-15 | 2026-08-30 07:05:46 | 52.53930 | 15.72151 | 67° | 66km/h | 7794m | -1.8m/s | -29.3°C | 18.6% | 378.3hPa | 2.5V | 18:12:15 | 02:48:37 | 00:00:00 | |
| EDDB2-11 | 2026-08-30 07:05:45 | 52.53917 | 15.72098 | 68° | 69km/h | 7796m | -1.9m/s | -29.3°C | 15.4% | 378.0hPa | 2.5V | 00:00:00 | 00:00:00 | 00:00:00 | |
| KRY50SP-1 | 2026-08-30 07:05:44 | 52.53923 | 15.72125 | 69° | 69km/h | 7795m | -2.3m/s | -29.3°C | 15.5% | 378.2hPa | 2.5V | 00:00:00 | 00:00:00 | 00:00:00 | |
| DB0DAN | 2026-08-30 07:05:40 | 52.53896 | 15.71984 | 76° | 68km/h | 7804m | -1.9m/s | -29.3°C | 15.6% | 377.63hPa | 2.5V | 00:00:00 | 00:00:00 | 00:00:00 | |
| AA1-15 | 2026-08-30 07:05:35 | 52.53882 | 15.71844 | 83° | 62km/h | 7812m | -1.7m/s | -29.4°C | 19.4% | 377hPa | 2.6V | 18:12:15 | 02:48:26 | 00:00:00 | |
| KRY50SP-1 | 2026-08-30 07:05:33 | 52.53880 | 15.71819 | 83° | 60km/h | 7814m | -2.5m/s | -29.4°C | 16.0% | 377.0hPa | 2.5V | 00:00:00 | 00:00:00 | 00:00:00 | |
| SP3WXH-11 | 2026-08-30 07:05:29 | 52.53864 | 15.71706 | 69° | 53km/h | 7825m | -2.0m/s | -29.5°C | 16.3% | 376.5hPa | 2.5V | 00:00:00 | 00:00:00 | 00:00:00 | |
| SP6BVK | 2026-08-30 07:05:28 | 52.53864 | 15.71706 | 71° | 55km/h | 7825m | -2.0m/s | -29.5°C | 16.3% | 376.5hPa | 2.5V | 00:00:00 | 00:00:00 | 00:00:00 | |
| KRY50SP-1 | 2026-08-30 07:05:27 | 52.53859 | 15.71684 | 68° | 57km/h | 7827m | -1.9m/s | -29.5°C | 16.5% | 376.4hPa | 2.5V | 00:00:00 | 00:00:00 | 00:00:00 | |
| DB0DAN | 2026-08-30 07:05:25 | 52.53840 | 15.71613 | 67° | 64km/h | 7832m | -1.9m/s | -29.6°C | 16.6% | 376.03hPa | 2.5V | 00:00:00 | 00:00:00 | 00:00:00 | |
| AA1-15 | 2026-08-30 07:05:24 | 52.53833 | 15.71587 | 68° | 69km/h | 7834m | -2m/s | -29.6°C | 20.4% | 375.9hPa | 2.6V | 18:12:15 | 02:48:15 | 00:00:00 | |
| AA1-15 | 2026-08-30 07:05:13 | 52.53792 | 15.71287 | 78° | 57km/h | 7856m | -1.9m/s | -29.8°C | 21.6% | 374.7hPa | 2.5V | 18:12:15 | 02:48:04 | 00:00:00 | |
| KRY50SP-1 | 2026-08-30 07:05:11 | 52.53789 | 15.71265 | 76° | 55km/h | 7858m | -2.0m/s | -29.8°C | 18.6% | 374.6hPa | 2.6V | 00:00:00 | 00:00:00 | 00:00:00 | |
| DB0DAN | 2026-08-30 07:05:10 | 52.53781 | 15.71221 | 71° | 53km/h | 7861m | -2.2m/s | -29.8°C | 18.7% | 374.41hPa | 2.6V | 00:00:00 | 00:00:00 | 00:00:00 | |
| AA1-15 | 2026-08-30 07:05:02 | 52.53731 | 15.71036 | 66° | 71km/h | 7878m | -2.3m/s | -30°C | 23% | 373.5hPa | 2.5V | 18:12:15 | 02:47:53 | 00:00:00 | |
| SONDE2-12 | 2026-08-30 07:04:59 | 52.53691 | 15.70809 | 82° | 64km/h | 7895m | -1.9m/s | -30.1°C | 21.2% | 372.6hPa | 2.5V | 00:00:00 | 00:00:00 | 00:00:00 | |
| SP3WXH-11 | 2026-08-30 07:04:58 | 52.53706 | 15.70923 | 74° | 71km/h | 7887m | -2.3m/s | -30.1°C | 19.5% | 373.1hPa | 2.5V | 00:00:00 | 00:00:00 | 00:00:00 | |
| DB0DAN | 2026-08-30 07:04:55 | 52.53694 | 15.70837 | 80° | 64km/h | 7893m | -2m/s | -30.1°C | 18.6% | 372.84hPa | 2.5V | 00:00:00 | 00:00:00 | 00:00:00 | |
| AA1-15 | 2026-08-30 07:04:51 | 52.53684 | 15.70734 | 81° | 57km/h | 7901m | -1.9m/s | -30.1°C | 22.3% | 372.4hPa | 2.6V | 18:12:15 | 02:47:42 | 00:00:00 | |
| EDDB2-12 | 2026-08-30 07:04:49 | 52.53678 | 15.70689 | 74° | 53km/h | 7905m | -2.4m/s | -30.2°C | 18.6% | 372.1hPa | 2.6V | 00:00:00 | 00:00:00 | 00:00:00 | |
| AA1-15 | 2026-08-30 07:04:41 | 52.53632 | 15.70512 | 65° | 68km/h | 7921m | -2.4m/s | -30.3°C | 21% | 371.2hPa | 2.6V | 18:12:15 | 02:47:32 | 00:00:00 | |
| DB0DAN | 2026-08-30 07:04:40 | 52.53624 | 15.70485 | 67° | 68km/h | 7924m | -2.2m/s | -30.4°C | 17.2% | 371.15hPa | 2.6V | 00:00:00 | 00:00:00 | 00:00:00 | |
| AA1-15 | 2026-08-30 07:04:30 | 52.53583 | 15.70210 | 80° | 58km/h | 7946m | -2.2m/s | -30.5°C | 20.8% | 370.1hPa | 2.5V | 18:12:15 | 02:47:21 | 00:00:00 | |
| SONDE2-12 | 2026-08-30 07:04:28 | 52.53551 | 15.70056 | 63° | 60km/h | 7961m | -2.4m/s | -30.6°C | 19.5% | 369.2hPa | 2.5V | 00:00:00 | 00:00:00 | 00:00:00 | |
| SP3WXH-11 | 2026-08-30 07:04:27 | 52.53573 | 15.70143 | 72° | 53km/h | 7952m | -2.4m/s | -30.5°C | 17.1% | 369.6hPa | 2.5V | 00:00:00 | 00:00:00 | 00:00:00 | |
| SP6BVK | 2026-08-30 07:04:26 | 52.53573 | 15.70142 | 73° | 53km/h | 7952m | -2.4m/s | -30.5°C | 17.2% | 369.6hPa | 2.5V | 00:00:00 | 00:00:00 | 00:00:00 | |
| DB0DAN | 2026-08-30 07:04:25 | 52.53563 | 15.70100 | 67° | 55km/h | 7956m | -2m/s | -30.5°C | 17.2% | 369.43hPa | 2.5V | 00:00:00 | 00:00:00 | 00:00:00 | |
| AA1-15 | 2026-08-30 07:04:19 | 52.53523 | 15.69958 | 67° | 71km/h | 7970m | -2m/s | -30.6°C | 20.8% | 368.7hPa | 2.5V | 18:12:15 | 02:47:10 | 00:00:00 | |
| EDDB2-12 | 2026-08-30 07:04:18 | 52.53516 | 15.69930 | 69° | 71km/h | 7971m | -2.3m/s | -30.6°C | 17.4% | 368.7hPa | 2.6V | 00:00:00 | 00:00:00 | 00:00:00 | |
| KRY50SP-1 | 2026-08-30 07:04:16 | 52.53510 | 15.69902 | 72° | 73km/h | 7974m | -2.2m/s | -30.6°C | 17.4% | 368.5hPa | 2.6V | 00:00:00 | 00:00:00 | 00:00:00 | |
| KRY50SP-1 | 2026-08-30 07:04:11 | 52.53488 | 15.69759 | 81° | 68km/h | 7985m | -2.6m/s | -30.7°C | 17.3% | 368.0hPa | 2.6V | 00:00:00 | 00:00:00 | 00:00:00 | |
| DB0DAN | 2026-08-30 07:04:10 | 52.53483 | 15.69706 | 84° | 60km/h | 7989m | -2.1m/s | -30.8°C | 17.3% | 367.8hPa | 2.6V | 00:00:00 | 00:00:00 | 00:00:00 | |
| AA1-15 | 2026-08-30 07:04:08 | 52.53479 | 15.69655 | 81° | 58km/h | 7993m | -2.3m/s | -30.8°C | 21.1% | 367.6hPa | 2.5V | 18:12:15 | 02:46:59 | 00:00:00 | |
| AA1-15 | 2026-08-30 07:03:57 | 52.53421 | 15.69406 | 67° | 69km/h | 8016m | -2.2m/s | -30.9°C | 20.9% | 366.3hPa | 2.6V | 18:12:15 | 02:46:48 | 00:00:00 | |
| AA1-15 | 2026-08-30 07:03:47 | 52.53381 | 15.69137 | 80° | 57km/h | 8038m | -2.5m/s | -31.1°C | 21.1% | 365.2hPa | 2.6V | 18:12:15 | 02:46:38 | 00:00:00 | |
| SP3BTT-10 | 2026-08-30 07:03:46 | 52.53378 | 15.69114 | 80° | 58km/h | 8040m | -2.2m/s | -31.0°C | 21.0% | 365.1hPa | 2.6V | 00:00:00 | 00:00:00 | 00:00:00 | |
| KRY50SP-1 | 2026-08-30 07:03:45 | 52.53378 | 15.69114 | 80° | 55km/h | 8040m | -2.3m/s | -31.1°C | 17.3% | 365.1hPa | 2.6V | 00:00:00 | 00:00:00 | 00:00:00 | |
| SP6BVK | 2026-08-30 07:03:44 | 52.53375 | 15.69092 | 80° | 53km/h | 8042m | -2.4m/s | -31.1°C | 17.3% | 365.0hPa | 2.6V | 00:00:00 | 00:00:00 | 00:00:00 | |
| DB0DAN | 2026-08-30 07:03:40 | 52.53354 | 15.68989 | 63° | 53km/h | 8053m | -2.5m/s | -31.2°C | 17.3% | 364.35hPa | 2.6V | 00:00:00 | 00:00:00 | 00:00:00 | |
| AA1-15 | 2026-08-30 07:03:36 | 52.53327 | 15.68897 | 67° | 68km/h | 8062m | -2.4m/s | -31.3°C | 21.2% | 363.9hPa | 2.6V | 18:12:15 | 02:46:27 | 00:00:00 | |
| AA1-15 | 2026-08-30 07:03:26 | 52.53284 | 15.68631 | 81° | 58km/h | 8086m | -2.3m/s | -31.4°C | 24.2% | 362.8hPa | 2.5V | 18:12:15 | 02:46:17 | 00:00:00 | |
| DB0DAN | 2026-08-30 07:03:25 | 52.53282 | 15.68607 | 81° | 55km/h | 8088m | -2.2m/s | -31.4°C | 20.4% | 362.67hPa | 2.5V | 00:00:00 | 00:00:00 | 00:00:00 | |
| AA1-15 | 2026-08-30 07:03:15 | 52.53241 | 15.68399 | 62° | 60km/h | 8110m | -2.1m/s | -31.6°C | 28.8% | 361.4hPa | 2.5V | 18:12:15 | 02:46:06 | 00:00:00 | |
| KRY50SP-1 | 2026-08-30 07:03:11 | 52.53219 | 15.68329 | 67° | 66km/h | 8116m | -2.5m/s | -31.7°C | 24.6% | 361.2hPa | 2.5V | 00:00:00 | 00:00:00 | 00:00:00 | |
| DB0DAN | 2026-08-30 07:03:10 | 52.53206 | 15.68277 | 70° | 66km/h | 8121m | -2.4m/s | -31.7°C | 24.8% | 360.85hPa | 2.5V | 00:00:00 | 00:00:00 | 00:00:00 | |
| AA1-15 | 2026-08-30 07:03:04 | 52.53184 | 15.68119 | 81° | 60km/h | 8135m | -2m/s | -31.8°C | 29.6% | 360.2hPa | 2.5V | 18:12:15 | 02:45:55 | 00:00:00 | |
| SP6BVK | 2026-08-30 07:03:03 | 52.53184 | 15.68119 | 82° | 60km/h | 8135m | -2.0m/s | -31.8°C | 25.1% | 360.2hPa | 2.6V | 00:00:00 | 00:00:00 | 00:00:00 | |
| S3001 | 2026-08-30 07:03:02 | 52.53154 | 15.67929 | 62° | 53km/h | 8155m | -2.5m/s | -32.0°C | 25.4% | 359.0hPa | 2.6V | 00:00:00 | 00:00:00 | 00:00:00 | |
| KRY50SP-1 | 2026-08-30 07:03:00 | 52.53177 | 15.68049 | 82° | 55km/h | 8142m | -2.3m/s | -31.9°C | 25.3% | 359.9hPa | 2.6V | 00:00:00 | 00:00:00 | 00:00:00 | |
| DB0DAN | 2026-08-30 07:02:55 | 52.53154 | 15.67929 | 62° | 51km/h | 8155m | -2.5m/s | -32°C | 25.4% | 359.04hPa | 2.6V | 00:00:00 | 00:00:00 | 00:00:00 | |
| AA1-15 | 2026-08-30 07:02:53 | 52.53141 | 15.67888 | 63° | 58km/h | 8160m | -2.5m/s | -32.1°C | 30% | 358.8hPa | 2.5V | 18:12:15 | 02:45:44 | 00:00:00 | |
| SONDE2-11 | 2026-08-30 07:02:48 | 52.53102 | 15.67740 | 72° | 68km/h | 8174m | -2.7m/s | -32.2°C | 25.9% | 358.1hPa | 2.5V | 00:00:00 | 00:00:00 | 00:00:00 | |
| EDDB2-12 | 2026-08-30 07:02:45 | 52.53093 | 15.67686 | 78° | 66km/h | 8178m | -2.6m/s | -32.3°C | 26.0% | 357.9hPa | 2.5V | 00:00:00 | 00:00:00 | 00:00:00 | |
| AA1-15 | 2026-08-30 07:02:42 | 52.53084 | 15.67607 | 81° | 62km/h | 8185m | -2.4m/s | -32.3°C | 30.6% | 357.5hPa | 2.5V | 18:12:15 | 02:45:33 | 00:00:00 | |
| DB0DAN | 2026-08-30 07:02:40 | 52.53079 | 15.67559 | 82° | 53km/h | 8190m | -2.6m/s | -32.4°C | 26.2% | 357.33hPa | 2.6V | 00:00:00 | 00:00:00 | 00:00:00 | |
| AA1-15 | 2026-08-30 07:02:32 | 52.53047 | 15.67399 | 63° | 55km/h | 8208m | -2.5m/s | -32.6°C | 31% | 356.3hPa | 2.6V | 18:12:15 | 02:45:23 | 00:00:00 | |
| S3001 | 2026-08-30 07:02:31 | 52.53041 | 15.67379 | 62° | 57km/h | 8211m | -2.8m/s | -32.6°C | 26.5% | 356.2hPa | 2.6V | 00:00:00 | 00:00:00 | 00:00:00 | |
| KRY50SP-1 | 2026-08-30 07:02:27 | 52.53020 | 15.67310 | 68° | 66km/h | 8218m | -2.6m/s | -32.6°C | 26.7% | 355.8hPa | 2.6V | 00:00:00 | 00:00:00 | 00:00:00 | |
| DB0DAN | 2026-08-30 07:02:25 | 52.53002 | 15.67233 | 75° | 64km/h | 8225m | -2.8m/s | -32.7°C | 26.9% | 355.53hPa | 2.6V | 00:00:00 | 00:00:00 | 00:00:00 | |
| AA1-15 | 2026-08-30 07:02:21 | 52.52987 | 15.67127 | 80° | 62km/h | 8235m | -2.7m/s | -32.8°C | 31.5% | 355hPa | 2.5V | 18:12:15 | 02:45:12 | 00:00:00 | |
| KRY50SP-1 | 2026-08-30 07:02:16 | 52.52977 | 15.67035 | 81° | 51km/h | 8245m | -2.7m/s | -32.9°C | 27.4% | 354.6hPa | 2.6V | 00:00:00 | 00:00:00 | 00:00:00 | |
| EDDB2-12 | 2026-08-30 07:02:14 | 52.52967 | 15.66976 | 67° | 47km/h | 8252m | -2.3m/s | -33.0°C | 27.4% | 354.2hPa | 2.6V | 00:00:00 | 00:00:00 | 00:00:00 | |
| KRY50SP-1 | 2026-08-30 07:02:11 | 52.52957 | 15.66938 | 66° | 51km/h | 8257m | -2.2m/s | -33.0°C | 27.4% | 354.0hPa | 2.6V | 00:00:00 | 00:00:00 | 00:00:00 | |
| DB0DAN | 2026-08-30 07:02:10 | 52.52944 | 15.66899 | 61° | 53km/h | 8261m | -2.4m/s | -33.1°C | 27.3% | 353.66hPa | 2.6V | 00:00:00 | 00:00:00 | 00:00:00 | |
| AA1-15 | 2026-08-30 07:02:10 | 52.52944 | 15.66899 | 61° | 55km/h | 8261m | -2.4m/s | -33.1°C | 32.3% | 353.7hPa | 2.6V | 18:12:15 | 02:45:01 | 00:00:00 | |
| AA1-15 | 2026-08-30 07:01:59 | 52.52882 | 15.66631 | 79° | 60km/h | 8288m | -2.8m/s | -33.3°C | 32.3% | 352.4hPa | 2.6V | 18:12:15 | 02:44:50 | 00:00:00 | |
| DB0DAN | 2026-08-30 07:01:55 | 52.52872 | 15.66541 | 80° | 49km/h | 8298m | -2.8m/s | -33.4°C | 28.6% | 351.97hPa | 2.5V | 00:00:00 | 00:00:00 | 00:00:00 | |
| AA1-15 | 2026-08-30 07:01:49 | 52.52852 | 15.66427 | 63° | 47km/h | 8312m | -2.9m/s | -33.5°C | 33.7% | 351.2hPa | 2.5V | 18:12:15 | 02:44:40 | 00:00:00 | |
| SONDE2-11 | 2026-08-30 07:01:46 | 52.52826 | 15.66352 | 60° | 57km/h | 8322m | -2.2m/s | -33.6°C | 28.5% | 350.7hPa | 2.6V | 00:00:00 | 00:00:00 | 00:00:00 | |
| EDDB2-12 | 2026-08-30 07:01:44 | 52.52811 | 15.66308 | 62° | 62km/h | 8326m | -2.1m/s | -33.7°C | 28.7% | 350.4hPa | 2.6V | 00:00:00 | 00:00:00 | 00:00:00 | |
| SP6BVK | 2026-08-30 07:01:41 | 52.52804 | 15.66284 | 67° | 64km/h | 8328m | -2.7m/s | -33.7°C | 28.9% | 350.4hPa | 2.6V | 00:00:00 | 00:00:00 | 00:00:00 | |
| DB0DAN | 2026-08-30 07:01:40 | 52.52792 | 15.66235 | 70° | 60km/h | 8333m | -2.3m/s | -33.7°C | 29.2% | 350.17hPa | 2.6V | 00:00:00 | 00:00:00 | 00:00:00 | |
| AA1-15 | 2026-08-30 07:01:38 | 52.52782 | 15.66186 | 75° | 62km/h | 8338m | -2.5m/s | -33.8°C | 33.6% | 349.9hPa | 2.5V | 18:12:15 | 02:44:29 | 00:00:00 | |
| AA1-15 | 2026-08-30 07:01:27 | 52.52749 | 15.65959 | 63° | 46km/h | 8362m | -2.9m/s | -34°C | 35.2% | 348.6hPa | 2.5V | 18:12:15 | 02:44:18 | 00:00:00 | |
| DB0DAN | 2026-08-30 07:01:25 | 52.52737 | 15.65925 | 57° | 47km/h | 8367m | -2.8m/s | -34.1°C | 30.3% | 348.37hPa | 2.6V | 00:00:00 | 00:00:00 | 00:00:00 | |
| AA1-15 | 2026-08-30 07:01:16 | 52.52678 | 15.65724 | 76° | 62km/h | 8390m | -2.3m/s | -34.2°C | 35.7% | 347.3hPa | 2.6V | 18:12:15 | 02:44:07 | 00:00:00 | |
| SONDE2-11 | 2026-08-30 07:01:14 | 52.52671 | 15.65675 | 77° | 58km/h | 8394m | -2.3m/s | -34.3°C | 31.5% | 347.1hPa | 2.6V | 00:00:00 | 00:00:00 | 00:00:00 | |
| KRY50SP-1 | 2026-08-30 07:01:13 | 52.52668 | 15.65651 | 79° | 57km/h | 8397m | -2.6m/s | -34.3°C | 31.7% | 347.0hPa | 2.6V | 00:00:00 | 00:00:00 | 00:00:00 | |
| EDDB2-12 | 2026-08-30 07:01:12 | 52.52665 | 15.65629 | 79° | 53km/h | 8399m | -2.6m/s | -34.3°C | 31.8% | 346.9hPa | 2.6V | 00:00:00 | 00:00:00 | 00:00:00 | |
| DB0DAN | 2026-08-30 07:01:10 | 52.52659 | 15.65587 | 76° | 46km/h | 8403m | -2.3m/s | -34.4°C | 32% | 346.59hPa | 2.6V | 00:00:00 | 00:00:00 | 00:00:00 | |
| AA1-15 | 2026-08-30 07:01:05 | 52.52639 | 15.65501 | 64° | 44km/h | 8414m | -2.4m/s | -34.5°C | 37.3% | 346hPa | 2.6V | 18:12:15 | 02:43:56 | 00:00:00 | |
| KRY50SP-1 | 2026-08-30 07:01:01 | 52.52621 | 15.65449 | 60° | 51km/h | 8421m | -2.8m/s | -34.6°C | 32.2% | 345.7hPa | 2.6V | 00:00:00 | 00:00:00 | 00:00:00 | |
| S3001 | 2026-08-30 07:00:58 | 52.52585 | 15.65342 | 66° | 62km/h | 8433m | -2.7m/s | -34.7°C | 32.4% | 345.1hPa | 2.6V | 00:00:00 | 00:00:00 | 00:00:00 | |
| KRY50SP-1 | 2026-08-30 07:00:56 | 52.52586 | 15.65342 | 68° | 62km/h | 8434m | -2.7m/s | -34.7°C | 32.4% | 345.1hPa | 2.6V | 00:00:00 | 00:00:00 | 00:00:00 | |
| DB0DAN | 2026-08-30 07:00:55 | 52.52574 | 15.65294 | 74° | 58km/h | 8439m | -2.7m/s | -34.7°C | 32.7% | 344.88hPa | 2.6V | 00:00:00 | 00:00:00 | 00:00:00 | |
| AA1-15 | 2026-08-30 07:00:54 | 52.52570 | 15.65269 | 76° | 58km/h | 8441m | -2.2m/s | -34.7°C | 36.9% | 344.8hPa | 2.6V | 18:12:15 | 02:43:45 | 00:00:00 | |
| SP3WXH-11 | 2026-08-30 07:00:50 | 52.52558 | 15.65182 | 79° | 49km/h | 8450m | -2.0m/s | -34.8°C | 33.4% | 344.4hPa | 2.5V | 00:00:00 | 00:00:00 | 00:00:00 | |
| AA1-15 | 2026-08-30 07:00:43 | 52.52530 | 15.65060 | 61° | 46km/h | 8465m | -2.6m/s | -35°C | 39% | 343.5hPa | 2.5V | 18:12:15 | 02:43:34 | 00:00:00 | |
| DB0DAN | 2026-08-30 07:00:40 | 52.52510 | 15.65009 | 57° | 49km/h | 8472m | -2.6m/s | -35.1°C | 33.9% | 343.13hPa | 2.6V | 00:00:00 | 00:00:00 | 00:00:00 | |
| AA1-15 | 2026-08-30 07:00:27 | 52.52443 | 15.64730 | 75° | 46km/h | 8504m | -2.3m/s | -35.3°C | 40.3% | 341.7hPa | 2.6V | 18:12:15 | 02:43:18 | 00:00:00 | |
| DB0DAN | 2026-08-30 07:00:25 | 52.52437 | 15.64695 | 72° | 40km/h | 8508m | -2.6m/s | -35.4°C | 36% | 341.38hPa | 2.6V | 00:00:00 | 00:00:00 | 00:00:00 | |
| SONDE2-12 | 2026-08-30 07:00:20 | 52.52381 | 15.64546 | 58° | 57km/h | 8530m | -2.3m/s | -35.5°C | 41.9% | 340.4hPa | 2.5V | 00:00:00 | 00:00:00 | 00:00:00 | |
| AA1-15 | 2026-08-30 07:00:12 | 52.52353 | 15.64458 | 68° | 58km/h | 8539m | -2.5m/s | -35.6°C | 40.9% | 339.9hPa | 2.5V | 18:12:15 | 02:43:03 | 00:00:00 | |
| DB0DAN | 2026-08-30 07:00:10 | 52.52345 | 15.64415 | 72° | 51km/h | 8544m | -2.4m/s | -35.7°C | 37.5% | 339.72hPa | 2.6V | 00:00:00 | 00:00:00 | 00:00:00 | |
| SQ2ODE-11 | 2026-08-30 07:00:09 | 52.52345 | 15.64415 | 73° | 53km/h | 8544m | -2.4m/s | -35.6°C | 37.5% | 339.7hPa | 2.6V | 00:00:00 | 00:00:00 | 00:00:00 | |
| KRY50SP-1 | 2026-08-30 07:00:07 | 52.52337 | 15.64374 | 76° | 49km/h | 8548m | -2.4m/s | -35.7°C | 37.8% | 339.5hPa | 2.6V | 00:00:00 | 00:00:00 | 00:00:00 | |
| EDDB2-11 | 2026-08-30 07:00:03 | 52.52319 | 15.64289 | 64° | 40km/h | 8558m | -2.7m/s | -35.8°C | 38.0% | 338.9hPa | 2.6V | 00:00:00 | 00:00:00 | 00:00:00 | |
| SQ2ODE-11 | 2026-08-30 07:00:02 | 52.52319 | 15.64288 | 66° | 40km/h | 8559m | -2.7m/s | -35.8°C | 38.0% | 338.9hPa | 2.6V | 00:00:00 | 00:00:00 | 00:00:00 | |
| KRY50SP-1 | 2026-08-30 07:00:01 | 52.52314 | 15.64273 | 60° | 40km/h | 8561m | -2.4m/s | -35.8°C | 38.0% | 338.8hPa | 2.6V | 00:00:00 | 00:00:00 | 00:00:00 | |
| S3001 | 2026-08-30 06:59:56 | 52.52266 | 15.64163 | 55° | 53km/h | 8577m | -2.8m/s | -36.0°C | 38.1% | 338.1hPa | 2.6V | 00:00:00 | 00:00:00 | 00:00:00 | |
| DB0DAN | 2026-08-30 06:59:55 | 52.52266 | 15.64163 | 56° | 51km/h | 8577m | -2.8m/s | -36°C | 38.1% | 338.05hPa | 2.6V | 00:00:00 | 00:00:00 | 00:00:00 | |
| SP3WXH-11 | 2026-08-30 06:59:48 | 52.52219 | 15.64014 | 71° | 57km/h | 8594m | -2.6m/s | -36.1°C | 39.1% | 337.2hPa | 2.6V | 00:00:00 | 00:00:00 | 00:00:00 | |
| AA1-15 | 2026-08-30 06:59:43 | 52.52200 | 15.63916 | 74° | 42km/h | 8605m | -2.5m/s | -36.2°C | 43.9% | 336.7hPa | 2.6V | 18:12:15 | 02:42:34 | 00:00:00 | |
| DB0DAN | 2026-08-30 06:59:40 | 52.52189 | 15.63870 | 64° | 37km/h | 8612m | -2m/s | -36.3°C | 39.5% | 336.26hPa | 2.5V | 00:00:00 | 00:00:00 | 00:00:00 | |
| SP6BVK | 2026-08-30 06:59:39 | 52.52184 | 15.63856 | 61° | 40km/h | 8614m | -2.4m/s | -36.3°C | 39.4% | 336.2hPa | 2.5V | 00:00:00 | 00:00:00 | 00:00:00 | |
| SQ2ODE-11 | 2026-08-30 06:59:38 | 52.52184 | 15.63856 | 61° | 40km/h | 8614m | -2.4m/s | -36.3°C | 39.4% | 336.2hPa | 2.5V | 00:00:00 | 00:00:00 | 00:00:00 | |
| KRY50SP-1 | 2026-08-30 06:59:34 | 52.52157 | 15.63800 | 49° | 47km/h | 8622m | -2.6m/s | -36.4°C | 39.0% | 335.8hPa | 2.5V | 00:00:00 | 00:00:00 | 00:00:00 | |
| SQ2ODE-11 | 2026-08-30 06:59:33 | 52.52148 | 15.63785 | 51° | 49km/h | 8624m | -2.6m/s | -36.4°C | 39.0% | 335.7hPa | 2.5V | 00:00:00 | 00:00:00 | 00:00:00 | |
| EDDB2-11 | 2026-08-30 06:59:32 | 52.52132 | 15.63750 | 56° | 55km/h | 8629m | -2.9m/s | -36.5°C | 39.0% | 335.4hPa | 2.5V | 00:00:00 | 00:00:00 | 00:00:00 | |
| KRY50SP-1 | 2026-08-30 06:59:31 | 52.52117 | 15.63711 | 61° | 57km/h | 8634m | -2.6m/s | -36.5°C | 39.0% | 335.2hPa | 2.5V | 00:00:00 | 00:00:00 | 00:00:00 | |
| SQ2ODE-11 | 2026-08-30 06:59:26 | 52.52097 | 15.63647 | 71° | 57km/h | 8642m | -3.0m/s | -36.5°C | 39.1% | 334.9hPa | 2.5V | 00:00:00 | 00:00:00 | 00:00:00 | |
| DB0DAN | 2026-08-30 06:59:25 | 52.52089 | 15.63604 | 75° | 49km/h | 8647m | -2.7m/s | -36.6°C | 39.3% | 334.64hPa | 2.5V | 00:00:00 | 00:00:00 | 00:00:00 | |
| KRY50SP-1 | 2026-08-30 06:59:24 | 52.52089 | 15.63604 | 76° | 51km/h | 8647m | -2.7m/s | -36.6°C | 39.4% | 334.6hPa | 2.5V | 00:00:00 | 00:00:00 | 00:00:00 | |
| SONDE2-12 | 2026-08-30 06:59:18 | 52.51966 | 15.63246 | 70° | 55km/h | 8698m | -2.7m/s | -37.0°C | 43.3% | 332.2hPa | 2.5V | 00:00:00 | 00:00:00 | 00:00:00 | |
| SP3WXH-11 | 2026-08-30 06:59:17 | 52.52058 | 15.63471 | 53° | 37km/h | 8665m | -2.4m/s | -36.8°C | 38.4% | 333.7hPa | 2.5V | 00:00:00 | 00:00:00 | 00:00:00 | |
| KRY50SP-1 | 2026-08-30 06:59:12 | 52.52032 | 15.63417 | 51° | 46km/h | 8675m | -2.8m/s | -36.8°C | 37.7% | 333.2hPa | 2.5V | 00:00:00 | 00:00:00 | 00:00:00 | |
| DB0DAN | 2026-08-30 06:59:10 | 52.52007 | 15.63368 | 52° | 53km/h | 8683m | -2.7m/s | -36.9°C | 37.5% | 332.91hPa | 2.5V | 00:00:00 | 00:00:00 | 00:00:00 | |
| EDDB2-12 | 2026-08-30 06:59:08 | 52.51991 | 15.63330 | 58° | 57km/h | 8687m | -2.5m/s | -37.0°C | 37.4% | 332.7hPa | 2.6V | 00:00:00 | 00:00:00 | 00:00:00 | |
| KRY50SP-1 | 2026-08-30 06:59:07 | 52.51991 | 15.63330 | 60° | 58km/h | 8688m | -2.5m/s | -37.0°C | 37.5% | 332.7hPa | 2.6V | 00:00:00 | 00:00:00 | 00:00:00 | |
| SQ2ODE-11 | 2026-08-30 06:59:06 | 52.51984 | 15.63309 | 63° | 57km/h | 8690m | -2.5m/s | -37.0°C | 37.4% | 332.6hPa | 2.6V | 00:00:00 | 00:00:00 | 00:00:00 | |
| EDDB2-11 | 2026-08-30 06:59:01 | 52.51955 | 15.63187 | 71° | 44km/h | 8704m | -2.5m/s | -37.1°C | 37.6% | 331.9hPa | 2.6V | 00:00:00 | 00:00:00 | 00:00:00 | |
| SP6BVK | 2026-08-30 06:58:58 | 52.51943 | 15.63138 | 65° | 38km/h | 8712m | -2.5m/s | -37.1°C | 38.2% | 331.6hPa | 2.6V | 00:00:00 | 00:00:00 | 00:00:00 | |
| KRY50SP-1 | 2026-08-30 06:58:56 | 52.51938 | 15.63123 | 60° | 38km/h | 8715m | -2.3m/s | -37.2°C | 38.1% | 331.5hPa | 2.6V | 00:00:00 | 00:00:00 | 00:00:00 | |
| DB0DAN | 2026-08-30 06:58:55 | 52.51928 | 15.63097 | 53° | 37km/h | 8719m | -2.5m/s | -37.2°C | 38.3% | 331.24hPa | 2.6V | 00:00:00 | 00:00:00 | 00:00:00 | |
| SONDE2-12 | 2026-08-30 06:58:47 | 52.51843 | 15.62916 | 63° | 57km/h | 8747m | -2.8m/s | -37.5°C | 44.5% | 329.8hPa | 2.6V | 00:00:00 | 00:00:00 | 00:00:00 | |
| SP3WXH-11 | 2026-08-30 06:58:46 | 52.51857 | 15.62958 | 57° | 57km/h | 8741m | -2.9m/s | -37.4°C | 38.0% | 330.2hPa | 2.6V | 00:00:00 | 00:00:00 | 00:00:00 | |
| AA1-15 | 2026-08-30 06:58:40 | 52.51821 | 15.62833 | 72° | 49km/h | 8756m | -2.7m/s | -37.5°C | 42.9% | 329.4hPa | 2.6V | 18:12:15 | 02:41:31 | 00:00:00 | |
| DB0DAN | 2026-08-30 06:58:40 | 52.51821 | 15.62833 | 72° | 47km/h | 8756m | -2.7m/s | -37.5°C | 38.4% | 329.42hPa | 2.6V | 00:00:00 | 00:00:00 | 00:00:00 | |
| AA1-15 | 2026-08-30 06:58:27 | 52.51751 | 15.62627 | 54° | 49km/h | 8788m | -2.5m/s | -37.9°C | 41.4% | 327.9hPa | 2.5V | 18:12:15 | 02:41:18 | 00:00:00 | |
| DB0DAN | 2026-08-30 06:58:25 | 52.51736 | 15.62593 | 54° | 49km/h | 8793m | -2.7m/s | -37.9°C | 36.1% | 327.68hPa | 2.5V | 00:00:00 | 00:00:00 | 00:00:00 | |
| AA1-15 | 2026-08-30 06:58:16 | 52.51675 | 15.62415 | 70° | 57km/h | 8817m | -2.2m/s | -38°C | 35.2% | 326.6hPa | 2.5V | 18:12:15 | 02:41:07 | 00:00:00 | |
| SONDE2-12 | 2026-08-30 06:58:16 | 52.51665 | 15.62370 | 70° | 58km/h | 8822m | -2.8m/s | -38.0°C | 34.2% | 326.4hPa | 2.6V | 00:00:00 | 00:00:00 | 00:00:00 | |
| SP3WXH-11 | 2026-08-30 06:58:15 | 52.51670 | 15.62393 | 69° | 57km/h | 8819m | -2.5m/s | -38.0°C | 30.2% | 326.5hPa | 2.6V | 00:00:00 | 00:00:00 | 00:00:00 | |
| KRY50SP-1 | 2026-08-30 06:58:12 | 52.51660 | 15.62347 | 74° | 58km/h | 8824m | -2.2m/s | -38.0°C | 29.2% | 326.2hPa | 2.6V | 00:00:00 | 00:00:00 | 00:00:00 | |
| DB0DAN | 2026-08-30 06:58:10 | 52.51647 | 15.62277 | 75° | 57km/h | 8832m | -2.9m/s | -38.1°C | 27.8% | 325.81hPa | 2.6V | 00:00:00 | 00:00:00 | 00:00:00 | |
| SONDE2-11 | 2026-08-30 06:58:08 | 52.51641 | 15.62232 | 77° | 55km/h | 8837m | -2.5m/s | -38.1°C | 26.8% | 325.6hPa | 2.5V | 00:00:00 | 00:00:00 | 00:00:00 | |
| EDDB2-12 | 2026-08-30 06:58:06 | 52.51635 | 15.62189 | 79° | 49km/h | 8842m | -3.0m/s | -38.1°C | 26.3% | 325.3hPa | 2.5V | 00:00:00 | 00:00:00 | 00:00:00 | |
| EDDB2-11 | 2026-08-30 06:57:59 | 52.51614 | 15.62061 | 71° | 44km/h | 8858m | -2.4m/s | -38.2°C | 24.5% | 324.6hPa | 2.5V | 00:00:00 | 00:00:00 | 00:00:00 | |
| DB0DAN | 2026-08-30 06:57:55 | 52.51596 | 15.61990 | 67° | 46km/h | 8868m | -2.5m/s | -38.1°C | 21% | 324.19hPa | 2.5V | 00:00:00 | 00:00:00 | 00:00:00 | |
| S3001 | 2026-08-30 06:57:51 | 52.51576 | 15.61911 | 66° | 53km/h | 8877m | -2.7m/s | -37.9°C | 19.1% | 323.8hPa | 2.5V | 00:00:00 | 00:00:00 | 00:00:00 | |
| SONDE2-12 | 2026-08-30 06:57:44 | 52.51517 | 15.61606 | 79° | 66km/h | 8908m | -3.2m/s | -38.3°C | 24.3% | 322.2hPa | 2.5V | 00:00:00 | 00:00:00 | 00:00:00 | |
| KRY50SP-1 | 2026-08-30 06:57:43 | 52.51540 | 15.61757 | 73° | 62km/h | 8894m | -2.8m/s | -38.2°C | 20.3% | 322.9hPa | 2.5V | 00:00:00 | 00:00:00 | 00:00:00 | |
| DB0DAN | 2026-08-30 06:57:40 | 52.51524 | 15.61658 | 79° | 60km/h | 8903m | -2.6m/s | -38.3°C | 20.7% | 322.54hPa | 2.5V | 00:00:00 | 00:00:00 | 00:00:00 | |
| SONDE2-11 | 2026-08-30 06:57:37 | 52.51515 | 15.61579 | 80° | 64km/h | 8911m | -3.5m/s | -38.4°C | 20.6% | 322.1hPa | 2.5V | 00:00:00 | 00:00:00 | 00:00:00 | |
| SP6BVK | 2026-08-30 06:57:36 | 52.51512 | 15.61552 | 84° | 64km/h | 8914m | -3.4m/s | -38.4°C | 20.5% | 321.9hPa | 2.5V | 00:00:00 | 00:00:00 | 00:00:00 | |
| EDDB2-12 | 2026-08-30 06:57:35 | 52.51509 | 15.61500 | 86° | 60km/h | 8920m | -3.3m/s | -38.5°C | 20.3% | 321.6hPa | 2.5V | 00:00:00 | 00:00:00 | 00:00:00 | |
| KRY50SP-1 | 2026-08-30 06:57:31 | 52.51508 | 15.61450 | 91° | 57km/h | 8926m | -2.8m/s | -38.5°C | 20.3% | 321.4hPa | 2.5V | 00:00:00 | 00:00:00 | 00:00:00 | |
| EDDB2-11 | 2026-08-30 06:57:28 | 52.51507 | 15.61366 | 86° | 46km/h | 8936m | -2.4m/s | -38.5°C | 20.5% | 320.9hPa | 2.5V | 00:00:00 | 00:00:00 | 00:00:00 | |
| KRY50SP-1 | 2026-08-30 06:57:26 | 52.51506 | 15.61347 | 84° | 46km/h | 8939m | -2.5m/s | -38.5°C | 20.7% | 320.8hPa | 2.5V | 00:00:00 | 00:00:00 | 00:00:00 | |
| DB0DAN | 2026-08-30 06:57:25 | 52.51500 | 15.61309 | 75° | 46km/h | 8943m | -2.6m/s | -38.5°C | 21% | 320.56hPa | 2.5V | 00:00:00 | 00:00:00 | 00:00:00 | |
| SONDE2-12 | 2026-08-30 06:57:13 | 52.51464 | 15.61016 | 90° | 62km/h | 8973m | -2.4m/s | -38.7°C | 25.6% | 319.2hPa | 2.6V | 00:00:00 | 00:00:00 | 00:00:00 | |
| SQ2ODE-11 | 2026-08-30 06:57:12 | 52.51464 | 15.61016 | 92° | 64km/h | 8973m | -2.4m/s | -38.7°C | 22.0% | 319.2hPa | 2.6V | 00:00:00 | 00:00:00 | 00:00:00 | |
| DB0DAN | 2026-08-30 06:57:10 | 52.51466 | 15.60940 | 94° | 55km/h | 8980m | -2.8m/s | -38.7°C | 21.9% | 318.89hPa | 2.6V | 00:00:00 | 00:00:00 | 00:00:00 | |
| AA1-15 | 2026-08-30 06:57:04 | 52.51469 | 15.60813 | 87° | 46km/h | 8996m | -2.4m/s | -38.7°C | 27.5% | 318.1hPa | 2.6V | 18:12:15 | 02:39:55 | 00:00:00 | |
| EDDB2-12 | 2026-08-30 06:57:04 | 52.51468 | 15.60794 | 82° | 46km/h | 8998m | -2.9m/s | -38.7°C | 23.6% | 318.0hPa | 2.5V | 00:00:00 | 00:00:00 | 00:00:00 | |
| EDDB2-11 | 2026-08-30 06:56:57 | 52.51447 | 15.60669 | 76° | 60km/h | 9012m | -2.8m/s | -38.7°C | 26.9% | 317.4hPa | 2.5V | 00:00:00 | 00:00:00 | 00:00:00 | |
| DB0DAN | 2026-08-30 06:56:55 | 52.51441 | 15.60618 | 85° | 60km/h | 9016m | -2.5m/s | -38.8°C | 28.5% | 317.12hPa | 2.5V | 00:00:00 | 00:00:00 | 00:00:00 | |
| AA1-15 | 2026-08-30 06:56:51 | 52.51439 | 15.60512 | 92° | 62km/h | 9027m | -3.2m/s | -38.9°C | 34.6% | 316.6hPa | 2.5V | 18:12:15 | 02:39:42 | 00:00:00 | |
| S3001 | 2026-08-30 06:56:49 | 52.51441 | 15.60461 | 96° | 58km/h | 9032m | -2.7m/s | -38.9°C | 31.0% | 316.4hPa | 2.6V | 00:00:00 | 00:00:00 | 00:00:00 | |
| KRY50SP-1 | 2026-08-30 06:56:47 | 52.51443 | 15.60437 | 100° | 55km/h | 9035m | -2.5m/s | -38.9°C | 31.7% | 316.3hPa | 2.6V | 00:00:00 | 00:00:00 | 00:00:00 | |
| SP3BTT-10 | 2026-08-30 06:56:45 | 52.51447 | 15.60374 | 96° | 57km/h | 9043m | -2.4m/s | -38.9°C | 42.4% | 315.9hPa | 2.6V | 00:00:00 | 00:00:00 | 00:00:00 | |
| SQ2ODE-11 | 2026-08-30 06:56:44 | 52.51447 | 15.60374 | 97° | 46km/h | 9043m | -2.5m/s | -39.0°C | 34.2% | 315.9hPa | 2.6V | 00:00:00 | 00:00:00 | 00:00:00 | |
| SP3WXH-11 | 2026-08-30 06:56:42 | 52.51447 | 15.60318 | 85° | 44km/h | 9050m | -2.4m/s | -39.0°C | 35.2% | 315.6hPa | 2.6V | 00:00:00 | 00:00:00 | 00:00:00 | |
| DB0DAN | 2026-08-30 06:56:40 | 52.51443 | 15.60278 | 76° | 47km/h | 9054m | -2.6m/s | -39.1°C | 36.6% | 315.38hPa | 2.6V | 00:00:00 | 00:00:00 | 00:00:00 | |
| AA1-15 | 2026-08-30 06:56:38 | 52.51436 | 15.60237 | 75° | 55km/h | 9058m | -2.7m/s | -39.1°C | 43% | 315.1hPa | 2.5V | 18:12:15 | 02:39:29 | 00:00:00 | |
| AA1-15 | 2026-08-30 06:56:27 | 52.51424 | 15.59961 | 98° | 55km/h | 9086m | -2.4m/s | -39.2°C | 45.2% | 314hPa | 2.5V | 18:12:15 | 02:39:18 | 00:00:00 | |
| SQ2ODE-11 | 2026-08-30 06:56:27 | 52.51424 | 15.59961 | 99° | 55km/h | 9086m | -2.4m/s | -39.2°C | 41.4% | 314.0hPa | 2.5V | 00:00:00 | 00:00:00 | 00:00:00 | |
| DB0DAN | 2026-08-30 06:56:25 | 52.51427 | 15.59917 | 95° | 47km/h | 9091m | -2.5m/s | -39.2°C | 42.1% | 313.76hPa | 2.5V | 00:00:00 | 00:00:00 | 00:00:00 | |
| AA1-15 | 2026-08-30 06:56:16 | 52.51418 | 15.59742 | 77° | 53km/h | 9111m | -2.8m/s | -39.5°C | 46.9% | 312.8hPa | 2.6V | 18:12:15 | 02:39:07 | 00:00:00 | |
| SONDE2-12 | 2026-08-30 06:56:11 | 52.51402 | 15.59624 | 80° | 62km/h | 9123m | -2.8m/s | -39.5°C | 49.5% | 312.2hPa | 2.6V | 00:00:00 | 00:00:00 | 00:00:00 | |
| DB0DAN | 2026-08-30 06:56:10 | 52.51399 | 15.59597 | 83° | 64km/h | 9126m | -2.8m/s | -39.6°C | 42% | 312.16hPa | 2.6V | 00:00:00 | 00:00:00 | 00:00:00 | |
| AA1-15 | 2026-08-30 06:56:05 | 52.51398 | 15.59463 | 97° | 60km/h | 9138m | -2.3m/s | -39.6°C | 44.8% | 311.6hPa | 2.6V | 18:12:15 | 02:38:56 | 00:00:00 | |
| EDDB2-12 | 2026-08-30 06:56:02 | 52.51404 | 15.59371 | 96° | 49km/h | 9148m | -2.2m/s | -39.7°C | 41.0% | 311.1hPa | 2.5V | 00:00:00 | 00:00:00 | 00:00:00 | |
| KRY50SP-1 | 2026-08-30 06:55:57 | 52.51405 | 15.59312 | 87° | 47km/h | 9154m | -2.4m/s | -39.7°C | 39.9% | 310.8hPa | 2.5V | 00:00:00 | 00:00:00 | 00:00:00 | |
| SQ2ODE-11 | 2026-08-30 06:55:56 | 52.51403 | 15.59293 | 81° | 46km/h | 9156m | -2.6m/s | -39.7°C | 39.6% | 310.7hPa | 2.5V | 00:00:00 | 00:00:00 | 00:00:00 | |
| DB0DAN | 2026-08-30 06:55:55 | 52.51399 | 15.59253 | 77° | 49km/h | 9161m | -2.6m/s | -39.8°C | 38.5% | 310.47hPa | 2.5V | 00:00:00 | 00:00:00 | 00:00:00 | |
| AA1-15 | 2026-08-30 06:55:54 | 52.51395 | 15.59232 | 75° | 51km/h | 9163m | -3.1m/s | -39.8°C | 42.4% | 310.3hPa | 2.6V | 18:12:15 | 02:38:45 | 00:00:00 | |
| S3001 | 2026-08-30 06:55:47 | 52.51373 | 15.59060 | 87° | 64km/h | 9181m | -2.5m/s | -39.8°C | 35.6% | 309.6hPa | 2.5V | 00:00:00 | 00:00:00 | 00:00:00 | |
| AA1-15 | 2026-08-30 06:55:43 | 52.51372 | 15.58953 | 94° | 60km/h | 9191m | -2.6m/s | -39.9°C | 41% | 309.1hPa | 2.5V | 18:12:15 | 02:38:34 | 00:00:00 | |
| DB0DAN | 2026-08-30 06:55:40 | 52.51376 | 15.58881 | 95° | 51km/h | 9198m | -2.3m/s | -39.9°C | 38.3% | 308.81hPa | 2.6V | 00:00:00 | 00:00:00 | 00:00:00 | |
| AA1-15 | 2026-08-30 06:55:32 | 52.51367 | 15.58717 | 74° | 53km/h | 9216m | -3.2m/s | -40.2°C | 44.8% | 307.9hPa | 2.5V | 18:12:15 | 02:38:23 | 00:00:00 | |
| EDDB2-12 | 2026-08-30 06:55:31 | 52.51359 | 15.58673 | 74° | 58km/h | 9222m | -2.9m/s | -40.2°C | 40.1% | 307.8hPa | 2.5V | 00:00:00 | 00:00:00 | 00:00:00 | |
| KRY50SP-1 | 2026-08-30 06:55:29 | 52.51359 | 15.58673 | 75° | 60km/h | 9222m | -2.9m/s | -40.2°C | 40.1% | 307.7hPa | 2.5V | 00:00:00 | 00:00:00 | 00:00:00 | |
| DB0DAN | 2026-08-30 06:55:25 | 52.51340 | 15.58540 | 83° | 66km/h | 9235m | -2.4m/s | -40.3°C | 36.3% | 307.16hPa | 2.5V | 00:00:00 | 00:00:00 | 00:00:00 | |
| AA1-15 | 2026-08-30 06:55:21 | 52.51335 | 15.58428 | 94° | 66km/h | 9246m | -3.1m/s | -40.3°C | 34.2% | 306.6hPa | 2.5V | 18:12:15 | 02:38:12 | 00:00:00 | |
| SQ2ODE-11 | 2026-08-30 06:55:20 | 52.51335 | 15.58428 | 95° | 66km/h | 9246m | -3.1m/s | -40.3°C | 30.1% | 306.6hPa | 2.6V | 00:00:00 | 00:00:00 | 00:00:00 | |
| KRY50SP-1 | 2026-08-30 06:55:17 | 52.51337 | 15.58353 | 95° | 55km/h | 9254m | -2.6m/s | -40.3°C | 26.6% | 306.3hPa | 2.6V | 00:00:00 | 00:00:00 | 00:00:00 | |
| S3001 | 2026-08-30 06:55:16 | 52.51338 | 15.58308 | 88° | 49km/h | 9259m | -2.8m/s | -40.4°C | 24.1% | 306.1hPa | 2.6V | 00:00:00 | 00:00:00 | 00:00:00 | |
| SQ2ODE-11 | 2026-08-30 06:55:13 | 52.51337 | 15.58267 | 84° | 47km/h | 9264m | -3.0m/s | -40.4°C | 21.4% | 305.8hPa | 2.6V | 00:00:00 | 00:00:00 | 00:00:00 | |
| SP6BVK | 2026-08-30 06:55:12 | 52.51335 | 15.58247 | 83° | 49km/h | 9266m | -2.6m/s | -40.4°C | 20.1% | 305.6hPa | 2.6V | 00:00:00 | 00:00:00 | 00:00:00 | |
| DB0DAN | 2026-08-30 06:55:10 | 52.51326 | 15.58185 | 76° | 51km/h | 9273m | -3.1m/s | -40.4°C | 17.4% | 305.31hPa | 2.6V | 00:00:00 | 00:00:00 | 00:00:00 | |
| AA1-15 | 2026-08-30 06:55:10 | 52.51326 | 15.58185 | 76° | 55km/h | 9273m | -3.1m/s | -40.4°C | 21.4% | 305.3hPa | 2.6V | 18:12:15 | 02:38:01 | 00:00:00 | |
| SONDE2-12 | 2026-08-30 06:55:09 | 52.51309 | 15.58087 | 77° | 64km/h | 9284m | -2.9m/s | -40.5°C | 19.8% | 304.8hPa | 2.6V | 00:00:00 | 00:00:00 | 00:00:00 | |
| AA1-15 | 2026-08-30 06:54:59 | 52.51297 | 15.57890 | 92° | 66km/h | 9303m | -3.3m/s | -40.5°C | 25.2% | 304.1hPa | 2.6V | 18:12:15 | 02:37:50 | 00:00:00 | |
| KRY50SP-1 | 2026-08-30 06:54:56 | 52.51299 | 15.57838 | 95° | 58km/h | 9309m | -2.7m/s | -40.6°C | 21.4% | 303.8hPa | 2.5V | 00:00:00 | 00:00:00 | 00:00:00 | |
| DB0DAN | 2026-08-30 06:54:55 | 52.51300 | 15.57791 | 90° | 49km/h | 9313m | -2.6m/s | -40.6°C | 21.2% | 303.58hPa | 2.5V | 00:00:00 | 00:00:00 | 00:00:00 | |
| AA1-15 | 2026-08-30 06:54:48 | 52.51286 | 15.57638 | 74° | 60km/h | 9327m | -2.7m/s | -40.8°C | 27.9% | 302.8hPa | 2.6V | 18:12:15 | 02:37:39 | 00:00:00 | |
| SP3BTT-10 | 2026-08-30 06:54:45 | 52.51274 | 15.57561 | 79° | 60km/h | 9335m | -2.3m/s | -40.8°C | 32.9% | 302.6hPa | 2.5V | 00:00:00 | 00:00:00 | 00:00:00 | |
| KRY50SP-1 | 2026-08-30 06:54:44 | 52.51274 | 15.57561 | 80° | 69km/h | 9335m | -2.4m/s | -40.9°C | 25.9% | 302.6hPa | 2.6V | 00:00:00 | 00:00:00 | 00:00:00 | |
| DB0DAN | 2026-08-30 06:54:40 | 52.51265 | 15.57417 | 89° | 68km/h | 9346m | -3.2m/s | -41°C | 27.9% | 302hPa | 2.6V | 00:00:00 | 00:00:00 | 00:00:00 | |
| SONDE2-12 | 2026-08-30 06:54:38 | 52.51265 | 15.57359 | 93° | 68km/h | 9353m | -3.6m/s | -41.0°C | 32.8% | 301.8hPa | 2.5V | 00:00:00 | 00:00:00 | 00:00:00 | |
| AA1-15 | 2026-08-30 06:54:37 | 52.51266 | 15.57331 | 95° | 66km/h | 9356m | -3.3m/s | -41.1°C | 33.1% | 301.6hPa | 2.5V | 18:12:15 | 02:37:28 | 00:00:00 | |
| AA1-15 | 2026-08-30 06:54:26 | 52.51259 | 15.57082 | 78° | 58km/h | 9381m | -3.6m/s | -41.2°C | 37.5% | 300.5hPa | 2.5V | 18:12:15 | 02:37:17 | 00:00:00 | |
| DB0DAN | 2026-08-30 06:54:25 | 52.51256 | 15.57057 | 77° | 60km/h | 9384m | -3m/s | -41.3°C | 33% | 300.38hPa | 2.5V | 00:00:00 | 00:00:00 | 00:00:00 | |
| AA1-15 | 2026-08-30 06:54:16 | 52.51245 | 15.56803 | 96° | 64km/h | 9406m | -2.7m/s | -41.5°C | 37.9% | 299.4hPa | 2.6V | 18:12:15 | 02:37:07 | 00:00:00 | |
| S3001 | 2026-08-30 06:54:14 | 52.51248 | 15.56752 | 95° | 58km/h | 9412m | -2.6m/s | -41.5°C | 32.7% | 299.2hPa | 2.5V | 00:00:00 | 00:00:00 | 00:00:00 | |
| DB0DAN | 2026-08-30 06:54:10 | 52.51253 | 15.56662 | 91° | 46km/h | 9421m | -3m/s | -41.6°C | 31.5% | 298.74hPa | 2.5V | 00:00:00 | 00:00:00 | 00:00:00 | |
| SONDE2-12 | 2026-08-30 06:54:07 | 52.51249 | 15.56602 | 81° | 49km/h | 9430m | -2.8m/s | -41.7°C | 36.8% | 298.4hPa | 2.5V | 00:00:00 | 00:00:00 | 00:00:00 | |
| AA1-15 | 2026-08-30 06:54:05 | 52.51244 | 15.56559 | 75° | 55km/h | 9434m | -3.5m/s | -41.7°C | 36.3% | 298.2hPa | 2.5V | 18:12:15 | 02:36:56 | 00:00:00 | |
| AA1-15 | 2026-08-30 06:53:55 | 52.51227 | 15.56288 | 94° | 66km/h | 9463m | -3m/s | -42°C | 34.5% | 297hPa | 2.6V | 18:12:15 | 02:36:46 | 00:00:00 | |
| DB0DAN | 2026-08-30 06:53:55 | 52.51227 | 15.56288 | 94° | 64km/h | 9463m | -3m/s | -42°C | 29.8% | 297hPa | 2.6V | 00:00:00 | 00:00:00 | 00:00:00 | |
| AA1-15 | 2026-08-30 06:53:44 | 52.51222 | 15.56040 | 76° | 58km/h | 9489m | -3.3m/s | -42.2°C | 33.5% | 295.8hPa | 2.5V | 18:12:15 | 02:36:35 | 00:00:00 | |
| S3001 | 2026-08-30 06:53:43 | 52.51218 | 15.56015 | 78° | 62km/h | 9492m | -3.5m/s | -42.3°C | 27.6% | 295.6hPa | 2.5V | 00:00:00 | 00:00:00 | 00:00:00 | |
| KRY50SP-1 | 2026-08-30 06:53:41 | 52.51215 | 15.55989 | 81° | 64km/h | 9495m | -2.9m/s | -42.3°C | 27.0% | 295.5hPa | 2.5V | 00:00:00 | 00:00:00 | 00:00:00 | |
| DB0DAN | 2026-08-30 06:53:40 | 52.51209 | 15.55935 | 83° | 64km/h | 9501m | -3.4m/s | -42.3°C | 25.4% | 295.26hPa | 2.5V | 00:00:00 | 00:00:00 | 00:00:00 | |
| AA1-15 | 2026-08-30 06:53:33 | 52.51208 | 15.55737 | 96° | 66km/h | 9522m | -2.9m/s | -42.4°C | 22.7% | 294.5hPa | 2.5V | 18:12:15 | 02:36:24 | 00:00:00 | |
| KRY50SP-1 | 2026-08-30 06:53:31 | 52.51212 | 15.55687 | 98° | 57km/h | 9527m | -2.9m/s | -42.4°C | 18.5% | 294.2hPa | 2.5V | 00:00:00 | 00:00:00 | 00:00:00 | |
| SP6BVK | 2026-08-30 06:53:28 | 52.51215 | 15.55641 | 97° | 53km/h | 9532m | -2.6m/s | -42.4°C | 18.5% | 294.0hPa | 2.5V | 00:00:00 | 00:00:00 | 00:00:00 | |
| DB0DAN | 2026-08-30 06:53:25 | 52.51212 | 15.55556 | 82° | 49km/h | 9542m | -2.6m/s | -42.5°C | 18.8% | 293.46hPa | 2.5V | 00:00:00 | 00:00:00 | 00:00:00 | |
| AA1-15 | 2026-08-30 06:53:22 | 52.51202 | 15.55490 | 77° | 60km/h | 9549m | -3.4m/s | -42.6°C | 23.6% | 293.1hPa | 2.6V | 18:12:15 | 02:36:13 | 00:00:00 | |
| AA1-15 | 2026-08-30 06:53:11 | 52.51189 | 15.55183 | 96° | 62km/h | 9578m | -2.9m/s | -42.8°C | 23.3% | 291.9hPa | 2.6V | 18:12:15 | 02:36:02 | 00:00:00 | |
| DB0DAN | 2026-08-30 06:53:10 | 52.51191 | 15.55159 | 98° | 55km/h | 9581m | -2.9m/s | -42.8°C | 19.1% | 291.79hPa | 2.6V | 00:00:00 | 00:00:00 | 00:00:00 | |
| AA1-15 | 2026-08-30 06:53:00 | 52.51176 | 15.54927 | 80° | 68km/h | 9602m | -3.2m/s | -43°C | 21.2% | 290.8hPa | 2.6V | 18:12:15 | 02:35:51 | 00:00:00 | |
| SONDE2-11 | 2026-08-30 06:52:58 | 52.51167 | 15.54843 | 83° | 68km/h | 9610m | -3.8m/s | -43.1°C | 17.0% | 290.4hPa | 2.5V | 00:00:00 | 00:00:00 | 00:00:00 | |
| DB0DAN | 2026-08-30 06:52:55 | 52.51164 | 15.54785 | 86° | 69km/h | 9617m | -3.3m/s | -43.1°C | 16.8% | 290.23hPa | 2.5V | 00:00:00 | 00:00:00 | 00:00:00 | |
| AA1-15 | 2026-08-30 06:52:50 | 52.51167 | 15.54637 | 98° | 66km/h | 9631m | -2.5m/s | -43.2°C | 20.8% | 289.7hPa | 2.6V | 18:12:15 | 02:35:41 | 00:00:00 | |
| EDDB2-11 | 2026-08-30 06:52:49 | 52.51171 | 15.54585 | 97° | 58km/h | 9636m | -2.7m/s | -43.2°C | 16.8% | 289.4hPa | 2.6V | 00:00:00 | 00:00:00 | 00:00:00 | |
| SP6BVK | 2026-08-30 06:52:48 | 52.51169 | 15.54610 | 99° | 64km/h | 9634m | -2.7m/s | -43.2°C | 16.7% | 289.5hPa | 2.6V | 00:00:00 | 00:00:00 | 00:00:00 | |
| KRY50SP-1 | 2026-08-30 06:52:47 | 52.51171 | 15.54585 | 99° | 60km/h | 9636m | -2.7m/s | -43.2°C | 16.8% | 289.4hPa | 2.6V | 00:00:00 | 00:00:00 | 00:00:00 | |
| SP3BTT-10 | 2026-08-30 06:52:45 | 52.51175 | 15.54514 | 95° | 60km/h | 9643m | -2.5m/s | -43.2°C | 22.4% | 289.1hPa | 2.6V | 00:00:00 | 00:00:00 | 00:00:00 | |
| KRY50SP-1 | 2026-08-30 06:52:42 | 52.51174 | 15.54470 | 85° | 51km/h | 9647m | -2.7m/s | -43.3°C | 16.9% | 288.9hPa | 2.6V | 00:00:00 | 00:00:00 | 00:00:00 | |
| DB0DAN | 2026-08-30 06:52:40 | 52.51168 | 15.54403 | 78° | 53km/h | 9653m | -3.2m/s | -43.4°C | 16.9% | 288.54hPa | 2.6V | 00:00:00 | 00:00:00 | 00:00:00 | |
| AA1-15 | 2026-08-30 06:52:39 | 52.51165 | 15.54379 | 80° | 62km/h | 9655m | -3.8m/s | -43.4°C | 21.3% | 288.5hPa | 2.6V | 18:12:15 | 02:35:30 | 00:00:00 | |
| AA1-15 | 2026-08-30 06:52:28 | 52.51155 | 15.54068 | 98° | 62km/h | 9687m | -2.7m/s | -43.6°C | 21.5% | 287.3hPa | 2.6V | 18:12:15 | 02:35:19 | 00:00:00 | |
| SP6BVK | 2026-08-30 06:52:27 | 52.51155 | 15.54068 | 99° | 62km/h | 9687m | -2.7m/s | -43.6°C | 17.3% | 287.3hPa | 2.5V | 00:00:00 | 00:00:00 | 00:00:00 | |
| KRY50SP-1 | 2026-08-30 06:52:26 | 52.51156 | 15.54042 | 97° | 62km/h | 9690m | -2.7m/s | -43.7°C | 17.2% | 287.1hPa | 2.5V | 00:00:00 | 00:00:00 | 00:00:00 | |
| DB0DAN | 2026-08-30 06:52:25 | 52.51160 | 15.53993 | 97° | 53km/h | 9695m | -2.6m/s | -43.7°C | 17.1% | 286.94hPa | 2.5V | 00:00:00 | 00:00:00 | 00:00:00 | |
| AA1-15 | 2026-08-30 06:52:17 | 52.51154 | 15.53818 | 81° | 58km/h | 9715m | -3m/s | -43.9°C | 21.3% | 286hPa | 2.5V | 18:12:15 | 02:35:08 | 00:00:00 | |
| KRY50SP-1 | 2026-08-30 06:52:15 | 52.51151 | 15.53794 | 78° | 60km/h | 9718m | -3.2m/s | -43.9°C | 16.8% | 285.9hPa | 2.5V | 00:00:00 | 00:00:00 | 00:00:00 | |
| SQ2ODE-11 | 2026-08-30 06:52:13 | 52.51145 | 15.53742 | 81° | 68km/h | 9724m | -3.0m/s | -43.9°C | 17.0% | 285.7hPa | 2.5V | 00:00:00 | 00:00:00 | 00:00:00 | |
| DB0DAN | 2026-08-30 06:52:10 | 52.51140 | 15.53628 | 90° | 68km/h | 9734m | -3m/s | -44°C | 17.5% | 285.33hPa | 2.5V | 00:00:00 | 00:00:00 | 00:00:00 | |
| AA1-15 | 2026-08-30 06:52:07 | 52.51142 | 15.53542 | 94° | 69km/h | 9743m | -2.8m/s | -44°C | 22.1% | 285hPa | 2.6V | 18:12:15 | 02:34:58 | 00:00:00 | |
| AA1-15 | 2026-08-30 06:51:56 | 52.51156 | 15.53286 | 85° | 51km/h | 9773m | -3m/s | -44.2°C | 23.2% | 283.7hPa | 2.6V | 18:12:15 | 02:34:47 | 00:00:00 | |
| SONDE2-11 | 2026-08-30 06:51:56 | 52.51155 | 15.53265 | 80° | 49km/h | 9776m | -3.5m/s | -44.2°C | 18.5% | 283.6hPa | 2.6V | 00:00:00 | 00:00:00 | 00:00:00 | |
| DB0DAN | 2026-08-30 06:51:55 | 52.51155 | 15.53265 | 81° | 47km/h | 9776m | -3.5m/s | -44.2°C | 18.5% | 283.59hPa | 2.6V | 00:00:00 | 00:00:00 | 00:00:00 | |
| EDDB2-12 | 2026-08-30 06:51:53 | 52.51149 | 15.53223 | 77° | 55km/h | 9783m | -3.4m/s | -44.3°C | 18.4% | 283.4hPa | 2.6V | 00:00:00 | 00:00:00 | 00:00:00 | |
| EDDB2-11 | 2026-08-30 06:51:47 | 52.51131 | 15.53035 | 86° | 69km/h | 9804m | -2.6m/s | -44.4°C | 19.2% | 282.6hPa | 2.6V | 00:00:00 | 00:00:00 | 00:00:00 | |
| SP6BVK | 2026-08-30 06:51:46 | 52.51132 | 15.53064 | 85° | 71km/h | 9801m | -2.9m/s | -44.4°C | 18.9% | 282.7hPa | 2.6V | 00:00:00 | 00:00:00 | 00:00:00 | |
| AA1-15 | 2026-08-30 06:51:46 | 52.51131 | 15.53035 | 86° | 71km/h | 9804m | -2.6m/s | -44.4°C | 23.5% | 282.6hPa | 2.6V | 18:12:15 | 02:34:37 | 00:00:00 | |
| SP3BTT-10 | 2026-08-30 06:51:45 | 52.51130 | 15.53006 | 89° | 62km/h | 9807m | -2.6m/s | -44.3°C | 25.8% | 282.4hPa | 2.6V | 00:00:00 | 00:00:00 | 00:00:00 | |
| SQ2ODE-11 | 2026-08-30 06:51:44 | 52.51130 | 15.53006 | 90° | 69km/h | 9807m | -2.6m/s | -44.4°C | 19.4% | 282.5hPa | 2.6V | 00:00:00 | 00:00:00 | 00:00:00 | |
| KRY50SP-1 | 2026-08-30 06:51:41 | 52.51131 | 15.52924 | 94° | 62km/h | 9815m | -2.5m/s | -44.5°C | 20.0% | 282.1hPa | 2.6V | 00:00:00 | 00:00:00 | 00:00:00 | |
| DB0DAN | 2026-08-30 06:51:40 | 52.51133 | 15.52875 | 93° | 53km/h | 9819m | -2.6m/s | -44.5°C | 20% | 281.94hPa | 2.6V | 00:00:00 | 00:00:00 | 00:00:00 | |
| AA1-15 | 2026-08-30 06:51:36 | 52.51132 | 15.52767 | 83° | 51km/h | 9833m | -2.7m/s | -44.4°C | 23.4% | 281.4hPa | 2.6V | 18:12:15 | 02:34:26 | 00:00:00 | |
| AA1-15 | 2026-08-30 06:51:24 | 52.51098 | 15.52491 | 84° | 71km/h | 9863m | -2.6m/s | -44.4°C | 19.6% | 280.1hPa | 2.6V | 18:12:15 | 02:34:15 | 00:00:00 | |
| AA1-15 | 2026-08-30 06:51:13 | 52.51097 | 15.52213 | 84° | 51km/h | 9890m | -2.4m/s | -44.5°C | 19.2% | 279hPa | 2.6V | 18:12:15 | 02:34:04 | 00:00:00 | |
| AA1-15 | 2026-08-30 06:51:03 | 52.51062 | 15.51970 | 80° | 71km/h | 9913m | -2.4m/s | -44.5°C | 17.5% | 278hPa | 2.6V | 18:12:15 | 02:33:54 | 00:00:00 | |
| AA1-15 | 2026-08-30 06:50:51 | 52.51052 | 15.51661 | 79° | 51km/h | 9943m | -2.5m/s | -44.7°C | 17.9% | 276.8hPa | 2.6V | 18:12:15 | 02:33:42 | 00:00:00 | |
| EDDB2-11 | 2026-08-30 06:50:45 | 52.51022 | 15.51498 | 73° | 68km/h | 9960m | -2.6m/s | -44.7°C | 13.2% | 276.0hPa | 2.5V | 00:00:00 | 00:00:00 | 00:00:00 | |
| AA1-15 | 2026-08-30 06:50:40 | 52.51008 | 15.51384 | 84° | 69km/h | 9970m | -2.2m/s | -44.8°C | 17.5% | 275.6hPa | 2.5V | 18:12:15 | 02:33:31 | 00:00:00 | |
| AA1-15 | 2026-08-30 06:50:29 | 52.50999 | 15.51117 | 76° | 53km/h | 9996m | -2.3m/s | -45.2°C | 18% | 274.6hPa | 2.5V | 18:12:15 | 02:33:20 | 00:00:00 | |
| KRY50SP-1 | 2026-08-30 06:50:27 | 52.50995 | 15.51095 | 75° | 55km/h | 9998m | -2.5m/s | -45.1°C | 13.6% | 274.5hPa | 2.6V | 00:00:00 | 00:00:00 | 00:00:00 | |
| DB0DAN | 2026-08-30 06:50:25 | 52.50982 | 15.51026 | 72° | 58km/h | 10005m | -2.2m/s | -45.2°C | 13.5% | 274.24hPa | 2.6V | 00:00:00 | 00:00:00 | 00:00:00 | |
| AA1-15 | 2026-08-30 06:50:16 | 52.50949 | 15.50776 | 87° | 69km/h | 10027m | -2.7m/s | -45.3°C | 18% | 273.3hPa | 2.6V | 18:12:15 | 02:33:07 | 00:00:00 | |
| DL2RXE-15 | 2026-08-30 06:50:13 | 52.50948 | 15.50720 | 90° | 64km/h | 10032m | -2.5m/s | -45.3°C | 14.3% | 273.1hPa | 2.6V | 00:00:00 | 00:00:00 | 00:00:00 | |
| KRY50SP-1 | 2026-08-30 06:50:11 | 52.50948 | 15.50669 | 91° | 58km/h | 10037m | -2.3m/s | -45.4°C | 14.2% | 272.9hPa | 2.6V | 00:00:00 | 00:00:00 | 00:00:00 | |
| DB0DAN | 2026-08-30 06:50:10 | 52.50947 | 15.50623 | 86° | 51km/h | 10042m | -2.4m/s | -45.5°C | 14.2% | 272.68hPa | 2.6V | 00:00:00 | 00:00:00 | 00:00:00 | |
| AA1-15 | 2026-08-30 06:50:06 | 52.50938 | 15.50538 | 74° | 55km/h | 10052m | -2.5m/s | -45.6°C | 18.4% | 272.2hPa | 2.5V | 18:12:15 | 02:32:57 | 00:00:00 | |
| AA1-15 | 2026-08-30 06:49:55 | 52.50891 | 15.50247 | 84° | 71km/h | 10080m | -2.5m/s | -45.7°C | 18.5% | 271.1hPa | 2.5V | 18:12:15 | 02:32:46 | 00:00:00 | |
| DB0DAN | 2026-08-30 06:49:55 | 52.50891 | 15.50247 | 84° | 68km/h | 10080m | -2.5m/s | -45.7°C | 14.8% | 271.07hPa | 2.5V | 00:00:00 | 00:00:00 | 00:00:00 | |
| AA1-15 | 2026-08-30 06:49:44 | 52.50882 | 15.49977 | 77° | 51km/h | 10109m | -2.7m/s | -46.1°C | 19.2% | 269.9hPa | 2.6V | 18:12:15 | 02:32:35 | 00:00:00 | |
| EDDB2-11 | 2026-08-30 06:49:43 | 52.50874 | 15.49934 | 71° | 55km/h | 10114m | -2.6m/s | -46.1°C | 14.3% | 269.7hPa | 2.5V | 00:00:00 | 00:00:00 | 00:00:00 | |
| DB0DAN | 2026-08-30 06:49:40 | 52.50864 | 15.49889 | 70° | 58km/h | 10119m | -2.7m/s | -46°C | 14.2% | 269.5hPa | 2.5V | 00:00:00 | 00:00:00 | 00:00:00 | |
| AA1-15 | 2026-08-30 06:49:30 | 52.50830 | 15.49613 | 88° | 64km/h | 10145m | -2.5m/s | -46.2°C | 19.7% | 268.5hPa | 2.5V | 18:12:15 | 02:32:21 | 00:00:00 | |
| SONDE2-12 | 2026-08-30 06:49:28 | 52.50829 | 15.49562 | 88° | 58km/h | 10151m | -2.6m/s | -46.2°C | 19.1% | 268.2hPa | 2.6V | 00:00:00 | 00:00:00 | 00:00:00 | |
| DB0DAN | 2026-08-30 06:49:25 | 52.50827 | 15.49493 | 85° | 49km/h | 10158m | -2.6m/s | -46.5°C | 15.6% | 267.96hPa | 2.6V | 00:00:00 | 00:00:00 | 00:00:00 | |
| KRY50SP-1 | 2026-08-30 06:49:23 | 52.50823 | 15.49451 | 81° | 51km/h | 10164m | -2.6m/s | -46.4°C | 15.4% | 267.8hPa | 2.6V | 00:00:00 | 00:00:00 | 00:00:00 | |
| SONDE2-11 | 2026-08-30 06:49:20 | 52.50814 | 15.49389 | 71° | 51km/h | 10171m | -2.6m/s | -46.4°C | 14.9% | 267.4hPa | 2.6V | 00:00:00 | 00:00:00 | 00:00:00 | |
| EDDB2-12 | 2026-08-30 06:49:18 | 52.50805 | 15.49346 | 69° | 57km/h | 10177m | -2.6m/s | -46.4°C | 14.7% | 267.2hPa | 2.6V | 00:00:00 | 00:00:00 | 00:00:00 | |
| KRY50SP-1 | 2026-08-30 06:49:17 | 52.50799 | 15.49323 | 70° | 60km/h | 10179m | -2.6m/s | -46.4°C | 14.9% | 267.1hPa | 2.6V | 00:00:00 | 00:00:00 | 00:00:00 | |
| SQ2ODE-11 | 2026-08-30 06:49:14 | 52.50784 | 15.49247 | 74° | 68km/h | 10187m | -2.6m/s | -46.5°C | 15.8% | 266.8hPa | 2.6V | 00:00:00 | 00:00:00 | 00:00:00 | |
| KRY50SP-1 | 2026-08-30 06:49:11 | 52.50775 | 15.49193 | 79° | 68km/h | 10192m | -2.4m/s | -46.6°C | 16.5% | 266.6hPa | 2.6V | 00:00:00 | 00:00:00 | 00:00:00 | |
| DB0DAN | 2026-08-30 06:49:10 | 52.50770 | 15.49138 | 83° | 64km/h | 10196m | -2.3m/s | -46.7°C | 16.9% | 266.42hPa | 2.6V | 00:00:00 | 00:00:00 | 00:00:00 | |
| SONDE2-12 | 2026-08-30 06:48:57 | 52.50750 | 15.48844 | 69° | 51km/h | 10230m | -2.6m/s | -46.9°C | 19.0% | 265.0hPa | 2.5V | 00:00:00 | 00:00:00 | 00:00:00 | |
| SP3WXH-11 | 2026-08-30 06:48:56 | 52.50746 | 15.48824 | 68° | 53km/h | 10233m | -2.7m/s | -46.9°C | 15.9% | 264.9hPa | 2.5V | 00:00:00 | 00:00:00 | 00:00:00 | |
| DB0DAN | 2026-08-30 06:48:55 | 52.50740 | 15.48802 | 68° | 55km/h | 10236m | -2.6m/s | -46.9°C | 16% | 264.79hPa | 2.5V | 00:00:00 | 00:00:00 | 00:00:00 | |
| AA1-15 | 2026-08-30 06:48:47 | 52.50710 | 15.48600 | 85° | 62km/h | 10255m | -2.4m/s | -47.1°C | 22% | 264.1hPa | 2.5V | 18:12:15 | 02:31:38 | 00:00:00 | |
| EDDB2-12 | 2026-08-30 06:48:47 | 52.50710 | 15.48600 | 85° | 60km/h | 10255m | -2.4m/s | -47.1°C | 17.9% | 264.1hPa | 2.6V | 00:00:00 | 00:00:00 | 00:00:00 | |
| SP3BTT-10 | 2026-08-30 06:48:45 | 52.50708 | 15.48550 | 88° | 57km/h | 10260m | -2.3m/s | -47.1°C | 24.9% | 263.8hPa | 2.6V | 00:00:00 | 00:00:00 | 08:30:00 | |
| KRY50SP-1 | 2026-08-30 06:48:43 | 52.50708 | 15.48527 | 90° | 55km/h | 10262m | -2.5m/s | -47.0°C | 17.9% | 263.8hPa | 2.6V | 00:00:00 | 00:00:00 | 00:00:00 | |
| SP6BVK | 2026-08-30 06:48:41 | 52.50707 | 15.48483 | 88° | 51km/h | 10267m | -2.6m/s | -47.1°C | 17.9% | 263.6hPa | 2.6V | 00:00:00 | 00:00:00 | 00:00:00 | |
| DB0DAN | 2026-08-30 06:48:40 | 52.50705 | 15.48443 | 84° | 44km/h | 10272m | -2.4m/s | -47.2°C | 17.7% | 263.33hPa | 2.6V | 00:00:00 | 00:00:00 | 00:00:00 | |
| AA1-15 | 2026-08-30 06:48:32 | 52.50670 | 15.48266 | 70° | 62km/h | 10296m | -2.5m/s | -47.2°C | 22.8% | 262.5hPa | 2.6V | 18:12:15 | 02:31:22 | 00:00:00 | |
| SQ2ODE-11 | 2026-08-30 06:48:30 | 52.50669 | 15.48266 | 71° | 62km/h | 10296m | -2.5m/s | -47.2°C | 17.8% | 262.5hPa | 2.6V | 00:00:00 | 00:00:00 | 00:00:00 | |
| KRY50SP-1 | 2026-08-30 06:48:26 | 52.50653 | 15.48164 | 81° | 64km/h | 10306m | -2.4m/s | -47.2°C | 18.7% | 262.1hPa | 2.6V | 00:00:00 | 00:00:00 | 00:00:00 | |
| DB0DAN | 2026-08-30 06:48:25 | 52.50649 | 15.48112 | 85° | 58km/h | 10310m | -2.4m/s | -47.3°C | 18.9% | 261.89hPa | 2.6V | 00:00:00 | 00:00:00 | 00:00:00 | |
| AA1-15 | 2026-08-30 06:48:19 | 52.50644 | 15.47978 | 84° | 46km/h | 10325m | -2.4m/s | -47.6°C | 24% | 261.3hPa | 2.5V | 18:12:15 | 02:31:10 | 00:00:00 | |
| SQ2ODE-11 | 2026-08-30 06:48:18 | 52.50644 | 15.47978 | 85° | 46km/h | 10326m | -2.4m/s | -47.6°C | 18.9% | 261.3hPa | 2.6V | 00:00:00 | 00:00:00 | 00:00:00 | |
| SQ2ODE-11 | 2026-08-30 06:48:11 | 52.50621 | 15.47845 | 69° | 55km/h | 10343m | -2.6m/s | -47.6°C | 18.3% | 260.6hPa | 2.6V | 00:00:00 | 00:00:00 | 00:00:00 | |
| DB0DAN | 2026-08-30 06:48:10 | 52.50610 | 15.47802 | 70° | 57km/h | 10348m | -2.4m/s | -47.6°C | 18.3% | 260.43hPa | 2.6V | 00:00:00 | 00:00:00 | 00:00:00 | |
| AA1-15 | 2026-08-30 06:48:08 | 52.50600 | 15.47754 | 73° | 64km/h | 10353m | -2.6m/s | -47.7°C | 23.8% | 260.2hPa | 2.5V | 18:12:15 | 02:30:59 | 00:00:00 | |
| AA1-15 | 2026-08-30 06:47:55 | 52.50578 | 15.47442 | 83° | 46km/h | 10386m | -2.6m/s | -48.2°C | 24.6% | 259hPa | 2.6V | 18:12:15 | 02:30:46 | 00:00:00 | |
| DB0DAN | 2026-08-30 06:47:55 | 52.50578 | 15.47442 | 83° | 44km/h | 10386m | -2.6m/s | -48.2°C | 19.4% | 258.97hPa | 2.6V | 00:00:00 | 00:00:00 | 00:00:00 | |
| AA1-15 | 2026-08-30 06:47:45 | 52.50537 | 15.47236 | 73° | 64km/h | 10413m | -2.4m/s | -48.4°C | 24.5% | 257.9hPa | 2.6V | 18:12:15 | 02:30:36 | 00:00:00 | |
| SP3BTT-10 | 2026-08-30 06:47:44 | 52.50533 | 15.47210 | 75° | 58km/h | 10415m | -2.2m/s | -48.4°C | 26.3% | 257.8hPa | 2.6V | 00:00:00 | 00:00:00 | 00:00:00 | |
| KRY50SP-1 | 2026-08-30 06:47:43 | 52.50533 | 15.47210 | 75° | 66km/h | 10415m | -2.3m/s | -48.4°C | 19.1% | 257.9hPa | 2.6V | 00:00:00 | 00:00:00 | 00:00:00 | |
| DB0DAN | 2026-08-30 06:47:40 | 52.50520 | 15.47105 | 82° | 58km/h | 10425m | -2.2m/s | -48.5°C | 19.2% | 257.5hPa | 2.6V | 00:00:00 | 00:00:00 | 00:00:00 | |
| AA1-15 | 2026-08-30 06:47:34 | 52.50512 | 15.46966 | 84° | 49km/h | 10439m | -2.3m/s | -48.6°C | 24.3% | 257hPa | 2.5V | 18:12:15 | 02:30:25 | 00:00:00 | |
| KRY50SP-1 | 2026-08-30 06:47:32 | 52.50511 | 15.46946 | 85° | 47km/h | 10441m | -2.2m/s | -48.7°C | 19.7% | 256.9hPa | 2.6V | 00:00:00 | 00:00:00 | 00:00:00 | |
| S3001 | 2026-08-30 06:47:30 | 52.50506 | 15.46889 | 76° | 46km/h | 10448m | -2.3m/s | -48.7°C | 19.7% | 256.6hPa | 2.6V | 00:00:00 | 00:00:00 | 00:00:00 | |
| SQ2ODE-11 | 2026-08-30 06:47:29 | 52.50506 | 15.46889 | 77° | 46km/h | 10448m | -2.3m/s | -48.7°C | 19.7% | 256.5hPa | 2.6V | 00:00:00 | 00:00:00 | 00:00:00 | |
| KRY50SP-1 | 2026-08-30 06:47:26 | 52.50496 | 15.46833 | 72° | 47km/h | 10455m | -2.2m/s | -48.8°C | 19.5% | 256.3hPa | 2.6V | 00:00:00 | 00:00:00 | 00:00:00 | |
| DB0DAN | 2026-08-30 06:47:25 | 52.50487 | 15.46795 | 65° | 47km/h | 10460m | -2.6m/s | -48.8°C | 19.1% | 256.14hPa | 2.6V | 00:00:00 | 00:00:00 | 00:00:00 | |
| AA1-15 | 2026-08-30 06:47:23 | 52.50476 | 15.46755 | 67° | 55km/h | 10465m | -2.7m/s | -48.8°C | 23.8% | 255.9hPa | 2.5V | 18:12:15 | 02:30:14 | 00:00:00 | |
| AA1-15 | 2026-08-30 06:47:13 | 52.50426 | 15.46505 | 83° | 62km/h | 10492m | -2.3m/s | -48.9°C | 22.7% | 254.9hPa | 2.5V | 18:12:15 | 02:30:04 | 00:00:00 | |
| DB0DAN | 2026-08-30 06:47:10 | 52.50422 | 15.46434 | 85° | 49km/h | 10500m | -2.2m/s | -48.9°C | 17.9% | 254.61hPa | 2.6V | 00:00:00 | 00:00:00 | 00:00:00 | |
| AA1-15 | 2026-08-30 06:47:02 | 52.50395 | 15.46277 | 64° | 53km/h | 10519m | -2.5m/s | -48.9°C | 21.7% | 253.9hPa | 2.5V | 18:12:15 | 02:29:53 | 00:00:00 | |
| S3001 | 2026-08-30 06:46:59 | 52.50376 | 15.46212 | 65° | 62km/h | 10527m | -2.3m/s | -48.9°C | 16.9% | 253.5hPa | 2.6V | 00:00:00 | 00:00:00 | 00:00:00 | |
| SP6BVK | 2026-08-30 06:46:58 | 52.50377 | 15.46212 | 67° | 64km/h | 10527m | -2.3m/s | -48.9°C | 16.9% | 253.5hPa | 2.6V | 00:00:00 | 00:00:00 | 00:00:00 | |
| DB0DAN | 2026-08-30 06:46:55 | 52.50355 | 15.46108 | 75° | 64km/h | 10536m | -2.2m/s | -49°C | 17% | 253.21hPa | 2.6V | 00:00:00 | 00:00:00 | 00:00:00 | |
| SP3WXH-11 | 2026-08-30 06:46:52 | 52.50344 | 15.46027 | 80° | 66km/h | 10543m | -2.0m/s | -49.0°C | 17.0% | 252.9hPa | 2.5V | 00:00:00 | 00:00:00 | 00:00:00 | |
| SONDE2-11 | 2026-08-30 06:46:45 | 52.50332 | 15.45864 | 79° | 47km/h | 10560m | -2.4m/s | -49.1°C | 17.0% | 252.3hPa | 2.5V | 00:00:00 | 00:00:00 | 00:00:00 | |
| SP3BTT-10 | 2026-08-30 06:46:43 | 52.50326 | 15.45824 | 75° | 60km/h | 10565m | -2.1m/s | -49.1°C | 24.0% | 252.0hPa | 2.5V | 00:00:00 | 00:00:00 | 00:00:00 | |
| KRY50SP-1 | 2026-08-30 06:46:41 | 52.50323 | 15.45805 | 72° | 47km/h | 10567m | -1.9m/s | -49.2°C | 17.0% | 252.0hPa | 2.5V | 00:00:00 | 00:00:00 | 00:00:00 | |
| DB0DAN | 2026-08-30 06:46:40 | 52.50314 | 15.45768 | 66° | 47km/h | 10571m | -2.4m/s | -49.2°C | 17% | 251.77hPa | 2.5V | 00:00:00 | 00:00:00 | 00:00:00 | |
| SP6BVK | 2026-08-30 06:46:37 | 52.50303 | 15.45728 | 65° | 57km/h | 10576m | -2.2m/s | -49.3°C | 17.1% | 251.6hPa | 2.6V | 00:00:00 | 00:00:00 | 00:00:00 | |
| EDDB2-11 | 2026-08-30 06:46:36 | 52.50290 | 15.45684 | 64° | 60km/h | 10579m | -1.8m/s | -49.3°C | 17.1% | 251.4hPa | 2.6V | 00:00:00 | 00:00:00 | 00:00:00 | |
| KRY50SP-1 | 2026-08-30 06:46:35 | 52.50290 | 15.45684 | 66° | 60km/h | 10579m | -1.8m/s | -49.3°C | 17.1% | 251.4hPa | 2.6V | 00:00:00 | 00:00:00 | 00:00:00 | |
| SQ2ODE-11 | 2026-08-30 06:46:32 | 52.50271 | 15.45613 | 70° | 64km/h | 10586m | -2.5m/s | -49.4°C | 17.2% | 251.1hPa | 2.6V | 00:00:00 | 00:00:00 | 00:00:00 | |
| KRY50SP-1 | 2026-08-30 06:46:30 | 52.50260 | 15.45561 | 74° | 68km/h | 10591m | -2.7m/s | -49.4°C | 17.4% | 250.9hPa | 2.6V | 00:00:00 | 00:00:00 | 00:00:00 | |
| S3001 | 2026-08-30 06:46:28 | 52.50248 | 15.45480 | 80° | 64km/h | 10599m | -2.9m/s | -49.4°C | 17.4% | 250.6hPa | 2.6V | 00:00:00 | 00:00:00 | 00:00:00 | |
| SQ2ODE-11 | 2026-08-30 06:46:26 | 52.50244 | 15.45429 | 85° | 60km/h | 10604m | -2.7m/s | -49.5°C | 17.4% | 250.5hPa | 2.6V | 00:00:00 | 00:00:00 | 00:00:00 | |
| SP3WXH-11 | 2026-08-30 06:46:21 | 52.50237 | 15.45321 | 79° | 46km/h | 10616m | -2.5m/s | -49.5°C | 17.4% | 250.0hPa | 2.6V | 00:00:00 | 00:00:00 | 00:00:00 | |
| KRY50SP-1 | 2026-08-30 06:46:18 | 52.50230 | 15.45283 | 72° | 47km/h | 10621m | -2.4m/s | -49.5°C | 17.3% | 249.8hPa | 2.6V | 00:00:00 | 00:00:00 | 00:00:00 | |
| SP6BVK | 2026-08-30 06:46:17 | 52.50226 | 15.45264 | 69° | 49km/h | 10624m | -2.3m/s | -49.5°C | 17.3% | 249.7hPa | 2.6V | 00:00:00 | 00:00:00 | 00:00:00 | |
| SQ2ODE-11 | 2026-08-30 06:46:16 | 52.50221 | 15.45245 | 65° | 53km/h | 10626m | -2.1m/s | -49.5°C | 17.3% | 249.6hPa | 2.6V | 00:00:00 | 00:00:00 | 00:00:00 | |
| SONDE2-11 | 2026-08-30 06:46:14 | 52.50202 | 15.45183 | 63° | 58km/h | 10634m | -3.0m/s | -49.6°C | 17.0% | 249.4hPa | 2.6V | 00:00:00 | 00:00:00 | 00:00:00 | |
| EDDB2-12 | 2026-08-30 06:46:12 | 52.50188 | 15.45136 | 66° | 64km/h | 10640m | -3.0m/s | -49.6°C | 17.1% | 249.2hPa | 2.6V | 00:00:00 | 00:00:00 | 00:00:00 | |
| DB0DAN | 2026-08-30 06:46:10 | 52.50175 | 15.45084 | 69° | 66km/h | 10646m | -2.6m/s | -49.7°C | 17.1% | 248.93hPa | 2.6V | 00:00:00 | 00:00:00 | 00:00:00 | |
| KRY50SP-1 | 2026-08-30 06:46:06 | 52.50161 | 15.45002 | 78° | 69km/h | 10654m | -2.2m/s | -49.7°C | 17.3% | 248.7hPa | 2.5V | 00:00:00 | 00:00:00 | 00:00:00 | |
| EDDB2-11 | 2026-08-30 06:46:05 | 52.50155 | 15.44948 | 82° | 62km/h | 10659m | -2.3m/s | -49.7°C | 17.4% | 248.5hPa | 2.5V | 00:00:00 | 00:00:00 | 00:00:00 | |
| S3001 | 2026-08-30 06:45:57 | 52.50139 | 15.44773 | 71° | 49km/h | 10679m | -2.1m/s | -49.9°C | 17.4% | 247.7hPa | 2.5V | 00:00:00 | 00:00:00 | 00:00:00 | |
| SP6BVK | 2026-08-30 06:45:56 | 52.50139 | 15.44773 | 73° | 49km/h | 10679m | -2.1m/s | -49.9°C | 17.5% | 247.7hPa | 2.5V | 00:00:00 | 00:00:00 | 00:00:00 | |
| DB0DAN | 2026-08-30 06:45:55 | 52.50130 | 15.44734 | 66° | 49km/h | 10684m | -2.4m/s | -49.9°C | 17.2% | 247.56hPa | 2.5V | 00:00:00 | 00:00:00 | 00:00:00 | |
| AA1-15 | 2026-08-30 06:45:45 | 52.50074 | 15.44487 | 76° | 68km/h | 10708m | -2.1m/s | -49.9°C | 21.9% | 246.6hPa | 2.5V | 18:12:15 | 02:28:36 | 00:00:00 | |
| SP3BTT-10 | 2026-08-30 06:45:43 | 52.50067 | 15.44433 | 80° | 57km/h | 10712m | -1.7m/s | -49.9°C | 24.7% | 246.4hPa | 2.6V | 00:00:00 | 00:00:00 | 00:00:00 | |
| DB0DAN | 2026-08-30 06:45:40 | 52.50060 | 15.44359 | 81° | 57km/h | 10718m | -2.1m/s | -50°C | 17.8% | 246.19hPa | 2.5V | 00:00:00 | 00:00:00 | 00:00:00 | |
| KRY50SP-1 | 2026-08-30 06:45:39 | 52.50060 | 15.44359 | 82° | 58km/h | 10719m | -2.1m/s | -50.0°C | 17.9% | 246.2hPa | 2.5V | 00:00:00 | 00:00:00 | 00:00:00 | |
| SP6BVK | 2026-08-30 06:45:36 | 52.50054 | 15.44292 | 81° | 53km/h | 10725m | -1.9m/s | -50.1°C | 17.9% | 246.0hPa | 2.5V | 00:00:00 | 00:00:00 | 00:00:00 | |
| EDDB2-11 | 2026-08-30 06:45:34 | 52.50046 | 15.44231 | 74° | 47km/h | 10732m | -2.8m/s | -50.1°C | 17.7% | 245.7hPa | 2.5V | 00:00:00 | 00:00:00 | 00:00:00 | |
| KRY50SP-1 | 2026-08-30 06:45:33 | 52.50046 | 15.44231 | 75° | 47km/h | 10733m | -2.8m/s | -50.1°C | 17.7% | 245.7hPa | 2.5V | 00:00:00 | 00:00:00 | 00:00:00 | |
| SQ2ODE-11 | 2026-08-30 06:45:28 | 52.50023 | 15.44139 | 64° | 53km/h | 10746m | -2.4m/s | -50.2°C | 17.2% | 245.2hPa | 2.5V | 00:00:00 | 00:00:00 | 00:00:00 | |
| 13BRC | 2026-08-30 06:45:26 | 52.50010 | 15.44099 | 62° | 57km/h | 10751m | -2.0m/s | -50.2°C | 17.3% | 245.1hPa | 2.5V | 00:00:00 | 00:00:00 | 00:00:00 | |
| DB0DAN | 2026-08-30 06:45:25 | 52.49996 | 15.44055 | 65° | 60km/h | 10756m | -2.1m/s | -50.2°C | 17.6% | 244.85hPa | 2.5V | 00:00:00 | 00:00:00 | 00:00:00 | |
| KRY50SP-1 | 2026-08-30 06:45:23 | 52.49989 | 15.44031 | 67° | 64km/h | 10758m | -2.2m/s | -50.2°C | 17.9% | 244.7hPa | 2.5V | 00:00:00 | 00:00:00 | 00:00:00 | |
| SP3WXH-11 | 2026-08-30 06:45:19 | 52.49963 | 15.43900 | 78° | 64km/h | 10771m | -2.2m/s | -50.2°C | 18.6% | 244.3hPa | 2.5V | 00:00:00 | 00:00:00 | 00:00:00 | |
| KRY50SP-1 | 2026-08-30 06:45:18 | 52.49963 | 15.43900 | 79° | 66km/h | 10771m | -2.2m/s | -50.2°C | 18.7% | 244.3hPa | 2.5V | 00:00:00 | 00:00:00 | 00:00:00 | |
| SP6BVK | 2026-08-30 06:45:15 | 52.49955 | 15.43826 | 83° | 55km/h | 10778m | -2.3m/s | -50.3°C | 18.8% | 244.0hPa | 2.5V | 00:00:00 | 00:00:00 | 00:00:00 | |
| KRY50SP-1 | 2026-08-30 06:45:12 | 52.49949 | 15.43762 | 80° | 47km/h | 10785m | -2.5m/s | -50.4°C | 18.8% | 243.8hPa | 2.5V | 00:00:00 | 00:00:00 | 00:00:00 | |
| DB0DAN | 2026-08-30 06:45:10 | 52.49940 | 15.43706 | 71° | 44km/h | 10793m | -2.6m/s | -50.4°C | 18.8% | 243.47hPa | 2.5V | 00:00:00 | 00:00:00 | 00:00:00 | |
| KRY50SP-1 | 2026-08-30 06:45:07 | 52.49931 | 15.43671 | 65° | 47km/h | 10798m | -2.1m/s | -50.5°C | 19.1% | 243.3hPa | 2.6V | 00:00:00 | 00:00:00 | 00:00:00 | |
| SQ2ODE-11 | 2026-08-30 06:45:06 | 52.49925 | 15.43653 | 63° | 51km/h | 10800m | -2.6m/s | -50.5°C | 19.1% | 243.2hPa | 2.6V | 00:00:00 | 00:00:00 | 00:00:00 | |
| 13BRC | 2026-08-30 06:45:05 | 52.49919 | 15.43635 | 61° | 51km/h | 10803m | -2.2m/s | -50.5°C | 19.2% | 243.1hPa | 2.6V | 00:00:00 | 00:00:00 | 00:00:00 | |
| EDDB2-11 | 2026-08-30 06:45:03 | 52.49897 | 15.43572 | 62° | 62km/h | 10810m | -2.5m/s | -50.6°C | 19.0% | 242.8hPa | 2.6V | 00:00:00 | 00:00:00 | 00:00:00 | |
| KRY50SP-1 | 2026-08-30 06:44:56 | 52.49863 | 15.43418 | 78° | 64km/h | 10826m | -2.3m/s | -50.7°C | 19.3% | 242.3hPa | 2.6V | 00:00:00 | 00:00:00 | 00:00:00 | |
| DB0DAN | 2026-08-30 06:44:55 | 52.49857 | 15.43367 | 82° | 57km/h | 10830m | -2.3m/s | -50.8°C | 19.4% | 242.09hPa | 2.6V | 00:00:00 | 00:00:00 | 00:00:00 | |
| SP3WXH-11 | 2026-08-30 06:44:48 | 52.49836 | 15.43223 | 67° | 47km/h | 10848m | -2.3m/s | -51.0°C | 20.5% | 241.4hPa | 2.5V | 00:00:00 | 00:00:00 | 00:00:00 | |
| KRY50SP-1 | 2026-08-30 06:44:44 | 52.49819 | 15.43167 | 62° | 53km/h | 10855m | -2.5m/s | -51.0°C | 20.5% | 241.2hPa | 2.5V | 00:00:00 | 00:00:00 | 00:00:00 | |
| SP3BTT-10 | 2026-08-30 06:44:43 | 52.49805 | 15.43127 | 62° | 62km/h | 10859m | -2.1m/s | -51.0°C | 28.8% | 241.0hPa | 2.5V | 00:00:00 | 00:00:00 | 00:00:00 | |
| DB0DAN | 2026-08-30 06:44:40 | 52.49783 | 15.43059 | 65° | 64km/h | 10867m | -1.8m/s | -51°C | 20.2% | 240.75hPa | 2.5V | 00:00:00 | 00:00:00 | 00:00:00 | |
| AA1-15 | 2026-08-30 06:44:30 | 52.49739 | 15.42800 | 81° | 58km/h | 10892m | -2.1m/s | -51.2°C | 26.3% | 239.8hPa | 2.6V | 18:12:15 | 02:27:21 | 00:00:00 | |
| KRY50SP-1 | 2026-08-30 06:44:27 | 52.49734 | 15.42756 | 80° | 53km/h | 10897m | -2.1m/s | -51.2°C | 21.4% | 239.6hPa | 2.5V | 00:00:00 | 00:00:00 | 00:00:00 | |
| SQ2ODE-11 | 2026-08-30 06:44:26 | 52.49731 | 15.42735 | 78° | 51km/h | 10899m | -2.5m/s | -51.3°C | 21.6% | 239.5hPa | 2.5V | 00:00:00 | 00:00:00 | 00:00:00 | |
| DB0DAN | 2026-08-30 06:44:25 | 52.49725 | 15.42696 | 73° | 47km/h | 10904m | -2m/s | -51.3°C | 21.8% | 239.33hPa | 2.5V | 00:00:00 | 00:00:00 | 00:00:00 | |
| AA1-15 | 2026-08-30 06:44:19 | 52.49691 | 15.42578 | 61° | 60km/h | 10920m | -2.5m/s | -51.4°C | 27.4% | 238.8hPa | 2.5V | 18:12:15 | 02:27:10 | 00:00:00 | |
| SONDE2-12 | 2026-08-30 06:44:18 | 52.49646 | 15.42435 | 66° | 71km/h | 10936m | -2.7m/s | -51.4°C | 26.1% | 238.2hPa | 2.6V | 00:00:00 | 00:00:00 | 00:00:00 | |
| SP3WXH-11 | 2026-08-30 06:44:17 | 52.49676 | 15.42534 | 62° | 62km/h | 10925m | -2.8m/s | -51.4°C | 21.4% | 238.6hPa | 2.6V | 00:00:00 | 00:00:00 | 00:00:00 | |
| KRY50SP-1 | 2026-08-30 06:44:16 | 52.49676 | 15.42534 | 63° | 62km/h | 10925m | -2.8m/s | -51.4°C | 21.4% | 238.6hPa | 2.6V | 00:00:00 | 00:00:00 | 00:00:00 | |
| SP6BVK | 2026-08-30 06:44:13 | 52.49653 | 15.42462 | 66° | 69km/h | 10933m | -2.5m/s | -51.4°C | 21.2% | 238.3hPa | 2.6V | 00:00:00 | 00:00:00 | 00:00:00 | |
| SQ2ODE-11 | 2026-08-30 06:44:12 | 52.49645 | 15.42435 | 67° | 71km/h | 10936m | -2.7m/s | -51.4°C | 21.2% | 238.2hPa | 2.6V | 00:00:00 | 00:00:00 | 00:00:00 | |
| DB0DAN | 2026-08-30 06:44:10 | 52.49628 | 15.42353 | 74° | 68km/h | 10944m | -2.6m/s | -51.5°C | 21.6% | 237.9hPa | 2.6V | 00:00:00 | 00:00:00 | 00:00:00 | |
| AA1-15 | 2026-08-30 06:44:07 | 52.49617 | 15.42272 | 80° | 64km/h | 10952m | -2.4m/s | -51.5°C | 27.7% | 237.6hPa | 2.5V | 18:12:15 | 02:26:58 | 00:00:00 | |
| KRY50SP-1 | 2026-08-30 06:44:03 | 52.49610 | 15.42201 | 79° | 55km/h | 10960m | -2.3m/s | -51.5°C | 22.7% | 237.3hPa | 2.6V | 00:00:00 | 00:00:00 | 00:00:00 | |
| EDDB2-11 | 2026-08-30 06:44:01 | 52.49599 | 15.42140 | 67° | 49km/h | 10968m | -2.6m/s | -51.6°C | 22.6% | 237.0hPa | 2.6V | 00:00:00 | 00:00:00 | 00:00:00 | |
| KRY50SP-1 | 2026-08-30 06:43:57 | 52.49581 | 15.42081 | 63° | 57km/h | 10976m | -2.5m/s | -51.6°C | 22.7% | 236.7hPa | 2.6V | 00:00:00 | 00:00:00 | 00:00:00 | |
| DB0DAN | 2026-08-30 06:43:55 | 52.49558 | 15.42014 | 61° | 62km/h | 10984m | -2.7m/s | -51.7°C | 22.7% | 236.48hPa | 2.6V | 00:00:00 | 00:00:00 | 00:00:00 | |
| AA1-15 | 2026-08-30 06:43:52 | 52.49534 | 15.41939 | 65° | 71km/h | 10993m | -2.1m/s | -51.7°C | 28.6% | 236.2hPa | 2.5V | 18:12:15 | 02:26:43 | 00:00:00 | |
| SP3WXH-11 | 2026-08-30 06:43:46 | 52.49501 | 15.41770 | 78° | 68km/h | 11007m | -2.4m/s | -51.8°C | 22.7% | 235.6hPa | 2.5V | 00:00:00 | 00:00:00 | 00:00:00 | |
| AA1-15 | 2026-08-30 06:43:41 | 52.49489 | 15.41645 | 78° | 55km/h | 11021m | -3m/s | -51.9°C | 29.1% | 235.1hPa | 2.5V | 18:12:15 | 02:26:32 | 00:00:00 | |
| DB0DAN | 2026-08-30 06:43:40 | 52.49486 | 15.41624 | 77° | 49km/h | 11025m | -2.8m/s | -52°C | 23.1% | 234.95hPa | 2.5V | 00:00:00 | 00:00:00 | 00:00:00 | |
| AA1-15 | 2026-08-30 06:43:30 | 52.49423 | 15.41405 | 64° | 69km/h | 11051m | -2.6m/s | -52.2°C | 29.2% | 234hPa | 2.6V | 18:12:15 | 02:26:21 | 00:00:00 | |
| DB0DAN | 2026-08-30 06:43:25 | 52.49394 | 15.41266 | 76° | 68km/h | 11065m | -2.5m/s | -52.3°C | 23.1% | 233.52hPa | 2.6V | 00:00:00 | 00:00:00 | 00:00:00 | |
| AA1-15 | 2026-08-30 06:43:20 | 52.49378 | 15.41130 | 80° | 62km/h | 11078m | -2.5m/s | -52.4°C | 29.3% | 233hPa | 2.5V | 18:12:15 | 02:26:11 | 00:00:00 | |
| SONDE2-12 | 2026-08-30 06:43:16 | 52.49350 | 15.40928 | 69° | 53km/h | 11103m | -2.5m/s | -52.5°C | 29.7% | 232.2hPa | 2.6V | 00:00:00 | 00:00:00 | 00:00:00 | |
| SP3WXH-11 | 2026-08-30 06:43:15 | 52.49366 | 15.41012 | 78° | 55km/h | 11093m | -2.6m/s | -52.5°C | 23.5% | 232.5hPa | 2.6V | 00:00:00 | 00:00:00 | 00:00:00 | |
| KRY50SP-1 | 2026-08-30 06:43:14 | 52.49366 | 15.41012 | 80° | 55km/h | 11093m | -2.6m/s | -52.5°C | 23.6% | 232.5hPa | 2.6V | 00:00:00 | 00:00:00 | 00:00:00 | |
| SP6BVK | 2026-08-30 06:43:12 | 52.49359 | 15.40969 | 75° | 53km/h | 11099m | -2.2m/s | -52.5°C | 23.8% | 232.3hPa | 2.6V | 00:00:00 | 00:00:00 | 00:00:00 | |
| DB0DAN | 2026-08-30 06:43:10 | 52.49345 | 15.40907 | 68° | 53km/h | 11106m | -2.2m/s | -52.5°C | 24% | 232.07hPa | 2.6V | 00:00:00 | 00:00:00 | 00:00:00 | |
| AA1-15 | 2026-08-30 06:43:08 | 52.49333 | 15.40863 | 64° | 60km/h | 11111m | -2.8m/s | -52.6°C | 29.7% | 231.8hPa | 2.5V | 18:12:15 | 02:25:59 | 00:00:00 | |
| AA1-15 | 2026-08-30 06:42:57 | 52.49258 | 15.40571 | 75° | 73km/h | 11140m | -3m/s | -52.7°C | 30.1% | 230.8hPa | 2.6V | 18:12:15 | 02:25:48 | 00:00:00 | |
| DB0DAN | 2026-08-30 06:42:55 | 52.49249 | 15.40512 | 79° | 69km/h | 11146m | -2.8m/s | -52.7°C | 24.4% | 230.53hPa | 2.5V | 00:00:00 | 00:00:00 | 00:00:00 | |
| AA1-15 | 2026-08-30 06:42:46 | 52.49229 | 15.40287 | 76° | 51km/h | 11173m | -2.8m/s | -52.7°C | 30.5% | 229.6hPa | 2.6V | 18:12:15 | 02:25:37 | 00:00:00 | |
| SP3BTT-10 | 2026-08-30 06:42:44 | 52.49221 | 15.40246 | 70° | 62km/h | 11179m | -2.4m/s | -52.7°C | 34.9% | 229.4hPa | 2.6V | 00:00:00 | 00:00:00 | 00:00:00 | |
| DB0DAN | 2026-08-30 06:42:40 | 52.49198 | 15.40159 | 64° | 60km/h | 11191m | -2.2m/s | -52.8°C | 25.3% | 229.01hPa | 2.5V | 00:00:00 | 00:00:00 | 00:00:00 | |
| AA1-15 | 2026-08-30 06:42:36 | 52.49172 | 15.40057 | 72° | 69km/h | 11201m | -2.4m/s | -52.8°C | 31.1% | 228.6hPa | 2.5V | 18:12:15 | 02:25:27 | 00:00:00 | |
| AA1-15 | 2026-08-30 06:42:25 | 52.49137 | 15.39759 | 84° | 55km/h | 11230m | -2.6m/s | -52.8°C | 31.5% | 227.6hPa | 2.5V | 18:12:15 | 02:25:16 | 00:00:00 | |
| DB0DAN | 2026-08-30 06:42:25 | 52.49137 | 15.39759 | 83° | 53km/h | 11230m | -2.6m/s | -52.8°C | 25.1% | 227.57hPa | 2.5V | 00:00:00 | 00:00:00 | 00:00:00 | |
| AA1-15 | 2026-08-30 06:42:14 | 52.49090 | 15.39529 | 66° | 62km/h | 11262m | -2.3m/s | -53°C | 32.1% | 226.5hPa | 2.5V | 18:12:15 | 02:25:05 | 00:00:00 | |
| SP3WXH-11 | 2026-08-30 06:42:13 | 52.49084 | 15.39505 | 67° | 62km/h | 11265m | -2.1m/s | -53.1°C | 26.3% | 226.4hPa | 2.5V | 00:00:00 | 00:00:00 | 00:00:00 | |
| DB0DAN | 2026-08-30 06:42:10 | 52.49066 | 15.39427 | 72° | 68km/h | 11272m | -2.3m/s | -53.1°C | 26.4% | 226.12hPa | 2.5V | 00:00:00 | 00:00:00 | 00:00:00 | |
| AA1-15 | 2026-08-30 06:42:03 | 52.49045 | 15.39231 | 86° | 64km/h | 11291m | -3.2m/s | -53.2°C | 32.7% | 225.4hPa | 2.5V | 18:12:15 | 02:24:54 | 00:00:00 | |
| KRY50SP-1 | 2026-08-30 06:42:02 | 52.49045 | 15.39231 | 87° | 64km/h | 11291m | -3.2m/s | -53.2°C | 26.5% | 225.4hPa | 2.6V | 00:00:00 | 00:00:00 | 00:00:00 | |
| EDDB2-11 | 2026-08-30 06:41:57 | 52.49036 | 15.39102 | 73° | 47km/h | 11309m | -2.7m/s | -53.3°C | 27.0% | 224.8hPa | 2.6V | 00:00:00 | 00:00:00 | 00:00:00 | |
| DB0DAN | 2026-08-30 06:41:55 | 52.49027 | 15.39063 | 68° | 51km/h | 11314m | -2.7m/s | -53.4°C | 26.7% | 224.63hPa | 2.6V | 00:00:00 | 00:00:00 | 00:00:00 | |
| AA1-15 | 2026-08-30 06:41:52 | 52.49009 | 15.38996 | 66° | 64km/h | 11323m | -2.6m/s | -53.3°C | 33% | 224.3hPa | 2.5V | 18:12:15 | 02:24:43 | 00:00:00 | |
| S3001 | 2026-08-30 06:41:49 | 52.48990 | 15.38920 | 72° | 66km/h | 11332m | -2.6m/s | -53.3°C | 26.7% | 224.1hPa | 2.5V | 00:00:00 | 00:00:00 | 00:00:00 | |
| SQ2ODE-11 | 2026-08-30 06:41:47 | 52.48985 | 15.38893 | 76° | 69km/h | 11335m | -2.4m/s | -53.3°C | 26.7% | 224.0hPa | 2.5V | 00:00:00 | 00:00:00 | 00:00:00 | |
| KRY50SP-1 | 2026-08-30 06:41:45 | 52.48977 | 15.38837 | 81° | 68km/h | 11340m | -2.1m/s | -53.3°C | 27.1% | 223.7hPa | 2.5V | 00:00:00 | 00:00:00 | 00:00:00 | |
| SP3BTT-10 | 2026-08-30 06:41:43 | 52.48971 | 15.38756 | 85° | 66km/h | 11348m | -2.3m/s | -53.3°C | 38.5% | 223.4hPa | 2.5V | 00:00:00 | 00:00:00 | 00:00:00 | |
| SP3WXH-11 | 2026-08-30 06:41:42 | 52.48970 | 15.38731 | 86° | 58km/h | 11351m | -2.7m/s | -53.4°C | 27.5% | 223.4hPa | 2.5V | 00:00:00 | 00:00:00 | 00:00:00 | |
| DB0DAN | 2026-08-30 06:41:40 | 52.48968 | 15.38682 | 86° | 55km/h | 11357m | -2.5m/s | -53.4°C | 27.8% | 223.2hPa | 2.5V | 00:00:00 | 00:00:00 | 00:00:00 | |
| AA1-15 | 2026-08-30 06:41:36 | 52.48961 | 15.38592 | 80° | 51km/h | 11368m | -2.4m/s | -53.5°C | 34.5% | 222.8hPa | 2.6V | 18:12:15 | 02:24:27 | 00:00:00 | |
| SONDE2-11 | 2026-08-30 06:41:34 | 52.48956 | 15.38550 | 76° | 53km/h | 11373m | -2.1m/s | -53.6°C | 28.6% | 222.7hPa | 2.6V | 00:00:00 | 00:00:00 | 00:00:00 | |
| KRY50SP-1 | 2026-08-30 06:41:33 | 52.48956 | 15.38550 | 77° | 53km/h | 11373m | -2.1m/s | -53.6°C | 28.6% | 222.7hPa | 2.6V | 00:00:00 | 00:00:00 | 00:00:00 | |
| EDDB2-12 | 2026-08-30 06:41:32 | 52.48949 | 15.38508 | 75° | 51km/h | 11378m | -2.4m/s | -53.6°C | 28.8% | 222.5hPa | 2.6V | 00:00:00 | 00:00:00 | 00:00:00 | |
| SP6BVK | 2026-08-30 06:41:28 | 52.48939 | 15.38445 | 75° | 51km/h | 11386m | -2.2m/s | -53.7°C | 29.0% | 222.2hPa | 2.6V | 00:00:00 | 00:00:00 | 00:00:00 | |
| KRY50SP-1 | 2026-08-30 06:41:27 | 52.48936 | 15.38424 | 74° | 53km/h | 11389m | -2.2m/s | -53.7°C | 28.9% | 222.1hPa | 2.6V | 00:00:00 | 00:00:00 | 00:00:00 | |
| DB0DAN | 2026-08-30 06:41:25 | 52.48924 | 15.38363 | 73° | 49km/h | 11396m | -2.3m/s | -53.7°C | 28.9% | 221.84hPa | 2.6V | 00:00:00 | 00:00:00 | 00:00:00 | |
| KRY50SP-1 | 2026-08-30 06:41:21 | 52.48911 | 15.38300 | 73° | 53km/h | 11404m | -2.4m/s | -53.8°C | 28.9% | 221.6hPa | 2.6V | 00:00:00 | 00:00:00 | 00:00:00 | |
| S3001 | 2026-08-30 06:41:18 | 52.48893 | 15.38216 | 71° | 55km/h | 11414m | -2.5m/s | -53.9°C | 29.3% | 221.2hPa | 2.6V | 00:00:00 | 00:00:00 | 00:00:00 | |
| 13BRC | 2026-08-30 06:41:17 | 52.48893 | 15.38216 | 72° | 55km/h | 11414m | -2.5m/s | -53.8°C | 29.3% | 221.2hPa | 2.6V | 00:00:00 | 00:00:00 | 00:00:00 | |
| KRY50SP-1 | 2026-08-30 06:41:15 | 52.48884 | 15.38173 | 71° | 57km/h | 11419m | -2.9m/s | -53.9°C | 29.7% | 221.0hPa | 2.6V | 00:00:00 | 00:00:00 | 00:00:00 | |
| DL2RXE-15 | 2026-08-30 06:41:12 | 52.48868 | 15.38103 | 70° | 60km/h | 11428m | -2.6m/s | -53.9°C | 29.9% | 220.8hPa | 2.6V | 00:00:00 | 00:00:00 | 00:00:00 | |
| DB0DAN | 2026-08-30 06:41:10 | 52.48851 | 15.38027 | 71° | 66km/h | 11435m | -2.1m/s | -54°C | 29.9% | 220.53hPa | 2.6V | 00:00:00 | 00:00:00 | 00:00:00 | |
| AA1-15 | 2026-08-30 06:40:57 | 52.48792 | 15.37657 | 82° | 69km/h | 11471m | -2.2m/s | -53.8°C | 34.4% | 219.3hPa | 2.5V | 18:12:15 | 02:23:48 | 00:00:00 | |
| OE3JTB-15 | 2026-08-30 06:40:57 | 52.48792 | 15.37657 | 83° | 64km/h | 11471m | -2.2m/s | -53.7°C | 39.6% | 219.2hPa | 2.6V | 00:00:00 | 00:00:00 | 00:00:00 | |
| 13BRC | 2026-08-30 06:40:56 | 52.48792 | 15.37657 | 83° | 69km/h | 11471m | -2.2m/s | -53.8°C | 28.1% | 219.3hPa | 2.6V | 00:00:00 | 00:00:00 | 00:00:00 | |
| DB0DAN | 2026-08-30 06:40:55 | 52.48788 | 15.37601 | 85° | 66km/h | 11476m | -2.3m/s | -53.8°C | 27.7% | 219.05hPa | 2.6V | 00:00:00 | 00:00:00 | 00:00:00 | |
| AA1-15 | 2026-08-30 06:40:46 | 52.48779 | 15.37374 | 84° | 55km/h | 11500m | -2.7m/s | -53.9°C | 32.9% | 218.3hPa | 2.6V | 18:12:15 | 02:23:37 | 00:00:00 | |
| SP3BTT-10 | 2026-08-30 06:40:43 | 52.48773 | 15.37306 | 80° | 60km/h | 11509m | -2.3m/s | -53.9°C | 38.6% | 217.9hPa | 2.6V | 00:00:00 | 00:00:00 | 00:00:00 | |
| KRY50SP-1 | 2026-08-30 06:40:42 | 52.48773 | 15.37306 | 81° | 57km/h | 11509m | -2.3m/s | -54.0°C | 27.3% | 218.0hPa | 2.6V | 00:00:00 | 00:00:00 | 00:00:00 | |
| DB0DAN | 2026-08-30 06:40:40 | 52.48762 | 15.37236 | 73° | 58km/h | 11517m | -2.2m/s | -53.9°C | 26.4% | 217.72hPa | 2.6V | 00:00:00 | 00:00:00 | 00:00:00 | |
| AA1-15 | 2026-08-30 06:40:35 | 52.48733 | 15.37110 | 69° | 69km/h | 11529m | -2.5m/s | -53.9°C | 30.4% | 217.2hPa | 2.6V | 18:12:15 | 02:23:26 | 00:00:00 | |
| SONDE2-11 | 2026-08-30 06:40:32 | 52.48714 | 15.37025 | 71° | 73km/h | 11538m | -2.8m/s | -53.9°C | 24.0% | 217.0hPa | 2.5V | 00:00:00 | 00:00:00 | 00:00:00 | |
| DL2RXE-15 | 2026-08-30 06:40:31 | 52.48708 | 15.36996 | 75° | 73km/h | 11541m | -2.2m/s | -53.9°C | 23.8% | 216.8hPa | 2.5V | 00:00:00 | 00:00:00 | 00:00:00 | |
| KRY50SP-1 | 2026-08-30 06:40:30 | 52.48708 | 15.36996 | 75° | 73km/h | 11541m | -2.2m/s | -53.9°C | 23.8% | 216.8hPa | 2.5V | 00:00:00 | 00:00:00 | 00:00:00 | |
| OE3JTB-15 | 2026-08-30 06:40:28 | 52.48697 | 15.36903 | 84° | 64km/h | 11548m | -2.7m/s | -53.7°C | 33.0% | 216.5hPa | 2.5V | 00:00:00 | 02:23:19 | 00:00:00 | |
| SP6BVK | 2026-08-30 06:40:26 | 52.48696 | 15.36873 | 88° | 71km/h | 11551m | -2.3m/s | -53.7°C | 22.8% | 216.5hPa | 2.5V | 00:00:00 | 00:00:00 | 00:00:00 | |
| DB0DAN | 2026-08-30 06:40:25 | 52.48694 | 15.36815 | 88° | 66km/h | 11556m | -2.8m/s | -53.8°C | 22.1% | 216.25hPa | 2.5V | 00:00:00 | 00:00:00 | 00:00:00 | |
| AA1-15 | 2026-08-30 06:40:13 | 52.48663 | 15.36530 | 70° | 68km/h | 11592m | -2.7m/s | -53.4°C | 20.9% | 215.2hPa | 2.5V | 18:12:15 | 02:23:04 | 00:00:00 | |
| DB0DAN | 2026-08-30 06:40:10 | 52.48647 | 15.36447 | 76° | 69km/h | 11600m | -2.9m/s | -53.3°C | 15.8% | 214.89hPa | 2.6V | 00:00:00 | 00:00:00 | 00:00:00 | |
| AA1-15 | 2026-08-30 06:39:57 | 52.48627 | 15.36100 | 85° | 57km/h | 11634m | -2.6m/s | -53.4°C | 17.8% | 213.7hPa | 2.6V | 18:12:15 | 02:22:48 | 00:00:00 | |
| EDDB2-11 | 2026-08-30 06:39:53 | 52.48618 | 15.36010 | 75° | 55km/h | 11644m | -1.9m/s | -53.3°C | 12.8% | 213.4hPa | 2.6V | 00:00:00 | 00:00:00 | 00:00:00 | |
| S3001 | 2026-08-30 06:39:45 | 52.48579 | 15.35824 | 71° | 64km/h | 11666m | -2.7m/s | -53.3°C | 11.8% | 212.7hPa | 2.6V | 00:00:00 | 00:00:00 | 00:00:00 | |
| SONDE2-12 | 2026-08-30 06:39:38 | 52.48540 | 15.35628 | 72° | 60km/h | 11686m | -2.2m/s | -53.4°C | 13.7% | 212.1hPa | 2.6V | 00:00:00 | 00:00:00 | 00:00:00 | |
| AA1-15 | 2026-08-30 06:39:31 | 52.48509 | 15.35476 | 71° | 66km/h | 11701m | -2.4m/s | -53.4°C | 13.2% | 211.6hPa | 2.6V | 18:12:15 | 02:22:22 | 00:00:00 | |
| OE3JTB-15 | 2026-08-30 06:39:30 | 52.48503 | 15.35449 | 72° | 73km/h | 11703m | -2.1m/s | -53.4°C | 16.1% | 211.5hPa | 2.5V | 00:00:00 | 00:00:00 | 00:00:00 | |
| KRY50SP-1 | 2026-08-30 06:39:29 | 52.48503 | 15.35449 | 73° | 68km/h | 11703m | -2.1m/s | -53.4°C | 10.1% | 211.5hPa | 2.5V | 00:00:00 | 00:00:00 | 00:00:00 | |
| EDDB2-12 | 2026-08-30 06:39:28 | 52.48492 | 15.35393 | 71° | 73km/h | 11708m | -1.7m/s | -53.3°C | 9.6% | 211.3hPa | 2.5V | 00:00:00 | 00:00:00 | 00:00:00 | |
| DB0DAN | 2026-08-30 06:39:25 | 52.48477 | 15.35302 | 77° | 73km/h | 11714m | -3m/s | -53.2°C | 8.8% | 211.09hPa | 2.5V | 00:00:00 | 00:00:00 | 00:00:00 | |
| AA1-15 | 2026-08-30 06:39:20 | 52.48464 | 15.35145 | 89° | 73km/h | 11729m | -2.5m/s | -52.9°C | 11% | 210.6hPa | 2.5V | 18:12:15 | 02:22:11 | 00:00:00 | |
| KRY50SP-1 | 2026-08-30 06:39:19 | 52.48464 | 15.35145 | 89° | 73km/h | 11729m | -2.5m/s | -52.9°C | 8.3% | 210.6hPa | 2.5V | 00:00:00 | 00:00:00 | 00:00:00 | |
| SQ2ODE-11 | 2026-08-30 06:39:18 | 52.48464 | 15.35115 | 90° | 69km/h | 11732m | -2.6m/s | -52.9°C | 8.5% | 210.5hPa | 2.5V | 00:00:00 | 00:00:00 | 00:00:00 | |
| KRY50SP-1 | 2026-08-30 06:39:14 | 52.48458 | 15.34988 | 78° | 58km/h | 11746m | -2.2m/s | -52.9°C | 8.4% | 210.1hPa | 2.5V | 00:00:00 | 00:00:00 | 00:00:00 | |
| 13BRC | 2026-08-30 06:39:13 | 52.48458 | 15.34988 | 78° | 58km/h | 11746m | -2.2m/s | -52.9°C | 8.4% | 210.1hPa | 2.5V | 00:00:00 | 00:00:00 | 00:00:00 | |
| SQ2ODE-11 | 2026-08-30 06:39:12 | 52.48454 | 15.34964 | 76° | 58km/h | 11749m | -2.1m/s | -52.9°C | 8.3% | 210.0hPa | 2.5V | 00:00:00 | 00:00:00 | 00:00:00 | |
| DB0DAN | 2026-08-30 06:39:10 | 52.48440 | 15.34891 | 69° | 66km/h | 11757m | -2.1m/s | -52.9°C | 8.1% | 209.77hPa | 2.5V | 00:00:00 | 00:00:00 | 00:00:00 | |
| AA1-15 | 2026-08-30 06:39:10 | 52.48440 | 15.34891 | 69° | 69km/h | 11757m | -2.1m/s | -52.9°C | 10.8% | 209.8hPa | 2.5V | 18:12:15 | 02:22:01 | 00:00:00 | |
| SONDE2-12 | 2026-08-30 06:39:07 | 52.48421 | 15.34806 | 70° | 78km/h | 11764m | -1.9m/s | -52.9°C | 9.8% | 209.5hPa | 2.5V | 00:00:00 | 00:00:00 | 00:00:00 | |
| AA1-15 | 2026-08-30 06:38:59 | 52.48389 | 15.34541 | 88° | 75km/h | 11782m | -2.4m/s | -52.9°C | 10.5% | 208.8hPa | 2.5V | 18:12:15 | 02:21:50 | 00:00:00 | |
| EDDB2-12 | 2026-08-30 06:38:57 | 52.48388 | 15.34482 | 87° | 68km/h | 11787m | -2.6m/s | -53.0°C | 8.0% | 208.7hPa | 2.6V | 00:00:00 | 00:00:00 | 00:00:00 | |
| DB0DAN | 2026-08-30 06:38:55 | 52.48385 | 15.34429 | 83° | 60km/h | 11792m | -2.2m/s | -53°C | 8.1% | 208.46hPa | 2.6V | 00:00:00 | 00:00:00 | 00:00:00 | |
| AA1-15 | 2026-08-30 06:38:48 | 52.48354 | 15.34251 | 69° | 77km/h | 11807m | -2.1m/s | -53.1°C | 10.4% | 207.8hPa | 2.6V | 18:12:15 | 02:21:39 | 00:00:00 | |
| SQ2ODE-11 | 2026-08-30 06:38:47 | 52.48353 | 15.34251 | 70° | 77km/h | 11808m | -2.1m/s | -53.1°C | 8.0% | 207.8hPa | 2.5V | 00:00:00 | 00:00:00 | 00:00:00 | |
| KRY50SP-1 | 2026-08-30 06:38:46 | 52.48347 | 15.34221 | 71° | 78km/h | 11809m | -2.1m/s | -53.1°C | 8.0% | 207.8hPa | 2.5V | 00:00:00 | 00:00:00 | 00:00:00 | |
| SP6BVK | 2026-08-30 06:38:44 | 52.48334 | 15.34156 | 74° | 86km/h | 11813m | -2.1m/s | -53.1°C | 7.9% | 207.6hPa | 2.5V | 00:00:00 | 00:00:00 | 00:00:00 | |
| S3001 | 2026-08-30 06:38:43 | 52.48323 | 15.34086 | 79° | 86km/h | 11816m | -2.4m/s | -53.0°C | 7.7% | 207.4hPa | 2.5V | 00:00:00 | 00:00:00 | 00:00:00 | |
| SP3BTT-10 | 2026-08-30 06:38:42 | 52.48319 | 15.34051 | 82° | 77km/h | 11819m | -2.2m/s | -52.9°C | 12.9% | 207.3hPa | 2.5V | 00:00:00 | 00:00:00 | 00:00:00 | |
| KRY50SP-1 | 2026-08-30 06:38:41 | 52.48319 | 15.34051 | 83° | 86km/h | 11819m | -2.3m/s | -53.0°C | 7.7% | 207.3hPa | 2.5V | 00:00:00 | 00:00:00 | 00:00:00 | |
| DB0DAN | 2026-08-30 06:38:40 | 52.48315 | 15.33980 | 85° | 78km/h | 11823m | -2.6m/s | -53°C | 7.6% | 207.13hPa | 2.5V | 00:00:00 | 00:00:00 | 00:00:00 | |
| AA1-15 | 2026-08-30 06:38:37 | 52.48312 | 15.33886 | 88° | 69km/h | 11831m | -2.6m/s | -52.9°C | 9.9% | 206.9hPa | 2.6V | 18:12:15 | 02:21:28 | 00:00:00 | |
| SONDE2-12 | 2026-08-30 06:38:36 | 52.48311 | 15.33858 | 86° | 64km/h | 11834m | -2.8m/s | -52.9°C | 9.2% | 206.8hPa | 2.5V | 00:00:00 | 00:00:00 | 00:00:00 | |
| AA1-15 | 2026-08-30 06:38:26 | 52.48266 | 15.33589 | 74° | 82km/h | 11858m | -2.3m/s | -52.8°C | 9.7% | 205.9hPa | 2.5V | 18:12:15 | 02:21:17 | 00:00:00 | |
| AA1-15 | 2026-08-30 06:38:15 | 52.48241 | 15.33239 | 86° | 64km/h | 11885m | -2.7m/s | -53°C | 9.3% | 205.1hPa | 2.5V | 18:12:15 | 02:21:06 | 00:00:00 | |
| KRY50SP-1 | 2026-08-30 06:38:13 | 52.48240 | 15.33212 | 87° | 64km/h | 11888m | -2.8m/s | -53.0°C | 6.9% | 204.9hPa | 2.6V | 00:00:00 | 00:00:00 | 00:00:00 | |
| S3001 | 2026-08-30 06:38:12 | 52.48236 | 15.33162 | 82° | 58km/h | 11892m | -2.9m/s | -53.0°C | 6.8% | 204.7hPa | 2.6V | 00:00:00 | 00:00:00 | 00:00:00 | |
| 13BRC | 2026-08-30 06:38:11 | 52.48236 | 15.33162 | 83° | 60km/h | 11893m | -2.9m/s | -53.0°C | 6.8% | 204.7hPa | 2.6V | 00:00:00 | 00:00:00 | 00:00:00 | |
| DB0DAN | 2026-08-30 06:38:10 | 52.48231 | 15.33113 | 80° | 58km/h | 11897m | -2.7m/s | -53°C | 6.8% | 204.59hPa | 2.6V | 00:00:00 | 00:00:00 | 00:00:00 | |
| AA1-15 | 2026-08-30 06:38:04 | 52.48207 | 15.32961 | 73° | 66km/h | 11911m | -2.6m/s | -52.9°C | 8.7% | 204.1hPa | 2.6V | 18:12:15 | 02:20:55 | 00:00:00 | |
| OE3JTB-15 | 2026-08-30 06:38:03 | 52.48202 | 15.32935 | 73° | 73km/h | 11914m | -2.7m/s | -52.9°C | 11.7% | 204.0hPa | 2.6V | 00:00:00 | 00:00:00 | 00:00:00 | |
| KRY50SP-1 | 2026-08-30 06:38:02 | 52.48202 | 15.32935 | 73° | 66km/h | 11914m | -2.8m/s | -52.9°C | 6.8% | 204.0hPa | 2.6V | 00:00:00 | 00:00:00 | 00:00:00 | |
| SONDE2-11 | 2026-08-30 06:37:57 | 52.48168 | 15.32769 | 72° | 75km/h | 11929m | -3.0m/s | -53.0°C | 6.5% | 203.5hPa | 2.6V | 00:00:00 | 00:00:00 | 00:00:00 | |
| SQ2ODE-11 | 2026-08-30 06:37:56 | 52.48168 | 15.32769 | 74° | 75km/h | 11929m | -3.0m/s | -52.9°C | 6.5% | 203.5hPa | 2.6V | 00:00:00 | 00:00:00 | 00:00:00 | |
| DB0DAN | 2026-08-30 06:37:55 | 52.48156 | 15.32707 | 72° | 75km/h | 11935m | -3.2m/s | -53°C | 6.3% | 203.39hPa | 2.6V | 00:00:00 | 00:00:00 | 00:00:00 | |
| AA1-15 | 2026-08-30 06:37:53 | 52.48143 | 15.32643 | 72° | 80km/h | 11942m | -3.6m/s | -53°C | 7.9% | 203.2hPa | 2.5V | 18:12:15 | 02:20:44 | 00:00:00 | |
| EDDB2-11 | 2026-08-30 06:37:49 | 52.48121 | 15.32508 | 78° | 82km/h | 11954m | -3.2m/s | -52.9°C | 6.1% | 202.8hPa | 2.6V | 00:00:00 | 00:00:00 | 00:00:00 | |
| AA1-15 | 2026-08-30 06:37:43 | 52.48108 | 15.32312 | 89° | 73km/h | 11970m | -3.1m/s | -52.6°C | 7.6% | 202.3hPa | 2.6V | 18:12:15 | 02:20:34 | 00:00:00 | |
| SP3BTT-10 | 2026-08-30 06:37:42 | 52.48108 | 15.32282 | 90° | 73km/h | 11973m | -2.9m/s | -52.6°C | 10.7% | 202.2hPa | 2.5V | 00:00:00 | 00:00:00 | 00:00:00 | |
| DB0DAN | 2026-08-30 06:37:40 | 52.48108 | 15.32223 | 89° | 69km/h | 11978m | -2.7m/s | -52.6°C | 5.9% | 202.08hPa | 2.5V | 00:00:00 | 00:00:00 | 00:00:00 | |
| SONDE2-12 | 2026-08-30 06:37:34 | 52.48106 | 15.32064 | 82° | 57km/h | 11996m | -3.3m/s | -52.6°C | 6.5% | 201.5hPa | 2.5V | 00:00:00 | 00:00:00 | 00:00:00 | |
| AA1-15 | 2026-08-30 06:37:31 | 52.48096 | 15.31994 | 72° | 60km/h | 12005m | -2.9m/s | -52.5°C | 6.5% | 201.2hPa | 2.5V | 18:12:15 | 02:20:22 | 00:00:00 | |
| OE3JTB-15 | 2026-08-30 06:37:30 | 52.48090 | 15.31969 | 70° | 58km/h | 12008m | -2.7m/s | -52.3°C | 9.4% | 201.1hPa | 2.5V | 00:00:00 | 02:20:21 | 00:00:00 | |
| SQ2ODE-11 | 2026-08-30 06:37:29 | 52.48090 | 15.31969 | 70° | 64km/h | 12008m | -2.8m/s | -52.4°C | 5.2% | 201.1hPa | 2.5V | 00:00:00 | 00:00:00 | 00:00:00 | |
| DB0DAN | 2026-08-30 06:37:25 | 52.48063 | 15.31820 | 79° | 78km/h | 12021m | -3.3m/s | -52.3°C | 5% | 200.74hPa | 2.5V | 00:00:00 | 00:00:00 | 00:00:00 | |
| EDDB2-12 | 2026-08-30 06:37:24 | 52.48059 | 15.31786 | 81° | 84km/h | 12024m | -2.9m/s | -52.2°C | 5.0% | 200.6hPa | 2.5V | 00:00:00 | 00:00:00 | 00:00:00 | |
| SP6BVK | 2026-08-30 06:37:22 | 52.48056 | 15.31752 | 86° | 82km/h | 12027m | -3.1m/s | -52.1°C | 5.0% | 200.5hPa | 2.5V | 00:00:00 | 00:00:00 | 00:00:00 | |
| KRY50SP-1 | 2026-08-30 06:37:19 | 52.48053 | 15.31656 | 90° | 73km/h | 12037m | -2.8m/s | -52.0°C | 5.1% | 200.3hPa | 2.5V | 00:00:00 | 00:00:00 | 00:00:00 | |
| EDDB2-11 | 2026-08-30 06:37:18 | 52.48054 | 15.31599 | 91° | 64km/h | 12041m | -2.7m/s | -52.0°C | 5.0% | 200.1hPa | 2.5V | 00:00:00 | 00:00:00 | 00:00:00 | |
| SQ2ODE-11 | 2026-08-30 06:37:17 | 52.48054 | 15.31599 | 92° | 66km/h | 12041m | -2.7m/s | -52.0°C | 5.0% | 200.1hPa | 2.5V | 00:00:00 | 00:00:00 | 00:00:00 | |
| KRY50SP-1 | 2026-08-30 06:37:14 | 52.48053 | 15.31525 | 86° | 57km/h | 12049m | -2.9m/s | -51.9°C | 5.0% | 199.9hPa | 2.5V | 00:00:00 | 00:00:00 | 00:00:00 | |
| DB0DAN | 2026-08-30 06:37:10 | 52.48037 | 15.31413 | 68° | 57km/h | 12063m | -3.4m/s | -51.8°C | 4.8% | 199.38hPa | 2.5V | 00:00:00 | 00:00:00 | 00:00:00 | |
| SQ2ODE-11 | 2026-08-30 06:37:09 | 52.48036 | 15.31412 | 69° | 58km/h | 12063m | -3.4m/s | -51.8°C | 4.8% | 199.4hPa | 2.5V | 00:00:00 | 00:00:00 | 00:00:00 | |
| 13BRC | 2026-08-30 06:37:08 | 52.48031 | 15.31388 | 70° | 66km/h | 12066m | -3.3m/s | -51.8°C | 4.7% | 199.3hPa | 2.5V | 00:00:00 | 00:00:00 | 00:00:00 | |
| SP3WXH-11 | 2026-08-30 06:37:03 | 52.47995 | 15.31211 | 78° | 80km/h | 12087m | -3.2m/s | -51.9°C | 4.7% | 198.8hPa | 2.5V | 00:00:00 | 00:00:00 | 00:00:00 | |
| SP6BVK | 2026-08-30 06:37:02 | 52.47995 | 15.31211 | 80° | 82km/h | 12087m | -3.2m/s | -51.9°C | 4.7% | 198.8hPa | 2.5V | 00:00:00 | 00:00:00 | 00:00:00 | |
| SQ2ODE-11 | 2026-08-30 06:37:01 | 52.47991 | 15.31177 | 81° | 84km/h | 12090m | -3.2m/s | -51.9°C | 4.7% | 198.6hPa | 2.5V | 00:00:00 | 00:00:00 | 00:00:00 | |
| SONDE2-11 | 2026-08-30 06:36:55 | 52.47985 | 15.30969 | 87° | 57km/h | 12109m | -3.1m/s | -51.9°C | 4.7% | 198.0hPa | 2.5V | 00:00:00 | 00:00:00 | 00:00:00 | |
| DB0DAN | 2026-08-30 06:36:55 | 52.47985 | 15.30969 | 88° | 55km/h | 12109m | -3.1m/s | -51.9°C | 4.7% | 198.02hPa | 2.5V | 00:00:00 | 00:00:00 | 00:00:00 | |
| EDDB2-12 | 2026-08-30 06:36:53 | 52.47982 | 15.30922 | 80° | 55km/h | 12115m | -2.9m/s | -51.9°C | 4.7% | 197.8hPa | 2.5V | 00:00:00 | 00:00:00 | 00:00:00 | |
| EDDB2-11 | 2026-08-30 06:36:47 | 52.47946 | 15.30742 | 70° | 77km/h | 12134m | -2.8m/s | -52.0°C | 4.8% | 197.3hPa | 2.5V | 00:00:00 | 00:00:00 | 00:00:00 | |
| DL2RXE-15 | 2026-08-30 06:36:46 | 52.47953 | 15.30772 | 72° | 75km/h | 12132m | -2.8m/s | -52.0°C | 4.8% | 197.3hPa | 2.5V | 00:00:00 | 00:00:00 | 00:00:00 | |
| KRY50SP-1 | 2026-08-30 06:36:44 | 52.47940 | 15.30710 | 73° | 80km/h | 12137m | -3.0m/s | -52.0°C | 4.8% | 197.1hPa | 2.5V | 00:00:00 | 00:00:00 | 00:00:00 | |
| SP3BTT-10 | 2026-08-30 06:36:42 | 52.47925 | 15.30613 | 81° | 78km/h | 12146m | -3.0m/s | -52.0°C | 8.8% | 196.9hPa | 2.5V | 00:00:00 | 00:00:00 | 00:00:00 | |
| SP6BVK | 2026-08-30 06:36:41 | 52.47925 | 15.30613 | 81° | 82km/h | 12146m | -3.0m/s | -52.1°C | 4.7% | 196.9hPa | 2.6V | 00:00:00 | 00:00:00 | 00:00:00 | |
| DB0DAN | 2026-08-30 06:36:40 | 52.47919 | 15.30546 | 84° | 78km/h | 12152m | -3.3m/s | -52.1°C | 4.6% | 196.71hPa | 2.6V | 00:00:00 | 00:00:00 | 00:00:00 | |
| AA1-15 | 2026-08-30 06:36:26 | 52.47899 | 15.30140 | 76° | 69km/h | 12190m | -2.9m/s | -52.1°C | 5.6% | 195.5hPa | 2.5V | 18:12:15 | 02:19:17 | 00:00:00 | |
| DB0DAN | 2026-08-30 06:36:25 | 52.47895 | 15.30111 | 75° | 68km/h | 12192m | -3.2m/s | -52.1°C | 4.7% | 195.41hPa | 2.6V | 00:00:00 | 00:00:00 | 00:00:00 | |
| AA1-15 | 2026-08-30 06:36:11 | 52.47855 | 15.29630 | 95° | 82km/h | 12238m | -3.3m/s | -52.4°C | 5.4% | 194hPa | 2.6V | 18:12:15 | 02:19:02 | 00:00:00 | |
| DB0DAN | 2026-08-30 06:36:10 | 52.47857 | 15.29596 | 96° | 77km/h | 12241m | -3.4m/s | -52.4°C | 4.3% | 193.98hPa | 2.6V | 00:00:00 | 00:00:00 | 00:00:00 | |
| AA1-15 | 2026-08-30 06:36:00 | 52.47843 | 15.29298 | 80° | 82km/h | 12272m | -3.3m/s | -52.5°C | 5.1% | 193.1hPa | 2.6V | 18:12:15 | 02:18:51 | 00:00:00 | |
| KRY50SP-1 | 2026-08-30 06:35:59 | 52.47840 | 15.29264 | 83° | 84km/h | 12276m | -3.4m/s | -52.5°C | 4.2% | 193.0hPa | 2.5V | 00:00:00 | 00:00:00 | 00:00:00 | |
| DB0DAN | 2026-08-30 06:35:55 | 52.47831 | 15.29118 | 87° | 88km/h | 12289m | -3.1m/s | -52.5°C | 4.3% | 192.66hPa | 2.5V | 00:00:00 | 00:00:00 | 00:00:00 | |
| AA1-15 | 2026-08-30 06:35:49 | 52.47837 | 15.28900 | 97° | 82km/h | 12307m | -3.5m/s | -52.6°C | 4.9% | 192hPa | 2.6V | 18:12:15 | 02:18:40 | 00:00:00 | |
| EDDB2-11 | 2026-08-30 06:35:45 | 52.47847 | 15.28751 | 92° | 62km/h | 12323m | -3.3m/s | -52.4°C | 3.9% | 191.5hPa | 2.5V | 00:00:00 | 00:00:00 | 00:00:00 | |
| SP3BTT-10 | 2026-08-30 06:35:43 | 52.47847 | 15.28725 | 92° | 69km/h | 12326m | -3.7m/s | -52.3°C | 7.8% | 191.4hPa | 2.5V | 00:00:00 | 00:00:00 | 00:00:00 | |
| SQ2ODE-11 | 2026-08-30 06:35:42 | 52.47847 | 15.28725 | 92° | 64km/h | 12326m | -3.7m/s | -52.4°C | 3.9% | 191.5hPa | 2.5V | 00:00:00 | 00:00:00 | 00:00:00 | |
| DB0DAN | 2026-08-30 06:35:40 | 52.47844 | 15.28644 | 82° | 62km/h | 12336m | -3.2m/s | -52.2°C | 3.7% | 191.17hPa | 2.5V | 00:00:00 | 00:00:00 | 00:00:00 | |
| AA1-15 | 2026-08-30 06:35:38 | 52.47838 | 15.28589 | 79° | 71km/h | 12342m | -3.1m/s | -52.1°C | 4.3% | 190.9hPa | 2.6V | 18:12:15 | 02:18:29 | 00:00:00 | |
| SONCRA | 2026-08-30 06:35:38 | 52.47834 | 15.28559 | 78° | 75km/h | 12345m | -3.0m/s | -52.1°C | 3.5% | 190.9hPa | 2.5V | 00:00:00 | 00:00:00 | 00:00:00 | |
| S3001 | 2026-08-30 06:35:37 | 52.47830 | 15.28528 | 78° | 77km/h | 12348m | -3.3m/s | -52.0°C | 3.5% | 190.8hPa | 2.5V | 00:00:00 | 00:00:00 | 00:00:00 | |
| SQ2ODE-11 | 2026-08-30 06:35:35 | 52.47830 | 15.28528 | 80° | 78km/h | 12348m | -3.3m/s | -52.0°C | 3.5% | 190.8hPa | 2.5V | 00:00:00 | 00:00:00 | 00:00:00 | |
| MECKS9 | 2026-08-30 06:35:34 | 52.47826 | 15.28496 | 81° | 78km/h | 12351m | -3.3m/s | -51.9°C | 3.5% | 190.7hPa | 2.5V | 00:00:00 | 00:00:00 | 00:00:00 | |
| KRY50SP-1 | 2026-08-30 06:35:32 | 52.47820 | 15.28430 | 84° | 82km/h | 12358m | -3.3m/s | -51.8°C | 3.4% | 190.5hPa | 2.5V | 00:00:00 | 00:00:00 | 00:00:00 | |
| SP3WXH-11 | 2026-08-30 06:35:30 | 52.47816 | 15.28295 | 89° | 78km/h | 12370m | -3.0m/s | -51.6°C | 3.4% | 190.2hPa | 2.5V | 00:00:00 | 00:00:00 | 00:00:00 | |
| SQ2ODE-11 | 2026-08-30 06:35:28 | 52.47816 | 15.28295 | 91° | 80km/h | 12370m | -3.0m/s | -51.6°C | 3.4% | 190.2hPa | 2.5V | 00:00:00 | 00:00:00 | 00:00:00 | |
| KRY50SP-1 | 2026-08-30 06:35:27 | 52.47818 | 15.28230 | 94° | 77km/h | 12376m | -3.0m/s | -51.6°C | 3.4% | 190.1hPa | 2.5V | 00:00:00 | 00:00:00 | 00:00:00 | |
| AA1-15 | 2026-08-30 06:35:27 | 52.47818 | 15.28230 | 93° | 77km/h | 12376m | -3m/s | -51.6°C | 3.8% | 190.1hPa | 2.5V | 18:12:15 | 02:18:18 | 00:00:00 | |
| DB0DAN | 2026-08-30 06:35:25 | 52.47820 | 15.28169 | 94° | 66km/h | 12381m | -3m/s | -51.7°C | 3.4% | 189.88hPa | 2.5V | 00:00:00 | 00:00:00 | 00:00:00 | |
| AA1-15 | 2026-08-30 06:35:16 | 52.47812 | 15.27941 | 75° | 58km/h | 12408m | -3.8m/s | -51.6°C | 3.3% | 189hPa | 2.6V | 18:12:15 | 02:18:07 | 00:00:00 | |
| SQ2ODE-11 | 2026-08-30 06:35:15 | 52.47812 | 15.27940 | 76° | 58km/h | 12408m | -3.8m/s | -51.6°C | 3.0% | 189.0hPa | 2.6V | 00:00:00 | 00:00:00 | 00:00:00 | |
| MECKS9 | 2026-08-30 06:35:13 | 52.47801 | 15.27891 | 69° | 66km/h | 12416m | -3.7m/s | -51.6°C | 3.0% | 188.8hPa | 2.6V | 00:00:00 | 00:00:00 | 00:00:00 | |
| DB0DAN | 2026-08-30 06:35:10 | 52.47777 | 15.27778 | 74° | 75km/h | 12431m | -3.3m/s | -51.4°C | 2.9% | 188.4hPa | 2.6V | 00:00:00 | 00:00:00 | 00:00:00 | |
| AA1-15 | 2026-08-30 06:35:05 | 52.47762 | 15.27610 | 91° | 78km/h | 12447m | -3.3m/s | -51.5°C | 3.1% | 188hPa | 2.6V | 18:12:15 | 02:17:56 | 00:00:00 | |
| KRY50SP-1 | 2026-08-30 06:35:03 | 52.47762 | 15.27578 | 92° | 75km/h | 12450m | -3.1m/s | -51.5°C | 2.9% | 187.9hPa | 2.6V | 00:00:00 | 00:00:00 | 00:00:00 | |
| MECKS9 | 2026-08-30 06:35:01 | 52.47763 | 15.27519 | 95° | 66km/h | 12457m | -3.2m/s | -51.6°C | 2.8% | 187.7hPa | 2.6V | 00:00:00 | 00:00:00 | 00:00:00 | |
| SP3WXH-11 | 2026-08-30 06:34:59 | 52.47763 | 15.27421 | 82° | 57km/h | 12469m | -3.2m/s | -51.6°C | 2.7% | 187.3hPa | 2.6V | 00:00:00 | 00:00:00 | 00:00:00 | |
| KRY50SP-1 | 2026-08-30 06:34:57 | 52.47763 | 15.27421 | 84° | 57km/h | 12469m | -3.2m/s | -51.6°C | 2.7% | 187.3hPa | 2.6V | 00:00:00 | 00:00:00 | 00:00:00 | |
| DB0DAN | 2026-08-30 06:34:55 | 52.47752 | 15.27352 | 71° | 60km/h | 12479m | -3.2m/s | -51.6°C | 2.8% | 186.96hPa | 2.6V | 00:00:00 | 00:00:00 | 00:00:00 | |
| AA1-15 | 2026-08-30 06:34:54 | 52.47746 | 15.27327 | 71° | 68km/h | 12482m | -3.4m/s | -51.6°C | 2.6% | 186.9hPa | 2.5V | 18:12:15 | 02:17:45 | 00:00:00 | |
| AA1-15 | 2026-08-30 06:34:44 | 52.47714 | 15.27016 | 92° | 75km/h | 12514m | -3.4m/s | -51°C | 2.4% | 186hPa | 2.6V | 18:12:15 | 02:17:35 | 00:00:00 | |
| EDDB2-11 | 2026-08-30 06:34:43 | 52.47716 | 15.26957 | 95° | 68km/h | 12520m | -3.2m/s | -50.9°C | 2.5% | 185.8hPa | 2.6V | 00:00:00 | 00:00:00 | 00:00:00 | |
| SP3BTT-10 | 2026-08-30 06:34:42 | 52.47716 | 15.26957 | 96° | 69km/h | 12520m | -3.2m/s | -50.9°C | 5.7% | 185.8hPa | 2.6V | 00:00:00 | 00:00:00 | 00:00:00 | |
| DB0DAN | 2026-08-30 06:34:40 | 52.47719 | 15.26904 | 96° | 57km/h | 12526m | -3.7m/s | -50.9°C | 2.4% | 185.64hPa | 2.6V | 00:00:00 | 00:00:00 | 00:00:00 | |
| AA1-15 | 2026-08-30 06:34:33 | 52.47709 | 15.26751 | 69° | 58km/h | 12549m | -3.6m/s | -50.6°C | 2.1% | 185hPa | 2.5V | 18:12:15 | 02:17:24 | 00:00:00 | |
| KRY50SP-1 | 2026-08-30 06:34:30 | 52.47698 | 15.26701 | 72° | 69km/h | 12555m | -3.6m/s | -50.6°C | 2.3% | 184.8hPa | 2.5V | 00:00:00 | 00:00:00 | 00:00:00 | |
| MECKS9 | 2026-08-30 06:34:29 | 52.47692 | 15.26673 | 76° | 71km/h | 12559m | -3.5m/s | -50.6°C | 2.3% | 184.7hPa | 2.5V | 00:00:00 | 00:00:00 | 00:00:00 | |
| SP3WXH-11 | 2026-08-30 06:34:28 | 52.47679 | 15.26581 | 84° | 78km/h | 12570m | -3.5m/s | -50.4°C | 2.2% | 184.4hPa | 2.5V | 00:00:00 | 00:00:00 | 00:00:00 | |
| DB0DAN | 2026-08-30 06:34:25 | 52.47677 | 15.26516 | 87° | 75km/h | 12576m | -3.5m/s | -50.3°C | 2.2% | 184.2hPa | 2.5V | 00:00:00 | 00:00:00 | 00:00:00 | |
| AA1-15 | 2026-08-30 06:34:22 | 52.47678 | 15.26424 | 95° | 69km/h | 12586m | -3.4m/s | -50.1°C | 1.9% | 183.9hPa | 2.6V | 18:12:15 | 02:17:13 | 00:00:00 | |
| AA1-15 | 2026-08-30 06:34:11 | 52.47658 | 15.26156 | 71° | 68km/h | 12620m | -3.8m/s | -50.1°C | 2% | 182.9hPa | 2.5V | 18:12:15 | 02:17:02 | 00:00:00 | |
| DB0DAN | 2026-08-30 06:34:10 | 52.47653 | 15.26129 | 71° | 68km/h | 12624m | -3.7m/s | -50.1°C | 2.2% | 182.86hPa | 2.5V | 00:00:00 | 00:00:00 | 00:00:00 | |
| AA1-15 | 2026-08-30 06:34:00 | 52.47629 | 15.25809 | 96° | 71km/h | 12656m | -3.2m/s | -50.2°C | 1.8% | 182hPa | 2.5V | 18:12:15 | 02:16:51 | 00:00:00 | |
| SP6BVK | 2026-08-30 06:33:58 | 52.47631 | 15.25780 | 96° | 71km/h | 12659m | -3.3m/s | -50.2°C | 2.1% | 181.9hPa | 2.6V | 00:00:00 | 00:00:00 | 00:00:00 | |
| SQ2ODE-11 | 2026-08-30 06:33:57 | 52.47634 | 15.25725 | 97° | 62km/h | 12665m | -3.4m/s | -50.1°C | 2.1% | 181.7hPa | 2.6V | 00:00:00 | 00:00:00 | 00:00:00 | |
| KRY50SP-1 | 2026-08-30 06:33:56 | 52.47634 | 15.25725 | 97° | 62km/h | 12665m | -3.4m/s | -50.1°C | 2.1% | 181.7hPa | 2.6V | 00:00:00 | 00:00:00 | 00:00:00 | |
| DB0DAN | 2026-08-30 06:33:55 | 52.47636 | 15.25677 | 90° | 53km/h | 12672m | -3.5m/s | -50.1°C | 2.1% | 181.48hPa | 2.6V | 00:00:00 | 00:00:00 | 00:00:00 | |
| AA1-15 | 2026-08-30 06:33:49 | 52.47619 | 15.25528 | 75° | 71km/h | 12689m | -2.9m/s | -50°C | 1.6% | 181hPa | 2.6V | 18:12:15 | 02:16:40 | 00:00:00 | |
| SONDE2-11 | 2026-08-30 06:33:49 | 52.47615 | 15.25500 | 76° | 71km/h | 12692m | -3.1m/s | -50.0°C | 2.0% | 180.9hPa | 2.6V | 00:00:00 | 00:00:00 | 00:00:00 | |
| EDDB2-12 | 2026-08-30 06:33:47 | 52.47611 | 15.25470 | 76° | 73km/h | 12696m | -3.1m/s | -50.0°C | 2.0% | 180.8hPa | 2.6V | 00:00:00 | 00:00:00 | 00:00:00 | |
| KRY50SP-1 | 2026-08-30 06:33:46 | 52.47610 | 15.25470 | 78° | 73km/h | 12696m | -3.1m/s | -50.0°C | 2.0% | 180.8hPa | 2.6V | 00:00:00 | 00:00:00 | 00:00:00 | |
| 13BRC | 2026-08-30 06:33:43 | 52.47600 | 15.25376 | 83° | 78km/h | 12706m | -3.2m/s | -50.0°C | 2.0% | 180.6hPa | 2.6V | 00:00:00 | 00:00:00 | 00:00:00 | |
| SP3BTT-10 | 2026-08-30 06:33:42 | 52.47596 | 15.25312 | 86° | 58km/h | 12712m | -3.1m/s | -49.9°C | 4.9% | 180.4hPa | 2.6V | 00:00:00 | 00:00:00 | 00:00:00 | |
| DB0DAN | 2026-08-30 06:33:40 | 52.47595 | 15.25247 | 89° | 77km/h | 12717m | -3.1m/s | -49.9°C | 2% | 180.26hPa | 2.5V | 00:00:00 | 00:00:00 | 00:00:00 | |
| AA1-15 | 2026-08-30 06:33:38 | 52.47596 | 15.25183 | 92° | 77km/h | 12724m | -3.1m/s | -50°C | 1.5% | 180.1hPa | 2.6V | 18:12:15 | 02:16:29 | 00:00:00 | |
| AA1-15 | 2026-08-30 06:33:27 | 52.47613 | 15.24864 | 97° | 64km/h | 12757m | -3m/s | -49.8°C | 1.4% | 179.2hPa | 2.6V | 18:12:15 | 02:16:18 | 00:00:00 | |
| SONDE2-12 | 2026-08-30 06:33:26 | 52.47615 | 15.24839 | 96° | 60km/h | 12760m | -3.0m/s | -49.7°C | 2.3% | 179.1hPa | 2.5V | 00:00:00 | 00:00:00 | 00:00:00 | |
| DB0DAN | 2026-08-30 06:33:25 | 52.47617 | 15.24813 | 96° | 60km/h | 12763m | -3.3m/s | -49.8°C | 1.9% | 179.02hPa | 2.5V | 00:00:00 | 00:00:00 | 00:00:00 | |
| AA1-15 | 2026-08-30 06:33:14 | 52.47630 | 15.24552 | 91° | 57km/h | 12798m | -3.4m/s | -49.6°C | 1.4% | 178.1hPa | 2.5V | 18:12:15 | 02:16:05 | 00:00:00 | |
| KRY50SP-1 | 2026-08-30 06:33:11 | 52.47630 | 15.24506 | 93° | 53km/h | 12804m | -3.0m/s | -49.6°C | 1.9% | 177.9hPa | 2.6V | 00:00:00 | 00:00:00 | 00:00:00 | |
| DB0DAN | 2026-08-30 06:33:10 | 52.47631 | 15.24462 | 91° | 49km/h | 12810m | -3.4m/s | -49.6°C | 1.8% | 177.74hPa | 2.6V | 00:00:00 | 00:00:00 | 00:00:00 | |
| AA1-15 | 2026-08-30 06:33:03 | 52.47638 | 15.24311 | 96° | 55km/h | 12834m | -3.4m/s | -49.5°C | 1.2% | 177.1hPa | 2.5V | 18:12:15 | 02:15:54 | 00:00:00 | |
| SONCRA | 2026-08-30 06:33:03 | 52.47641 | 15.24265 | 95° | 55km/h | 12840m | -3.2m/s | -49.5°C | 1.8% | 177.0hPa | 2.5V | 00:00:00 | 00:00:00 | 00:00:00 | |
| S3001 | 2026-08-30 06:33:01 | 52.47641 | 15.24265 | 95° | 55km/h | 12840m | -3.2m/s | -49.5°C | 1.8% | 177.0hPa | 2.5V | 00:00:00 | 00:00:00 | 00:00:00 | |
| SP6BVK | 2026-08-30 06:32:57 | 52.47645 | 15.24191 | 95° | 62km/h | 12849m | -3.0m/s | -49.5°C | 1.8% | 176.7hPa | 2.5V | 00:00:00 | 00:00:00 | 00:00:00 | |
| DB0DAN | 2026-08-30 06:32:55 | 52.47647 | 15.24116 | 92° | 58km/h | 12857m | -3.3m/s | -49.5°C | 1.8% | 176.49hPa | 2.5V | 00:00:00 | 00:00:00 | 00:00:00 | |
| AA1-15 | 2026-08-30 06:32:52 | 52.47650 | 15.24039 | 95° | 60km/h | 12867m | -3.1m/s | -49.6°C | 1.3% | 176.2hPa | 2.6V | 18:12:15 | 02:15:43 | 00:00:00 | |
| SONDE2-11 | 2026-08-30 06:32:47 | 52.47661 | 15.23897 | 99° | 49km/h | 12887m | -3.0m/s | -49.7°C | 1.9% | 175.7hPa | 2.6V | 00:00:00 | 00:00:00 | 00:00:00 | |
| EDDB2-12 | 2026-08-30 06:32:45 | 52.47663 | 15.23877 | 99° | 47km/h | 12890m | -3.3m/s | -49.7°C | 2.0% | 175.7hPa | 2.6V | 00:00:00 | 00:00:00 | 00:00:00 | |
| AA1-15 | 2026-08-30 06:32:41 | 52.47669 | 15.23806 | 92° | 37km/h | 12903m | -3.6m/s | -49.6°C | 1.5% | 175.3hPa | 2.6V | 18:12:15 | 02:15:32 | 00:00:00 | |
| DB0DAN | 2026-08-30 06:32:40 | 52.47669 | 15.23791 | 90° | 35km/h | 12907m | -3.9m/s | -49.6°C | 1.9% | 175.18hPa | 2.5V | 00:00:00 | 00:00:00 | 00:00:00 | |
| AA1-15 | 2026-08-30 06:32:30 | 52.47637 | 15.23589 | 81° | 68km/h | 12944m | -3.6m/s | -49.6°C | 1.5% | 174.2hPa | 2.5V | 18:12:15 | 02:15:21 | 00:00:00 | |
| DL2RXE-15 | 2026-08-30 06:32:29 | 52.47636 | 15.23562 | 89° | 64km/h | 12948m | -3.0m/s | -49.6°C | 2.0% | 174.1hPa | 2.6V | 00:00:00 | 00:00:00 | 00:00:00 | |
| KRY50SP-1 | 2026-08-30 06:32:28 | 52.47636 | 15.23562 | 89° | 64km/h | 12948m | -3.0m/s | -49.6°C | 2.0% | 174.1hPa | 2.6V | 00:00:00 | 00:00:00 | 00:00:00 | |
| DB0DAN | 2026-08-30 06:32:25 | 52.47638 | 15.23462 | 97° | 51km/h | 12961m | -3.4m/s | -49.7°C | 2% | 173.8hPa | 2.6V | 00:00:00 | 00:00:00 | 00:00:00 | |
| SONDE2-12 | 2026-08-30 06:32:24 | 52.47640 | 15.23440 | 98° | 49km/h | 12965m | -3.4m/s | -49.7°C | 2.4% | 173.7hPa | 2.6V | 00:00:00 | 00:00:00 | 00:00:00 | |
| AA1-15 | 2026-08-30 06:32:16 | 52.47633 | 15.23302 | 69° | 46km/h | 12992m | -3.9m/s | -49.9°C | 1.6% | 173hPa | 2.6V | 18:12:15 | 02:15:07 | 00:00:00 | |
| SP6BVK | 2026-08-30 06:32:15 | 52.47633 | 15.23302 | 70° | 46km/h | 12992m | -3.9m/s | -49.9°C | 2.0% | 173.0hPa | 2.6V | 00:00:00 | 00:00:00 | 00:00:00 | |
| EDDB2-12 | 2026-08-30 06:32:14 | 52.47619 | 15.23243 | 69° | 55km/h | 13003m | -3.6m/s | -50.0°C | 2.0% | 172.8hPa | 2.6V | 00:00:00 | 00:00:00 | 00:00:00 | |
| KRY50SP-1 | 2026-08-30 06:32:12 | 52.47614 | 15.23221 | 73° | 58km/h | 13007m | -3.5m/s | -50.0°C | 1.9% | 172.6hPa | 2.6V | 00:00:00 | 00:00:00 | 00:00:00 | |
| MECKS9 | 2026-08-30 06:32:11 | 52.47614 | 15.23221 | 73° | 58km/h | 13007m | -3.5m/s | -50.0°C | 1.9% | 172.6hPa | 2.6V | 00:00:00 | 00:00:00 | 00:00:00 | |
| DB0DAN | 2026-08-30 06:32:10 | 52.47605 | 15.23173 | 75° | 58km/h | 13014m | -3.3m/s | -50°C | 1.9% | 172.48hPa | 2.6V | 00:00:00 | 00:00:00 | 00:00:00 | |
| AA1-15 | 2026-08-30 06:32:05 | 52.47591 | 15.23043 | 84° | 64km/h | 13031m | -3.3m/s | -50.2°C | 1.6% | 172hPa | 2.6V | 18:12:15 | 02:14:56 | 00:00:00 | |
| DAC517 | 2026-08-30 06:32:02 | 52.47589 | 15.22992 | 88° | 62km/h | 13038m | -3.2m/s | -50.1°C | 1.9% | 171.9hPa | 2.5V | 00:00:00 | 00:00:00 | 00:00:00 | |
| SONCRA | 2026-08-30 06:32:01 | 52.47588 | 15.22918 | 89° | 57km/h | 13047m | -3.0m/s | -50.2°C | 2.0% | 171.6hPa | 2.5V | 00:00:00 | 00:00:00 | 00:00:00 | |
| S3001 | 2026-08-30 06:31:59 | 52.47588 | 15.22895 | 89° | 55km/h | 13050m | -3.0m/s | -50.3°C | 1.9% | 171.6hPa | 2.5V | 00:00:00 | 00:00:00 | 00:00:00 | |
| DB0DAN | 2026-08-30 06:31:55 | 52.47586 | 15.22809 | 87° | 46km/h | 13063m | -2.9m/s | -50.3°C | 1.9% | 171.22hPa | 2.5V | 00:00:00 | 00:00:00 | 00:00:00 | |
| AA1-15 | 2026-08-30 06:31:54 | 52.47586 | 15.22789 | 84° | 47km/h | 13066m | -3m/s | -50.3°C | 1.6% | 171.1hPa | 2.5V | 18:12:15 | 02:14:45 | 00:00:00 | |
| SONDE2-12 | 2026-08-30 06:31:53 | 52.47582 | 15.22750 | 81° | 47km/h | 13073m | -3.2m/s | -50.4°C | 2.4% | 171.0hPa | 2.5V | 00:00:00 | 00:00:00 | 00:00:00 | |
| SP3WXH-11 | 2026-08-30 06:31:52 | 52.47582 | 15.22750 | 81° | 47km/h | 13073m | -3.2m/s | -50.4°C | 2.0% | 171.0hPa | 2.5V | 00:00:00 | 00:00:00 | 00:00:00 | |
| SONDE2-11 | 2026-08-30 06:31:44 | 52.47561 | 15.22594 | 73° | 47km/h | 13100m | -2.8m/s | -50.5°C | 2.0% | 170.3hPa | 2.5V | 00:00:00 | 00:00:00 | 00:00:00 | |
| AA1-15 | 2026-08-30 06:31:42 | 52.47554 | 15.22555 | 74° | 49km/h | 13106m | -2.9m/s | -50.5°C | 1.8% | 170.2hPa | 2.5V | 18:12:15 | 02:14:33 | 00:00:00 | |
| SP3BTT-10 | 2026-08-30 06:31:42 | 52.47554 | 15.22555 | 74° | 47km/h | 13106m | -2.9m/s | -50.5°C | 5.1% | 170.1hPa | 2.6V | 00:00:00 | 00:00:00 | 00:00:00 | |
| DB0DAN | 2026-08-30 06:31:40 | 52.47547 | 15.22515 | 70° | 49km/h | 13112m | -3m/s | -50.5°C | 2% | 170.02hPa | 2.6V | 00:00:00 | 00:00:00 | 00:00:00 | |
| AA1-15 | 2026-08-30 06:31:31 | 52.47501 | 15.22318 | 68° | 64km/h | 13142m | -3.3m/s | -50.5°C | 1.7% | 169.2hPa | 2.6V | 18:12:15 | 02:14:22 | 00:00:00 | |
| SONCRA | 2026-08-30 06:31:30 | 52.47490 | 15.22269 | 70° | 64km/h | 13149m | -3.1m/s | -50.5°C | 2.0% | 169.1hPa | 2.6V | 00:00:00 | 00:00:00 | 00:00:00 | |
| S3001 | 2026-08-30 06:31:29 | 52.47484 | 15.22243 | 70° | 68km/h | 13152m | -2.9m/s | -50.5°C | 2.0% | 169.0hPa | 2.6V | 00:00:00 | 00:00:00 | 00:00:00 | |
| KRY50SP-1 | 2026-08-30 06:31:28 | 52.47484 | 15.22242 | 72° | 69km/h | 13152m | -2.9m/s | -50.5°C | 2.0% | 169.0hPa | 2.6V | 00:00:00 | 00:00:00 | 00:00:00 | |
| DL2RXE-15 | 2026-08-30 06:31:26 | 52.47478 | 15.22216 | 72° | 69km/h | 13155m | -3.2m/s | -50.5°C | 2.0% | 168.9hPa | 2.6V | 00:00:00 | 00:00:00 | 00:00:00 | |
| DB0DAN | 2026-08-30 06:31:25 | 52.47469 | 15.22161 | 75° | 66km/h | 13161m | -3m/s | -50.5°C | 2% | 168.78hPa | 2.6V | 00:00:00 | 00:00:00 | 00:00:00 | |
| SONDE2-12 | 2026-08-30 06:31:22 | 52.47456 | 15.22047 | 83° | 69km/h | 13175m | -3.5m/s | -50.6°C | 2.5% | 168.3hPa | 2.6V | 00:00:00 | 00:00:00 | 00:00:00 | |
| AA1-15 | 2026-08-30 06:31:20 | 52.47454 | 15.22019 | 86° | 68km/h | 13178m | -3.3m/s | -50.6°C | 1.7% | 168.2hPa | 2.6V | 18:12:15 | 02:14:11 | 00:00:00 | |
| MECKS9 | 2026-08-30 06:31:18 | 52.47454 | 15.21991 | 89° | 68km/h | 13182m | -3.3m/s | -50.6°C | 2.0% | 168.1hPa | 2.6V | 00:00:00 | 00:00:00 | 00:00:00 | |
| 13BRC | 2026-08-30 06:31:16 | 52.47453 | 15.21938 | 91° | 62km/h | 13189m | -3.6m/s | -50.6°C | 2.0% | 168.0hPa | 2.6V | 00:00:00 | 00:00:00 | 00:00:00 | |
| KRY50SP-1 | 2026-08-30 06:31:15 | 52.47453 | 15.21912 | 91° | 60km/h | 13193m | -3.4m/s | -50.7°C | 2.0% | 167.9hPa | 2.6V | 00:00:00 | 00:00:00 | 00:00:00 | |
| SP6BVK | 2026-08-30 06:31:13 | 52.47453 | 15.21864 | 90° | 55km/h | 13200m | -3.4m/s | -50.7°C | 2.0% | 167.7hPa | 2.6V | 00:00:00 | 00:00:00 | 00:00:00 | |
| DB0DAN | 2026-08-30 06:31:10 | 52.47450 | 15.21779 | 82° | 47km/h | 13215m | -3.5m/s | -50.8°C | 2% | 167.31hPa | 2.6V | 00:00:00 | 00:00:00 | 00:00:00 | |
| AA1-15 | 2026-08-30 06:31:09 | 52.47449 | 15.21759 | 80° | 49km/h | 13218m | -3.3m/s | -50.8°C | 1.6% | 167.3hPa | 2.6V | 18:12:15 | 02:14:00 | 00:00:00 | |
| AA1-15 | 2026-08-30 06:30:58 | 52.47407 | 15.21534 | 75° | 47km/h | 13255m | -3.4m/s | -50.7°C | 1.6% | 166.3hPa | 2.6V | 18:12:15 | 02:13:49 | 00:00:00 | |
| S3001 | 2026-08-30 06:30:57 | 52.47404 | 15.21515 | 75° | 47km/h | 13258m | -3.7m/s | -50.7°C | 2.0% | 166.2hPa | 2.5V | 00:00:00 | 00:00:00 | 00:00:00 | |
| 13BRC | 2026-08-30 06:30:56 | 52.47404 | 15.21515 | 77° | 49km/h | 13259m | -3.7m/s | -50.6°C | 2.0% | 166.2hPa | 2.5V | 00:00:00 | 00:00:00 | 00:00:00 | |
| DB0DAN | 2026-08-30 06:30:55 | 52.47398 | 15.21478 | 78° | 44km/h | 13266m | -3.6m/s | -50.7°C | 2% | 166.02hPa | 2.5V | 00:00:00 | 00:00:00 | 00:00:00 | |
| SONDE2-12 | 2026-08-30 06:30:51 | 52.47389 | 15.21389 | 86° | 44km/h | 13283m | -3.6m/s | -50.6°C | 2.3% | 165.5hPa | 2.6V | 00:00:00 | 00:00:00 | 00:00:00 | |
| AA1-15 | 2026-08-30 06:30:47 | 52.47388 | 15.21335 | 91° | 44km/h | 13294m | -3.2m/s | -50.6°C | 1.4% | 165.3hPa | 2.6V | 18:12:15 | 02:13:38 | 00:00:00 | |
| KRY50SP-1 | 2026-08-30 06:30:44 | 52.47389 | 15.21298 | 93° | 47km/h | 13301m | -3.7m/s | -50.6°C | 1.9% | 165.1hPa | 2.5V | 00:00:00 | 00:00:00 | 00:00:00 | |
| SONDE2-11 | 2026-08-30 06:30:43 | 52.47390 | 15.21241 | 90° | 44km/h | 13312m | -3.2m/s | -50.7°C | 1.9% | 164.8hPa | 2.5V | 00:00:00 | 00:00:00 | 00:00:00 | |
| DB0DAN | 2026-08-30 06:30:40 | 52.47390 | 15.21203 | 92° | 46km/h | 13319m | -3.4m/s | -50.6°C | 1.9% | 164.69hPa | 2.5V | 00:00:00 | 00:00:00 | 00:00:00 | |
| AA1-15 | 2026-08-30 06:30:37 | 52.47392 | 15.21145 | 92° | 46km/h | 13329m | -2.7m/s | -50.4°C | 1.5% | 164.4hPa | 2.6V | 18:12:15 | 02:13:28 | 00:00:00 | |
| AA1-15 | 2026-08-30 06:30:26 | 52.47396 | 15.20959 | 87° | 37km/h | 13363m | -3.2m/s | -50.1°C | 1.2% | 163.5hPa | 2.6V | 18:12:15 | 02:13:17 | 00:00:00 | |
| DB0DAN | 2026-08-30 06:30:25 | 52.47395 | 15.20945 | 85° | 35km/h | 13366m | -3.1m/s | -50.2°C | 1.8% | 163.44hPa | 2.6V | 00:00:00 | 00:00:00 | 00:00:00 | |
| SONDE2-12 | 2026-08-30 06:30:20 | 52.47381 | 15.20854 | 70° | 42km/h | 13386m | -3.1m/s | -50.3°C | 2.2% | 163.0hPa | 2.6V | 00:00:00 | 00:00:00 | 00:00:00 | |
| AA1-15 | 2026-08-30 06:30:15 | 52.47366 | 15.20783 | 70° | 47km/h | 13398m | -3.1m/s | -50.5°C | 1.3% | 162.6hPa | 2.6V | 18:12:15 | 02:13:06 | 00:00:00 | |
| 13BRC | 2026-08-30 06:30:15 | 52.47366 | 15.20783 | 71° | 47km/h | 13398m | -3.1m/s | -50.4°C | 1.8% | 162.6hPa | 2.6V | 00:00:00 | 00:00:00 | 00:00:00 | |
| KRY50SP-1 | 2026-08-30 06:30:12 | 52.47359 | 15.20745 | 74° | 49km/h | 13404m | -3.3m/s | -50.4°C | 1.8% | 162.5hPa | 2.6V | 00:00:00 | 00:00:00 | 00:00:00 | |
| SP6BVK | 2026-08-30 06:30:11 | 52.47355 | 15.20726 | 73° | 51km/h | 13407m | -3.2m/s | -50.4°C | 1.8% | 162.4hPa | 2.6V | 00:00:00 | 00:00:00 | 00:00:00 | |
| DB0DAN | 2026-08-30 06:30:10 | 52.47347 | 15.20686 | 71° | 49km/h | 13413m | -3.4m/s | -50.5°C | 1.8% | 162.24hPa | 2.6V | 00:00:00 | 00:00:00 | 00:00:00 | |
| AA1-15 | 2026-08-30 06:30:04 | 52.47324 | 15.20554 | 79° | 58km/h | 13431m | -3.3m/s | -50.6°C | 1.4% | 161.8hPa | 2.6V | 18:12:15 | 02:12:55 | 00:00:00 | |
| EDDB2-11 | 2026-08-30 06:30:03 | 52.47321 | 15.20530 | 80° | 57km/h | 13434m | -3.6m/s | -50.6°C | 1.9% | 161.7hPa | 2.6V | 00:00:00 | 00:00:00 | 00:00:00 | |
| SONCRA | 2026-08-30 06:29:56 | 52.47314 | 15.20359 | 93° | 55km/h | 13458m | -3.3m/s | -50.2°C | 1.7% | 161.1hPa | 2.6V | 00:00:00 | 00:00:00 | 00:00:00 | |
| DB0DAN | 2026-08-30 06:29:55 | 52.47316 | 15.20336 | 96° | 53km/h | 13462m | -3.3m/s | -50.2°C | 1.7% | 161.02hPa | 2.6V | 00:00:00 | 00:00:00 | 00:00:00 | |
| AA1-15 | 2026-08-30 06:29:53 | 52.47319 | 15.20291 | 97° | 53km/h | 13469m | -3.4m/s | -50.1°C | 1.2% | 160.9hPa | 2.5V | 18:12:15 | 02:12:44 | 00:00:00 | |
| SONDE2-12 | 2026-08-30 06:29:49 | 52.47325 | 15.20194 | 92° | 42km/h | 13485m | -2.7m/s | -50.2°C | 2.1% | 160.5hPa | 2.5V | 00:00:00 | 00:00:00 | 00:00:00 | |
| SP3WXH-11 | 2026-08-30 06:29:48 | 52.47325 | 15.20194 | 92° | 42km/h | 13484m | -2.7m/s | -50.2°C | 1.7% | 160.5hPa | 2.5V | 00:00:00 | 00:00:00 | 00:00:00 | |
| AA1-15 | 2026-08-30 06:29:42 | 52.47320 | 15.20093 | 79° | 40km/h | 13504m | -3m/s | -50.2°C | 1.1% | 160.1hPa | 2.5V | 18:12:15 | 02:12:33 | 00:00:00 | |
| SP3BTT-10 | 2026-08-30 06:29:42 | 52.47320 | 15.20093 | 80° | 44km/h | 13504m | -3.0m/s | -50.2°C | 4.6% | 160.0hPa | 2.6V | 00:00:00 | 00:00:00 | 00:00:00 | |
| DB0DAN | 2026-08-30 06:29:40 | 52.47315 | 15.20059 | 77° | 42km/h | 13510m | -2.8m/s | -50.3°C | 1.7% | 159.89hPa | 2.6V | 00:00:00 | 00:00:00 | 00:00:00 | |
| AA1-15 | 2026-08-30 06:29:31 | 52.47283 | 15.19874 | 77° | 58km/h | 13535m | -3.1m/s | -50.3°C | 1.1% | 159.3hPa | 2.5V | 18:12:15 | 02:12:22 | 00:00:00 | |
| SP6BVK | 2026-08-30 06:29:30 | 52.47283 | 15.19874 | 78° | 58km/h | 13535m | -3.1m/s | -50.3°C | 1.7% | 159.3hPa | 2.5V | 00:00:00 | 00:00:00 | 00:00:00 | |
| KRY50SP-1 | 2026-08-30 06:29:27 | 52.47272 | 15.19798 | 80° | 64km/h | 13544m | -3.0m/s | -50.3°C | 1.7% | 159.0hPa | 2.5V | 00:00:00 | 00:00:00 | 00:00:00 | |
| DB0DAN | 2026-08-30 06:29:25 | 52.47264 | 15.19717 | 83° | 64km/h | 13554m | -3.5m/s | -50.2°C | 1.6% | 158.78hPa | 2.5V | 00:00:00 | 00:00:00 | 00:00:00 | |
| AA1-15 | 2026-08-30 06:29:20 | 52.47263 | 15.19586 | 94° | 58km/h | 13570m | -2.8m/s | -50.3°C | 1.1% | 158.4hPa | 2.5V | 18:12:15 | 02:12:11 | 00:00:00 | |
| SONDE2-12 | 2026-08-30 06:29:18 | 52.47266 | 15.19517 | 92° | 53km/h | 13579m | -3.0m/s | -50.4°C | 2.0% | 158.2hPa | 2.5V | 00:00:00 | 00:00:00 | 00:00:00 | |
| SP3WXH-11 | 2026-08-30 06:29:17 | 52.47266 | 15.19517 | 92° | 53km/h | 13579m | -3.0m/s | -50.4°C | 1.6% | 158.2hPa | 2.5V | 00:00:00 | 00:00:00 | 00:00:00 | |
| KRY50SP-1 | 2026-08-30 06:29:16 | 52.47266 | 15.19517 | 94° | 55km/h | 13579m | -3.0m/s | -50.4°C | 1.6% | 158.2hPa | 2.5V | 00:00:00 | 00:00:00 | 00:00:00 | |
| 13BRC | 2026-08-30 06:29:11 | 52.47267 | 15.19414 | 89° | 49km/h | 13595m | -3.0m/s | -50.2°C | 1.7% | 157.9hPa | 2.5V | 00:00:00 | 00:00:00 | 00:00:00 | |
| DB0DAN | 2026-08-30 06:29:10 | 52.47266 | 15.19374 | 87° | 46km/h | 13600m | -2.9m/s | -50.2°C | 1.7% | 157.76hPa | 2.5V | 00:00:00 | 00:00:00 | 00:00:00 | |
| AA1-15 | 2026-08-30 06:29:09 | 52.47265 | 15.19354 | 87° | 47km/h | 13604m | -2.8m/s | -50.1°C | 1.1% | 157.7hPa | 2.5V | 18:12:15 | 02:12:00 | 00:00:00 | |
| AA1-15 | 2026-08-30 06:28:58 | 52.47259 | 15.19145 | 84° | 44km/h | 13634m | -2.3m/s | -49.9°C | 1% | 156.9hPa | 2.6V | 18:12:15 | 02:11:49 | 00:00:00 | |
| SQ2ODE-11 | 2026-08-30 06:28:57 | 52.47259 | 15.19145 | 84° | 44km/h | 13635m | -2.3m/s | -49.9°C | 1.6% | 156.9hPa | 2.5V | 00:00:00 | 00:00:00 | 00:00:00 | |
| DB0DAN | 2026-08-30 06:28:55 | 52.47256 | 15.19093 | 84° | 40km/h | 13643m | -3m/s | -50°C | 1.6% | 156.68hPa | 2.5V | 00:00:00 | 00:00:00 | 00:00:00 | |
| AA1-15 | 2026-08-30 06:28:47 | 52.47247 | 15.18959 | 87° | 38km/h | 13666m | -2.9m/s | -50.1°C | 1.1% | 156.1hPa | 2.6V | 18:12:15 | 02:11:38 | 00:00:00 | |
| SONDE2-12 | 2026-08-30 06:28:47 | 52.47247 | 15.18942 | 88° | 42km/h | 13669m | -3.0m/s | -50.1°C | 2.0% | 156.0hPa | 2.6V | 00:00:00 | 00:00:00 | 00:00:00 | |
| SP3WXH-11 | 2026-08-30 06:28:46 | 52.47247 | 15.18942 | 88° | 42km/h | 13669m | -3.0m/s | -50.1°C | 1.6% | 156.0hPa | 2.6V | 00:00:00 | 00:00:00 | 00:00:00 | |
| DAC517 | 2026-08-30 06:28:41 | 52.47246 | 15.18873 | 89° | 42km/h | 13681m | -2.8m/s | -50.1°C | 1.7% | 155.8hPa | 2.6V | 00:00:00 | 00:00:00 | 00:00:00 | |
| DB0DAN | 2026-08-30 06:28:40 | 52.47246 | 15.18840 | 92° | 40km/h | 13686m | -2.9m/s | -50.1°C | 1.7% | 155.67hPa | 2.6V | 00:00:00 | 00:00:00 | 00:00:00 | |
| AA1-15 | 2026-08-30 06:28:36 | 52.47246 | 15.18774 | 87° | 38km/h | 13697m | -2.8m/s | -50.1°C | 1.2% | 155.3hPa | 2.6V | 18:12:15 | 02:11:27 | 00:00:00 | |
| AA1-15 | 2026-08-30 06:28:26 | 52.47239 | 15.18625 | 82° | 33km/h | 13727m | -2.8m/s | -50.2°C | 1.3% | 154.7hPa | 2.7V | 18:12:15 | 02:11:17 | 00:00:00 | |
| DB0DAN | 2026-08-30 06:28:25 | 52.47237 | 15.18611 | 81° | 33km/h | 13730m | -2.9m/s | -50.3°C | 1.8% | 154.59hPa | 2.6V | 00:00:00 | 00:00:00 | 00:00:00 | |
| SONCRA | 2026-08-30 06:28:23 | 52.47234 | 15.18584 | 76° | 31km/h | 13736m | -3.0m/s | -50.3°C | 1.8% | 154.4hPa | 2.6V | 00:00:00 | 00:00:00 | 00:00:00 | |
| S3001 | 2026-08-30 06:28:22 | 52.47232 | 15.18570 | 77° | 33km/h | 13739m | -3.3m/s | -50.3°C | 1.8% | 154.4hPa | 2.6V | 00:00:00 | 00:00:00 | 00:00:00 | |
| DAC517 | 2026-08-30 06:28:20 | 52.47230 | 15.18556 | 73° | 35km/h | 13742m | -3.1m/s | -50.3°C | 1.8% | 154.3hPa | 2.6V | 00:00:00 | 00:00:00 | 00:00:00 | |
| KRY50SP-1 | 2026-08-30 06:28:18 | 52.47224 | 15.18530 | 71° | 35km/h | 13749m | -2.9m/s | -50.4°C | 1.8% | 154.2hPa | 2.6V | 00:00:00 | 00:00:00 | 00:00:00 | |
| SQ2ODE-11 | 2026-08-30 06:28:16 | 52.47214 | 15.18488 | 66° | 35km/h | 13757m | -2.7m/s | -50.4°C | 1.8% | 153.9hPa | 2.6V | 00:00:00 | 00:00:00 | 00:00:00 | |
| SP3WXH-11 | 2026-08-30 06:28:15 | 52.47210 | 15.18475 | 64° | 35km/h | 13760m | -2.9m/s | -50.5°C | 1.8% | 153.9hPa | 2.6V | 00:00:00 | 00:00:00 | 00:00:00 | |
| AA1-15 | 2026-08-30 06:28:15 | 52.47210 | 15.18475 | 65° | 37km/h | 13760m | -2.9m/s | -50.5°C | 1.4% | 153.9hPa | 2.6V | 18:12:15 | 02:11:06 | 00:00:00 | |
| KRY50SP-1 | 2026-08-30 06:28:12 | 52.47201 | 15.18447 | 62° | 38km/h | 13765m | -3.1m/s | -50.5°C | 1.8% | 153.7hPa | 2.6V | 00:00:00 | 00:00:00 | 00:00:00 | |
| DB0DAN | 2026-08-30 06:28:10 | 52.47188 | 15.18407 | 64° | 37km/h | 13774m | -3.5m/s | -50.5°C | 1.9% | 153.5hPa | 2.6V | 00:00:00 | 00:00:00 | 00:00:00 | |
| AA1-15 | 2026-08-30 06:28:04 | 52.47161 | 15.18326 | 59° | 37km/h | 13792m | -2.8m/s | -50.6°C | 1.5% | 153.1hPa | 2.6V | 18:12:15 | 02:10:55 | 00:00:00 | |
| SQ2ODE-11 | 2026-08-30 06:28:02 | 52.47156 | 15.18313 | 59° | 37km/h | 13795m | -2.9m/s | -50.6°C | 1.9% | 153.0hPa | 2.6V | 00:00:00 | 00:00:00 | 00:00:00 | |
| KRY50SP-1 | 2026-08-30 06:28:01 | 52.47151 | 15.18300 | 61° | 37km/h | 13797m | -3.0m/s | -50.6°C | 1.9% | 152.9hPa | 2.6V | 00:00:00 | 00:00:00 | 00:00:00 | |
| EDDB2-11 | 2026-08-30 06:27:59 | 52.47136 | 15.18259 | 56° | 35km/h | 13806m | -2.7m/s | -50.7°C | 1.9% | 152.7hPa | 2.6V | 00:00:00 | 00:00:00 | 00:00:00 | |
| KRY50SP-1 | 2026-08-30 06:27:56 | 52.47125 | 15.18234 | 59° | 37km/h | 13811m | -3.1m/s | -50.7°C | 1.9% | 152.6hPa | 2.6V | 00:00:00 | 00:00:00 | 00:00:00 | |
| DB0DAN | 2026-08-30 06:27:55 | 52.47115 | 15.18209 | 55° | 33km/h | 13817m | -3m/s | -50.7°C | 1.9% | 152.45hPa | 2.6V | 00:00:00 | 00:00:00 | 00:00:00 | |
| AA1-15 | 2026-08-30 06:27:53 | 52.47105 | 15.18185 | 58° | 37km/h | 13822m | -2.9m/s | -50.8°C | 1.6% | 152.3hPa | 2.5V | 18:12:15 | 02:10:44 | 00:00:00 | |
| SONCRA | 2026-08-30 06:27:52 | 52.47100 | 15.18173 | 55° | 35km/h | 13825m | -2.8m/s | -50.8°C | 2.0% | 152.3hPa | 2.6V | 00:00:00 | 00:00:00 | 00:00:00 | |
| S3001 | 2026-08-30 06:27:51 | 52.47095 | 15.18161 | 56° | 31km/h | 13828m | -2.7m/s | -50.8°C | 2.0% | 152.2hPa | 2.6V | 00:00:00 | 00:00:00 | 00:00:00 | |
| SP3WXH-11 | 2026-08-30 06:27:44 | 52.47065 | 15.18079 | 60° | 33km/h | 13847m | -2.8m/s | -50.9°C | 2.0% | 151.7hPa | 2.6V | 00:00:00 | 00:00:00 | 00:00:00 | |
| AA1-15 | 2026-08-30 06:27:42 | 52.47056 | 15.18056 | 55° | 31km/h | 13853m | -2.6m/s | -50.9°C | 1.8% | 151.6hPa | 2.6V | 18:12:15 | 02:10:33 | 00:00:00 | |
| DB0DAN | 2026-08-30 06:27:40 | 52.47046 | 15.18034 | 52° | 31km/h | 13857m | -2.7m/s | -51°C | 2% | 151.4hPa | 2.5V | 00:00:00 | 00:00:00 | 00:00:00 | |
| AA1-15 | 2026-08-30 06:27:31 | 52.47001 | 15.17933 | 51° | 37km/h | 13882m | -2.8m/s | -50.9°C | 1.9% | 150.8hPa | 2.5V | 18:12:15 | 02:10:22 | 00:00:00 | |
| SQ2ODE-11 | 2026-08-30 06:27:28 | 52.46984 | 15.17896 | 54° | 37km/h | 13890m | -2.6m/s | -51.0°C | 2.1% | 150.6hPa | 2.5V | 00:00:00 | 00:00:00 | 00:00:00 | |
| 13BRC | 2026-08-30 06:27:27 | 52.46984 | 15.17896 | 54° | 37km/h | 13890m | -2.6m/s | -51.0°C | 2.1% | 150.6hPa | 2.5V | 00:00:00 | 00:00:00 | 00:00:00 | |
| SP6BVK | 2026-08-30 06:27:26 | 52.46979 | 15.17884 | 54° | 37km/h | 13892m | -2.7m/s | -51.0°C | 2.1% | 150.5hPa | 2.5V | 00:00:00 | 00:00:00 | 00:00:00 | |
| DB0DAN | 2026-08-30 06:27:25 | 52.46968 | 15.17859 | 53° | 37km/h | 13897m | -3m/s | -51°C | 2.1% | 150.43hPa | 2.5V | 00:00:00 | 00:00:00 | 00:00:00 | |
| AA1-15 | 2026-08-30 06:27:20 | 52.46940 | 15.17799 | 53° | 37km/h | 13910m | -2.7m/s | -51.1°C | 1.9% | 150.1hPa | 2.5V | 18:12:15 | 02:10:11 | 00:00:00 | |
| S3001 | 2026-08-30 06:27:20 | 52.46940 | 15.17799 | 53° | 35km/h | 13910m | -2.7m/s | -51.1°C | 2.1% | 150.1hPa | 2.5V | 00:00:00 | 00:00:00 | 00:00:00 | |
| DAC517 | 2026-08-30 06:27:18 | 52.46935 | 15.17787 | 53° | 37km/h | 13912m | -2.7m/s | -51.1°C | 2.0% | 150.0hPa | 2.5V | 00:00:00 | 00:00:00 | 00:00:00 | |
| KRY50SP-1 | 2026-08-30 06:27:17 | 52.46929 | 15.17775 | 52° | 37km/h | 13915m | -2.9m/s | -51.1°C | 2.0% | 150.0hPa | 2.5V | 00:00:00 | 00:00:00 | 00:00:00 | |
| SQ2ODE-11 | 2026-08-30 06:27:16 | 52.46923 | 15.17763 | 52° | 38km/h | 13917m | -2.8m/s | -51.2°C | 2.0% | 149.9hPa | 2.5V | 00:00:00 | 00:00:00 | 00:00:00 | |
| SP3WXH-11 | 2026-08-30 06:27:13 | 52.46896 | 15.17712 | 49° | 42km/h | 13928m | -3.1m/s | -51.2°C | 2.0% | 149.6hPa | 2.5V | 00:00:00 | 00:00:00 | 00:00:00 | |
| KRY50SP-1 | 2026-08-30 06:27:12 | 52.46896 | 15.17712 | 50° | 42km/h | 13928m | -3.1m/s | -51.2°C | 2.0% | 149.6hPa | 2.5V | 00:00:00 | 00:00:00 | 00:00:00 | |
| DB0DAN | 2026-08-30 06:27:10 | 52.46875 | 15.17671 | 49° | 42km/h | 13936m | -3m/s | -51.2°C | 2.1% | 149.41hPa | 2.5V | 00:00:00 | 00:00:00 | 00:00:00 | |
| AA1-15 | 2026-08-30 06:27:09 | 52.46867 | 15.17657 | 50° | 44km/h | 13939m | -2.9m/s | -51.2°C | 1.8% | 149.4hPa | 2.6V | 18:12:15 | 02:10:00 | 00:00:00 | |
| AA1-15 | 2026-08-30 06:26:59 | 52.46801 | 15.17516 | 49° | 42km/h | 13966m | -2.8m/s | -51.3°C | 2% | 148.7hPa | 2.5V | 18:12:15 | 02:09:50 | 00:00:00 | |
| EDDB2-11 | 2026-08-30 06:26:57 | 52.46786 | 15.17490 | 48° | 44km/h | 13971m | -3.0m/s | -51.3°C | 2.2% | 148.6hPa | 2.6V | 00:00:00 | 00:00:00 | 00:00:00 | |
| KRY50SP-1 | 2026-08-30 06:26:56 | 52.46786 | 15.17490 | 49° | 46km/h | 13971m | -3.0m/s | -51.3°C | 2.2% | 148.6hPa | 2.6V | 00:00:00 | 00:00:00 | 00:00:00 | |
| DB0DAN | 2026-08-30 06:26:55 | 52.46770 | 15.17460 | 47° | 47km/h | 13977m | -3.4m/s | -51.3°C | 2.2% | 148.44hPa | 2.6V | 00:00:00 | 00:00:00 | 00:00:00 | |
| AA1-15 | 2026-08-30 06:26:47 | 52.46697 | 15.17300 | 63° | 69km/h | 14005m | -3.8m/s | -51.3°C | 2% | 147.8hPa | 2.7V | 18:12:15 | 02:09:38 | 00:00:00 | |
| SONDE2-12 | 2026-08-30 06:26:42 | 52.46666 | 15.17154 | 79° | 53km/h | 14025m | -3.5m/s | -51.1°C | 2.6% | 147.4hPa | 2.5V | 00:00:00 | 00:00:00 | 00:00:00 | |
| AA1-15 | 2026-08-30 06:26:36 | 52.46656 | 15.17059 | 76° | 37km/h | 14040m | -3.5m/s | -51°C | 1.9% | 147hPa | 2.5V | 18:12:15 | 02:09:27 | 00:00:00 | |
| AA1-15 | 2026-08-30 06:26:25 | 52.46577 | 15.16890 | 58° | 64km/h | 14076m | -3.7m/s | -50.4°C | 1.8% | 146.2hPa | 2.6V | 18:12:15 | 02:09:16 | 00:00:00 | |
| SP6BVK | 2026-08-30 06:26:24 | 52.46577 | 15.16890 | 59° | 64km/h | 14077m | -3.7m/s | -50.4°C | 2.0% | 146.2hPa | 2.5V | 00:00:00 | 00:00:00 | 00:00:00 | |
| KRY50SP-1 | 2026-08-30 06:26:23 | 52.46569 | 15.16867 | 65° | 66km/h | 14080m | -3.4m/s | -50.4°C | 2.1% | 146.1hPa | 2.5V | 00:00:00 | 00:00:00 | 00:00:00 | |
| DM0DOS-11 | 2026-08-30 06:26:20 | 52.46537 | 15.16676 | 75° | 40km/h | 14110m | -3.4m/s | -50.7°C | 5.3% | 145.5hPa | 2.5V | 08:30:00 | 02:09:06 | 00:00:00 | |
| AA1-15 | 2026-08-30 06:26:15 | 52.46537 | 15.16676 | 75° | 40km/h | 14110m | -3.4m/s | -50.7°C | 2% | 145.5hPa | 2.5V | 18:12:15 | 02:09:06 | 00:00:00 | |
| OE3JTB-15 | 2026-08-30 06:26:13 | 52.46531 | 15.16647 | 66° | 53km/h | 14116m | -3.5m/s | -50.7°C | 5.3% | 145.3hPa | 2.6V | 00:00:00 | 00:00:00 | 00:00:00 | |
| KRY50SP-1 | 2026-08-30 06:26:12 | 52.46531 | 15.16646 | 66° | 35km/h | 14116m | -3.5m/s | -50.7°C | 2.1% | 145.3hPa | 2.6V | 00:00:00 | 00:00:00 | 00:00:00 | |
| DB0DAN | 2026-08-30 06:26:10 | 52.46516 | 15.16608 | 50° | 38km/h | 14125m | -2.8m/s | -50.8°C | 2.2% | 145.12hPa | 2.6V | 00:00:00 | 00:00:00 | 00:00:00 | |
| AA1-15 | 2026-08-30 06:26:04 | 52.46468 | 15.16517 | 53° | 58km/h | 14144m | -3.4m/s | -50.8°C | 2.1% | 144.7hPa | 2.6V | 18:12:15 | 02:08:55 | 00:00:00 | |
| SONDE2-11 | 2026-08-30 06:26:03 | 52.46459 | 15.16498 | 54° | 58km/h | 14148m | -3.4m/s | -50.8°C | 2.2% | 144.6hPa | 2.5V | 00:00:00 | 00:00:00 | 00:00:00 | |
| DM0DOS-11 | 2026-08-30 06:26:01 | 52.46434 | 15.16433 | 60° | 68km/h | 14158m | -3.8m/s | -50.7°C | 5.2% | 144.4hPa | 2.5V | 08:30:00 | 02:08:51 | 00:00:00 | |
| AA1-15 | 2026-08-30 06:25:53 | 52.46397 | 15.16257 | 80° | 57km/h | 14184m | -3.4m/s | -50.7°C | 2% | 143.9hPa | 2.7V | 18:12:15 | 02:08:44 | 00:00:00 | |
| DAC517 | 2026-08-30 06:25:53 | 52.46397 | 15.16256 | 81° | 57km/h | 14184m | -3.4m/s | -50.7°C | 2.2% | 143.9hPa | 2.5V | 00:00:00 | 00:00:00 | 00:00:00 | |
| DM0DOS-11 | 2026-08-30 06:25:51 | 52.46390 | 15.16197 | 77° | 42km/h | 14192m | -3m/s | -50.8°C | 5.5% | 143.6hPa | 2.5V | 08:30:00 | 02:08:41 | 00:00:00 | |
| SONCRA | 2026-08-30 06:25:48 | 52.46384 | 15.16165 | 68° | 40km/h | 14198m | -2.9m/s | -50.9°C | 2.2% | 143.5hPa | 2.6V | 00:00:00 | 00:00:00 | 00:00:00 | |
| S3001 | 2026-08-30 06:25:47 | 52.46374 | 15.16136 | 57° | 42km/h | 14204m | -3.4m/s | -50.8°C | 2.2% | 143.3hPa | 2.6V | 00:00:00 | 00:00:00 | 00:00:00 | |
| AA1-15 | 2026-08-30 06:25:42 | 52.46344 | 15.16077 | 48° | 55km/h | 14218m | -4m/s | -50.8°C | 1.9% | 143hPa | 2.6V | 18:12:15 | 02:08:33 | 00:00:00 | |
| SP3BTT-10 | 2026-08-30 06:25:41 | 52.46334 | 15.16060 | 49° | 58km/h | 14223m | -3.8m/s | -50.7°C | 5.2% | 142.9hPa | 2.5V | 00:00:00 | 00:00:00 | 00:00:00 | |
| SP3WXH-11 | 2026-08-30 06:25:40 | 52.46325 | 15.16042 | 49° | 60km/h | 14226m | -4.1m/s | -50.7°C | 2.0% | 142.8hPa | 2.5V | 00:00:00 | 00:00:00 | 00:00:00 | |
| KRY50SP-1 | 2026-08-30 06:25:39 | 52.46325 | 15.16042 | 50° | 60km/h | 14227m | -4.1m/s | -50.7°C | 2.0% | 142.8hPa | 2.5V | 00:00:00 | 00:00:00 | 00:00:00 | |
| DL2RXE-15 | 2026-08-30 06:25:35 | 52.46285 | 15.15951 | 61° | 73km/h | 14244m | -4.2m/s | -50.5°C | 2.0% | 142.5hPa | 2.5V | 00:00:00 | 00:00:00 | 00:00:00 | |
| KRY50SP-1 | 2026-08-30 06:25:33 | 52.46269 | 15.15900 | 67° | 66km/h | 14252m | -3.7m/s | -50.5°C | 2.1% | 142.3hPa | 2.5V | 00:00:00 | 00:00:00 | 00:00:00 | |
| SONDE2-11 | 2026-08-30 06:25:32 | 52.46256 | 15.15853 | 68° | 60km/h | 14259m | -3.5m/s | -50.6°C | 2.1% | 142.2hPa | 2.5V | 00:00:00 | 00:00:00 | 00:00:00 | |
| DM0DOS-11 | 2026-08-30 06:25:31 | 52.46230 | 15.15741 | 61° | 40km/h | 14278m | -4.2m/s | -50.7°C | 5.4% | 141.7hPa | 2.5V | 08:30:00 | 02:08:17 | 00:00:00 | |
| AA1-15 | 2026-08-30 06:25:31 | 52.46251 | 15.15830 | 72° | 55km/h | 14262m | -3.3m/s | -50.6°C | 1.9% | 142.2hPa | 2.6V | 18:12:15 | 02:08:22 | 00:00:00 | |
| DF8AY | 2026-08-30 06:25:23 | 52.46210 | 15.15699 | 46° | 44km/h | 14289m | -4.1m/s | 0°C | 0% | 0hPa | 2.6V | 18:12:15 | 02:08:14 | 00:00:00 | |
| AA1-15 | 2026-08-30 06:25:20 | 52.46183 | 15.15656 | 43° | 55km/h | 14300m | -3.8m/s | -50.8°C | 2% | 141.3hPa | 2.5V | 18:12:15 | 02:08:11 | 00:00:00 | |
| DM0DOS-11 | 2026-08-30 06:25:17 | 52.46096 | 15.15491 | 61° | 69km/h | 14331m | -4.1m/s | -50.3°C | 5.1% | 140.6hPa | 2.5V | 08:30:00 | 02:08:03 | 00:00:00 | |
| S3001 | 2026-08-30 06:25:16 | 52.46127 | 15.15563 | 51° | 66km/h | 14319m | -4.3m/s | -50.6°C | 2.1% | 140.8hPa | 2.6V | 00:00:00 | 00:00:00 | 00:00:00 | |
| OE3JTB-15 | 2026-08-30 06:25:15 | 52.46127 | 15.15563 | 52° | 55km/h | 14320m | -4.2m/s | -50.5°C | 5.3% | 140.8hPa | 2.6V | 00:00:00 | 02:08:06 | 00:00:00 | |
| KRY50SP-1 | 2026-08-30 06:25:11 | 52.46096 | 15.15490 | 63° | 69km/h | 14332m | -4.1m/s | -50.3°C | 2.0% | 140.6hPa | 2.6V | 00:00:00 | 00:00:00 | 00:00:00 | |
| DB0DAN | 2026-08-30 06:25:10 | 52.46081 | 15.15440 | 67° | 62km/h | 14339m | -4.1m/s | -50.3°C | 2% | 140.43hPa | 2.6V | 00:00:00 | 00:00:00 | 00:00:00 | |
| AA1-15 | 2026-08-30 06:25:09 | 52.46075 | 15.15415 | 69° | 66km/h | 14344m | -4.2m/s | -50.3°C | 1.9% | 140.3hPa | 2.5V | 18:12:15 | 02:08:00 | 00:00:00 | |
| DF8AY | 2026-08-30 06:25:00 | 52.46031 | 15.15243 | 49° | 44km/h | 14377m | -4.1m/s | 0°C | 0% | 0hPa | 2.6V | 18:12:15 | 02:07:51 | 00:00:00 | |
| AA1-15 | 2026-08-30 06:24:58 | 52.46014 | 15.15214 | 43° | 53km/h | 14384m | -3.9m/s | -50.5°C | 1.9% | 139.4hPa | 2.5V | 18:12:15 | 02:07:49 | 00:00:00 | |
| MECKS9 | 2026-08-30 06:24:56 | 52.46004 | 15.15198 | 46° | 58km/h | 14388m | -3.8m/s | -50.6°C | 2.1% | 139.3hPa | 2.6V | 00:00:00 | 00:00:00 | 00:00:00 | |
| DB0DAN | 2026-08-30 06:24:55 | 52.45982 | 15.15162 | 46° | 64km/h | 14395m | -4.2m/s | -50.6°C | 2.1% | 139.2hPa | 2.6V | 00:00:00 | 00:00:00 | 00:00:00 | |
| DF8AY | 2026-08-30 06:24:49 | 52.45923 | 15.15018 | 66° | 71km/h | 14420m | -4.3m/s | 0°C | 0% | 0hPa | 2.6V | 18:12:15 | 02:07:40 | 00:00:00 | |
| DM0DOS-11 | 2026-08-30 06:24:49 | 52.45898 | 15.14891 | 78° | 55km/h | 14440m | -4m/s | -50.8°C | 5.2% | 138.3hPa | 2.5V | 08:30:00 | 02:07:35 | 00:00:00 | |
| AA1-15 | 2026-08-30 06:24:47 | 52.45910 | 15.14965 | 73° | 68km/h | 14428m | -4.3m/s | -50.8°C | 1.9% | 138.5hPa | 2.5V | 18:12:15 | 02:07:38 | 00:00:00 | |
| SONCRA | 2026-08-30 06:24:46 | 52.45902 | 15.14914 | 77° | 58km/h | 14436m | -4.3m/s | -50.7°C | 2.0% | 138.3hPa | 2.7V | 00:00:00 | 00:00:00 | 00:00:00 | |
| S3001 | 2026-08-30 06:24:45 | 52.45899 | 15.14891 | 78° | 53km/h | 14440m | -4.0m/s | -50.8°C | 2.0% | 138.3hPa | 2.7V | 00:00:00 | 00:00:00 | 00:00:00 | |
| KRY50SP-1 | 2026-08-30 06:24:42 | 52.45896 | 15.14870 | 78° | 49km/h | 14444m | -3.9m/s | -50.8°C | 2.0% | 138.1hPa | 2.7V | 00:00:00 | 00:00:00 | 00:00:00 | |
| 13BRC | 2026-08-30 06:24:41 | 52.45893 | 15.14850 | 75° | 47km/h | 14447m | -4.5m/s | -50.8°C | 2.0% | 138.1hPa | 2.7V | 00:00:00 | 00:00:00 | 00:00:00 | |
| DB0DAN | 2026-08-30 06:24:40 | 52.45885 | 15.14815 | 64° | 42km/h | 14455m | -4.1m/s | -50.9°C | 2% | 137.9hPa | 2.7V | 00:00:00 | 00:00:00 | 00:00:00 | |
| DF8AY | 2026-08-30 06:24:39 | 52.45880 | 15.14799 | 60° | 44km/h | 14459m | -4m/s | 0°C | 0% | 0hPa | 2.6V | 18:12:15 | 02:07:30 | 00:00:00 | |
| SONDE2-12 | 2026-08-30 06:24:38 | 52.45858 | 15.14752 | 48° | 53km/h | 14470m | -3.6m/s | -51.0°C | 2.5% | 137.6hPa | 2.6V | 00:00:00 | 00:00:00 | 00:00:00 | |
| AA1-15 | 2026-08-30 06:24:36 | 52.45858 | 15.14752 | 49° | 55km/h | 14469m | -3.6m/s | -51°C | 1.8% | 137.6hPa | 2.6V | 18:12:15 | 02:07:27 | 00:00:00 | |
| AA1-15 | 2026-08-30 06:24:25 | 52.45756 | 15.14489 | 73° | 71km/h | 14519m | -4.2m/s | -51.3°C | 1.6% | 136.7hPa | 2.7V | 18:12:15 | 02:07:16 | 00:00:00 | |
| DB0DAN | 2026-08-30 06:24:25 | 52.45756 | 15.14489 | 73° | 69km/h | 14519m | -4.2m/s | -51.3°C | 1.9% | 136.66hPa | 2.7V | 00:00:00 | 00:00:00 | 00:00:00 | |
| AA1-15 | 2026-08-30 06:24:14 | 52.45707 | 15.14226 | 71° | 53km/h | 14559m | -3.9m/s | -51.3°C | 1.4% | 135.8hPa | 2.7V | 18:12:15 | 02:07:05 | 00:00:00 | |
| S3001 | 2026-08-30 06:24:13 | 52.45703 | 15.14205 | 72° | 51km/h | 14563m | -4.2m/s | -51.2°C | 1.7% | 135.7hPa | 2.5V | 00:00:00 | 00:00:00 | 00:00:00 | |
| MECKS9 | 2026-08-30 06:24:11 | 52.45699 | 15.14185 | 73° | 53km/h | 14567m | -4.2m/s | -51.2°C | 1.7% | 135.6hPa | 2.5V | 00:00:00 | 00:00:00 | 00:00:00 | |
| DB0DAN | 2026-08-30 06:24:10 | 52.45691 | 15.14142 | 76° | 51km/h | 14575m | -4.1m/s | -51.1°C | 1.7% | 135.46hPa | 2.5V | 00:00:00 | 00:00:00 | 00:00:00 | |
| SONDE2-12 | 2026-08-30 06:24:07 | 52.45681 | 15.14076 | 77° | 55km/h | 14587m | -4.4m/s | -51.0°C | 2.0% | 135.2hPa | 2.7V | 00:00:00 | 00:00:00 | 00:00:00 | |
| AA1-15 | 2026-08-30 06:24:04 | 52.45671 | 15.14008 | 76° | 57km/h | 14600m | -3.8m/s | -50.7°C | 1% | 135hPa | 2.7V | 18:12:15 | 02:06:55 | 00:00:00 | |
| KRY50SP-1 | 2026-08-30 06:24:02 | 52.45667 | 15.13984 | 78° | 60km/h | 14604m | -3.7m/s | -50.7°C | 1.5% | 134.9hPa | 2.5V | 00:00:00 | 00:00:00 | 00:00:00 | |
| SONDE2-11 | 2026-08-30 06:23:59 | 52.45651 | 15.13864 | 78° | 57km/h | 14622m | -3.4m/s | -50.5°C | 1.5% | 134.5hPa | 2.5V | 00:00:00 | 00:00:00 | 00:00:00 | |
| EDDB2-12 | 2026-08-30 06:23:57 | 52.45648 | 15.13841 | 79° | 57km/h | 14624m | -3.6m/s | -50.5°C | 1.5% | 134.5hPa | 2.5V | 00:00:00 | 00:00:00 | 00:00:00 | |
| DB0DAN | 2026-08-30 06:23:55 | 52.45643 | 15.13795 | 83° | 51km/h | 14631m | -3.7m/s | -50.5°C | 1.5% | 134.29hPa | 2.5V | 00:00:00 | 00:00:00 | 00:00:00 | |
| AA1-15 | 2026-08-30 06:23:53 | 52.45640 | 15.13753 | 87° | 51km/h | 14638m | -4.4m/s | -50.5°C | 0.8% | 134.2hPa | 2.7V | 18:12:15 | 02:06:44 | 00:00:00 | |
| EDDB2-11 | 2026-08-30 06:23:51 | 52.45639 | 15.13712 | 85° | 46km/h | 14646m | -4.7m/s | -50.5°C | 1.5% | 134.0hPa | 2.6V | 00:00:00 | 00:00:00 | 00:00:00 | |
| DM0DOS-11 | 2026-08-30 06:23:47 | 52.45605 | 15.13578 | 53° | 49km/h | 14683m | -4.1m/s | -50.6°C | 4.4% | 133.1hPa | 2.6V | 08:30:00 | 02:06:33 | 00:00:00 | |
| AA1-15 | 2026-08-30 06:23:42 | 52.45605 | 15.13578 | 53° | 51km/h | 14683m | -4.1m/s | -50.6°C | 0.8% | 133.1hPa | 2.6V | 18:12:15 | 02:06:33 | 00:00:00 | |
| SQ2ODE-11 | 2026-08-30 06:23:41 | 52.45605 | 15.13578 | 54° | 51km/h | 14683m | -4.1m/s | -50.6°C | 1.4% | 133.1hPa | 2.5V | 00:00:00 | 00:00:00 | 00:00:00 | |
| DB0DAN | 2026-08-30 06:23:40 | 52.45590 | 15.13541 | 58° | 55km/h | 14691m | -4.4m/s | -50.5°C | 1.5% | 132.99hPa | 2.5V | 00:00:00 | 00:00:00 | 00:00:00 | |
| SP6BVK | 2026-08-30 06:23:39 | 52.45590 | 15.13541 | 59° | 58km/h | 14691m | -4.4m/s | -50.5°C | 1.5% | 133.0hPa | 2.7V | 00:00:00 | 00:00:00 | 00:00:00 | |
| OE3JTB-15 | 2026-08-30 06:23:38 | 52.45575 | 15.13496 | 67° | 44km/h | 14700m | -4.1m/s | -50.5°C | 4.4% | 132.8hPa | 2.7V | 00:00:00 | 02:06:29 | 00:00:00 | |
| DM0DOS-11 | 2026-08-30 06:23:36 | 52.45558 | 15.13328 | 93° | 51km/h | 14729m | -4.2m/s | -50.6°C | 4.4% | 132.3hPa | 2.7V | 08:30:00 | 02:06:22 | 00:00:00 | |
| AA1-15 | 2026-08-30 06:23:31 | 52.45558 | 15.13328 | 94° | 51km/h | 14729m | -4.2m/s | -50.7°C | 0.9% | 132.3hPa | 2.7V | 18:12:15 | 02:06:22 | 00:00:00 | |
| KRY50SP-1 | 2026-08-30 06:23:29 | 52.45559 | 15.13308 | 96° | 47km/h | 14733m | -4.5m/s | -50.7°C | 1.5% | 132.2hPa | 2.6V | 00:00:00 | 00:00:00 | 00:00:00 | |
| MECKS9 | 2026-08-30 06:23:27 | 52.45561 | 15.13273 | 96° | 38km/h | 14742m | -4.3m/s | -50.7°C | 1.4% | 132.0hPa | 2.6V | 00:00:00 | 00:00:00 | 00:00:00 | |
| DB0DAN | 2026-08-30 06:23:25 | 52.45560 | 15.13232 | 75° | 29km/h | 14753m | -3.9m/s | -50.7°C | 1.5% | 131.77hPa | 2.6V | 00:00:00 | 00:00:00 | 00:00:00 | |
| DM0DOS-11 | 2026-08-30 06:23:24 | 52.45529 | 15.13150 | 57° | 49km/h | 14777m | -4.5m/s | -50.7°C | 4.5% | 131.2hPa | 2.6V | 08:30:00 | 02:06:10 | 00:00:00 | |
| AA1-15 | 2026-08-30 06:23:20 | 52.45536 | 15.13167 | 55° | 46km/h | 14772m | -4.5m/s | -50.7°C | 1% | 131.4hPa | 2.6V | 18:12:15 | 02:06:11 | 00:00:00 | |
| EDDB2-11 | 2026-08-30 06:23:20 | 52.45529 | 15.13150 | 57° | 49km/h | 14777m | -4.5m/s | -50.7°C | 1.5% | 131.2hPa | 2.7V | 00:00:00 | 00:00:00 | 00:00:00 | |
| SP6BVK | 2026-08-30 06:23:18 | 52.45529 | 15.13150 | 58° | 49km/h | 14777m | -4.5m/s | -50.7°C | 1.5% | 131.2hPa | 2.7V | 00:00:00 | 00:00:00 | 00:00:00 | |
| 13BRC | 2026-08-30 06:23:17 | 52.45522 | 15.13131 | 60° | 57km/h | 14782m | -4.7m/s | -50.7°C | 1.5% | 131.2hPa | 2.7V | 00:00:00 | 00:00:00 | 00:00:00 | |
| MECKS9 | 2026-08-30 06:23:16 | 52.45515 | 15.13110 | 67° | 58km/h | 14787m | -4.5m/s | -50.7°C | 1.5% | 131.1hPa | 2.7V | 00:00:00 | 00:00:00 | 00:00:00 | |
| DM0DOS-11 | 2026-08-30 06:23:14 | 52.45503 | 15.12932 | 99° | 42km/h | 14821m | -3.8m/s | -50.8°C | 4.5% | 130.5hPa | 2.7V | 08:30:00 | 02:06:00 | 00:00:00 | |
| AA1-15 | 2026-08-30 06:23:09 | 52.45503 | 15.12932 | 99° | 42km/h | 14821m | -3.8m/s | -50.8°C | 1% | 130.5hPa | 2.7V | 18:12:15 | 02:06:00 | 00:00:00 | |
| SP3WXH-11 | 2026-08-30 06:23:05 | 52.45506 | 15.12873 | 83° | 27km/h | 14836m | -3.8m/s | -50.8°C | 1.5% | 130.2hPa | 2.7V | 00:00:00 | 00:00:00 | 00:00:00 | |
| DM0DOS-11 | 2026-08-30 06:23:04 | 52.45483 | 15.12795 | 57° | 42km/h | 14858m | -3.5m/s | -50.8°C | 4.6% | 129.7hPa | 2.7V | 08:30:00 | 02:05:50 | 00:00:00 | |
| AA1-15 | 2026-08-30 06:22:58 | 52.45478 | 15.12779 | 61° | 46km/h | 14862m | -3.7m/s | -50.8°C | 1.1% | 129.7hPa | 2.7V | 18:12:15 | 02:05:49 | 00:00:00 | |
| SONDE2-11 | 2026-08-30 06:22:57 | 52.45466 | 15.12743 | 65° | 53km/h | 14870m | -4.4m/s | -50.8°C | 1.6% | 129.5hPa | 2.6V | 00:00:00 | 00:00:00 | 00:00:00 | |
| DAC517 | 2026-08-30 06:22:56 | 52.45472 | 15.12762 | 64° | 49km/h | 14866m | -4.0m/s | -50.8°C | 1.6% | 129.6hPa | 2.6V | 00:00:00 | 00:00:00 | 00:00:00 | |
| DB0DAN | 2026-08-30 06:22:55 | 52.45461 | 15.12723 | 67° | 53km/h | 14875m | -4.1m/s | -50.8°C | 1.6% | 129.43hPa | 2.6V | 00:00:00 | 00:00:00 | 00:00:00 | |
| DM0DOS-11 | 2026-08-30 06:22:54 | 52.45438 | 15.12586 | 81° | 58km/h | 14898m | -4m/s | -51°C | 4.6% | 129hPa | 2.6V | 08:30:00 | 02:05:40 | 00:00:00 | |
| DL1XH-west | 2026-08-30 06:22:52 | 52.45447 | 15.12657 | 75° | 58km/h | 14886m | -3.9m/s | -50.9°C | 1.1% | 129.2hPa | 2.7V | 18:12:15 | 02:05:43 | 00:00:00 | |
| AA1-15 | 2026-08-30 06:22:47 | 52.45435 | 15.12540 | 86° | 55km/h | 14906m | -3.7m/s | -51°C | 1.1% | 128.8hPa | 2.7V | 18:12:15 | 02:05:38 | 00:00:00 | |
| SQ2ODE-11 | 2026-08-30 06:22:45 | 52.45434 | 15.12517 | 89° | 55km/h | 14909m | -3.7m/s | -51.0°C | 1.6% | 128.8hPa | 2.6V | 00:00:00 | 00:00:00 | 00:00:00 | |
| DM0DOS-11 | 2026-08-30 06:22:44 | 52.45434 | 15.12378 | 88° | 42km/h | 14934m | -3.4m/s | -51.3°C | 4.8% | 128.3hPa | 2.6V | 08:30:00 | 02:05:30 | 00:00:00 | |
| DL1XH-west | 2026-08-30 06:22:41 | 52.45434 | 15.12414 | 90° | 46km/h | 14927m | -3.3m/s | -51.2°C | 1.2% | 128.4hPa | 2.7V | 18:12:15 | 02:05:32 | 00:00:00 | |
| DB0DAN | 2026-08-30 06:22:40 | 52.45434 | 15.12396 | 90° | 40km/h | 14931m | -3.5m/s | -51.3°C | 1.6% | 128.37hPa | 2.5V | 00:00:00 | 00:00:00 | 00:00:00 | |
| AA1-15 | 2026-08-30 06:22:36 | 52.45432 | 15.12328 | 84° | 40km/h | 14945m | -3.6m/s | -51.4°C | 1.2% | 128.1hPa | 2.7V | 18:12:15 | 02:05:27 | 00:00:00 | |
| DL1XH1-15 | 2026-08-30 06:22:36 | 52.45429 | 15.12295 | 80° | 40km/h | 14952m | -3.6m/s | -51.5°C | 4.9% | 128hPa | 2.5V | 08:30:00 | 02:05:25 | 00:00:00 | |
| KRY50SP-1 | 2026-08-30 06:22:35 | 52.45432 | 15.12327 | 85° | 40km/h | 14945m | -3.6m/s | -51.4°C | 1.7% | 128.1hPa | 2.5V | 00:00:00 | 00:00:00 | 00:00:00 | |
| DM0DOS-11 | 2026-08-30 06:22:34 | 52.45418 | 15.12214 | 74° | 42km/h | 14969m | -3.1m/s | -51.6°C | 5.1% | 127.6hPa | 2.5V | 08:30:00 | 02:05:20 | 00:00:00 | |
| DL1XH-west | 2026-08-30 06:22:31 | 52.45423 | 15.12246 | 77° | 40km/h | 14962m | -3.2m/s | -51.5°C | 1.5% | 127.8hPa | 2.7V | 18:12:15 | 02:05:22 | 00:00:00 | |
| AA1-15 | 2026-08-30 06:22:25 | 52.45405 | 15.12147 | 72° | 44km/h | 14982m | -3.4m/s | -51.7°C | 1.9% | 127.3hPa | 2.5V | 18:12:15 | 02:05:16 | 00:00:00 | |
| DB0DAN | 2026-08-30 06:22:25 | 52.45405 | 15.12147 | 72° | 40km/h | 14982m | -3.4m/s | -51.7°C | 2% | 127.34hPa | 2.5V | 00:00:00 | 00:00:00 | 00:00:00 | |
| DL1XH-west | 2026-08-30 06:22:19 | 52.45384 | 15.12042 | 70° | 47km/h | 15003m | -3.2m/s | -51.8°C | 2.6% | 127hPa | 2.5V | 18:12:15 | 02:05:10 | 00:00:00 | |
| DM0DOS-11 | 2026-08-30 06:22:18 | 52.45365 | 15.11967 | 65° | 51km/h | 15017m | -3.7m/s | -51.7°C | 6.3% | 126.7hPa | 2.7V | 08:30:00 | 02:05:06 | 00:00:00 | |
| AA1-15 | 2026-08-30 06:22:14 | 52.45359 | 15.11947 | 65° | 53km/h | 15020m | -3.4m/s | -51.7°C | 2.9% | 126.6hPa | 2.7V | 18:12:15 | 02:05:05 | 00:00:00 | |
| DAC517 | 2026-08-30 06:22:13 | 52.45359 | 15.11947 | 66° | 53km/h | 15020m | -3.4m/s | -51.7°C | 2.6% | 126.6hPa | 2.7V | 00:00:00 | 00:00:00 | 00:00:00 | |
| KRY50SP-1 | 2026-08-30 06:22:12 | 52.45354 | 15.11926 | 66° | 57km/h | 15024m | -3.5m/s | -51.6°C | 2.7% | 126.5hPa | 2.7V | 00:00:00 | 00:00:00 | 00:00:00 | |
| DB0DAN | 2026-08-30 06:22:10 | 52.45335 | 15.11859 | 67° | 60km/h | 15035m | -3.8m/s | -51.7°C | 2.6% | 126.33hPa | 2.7V | 00:00:00 | 00:00:00 | 00:00:00 | |
| S3001 | 2026-08-30 06:22:09 | 52.45329 | 15.11835 | 67° | 64km/h | 15039m | -3.7m/s | -51.6°C | 2.6% | 126.2hPa | 2.7V | 00:00:00 | 00:00:00 | 00:00:00 | |
| DM0DOS-11 | 2026-08-30 06:22:08 | 52.45308 | 15.11728 | 76° | 71km/h | 15054m | -3.8m/s | -51.6°C | 6.3% | 125.9hPa | 2.7V | 08:30:00 | 02:04:56 | 00:00:00 | |
| DL1XH-west | 2026-08-30 06:22:08 | 52.45323 | 15.11810 | 70° | 68km/h | 15042m | -4m/s | -51.6°C | 3% | 126.2hPa | 2.6V | 18:12:15 | 02:04:59 | 00:00:00 | |
| KRY50SP-1 | 2026-08-30 06:22:07 | 52.45323 | 15.11810 | 71° | 68km/h | 15043m | -4.0m/s | -51.6°C | 2.6% | 126.2hPa | 2.7V | 00:00:00 | 00:00:00 | 00:00:00 | |
| SQ2ODE-11 | 2026-08-30 06:22:06 | 52.45317 | 15.11783 | 73° | 68km/h | 15047m | -4.1m/s | -51.6°C | 2.7% | 126.1hPa | 2.7V | 00:00:00 | 00:00:00 | 00:00:00 | |
| DL2RXE-15 | 2026-08-30 06:22:05 | 52.45312 | 15.11756 | 75° | 69km/h | 15051m | -3.6m/s | -51.6°C | 2.6% | 126.0hPa | 2.7V | 00:00:00 | 00:00:00 | 00:00:00 | |
| DL1XH1-15 | 2026-08-30 06:22:04 | 52.45294 | 15.11555 | 88° | 69km/h | 15078m | -3.9m/s | -51.6°C | 6.2% | 125.5hPa | 2.7V | 08:30:00 | 02:04:50 | 00:00:00 | |
| AA1-15 | 2026-08-30 06:22:03 | 52.45301 | 15.11671 | 81° | 71km/h | 15062m | -3.9m/s | -51.7°C | 3.1% | 125.8hPa | 2.6V | 18:12:15 | 02:04:54 | 00:00:00 | |
| KRY50SP-1 | 2026-08-30 06:22:01 | 52.45298 | 15.11641 | 84° | 71km/h | 15066m | -3.9m/s | -51.7°C | 2.7% | 125.7hPa | 2.7V | 00:00:00 | 00:00:00 | 00:00:00 | |
| DM0DOS-11 | 2026-08-30 06:21:58 | 52.45295 | 15.11448 | 92° | 60km/h | 15093m | -3.8m/s | -51.7°C | 6.1% | 125.2hPa | 2.7V | 08:30:00 | 02:04:46 | 00:00:00 | |
| DL1XH-west | 2026-08-30 06:21:57 | 52.45294 | 15.11500 | 91° | 66km/h | 15085m | -3.8m/s | -51.6°C | 3% | 125.3hPa | 2.6V | 18:12:15 | 02:04:48 | 00:00:00 | |
| KRY50SP-1 | 2026-08-30 06:21:56 | 52.45294 | 15.11500 | 92° | 66km/h | 15085m | -3.8m/s | -51.6°C | 2.7% | 125.3hPa | 2.7V | 00:00:00 | 00:00:00 | 00:00:00 | |
| DB0DAN | 2026-08-30 06:21:55 | 52.45295 | 15.11448 | 92° | 57km/h | 15093m | -3.8m/s | -51.7°C | 2.6% | 125.17hPa | 2.7V | 00:00:00 | 00:00:00 | 00:00:00 | |
| SONDE2-11 | 2026-08-30 06:21:55 | 52.45295 | 15.11424 | 91° | 57km/h | 15097m | -3.7m/s | -51.7°C | 2.6% | 125.1hPa | 2.7V | 00:00:00 | 00:00:00 | 00:00:00 | |
| DL1XH1-15 | 2026-08-30 06:21:54 | 52.45292 | 15.11317 | 80° | 47km/h | 15115m | -3.4m/s | -52°C | 6.1% | 124.8hPa | 2.7V | 08:30:00 | 02:04:40 | 00:00:00 | |
| AA1-15 | 2026-08-30 06:21:53 | 52.45296 | 15.11400 | 91° | 55km/h | 15100m | -3.7m/s | -51.8°C | 2.9% | 125.1hPa | 2.7V | 18:12:15 | 02:04:44 | 00:00:00 | |
| DL1XH-west | 2026-08-30 06:21:46 | 52.45283 | 15.11257 | 73° | 53km/h | 15126m | -3.8m/s | -52.2°C | 2.8% | 0hPa | 2.6V | 18:12:15 | 02:04:37 | 00:00:00 | |
| KRY50SP-1 | 2026-08-30 06:21:45 | 52.45283 | 15.11257 | 74° | 53km/h | 15126m | -3.8m/s | -52.2°C | 2.5% | 124.6hPa | 2.6V | 00:00:00 | 00:00:00 | 00:00:00 | |
| DM0DOS-11 | 2026-08-30 06:21:44 | 52.45250 | 15.11086 | 74° | 71km/h | 15151m | -3.4m/s | -52.1°C | 6.4% | 124.1hPa | 2.6V | 08:30:00 | 02:04:30 | 00:00:00 | |
| AA1-15 | 2026-08-30 06:21:42 | 52.45265 | 15.11167 | 72° | 64km/h | 15140m | -3.6m/s | -52.1°C | 3% | 124.3hPa | 2.7V | 18:12:15 | 02:04:33 | 00:00:00 | |
| DB0DAN | 2026-08-30 06:21:40 | 52.45254 | 15.11114 | 73° | 66km/h | 15147m | -3.5m/s | -52.1°C | 2.7% | 124.09hPa | 2.6V | 00:00:00 | 00:00:00 | 00:00:00 | |
| DL1XH-west | 2026-08-30 06:21:36 | 52.45237 | 15.10996 | 80° | 77km/h | 15161m | -3.9m/s | -52°C | 3.2% | 0hPa | 2.7V | 18:12:15 | 02:04:27 | 00:00:00 | |
| DF8AY | 2026-08-30 06:21:34 | 52.45232 | 15.10933 | 84° | 77km/h | 15169m | -3.8m/s | -52°C | 3.2% | 123.7hPa | 2.6V | 18:12:15 | 02:04:25 | 00:00:00 | |
| SONDE2-12 | 2026-08-30 06:21:32 | 52.45230 | 15.10870 | 88° | 75km/h | 15177m | -3.8m/s | -52.0°C | 3.3% | 123.6hPa | 2.7V | 00:00:00 | 00:00:00 | 00:00:00 | |
| AA1-15 | 2026-08-30 06:21:31 | 52.45229 | 15.10838 | 90° | 75km/h | 15181m | -3.8m/s | -51.9°C | 3.2% | 123.5hPa | 2.7V | 18:12:15 | 02:04:22 | 00:00:00 | |
| KRY50SP-1 | 2026-08-30 06:21:28 | 52.45230 | 15.10777 | 94° | 71km/h | 15188m | -3.8m/s | -51.9°C | 2.7% | 123.3hPa | 2.7V | 00:00:00 | 00:00:00 | 00:00:00 | |
| DL1XH1-15 | 2026-08-30 06:21:26 | 52.45238 | 15.10609 | 95° | 66km/h | 15210m | -3.6m/s | -52.3°C | 6.6% | 122.9hPa | 2.7V | 08:30:00 | 02:04:14 | 00:00:00 | |
| DL1XH-west | 2026-08-30 06:21:26 | 52.45234 | 15.10691 | 94° | 68km/h | 15199m | -3.5m/s | -52.1°C | 3.2% | 0hPa | 2.6V | 18:12:15 | 02:04:17 | 00:00:00 | |
| DB0DAN | 2026-08-30 06:21:25 | 52.45235 | 15.10664 | 95° | 64km/h | 15203m | -3.5m/s | -52.1°C | 2.8% | 123.05hPa | 2.6V | 00:00:00 | 00:00:00 | 00:00:00 | |
| AA1-15 | 2026-08-30 06:21:20 | 52.45242 | 15.10528 | 95° | 66km/h | 15221m | -3.9m/s | -52.3°C | 3.3% | 122.7hPa | 2.6V | 18:12:15 | 02:04:11 | 00:00:00 | |
| SQ2ODE-11 | 2026-08-30 06:21:18 | 52.45244 | 15.10501 | 96° | 66km/h | 15225m | -3.6m/s | -52.3°C | 2.8% | 122.6hPa | 2.6V | 00:00:00 | 00:00:00 | 00:00:00 | |
| DL1XH1-15 | 2026-08-30 06:21:16 | 52.45255 | 15.10338 | 97° | 68km/h | 15246m | -3.7m/s | -52.1°C | 6.3% | 122.2hPa | 2.6V | 08:30:00 | 02:04:04 | 00:00:00 | |
| DL1XH-west | 2026-08-30 06:21:15 | 52.45251 | 15.10393 | 97° | 68km/h | 15239m | -3.6m/s | 0°C | 0% | 0hPa | 2.7V | 18:12:15 | 02:04:06 | 00:00:00 | |
| DF8AY | 2026-08-30 06:21:10 | 52.45261 | 15.10254 | 97° | 68km/h | 15257m | -3.8m/s | -52.1°C | 3.2% | 122hPa | 2.7V | 18:12:15 | 02:04:01 | 00:00:00 | |
| DB0DAN | 2026-08-30 06:21:10 | 52.45261 | 15.10254 | 97° | 66km/h | 15257m | -3.8m/s | -52.1°C | 2.7% | 122.02hPa | 2.7V | 00:00:00 | 00:00:00 | 00:00:00 | |
| AA1-15 | 2026-08-30 06:21:09 | 52.45263 | 15.10226 | 96° | 69km/h | 15261m | -3.9m/s | -52.3°C | 3.2% | 122hPa | 2.6V | 18:12:15 | 02:04:00 | 00:00:00 | |
| DL1XH-west | 2026-08-30 06:21:04 | 52.45272 | 15.10084 | 96° | 69km/h | 15280m | -3.5m/s | 0°C | 0% | 0hPa | 2.6V | 18:12:15 | 02:03:55 | 00:00:00 | |
| SONDE2-12 | 2026-08-30 06:21:01 | 52.45279 | 15.09997 | 97° | 71km/h | 15290m | -3.7m/s | -52.5°C | 3.6% | 121.4hPa | 2.5V | 00:00:00 | 00:00:00 | 00:00:00 | |
| DF8AY | 2026-08-30 06:20:59 | 52.45283 | 15.09938 | 99° | 73km/h | 15298m | -3.9m/s | -52.4°C | 3.5% | 121.3hPa | 2.5V | 18:12:15 | 02:03:50 | 00:00:00 | |
| AA1-15 | 2026-08-30 06:20:58 | 52.45286 | 15.09909 | 99° | 73km/h | 15302m | -3.9m/s | -52.4°C | 3.5% | 121.2hPa | 2.6V | 18:12:15 | 02:03:49 | 00:00:00 | |
| DB0DAN | 2026-08-30 06:20:55 | 52.45296 | 15.09823 | 102° | 66km/h | 15313m | -3.9m/s | -52.4°C | 2.9% | 120.93hPa | 2.7V | 00:00:00 | 00:00:00 | 00:00:00 | |
| DL1XH-west | 2026-08-30 06:20:54 | 52.45300 | 15.09795 | 102° | 66km/h | 15317m | -3.9m/s | 0°C | 0% | 0hPa | 2.7V | 18:12:15 | 02:03:45 | 00:00:00 | |
| AA1-15 | 2026-08-30 06:20:47 | 52.45321 | 15.09629 | 100° | 53km/h | 15344m | -3.9m/s | -52.8°C | 3.6% | 120.4hPa | 2.6V | 18:12:15 | 02:03:38 | 00:00:00 | |
| EDDB2-11 | 2026-08-30 06:20:45 | 52.45327 | 15.09566 | 98° | 49km/h | 15356m | -3.9m/s | -52.8°C | 3.0% | 120.2hPa | 2.6V | 00:00:00 | 00:00:00 | 00:00:00 | |
| AA1-15 | 2026-08-30 06:20:37 | 52.45342 | 15.09426 | 102° | 49km/h | 15383m | -4m/s | -52.7°C | 3.6% | 119.7hPa | 2.6V | 18:12:15 | 02:03:28 | 00:00:00 | |
| DF8AY | 2026-08-30 06:20:32 | 52.45356 | 15.09325 | 104° | 49km/h | 15403m | -3.9m/s | -52.5°C | 3.6% | 119.3hPa | 2.5V | 18:12:15 | 02:03:23 | 00:00:00 | |
| AA1-15 | 2026-08-30 06:20:26 | 52.45376 | 15.09210 | 108° | 49km/h | 15426m | -3.8m/s | -52.5°C | 3.5% | 118.8hPa | 2.6V | 18:12:15 | 02:03:17 | 00:00:00 | |
| DB0DAN | 2026-08-30 06:20:25 | 52.45380 | 15.09191 | 109° | 46km/h | 15429m | -3.9m/s | -52.5°C | 2.9% | 118.8hPa | 2.7V | 00:00:00 | 00:00:00 | 00:00:00 | |
| DF8AY | 2026-08-30 06:20:21 | 52.45396 | 15.09118 | 110° | 46km/h | 15446m | -4m/s | -52.5°C | 3.5% | 118.5hPa | 2.6V | 18:12:15 | 02:03:12 | 00:00:00 | |
| AA1-15 | 2026-08-30 06:20:15 | 52.45416 | 15.09024 | 107° | 35km/h | 15470m | -3.9m/s | -52.7°C | 3.5% | 118hPa | 2.6V | 18:12:15 | 02:03:06 | 00:00:00 | |
| DF8AY | 2026-08-30 06:20:11 | 52.45426 | 15.08970 | 109° | 35km/h | 15486m | -4.1m/s | -52.5°C | 3.4% | 117.7hPa | 2.5V | 18:12:15 | 02:03:02 | 00:00:00 | |
| DB0DAN | 2026-08-30 06:20:10 | 52.45429 | 15.08957 | 110° | 33km/h | 15490m | -3.8m/s | -52.5°C | 2.9% | 117.68hPa | 2.6V | 00:00:00 | 00:00:00 | 00:00:00 | |
| AA1-15 | 2026-08-30 06:20:05 | 52.45445 | 15.08889 | 112° | 37km/h | 15509m | -3.8m/s | -52.5°C | 3.3% | 117.3hPa | 2.6V | 18:12:15 | 02:02:56 | 00:00:00 | |
| DF8AY | 2026-08-30 06:20:02 | 52.45459 | 15.08834 | 113° | 37km/h | 15524m | -3.8m/s | -52.7°C | 3.2% | 117hPa | 2.6V | 18:12:15 | 02:02:52 | 00:00:00 | |
| OE3JTB-15 | 2026-08-30 06:20:02 | 52.45455 | 15.08847 | 113° | 29km/h | 15521m | -3.6m/s | -52.6°C | 6.6% | 117.1hPa | 2.6V | 00:00:00 | 00:00:00 | 08:30:00 | |
| SQ2ODE-11 | 2026-08-30 06:20:01 | 52.45456 | 15.08847 | 113° | 37km/h | 15521m | -3.6m/s | -52.6°C | 2.8% | 117.1hPa | 2.6V | 00:00:00 | 00:00:00 | 00:00:00 | |
| SP3WXH-11 | 2026-08-30 06:19:59 | 52.45466 | 15.08806 | 113° | 35km/h | 15532m | -3.7m/s | -52.6°C | 2.7% | 116.9hPa | 2.6V | 00:00:00 | 00:00:00 | 00:00:00 | |
| KRY50SP-1 | 2026-08-30 06:19:58 | 52.45466 | 15.08806 | 114° | 37km/h | 15532m | -3.7m/s | -52.6°C | 2.7% | 116.9hPa | 2.6V | 00:00:00 | 00:00:00 | 00:00:00 | |
| DB0DAN | 2026-08-30 06:19:55 | 52.45480 | 15.08753 | 114° | 33km/h | 15547m | -3.5m/s | -52.8°C | 2.7% | 116.65hPa | 2.6V | 00:00:00 | 00:00:00 | 00:00:00 | |
| AA1-15 | 2026-08-30 06:19:54 | 52.45484 | 15.08740 | 114° | 33km/h | 15550m | -4m/s | -52.8°C | 3% | 116.6hPa | 2.6V | 18:12:15 | 02:02:45 | 00:00:00 | |
| DF8AY | 2026-08-30 06:19:50 | 52.45496 | 15.08694 | 112° | 29km/h | 15566m | -3.7m/s | -52.8°C | 3% | 116.3hPa | 2.6V | 18:12:15 | 02:02:41 | 00:00:00 | |
| EDDB2-12 | 2026-08-30 06:19:49 | 52.45501 | 15.08671 | 109° | 27km/h | 15573m | -3.8m/s | -52.8°C | 2.7% | 116.2hPa | 2.7V | 00:00:00 | 00:00:00 | 00:00:00 | |
| D01LWL | 2026-08-30 06:19:47 | 52.45505 | 15.08650 | 107° | 26km/h | 15580m | -3.6m/s | -52.8°C | 2.7% | 116.1hPa | 2.7V | 00:00:00 | 00:00:00 | 00:00:00 | |
| AA1-15 | 2026-08-30 06:19:43 | 52.45511 | 15.08618 | 107° | 26km/h | 15591m | -3.7m/s | -53°C | 3.2% | 115.8hPa | 2.7V | 18:12:15 | 02:02:34 | 00:00:00 | |
| EDDB2-11 | 2026-08-30 06:19:43 | 52.45513 | 15.08608 | 107° | 26km/h | 15595m | -3.8m/s | -53.0°C | 2.7% | 115.8hPa | 2.7V | 00:00:00 | 00:00:00 | 00:00:00 | |
| DM0DOS-11 | 2026-08-30 06:19:42 | 52.45524 | 15.08555 | 110° | 27km/h | 15614m | -3.8m/s | -53.3°C | 6.9% | 115.4hPa | 2.7V | 08:30:00 | 02:02:28 | 00:00:00 | |
| SQ2ODE-11 | 2026-08-30 06:19:41 | 52.45513 | 15.08608 | 109° | 26km/h | 15595m | -3.8m/s | -53.0°C | 2.7% | 115.8hPa | 2.6V | 00:00:00 | 00:00:00 | 00:00:00 | |
| DB0DAN | 2026-08-30 06:19:40 | 52.45517 | 15.08587 | 109° | 26km/h | 15603m | -3.7m/s | -53.1°C | 2.8% | 115.62hPa | 2.6V | 00:00:00 | 00:00:00 | 00:00:00 | |
| DF8AY | 2026-08-30 06:19:38 | 52.45522 | 15.08566 | 110° | 27km/h | 15610m | -3.8m/s | -53.2°C | 3.2% | 115.5hPa | 2.7V | 18:12:15 | 02:02:29 | 00:00:00 | |
| AA1-15 | 2026-08-30 06:19:32 | 52.45537 | 15.08502 | 113° | 27km/h | 15633m | -3.8m/s | -53.3°C | 3.3% | 115.1hPa | 2.7V | 18:12:15 | 02:02:23 | 00:00:00 | |
| DF8AY | 2026-08-30 06:19:28 | 52.45548 | 15.08461 | 115° | 26km/h | 15650m | -3.8m/s | -53.2°C | 3.5% | 114.8hPa | 2.6V | 18:12:15 | 02:02:19 | 00:00:00 | |
| DAC517 | 2026-08-30 06:19:26 | 52.45551 | 15.08452 | 116° | 24km/h | 15654m | -3.8m/s | -53.1°C | 2.9% | 114.7hPa | 2.7V | 00:00:00 | 00:00:00 | 00:00:00 | |
| DB0DAN | 2026-08-30 06:19:25 | 52.45556 | 15.08434 | 114° | 22km/h | 15661m | -3.7m/s | -53.1°C | 2.8% | 114.56hPa | 2.7V | 00:00:00 | 00:00:00 | 00:00:00 | |
| KRY50SP-1 | 2026-08-30 06:19:24 | 52.45555 | 15.08434 | 115° | 24km/h | 15662m | -3.7m/s | -53.1°C | 2.8% | 114.6hPa | 2.6V | 00:00:00 | 00:00:00 | 00:00:00 | |
| SQ2ODE-11 | 2026-08-30 06:19:23 | 52.45558 | 15.08425 | 114° | 22km/h | 15665m | -3.9m/s | -53.1°C | 2.8% | 114.5hPa | 2.6V | 00:00:00 | 00:00:00 | 00:00:00 | |
| DM0DOS-11 | 2026-08-30 06:19:22 | 52.45566 | 15.08377 | 91° | 15km/h | 15693m | -3.9m/s | -53.2°C | 6.6% | 114hPa | 2.6V | 08:30:00 | 02:02:08 | 00:00:00 | |
| AA1-15 | 2026-08-30 06:19:22 | 52.45562 | 15.08410 | 111° | 18km/h | 15673m | -3.9m/s | -53.1°C | 3.4% | 114.3hPa | 2.6V | 18:12:15 | 02:02:13 | 00:00:00 | |
| DF8AY | 2026-08-30 06:19:18 | 52.45566 | 15.08383 | 97° | 15km/h | 15689m | -3.9m/s | -53.2°C | 3.3% | 114.1hPa | 2.6V | 18:12:15 | 02:02:09 | 00:00:00 | |
| EDDB2-12 | 2026-08-30 06:19:18 | 52.45566 | 15.08383 | 96° | 15km/h | 15689m | -3.9m/s | -53.2°C | 2.8% | 114.1hPa | 2.6V | 00:00:00 | 00:00:00 | 00:00:00 | |
| D01LWL | 2026-08-30 06:19:16 | 52.45566 | 15.08365 | 79° | 15km/h | 15701m | -3.9m/s | -53.2°C | 2.8% | 113.9hPa | 2.6V | 00:00:00 | 00:00:00 | 00:00:00 | |
| POL1PZ | 2026-08-30 06:19:13 | 52.45564 | 15.08359 | 75° | 15km/h | 15705m | -3.8m/s | -53.2°C | 2.7% | 113.8hPa | 2.6V | 00:00:00 | 00:00:00 | 00:00:00 | |
| DM0DOS-11 | 2026-08-30 06:19:12 | 52.45551 | 15.08310 | 62° | 22km/h | 15732m | -3.6m/s | -53.4°C | 6.8% | 113.3hPa | 2.6V | 08:30:00 | 02:01:58 | 00:00:00 | |
| AA1-15 | 2026-08-30 06:19:11 | 52.45560 | 15.08340 | 64° | 18km/h | 15716m | -3.9m/s | -53.2°C | 3.2% | 113.6hPa | 2.7V | 18:12:15 | 02:02:02 | 00:00:00 | |
| DB0DAN | 2026-08-30 06:19:10 | 52.45558 | 15.08333 | 63° | 18km/h | 15720m | -3.8m/s | -53.2°C | 2.8% | 113.51hPa | 2.7V | 00:00:00 | 00:00:00 | 00:00:00 | |
| DF8AY | 2026-08-30 06:19:07 | 52.45550 | 15.08310 | 62° | 22km/h | 15732m | -3.6m/s | -53.4°C | 3.3% | 113.3hPa | 2.6V | 18:12:15 | 02:01:58 | 00:00:00 | |
| DAC517 | 2026-08-30 06:19:05 | 52.45548 | 15.08302 | 63° | 22km/h | 15736m | -3.9m/s | -53.4°C | 2.8% | 113.3hPa | 2.5V | 00:00:00 | 00:00:00 | 00:00:00 | |
| SONCRA | 2026-08-30 06:19:04 | 52.45542 | 15.08286 | 60° | 22km/h | 15743m | -4.0m/s | -53.5°C | 2.9% | 113.1hPa | 2.5V | 00:00:00 | 00:00:00 | 00:00:00 | |
| OE3JTB-15 | 2026-08-30 06:19:03 | 52.45539 | 15.08277 | 59° | 38km/h | 15747m | -3.9m/s | -53.4°C | 6.9% | 113.0hPa | 2.5V | 00:00:00 | 02:01:54 | 00:00:00 | |
| DM0DOS-11 | 2026-08-30 06:19:02 | 52.45515 | 15.08221 | 53° | 33km/h | 15770m | -4.2m/s | -53.5°C | 6.6% | 112.6hPa | 2.5V | 08:30:00 | 02:01:48 | 00:00:00 | |
| AA1-15 | 2026-08-30 06:19:00 | 52.45528 | 15.08251 | 55° | 27km/h | 15759m | -3.8m/s | -53.4°C | 3.3% | 112.8hPa | 2.5V | 18:12:15 | 02:01:51 | 00:00:00 | |
| DF8AY | 2026-08-30 06:18:57 | 52.45515 | 15.08221 | 53° | 33km/h | 15770m | -4.2m/s | -53.5°C | 3.2% | 112.6hPa | 2.5V | 18:12:15 | 02:01:48 | 00:00:00 | |
| DB0DAN | 2026-08-30 06:18:55 | 52.45504 | 15.08197 | 55° | 35km/h | 15779m | -4.4m/s | -53.5°C | 2.7% | 112.49hPa | 2.7V | 00:00:00 | 00:00:00 | 00:00:00 | |
| AA1-15 | 2026-08-30 06:18:49 | 52.45476 | 15.08105 | 71° | 46km/h | 15804m | -4.2m/s | -53.4°C | 3% | 112hPa | 2.7V | 18:12:15 | 02:01:40 | 00:00:00 | |
| DF8AY | 2026-08-30 06:18:46 | 52.45466 | 15.08051 | 77° | 46km/h | 15817m | -4.1m/s | -53.4°C | 2.9% | 111.8hPa | 2.6V | 18:12:15 | 02:01:37 | 00:00:00 | |
| D01LWL | 2026-08-30 06:18:45 | 52.45464 | 15.08033 | 77° | 44km/h | 15821m | -4.0m/s | -53.4°C | 2.6% | 111.8hPa | 2.6V | 00:00:00 | 00:00:00 | 00:00:00 | |
| DAC517 | 2026-08-30 06:18:44 | 52.45464 | 15.08033 | 79° | 44km/h | 15821m | -4.0m/s | -53.4°C | 2.6% | 111.8hPa | 2.6V | 00:00:00 | 00:00:00 | 00:00:00 | |
| KRY50SP-1 | 2026-08-30 06:18:41 | 52.45457 | 15.07980 | 79° | 42km/h | 15833m | -3.4m/s | -53.8°C | 2.6% | 111.6hPa | 2.6V | 00:00:00 | 00:00:00 | 00:00:00 | |
| DB0DAN | 2026-08-30 06:18:40 | 52.45453 | 15.07947 | 79° | 38km/h | 15840m | -3.7m/s | -53.8°C | 2.6% | 111.43hPa | 2.6V | 00:00:00 | 00:00:00 | 00:00:00 | |
| AA1-15 | 2026-08-30 06:18:38 | 52.45450 | 15.07915 | 82° | 38km/h | 15847m | -3.6m/s | -53.7°C | 2.9% | 111.3hPa | 2.7V | 18:12:15 | 02:01:29 | 00:00:00 | |
| DM0DOS-11 | 2026-08-30 06:18:37 | 52.45445 | 15.07808 | 87° | 35km/h | 15873m | -3.7m/s | -52.9°C | 6.3% | 110.8hPa | 2.7V | 08:30:00 | 02:01:22 | 00:00:00 | |
| DF8AY | 2026-08-30 06:18:36 | 52.45448 | 15.07884 | 84° | 38km/h | 15854m | -3.5m/s | -53.5°C | 3% | 111.2hPa | 2.7V | 18:12:15 | 02:01:27 | 00:00:00 | |
| DL1XH-west | 2026-08-30 06:18:34 | 52.45446 | 15.07853 | 86° | 38km/h | 15861m | -3.8m/s | -53.3°C | 3% | 111.1hPa | 2.6V | 18:12:15 | 02:01:25 | 00:00:00 | |
| AA1-15 | 2026-08-30 06:18:27 | 52.45442 | 15.07759 | 78° | 27km/h | 15888m | -3.8m/s | -52.9°C | 2.9% | 110.6hPa | 2.7V | 18:12:15 | 02:01:18 | 00:00:00 | |
| SONDE2-12 | 2026-08-30 06:18:26 | 52.45440 | 15.07749 | 74° | 24km/h | 15892m | -3.6m/s | -52.9°C | 3.2% | 110.5hPa | 2.6V | 00:00:00 | 00:00:00 | 00:00:00 | |
| DF8AY | 2026-08-30 06:18:25 | 52.45438 | 15.07739 | 70° | 26km/h | 15895m | -3.6m/s | -53°C | 2.8% | 110.5hPa | 2.6V | 18:12:15 | 02:01:16 | 00:00:00 | |
| DB0DAN | 2026-08-30 06:18:25 | 52.45438 | 15.07739 | 70° | 24km/h | 15895m | -3.6m/s | -53°C | 2.5% | 110.47hPa | 2.6V | 00:00:00 | 00:00:00 | 00:00:00 | |
| DM0DOS-11 | 2026-08-30 06:18:24 | 52.45420 | 15.07683 | 54° | 27km/h | 15917m | -3.6m/s | -53°C | 6.7% | 110.1hPa | 2.6V | 08:30:00 | 02:01:10 | 00:00:00 | |
| DL1XH-west | 2026-08-30 06:18:22 | 52.45431 | 15.07711 | 61° | 26km/h | 15906m | -3.7m/s | -53°C | 2.9% | 110.3hPa | 2.7V | 18:12:15 | 02:01:13 | 00:00:00 | |
| KRY50SP-1 | 2026-08-30 06:18:19 | 52.45424 | 15.07692 | 58° | 27km/h | 15914m | -3.6m/s | -53.1°C | 2.6% | 110.1hPa | 2.6V | 00:00:00 | 00:00:00 | 00:00:00 | |
| SQ2ODE-11 | 2026-08-30 06:18:18 | 52.45420 | 15.07683 | 56° | 27km/h | 15918m | -3.6m/s | -53.0°C | 2.7% | 110.1hPa | 2.6V | 00:00:00 | 00:00:00 | 00:00:00 | |
| SONDE2-11 | 2026-08-30 06:18:17 | 52.45411 | 15.07663 | 50° | 31km/h | 15925m | -3.6m/s | -53.0°C | 2.7% | 110.0hPa | 2.6V | 00:00:00 | 00:00:00 | 00:00:00 | |
| DL1XH1-15 | 2026-08-30 06:18:16 | 52.45389 | 15.07621 | 48° | 37km/h | 15939m | -3.8m/s | -52.9°C | 6.6% | 109.7hPa | 2.6V | 08:30:00 | 02:01:04 | 00:00:00 | |
| AA1-15 | 2026-08-30 06:18:16 | 52.45406 | 15.07653 | 50° | 33km/h | 15928m | -3.7m/s | -53°C | 3% | 109.9hPa | 2.7V | 18:12:15 | 02:01:07 | 00:00:00 | |
| DM0DOS-11 | 2026-08-30 06:18:14 | 52.45364 | 15.07574 | 48° | 38km/h | 15955m | -4m/s | -52.8°C | 6.5% | 109.5hPa | 2.7V | 08:30:00 | 02:01:00 | 00:00:00 | |
| DL1XH-west | 2026-08-30 06:18:11 | 52.45377 | 15.07598 | 49° | 38km/h | 15947m | -3.9m/s | -52.9°C | 3% | 109.6hPa | 2.7V | 18:12:15 | 02:01:02 | 00:00:00 | |
| DB0DAN | 2026-08-30 06:18:10 | 52.45370 | 15.07586 | 48° | 37km/h | 15951m | -4m/s | -52.8°C | 2.7% | 109.52hPa | 2.7V | 00:00:00 | 00:00:00 | 00:00:00 | |
| 13BRC | 2026-08-30 06:18:09 | 52.45370 | 15.07586 | 49° | 38km/h | 15951m | -4.0m/s | -52.8°C | 2.7% | 109.5hPa | 2.6V | 00:00:00 | 00:00:00 | 00:00:00 | |
| SP6BVK | 2026-08-30 06:18:08 | 52.45364 | 15.07574 | 49° | 40km/h | 15955m | -4.0m/s | -52.8°C | 2.7% | 109.5hPa | 2.6V | 00:00:00 | 00:00:00 | 00:00:00 | |
| DL1XH1-15 | 2026-08-30 06:18:07 | 52.45321 | 15.07493 | 52° | 47km/h | 15979m | -4m/s | -52.5°C | 6.4% | 109hPa | 2.6V | 08:30:00 | 02:00:54 | 00:00:00 | |
| AA1-15 | 2026-08-30 06:18:05 | 52.45336 | 15.07523 | 50° | 44km/h | 15971m | -4m/s | -52.7°C | 3.1% | 109.2hPa | 2.7V | 18:12:15 | 02:00:56 | 00:00:00 | |
| OE3JTB-15 | 2026-08-30 06:18:05 | 52.45336 | 15.07523 | 50° | 40km/h | 15971m | -4.0m/s | -52.6°C | 6.4% | 109.2hPa | 2.6V | 00:00:00 | 00:00:00 | 00:00:00 | |
| DM0DOS-11 | 2026-08-30 06:18:04 | 52.45295 | 15.07424 | 62° | 51km/h | 15994m | -3.9m/s | -52.5°C | 6.6% | 108.8hPa | 2.6V | 08:30:00 | 02:00:50 | 00:00:00 | |
| DL1XH-west | 2026-08-30 06:18:01 | 52.45307 | 15.07460 | 58° | 49km/h | 15986m | -3.7m/s | -52.5°C | 3.1% | 108.9hPa | 2.7V | 18:12:15 | 02:00:52 | 00:00:00 | |
| DF8AY | 2026-08-30 06:17:59 | 52.45294 | 15.07424 | 62° | 53km/h | 15994m | -3.9m/s | -52.5°C | 3.1% | 108.8hPa | 2.6V | 18:12:15 | 02:00:50 | 00:00:00 | |
| DL1XH1-15 | 2026-08-30 06:17:56 | 52.45269 | 15.07300 | 81° | 53km/h | 16018m | -4.3m/s | -52.5°C | 6.7% | 108.4hPa | 2.5V | 08:30:00 | 02:00:44 | 00:00:00 | |
| AA1-15 | 2026-08-30 06:17:55 | 52.45274 | 15.07343 | 75° | 53km/h | 16009m | -4.1m/s | -52.5°C | 3.1% | 108.5hPa | 2.7V | 18:12:15 | 02:00:46 | 00:00:00 | |
| SONDE2-12 | 2026-08-30 06:17:55 | 52.45267 | 15.07278 | 84° | 49km/h | 16022m | -4.3m/s | -52.5°C | 3.4% | 108.3hPa | 2.7V | 00:00:00 | 00:00:00 | 00:00:00 | |
| DB0DAN | 2026-08-30 06:17:55 | 52.45274 | 15.07343 | 75° | 51km/h | 16009m | -4.1m/s | -52.5°C | 2.8% | 108.53hPa | 2.7V | 00:00:00 | 00:00:00 | 00:00:00 | |
| DL1XH-west | 2026-08-30 06:17:50 | 52.45266 | 15.07238 | 91° | 46km/h | 16031m | -4.4m/s | -52.5°C | 3.1% | 108.2hPa | 2.7V | 18:12:15 | 02:00:41 | 00:00:00 | |
| POL1PZ | 2026-08-30 06:17:49 | 52.45266 | 15.07238 | 92° | 46km/h | 16031m | -4.4m/s | -52.5°C | 2.7% | 108.2hPa | 2.7V | 00:00:00 | 00:00:00 | 00:00:00 | |
| 13BRC | 2026-08-30 06:17:48 | 52.45267 | 15.07220 | 95° | 42km/h | 16036m | -4.5m/s | -52.5°C | 2.7% | 108.1hPa | 2.7V | 00:00:00 | 00:00:00 | 00:00:00 | |
| DL1XH1-15 | 2026-08-30 06:17:46 | 52.45268 | 15.07146 | 71° | 22km/h | 16062m | -4.4m/s | -52.2°C | 6.5% | 107.7hPa | 2.7V | 08:30:00 | 02:00:34 | 00:00:00 | |
| EDDB2-12 | 2026-08-30 06:17:45 | 52.45269 | 15.07155 | 82° | 22km/h | 16057m | -4.5m/s | -52.3°C | 2.7% | 107.7hPa | 2.6V | 00:00:00 | 00:00:00 | 00:00:00 | |
| DM0DOS-11 | 2026-08-30 06:17:44 | 52.45253 | 15.07112 | 46° | 31km/h | 16079m | -4.2m/s | -52°C | 6.1% | 107.4hPa | 2.6V | 08:30:00 | 02:00:30 | 00:00:00 | |
| AA1-15 | 2026-08-30 06:17:44 | 52.45269 | 15.07155 | 82° | 22km/h | 16057m | -4.5m/s | -52.3°C | 3% | 107.7hPa | 2.7V | 18:12:15 | 02:00:35 | 00:00:00 | |
| DL1XH-west | 2026-08-30 06:17:40 | 52.45258 | 15.07121 | 49° | 27km/h | 16075m | -4.1m/s | -52.1°C | 2.8% | 107.4hPa | 2.6V | 18:12:15 | 02:00:31 | 00:00:00 | |
| DB0DAN | 2026-08-30 06:17:40 | 52.45258 | 15.07121 | 49° | 26km/h | 16075m | -4.1m/s | -52.1°C | 2.5% | 107.42hPa | 2.6V | 00:00:00 | 00:00:00 | 00:00:00 | |
| SP3BTT-10 | 2026-08-30 06:17:39 | 52.45253 | 15.07112 | 47° | 18km/h | 16079m | -4.2m/s | -51.9°C | 6.1% | 107.3hPa | 2.6V | 00:00:00 | 00:00:00 | 00:00:00 | |
| KRY50SP-1 | 2026-08-30 06:17:38 | 52.45253 | 15.07112 | 47° | 31km/h | 16079m | -4.2m/s | -52.0°C | 2.4% | 107.4hPa | 2.6V | 00:00:00 | 00:00:00 | 00:00:00 | |
| DL1XH1-15 | 2026-08-30 06:17:36 | 52.45213 | 15.07036 | 55° | 37km/h | 16107m | -3.8m/s | -51.7°C | 5.7% | 106.9hPa | 2.6V | 08:30:00 | 02:00:23 | 00:00:00 | |
| OE3JTB-15 | 2026-08-30 06:17:36 | 52.45236 | 15.07082 | 48° | 27km/h | 16092m | -4.1m/s | -51.8°C | 5.8% | 107.1hPa | 2.7V | 00:00:00 | 02:00:27 | 00:00:00 | |
| DM0DOS-11 | 2026-08-30 06:17:34 | 52.45200 | 15.06998 | 62° | 37km/h | 16118m | -3.7m/s | -51.7°C | 5.8% | 106.7hPa | 2.7V | 08:30:00 | 02:00:20 | 00:00:00 | |
| AA1-15 | 2026-08-30 06:17:33 | 52.45219 | 15.07048 | 53° | 37km/h | 16103m | -3.8m/s | -51.7°C | 2.3% | 107hPa | 2.7V | 18:12:15 | 02:00:24 | 00:00:00 | |
| DL1XH-west | 2026-08-30 06:17:30 | 52.45204 | 15.07011 | 60° | 37km/h | 16115m | -3.7m/s | -51.8°C | 2.1% | 106.8hPa | 2.6V | 18:12:15 | 02:00:21 | 00:00:00 | |
| DF8AY | 2026-08-30 06:17:26 | 52.45189 | 15.06955 | 73° | 38km/h | 16129m | -3.7m/s | -51.5°C | 2.3% | 106.5hPa | 2.5V | 18:12:15 | 02:00:17 | 00:00:00 | |
| DB0DAN | 2026-08-30 06:17:25 | 52.45186 | 15.06940 | 76° | 37km/h | 16133m | -3.7m/s | -51.5°C | 2.4% | 106.51hPa | 2.6V | 00:00:00 | 00:00:00 | 00:00:00 | |
| DM0DOS-11 | 2026-08-30 06:17:24 | 52.45185 | 15.06853 | 101° | 29km/h | 16157m | -4.2m/s | -50.8°C | 6.1% | 106.1hPa | 2.5V | 08:30:00 | 02:00:10 | 00:00:00 | |
| AA1-15 | 2026-08-30 06:17:22 | 52.45183 | 15.06894 | 88° | 37km/h | 16145m | -3.7m/s | -51.2°C | 2.9% | 106.3hPa | 2.7V | 18:12:15 | 02:00:13 | 00:00:00 | |
| DL1XH-west | 2026-08-30 06:17:19 | 52.45185 | 15.06853 | 102° | 29km/h | 16157m | -4.2m/s | -50.8°C | 2.9% | 106.1hPa | 2.5V | 18:12:15 | 02:00:10 | 00:00:00 | |
| SQ2ODE-11 | 2026-08-30 06:17:17 | 52.45186 | 15.06842 | 107° | 27km/h | 16161m | -4.3m/s | -50.7°C | 2.5% | 106.0hPa | 2.7V | 00:00:00 | 00:00:00 | 00:00:00 | |
| DL1XH1-15 | 2026-08-30 06:17:15 | 52.45197 | 15.06792 | 68° | 9km/h | 16194m | -3.7m/s | -50.6°C | 5.8% | 105.4hPa | 2.7V | 08:30:00 | 02:00:01 | 00:00:00 | |
| DM0DOS-11 | 2026-08-30 06:17:14 | 52.45196 | 15.06788 | 56° | 11km/h | 16197m | -3.6m/s | -50.8°C | 5.9% | 105.4hPa | 2.6V | 08:30:00 | 02:00:00 | 00:00:00 | |
| DF8AY | 2026-08-30 06:17:14 | 52.45195 | 15.06810 | 118° | 15km/h | 16178m | -4.3m/s | -50.3°C | 2.7% | 105.7hPa | 2.5V | 18:12:15 | 02:00:05 | 00:00:00 | |
| AA1-15 | 2026-08-30 06:17:11 | 52.45198 | 15.06796 | 84° | 9km/h | 16190m | -4m/s | -50.5°C | 2.7% | 105.5hPa | 2.7V | 18:12:15 | 02:00:02 | 00:00:00 | |
| DB0DAN | 2026-08-30 06:17:10 | 52.45197 | 15.06792 | 68° | 9km/h | 16194m | -3.7m/s | -50.6°C | 2.4% | 105.45hPa | 2.7V | 00:00:00 | 00:00:00 | 00:00:00 | |
| DL1XH-west | 2026-08-30 06:17:08 | 52.45194 | 15.06785 | 49° | 13km/h | 16201m | -3.7m/s | -50.8°C | 2.7% | 105.3hPa | 2.6V | 18:12:15 | 01:59:59 | 00:00:00 | |
| OE3JTB-15 | 2026-08-30 06:17:07 | 52.45192 | 15.06781 | 43° | 16km/h | 16205m | -3.7m/s | -50.7°C | 6.0% | 105.2hPa | 2.7V | 00:00:00 | 00:00:00 | 00:00:00 | |
| DL1XH1-15 | 2026-08-30 06:17:05 | 52.45171 | 15.06758 | 30° | 15km/h | 16232m | -4.2m/s | -50.6°C | 6% | 104.8hPa | 2.7V | 08:30:00 | 01:59:51 | 00:00:00 | |
| DM0DOS-11 | 2026-08-30 06:17:04 | 52.45168 | 15.06754 | 30° | 15km/h | 16237m | -4.1m/s | -50.6°C | 6% | 104.8hPa | 2.5V | 08:30:00 | 01:59:50 | 00:00:00 | |
| DF8AY | 2026-08-30 06:17:01 | 52.45175 | 15.06761 | 32° | 15km/h | 16228m | -4m/s | -50.7°C | 2.8% | 104.9hPa | 2.7V | 18:12:15 | 01:59:52 | 00:00:00 | |
| AA1-15 | 2026-08-30 06:17:00 | 52.45172 | 15.06758 | 31° | 15km/h | 16232m | -4.2m/s | -50.6°C | 2.9% | 104.8hPa | 2.7V | 18:12:15 | 01:59:51 | 00:00:00 | |
| DL1XH-west | 2026-08-30 06:16:58 | 52.45165 | 15.06751 | 30° | 16km/h | 16241m | -3.9m/s | -50.6°C | 2.8% | 104.7hPa | 2.6V | 18:12:15 | 01:59:49 | 00:00:00 | |
| KRY50SP-1 | 2026-08-30 06:16:57 | 52.45165 | 15.06751 | 30° | 16km/h | 16241m | -3.9m/s | -50.6°C | 2.5% | 104.7hPa | 2.7V | 00:00:00 | 00:00:00 | 00:00:00 | |
| DAC517 | 2026-08-30 06:16:56 | 52.45161 | 15.06748 | 30° | 16km/h | 16245m | -4.0m/s | -50.6°C | 2.5% | 104.7hPa | 2.7V | 00:00:00 | 00:00:00 | 00:00:00 | |
| DL1XH1-15 | 2026-08-30 06:16:55 | 52.45136 | 15.06727 | 23° | 16km/h | 16272m | -3.9m/s | -50.4°C | 5.4% | 104.2hPa | 2.7V | 08:30:00 | 01:59:41 | 00:00:00 | |
| DB0DAN | 2026-08-30 06:16:55 | 52.45154 | 15.06742 | 28° | 15km/h | 16253m | -3.9m/s | -50.6°C | 2.4% | 104.48hPa | 2.7V | 00:00:00 | 00:00:00 | 00:00:00 | |
| DM0DOS-11 | 2026-08-30 06:16:54 | 52.45133 | 15.06724 | 23° | 16km/h | 16276m | -3.9m/s | -50.5°C | 5.5% | 104.1hPa | 2.7V | 08:30:00 | 01:59:40 | 00:00:00 | |
| DF8AY | 2026-08-30 06:16:49 | 52.45133 | 15.06724 | 24° | 16km/h | 16276m | -3.9m/s | -50.5°C | 2.4% | 104.1hPa | 2.7V | 18:12:15 | 01:59:40 | 00:00:00 | |
| DL1XH-west | 2026-08-30 06:16:47 | 52.45125 | 15.06719 | 24° | 16km/h | 16284m | -4m/s | -50.6°C | 2.3% | 104hPa | 2.6V | 18:12:15 | 01:59:38 | 00:00:00 | |
| 13BRC | 2026-08-30 06:16:47 | 52.45125 | 15.06719 | 25° | 16km/h | 16284m | -4.0m/s | -50.6°C | 2.2% | 104.0hPa | 2.7V | 00:00:00 | 00:00:00 | 00:00:00 | |
| KRY50SP-1 | 2026-08-30 06:16:46 | 52.45125 | 15.06719 | 25° | 16km/h | 16284m | -4.0m/s | -50.6°C | 2.2% | 104.0hPa | 2.7V | 00:00:00 | 00:00:00 | 00:00:00 | |
| DL1XH1-15 | 2026-08-30 06:16:45 | 52.45099 | 15.06698 | 27° | 18km/h | 16311m | -3.6m/s | -51.1°C | 5.7% | 103.6hPa | 2.7V | 08:30:00 | 01:59:31 | 00:00:00 | |
| DM0DOS-11 | 2026-08-30 06:16:44 | 52.45095 | 15.06695 | 27° | 18km/h | 16315m | -3.8m/s | -51.1°C | 5.7% | 103.5hPa | 2.7V | 08:30:00 | 01:59:30 | 00:00:00 | |
| DL2RXE-15 | 2026-08-30 06:16:42 | 52.45111 | 15.06708 | 28° | 16km/h | 16300m | -3.7m/s | -50.9°C | 2.2% | 103.8hPa | 2.7V | 00:00:00 | 00:00:00 | 00:00:00 | |
| DB0DAN | 2026-08-30 06:16:40 | 52.45099 | 15.06698 | 27° | 18km/h | 16311m | -3.6m/s | -51.1°C | 2.2% | 103.58hPa | 2.7V | 00:00:00 | 00:00:00 | 00:00:00 | |
| DF8AY | 2026-08-30 06:16:38 | 52.45091 | 15.06691 | 28° | 20km/h | 16319m | -4m/s | -51.2°C | 2.4% | 103.5hPa | 2.6V | 18:12:15 | 01:59:29 | 00:00:00 | |
| DL1XH-west | 2026-08-30 06:16:36 | 52.45082 | 15.06683 | 27° | 20km/h | 16327m | -4m/s | -51.2°C | 2.7% | 103.3hPa | 2.6V | 18:12:15 | 01:59:27 | 00:00:00 | |
| DL1XH1-15 | 2026-08-30 06:16:35 | 52.45052 | 15.06664 | 17° | 24km/h | 16351m | -4.1m/s | -51.1°C | 6.2% | 102.9hPa | 2.6V | 08:30:00 | 01:59:21 | 00:00:00 | |
| DM0DOS-11 | 2026-08-30 06:16:34 | 52.45046 | 15.06661 | 16° | 26km/h | 16355m | -3.9m/s | -51°C | 6.2% | 102.9hPa | 2.7V | 08:30:00 | 01:59:20 | 00:00:00 | |
| AA1-15 | 2026-08-30 06:16:28 | 52.45040 | 15.06657 | 17° | 27km/h | 16359m | -4.3m/s | -51°C | 3% | 102.8hPa | 2.7V | 18:12:15 | 01:59:19 | 00:00:00 | |
| DF8AY | 2026-08-30 06:16:27 | 52.45033 | 15.06654 | 18° | 29km/h | 16363m | -4.2m/s | -50.9°C | 2.9% | 102.7hPa | 2.7V | 18:12:15 | 01:59:18 | 00:00:00 | |
| DL1XH-west | 2026-08-30 06:16:26 | 52.45025 | 15.06650 | 19° | 31km/h | 16367m | -4.6m/s | -50.9°C | 2.9% | 102.7hPa | 2.5V | 18:12:15 | 01:59:17 | 00:00:00 | |
| DB0DAN | 2026-08-30 06:16:25 | 52.45018 | 15.06645 | 21° | 33km/h | 16371m | -4.4m/s | -50.9°C | 2.5% | 102.62hPa | 2.6V | 00:00:00 | 00:00:00 | 00:00:00 | |
| DM0DOS-11 | 2026-08-30 06:16:24 | 52.44966 | 15.06600 | 35° | 42km/h | 16396m | -4.3m/s | -51°C | 5.7% | 102.2hPa | 2.6V | 08:30:00 | 01:59:10 | 00:00:00 | |
| AA1-15 | 2026-08-30 06:16:17 | 52.44949 | 15.06579 | 42° | 42km/h | 16405m | -4.4m/s | -51.1°C | 2.7% | 102.1hPa | 2.7V | 18:12:15 | 01:59:08 | 00:00:00 | |
| DF8AY | 2026-08-30 06:16:16 | 52.44942 | 15.06567 | 45° | 42km/h | 16409m | -4m/s | -51.2°C | 2.6% | 102hPa | 2.7V | 18:12:15 | 01:59:07 | 00:00:00 | |
| DL1XH-west | 2026-08-30 06:16:15 | 52.44934 | 15.06555 | 47° | 40km/h | 16413m | -3.9m/s | -51.3°C | 2.6% | 101.9hPa | 2.6V | 18:12:15 | 01:59:06 | 00:00:00 | |
| DL1XH1-15 | 2026-08-30 06:16:14 | 52.44899 | 15.06481 | 56° | 35km/h | 16437m | -3.8m/s | -51.6°C | 6% | 101.6hPa | 2.6V | 08:30:00 | 01:59:00 | 00:00:00 | |
| SONDE2-11 | 2026-08-30 06:16:13 | 52.44921 | 15.06530 | 50° | 38km/h | 16421m | -4.0m/s | -51.5°C | 2.4% | 101.8hPa | 2.6V | 00:00:00 | 00:00:00 | 00:00:00 | |
| SQ2ODE-11 | 2026-08-30 06:16:12 | 52.44921 | 15.06530 | 52° | 38km/h | 16421m | -4.0m/s | -51.5°C | 2.4% | 101.8hPa | 2.6V | 00:00:00 | 00:00:00 | 00:00:00 | |
| DB0DAN | 2026-08-30 06:16:10 | 52.44904 | 15.06493 | 56° | 35km/h | 16433m | -3.8m/s | -51.6°C | 2.5% | 101.68hPa | 2.6V | 00:00:00 | 00:00:00 | 00:00:00 | |
| AA1-15 | 2026-08-30 06:16:06 | 52.44885 | 15.06443 | 59° | 37km/h | 16448m | -4.1m/s | -51.6°C | 2.8% | 101.4hPa | 2.7V | 18:12:15 | 01:58:57 | 00:00:00 | |
| DF8AY | 2026-08-30 06:16:05 | 52.44881 | 15.06430 | 59° | 37km/h | 16452m | -4.2m/s | -51.6°C | 2.9% | 101.3hPa | 2.6V | 18:12:15 | 01:58:56 | 00:00:00 | |
| DL1XH-west | 2026-08-30 06:16:04 | 52.44876 | 15.06417 | 59° | 37km/h | 16456m | -4m/s | -51.6°C | 2.9% | 101.3hPa | 2.6V | 18:12:15 | 01:58:55 | 00:00:00 | |
| AA1-15 | 2026-08-30 06:15:55 | 52.44825 | 15.06294 | 58° | 42km/h | 16493m | -4m/s | -51.7°C | 3.1% | 100.7hPa | 2.7V | 18:12:15 | 01:58:46 | 00:00:00 | |
| DB0DAN | 2026-08-30 06:15:55 | 52.44825 | 15.06294 | 58° | 40km/h | 16493m | -4m/s | -51.7°C | 2.6% | 100.71hPa | 2.7V | 00:00:00 | 00:00:00 | 00:00:00 | |
| DL1XH1-15 | 2026-08-30 06:15:54 | 52.44799 | 15.06209 | 69° | 35km/h | 16517m | -4m/s | -51.5°C | 6.4% | 100.3hPa | 2.7V | 08:30:00 | 01:58:40 | 00:00:00 | |
| DL1XH-west | 2026-08-30 06:15:54 | 52.44820 | 15.06280 | 60° | 40km/h | 16497m | -4.4m/s | -51.7°C | 3.1% | 100.6hPa | 2.7V | 18:12:15 | 01:58:45 | 00:00:00 | |
| SONDE2-12 | 2026-08-30 06:15:51 | 52.44799 | 15.06209 | 69° | 35km/h | 16518m | -4.1m/s | -51.5°C | 3.3% | 100.3hPa | 2.7V | 00:00:00 | 00:00:00 | 00:00:00 | |
| DF8AY | 2026-08-30 06:15:49 | 52.44799 | 15.06209 | 69° | 35km/h | 16517m | -4.1m/s | -51.5°C | 3.1% | 100.3hPa | 2.7V | 18:12:15 | 01:58:40 | 00:00:00 | |
| AA1-15 | 2026-08-30 06:15:45 | 52.44790 | 15.06157 | 78° | 29km/h | 16534m | -4.1m/s | -51.5°C | 3.1% | 100.1hPa | 2.7V | 18:12:15 | 01:58:36 | 00:00:00 | |
| DL1XH-west | 2026-08-30 06:15:43 | 52.44787 | 15.06135 | 80° | 26km/h | 16542m | -4.3m/s | -51.5°C | 3% | 100hPa | 2.6V | 18:12:15 | 01:58:34 | 00:00:00 | |
| SONDE2-11 | 2026-08-30 06:15:42 | 52.44786 | 15.06125 | 79° | 22km/h | 16546m | -4.3m/s | -51.5°C | 2.5% | 99.9hPa | 2.7V | 00:00:00 | 00:00:00 | 00:00:00 | |
| DL2RXE-15 | 2026-08-30 06:15:41 | 52.44786 | 15.06125 | 81° | 24km/h | 16546m | -4.3m/s | -51.5°C | 2.5% | 99.9hPa | 2.7V | 00:00:00 | 00:00:00 | 00:00:00 | |
| DB0DAN | 2026-08-30 06:15:40 | 52.44784 | 15.06107 | 77° | 18km/h | 16555m | -4.1m/s | -51.5°C | 2.4% | 99.76hPa | 2.7V | 00:00:00 | 00:00:00 | 00:00:00 | |
| KRY50SP-1 | 2026-08-30 06:15:39 | 52.44784 | 15.06107 | 78° | 20km/h | 16555m | -4.1m/s | -51.5°C | 2.4% | 99.8hPa | 2.7V | 00:00:00 | 00:00:00 | 00:00:00 | |
| D01LWL | 2026-08-30 06:15:38 | 52.44782 | 15.06093 | 69° | 15km/h | 16563m | -3.9m/s | -51.5°C | 2.3% | 99.6hPa | 2.7V | 00:00:00 | 00:00:00 | 00:00:00 | |
| SQ2ODE-11 | 2026-08-30 06:15:37 | 52.44781 | 15.06093 | 70° | 16km/h | 16563m | -3.9m/s | -51.5°C | 2.3% | 99.6hPa | 2.7V | 00:00:00 | 00:00:00 | 00:00:00 | |
| DL1XH1-15 | 2026-08-30 06:15:34 | 52.44756 | 15.06051 | 33° | 20km/h | 16600m | -4.1m/s | -52.1°C | 6.2% | 99hPa | 2.7V | 08:30:00 | 01:58:20 | 00:00:00 | |
| AA1-15 | 2026-08-30 06:15:34 | 52.44773 | 15.06072 | 45° | 15km/h | 16580m | -4.2m/s | -51.7°C | 2.6% | 99.3hPa | 2.7V | 18:12:15 | 01:58:25 | 00:00:00 | |
| DL1XH-west | 2026-08-30 06:15:32 | 52.44767 | 15.06064 | 37° | 16km/h | 16588m | -4.1m/s | -51.8°C | 2.6% | 99.2hPa | 2.6V | 18:12:15 | 01:58:23 | 00:00:00 | |
| DF8AY | 2026-08-30 06:15:31 | 52.44764 | 15.06060 | 35° | 18km/h | 16592m | -4.2m/s | -51.9°C | 2.7% | 99.2hPa | 2.6V | 18:12:15 | 01:58:22 | 00:00:00 | |
| KRY50SP-1 | 2026-08-30 06:15:28 | 52.44756 | 15.06051 | 34° | 20km/h | 16600m | -4.1m/s | -52.1°C | 2.4% | 99.0hPa | 2.6V | 00:00:00 | 00:00:00 | 00:00:00 | |
| SONCRA | 2026-08-30 06:15:27 | 52.44747 | 15.06041 | 33° | 22km/h | 16609m | -3.9m/s | -52.1°C | 2.4% | 98.9hPa | 2.6V | 00:00:00 | 00:00:00 | 00:00:00 | |
| DB0DAN | 2026-08-30 06:15:25 | 52.44737 | 15.06030 | 33° | 22km/h | 16616m | -3.9m/s | -52°C | 2.4% | 98.79hPa | 2.6V | 00:00:00 | 00:00:00 | 00:00:00 | |
| DL1XH1-15 | 2026-08-30 06:15:24 | 52.44708 | 15.05999 | 32° | 22km/h | 16641m | -3.9m/s | -51.9°C | 6.5% | 98.4hPa | 2.7V | 08:30:00 | 01:58:10 | 00:00:00 | |
| AA1-15 | 2026-08-30 06:15:23 | 52.44727 | 15.06020 | 34° | 24km/h | 16624m | -3.9m/s | -52°C | 2.7% | 98.7hPa | 2.7V | 18:12:15 | 01:58:14 | 00:00:00 | |
| DL1XH-west | 2026-08-30 06:15:21 | 52.44717 | 15.06009 | 33° | 22km/h | 16633m | -4m/s | -52°C | 2.8% | 98.6hPa | 2.6V | 18:12:15 | 01:58:12 | 00:00:00 | |
| DF8AY | 2026-08-30 06:15:20 | 52.44713 | 15.06004 | 33° | 22km/h | 16637m | -4.1m/s | -51.9°C | 3% | 98.5hPa | 2.6V | 18:12:15 | 01:58:11 | 00:00:00 | |
| SONDE2-12 | 2026-08-30 06:15:20 | 52.44708 | 15.05999 | 32° | 20km/h | 16641m | -3.9m/s | -51.9°C | 3.2% | 98.4hPa | 2.7V | 00:00:00 | 00:00:00 | 00:00:00 | |
| SQ2ODE-11 | 2026-08-30 06:15:19 | 52.44713 | 15.06004 | 34° | 22km/h | 16637m | -4.1m/s | -51.9°C | 2.6% | 98.5hPa | 2.7V | 00:00:00 | 00:00:00 | 00:00:00 | |
| MECKS9 | 2026-08-30 06:15:17 | 52.44704 | 15.05995 | 32° | 20km/h | 16645m | -4.0m/s | -51.9°C | 2.7% | 98.4hPa | 2.7V | 00:00:00 | 00:00:00 | 00:00:00 | |
| KRY50SP-1 | 2026-08-30 06:15:16 | 52.44699 | 15.05990 | 30° | 20km/h | 16649m | -3.8m/s | -51.7°C | 2.7% | 98.3hPa | 2.7V | 00:00:00 | 00:00:00 | 00:00:00 | |
| DL1XH1-15 | 2026-08-30 06:15:14 | 52.44652 | 15.05953 | 30° | 35km/h | 16682m | -4.3m/s | -51.3°C | 6% | 97.8hPa | 2.7V | 08:30:00 | 01:58:00 | 00:00:00 | |
| AA1-15 | 2026-08-30 06:15:12 | 52.44673 | 15.05971 | 24° | 27km/h | 16669m | -4.3m/s | -51.5°C | 3% | 98hPa | 2.6V | 18:12:15 | 01:58:03 | 00:00:00 | |
| DL1XH-west | 2026-08-30 06:15:11 | 52.44666 | 15.05966 | 26° | 29km/h | 16673m | -4.5m/s | -51.4°C | 2.9% | 97.9hPa | 2.6V | 18:12:15 | 01:58:02 | 00:00:00 | |
| DF8AY | 2026-08-30 06:15:10 | 52.44659 | 15.05960 | 28° | 33km/h | 16678m | -4.3m/s | -51.3°C | 2.9% | 97.8hPa | 2.7V | 18:12:15 | 01:58:01 | 00:00:00 | |
| DB0DAN | 2026-08-30 06:15:10 | 52.44659 | 15.05960 | 28° | 31km/h | 16678m | -4.3m/s | -51.3°C | 2.5% | 97.83hPa | 2.7V | 00:00:00 | 00:00:00 | 00:00:00 | |
| AA1-15 | 2026-08-30 06:15:01 | 52.44591 | 15.05853 | 59° | 46km/h | 16718m | -4.6m/s | -51.3°C | 2.6% | 97.3hPa | 2.6V | 18:12:15 | 01:57:52 | 00:00:00 | |
| DL1XH-west | 2026-08-30 06:15:00 | 52.44585 | 15.05837 | 63° | 46km/h | 16722m | -4.3m/s | -51.3°C | 2.5% | 97.2hPa | 2.6V | 18:12:15 | 01:57:51 | 00:00:00 | |
| SONCRA | 2026-08-30 06:14:56 | 52.44570 | 15.05772 | 74° | 38km/h | 16740m | -4.3m/s | -51.5°C | 2.2% | 96.9hPa | 2.6V | 00:00:00 | 00:00:00 | 00:00:00 | |
| DB0DAN | 2026-08-30 06:14:55 | 52.44568 | 15.05757 | 75° | 35km/h | 16744m | -4.3m/s | -51.6°C | 2.2% | 96.88hPa | 2.6V | 00:00:00 | 00:00:00 | 00:00:00 | |
| DF8AY | 2026-08-30 06:14:54 | 52.44553 | 15.05679 | 66° | 29km/h | 16769m | -3.9m/s | -52.1°C | 2.1% | 96.5hPa | 2.6V | 18:12:15 | 01:57:40 | 00:00:00 | |
| DL1XH-west | 2026-08-30 06:14:50 | 52.44556 | 15.05691 | 69° | 29km/h | 16765m | -3.9m/s | -52.1°C | 2% | 96.6hPa | 2.6V | 18:12:15 | 01:57:41 | 00:00:00 | |
| SONDE2-12 | 2026-08-30 06:14:49 | 52.44550 | 15.05669 | 62° | 27km/h | 16773m | -3.7m/s | -52.2°C | 2.6% | 96.4hPa | 2.6V | 00:00:00 | 00:00:00 | 00:00:00 | |
| DL1XH-west | 2026-08-30 06:14:40 | 52.44514 | 15.05604 | 36° | 29km/h | 16805m | -4.3m/s | -52.2°C | 3.2% | 96hPa | 2.6V | 18:12:15 | 01:57:31 | 00:00:00 | |
| DB0DAN | 2026-08-30 06:14:40 | 52.44514 | 15.05604 | 36° | 27km/h | 16805m | -4.3m/s | -52.2°C | 2.7% | 95.97hPa | 2.6V | 00:00:00 | 00:00:00 | 00:00:00 | |
| AA1-15 | 2026-08-30 06:14:39 | 52.44508 | 15.05597 | 35° | 31km/h | 16809m | -4.2m/s | -52.2°C | 3.2% | 95.9hPa | 2.6V | 18:12:15 | 01:57:30 | 00:00:00 | |
| DL1XH-west | 2026-08-30 06:14:30 | 52.44439 | 15.05525 | 33° | 42km/h | 16845m | -3.8m/s | -51.9°C | 2.9% | 95.4hPa | 2.7V | 18:12:15 | 01:57:21 | 00:00:00 | |
| AA1-15 | 2026-08-30 06:14:29 | 52.44430 | 15.05515 | 33° | 44km/h | 16850m | -4.1m/s | -51.9°C | 3% | 95.3hPa | 2.7V | 18:12:15 | 01:57:20 | 00:00:00 | |
| DF8AY | 2026-08-30 06:14:28 | 52.44420 | 15.05505 | 34° | 46km/h | 16854m | -4m/s | -51.9°C | 2.9% | 95.2hPa | 2.6V | 18:12:15 | 01:57:19 | 00:00:00 | |
| DL1XH1-15 | 2026-08-30 06:14:26 | 52.44401 | 15.05482 | 36° | 47km/h | 16862m | -3.8m/s | -52°C | 6.2% | 95.1hPa | 2.6V | 08:30:00 | 01:57:17 | 00:00:00 | |
| DB0DAN | 2026-08-30 06:14:25 | 52.44391 | 15.05470 | 38° | 46km/h | 16865m | -4m/s | -52°C | 2.6% | 95.05hPa | 2.7V | 00:00:00 | 00:00:00 | 00:00:00 | |
| DL1XH-west | 2026-08-30 06:14:20 | 52.44343 | 15.05402 | 44° | 53km/h | 16886m | -4.2m/s | -52.1°C | 3.3% | 94.8hPa | 2.7V | 18:12:15 | 01:57:11 | 00:00:00 | |
| AA1-15 | 2026-08-30 06:14:18 | 52.44324 | 15.05371 | 45° | 55km/h | 16894m | -4m/s | -52.1°C | 3.4% | 94.6hPa | 2.6V | 18:12:15 | 01:57:09 | 00:00:00 | |
| SONDE2-12 | 2026-08-30 06:14:18 | 52.44314 | 15.05355 | 46° | 55km/h | 16898m | -4.1m/s | -52.1°C | 3.4% | 94.6hPa | 2.6V | 00:00:00 | 00:00:00 | 00:00:00 | |
| DF8AY | 2026-08-30 06:14:17 | 52.44314 | 15.05355 | 46° | 55km/h | 16898m | -4.1m/s | -52.1°C | 3.3% | 94.6hPa | 2.6V | 18:12:15 | 01:57:08 | 00:00:00 | |
| DM0DOS-11 | 2026-08-30 06:14:16 | 52.44275 | 15.05287 | 47° | 57km/h | 16915m | -4.4m/s | -52.1°C | 6.4% | 94.3hPa | 2.6V | 08:30:00 | 01:57:04 | 00:00:00 | |
| DL1XH1-15 | 2026-08-30 06:14:16 | 52.44304 | 15.05338 | 46° | 57km/h | 16902m | -4.1m/s | -52.1°C | 6.4% | 94.5hPa | 2.7V | 08:30:00 | 01:57:07 | 00:00:00 | |
| POL1PZ | 2026-08-30 06:14:13 | 52.44275 | 15.05287 | 48° | 57km/h | 16915m | -4.4m/s | -52.1°C | 2.6% | 94.3hPa | 2.7V | 00:00:00 | 00:00:00 | 00:00:00 | |
| KRY50SP-1 | 2026-08-30 06:14:12 | 52.44275 | 15.05287 | 48° | 57km/h | 16915m | -4.4m/s | -52.1°C | 2.6% | 94.3hPa | 2.7V | 00:00:00 | 00:00:00 | 00:00:00 | |
| DB0DAN | 2026-08-30 06:14:10 | 52.44245 | 15.05235 | 47° | 55km/h | 16927m | -4.2m/s | -52.3°C | 2.7% | 94.16hPa | 2.7V | 00:00:00 | 00:00:00 | 00:00:00 | |
| DL1XH-west | 2026-08-30 06:14:09 | 52.44236 | 15.05217 | 48° | 57km/h | 16932m | -4.4m/s | -52.4°C | 3.2% | 94.1hPa | 2.7V | 18:12:15 | 01:57:00 | 00:00:00 | |
| AA1-15 | 2026-08-30 06:14:07 | 52.44217 | 15.05182 | 50° | 57km/h | 16940m | -4.2m/s | -52.4°C | 3.2% | 94hPa | 2.6V | 18:12:15 | 01:56:58 | 00:00:00 | |
| DF8AY | 2026-08-30 06:14:06 | 52.44167 | 15.05065 | 63° | 58km/h | 16965m | -4.2m/s | -52.4°C | 3.4% | 93.6hPa | 2.6V | 18:12:15 | 01:56:52 | 00:00:00 | |
| DM0DOS-11 | 2026-08-30 06:14:06 | 52.44182 | 15.05107 | 57° | 57km/h | 16957m | -4.4m/s | -52.5°C | 7% | 93.7hPa | 2.7V | 08:30:00 | 01:56:54 | 00:00:00 | |
| DL1XH1-15 | 2026-08-30 06:14:06 | 52.44207 | 15.05164 | 51° | 57km/h | 16944m | -4.1m/s | -52.4°C | 6.7% | 93.9hPa | 2.6V | 08:30:00 | 01:56:57 | 00:00:00 | |
| DL1XH-west | 2026-08-30 06:13:59 | 52.44155 | 15.05022 | 69° | 57km/h | 16974m | -4.5m/s | -52.3°C | 3.5% | 93.5hPa | 2.6V | 18:12:15 | 01:56:50 | 00:00:00 | |
| DL1XH1-15 | 2026-08-30 06:13:56 | 52.44143 | 15.04958 | 76° | 51km/h | 16988m | -4.8m/s | -52.1°C | 6.8% | 93.2hPa | 2.7V | 08:30:00 | 01:56:47 | 00:00:00 | |
| AA1-15 | 2026-08-30 06:13:56 | 52.44143 | 15.04958 | 77° | 51km/h | 16988m | -4.8m/s | -52.2°C | 3.4% | 93.2hPa | 2.7V | 18:12:15 | 01:56:47 | 00:00:00 | |
| DB0DAN | 2026-08-30 06:13:55 | 52.44141 | 15.04938 | 79° | 44km/h | 16993m | -4.9m/s | -52.2°C | 2.8% | 93.19hPa | 2.6V | 00:00:00 | 00:00:00 | 00:00:00 | |
| DL1XH-west | 2026-08-30 06:13:48 | 52.44124 | 15.04848 | 49° | 26km/h | 17026m | -4.5m/s | -52°C | 3.2% | 92.7hPa | 2.7V | 18:12:15 | 01:56:39 | 00:00:00 | |
| SP3WXH-11 | 2026-08-30 06:13:47 | 52.44113 | 15.04832 | 38° | 31km/h | 17035m | -4.9m/s | -52.0°C | 2.7% | 92.6hPa | 2.7V | 00:00:00 | 00:00:00 | 00:00:00 | |
| DM0DOS-11 | 2026-08-30 06:13:46 | 52.44091 | 15.04802 | 40° | 46km/h | 17049m | -4.4m/s | -52°C | 6.4% | 92.4hPa | 2.7V | 08:30:00 | 01:56:34 | 00:00:00 | |
| DL1XH1-15 | 2026-08-30 06:13:46 | 52.44114 | 15.04832 | 38° | 31km/h | 17035m | -4.8m/s | -52°C | 6.4% | 92.6hPa | 2.6V | 08:30:00 | 01:56:37 | 00:00:00 | |
| AA1-15 | 2026-08-30 06:13:45 | 52.44107 | 15.04824 | 38° | 37km/h | 17040m | -4.6m/s | -52°C | 3.1% | 92.5hPa | 2.6V | 18:12:15 | 01:56:36 | 00:00:00 | |
| DF8AY | 2026-08-30 06:13:43 | 52.44091 | 15.04802 | 41° | 46km/h | 17049m | -4.4m/s | -52°C | 3.1% | 92.4hPa | 2.7V | 18:12:15 | 01:56:34 | 00:00:00 | |
| DL2RXE-15 | 2026-08-30 06:13:42 | 52.44082 | 15.04789 | 45° | 49km/h | 17054m | -4.4m/s | -51.8°C | 2.6% | 92.3hPa | 2.6V | 00:00:00 | 00:00:00 | 00:00:00 | |
| 13BRC | 2026-08-30 06:13:41 | 52.44082 | 15.04789 | 45° | 49km/h | 17054m | -4.4m/s | -51.8°C | 2.6% | 92.3hPa | 2.6V | 00:00:00 | 00:00:00 | 00:00:00 | |
| DB0DAN | 2026-08-30 06:13:40 | 52.44064 | 15.04756 | 52° | 55km/h | 17062m | -4.7m/s | -51.8°C | 2.6% | 92.18hPa | 2.6V | 00:00:00 | 00:00:00 | 00:00:00 | |
| DL1XH-west | 2026-08-30 06:13:37 | 52.44040 | 15.04693 | 64° | 62km/h | 17077m | -5.1m/s | -51.7°C | 3.2% | 92hPa | 2.7V | 18:12:15 | 01:56:28 | 00:00:00 | |
| DM0DOS-11 | 2026-08-30 06:13:36 | 52.44022 | 15.04600 | 81° | 55km/h | 17097m | -4.9m/s | -51.7°C | 6.6% | 91.7hPa | 2.6V | 08:30:00 | 01:56:24 | 00:00:00 | |
| DL1XH1-15 | 2026-08-30 06:13:36 | 52.44033 | 15.04670 | 68° | 62km/h | 17082m | -4.9m/s | -51.7°C | 6.6% | 91.9hPa | 2.7V | 08:30:00 | 01:56:27 | 00:00:00 | |
| AA1-15 | 2026-08-30 06:13:34 | 52.44024 | 15.04623 | 78° | 58km/h | 17091m | -5m/s | -51.7°C | 3.3% | 91.8hPa | 2.6V | 18:12:15 | 01:56:25 | 00:00:00 | |
| DF8AY | 2026-08-30 06:13:32 | 52.44020 | 15.04578 | 86° | 53km/h | 17101m | -5m/s | -51.6°C | 3.3% | 91.6hPa | 2.6V | 18:12:15 | 01:56:23 | 00:00:00 | |
| DL1XH1-15 | 2026-08-30 06:13:31 | 52.44016 | 15.04486 | 68° | 24km/h | 17130m | -4.9m/s | -51.7°C | 6.3% | 91.2hPa | 2.6V | 08:30:00 | 01:56:17 | 00:00:00 | |
| DAC517 | 2026-08-30 06:13:29 | 52.44019 | 15.04538 | 91° | 42km/h | 17111m | -4.9m/s | -51.6°C | 2.6% | 91.5hPa | 2.7V | 00:00:00 | 00:00:00 | 00:00:00 | |
| DM0DOS-11 | 2026-08-30 06:13:26 | 52.44004 | 15.04460 | 42° | 31km/h | 17145m | -5m/s | -51.8°C | 6.3% | 91hPa | 2.7V | 08:30:00 | 01:56:14 | 00:00:00 | |
| DL1XH-west | 2026-08-30 06:13:26 | 52.44016 | 15.04486 | 68° | 24km/h | 17130m | -4.9m/s | -51.7°C | 3.1% | 91.2hPa | 2.6V | 18:12:15 | 01:56:17 | 00:00:00 | |
| DB0DAN | 2026-08-30 06:13:25 | 52.44013 | 15.04477 | 57° | 24km/h | 17135m | -4.9m/s | -51.7°C | 2.6% | 91.16hPa | 2.7V | 00:00:00 | 00:00:00 | 00:00:00 | |
| AA1-15 | 2026-08-30 06:13:23 | 52.44004 | 15.04460 | 43° | 31km/h | 17145m | -5m/s | -51.8°C | 3.1% | 91hPa | 2.7V | 18:12:15 | 01:56:14 | 00:00:00 | |
| SONCRA | 2026-08-30 06:13:23 | 52.43998 | 15.04451 | 41° | 35km/h | 17150m | -5.2m/s | -51.7°C | 2.6% | 90.9hPa | 2.6V | 00:00:00 | 00:00:00 | 00:00:00 | |
| DL1XH1-15 | 2026-08-30 06:13:21 | 52.43950 | 15.04353 | 62° | 62km/h | 17177m | -4.5m/s | -51.6°C | 6.5% | 90.5hPa | 2.6V | 08:30:00 | 01:56:07 | 00:00:00 | |
| DF8AY | 2026-08-30 06:13:18 | 52.43965 | 15.04395 | 54° | 57km/h | 17169m | -4.1m/s | -51.8°C | 3.1% | 90.7hPa | 2.7V | 18:12:15 | 01:56:09 | 00:00:00 | |
| DM0DOS-11 | 2026-08-30 06:13:16 | 52.43933 | 15.04279 | 76° | 64km/h | 17192m | -5.1m/s | -51.7°C | 6.5% | 90.3hPa | 2.6V | 08:30:00 | 01:56:04 | 00:00:00 | |
| SONDE2-12 | 2026-08-30 06:13:16 | 52.43943 | 15.04329 | 67° | 64km/h | 17182m | -4.9m/s | -51.6°C | 3.3% | 90.5hPa | 2.7V | 00:00:00 | 00:00:00 | 00:00:00 | |
| DL1XH-west | 2026-08-30 06:13:15 | 52.43943 | 15.04329 | 67° | 64km/h | 17182m | -4.9m/s | -51.7°C | 3.2% | 90.5hPa | 2.7V | 18:12:15 | 01:56:06 | 00:00:00 | |
| AA1-15 | 2026-08-30 06:13:12 | 52.43930 | 15.04253 | 82° | 62km/h | 17197m | -5.2m/s | -51.6°C | 3.2% | 90.2hPa | 2.6V | 18:12:15 | 01:56:03 | 00:00:00 | |
| DB0DAN | 2026-08-30 06:13:10 | 52.43928 | 15.04205 | 90° | 53km/h | 17207m | -4.9m/s | -51.6°C | 2.7% | 90.13hPa | 2.7V | 00:00:00 | 00:00:00 | 00:00:00 | |
| KRY50SP-1 | 2026-08-30 06:13:09 | 52.43928 | 15.04205 | 91° | 55km/h | 17207m | -4.9m/s | -51.6°C | 2.7% | 90.1hPa | 2.7V | 00:00:00 | 00:00:00 | 00:00:00 | |
| DAC517 | 2026-08-30 06:13:08 | 52.43928 | 15.04183 | 95° | 49km/h | 17212m | -4.8m/s | -51.5°C | 2.6% | 90.0hPa | 2.7V | 00:00:00 | 00:00:00 | 00:00:00 | |
| SONDE2-11 | 2026-08-30 06:13:07 | 52.43931 | 15.04132 | 95° | 33km/h | 17226m | -4.8m/s | -51.3°C | 2.5% | 89.9hPa | 2.7V | 00:00:00 | 00:00:00 | 00:00:00 | |
| DM0DOS-11 | 2026-08-30 06:13:06 | 52.43928 | 15.04085 | 66° | 27km/h | 17246m | -4.9m/s | -51.3°C | 6% | 89.6hPa | 2.7V | 08:30:00 | 01:55:53 | 00:00:00 | |
| DL1XH-west | 2026-08-30 06:13:05 | 52.43932 | 15.04118 | 92° | 31km/h | 17231m | -4.8m/s | -51.3°C | 2.9% | 89.8hPa | 2.6V | 18:12:15 | 01:55:56 | 00:00:00 | |
| AA1-15 | 2026-08-30 06:13:01 | 52.43925 | 15.04075 | 60° | 29km/h | 17250m | -4.8m/s | -51.4°C | 2.8% | 89.5hPa | 2.6V | 18:12:15 | 01:55:52 | 00:00:00 | |
| EDDB2-11 | 2026-08-30 06:12:59 | 52.43915 | 15.04052 | 53° | 37km/h | 17260m | -4.6m/s | -51.4°C | 2.3% | 89.4hPa | 2.7V | 00:00:00 | 00:00:00 | 00:00:00 | |
| KRY50SP-1 | 2026-08-30 06:12:58 | 52.43916 | 15.04052 | 55° | 37km/h | 17260m | -4.6m/s | -51.4°C | 2.3% | 89.4hPa | 2.7V | 00:00:00 | 00:00:00 | 00:00:00 | |
| SQ2ODE-11 | 2026-08-30 06:12:57 | 52.43909 | 15.04039 | 54° | 40km/h | 17265m | -4.6m/s | -51.4°C | 2.2% | 89.3hPa | 2.7V | 00:00:00 | 00:00:00 | 00:00:00 | |
| DM0DOS-11 | 2026-08-30 06:12:56 | 52.43872 | 15.03938 | 65° | 51km/h | 17292m | -4.4m/s | -51.7°C | 5.7% | 89hPa | 2.7V | 08:30:00 | 01:55:43 | 00:00:00 | |
| DL1XH1-15 | 2026-08-30 06:12:56 | 52.43897 | 15.04009 | 55° | 46km/h | 17274m | -4.6m/s | -51.5°C | 5.7% | 89.2hPa | 2.7V | 08:30:00 | 01:55:47 | 00:00:00 | |
| DB0DAN | 2026-08-30 06:12:55 | 52.43890 | 15.03993 | 58° | 46km/h | 17278m | -4.6m/s | -51.5°C | 2.2% | 89.15hPa | 2.6V | 00:00:00 | 00:00:00 | 00:00:00 | |
| DL1XH-west | 2026-08-30 06:12:54 | 52.43884 | 15.03976 | 60° | 49km/h | 17283m | -5m/s | -51.6°C | 2.4% | 89.1hPa | 2.6V | 18:12:15 | 01:55:45 | 00:00:00 | |
| SONCRA | 2026-08-30 06:12:52 | 52.43867 | 15.03918 | 67° | 51km/h | 17296m | -4.5m/s | -51.8°C | 2.0% | 88.9hPa | 2.7V | 00:00:00 | 00:00:00 | 00:00:00 | |
| DL1XH1-15 | 2026-08-30 06:12:51 | 52.43849 | 15.03816 | 79° | 51km/h | 17318m | -4.1m/s | -51.9°C | 5.8% | 88.6hPa | 2.7V | 08:30:00 | 01:55:37 | 00:00:00 | |
| AA1-15 | 2026-08-30 06:12:50 | 52.43862 | 15.03898 | 71° | 51km/h | 17301m | -4.3m/s | -51.8°C | 2.3% | 88.9hPa | 2.7V | 18:12:15 | 01:55:41 | 00:00:00 | |
| DF8AY | 2026-08-30 06:12:48 | 52.43854 | 15.03857 | 76° | 51km/h | 17309m | -4.2m/s | -51.9°C | 2.3% | 88.7hPa | 2.6V | 18:12:15 | 01:55:39 | 00:00:00 | |
| KRY50SP-1 | 2026-08-30 06:12:47 | 52.43855 | 15.03857 | 77° | 51km/h | 17310m | -4.2m/s | -51.9°C | 2.1% | 88.7hPa | 2.7V | 00:00:00 | 00:00:00 | 00:00:00 | |
| DM0DOS-11 | 2026-08-30 06:12:46 | 52.43842 | 15.03731 | 83° | 51km/h | 17335m | -4.7m/s | -51.7°C | 6% | 88.4hPa | 2.7V | 08:30:00 | 01:55:33 | 00:00:00 | |
| SONDE2-12 | 2026-08-30 06:12:45 | 52.43845 | 15.03773 | 82° | 51km/h | 17327m | -4.3m/s | -51.7°C | 2.8% | 88.5hPa | 2.6V | 00:00:00 | 00:00:00 | 00:00:00 | |
| DL1XH-west | 2026-08-30 06:12:43 | 52.43843 | 15.03752 | 83° | 53km/h | 17331m | -4.3m/s | -51.7°C | 2.5% | 88.5hPa | 2.6V | 18:12:15 | 01:55:34 | 00:00:00 | |
| DL1XH1-15 | 2026-08-30 06:12:41 | 52.43834 | 15.03607 | 85° | 47km/h | 17362m | -4.4m/s | -51.3°C | 5.7% | 88hPa | 2.7V | 08:30:00 | 01:55:27 | 00:00:00 | |
| AA1-15 | 2026-08-30 06:12:39 | 52.43838 | 15.03668 | 85° | 51km/h | 17349m | -4.4m/s | -51.5°C | 2.3% | 88.2hPa | 2.6V | 18:12:15 | 01:55:30 | 00:00:00 | |
| DF8AY | 2026-08-30 06:12:38 | 52.43837 | 15.03647 | 85° | 49km/h | 17353m | -4.5m/s | -51.4°C | 2.3% | 88.2hPa | 2.6V | 18:12:15 | 01:55:29 | 00:00:00 | |
| DL1XH-west | 2026-08-30 06:12:32 | 52.43831 | 15.03527 | 88° | 49km/h | 17379m | -4.4m/s | -51.2°C | 2% | 87.8hPa | 2.6V | 18:12:15 | 01:55:23 | 00:00:00 | |
| AA1-15 | 2026-08-30 06:12:28 | 52.43831 | 15.03446 | 94° | 51km/h | 17397m | -4.7m/s | -51°C | 2% | 87.6hPa | 2.6V | 18:12:15 | 01:55:19 | 00:00:00 | |
| DF8AY | 2026-08-30 06:12:27 | 52.43832 | 15.03425 | 95° | 51km/h | 17402m | -4.8m/s | -51°C | 2% | 87.5hPa | 2.6V | 18:12:15 | 01:55:18 | 00:00:00 | |
| DL1XH1-15 | 2026-08-30 06:12:26 | 52.43834 | 15.03404 | 97° | 49km/h | 17407m | -4.5m/s | -51°C | 5.3% | 87.4hPa | 2.6V | 08:30:00 | 01:55:17 | 00:00:00 | |
| DF8AY | 2026-08-30 06:12:21 | 52.43872 | 15.03221 | 118° | 37km/h | 17458m | -4.6m/s | -51.2°C | 0.9% | 86.7hPa | 2.6V | 18:12:15 | 01:55:06 | 00:00:00 | |
| DL1XH-west | 2026-08-30 06:12:21 | 52.43847 | 15.03309 | 110° | 44km/h | 17430m | -4.5m/s | -50.9°C | 1.5% | 87.1hPa | 2.6V | 18:12:15 | 01:55:12 | 00:00:00 | |
| AA1-15 | 2026-08-30 06:12:17 | 52.43863 | 15.03248 | 118° | 38km/h | 17449m | -4.5m/s | -51.1°C | 1% | 86.9hPa | 2.7V | 18:12:15 | 01:55:08 | 00:00:00 | |
| SONDE2-12 | 2026-08-30 06:12:13 | 52.43881 | 15.03193 | 116° | 37km/h | 17468m | -4.9m/s | -51.4°C | 1.5% | 86.6hPa | 2.6V | 00:00:00 | 00:00:00 | 00:00:00 | |
| DL1XH-west | 2026-08-30 06:12:11 | 52.43889 | 15.03165 | 113° | 37km/h | 17477m | -4.4m/s | -51.5°C | 0.7% | 86.5hPa | 2.6V | 18:12:15 | 01:55:02 | 00:00:00 | |
| AA1-15 | 2026-08-30 06:12:06 | 52.43907 | 15.03090 | 112° | 42km/h | 17498m | -4.3m/s | -51.3°C | 0.8% | 86.2hPa | 2.6V | 18:12:15 | 01:54:57 | 00:00:00 | |
| DF8AY | 2026-08-30 06:12:05 | 52.43911 | 15.03074 | 114° | 42km/h | 17503m | -4.2m/s | -51.3°C | 0.8% | 86.2hPa | 2.6V | 18:12:15 | 01:54:56 | 00:00:00 | |
| SONDE2-11 | 2026-08-30 06:12:05 | 52.43915 | 15.03058 | 116° | 40km/h | 17507m | -4.8m/s | -51.3°C | 1.3% | 86.1hPa | 2.6V | 00:00:00 | 00:00:00 | 00:00:00 | |
| DM0DOS-11 | 2026-08-30 06:12:04 | 52.43942 | 15.02995 | 134° | 31km/h | 17531m | -4.9m/s | -51.3°C | 4.4% | 85.8hPa | 2.6V | 08:30:00 | 01:54:50 | 00:00:00 | |
| DL1XH-west | 2026-08-30 06:12:00 | 52.43937 | 15.03005 | 131° | 35km/h | 17526m | -5m/s | -51.3°C | 0.6% | 85.8hPa | 2.6V | 18:12:15 | 01:54:51 | 00:00:00 | |
| AA1-15 | 2026-08-30 06:11:55 | 52.43959 | 15.02970 | 138° | 15km/h | 17551m | -4.7m/s | -51.3°C | 0.7% | 85.5hPa | 2.6V | 18:12:15 | 01:54:46 | 00:00:00 | |
| DM0DOS-11 | 2026-08-30 06:11:54 | 52.43962 | 15.02946 | 68° | 15km/h | 17580m | -4.8m/s | -51.2°C | 4.3% | 85.1hPa | 2.6V | 08:30:00 | 01:54:40 | 00:00:00 | |
| KRY50SP-1 | 2026-08-30 06:11:53 | 52.43962 | 15.02966 | 130° | 11km/h | 17556m | -4.8m/s | -51.3°C | 1.2% | 85.4hPa | 2.7V | 00:00:00 | 00:00:00 | 00:00:00 | |
| DL1XH1-15 | 2026-08-30 06:11:51 | 52.43956 | 15.02924 | 72° | 22km/h | 17593m | -4.2m/s | -51.2°C | 4.3% | 85hPa | 2.7V | 08:30:00 | 01:54:37 | 00:00:00 | |
| DF8AY | 2026-08-30 06:11:51 | 52.43964 | 15.02955 | 83° | 9km/h | 17570m | -4.4m/s | -51.2°C | 0.6% | 85.3hPa | 2.7V | 18:12:15 | 01:54:42 | 00:00:00 | |
| DL1XH-west | 2026-08-30 06:11:50 | 52.43963 | 15.02951 | 70° | 11km/h | 17575m | -4.8m/s | -51.2°C | 0.6% | 85.2hPa | 2.7V | 18:12:15 | 01:54:41 | 00:00:00 | |
| AA1-15 | 2026-08-30 06:11:44 | 52.43953 | 15.02904 | 79° | 26km/h | 17603m | -4.4m/s | -51.3°C | 0.7% | 84.8hPa | 2.7V | 18:12:15 | 01:54:35 | 00:00:00 | |
| DC4HF-4 | 2026-08-30 06:11:42 | 52.43951 | 15.02870 | 93° | 27km/h | 17616m | -4.0m/s | -51.3°C | 1.2% | 84.7hPa | 2.7V | 00:00:00 | 00:00:00 | 00:00:00 | |
| DL1XH1-15 | 2026-08-30 06:11:41 | 52.43961 | 15.02807 | 118° | 33km/h | 17637m | -4.2m/s | -51.3°C | 4.5% | 84.4hPa | 2.7V | 08:30:00 | 01:54:27 | 00:00:00 | |
| DF8AY | 2026-08-30 06:11:40 | 52.43952 | 15.02858 | 94° | 31km/h | 17620m | -4.2m/s | -51.3°C | 0.6% | 84.7hPa | 2.7V | 18:12:15 | 01:54:31 | 00:00:00 | |
| DL1XH-west | 2026-08-30 06:11:39 | 52.43953 | 15.02845 | 103° | 33km/h | 17624m | -4.2m/s | -51.3°C | 0.7% | 84.6hPa | 2.7V | 18:12:15 | 01:54:30 | 00:00:00 | |
| AA1-15 | 2026-08-30 06:11:34 | 52.43971 | 15.02785 | 132° | 33km/h | 17646m | -4.8m/s | -51.3°C | 0.8% | 84.3hPa | 2.6V | 18:12:15 | 01:54:25 | 00:00:00 | |
| SONDE2-11 | 2026-08-30 06:11:34 | 52.43977 | 15.02776 | 138° | 29km/h | 17651m | -4.5m/s | -51.3°C | 1.3% | 84.2hPa | 2.7V | 00:00:00 | 00:00:00 | 00:00:00 | |
| EDDB2-12 | 2026-08-30 06:11:32 | 52.43983 | 15.02768 | 146° | 27km/h | 17656m | -4.7m/s | -51.3°C | 1.2% | 84.2hPa | 2.7V | 00:00:00 | 00:00:00 | 00:00:00 | |
| DL1XH1-15 | 2026-08-30 06:11:31 | 52.44016 | 15.02766 | 215° | 16km/h | 17686m | -5.1m/s | -51.4°C | 4.3% | 83.8hPa | 2.7V | 08:30:00 | 01:54:17 | 00:00:00 | |
| DL1XH-west | 2026-08-30 06:11:28 | 52.44007 | 15.02760 | 192° | 22km/h | 17675m | -5.7m/s | -51.4°C | 0.7% | 83.9hPa | 2.6V | 18:12:15 | 01:54:19 | 00:00:00 | |
| DF8AY | 2026-08-30 06:11:27 | 52.44012 | 15.02763 | 204° | 20km/h | 17681m | -5.3m/s | -51.4°C | 0.7% | 83.8hPa | 2.7V | 18:12:15 | 01:54:18 | 00:00:00 | |
| AA1-15 | 2026-08-30 06:11:23 | 52.44019 | 15.02778 | 305° | 9km/h | 17701m | -5m/s | -51.3°C | 0.7% | 83.6hPa | 2.6V | 18:12:15 | 01:54:14 | 00:00:00 | |
| DL1XH1-15 | 2026-08-30 06:11:21 | 52.44007 | 15.02750 | 98° | 26km/h | 17735m | -5m/s | -51.3°C | 4.4% | 83.1hPa | 2.6V | 08:30:00 | 01:54:07 | 00:00:00 | |
| DL1XH-west | 2026-08-30 06:11:18 | 52.44008 | 15.02769 | 73° | 20km/h | 17726m | -5m/s | -51.3°C | 0.7% | 83.3hPa | 2.6V | 18:12:15 | 01:54:09 | 00:00:00 | |
| DF8AY | 2026-08-30 06:11:17 | 52.44007 | 15.02760 | 86° | 24km/h | 17731m | -5m/s | -51.3°C | 0.7% | 83.2hPa | 2.6V | 18:12:15 | 01:54:08 | 00:00:00 | |
| AA1-15 | 2026-08-30 06:11:12 | 52.44022 | 15.02712 | 147° | 27km/h | 17755m | -5.1m/s | -51.5°C | 0.8% | 82.9hPa | 2.6V | 18:12:15 | 01:54:03 | 00:00:00 | |
| SONDE2-12 | 2026-08-30 06:11:11 | 52.44028 | 15.02707 | 159° | 27km/h | 17760m | -5.1m/s | -51.5°C | 1.5% | 82.8hPa | 2.6V | 00:00:00 | 00:00:00 | 00:00:00 | |
| DL1XH-west | 2026-08-30 06:11:07 | 52.44052 | 15.02708 | 207° | 24km/h | 17781m | -5.4m/s | -51.7°C | 0.7% | 82.6hPa | 2.6V | 18:12:15 | 01:53:58 | 00:00:00 | |
| DL1XH1-15 | 2026-08-30 06:11:06 | 52.44057 | 15.02714 | 227° | 22km/h | 17786m | -5.5m/s | -51.8°C | 4.4% | 82.5hPa | 2.6V | 08:30:00 | 01:53:57 | 00:00:00 | |
| DF8AY | 2026-08-30 06:11:06 | 52.44057 | 15.02714 | 227° | 22km/h | 17786m | -5.5m/s | -51.8°C | 0.8% | 82.5hPa | 2.6V | 18:12:15 | 01:53:57 | 00:00:00 | |
| AA1-15 | 2026-08-30 06:11:01 | 52.44055 | 15.02746 | 337° | 15km/h | 17812m | -5.1m/s | -52°C | 0.7% | 82.1hPa | 2.6V | 18:12:15 | 01:53:52 | 00:00:00 | |
| D01LWL | 2026-08-30 06:10:59 | 52.44047 | 15.02746 | 18° | 15km/h | 17822m | -4.9m/s | -52.1°C | 1.2% | 82.0hPa | 2.7V | 00:00:00 | 00:00:00 | 00:00:00 | |
| KRY50SP-1 | 2026-08-30 06:10:58 | 52.44047 | 15.02746 | 19° | 15km/h | 17822m | -4.9m/s | -52.1°C | 1.2% | 82.0hPa | 2.7V | 00:00:00 | 00:00:00 | 00:00:00 | |
| DM0DOS-11 | 2026-08-30 06:10:56 | 52.44049 | 15.02695 | 147° | 24km/h | 17856m | -4.9m/s | -52.3°C | 4.6% | 81.6hPa | 2.7V | 08:30:00 | 01:53:43 | 00:00:00 | |
| DL1XH-west | 2026-08-30 06:10:56 | 52.44039 | 15.02729 | 77° | 22km/h | 17836m | -5m/s | -52.2°C | 0.9% | 81.8hPa | 2.6V | 18:12:15 | 01:53:47 | 00:00:00 | |
| AA1-15 | 2026-08-30 06:10:51 | 52.44054 | 15.02691 | 163° | 26km/h | 17861m | -4.7m/s | -52.3°C | 0.9% | 81.5hPa | 2.6V | 18:12:15 | 01:53:42 | 00:00:00 | |
| KRY50SP-1 | 2026-08-30 06:10:48 | 52.44067 | 15.02690 | 192° | 22km/h | 17870m | -5.1m/s | -52.5°C | 1.3% | 81.4hPa | 2.7V | 00:00:00 | 00:00:00 | 00:00:00 | |
| DL1XH1-15 | 2026-08-30 06:10:47 | 52.44081 | 15.02706 | 236° | 26km/h | 17886m | -5.1m/s | -52.5°C | 4.6% | 81.2hPa | 2.7V | 08:30:00 | 01:53:37 | 00:00:00 | |
| DL1XH-west | 2026-08-30 06:10:46 | 52.44081 | 15.02706 | 237° | 26km/h | 17886m | -5.1m/s | -52.6°C | 0.9% | 81.2hPa | 2.7V | 18:12:15 | 01:53:37 | 00:00:00 | |
| DAC517 | 2026-08-30 06:10:46 | 52.44081 | 15.02706 | 238° | 26km/h | 17886m | -5.1m/s | -52.5°C | 1.3% | 81.2hPa | 2.6V | 00:00:00 | 00:00:00 | 00:00:00 | |
| DM0DOS-11 | 2026-08-30 06:10:44 | 52.44067 | 15.02749 | 1° | 20km/h | 17922m | -5.2m/s | -52.8°C | 4.6% | 80.8hPa | 2.6V | 08:30:00 | 01:53:30 | 00:00:00 | |
| DF8AY | 2026-08-30 06:10:43 | 52.44083 | 15.02732 | 293° | 20km/h | 17901m | -5.1m/s | -52.7°C | 0.8% | 81hPa | 2.6V | 18:12:15 | 01:53:34 | 00:00:00 | |
| DL1XH1-15 | 2026-08-30 06:10:41 | 52.44055 | 15.02736 | 64° | 20km/h | 17937m | -5.4m/s | -52.9°C | 4.7% | 80.5hPa | 2.7V | 08:30:00 | 01:53:27 | 00:00:00 | |
| AA1-15 | 2026-08-30 06:10:40 | 52.44072 | 15.02748 | 341° | 20km/h | 17916m | -5.2m/s | -52.8°C | 0.9% | 80.8hPa | 2.7V | 18:12:15 | 01:53:31 | 00:00:00 | |
| DL1XH-west | 2026-08-30 06:10:35 | 52.44054 | 15.02728 | 87° | 18km/h | 17943m | -5.4m/s | -52.9°C | 0.9% | 80.5hPa | 2.7V | 18:12:15 | 01:53:26 | 00:00:00 | |
| DF8AY | 2026-08-30 06:10:32 | 52.44059 | 15.02709 | 147° | 16km/h | 17959m | -4.8m/s | -52.9°C | 1% | 80.3hPa | 2.7V | 18:12:15 | 01:53:23 | 00:00:00 | |
| DL1XH1-15 | 2026-08-30 06:10:31 | 52.44080 | 15.02727 | 251° | 20km/h | 17986m | -5m/s | -53.2°C | 4.9% | 79.9hPa | 2.6V | 08:30:00 | 01:53:17 | 00:00:00 | |
| AA1-15 | 2026-08-30 06:10:29 | 52.44072 | 15.02708 | 209° | 18km/h | 17972m | -4.7m/s | -53.1°C | 1% | 80.1hPa | 2.6V | 18:12:15 | 01:53:20 | 00:00:00 | |
| D01LWL | 2026-08-30 06:10:28 | 52.44078 | 15.02719 | 240° | 18km/h | 17982m | -4.5m/s | -53.2°C | 1.4% | 80.0hPa | 2.7V | 00:00:00 | 00:00:00 | 00:00:00 | |
| DM0DOS-11 | 2026-08-30 06:10:26 | 52.44078 | 15.02754 | 302° | 24km/h | 18001m | -4.8m/s | -53.3°C | 4.7% | 79.8hPa | 2.7V | 08:30:00 | 01:53:14 | 00:00:00 | |
| DB0DAN | 2026-08-30 06:10:25 | 52.44081 | 15.02736 | 267° | 22km/h | 17991m | -5m/s | -53.2°C | 1.4% | 79.85hPa | 2.6V | 00:00:00 | 00:00:00 | 00:00:00 | |
| DL1XH-west | 2026-08-30 06:10:24 | 52.44081 | 15.02745 | 284° | 24km/h | 17997m | -4.6m/s | -53.3°C | 1% | 79.8hPa | 2.6V | 18:12:15 | 01:53:15 | 00:00:00 | |
| EDDB2-11 | 2026-08-30 06:10:24 | 52.44081 | 15.02745 | 283° | 22km/h | 17997m | -4.6m/s | -53.3°C | 1.4% | 79.8hPa | 2.7V | 00:00:00 | 00:00:00 | 00:00:00 | |
| SQ2ODE-11 | 2026-08-30 06:10:23 | 52.44081 | 15.02745 | 285° | 24km/h | 17997m | -4.6m/s | -53.3°C | 1.4% | 79.8hPa | 2.7V | 00:00:00 | 00:00:00 | 00:00:00 | |
| DL1XH1-15 | 2026-08-30 06:10:21 | 52.44041 | 15.02766 | 33° | 22km/h | 18037m | -4.8m/s | -53.6°C | 4.8% | 79.3hPa | 2.7V | 08:30:00 | 01:53:07 | 00:00:00 | |
| DF8AY | 2026-08-30 06:10:21 | 52.44070 | 15.02768 | 324° | 24km/h | 18012m | -5.1m/s | -53.4°C | 1% | 79.6hPa | 2.7V | 18:12:15 | 01:53:12 | 00:00:00 | |
| AA1-15 | 2026-08-30 06:10:18 | 52.44052 | 15.02774 | 12° | 24km/h | 18027m | -5.1m/s | -53.5°C | 1% | 79.4hPa | 2.6V | 18:12:15 | 01:53:09 | 00:00:00 | |
| DL1XH-west | 2026-08-30 06:10:14 | 52.44035 | 15.02754 | 63° | 18km/h | 18047m | -5m/s | -53.6°C | 1% | 79.2hPa | 2.6V | 18:12:15 | 01:53:05 | 00:00:00 | |
| DF8AY | 2026-08-30 06:10:11 | 52.44036 | 15.02736 | 130° | 11km/h | 18061m | -4.4m/s | -53.6°C | 1.1% | 79hPa | 2.7V | 18:12:15 | 01:53:02 | 00:00:00 | |
| DL1XH1-15 | 2026-08-30 06:10:11 | 52.44049 | 15.02741 | 243° | 18km/h | 18084m | -4.8m/s | -53.8°C | 5.1% | 78.7hPa | 2.6V | 08:30:00 | 01:52:57 | 00:00:00 | |
| DB0DAN | 2026-08-30 06:10:10 | 52.44038 | 15.02733 | 157° | 11km/h | 18066m | -4.6m/s | -53.7°C | 1.4% | 78.99hPa | 2.7V | 00:00:00 | 00:00:00 | 00:00:00 | |
| SONDE2-12 | 2026-08-30 06:10:09 | 52.44041 | 15.02732 | 185° | 11km/h | 18070m | -4.5m/s | -53.7°C | 1.8% | 78.9hPa | 2.6V | 00:00:00 | 00:00:00 | 00:00:00 | |
| AA1-15 | 2026-08-30 06:10:08 | 52.44044 | 15.02733 | 206° | 11km/h | 18075m | -4.6m/s | -53.8°C | 1.1% | 78.8hPa | 2.6V | 18:12:15 | 01:52:59 | 00:00:00 | |
| OE3JTB-15 | 2026-08-30 06:10:07 | 52.44046 | 15.02736 | 217° | 20km/h | 18079m | -4.7m/s | -53.8°C | 5.1% | 78.8hPa | 2.7V | 00:00:00 | 00:00:00 | 00:00:00 | |
| DM0DOS-11 | 2026-08-30 06:10:06 | 52.44049 | 15.02766 | 287° | 26km/h | 18098m | -5m/s | -53.9°C | 5% | 78.6hPa | 2.7V | 08:30:00 | 01:52:54 | 00:00:00 | |
| DL1XH-west | 2026-08-30 06:10:04 | 52.44050 | 15.02757 | 275° | 20km/h | 18093m | -5m/s | -53.8°C | 1.1% | 78.6hPa | 2.7V | 18:12:15 | 01:52:55 | 00:00:00 | |
| DAC517 | 2026-08-30 06:10:03 | 52.44050 | 15.02756 | 276° | 20km/h | 18094m | -5.0m/s | -53.8°C | 1.4% | 78.6hPa | 2.6V | 00:00:00 | 00:00:00 | 00:00:00 | |
| KRY50SP-1 | 2026-08-30 06:10:02 | 52.44049 | 15.02766 | 289° | 26km/h | 18098m | -5.0m/s | -53.9°C | 1.4% | 78.6hPa | 2.6V | 00:00:00 | 00:00:00 | 00:00:00 | |
| DL1XH1-15 | 2026-08-30 06:10:01 | 52.44006 | 15.02804 | 10° | 31km/h | 18133m | -5.3m/s | -54.1°C | 5% | 78.1hPa | 2.6V | 08:30:00 | 01:52:47 | 00:00:00 | |
| AA1-15 | 2026-08-30 06:09:57 | 52.44014 | 15.02805 | 356° | 31km/h | 18128m | -4.8m/s | -54.1°C | 1% | 78.2hPa | 2.6V | 18:12:15 | 01:52:48 | 00:00:00 | |
| D01LWL | 2026-08-30 06:09:57 | 52.44006 | 15.02804 | 10° | 31km/h | 18133m | -5.3m/s | -54.1°C | 1.4% | 78.1hPa | 2.6V | 00:00:00 | 00:00:00 | 00:00:00 | |
| DM0DOS-11 | 2026-08-30 06:09:56 | 52.43987 | 15.02790 | 38° | 26km/h | 18148m | -4.7m/s | -54.2°C | 5% | 77.9hPa | 2.6V | 08:30:00 | 01:52:44 | 00:00:00 | |
| DB0DAN | 2026-08-30 06:09:55 | 52.43999 | 15.02801 | 21° | 27km/h | 18138m | -5.2m/s | -54.1°C | 1.4% | 78.07hPa | 2.7V | 00:00:00 | 00:00:00 | 00:00:00 | |
| DF8AY | 2026-08-30 06:09:55 | 52.43999 | 15.02801 | 21° | 29km/h | 18138m | -5.2m/s | -54.1°C | 1% | 78.1hPa | 2.7V | 18:12:15 | 01:52:46 | 00:00:00 | |
| DL1XH-west | 2026-08-30 06:09:53 | 52.43987 | 15.02790 | 39° | 26km/h | 18148m | -4.7m/s | -54.2°C | 1% | 77.9hPa | 2.6V | 18:12:15 | 01:52:44 | 00:00:00 | |
| SQ2ODE-11 | 2026-08-30 06:09:52 | 52.43987 | 15.02790 | 39° | 26km/h | 18148m | -4.7m/s | -54.2°C | 1.4% | 77.9hPa | 2.7V | 00:00:00 | 00:00:00 | 00:00:00 | |
| KRY50SP-1 | 2026-08-30 06:09:51 | 52.43983 | 15.02782 | 52° | 24km/h | 18153m | -5.2m/s | -54.2°C | 1.4% | 77.9hPa | 2.7V | 00:00:00 | 00:00:00 | 00:00:00 | |
| DL1XH1-15 | 2026-08-30 06:09:46 | 52.43978 | 15.02754 | 177° | 4km/h | 18181m | -5.3m/s | -54.1°C | 5.2% | 77.5hPa | 2.7V | 08:30:00 | 01:52:37 | 00:00:00 | |
| DM0DOS-11 | 2026-08-30 06:09:46 | 52.43978 | 15.02761 | 286° | 9km/h | 18195m | -4.9m/s | -54.1°C | 5.2% | 77.4hPa | 2.6V | 08:30:00 | 01:52:34 | 00:00:00 | |
| AA1-15 | 2026-08-30 06:09:46 | 52.43978 | 15.02754 | 177° | 4km/h | 18181m | -5.3m/s | -54.1°C | 1.2% | 77.5hPa | 2.7V | 18:12:15 | 01:52:37 | 00:00:00 | |
| SONCRA | 2026-08-30 06:09:45 | 52.43979 | 15.02755 | 248° | 5km/h | 18187m | -4.6m/s | -54.1°C | 1.5% | 77.5hPa | 2.6V | 00:00:00 | 00:00:00 | 00:00:00 | |
| S3001 | 2026-08-30 06:09:44 | 52.43979 | 15.02758 | 282° | 7km/h | 18191m | -4.2m/s | -54.1°C | 1.5% | 77.4hPa | 2.6V | 00:00:00 | 00:00:00 | 00:00:00 | |
| DL1XH-west | 2026-08-30 06:09:42 | 52.43977 | 15.02766 | 294° | 16km/h | 18200m | -4.5m/s | -54.1°C | 1.2% | 77.3hPa | 2.6V | 18:12:15 | 01:52:33 | 00:00:00 | |
| DB0DAN | 2026-08-30 06:09:40 | 52.43971 | 15.02779 | 313° | 22km/h | 18210m | -5.1m/s | -54.1°C | 1.4% | 77.21hPa | 2.7V | 00:00:00 | 00:00:00 | 00:00:00 | |
| DO3MHA-11 | 2026-08-30 06:09:40 | 52.43971 | 15.02779 | 314° | 33km/h | 18210m | -5.0m/s | 0°C | 0% | 0hPa | 2.6V | 00:00:00 | 01:52:31 | 00:00:00 | |
| KRY50SP-1 | 2026-08-30 06:09:39 | 52.43970 | 15.02779 | 314° | 24km/h | 18210m | -5.1m/s | -54.1°C | 1.4% | 77.2hPa | 2.6V | 00:00:00 | 00:00:00 | 00:00:00 | |
| OE3JTB-15 | 2026-08-30 06:09:38 | 52.43959 | 15.02791 | 330° | 29km/h | 18220m | -4.9m/s | -54.0°C | 5.1% | 77.0hPa | 2.6V | 00:00:00 | 01:52:29 | 00:00:00 | |
| DL1XH1-15 | 2026-08-30 06:09:36 | 52.43944 | 15.02801 | 345° | 35km/h | 18229m | -5.3m/s | -53.9°C | 5% | 77hPa | 2.6V | 08:30:00 | 01:52:27 | 00:00:00 | |
| AA1-15 | 2026-08-30 06:09:36 | 52.43944 | 15.02801 | 345° | 35km/h | 18229m | -5.3m/s | -53.9°C | 1% | 77hPa | 2.6V | 18:12:15 | 01:52:27 | 00:00:00 | |
| DF8AY | 2026-08-30 06:09:35 | 52.43935 | 15.02803 | 357° | 35km/h | 18235m | -4.9m/s | -53.9°C | 1% | 76.8hPa | 2.6V | 18:12:15 | 01:52:26 | 00:00:00 | |
| DL1XH-west | 2026-08-30 06:09:32 | 52.43908 | 15.02798 | 19° | 38km/h | 18250m | -5.3m/s | -53.7°C | 1.1% | 76.7hPa | 2.7V | 18:12:15 | 01:52:23 | 00:00:00 | |
| DL1XH1-15 | 2026-08-30 06:09:31 | 52.43874 | 15.02750 | 69° | 20km/h | 18280m | -4.9m/s | -53.7°C | 5.1% | 76.4hPa | 2.7V | 08:30:00 | 01:52:17 | 00:00:00 | |
| DO3MHA-11 | 2026-08-30 06:09:30 | 52.43891 | 15.02785 | 37° | 38km/h | 18260m | -5.2m/s | 0°C | 0% | 0hPa | 2.6V | 00:00:00 | 01:52:21 | 00:00:00 | |
| SONDE2-11 | 2026-08-30 06:09:29 | 52.43885 | 15.02777 | 40° | 31km/h | 18265m | -4.7m/s | -53.7°C | 1.4% | 76.5hPa | 2.6V | 00:00:00 | 00:00:00 | 00:00:00 | |
| EDDB2-12 | 2026-08-30 06:09:28 | 52.43880 | 15.02768 | 52° | 27km/h | 18270m | -5.1m/s | -53.7°C | 1.4% | 76.5hPa | 2.6V | 00:00:00 | 00:00:00 | 00:00:00 | |
| KRY50SP-1 | 2026-08-30 06:09:27 | 52.43880 | 15.02768 | 54° | 29km/h | 18270m | -5.1m/s | -53.7°C | 1.4% | 76.5hPa | 2.6V | 00:00:00 | 00:00:00 | 00:00:00 | |
| DM0DOS-11 | 2026-08-30 06:09:26 | 52.43871 | 15.02735 | 94° | 5km/h | 18294m | -5.1m/s | -53.8°C | 5.1% | 76.2hPa | 2.6V | 08:30:00 | 01:52:14 | 00:00:00 | |
| DB0DAN | 2026-08-30 06:09:25 | 52.43872 | 15.02743 | 69° | 16km/h | 18285m | -4.7m/s | -53.7°C | 1.4% | 76.29hPa | 2.6V | 00:00:00 | 00:00:00 | 00:00:00 | |
| AA1-15 | 2026-08-30 06:09:25 | 52.43872 | 15.02743 | 70° | 16km/h | 18285m | -4.7m/s | -53.7°C | 1.1% | 76.3hPa | 2.6V | 18:12:15 | 01:52:16 | 00:00:00 | |
| DL1XH-west | 2026-08-30 06:09:22 | 52.43871 | 15.02735 | 290° | 4km/h | 18299m | -5.3m/s | -53.8°C | 1.1% | 76.1hPa | 2.7V | 18:12:15 | 01:52:13 | 00:00:00 | |
| DF8AY | 2026-08-30 06:09:17 | 52.43860 | 15.02767 | 315° | 31km/h | 18325m | -5.7m/s | -53.8°C | 1.1% | 75.8hPa | 2.7V | 18:12:15 | 01:52:08 | 00:00:00 | |
| DM0DOS-11 | 2026-08-30 06:09:16 | 52.43825 | 15.02792 | 355° | 42km/h | 18346m | -5m/s | -53.7°C | 4.9% | 75.5hPa | 2.7V | 08:30:00 | 01:52:04 | 00:00:00 | |
| AA1-15 | 2026-08-30 06:09:14 | 52.43836 | 15.02789 | 343° | 40km/h | 18341m | -5.7m/s | -53.7°C | 1% | 75.6hPa | 2.7V | 18:12:15 | 01:52:05 | 00:00:00 | |
| DF8AY | 2026-08-30 06:09:11 | 52.43770 | 15.02751 | 59° | 22km/h | 18384m | -5.6m/s | -53.6°C | 1.1% | 75.1hPa | 2.6V | 18:12:15 | 01:51:57 | 00:00:00 | |
| DL1XH-west | 2026-08-30 06:09:11 | 52.43803 | 15.02790 | 11° | 40km/h | 18356m | -5.2m/s | -53.8°C | 1% | 75.4hPa | 2.6V | 18:12:15 | 01:52:02 | 00:00:00 | |
| SONDE2-12 | 2026-08-30 06:09:07 | 52.43773 | 15.02760 | 54° | 26km/h | 18378m | -5.6m/s | -53.8°C | 1.7% | 75.2hPa | 2.7V | 00:00:00 | 00:00:00 | 00:00:00 | |
| DM0DOS-11 | 2026-08-30 06:09:06 | 52.43768 | 15.02738 | 58° | 2km/h | 18399m | -5.3m/s | -53.5°C | 4.9% | 75hPa | 2.7V | 08:30:00 | 01:51:54 | 00:00:00 | |
| AA1-15 | 2026-08-30 06:09:03 | 52.43767 | 15.02738 | 58° | 2km/h | 18399m | -5.3m/s | -53.5°C | 1% | 75hPa | 2.7V | 18:12:15 | 01:51:54 | 00:00:00 | |
| DL1XH-west | 2026-08-30 06:09:00 | 52.43765 | 15.02749 | 303° | 20km/h | 18414m | -4.5m/s | -53.6°C | 1% | 74.8hPa | 2.6V | 18:12:15 | 01:51:51 | 00:00:00 | |
| SONDE2-11 | 2026-08-30 06:08:58 | 52.43756 | 15.02765 | 324° | 31km/h | 18425m | -5.2m/s | -53.6°C | 1.4% | 74.6hPa | 2.6V | 00:00:00 | 00:00:00 | 00:00:00 | |
| EDDB2-12 | 2026-08-30 06:08:57 | 52.43749 | 15.02773 | 332° | 37km/h | 18430m | -4.9m/s | -53.6°C | 1.4% | 74.6hPa | 2.6V | 00:00:00 | 00:00:00 | 00:00:00 | |
| DM0DOS-11 | 2026-08-30 06:08:56 | 52.43705 | 15.02784 | 9° | 49km/h | 18451m | -5.5m/s | -53.6°C | 4.8% | 74.3hPa | 2.6V | 08:30:00 | 01:51:44 | 00:00:00 | |
| DL1XH1-15 | 2026-08-30 06:08:56 | 52.43729 | 15.02784 | 352° | 47km/h | 18440m | -5.1m/s | -53.6°C | 4.9% | 74.4hPa | 2.7V | 08:30:00 | 01:51:46 | 00:00:00 | |
| DB0DAN | 2026-08-30 06:08:55 | 52.43729 | 15.02784 | 352° | 44km/h | 18440m | -5.1m/s | -53.7°C | 1.3% | 74.42hPa | 2.7V | 00:00:00 | 00:00:00 | 00:00:00 | |
| DF8AY | 2026-08-30 06:08:55 | 52.43729 | 15.02784 | 352° | 47km/h | 18440m | -5.1m/s | -53.7°C | 1% | 74.4hPa | 2.7V | 18:12:15 | 01:51:46 | 00:00:00 | |
| AA1-15 | 2026-08-30 06:08:53 | 52.43705 | 15.02784 | 9° | 49km/h | 18451m | -5.5m/s | -53.7°C | 1% | 74.3hPa | 2.6V | 18:12:15 | 01:51:44 | 00:00:00 | |
| DL1XH-west | 2026-08-30 06:08:49 | 52.43666 | 15.02751 | 45° | 38km/h | 18472m | -5.2m/s | -53.6°C | 1% | 74.1hPa | 2.7V | 18:12:15 | 01:51:40 | 00:00:00 | |
| DL1XH1-15 | 2026-08-30 06:08:46 | 52.43651 | 15.02712 | 66° | 16km/h | 18493m | -5.3m/s | -53.6°C | 4.9% | 73.8hPa | 2.7V | 08:30:00 | 01:51:36 | 00:00:00 | |
| DF8AY | 2026-08-30 06:08:44 | 52.43650 | 15.02707 | 68° | 9km/h | 18498m | -5.2m/s | -53.7°C | 1.1% | 73.8hPa | 2.7V | 18:12:15 | 01:51:35 | 00:00:00 | |
| AA1-15 | 2026-08-30 06:08:42 | 52.43647 | 15.02705 | 336° | 9km/h | 18508m | -5.2m/s | -53.7°C | 1.1% | 73.7hPa | 2.6V | 18:12:15 | 01:51:33 | 00:00:00 | |
| POL1PZ | 2026-08-30 06:08:41 | 52.43647 | 15.02705 | 337° | 9km/h | 18508m | -5.2m/s | -53.7°C | 1.4% | 73.7hPa | 2.6V | 00:00:00 | 00:00:00 | 00:00:00 | |
| DB0DAN | 2026-08-30 06:08:40 | 52.43639 | 15.02713 | 327° | 24km/h | 18518m | -4.9m/s | -53.8°C | 1.4% | 73.51hPa | 2.6V | 00:00:00 | 00:00:00 | 00:00:00 | |
| DL1XH-west | 2026-08-30 06:08:38 | 52.43625 | 15.02725 | 340° | 38km/h | 18528m | -5m/s | -53.8°C | 1% | 73.4hPa | 2.7V | 18:12:15 | 01:51:29 | 00:00:00 | |
| SP3BTT-10 | 2026-08-30 06:08:37 | 52.43615 | 15.02730 | 346° | 35km/h | 18534m | -4.8m/s | -53.7°C | 4.9% | 73.3hPa | 2.6V | 00:00:00 | 00:00:00 | 00:00:00 | |
| DM0DOS-11 | 2026-08-30 06:08:36 | 52.43566 | 15.02727 | 16° | 53km/h | 18554m | -5.2m/s | -53.8°C | 4.8% | 73.1hPa | 2.6V | 08:30:00 | 01:51:24 | 00:00:00 | |
| DL1XH1-15 | 2026-08-30 06:08:36 | 52.43592 | 15.02734 | 0° | 49km/h | 18543m | -4.8m/s | -53.8°C | 4.9% | 73.2hPa | 2.7V | 08:30:00 | 01:51:26 | 00:00:00 | |
| DF8AY | 2026-08-30 06:08:35 | 52.43579 | 15.02732 | 9° | 53km/h | 18549m | -5.6m/s | -53.8°C | 0.9% | 73.1hPa | 2.7V | 18:12:15 | 01:51:25 | 00:00:00 | |
| AA1-15 | 2026-08-30 06:08:31 | 52.43542 | 15.02710 | 32° | 51km/h | 18565m | -5.3m/s | -53.8°C | 0.9% | 73hPa | 2.7V | 18:12:15 | 01:51:22 | 00:00:00 | |
| DL1XH-west | 2026-08-30 06:08:27 | 52.43510 | 15.02658 | 61° | 35km/h | 18586m | -5.6m/s | -53.9°C | 0.9% | 72.7hPa | 2.7V | 18:12:15 | 01:51:18 | 00:00:00 | |
| DM0DOS-11 | 2026-08-30 06:08:26 | 52.43501 | 15.02627 | 37° | 9km/h | 18608m | -5.2m/s | -54°C | 4.8% | 72.5hPa | 2.6V | 08:30:00 | 01:51:14 | 00:00:00 | |
| DB0DAN | 2026-08-30 06:08:25 | 52.43504 | 15.02638 | 66° | 20km/h | 18597m | -5.5m/s | -54°C | 1.3% | 72.58hPa | 2.6V | 00:00:00 | 00:00:00 | 00:00:00 | |
| DF8AY | 2026-08-30 06:08:23 | 52.43500 | 15.02627 | 37° | 9km/h | 18608m | -5.2m/s | -54°C | 0.8% | 72.5hPa | 2.6V | 18:12:15 | 01:51:14 | 00:00:00 | |
| AA1-15 | 2026-08-30 06:08:20 | 52.43490 | 15.02630 | 339° | 24km/h | 18624m | -5.4m/s | -54.1°C | 0.9% | 72.3hPa | 2.7V | 18:12:15 | 01:51:11 | 00:00:00 | |
| DAC517 | 2026-08-30 06:08:19 | 52.43490 | 15.02630 | 340° | 24km/h | 18624m | -5.4m/s | -54.1°C | 1.3% | 72.3hPa | 2.6V | 00:00:00 | 00:00:00 | 00:00:00 | |
| DM0DOS-11 | 2026-08-30 06:08:16 | 52.43419 | 15.02630 | 20° | 51km/h | 18660m | -5.2m/s | -54.4°C | 5% | 71.9hPa | 2.6V | 08:30:00 | 01:51:04 | 00:00:00 | |
| DL1XH1-15 | 2026-08-30 06:08:16 | 52.43444 | 15.02640 | 6° | 49km/h | 18650m | -5.1m/s | -54.3°C | 5% | 72hPa | 2.7V | 08:30:00 | 01:51:06 | 00:00:00 | |
| DL1XH-west | 2026-08-30 06:08:16 | 52.43455 | 15.02641 | 360° | 46km/h | 18645m | -5.1m/s | -54.3°C | 0.9% | 72.1hPa | 2.7V | 18:12:15 | 01:51:07 | 00:00:00 | |
| DF8AY | 2026-08-30 06:08:12 | 52.43407 | 15.02621 | 28° | 53km/h | 18665m | -5.1m/s | -54.5°C | 0.9% | 71.8hPa | 2.6V | 18:12:15 | 01:51:03 | 00:00:00 | |
| DB0DAN | 2026-08-30 06:08:10 | 52.43386 | 15.02596 | 42° | 47km/h | 18676m | -5.4m/s | -54.5°C | 1.3% | 71.72hPa | 2.7V | 00:00:00 | 00:00:00 | 00:00:00 | |
| AA1-15 | 2026-08-30 06:08:09 | 52.43377 | 15.02582 | 49° | 49km/h | 18681m | -5.1m/s | -54.6°C | 0.8% | 71.6hPa | 2.7V | 18:12:15 | 01:51:00 | 00:00:00 | |
| DL1XH1-15 | 2026-08-30 06:08:07 | 52.43355 | 15.02522 | 69° | 35km/h | 18702m | -5.3m/s | -54.7°C | 5.1% | 71.4hPa | 2.6V | 08:30:00 | 01:50:56 | 00:00:00 | |
| DL1XH-west | 2026-08-30 06:08:06 | 52.43355 | 15.02522 | 69° | 35km/h | 18702m | -5.3m/s | -54.7°C | 1% | 71.4hPa | 2.6V | 18:12:15 | 01:50:56 | 00:00:00 | |
| SONDE2-12 | 2026-08-30 06:08:05 | 52.43355 | 15.02522 | 69° | 33km/h | 18702m | -5.3m/s | -54.7°C | 1.7% | 71.4hPa | 2.7V | 00:00:00 | 00:00:00 | 00:00:00 | |
| DF8AY | 2026-08-30 06:08:02 | 52.43349 | 15.02493 | 65° | 18km/h | 18718m | -5.1m/s | -54.6°C | 1% | 71.2hPa | 2.7V | 18:12:15 | 01:50:53 | 00:00:00 | |
| AA1-15 | 2026-08-30 06:07:58 | 52.43337 | 15.02481 | 5° | 18km/h | 18737m | -5m/s | -54.6°C | 1.3% | 71hPa | 2.7V | 18:12:15 | 01:50:49 | 00:00:00 | |
| KRY50SP-1 | 2026-08-30 06:07:57 | 52.43337 | 15.02480 | 6° | 18km/h | 18737m | -5.0m/s | -54.6°C | 1.5% | 71.0hPa | 2.6V | 00:00:00 | 00:00:00 | 00:00:00 | |
| DM0DOS-11 | 2026-08-30 06:07:56 | 52.43304 | 15.02472 | 18° | 37km/h | 18762m | -4.6m/s | -54.6°C | 5.4% | 70.7hPa | 2.6V | 08:30:00 | 01:50:44 | 00:00:00 | |
| DL1XH1-15 | 2026-08-30 06:07:56 | 52.43320 | 15.02478 | 8° | 29km/h | 18752m | -5.1m/s | -54.6°C | 5.3% | 70.8hPa | 2.6V | 08:30:00 | 01:50:46 | 00:00:00 | |
| DB0DAN | 2026-08-30 06:07:55 | 52.43320 | 15.02478 | 9° | 27km/h | 18752m | -5.1m/s | -54.6°C | 1.4% | 70.85hPa | 2.6V | 00:00:00 | 00:00:00 | 00:00:00 | |
| DL1XH-west | 2026-08-30 06:07:54 | 52.43312 | 15.02476 | 13° | 33km/h | 18757m | -5m/s | -54.6°C | 1.3% | 70.8hPa | 2.6V | 18:12:15 | 01:50:45 | 00:00:00 | |
| DF8AY | 2026-08-30 06:07:52 | 52.43295 | 15.02466 | 24° | 38km/h | 18767m | -4.6m/s | -54.6°C | 1.2% | 70.7hPa | 2.7V | 18:12:15 | 01:50:43 | 00:00:00 | |
| AA1-15 | 2026-08-30 06:07:47 | 52.43255 | 15.02417 | 48° | 42km/h | 18790m | -4.5m/s | -54.3°C | 1.2% | 70.4hPa | 2.6V | 18:12:15 | 01:50:38 | 00:00:00 | |
| DM0DOS-11 | 2026-08-30 06:07:46 | 52.43232 | 15.02361 | 62° | 40km/h | 18808m | -5m/s | -54.2°C | 5.2% | 70.2hPa | 2.6V | 08:30:00 | 01:50:34 | 00:00:00 | |
| DL1XH1-15 | 2026-08-30 06:07:46 | 52.43242 | 15.02390 | 55° | 40km/h | 18799m | -4.7m/s | -54.3°C | 5.2% | 70.3hPa | 2.7V | 08:30:00 | 01:50:36 | 00:00:00 | |
| DL1XH-west | 2026-08-30 06:07:44 | 52.43237 | 15.02376 | 60° | 40km/h | 18804m | -4.7m/s | -54.3°C | 1.3% | 70.3hPa | 2.7V | 18:12:15 | 01:50:35 | 00:00:00 | |
| DF8AY | 2026-08-30 06:07:42 | 52.43228 | 15.02347 | 67° | 38km/h | 18813m | -4.7m/s | -54.2°C | 1.2% | 70.2hPa | 2.6V | 18:12:15 | 01:50:33 | 00:00:00 | |
| SQ2ODE-11 | 2026-08-30 06:07:42 | 52.43228 | 15.02347 | 68° | 38km/h | 18813m | -4.7m/s | -54.2°C | 1.5% | 70.2hPa | 2.6V | 00:00:00 | 00:00:00 | 00:00:00 | |
| SONCRA | 2026-08-30 06:07:41 | 52.43224 | 15.02332 | 67° | 37km/h | 18818m | -4.4m/s | -54.2°C | 1.5% | 70.1hPa | 2.6V | 00:00:00 | 00:00:00 | 00:00:00 | |
| S3001 | 2026-08-30 06:07:40 | 52.43221 | 15.02318 | 70° | 35km/h | 18822m | -4.5m/s | -54.2°C | 1.5% | 70.1hPa | 2.6V | 00:00:00 | 00:00:00 | 00:00:00 | |
| DJ2DS-15 | 2026-08-30 06:07:39 | 52.43218 | 15.02303 | 75° | 26km/h | 18827m | -4.6m/s | -54.1°C | 5.2% | 70.0hPa | 2.6V | 00:00:00 | 01:50:30 | 00:00:00 | |
| SP3BTT-10 | 2026-08-30 06:07:37 | 52.43214 | 15.02275 | 81° | 26km/h | 18837m | -4.3m/s | -54.0°C | 5.1% | 69.9hPa | 2.6V | 00:00:00 | 00:00:00 | 00:00:00 | |
| DM0DOS-11 | 2026-08-30 06:07:36 | 52.43211 | 15.02225 | 89° | 27km/h | 18854m | -4.9m/s | -54.1°C | 5.1% | 69.7hPa | 2.6V | 08:30:00 | 01:50:24 | 00:00:00 | |
| AA1-15 | 2026-08-30 06:07:36 | 52.43213 | 15.02262 | 81° | 31km/h | 18841m | -4.5m/s | -54.1°C | 1.2% | 69.9hPa | 2.7V | 18:12:15 | 01:50:27 | 00:00:00 | |
| DL1XH1-15 | 2026-08-30 06:07:36 | 52.43212 | 15.02249 | 83° | 31km/h | 18845m | -4.6m/s | -54.1°C | 5% | 69.8hPa | 2.7V | 08:30:00 | 01:50:26 | 00:00:00 | |
| DL1XH-west | 2026-08-30 06:07:33 | 52.43211 | 15.02225 | 90° | 27km/h | 18854m | -4.9m/s | -54.2°C | 1.2% | 69.7hPa | 2.6V | 18:12:15 | 01:50:24 | 00:00:00 | |
| DF8AY | 2026-08-30 06:07:31 | 52.43211 | 15.02203 | 92° | 24km/h | 18864m | -4.3m/s | -54.2°C | 1.2% | 69.6hPa | 2.7V | 18:12:15 | 01:50:22 | 00:00:00 | |
| DC4HF-4 | 2026-08-30 06:07:29 | 52.43213 | 15.02183 | 99° | 24km/h | 18873m | -4.8m/s | -54.3°C | 1.5% | 69.5hPa | 2.7V | 00:00:00 | 00:00:00 | 00:00:00 | |
| 13BRC | 2026-08-30 06:07:28 | 52.43213 | 15.02183 | 100° | 24km/h | 18873m | -4.8m/s | -54.3°C | 1.5% | 69.5hPa | 2.7V | 00:00:00 | 00:00:00 | 00:00:00 | |
| DM0DOS-11 | 2026-08-30 06:07:26 | 52.43224 | 15.02133 | 113° | 20km/h | 18901m | -5m/s | -54.4°C | 5.1% | 69.2hPa | 2.7V | 08:30:00 | 01:50:14 | 00:00:00 | |
| DL1XH1-15 | 2026-08-30 06:07:26 | 52.43219 | 15.02148 | 111° | 22km/h | 18891m | -5m/s | -54.4°C | 5.1% | 69.3hPa | 2.6V | 08:30:00 | 01:50:16 | 00:00:00 | |
| AA1-15 | 2026-08-30 06:07:25 | 52.43219 | 15.02148 | 111° | 22km/h | 18892m | -5m/s | -54.4°C | 1.2% | 69.3hPa | 2.6V | 18:12:15 | 01:50:16 | 00:00:00 | |
| DL1XH-west | 2026-08-30 06:07:22 | 52.43226 | 15.02126 | 121° | 18km/h | 18906m | -4.9m/s | -54.5°C | 1.1% | 69.1hPa | 2.7V | 18:12:15 | 01:50:13 | 00:00:00 | |
| DF8AY | 2026-08-30 06:07:21 | 52.43228 | 15.02120 | 116° | 16km/h | 18911m | -4.9m/s | -54.5°C | 1.1% | 69.1hPa | 2.7V | 18:12:15 | 01:50:12 | 00:00:00 | |
| DJ2DS-15 | 2026-08-30 06:07:19 | 52.43232 | 15.02109 | 129° | 16km/h | 18921m | -5.0m/s | -54.5°C | 5.1% | 69.0hPa | 2.6V | 00:00:00 | 01:50:10 | 00:00:00 | |
| EDDB2-11 | 2026-08-30 06:07:18 | 52.43236 | 15.02101 | 126° | 13km/h | 18930m | -5.0m/s | -54.6°C | 1.4% | 68.9hPa | 2.6V | 00:00:00 | 00:00:00 | 00:00:00 | |
| DM0DOS-11 | 2026-08-30 06:07:16 | 52.43246 | 15.02086 | 150° | 15km/h | 18949m | -4.8m/s | -54.7°C | 5.2% | 68.7hPa | 2.6V | 08:30:00 | 01:50:04 | 00:00:00 | |
| DL1XH1-15 | 2026-08-30 06:07:16 | 52.43240 | 15.02093 | 135° | 13km/h | 18939m | -4.8m/s | -54.6°C | 5.1% | 68.8hPa | 2.7V | 08:30:00 | 01:50:06 | 00:00:00 | |
| AA1-15 | 2026-08-30 06:07:14 | 52.43243 | 15.02090 | 140° | 15km/h | 18944m | -4.8m/s | -54.6°C | 1.1% | 68.7hPa | 2.6V | 18:12:15 | 01:50:05 | 00:00:00 | |
| DL1XH-west | 2026-08-30 06:07:12 | 52.43249 | 15.02083 | 148° | 15km/h | 18953m | -4.5m/s | -54.7°C | 1.1% | 68.6hPa | 2.6V | 18:12:15 | 01:50:03 | 00:00:00 | |
| DF8AY | 2026-08-30 06:07:11 | 52.43252 | 15.02080 | 143° | 18km/h | 18958m | -5.2m/s | -54.7°C | 1.1% | 68.5hPa | 2.7V | 18:12:15 | 01:50:02 | 00:00:00 | |
| DB0DAN | 2026-08-30 06:07:10 | 52.43256 | 15.02075 | 148° | 16km/h | 18963m | -5.5m/s | -54.7°C | 1.4% | 68.5hPa | 2.7V | 00:00:00 | 00:00:00 | 00:00:00 | |
| SONCRA | 2026-08-30 06:07:10 | 52.43256 | 15.02075 | 147° | 16km/h | 18963m | -5.5m/s | -54.7°C | 1.4% | 68.5hPa | 2.7V | 00:00:00 | 00:00:00 | 00:00:00 | |
| S3001 | 2026-08-30 06:07:09 | 52.43260 | 15.02071 | 144° | 16km/h | 18968m | -4.9m/s | -54.7°C | 1.4% | 68.4hPa | 2.7V | 00:00:00 | 00:00:00 | 00:00:00 | |
| 13BRC | 2026-08-30 06:07:07 | 52.43263 | 15.02066 | 137° | 20km/h | 18973m | -4.9m/s | -54.7°C | 1.4% | 68.4hPa | 2.7V | 00:00:00 | 00:00:00 | 00:00:00 | |
| DM0DOS-11 | 2026-08-30 06:07:06 | 52.43278 | 15.02036 | 122° | 18km/h | 18997m | -4.8m/s | -54.7°C | 5.3% | 68.1hPa | 2.7V | 08:30:00 | 01:49:54 | 00:00:00 | |
| AA1-15 | 2026-08-30 06:07:03 | 52.43278 | 15.02036 | 123° | 18km/h | 18997m | -4.9m/s | -54.7°C | 1.1% | 68.1hPa | 2.7V | 18:12:15 | 01:49:54 | 00:00:00 | |
| DL1XH-west | 2026-08-30 06:07:01 | 52.43283 | 15.02024 | 125° | 16km/h | 19006m | -4.7m/s | -54.8°C | 1.1% | 68.1hPa | 2.6V | 18:12:15 | 01:49:52 | 00:00:00 | |
| DF8AY | 2026-08-30 06:07:00 | 52.43286 | 15.02018 | 130° | 16km/h | 19011m | -4.7m/s | -54.8°C | 1.1% | 68hPa | 2.6V | 18:12:15 | 01:49:51 | 00:00:00 | |
| DJ2DS-15 | 2026-08-30 06:06:59 | 52.43289 | 15.02013 | 133° | 26km/h | 19016m | -5.0m/s | -54.7°C | 5.4% | 67.9hPa | 2.7V | 00:00:00 | 01:49:50 | 00:00:00 | |
| POL1PZ | 2026-08-30 06:06:58 | 52.43289 | 15.02013 | 133° | 18km/h | 19016m | -5.0m/s | -54.8°C | 1.4% | 67.9hPa | 2.7V | 00:00:00 | 00:00:00 | 00:00:00 | |
| DAC517 | 2026-08-30 06:06:57 | 52.43292 | 15.02008 | 139° | 16km/h | 19020m | -4.4m/s | -54.8°C | 1.4% | 67.9hPa | 2.7V | 00:00:00 | 00:00:00 | 00:00:00 | |
| DM0DOS-11 | 2026-08-30 06:06:56 | 52.43314 | 15.01999 | 189° | 22km/h | 19044m | -5.2m/s | -54.5°C | 5.4% | 67.7hPa | 2.7V | 08:30:00 | 01:49:44 | 00:00:00 | |
| DB0DAN | 2026-08-30 06:06:55 | 52.43304 | 15.01999 | 173° | 18km/h | 19034m | -4.7m/s | -54.7°C | 1.5% | 67.76hPa | 2.6V | 00:00:00 | 00:00:00 | 00:00:00 | |
| AA1-15 | 2026-08-30 06:06:52 | 52.43319 | 15.02002 | 202° | 26km/h | 19049m | -5m/s | -54.4°C | 1.2% | 67.6hPa | 2.7V | 18:12:15 | 01:49:43 | 00:00:00 | |
| DL1XH-west | 2026-08-30 06:06:50 | 52.43330 | 15.02014 | 228° | 26km/h | 19060m | -5.9m/s | -54.2°C | 1.2% | 67.5hPa | 2.6V | 18:12:15 | 01:49:41 | 00:00:00 | |
| DF8AY | 2026-08-30 06:06:49 | 52.43334 | 15.02023 | 237° | 26km/h | 19066m | -5.4m/s | -54.2°C | 1.1% | 67.5hPa | 2.6V | 18:12:15 | 01:49:40 | 00:00:00 | |
| EDDB2-11 | 2026-08-30 06:06:47 | 52.43340 | 15.02056 | 267° | 29km/h | 19082m | -4.5m/s | -54.2°C | 1.4% | 67.3hPa | 2.6V | 00:00:00 | 00:00:00 | 00:00:00 | |
| DM0DOS-11 | 2026-08-30 06:06:46 | 52.43335 | 15.02091 | 302° | 31km/h | 19095m | -4.8m/s | -53.9°C | 5% | 67.1hPa | 2.6V | 08:30:00 | 01:49:34 | 00:00:00 | |
| DL1XH1-15 | 2026-08-30 06:06:46 | 52.43340 | 15.02068 | 279° | 29km/h | 19086m | -4.5m/s | -54.1°C | 5.2% | 67.2hPa | 2.7V | 08:30:00 | 01:49:36 | 00:00:00 | |
| AA1-15 | 2026-08-30 06:06:42 | 52.43330 | 15.02102 | 316° | 31km/h | 19100m | -5.2m/s | -53.8°C | 1% | 67hPa | 2.6V | 18:12:15 | 01:49:33 | 00:00:00 | |
| DB0DAN | 2026-08-30 06:06:40 | 52.43317 | 15.02116 | 340° | 29km/h | 19111m | -5.6m/s | -53.7°C | 1.3% | 66.91hPa | 2.7V | 00:00:00 | 00:00:00 | 00:00:00 | |
| DL1XH-west | 2026-08-30 06:06:40 | 52.43317 | 15.02116 | 340° | 31km/h | 19111m | -5.6m/s | -53.7°C | 1% | 66.9hPa | 2.7V | 18:12:15 | 01:49:31 | 00:00:00 | |
| DF8AY | 2026-08-30 06:06:39 | 52.43310 | 15.02119 | 353° | 29km/h | 19116m | -5.8m/s | -53.7°C | 1% | 66.8hPa | 2.7V | 18:12:15 | 01:49:30 | 00:00:00 | |
| DJ2DS-15 | 2026-08-30 06:06:39 | 52.43310 | 15.02119 | 354° | 26km/h | 19117m | -5.8m/s | -53.6°C | 4.8% | 66.8hPa | 2.6V | 00:00:00 | 01:49:30 | 00:00:00 | |
| SP3BTT-10 | 2026-08-30 06:06:38 | 52.43303 | 15.02119 | 8° | 27km/h | 19123m | -6.3m/s | -53.6°C | 4.8% | 66.7hPa | 2.6V | 00:00:00 | 00:00:00 | 00:00:00 | |
| SQ2ODE-11 | 2026-08-30 06:06:37 | 52.43303 | 15.02119 | 9° | 27km/h | 19123m | -6.3m/s | -53.7°C | 1.3% | 66.8hPa | 2.7V | 00:00:00 | 00:00:00 | 00:00:00 | |
| DM0DOS-11 | 2026-08-30 06:06:36 | 52.43288 | 15.02094 | 126° | 15km/h | 19153m | -6.5m/s | -53.6°C | 4.9% | 66.5hPa | 2.7V | 08:30:00 | 01:49:24 | 00:00:00 | |
| DF8AY | 2026-08-30 06:06:33 | 52.43302 | 15.02109 | 253° | 26km/h | 19182m | -5.6m/s | -53.8°C | 1.1% | 66.2hPa | 2.7V | 18:12:15 | 01:49:19 | 00:00:00 | |
| SONDE2-12 | 2026-08-30 06:06:32 | 52.43290 | 15.02091 | 155° | 9km/h | 19159m | -5.2m/s | -53.7°C | 1.7% | 66.4hPa | 2.6V | 00:00:00 | 00:00:00 | 00:00:00 | |
| AA1-15 | 2026-08-30 06:06:31 | 52.43293 | 15.02091 | 188° | 15km/h | 19165m | -6m/s | -53.7°C | 1.1% | 66.3hPa | 2.6V | 18:12:15 | 01:49:22 | 00:00:00 | |
| DL1XH-west | 2026-08-30 06:06:30 | 52.43296 | 15.02093 | 215° | 20km/h | 19170m | -5.8m/s | -53.8°C | 1.1% | 66.3hPa | 2.6V | 18:12:15 | 01:49:21 | 00:00:00 | |
| SQ2ODE-11 | 2026-08-30 06:06:29 | 52.43296 | 15.02093 | 216° | 20km/h | 19170m | -5.8m/s | -53.8°C | 1.4% | 66.3hPa | 2.7V | 00:00:00 | 00:00:00 | 00:00:00 | |
| KRY50SP-1 | 2026-08-30 06:06:28 | 52.43299 | 15.02100 | 240° | 24km/h | 19176m | -5.9m/s | -53.8°C | 1.4% | 66.2hPa | 2.7V | 00:00:00 | 00:00:00 | 00:00:00 | |
| SP6BVK | 2026-08-30 06:06:27 | 52.43302 | 15.02109 | 254° | 26km/h | 19182m | -5.6m/s | -53.8°C | 1.4% | 66.2hPa | 2.7V | 00:00:00 | 00:00:00 | 00:00:00 | |
| DM0DOS-11 | 2026-08-30 06:06:26 | 52.43293 | 15.02172 | 313° | 37km/h | 19210m | -5.8m/s | -53.9°C | 5% | 65.9hPa | 2.7V | 08:30:00 | 01:49:14 | 00:00:00 | |
| DB0DAN | 2026-08-30 06:06:25 | 52.43303 | 15.02147 | 288° | 37km/h | 19199m | -5.6m/s | -53.9°C | 1.4% | 65.99hPa | 2.6V | 00:00:00 | 00:00:00 | 00:00:00 | |
| AA1-15 | 2026-08-30 06:06:20 | 52.43271 | 15.02195 | 346° | 37km/h | 19228m | -5.9m/s | -54°C | 1% | 65.7hPa | 2.6V | 18:12:15 | 01:49:11 | 00:00:00 | |
| DL1XH-west | 2026-08-30 06:06:19 | 52.43262 | 15.02197 | 357° | 35km/h | 19234m | -5.7m/s | -54°C | 1% | 65.6hPa | 2.6V | 18:12:15 | 01:49:10 | 00:00:00 | |
| DF8AY | 2026-08-30 06:06:18 | 52.43254 | 15.02196 | 9° | 33km/h | 19240m | -5.7m/s | -54.1°C | 1% | 65.6hPa | 2.6V | 18:12:15 | 01:49:09 | 00:00:00 | |
| DC4HF-4 | 2026-08-30 06:06:17 | 52.43247 | 15.02192 | 21° | 31km/h | 19246m | -5.9m/s | -54.1°C | 1.3% | 65.5hPa | 2.6V | 00:00:00 | 00:00:00 | 00:00:00 | |
| DM0DOS-11 | 2026-08-30 06:06:16 | 52.43231 | 15.02165 | 89° | 16km/h | 19270m | -6.2m/s | -54.2°C | 5.1% | 65.3hPa | 2.6V | 08:30:00 | 01:49:04 | 00:00:00 | |
| DL1XH1-15 | 2026-08-30 06:06:16 | 52.43235 | 15.02180 | 51° | 24km/h | 19258m | -6.3m/s | -54.1°C | 5% | 65.4hPa | 2.7V | 08:30:00 | 01:49:06 | 00:00:00 | |
| AA1-15 | 2026-08-30 06:06:09 | 52.43238 | 15.02159 | 218° | 15km/h | 19292m | -6.1m/s | -54.4°C | 1.1% | 65hPa | 2.7V | 18:12:15 | 01:49:00 | 00:00:00 | |
| DL1XH-west | 2026-08-30 06:06:08 | 52.43241 | 15.02164 | 246° | 20km/h | 19299m | -6.1m/s | -54.4°C | 1.1% | 65hPa | 2.6V | 18:12:15 | 01:48:59 | 00:00:00 | |
| S3001 | 2026-08-30 06:06:07 | 52.43242 | 15.02172 | 265° | 18km/h | 19304m | -5.6m/s | -54.5°C | 1.4% | 65.0hPa | 2.7V | 00:00:00 | 00:00:00 | 00:00:00 | |
| DL1XH1-15 | 2026-08-30 06:06:06 | 52.43241 | 15.02191 | 296° | 26km/h | 19315m | -5.7m/s | -54.5°C | 5.2% | 64.8hPa | 2.7V | 08:30:00 | 01:48:56 | 00:00:00 | |
| SONDE2-12 | 2026-08-30 06:06:01 | 52.43217 | 15.02218 | 350° | 33km/h | 19338m | -5.6m/s | -54.7°C | 1.8% | 64.6hPa | 2.6V | 00:00:00 | 00:00:00 | 00:00:00 | |
| DF8AY | 2026-08-30 06:06:00 | 52.43209 | 15.02219 | 0° | 35km/h | 19343m | -6m/s | -54.7°C | 1.2% | 64.5hPa | 2.6V | 18:12:15 | 01:48:51 | 00:00:00 | |
| DL1XH-west | 2026-08-30 06:05:58 | 52.43193 | 15.02213 | 31° | 33km/h | 19355m | -6.1m/s | -54.6°C | 1.2% | 64.4hPa | 2.7V | 18:12:15 | 01:48:49 | 00:00:00 | |
| POL1PZ | 2026-08-30 06:05:57 | 52.43193 | 15.02212 | 32° | 33km/h | 19356m | -6.1m/s | -54.6°C | 1.4% | 64.4hPa | 2.6V | 00:00:00 | 00:00:00 | 00:00:00 | |
| DL1XH1-15 | 2026-08-30 06:05:56 | 52.43179 | 15.02185 | 71° | 27km/h | 19373m | -5.4m/s | -54.6°C | 5.3% | 64.2hPa | 2.6V | 08:30:00 | 01:48:46 | 00:00:00 | |
| DL1XH-west | 2026-08-30 06:05:48 | 52.43192 | 15.02149 | 215° | 15km/h | 19412m | -5.9m/s | -54.5°C | 1.1% | 63.8hPa | 2.6V | 18:12:15 | 01:48:39 | 00:00:00 | |
| AA1-15 | 2026-08-30 06:05:47 | 52.43195 | 15.02154 | 240° | 16km/h | 19417m | -5.9m/s | -54.5°C | 1.1% | 63.8hPa | 2.7V | 18:12:15 | 01:48:38 | 00:00:00 | |
| DL1XH1-15 | 2026-08-30 06:05:46 | 52.43196 | 15.02170 | 283° | 22km/h | 19427m | -6.2m/s | -54.6°C | 5.1% | 63.6hPa | 2.7V | 08:30:00 | 01:48:36 | 00:00:00 | |
| EDDB2-11 | 2026-08-30 06:05:45 | 52.43194 | 15.02179 | 301° | 24km/h | 19433m | -6.2m/s | -54.6°C | 1.4% | 63.6hPa | 2.6V | 00:00:00 | 00:00:00 | 00:00:00 | |
| DL1XH-west | 2026-08-30 06:05:37 | 52.43143 | 15.02190 | 36° | 37km/h | 19475m | -6.6m/s | -54.9°C | 1.2% | 63.2hPa | 2.6V | 18:12:15 | 01:48:28 | 00:00:00 | |
| POL1PZ | 2026-08-30 06:05:37 | 52.43143 | 15.02190 | 37° | 37km/h | 19476m | -6.6m/s | -54.9°C | 1.4% | 63.2hPa | 2.7V | 00:00:00 | 00:00:00 | 00:00:00 | |
| DL1XH1-15 | 2026-08-30 06:05:36 | 52.43131 | 15.02168 | 63° | 33km/h | 19487m | -6.6m/s | -54.9°C | 5.2% | 63hPa | 2.7V | 08:30:00 | 01:48:26 | 00:00:00 | |
| AA1-15 | 2026-08-30 06:05:36 | 52.43136 | 15.02180 | 50° | 37km/h | 19481m | -6.6m/s | -54.9°C | 1.2% | 63.1hPa | 2.6V | 18:12:15 | 01:48:27 | 00:00:00 | |
| DL1XH-west | 2026-08-30 06:05:27 | 52.43143 | 15.02128 | 240° | 18km/h | 19539m | -6.2m/s | -54.9°C | 1.2% | 62.5hPa | 2.7V | 18:12:15 | 01:48:18 | 00:00:00 | |
| SQ2ODE-11 | 2026-08-30 06:05:27 | 52.43143 | 15.02128 | 241° | 18km/h | 19539m | -6.2m/s | -54.9°C | 1.5% | 62.5hPa | 2.6V | 00:00:00 | 00:00:00 | 00:00:00 | |
| DL1XH1-15 | 2026-08-30 06:05:27 | 52.43144 | 15.02145 | 279° | 24km/h | 19550m | -6.5m/s | -55°C | 5.3% | 62.4hPa | 2.6V | 08:30:00 | 01:48:16 | 00:00:00 | |
| SP6BVK | 2026-08-30 06:05:26 | 52.43143 | 15.02128 | 241° | 18km/h | 19539m | -6.2m/s | -54.9°C | 1.5% | 62.5hPa | 2.6V | 00:00:00 | 00:00:00 | 00:00:00 | |
| DM0DOS-11 | 2026-08-30 06:05:26 | 52.43139 | 15.02165 | 306° | 31km/h | 19563m | -7m/s | -55°C | 5.3% | 62.3hPa | 2.7V | 08:30:00 | 01:48:14 | 00:00:00 | |
| DB0DAN | 2026-08-30 06:05:25 | 52.43144 | 15.02145 | 280° | 22km/h | 19550m | -6.5m/s | -55°C | 1.4% | 62.41hPa | 2.6V | 00:00:00 | 00:00:00 | 00:00:00 | |
| AA1-15 | 2026-08-30 06:05:25 | 52.43144 | 15.02145 | 280° | 24km/h | 19550m | -6.5m/s | -55°C | 1.2% | 62.4hPa | 2.6V | 18:12:15 | 01:48:16 | 00:00:00 | |
| DF8AY | 2026-08-30 06:05:17 | 52.43101 | 15.02168 | 47° | 27km/h | 19600m | -5.7m/s | -55.1°C | 1.2% | 62hPa | 2.7V | 18:12:15 | 01:48:08 | 00:00:00 | |
| DM0DOS-11 | 2026-08-30 06:05:16 | 52.43094 | 15.02127 | 106° | 24km/h | 19623m | -6.2m/s | -55.1°C | 5.4% | 61.7hPa | 2.6V | 08:30:00 | 01:48:04 | 00:00:00 | |
| DL1XH1-15 | 2026-08-30 06:05:16 | 52.43094 | 15.02148 | 76° | 27km/h | 19611m | -6.1m/s | -55.1°C | 5.4% | 61.9hPa | 2.7V | 08:30:00 | 01:48:06 | 00:00:00 | |
| DL1XH-west | 2026-08-30 06:05:16 | 52.43096 | 15.02159 | 63° | 27km/h | 19606m | -6.2m/s | -55.1°C | 1.2% | 61.9hPa | 2.7V | 18:12:15 | 01:48:07 | 00:00:00 | |
| AA1-15 | 2026-08-30 06:05:14 | 52.43093 | 15.02137 | 91° | 26km/h | 19617m | -6m/s | -55.2°C | 1.3% | 61.8hPa | 2.6V | 18:12:15 | 01:48:05 | 00:00:00 | |
| KRY50SP-1 | 2026-08-30 06:05:13 | 52.43093 | 15.02137 | 92° | 26km/h | 19618m | -6.0m/s | -55.2°C | 1.5% | 61.8hPa | 2.7V | 00:00:00 | 00:00:00 | 00:00:00 | |
| DAC517 | 2026-08-30 06:05:12 | 52.43094 | 15.02127 | 108° | 24km/h | 19623m | -6.2m/s | -55.2°C | 1.5% | 61.7hPa | 2.7V | 00:00:00 | 00:00:00 | 00:00:00 | |
| DB0DAN | 2026-08-30 06:05:10 | 52.43105 | 15.02109 | 171° | 18km/h | 19641m | -6.5m/s | -55.2°C | 1.5% | 61.53hPa | 2.7V | 00:00:00 | 00:00:00 | 00:00:00 | |
| KRY50SP-1 | 2026-08-30 06:05:07 | 52.43114 | 15.02114 | 227° | 20km/h | 19654m | -6.5m/s | -55.1°C | 1.5% | 61.4hPa | 2.7V | 00:00:00 | 00:00:00 | 00:00:00 | |
| DM0DOS-11 | 2026-08-30 06:05:06 | 52.43113 | 15.02150 | 322° | 24km/h | 19686m | -6.3m/s | -55°C | 5.5% | 61.1hPa | 2.7V | 08:30:00 | 01:47:54 | 00:00:00 | |
| DL1XH1-15 | 2026-08-30 06:05:06 | 52.43118 | 15.02136 | 285° | 20km/h | 19671m | -7m/s | -55°C | 5.5% | 61.2hPa | 2.7V | 08:30:00 | 01:47:56 | 00:00:00 | |
| DL1XH-west | 2026-08-30 06:05:06 | 52.43118 | 15.02128 | 269° | 18km/h | 19666m | -6.1m/s | -55.1°C | 1.3% | 61.3hPa | 2.6V | 18:12:15 | 01:47:57 | 00:00:00 | |
| AA1-15 | 2026-08-30 06:05:03 | 52.43113 | 15.02150 | 323° | 24km/h | 19686m | -6.3m/s | -55°C | 1.3% | 61.1hPa | 2.7V | 18:12:15 | 01:47:54 | 00:00:00 | |
| SONDE2-12 | 2026-08-30 06:04:59 | 52.43080 | 15.02141 | 40° | 35km/h | 19718m | -6.6m/s | -54.9°C | 1.8% | 60.8hPa | 2.7V | 00:00:00 | 00:00:00 | 00:00:00 | |
| KRY50SP-1 | 2026-08-30 06:04:57 | 52.43080 | 15.02140 | 41° | 35km/h | 19718m | -6.6m/s | -54.9°C | 1.5% | 60.8hPa | 2.7V | 00:00:00 | 00:00:00 | 00:00:00 | |
| DM0DOS-11 | 2026-08-30 06:04:56 | 52.43069 | 15.02080 | 110° | 29km/h | 19749m | -5.7m/s | -54.7°C | 5.4% | 60.5hPa | 2.7V | 08:30:00 | 01:47:44 | 00:00:00 | |
| DF8AY | 2026-08-30 06:04:56 | 52.43070 | 15.02118 | 65° | 35km/h | 19731m | -6.7m/s | -54.9°C | 1.3% | 60.7hPa | 2.6V | 18:12:15 | 01:47:47 | 00:00:00 | |
| DL1XH1-15 | 2026-08-30 06:04:56 | 52.43068 | 15.02105 | 78° | 33km/h | 19738m | -6.1m/s | -54.8°C | 5.4% | 60.7hPa | 2.6V | 08:30:00 | 01:47:46 | 00:00:00 | |
| DB0DAN | 2026-08-30 06:04:55 | 52.43067 | 15.02105 | 78° | 31km/h | 19738m | -6.1m/s | -54.8°C | 1.5% | 60.68hPa | 2.6V | 00:00:00 | 00:00:00 | 00:00:00 | |
| DL1XH-west | 2026-08-30 06:04:55 | 52.43067 | 15.02105 | 78° | 33km/h | 19738m | -6.1m/s | -54.8°C | 1.3% | 60.7hPa | 2.6V | 18:12:15 | 01:47:46 | 00:00:00 | |
| AA1-15 | 2026-08-30 06:04:52 | 52.43072 | 15.02069 | 125° | 29km/h | 19755m | -5.6m/s | -54.7°C | 1.2% | 60.5hPa | 2.7V | 18:12:15 | 01:47:43 | 00:00:00 | |
| SONDE2-11 | 2026-08-30 06:04:50 | 52.43083 | 15.02055 | 156° | 24km/h | 19767m | -6.5m/s | -54.7°C | 1.4% | 60.4hPa | 2.6V | 00:00:00 | 00:00:00 | 00:00:00 | |
| EDDB2-12 | 2026-08-30 06:04:49 | 52.43094 | 15.02053 | 192° | 18km/h | 19780m | -6.7m/s | -54.6°C | 1.4% | 60.3hPa | 2.6V | 00:00:00 | 00:00:00 | 00:00:00 | |
| DM0DOS-11 | 2026-08-30 06:04:46 | 52.43100 | 15.02076 | 314° | 16km/h | 19810m | -6.3m/s | -54.2°C | 5.1% | 60hPa | 2.6V | 08:30:00 | 01:47:34 | 00:00:00 | |
| DL1XH1-15 | 2026-08-30 06:04:46 | 52.43102 | 15.02065 | 263° | 13km/h | 19798m | -6.2m/s | -54.4°C | 5.2% | 60.1hPa | 2.7V | 08:30:00 | 01:47:36 | 00:00:00 | |
| DF8AY | 2026-08-30 06:04:46 | 52.43100 | 15.02060 | 238° | 15km/h | 19792m | -5.9m/s | -54.5°C | 1.2% | 60.1hPa | 2.7V | 18:12:15 | 01:47:37 | 00:00:00 | |
| DL1XH-west | 2026-08-30 06:04:44 | 52.43101 | 15.02071 | 289° | 16km/h | 19804m | -6.8m/s | -54.3°C | 1.1% | 60hPa | 2.6V | 18:12:15 | 01:47:35 | 00:00:00 | |
| AA1-15 | 2026-08-30 06:04:41 | 52.43091 | 15.02081 | 4° | 22km/h | 19822m | -6m/s | -54.2°C | 1.1% | 59.9hPa | 2.7V | 18:12:15 | 01:47:32 | 00:00:00 | |
| KRY50SP-1 | 2026-08-30 06:04:40 | 52.43091 | 15.02081 | 5° | 22km/h | 19822m | -6.0m/s | -54.2°C | 1.3% | 59.9hPa | 2.7V | 00:00:00 | 00:00:00 | 00:00:00 | |
| SP3BTT-10 | 2026-08-30 06:04:37 | 52.43072 | 15.02062 | 64° | 15km/h | 19846m | -5.5m/s | -54.2°C | 5.2% | 59.6hPa | 2.7V | 00:00:00 | 00:00:00 | 00:00:00 | |
| DM0DOS-11 | 2026-08-30 06:04:36 | 52.43073 | 15.02022 | 119° | 27km/h | 19867m | -5.2m/s | -54.3°C | 5.3% | 59.4hPa | 2.7V | 08:30:00 | 01:47:24 | 00:00:00 | |
| DL1XH1-15 | 2026-08-30 06:04:36 | 52.43069 | 15.02042 | 92° | 27km/h | 19857m | -5.6m/s | -54.3°C | 5.3% | 59.5hPa | 2.7V | 08:30:00 | 01:47:26 | 00:00:00 | |
| DF8AY | 2026-08-30 06:04:36 | 52.43070 | 15.02053 | 75° | 26km/h | 19851m | -5.7m/s | -54.3°C | 1.2% | 59.6hPa | 2.6V | 18:12:15 | 01:47:27 | 00:00:00 | |
| DL1XH-west | 2026-08-30 06:04:33 | 52.43073 | 15.02022 | 119° | 27km/h | 19867m | -5.2m/s | -54.3°C | 1.2% | 59.5hPa | 2.7V | 18:12:15 | 01:47:24 | 00:00:00 | |
| AA1-15 | 2026-08-30 06:04:31 | 52.43082 | 15.02006 | 144° | 27km/h | 19878m | -6.2m/s | -54.2°C | 1.1% | 59.3hPa | 2.6V | 18:12:15 | 01:47:22 | 00:00:00 | |
| SONDE2-12 | 2026-08-30 06:04:28 | 52.43100 | 15.01998 | 187° | 26km/h | 19899m | -6.7m/s | -54.1°C | 1.7% | 59.1hPa | 2.6V | 00:00:00 | 00:00:00 | 00:00:00 | |
| DF8AY | 2026-08-30 06:04:26 | 52.43116 | 15.02014 | 235° | 26km/h | 19918m | -6.6m/s | -54.1°C | 1% | 59hPa | 2.6V | 18:12:15 | 01:47:16 | 00:00:00 | |
| DM0DOS-11 | 2026-08-30 06:04:26 | 52.43120 | 15.02034 | 265° | 26km/h | 19931m | -7.2m/s | -54°C | 5% | 58.8hPa | 2.7V | 08:30:00 | 01:47:14 | 00:00:00 | |
| DL1XH-west | 2026-08-30 06:04:23 | 52.43120 | 15.02034 | 266° | 26km/h | 19931m | -7.2m/s | -54°C | 1% | 58.8hPa | 2.7V | 18:12:15 | 01:47:14 | 00:00:00 | |
| AA1-15 | 2026-08-30 06:04:20 | 52.43113 | 15.02057 | 321° | 20km/h | 19951m | -6.3m/s | -53.8°C | 0.9% | 58.7hPa | 2.6V | 18:12:15 | 01:47:11 | 00:00:00 | |
| SONDE2-11 | 2026-08-30 06:04:19 | 52.43105 | 15.02060 | 9° | 18km/h | 19963m | -5.8m/s | -53.8°C | 1.2% | 58.6hPa | 2.7V | 00:00:00 | 00:00:00 | 00:00:00 | |
| EDDB2-12 | 2026-08-30 06:04:18 | 52.43100 | 15.02058 | 22° | 16km/h | 19969m | -5.3m/s | -53.8°C | 1.3% | 58.5hPa | 2.7V | 00:00:00 | 00:00:00 | 00:00:00 | |
| DL1XH1-15 | 2026-08-30 06:04:16 | 52.43094 | 15.02049 | 61° | 18km/h | 19980m | -5.9m/s | -53.8°C | 4.7% | 58.4hPa | 2.7V | 08:30:00 | 01:47:06 | 00:00:00 | |
| DM0DOS-11 | 2026-08-30 06:04:16 | 52.43092 | 15.02035 | 88° | 16km/h | 19992m | -5.5m/s | -53.8°C | 4.7% | 58.3hPa | 2.6V | 08:30:00 | 01:47:04 | 00:00:00 | |
| DF8AY | 2026-08-30 06:04:14 | 52.43092 | 15.02042 | 75° | 18km/h | 19986m | -5.8m/s | -53.8°C | 0.8% | 58.4hPa | 2.6V | 18:12:15 | 01:47:05 | 00:00:00 | |
| DL1XH-west | 2026-08-30 06:04:12 | 52.43092 | 15.02028 | 97° | 16km/h | 19997m | -5.5m/s | -53.8°C | 0.8% | 58.3hPa | 2.6V | 18:12:15 | 01:47:03 | 00:00:00 | |
| AA1-15 | 2026-08-30 06:04:09 | 52.43097 | 15.02012 | 146° | 13km/h | 20014m | -5.2m/s | -53.8°C | 0.7% | 58.1hPa | 2.7V | 18:12:15 | 01:47:00 | 00:00:00 | |
| SQ2ODE-11 | 2026-08-30 06:04:08 | 52.43097 | 15.02012 | 147° | 13km/h | 20014m | -5.2m/s | -53.8°C | 1.2% | 58.1hPa | 2.7V | 00:00:00 | 00:00:00 | 00:00:00 | |
| KRY50SP-1 | 2026-08-30 06:04:07 | 52.43099 | 15.02010 | 160° | 15km/h | 20019m | -5.4m/s | -53.9°C | 1.2% | 58.1hPa | 2.7V | 00:00:00 | 00:00:00 | 00:00:00 | |
| DL1XH1-15 | 2026-08-30 06:04:06 | 52.43111 | 15.02012 | 202° | 18km/h | 20034m | -5.2m/s | -53.9°C | 4.9% | 57.9hPa | 2.7V | 08:30:00 | 01:46:56 | 00:00:00 | |
| DF8AY | 2026-08-30 06:04:04 | 52.43115 | 15.02015 | 205° | 20km/h | 20039m | -5.1m/s | -54°C | 0.8% | 57.9hPa | 2.7V | 18:12:15 | 01:46:55 | 00:00:00 | |
| DL1XH-west | 2026-08-30 06:04:01 | 52.43127 | 15.02031 | 229° | 18km/h | 20056m | -5.9m/s | -54.1°C | 0.8% | 57.7hPa | 2.6V | 18:12:15 | 01:46:52 | 00:00:00 | |
| AA1-15 | 2026-08-30 06:03:58 | 52.43132 | 15.02049 | 276° | 13km/h | 20075m | -5.8m/s | -54.1°C | 0.6% | 57.6hPa | 2.7V | 18:12:15 | 01:46:49 | 00:00:00 | |
| DO3MHA-11 | 2026-08-30 06:03:57 | 52.43131 | 15.02054 | 298° | 13km/h | 20081m | -5.3m/s | 0°C | 0% | 0hPa | 2.7V | 00:00:00 | 01:46:48 | 00:00:00 | |
| DM0DOS-11 | 2026-08-30 06:03:56 | 52.43120 | 15.02062 | 11° | 13km/h | 20127m | -20.9m/s | -54°C | 4.5% | 57.2hPa | 2.7V | 08:30:00 | 01:46:44 | 00:00:00 | |
| DL1XH1-15 | 2026-08-30 06:03:56 | 52.43126 | 15.02061 | 331° | 13km/h | 20092m | -6.4m/s | -54.1°C | 4.5% | 57.4hPa | 2.6V | 08:30:00 | 01:46:46 | 00:00:00 | |
| DB0DAN | 2026-08-30 06:03:55 | 52.43126 | 15.02061 | 332° | 13km/h | 20092m | -6.4m/s | -54.1°C | 1% | 57.43hPa | 2.6V | 00:00:00 | 00:00:00 | 00:00:00 | |
| DF8AY | 2026-08-30 06:03:53 | 52.43120 | 15.02062 | 11° | 13km/h | 20127m | -20.9m/s | -54.1°C | 0.5% | 57.3hPa | 2.7V | 18:12:15 | 01:46:44 | 00:00:00 | |
| DL1XH-west | 2026-08-30 06:03:50 | 52.43111 | 15.02058 | 15° | 13km/h | 20151m | 6.2m/s | -53.9°C | 0.4% | 56.9hPa | 2.6V | 18:12:15 | 01:46:41 | 00:00:00 | |
| DF8AY | 2026-08-30 06:03:49 | 52.43090 | 15.02049 | 8° | 11km/h | 20116m | 4.1m/s | -54°C | 0.6% | 57.2hPa | 2.6V | 18:12:15 | 01:46:34 | 00:00:00 | |
| AA1-15 | 2026-08-30 06:03:47 | 52.43102 | 15.02053 | 20° | 11km/h | 20135m | 5.7m/s | -54.1°C | 0.5% | 57hPa | 2.7V | 18:12:15 | 01:46:38 | 00:00:00 | |
| DO3MHA-11 | 2026-08-30 06:03:47 | 52.43102 | 15.02053 | 20° | 9km/h | 20135m | 5.7m/s | 0°C | 0% | 0hPa | 2.6V | 00:00:00 | 01:46:38 | 00:00:00 | |
| DM0DOS-11 | 2026-08-30 06:03:46 | 52.43090 | 15.02049 | 8° | 11km/h | 20116m | 4m/s | -54°C | 4.6% | 57.2hPa | 2.6V | 08:30:00 | 01:46:34 | 00:00:00 | |
| D01LWL | 2026-08-30 06:03:44 | 52.43093 | 15.02049 | 8° | 11km/h | 20120m | 5.3m/s | -54.0°C | 1.0% | 57.1hPa | 2.7V | 00:00:00 | 00:00:00 | 00:00:00 | |
| OE3JTB-15 | 2026-08-30 06:03:42 | 52.43087 | 15.02048 | 11° | 7km/h | 20111m | 5.6m/s | 0°C | 0% | 0hPa | 2.7V | 00:00:00 | 00:00:00 | 00:00:00 | |
| DB0DAN | 2026-08-30 06:03:40 | 52.43082 | 15.02046 | 4° | 9km/h | 20101m | 6m/s | -54.1°C | 1% | 57.3hPa | 2.7V | 00:00:00 | 00:00:00 | 00:00:00 | |
| DL1XH-west | 2026-08-30 06:03:40 | 52.43082 | 15.02046 | 4° | 9km/h | 20101m | 6m/s | -54.1°C | 0.5% | 57.3hPa | 2.7V | 18:12:15 | 01:46:31 | 00:00:00 | |
| KRY50SP-1 | 2026-08-30 06:03:39 | 52.43082 | 15.02046 | 5° | 9km/h | 20102m | 6.0m/s | -54.1°C | 1.0% | 57.3hPa | 2.7V | 00:00:00 | 00:00:00 | 00:00:00 | |
| DM0DOS-11 | 2026-08-30 06:03:37 | 52.43070 | 15.02056 | 301° | 9km/h | 20070m | 3.5m/s | -54.1°C | 4.6% | 57.6hPa | 2.7V | 08:30:00 | 01:46:24 | 00:00:00 | |
| DL1XH1-15 | 2026-08-30 06:03:37 | 52.43073 | 15.02051 | 325° | 9km/h | 20079m | 5.5m/s | -54.1°C | 4.6% | 57.5hPa | 2.7V | 08:30:00 | 01:46:26 | 00:00:00 | |
| AA1-15 | 2026-08-30 06:03:36 | 52.43075 | 15.02049 | 337° | 9km/h | 20084m | 3.1m/s | -54.1°C | 0.6% | 57.5hPa | 2.6V | 18:12:15 | 01:46:27 | 00:00:00 | |
| DF8AY | 2026-08-30 06:03:33 | 52.43070 | 15.02056 | 302° | 9km/h | 20070m | 3.6m/s | -54.1°C | 0.5% | 57.6hPa | 2.7V | 18:12:15 | 01:46:24 | 00:00:00 | |
| DL1XH-west | 2026-08-30 06:03:29 | 52.43063 | 15.02063 | 340° | 7km/h | 20053m | 5.6m/s | -54°C | 0.6% | 57.7hPa | 2.7V | 18:12:15 | 01:46:20 | 00:00:00 | |
| DM0DOS-11 | 2026-08-30 06:03:27 | 52.43060 | 15.02067 | 225° | 2km/h | 20024m | 3.3m/s | -53.9°C | 4.5% | 58hPa | 2.7V | 08:30:00 | 01:46:14 | 00:00:00 | |
| DL1XH1-15 | 2026-08-30 06:03:26 | 52.43060 | 15.02066 | 344° | 2km/h | 20034m | 4m/s | -53.9°C | 4.5% | 57.9hPa | 2.6V | 08:30:00 | 01:46:16 | 00:00:00 | |
| SONDE2-12 | 2026-08-30 06:03:26 | 52.43061 | 15.02065 | 344° | 2km/h | 20038m | 5.2m/s | -53.9°C | 1.3% | 57.9hPa | 2.6V | 00:00:00 | 00:00:00 | 00:00:00 | |
| DB0DAN | 2026-08-30 06:03:25 | 52.43060 | 15.02066 | 345° | 2km/h | 20034m | 4m/s | -53.9°C | 1% | 57.92hPa | 2.6V | 00:00:00 | 00:00:00 | 00:00:00 | |
| AA1-15 | 2026-08-30 06:03:25 | 52.43060 | 15.02066 | 345° | 2km/h | 20034m | 4m/s | -53.9°C | 0.5% | 57.9hPa | 2.6V | 18:12:15 | 01:46:16 | 00:00:00 | |
| DF8AY | 2026-08-30 06:03:22 | 52.43060 | 15.02067 | 248° | 2km/h | 20020m | 5.6m/s | -53.9°C | 0.4% | 58.1hPa | 2.7V | 18:12:15 | 01:46:13 | 00:00:00 | |
| DL1XH-west | 2026-08-30 06:03:18 | 52.43063 | 15.02075 | 220° | 9km/h | 20001m | 3.9m/s | -53.9°C | 0.5% | 58.2hPa | 2.6V | 18:12:15 | 01:46:09 | 00:00:00 | |
| KRY50SP-1 | 2026-08-30 06:03:17 | 52.43063 | 15.02075 | 221° | 9km/h | 20001m | 3.9m/s | -53.9°C | 1.0% | 58.2hPa | 2.7V | 00:00:00 | 00:00:00 | 00:00:00 | |
| DL1XH1-15 | 2026-08-30 06:03:16 | 52.43067 | 15.02080 | 200° | 4km/h | 19987m | 4.2m/s | -53.9°C | 4.5% | 58.3hPa | 2.7V | 08:30:00 | 01:46:06 | 00:00:00 | |
| AA1-15 | 2026-08-30 06:03:14 | 52.43068 | 15.02080 | 197° | 4km/h | 19982m | 5.2m/s | -53.9°C | 0.5% | 58.4hPa | 2.6V | 18:12:15 | 01:46:05 | 00:00:00 | |
| DF8AY | 2026-08-30 06:03:11 | 52.43069 | 15.02082 | 311° | 2km/h | 19968m | 3.8m/s | -53.9°C | 0.5% | 58.5hPa | 2.7V | 18:12:15 | 01:46:02 | 00:00:00 | |
| DL1XH-west | 2026-08-30 06:03:08 | 52.43070 | 15.02085 | 210° | 5km/h | 19954m | 4.2m/s | -54.1°C | 0.5% | 58.6hPa | 2.6V | 18:12:15 | 01:45:59 | 00:00:00 | |
| SQ2ODE-11 | 2026-08-30 06:03:07 | 52.43069 | 15.02085 | 211° | 5km/h | 19954m | 4.2m/s | -54.1°C | 1.0% | 58.6hPa | 2.7V | 00:00:00 | 00:00:00 | 00:00:00 | |
| DM0DOS-11 | 2026-08-30 06:03:06 | 52.43077 | 15.02089 | 177° | 7km/h | 19931m | 3.2m/s | -54.2°C | 4.7% | 58.9hPa | 2.7V | 08:30:00 | 01:45:54 | 00:00:00 | |
| AA1-15 | 2026-08-30 06:03:03 | 52.43077 | 15.02089 | 177° | 7km/h | 19931m | 3.2m/s | -54.3°C | 0.6% | 58.9hPa | 2.7V | 18:12:15 | 01:45:54 | 00:00:00 | |
| DF8AY | 2026-08-30 06:03:00 | 52.43080 | 15.02087 | 130° | 4km/h | 19917m | 5.9m/s | -54.2°C | 0.5% | 59hPa | 2.6V | 18:12:15 | 01:45:51 | 00:00:00 | |
| DL1XH-west | 2026-08-30 06:02:57 | 52.43081 | 15.02084 | 32° | 2km/h | 19902m | 4.5m/s | -54.3°C | 0.5% | 59.1hPa | 2.7V | 18:12:15 | 01:45:48 | 00:00:00 | |
| DM0DOS-11 | 2026-08-30 06:02:56 | 52.43083 | 15.02086 | 214° | 5km/h | 19883m | 4.9m/s | -54.4°C | 4.6% | 59.3hPa | 2.7V | 08:30:00 | 01:45:44 | 00:00:00 | |
| SONDE2-12 | 2026-08-30 06:02:55 | 52.43081 | 15.02084 | 207° | 2km/h | 19893m | 5.1m/s | -54.4°C | 1.3% | 59.2hPa | 2.7V | 00:00:00 | 00:00:00 | 00:00:00 | |
| AA1-15 | 2026-08-30 06:02:52 | 52.43084 | 15.02087 | 209° | 4km/h | 19879m | 4.5m/s | -54.4°C | 0.5% | 59.4hPa | 2.7V | 18:12:15 | 01:45:43 | 00:00:00 | |
| DF8AY | 2026-08-30 06:02:49 | 52.43088 | 15.02087 | 151° | 7km/h | 19865m | 3.5m/s | -54.3°C | 0.5% | 59.5hPa | 2.6V | 18:12:15 | 01:45:40 | 00:00:00 | |
| DM0DOS-11 | 2026-08-30 06:02:46 | 52.43092 | 15.02059 | 98° | 13km/h | 19837m | 5m/s | -54.2°C | 4.5% | 59.8hPa | 2.6V | 08:30:00 | 01:45:34 | 00:00:00 | |
| DL1XH1-15 | 2026-08-30 06:02:46 | 52.43090 | 15.02071 | 97° | 15km/h | 19846m | 5.3m/s | -54.2°C | 4.5% | 59.7hPa | 2.7V | 08:30:00 | 01:45:36 | 00:00:00 | |
| DL1XH-west | 2026-08-30 06:02:46 | 52.43090 | 15.02077 | 93° | 13km/h | 19851m | 4.6m/s | -54.2°C | 0.5% | 59.6hPa | 2.7V | 18:12:15 | 01:45:37 | 00:00:00 | |
| SONDE2-11 | 2026-08-30 06:02:46 | 52.43091 | 15.02071 | 97° | 15km/h | 19846m | 5.3m/s | -54.2°C | 1.0% | 59.7hPa | 2.7V | 00:00:00 | 00:00:00 | 00:00:00 | |
| EDDB2-12 | 2026-08-30 06:02:45 | 52.43091 | 15.02065 | 102° | 13km/h | 19842m | 3.8m/s | -54.2°C | 1.0% | 59.7hPa | 2.7V | 00:00:00 | 00:00:00 | 00:00:00 | |
| AA1-15 | 2026-08-30 06:02:41 | 52.43092 | 15.02051 | 95° | 7km/h | 19828m | 4m/s | -54.3°C | 0.5% | 59.8hPa | 2.7V | 18:12:15 | 01:45:32 | 00:00:00 | |
| DF8AY | 2026-08-30 06:02:39 | 52.43093 | 15.02046 | 136° | 5km/h | 19818m | 4.5m/s | -54.5°C | 0.5% | 59.9hPa | 2.7V | 18:12:15 | 01:45:30 | 00:00:00 | |
| 13BRC | 2026-08-30 06:02:38 | 52.43093 | 15.02045 | 137° | 5km/h | 19818m | 4.5m/s | -54.5°C | 1.1% | 59.9hPa | 2.7V | 00:00:00 | 00:00:00 | 00:00:00 | |
| SP3BTT-10 | 2026-08-30 06:02:37 | 52.43095 | 15.02043 | 111° | 7km/h | 19809m | 4.9m/s | -54.6°C | 4.8% | 60.0hPa | 2.7V | 00:00:00 | 00:00:00 | 00:00:00 | |
| DL1XH1-15 | 2026-08-30 06:02:36 | 52.43095 | 15.02040 | 109° | 4km/h | 19798m | 4.9m/s | -54.7°C | 4.8% | 60.1hPa | 2.7V | 08:30:00 | 01:45:26 | 00:00:00 | |
| DL1XH-west | 2026-08-30 06:02:35 | 52.43095 | 15.02040 | 109° | 4km/h | 19799m | 4.9m/s | -54.7°C | 0.7% | 60.1hPa | 2.7V | 18:12:15 | 01:45:26 | 00:00:00 | |
| AA1-15 | 2026-08-30 06:02:30 | 52.43092 | 15.02022 | 81° | 11km/h | 19775m | 4.2m/s | -54.8°C | 0.6% | 60.3hPa | 2.6V | 18:12:15 | 01:45:21 | 00:00:00 | |
| DF8AY | 2026-08-30 06:02:28 | 52.43090 | 15.02013 | 66° | 9km/h | 19765m | 5m/s | -54.9°C | 0.6% | 60.4hPa | 2.7V | 18:12:15 | 01:45:19 | 00:00:00 | |
| KRY50SP-1 | 2026-08-30 06:02:27 | 52.43090 | 15.02013 | 67° | 9km/h | 19765m | 5.0m/s | -54.9°C | 1.1% | 60.4hPa | 2.7V | 00:00:00 | 00:00:00 | 00:00:00 | |
| DM0DOS-11 | 2026-08-30 06:02:26 | 52.43088 | 15.02000 | 68° | 7km/h | 19741m | 4.9m/s | -54.9°C | 4.7% | 60.7hPa | 2.7V | 08:30:00 | 01:45:14 | 00:00:00 | |
| DB0DAN | 2026-08-30 06:02:25 | 52.43089 | 15.02005 | 95° | 5km/h | 19750m | 4.1m/s | -54.9°C | 1.1% | 60.58hPa | 2.6V | 00:00:00 | 00:00:00 | 00:00:00 | |
| DL1XH-west | 2026-08-30 06:02:25 | 52.43089 | 15.02005 | 95° | 5km/h | 19750m | 4.1m/s | -54.9°C | 0.6% | 60.6hPa | 2.6V | 18:12:15 | 01:45:16 | 00:00:00 | |
| SONDE2-12 | 2026-08-30 06:02:24 | 52.43089 | 15.02003 | 84° | 5km/h | 19746m | 4.6m/s | -54.9°C | 1.4% | 60.6hPa | 2.6V | 00:00:00 | 00:00:00 | 00:00:00 | |
| AA1-15 | 2026-08-30 06:02:20 | 52.43085 | 15.01989 | 71° | 11km/h | 19727m | 4.2m/s | -55°C | 0.6% | 60.8hPa | 2.6V | 18:12:15 | 01:45:11 | 00:00:00 | |
| DF8AY | 2026-08-30 06:02:17 | 52.43081 | 15.01977 | 52° | 13km/h | 19713m | 4.2m/s | -55°C | 0.6% | 60.9hPa | 2.7V | 18:12:15 | 01:45:08 | 00:00:00 | |
| DM0DOS-11 | 2026-08-30 06:02:16 | 52.43075 | 15.01964 | 39° | 9km/h | 19693m | 4.5m/s | -55.2°C | 4.8% | 61.1hPa | 2.6V | 08:30:00 | 01:45:04 | 00:00:00 | |
| DL1XH1-15 | 2026-08-30 06:02:16 | 52.43077 | 15.01970 | 59° | 9km/h | 19703m | 3.9m/s | -55.1°C | 4.8% | 61hPa | 2.7V | 08:30:00 | 01:45:06 | 00:00:00 | |
| DL1XH-west | 2026-08-30 06:02:15 | 52.43078 | 15.01970 | 60° | 9km/h | 19703m | 3.9m/s | -55.1°C | 0.6% | 61hPa | 2.7V | 18:12:15 | 01:45:06 | 00:00:00 | |
| SONDE2-11 | 2026-08-30 06:02:15 | 52.43076 | 15.01966 | 52° | 7km/h | 19699m | 5.8m/s | -55.1°C | 1.1% | 61.1hPa | 2.7V | 00:00:00 | 00:00:00 | 00:00:00 | |
| EDDB2-12 | 2026-08-30 06:02:13 | 52.43075 | 15.01964 | 39° | 7km/h | 19693m | 4.6m/s | -55.2°C | 1.1% | 61.1hPa | 2.7V | 00:00:00 | 00:00:00 | 00:00:00 | |
| POL1PZ | 2026-08-30 06:02:11 | 52.43073 | 15.01962 | 35° | 7km/h | 19689m | 4.6m/s | -55.3°C | 1.1% | 61.1hPa | 2.7V | 00:00:00 | 00:00:00 | 00:00:00 | |
| DB0DAN | 2026-08-30 06:02:10 | 52.43071 | 15.01960 | 16° | 5km/h | 19679m | 4.1m/s | -55.1°C | 1.1% | 61.24hPa | 2.7V | 00:00:00 | 00:00:00 | 00:00:00 | |
| AA1-15 | 2026-08-30 06:02:09 | 52.43069 | 15.01959 | 9° | 7km/h | 19675m | 5.2m/s | -55.2°C | 0.6% | 61.3hPa | 2.7V | 18:12:15 | 01:45:00 | 00:00:00 | |
| EDDB2-11 | 2026-08-30 06:02:07 | 52.43066 | 15.01958 | 25° | 5km/h | 19666m | 5.5m/s | -55.2°C | 1.1% | 61.4hPa | 2.7V | 00:00:00 | 00:00:00 | 00:00:00 | |
| DL1XH1-15 | 2026-08-30 06:02:06 | 52.43064 | 15.01954 | 69° | 7km/h | 19656m | 4m/s | -55.2°C | 5% | 61.5hPa | 2.7V | 08:30:00 | 01:44:56 | 00:00:00 | |
| DF8AY | 2026-08-30 06:02:06 | 52.43065 | 15.01956 | 55° | 5km/h | 19661m | 4.5m/s | -55.3°C | 0.7% | 61.4hPa | 2.6V | 18:12:15 | 01:44:57 | 00:00:00 | |
| DL1XH-west | 2026-08-30 06:02:04 | 52.43063 | 15.01951 | 65° | 9km/h | 19651m | 5.9m/s | -55.2°C | 0.7% | 61.5hPa | 2.7V | 18:12:15 | 01:44:55 | 00:00:00 | |
| AA1-15 | 2026-08-30 06:01:58 | 52.43058 | 15.01940 | 342° | 5km/h | 19624m | 4.5m/s | -55.2°C | 0.7% | 61.8hPa | 2.7V | 18:12:15 | 01:44:49 | 00:00:00 | |
| 13BRC | 2026-08-30 06:01:57 | 52.43058 | 15.01940 | 343° | 5km/h | 19624m | 4.5m/s | -55.1°C | 1.1% | 61.8hPa | 2.7V | 00:00:00 | 00:00:00 | 00:00:00 | |
| DM0DOS-11 | 2026-08-30 06:01:56 | 52.43051 | 15.01949 | 331° | 9km/h | 19600m | 4.9m/s | -55.1°C | 4.9% | 62hPa | 2.7V | 08:30:00 | 01:44:44 | 00:00:00 | |
| DL1XH1-15 | 2026-08-30 06:01:56 | 52.43053 | 15.01945 | 308° | 7km/h | 19610m | 4.8m/s | -55°C | 4.8% | 61.9hPa | 2.6V | 08:30:00 | 01:44:46 | 00:00:00 | |
| DF8AY | 2026-08-30 06:01:56 | 52.43055 | 15.01943 | 318° | 7km/h | 19615m | 4.9m/s | -55°C | 0.6% | 61.9hPa | 2.6V | 18:12:15 | 01:44:47 | 00:00:00 | |
| DB0DAN | 2026-08-30 06:01:55 | 52.43054 | 15.01945 | 309° | 7km/h | 19610m | 4.8m/s | -55°C | 1.1% | 61.91hPa | 2.6V | 00:00:00 | 00:00:00 | 00:00:00 | |
| DL1XH-west | 2026-08-30 06:01:54 | 52.43052 | 15.01947 | 319° | 7km/h | 19605m | 5.5m/s | -55°C | 0.6% | 62hPa | 2.6V | 18:12:15 | 01:44:45 | 00:00:00 | |
| SONDE2-12 | 2026-08-30 06:01:53 | 52.43049 | 15.01950 | 342° | 7km/h | 19595m | 4.5m/s | -55.1°C | 1.4% | 62.0hPa | 2.7V | 00:00:00 | 00:00:00 | 00:00:00 | |
| AA1-15 | 2026-08-30 06:01:47 | 52.43041 | 15.01947 | 41° | 5km/h | 19572m | 5.2m/s | -55.1°C | 0.7% | 62.3hPa | 2.7V | 18:12:15 | 01:44:38 | 00:00:00 | |
| DF8AY | 2026-08-30 06:01:46 | 52.43040 | 15.01945 | 30° | 5km/h | 19567m | 4.3m/s | -55°C | 0.6% | 62.3hPa | 2.7V | 18:12:15 | 01:44:37 | 00:00:00 | |
| DM0DOS-11 | 2026-08-30 06:01:46 | 52.43036 | 15.01943 | 0° | 7km/h | 19552m | 5.7m/s | -54.9°C | 4.8% | 62.5hPa | 2.6V | 08:30:00 | 01:44:34 | 00:00:00 | |
| DL1XH1-15 | 2026-08-30 06:01:46 | 52.43039 | 15.01944 | 17° | 7km/h | 19562m | 5.5m/s | 0°C | 0% | 0hPa | 2.7V | 08:30:00 | 01:44:36 | 00:00:00 | |
| DL1XH-west | 2026-08-30 06:01:43 | 52.43035 | 15.01944 | 1° | 7km/h | 19552m | 5.7m/s | -54.9°C | 0.6% | 62.5hPa | 2.6V | 18:12:15 | 01:44:34 | 00:00:00 | |
| DJ2DS-15 | 2026-08-30 06:01:42 | 52.43034 | 15.01943 | 358° | 11km/h | 19547m | 4.3m/s | -54.9°C | 4.9% | 62.5hPa | 2.7V | 00:00:00 | 01:44:33 | 00:00:00 | |
| DB0DAN | 2026-08-30 06:01:40 | 52.43029 | 15.01944 | 2° | 11km/h | 19537m | 5.2m/s | -55°C | 1.1% | 62.64hPa | 2.7V | 00:00:00 | 00:00:00 | 00:00:00 | |
| D01LWL | 2026-08-30 06:01:40 | 52.43029 | 15.01944 | 1° | 11km/h | 19538m | 5.2m/s | -55.0°C | 1.1% | 62.6hPa | 2.7V | 00:00:00 | 00:00:00 | 00:00:00 | |
| SQ2ODE-11 | 2026-08-30 06:01:39 | 52.43029 | 15.01944 | 3° | 11km/h | 19538m | 5.2m/s | -55.0°C | 1.1% | 62.6hPa | 2.7V | 00:00:00 | 00:00:00 | 00:00:00 | |
| SP3BTT-10 | 2026-08-30 06:01:37 | 52.43021 | 15.01941 | 17° | 11km/h | 19523m | 3.7m/s | -54.9°C | 4.8% | 62.7hPa | 2.7V | 00:00:00 | 00:00:00 | 00:00:00 | |
| DM0DOS-11 | 2026-08-30 06:01:36 | 52.43007 | 15.01932 | 30° | 13km/h | 19503m | 4.2m/s | -54.9°C | 4.8% | 63hPa | 2.7V | 08:30:00 | 01:44:24 | 00:00:00 | |
| DL1XH1-15 | 2026-08-30 06:01:36 | 52.43014 | 15.01937 | 22° | 16km/h | 19513m | 4.3m/s | -54.9°C | 4.8% | 62.9hPa | 2.7V | 08:30:00 | 01:44:26 | 00:00:00 | |
| AA1-15 | 2026-08-30 06:01:36 | 52.43017 | 15.01940 | 19° | 15km/h | 19518m | 5.9m/s | -54.9°C | 0.6% | 62.8hPa | 2.6V | 18:12:15 | 01:44:27 | 00:00:00 | |
| DF8AY | 2026-08-30 06:01:34 | 52.43010 | 15.01935 | 27° | 15km/h | 19508m | 5.5m/s | -54.9°C | 0.6% | 62.9hPa | 2.7V | 18:12:15 | 01:44:25 | 00:00:00 | |
| DL1XH-west | 2026-08-30 06:01:32 | 52.43004 | 15.01930 | 26° | 13km/h | 19499m | 5.1m/s | -54.9°C | 0.6% | 63hPa | 2.6V | 18:12:15 | 01:44:23 | 00:00:00 | |
| KRY50SP-1 | 2026-08-30 06:01:31 | 52.43004 | 15.01930 | 27° | 13km/h | 19499m | 5.1m/s | -54.9°C | 1.1% | 63.0hPa | 2.7V | 00:00:00 | 00:00:00 | 00:00:00 | |
| POL1PZ | 2026-08-30 06:01:30 | 52.43001 | 15.01927 | 17° | 15km/h | 19494m | 4.9m/s | -54.8°C | 1.1% | 63.1hPa | 2.7V | 00:00:00 | 00:00:00 | 00:00:00 | |
| SQ2ODE-11 | 2026-08-30 06:01:28 | 52.42995 | 15.01925 | 7° | 11km/h | 19484m | 6.0m/s | -54.8°C | 1.1% | 63.2hPa | 2.7V | 00:00:00 | 00:00:00 | 00:00:00 | |
| S3001 | 2026-08-30 06:01:27 | 52.42990 | 15.01925 | 357° | 9km/h | 19475m | 5.5m/s | -54.7°C | 1.1% | 63.3hPa | 2.7V | 00:00:00 | 00:00:00 | 00:00:00 | |
| DM0DOS-11 | 2026-08-30 06:01:26 | 52.42981 | 15.01924 | 22° | 7km/h | 19455m | 4.2m/s | -54.6°C | 4.8% | 63.5hPa | 2.7V | 08:30:00 | 01:44:14 | 00:00:00 | |
| DL1XH1-15 | 2026-08-30 06:01:26 | 52.42985 | 15.01925 | 2° | 9km/h | 19464m | 5.5m/s | -54.6°C | 4.7% | 63.4hPa | 2.6V | 08:30:00 | 01:44:16 | 00:00:00 | |
| DB0DAN | 2026-08-30 06:01:25 | 52.42985 | 15.01925 | 3° | 9km/h | 19464m | 5.5m/s | -54.6°C | 1.1% | 63.36hPa | 2.6V | 00:00:00 | 00:00:00 | 00:00:00 | |
| AA1-15 | 2026-08-30 06:01:25 | 52.42985 | 15.01925 | 3° | 9km/h | 19464m | 5.5m/s | -54.6°C | 0.5% | 63.4hPa | 2.6V | 18:12:15 | 01:44:16 | 00:00:00 | |
| DF8AY | 2026-08-30 06:01:23 | 52.42981 | 15.01924 | 22° | 7km/h | 19455m | 4.2m/s | -54.6°C | 0.6% | 63.5hPa | 2.7V | 18:12:15 | 01:44:14 | 00:00:00 | |
| SONDE2-12 | 2026-08-30 06:01:22 | 52.42977 | 15.01921 | 19° | 9km/h | 19446m | 3.7m/s | -54.5°C | 1.3% | 63.6hPa | 2.7V | 00:00:00 | 00:00:00 | 00:00:00 | |
| DL1XH-west | 2026-08-30 06:01:21 | 52.42977 | 15.01921 | 19° | 11km/h | 19446m | 3.7m/s | -54.5°C | 0.6% | 63.5hPa | 2.7V | 18:12:15 | 01:44:12 | 00:00:00 | |
| KRY50SP-1 | 2026-08-30 06:01:20 | 52.42977 | 15.01921 | 20° | 11km/h | 19446m | 3.7m/s | -54.5°C | 1.1% | 63.6hPa | 2.7V | 00:00:00 | 00:00:00 | 00:00:00 | |
| DL1XH1-15 | 2026-08-30 06:01:16 | 52.42965 | 15.01912 | 20° | 7km/h | 19417m | 5.3m/s | -54.5°C | 4.7% | 63.8hPa | 2.7V | 08:30:00 | 01:44:06 | 00:00:00 | |
| DM0DOS-11 | 2026-08-30 06:01:15 | 52.42963 | 15.01911 | 9° | 4km/h | 19408m | 4.6m/s | -54.5°C | 4.7% | 63.9hPa | 2.6V | 08:30:00 | 01:44:04 | 00:00:00 | |
| AA1-15 | 2026-08-30 06:01:14 | 52.42964 | 15.01911 | 27° | 4km/h | 19412m | 4.7m/s | -54.5°C | 0.5% | 63.9hPa | 2.6V | 18:12:15 | 01:44:05 | 00:00:00 | |
| DF8AY | 2026-08-30 06:01:12 | 52.42962 | 15.01911 | 356° | 5km/h | 19403m | 5.3m/s | -54.5°C | 0.5% | 64hPa | 2.6V | 18:12:15 | 01:44:03 | 00:00:00 | |
| DL1XH-west | 2026-08-30 06:01:11 | 52.42960 | 15.01911 | 354° | 7km/h | 19398m | 4.3m/s | -54.6°C | 0.5% | 64hPa | 2.7V | 18:12:15 | 01:44:02 | 00:00:00 | |
| POL1PZ | 2026-08-30 06:01:10 | 52.42960 | 15.01911 | 355° | 7km/h | 19398m | 4.3m/s | -54.6°C | 1.1% | 64.0hPa | 2.7V | 00:00:00 | 00:00:00 | 00:00:00 | |
| D01LWL | 2026-08-30 06:01:09 | 52.42955 | 15.01910 | 14° | 7km/h | 19383m | 6.0m/s | -54.5°C | 1.1% | 64.2hPa | 2.7V | 00:00:00 | 00:00:00 | 00:00:00 | |
| DM0DOS-11 | 2026-08-30 06:01:05 | 52.42944 | 15.01898 | 45° | 11km/h | 19360m | 4m/s | -54.6°C | 4.7% | 64.4hPa | 2.7V | 08:30:00 | 01:43:54 | 00:00:00 | |
| AA1-15 | 2026-08-30 06:01:03 | 52.42944 | 15.01898 | 46° | 11km/h | 19360m | 4m/s | -54.6°C | 0.5% | 64.4hPa | 2.7V | 18:12:15 | 01:43:54 | 00:00:00 | |
| DF8AY | 2026-08-30 06:01:02 | 52.42942 | 15.01895 | 32° | 11km/h | 19355m | 5.1m/s | -54.7°C | 0.5% | 64.5hPa | 2.6V | 18:12:15 | 01:43:53 | 00:00:00 | |
| DL1XH-west | 2026-08-30 06:01:00 | 52.42938 | 15.01893 | 6° | 7km/h | 19346m | 5.2m/s | -54.6°C | 0.6% | 64.6hPa | 2.6V | 18:12:15 | 01:43:51 | 00:00:00 | |
| SONCRA | 2026-08-30 06:00:57 | 52.42933 | 15.01894 | 349° | 9km/h | 19331m | 4.4m/s | -54.5°C | 1.1% | 64.7hPa | 2.6V | 00:00:00 | 00:00:00 | 00:00:00 | |
| DL1XH1-15 | 2026-08-30 06:00:56 | 52.42929 | 15.01895 | 4° | 9km/h | 19322m | 5m/s | -54.5°C | 4.9% | 64.8hPa | 2.6V | 08:30:00 | 01:43:46 | 00:00:00 | |
| AA1-15 | 2026-08-30 06:00:52 | 52.42921 | 15.01892 | 13° | 13km/h | 19307m | 4.2m/s | -54.5°C | 0.6% | 64.9hPa | 2.7V | 18:12:15 | 01:43:43 | 00:00:00 | |
| DF8AY | 2026-08-30 06:00:51 | 52.42918 | 15.01891 | 13° | 13km/h | 19303m | 5.3m/s | -54.5°C | 0.6% | 65hPa | 2.7V | 18:12:15 | 01:43:42 | 00:00:00 | |
| SONDE2-12 | 2026-08-30 06:00:51 | 52.42915 | 15.01890 | 10° | 9km/h | 19298m | 5.1m/s | -54.5°C | 1.4% | 65.1hPa | 2.6V | 00:00:00 | 00:00:00 | 00:00:00 | |
| DL1XH-west | 2026-08-30 06:00:49 | 52.42913 | 15.01889 | 7° | 11km/h | 19293m | 4.3m/s | -54.4°C | 0.6% | 65.1hPa | 2.6V | 18:12:15 | 01:43:40 | 00:00:00 | |
| DJ2DS-15 | 2026-08-30 06:00:49 | 52.42913 | 15.01889 | 7° | 9km/h | 19293m | 4.3m/s | -54.4°C | 1.1% | 65.1hPa | 2.7V | 00:00:00 | 00:00:00 | 00:00:00 | |
| KRY50SP-1 | 2026-08-30 06:00:47 | 52.42910 | 15.01889 | 1° | 13km/h | 19288m | 4.9m/s | -54.3°C | 1.1% | 65.1hPa | 2.7V | 00:00:00 | 00:00:00 | 00:00:00 | |
| DL1XH1-15 | 2026-08-30 06:00:46 | 52.42900 | 15.01890 | 344° | 11km/h | 19273m | 4m/s | -54.1°C | 4.5% | 65.3hPa | 2.7V | 08:30:00 | 01:43:36 | 00:00:00 | |
| AA1-15 | 2026-08-30 06:00:41 | 52.42889 | 15.01899 | 329° | 13km/h | 19255m | 5.6m/s | -54.1°C | 0.6% | 65.5hPa | 2.7V | 18:12:15 | 01:43:32 | 00:00:00 | |
| DL1XH-west | 2026-08-30 06:00:38 | 52.42881 | 15.01908 | 324° | 15km/h | 19241m | 4.9m/s | -54°C | 0.6% | 65.6hPa | 2.6V | 18:12:15 | 01:43:29 | 00:00:00 | |
| DF8AY | 2026-08-30 06:00:37 | 52.42878 | 15.01912 | 324° | 15km/h | 19237m | 4m/s | -54°C | 0.5% | 65.7hPa | 2.6V | 18:12:15 | 01:43:28 | 00:00:00 | |
| AA1-15 | 2026-08-30 06:00:30 | 52.42862 | 15.01925 | 338° | 11km/h | 19204m | 5m/s | -53.9°C | 0.4% | 66hPa | 2.6V | 18:12:15 | 01:43:21 | 00:00:00 | |
| DL1XH-west | 2026-08-30 06:00:28 | 52.42857 | 15.01931 | 322° | 15km/h | 19195m | 5m/s | -53.9°C | 0.5% | 66.1hPa | 2.7V | 18:12:15 | 01:43:19 | 00:00:00 | |
| DF8AY | 2026-08-30 06:00:27 | 52.42854 | 15.01936 | 312° | 16km/h | 19191m | 4m/s | -53.9°C | 0.4% | 66.1hPa | 2.7V | 18:12:15 | 01:43:18 | 00:00:00 | |
| MECKS9 | 2026-08-30 06:00:26 | 52.42854 | 15.01936 | 313° | 16km/h | 19191m | 4.0m/s | -53.9°C | 1.0% | 66.1hPa | 2.6V | 00:00:00 | 00:00:00 | 00:00:00 | |
| DB0DAN | 2026-08-30 06:00:25 | 52.42849 | 15.01947 | 297° | 15km/h | 19181m | 4.7m/s | -53.9°C | 1% | 66.21hPa | 2.6V | 00:00:00 | 00:00:00 | 00:00:00 | |
| SONDE2-12 | 2026-08-30 06:00:20 | 52.42842 | 15.01968 | 298° | 5km/h | 19154m | 5.1m/s | -53.9°C | 1.3% | 66.5hPa | 2.6V | 00:00:00 | 00:00:00 | 00:00:00 | |
| AA1-15 | 2026-08-30 06:00:19 | 52.42842 | 15.01968 | 298° | 5km/h | 19154m | 5.1m/s | -53.9°C | 0.4% | 66.5hPa | 2.6V | 18:12:15 | 01:43:10 | 00:00:00 | |
| DL1XH-west | 2026-08-30 06:00:17 | 52.42840 | 15.01973 | 293° | 7km/h | 19144m | 4.8m/s | -53.8°C | 0.4% | 66.6hPa | 2.7V | 18:12:15 | 01:43:08 | 00:00:00 | |
| DL1XH1-15 | 2026-08-30 06:00:16 | 52.42839 | 15.01980 | 282° | 9km/h | 19134m | 4.9m/s | -53.9°C | 4.5% | 66.7hPa | 2.7V | 08:30:00 | 01:43:06 | 00:00:00 | |
| DM0DOS-11 | 2026-08-30 06:00:15 | 52.42837 | 15.01988 | 288° | 11km/h | 19125m | 3.8m/s | -54°C | 4.5% | 66.8hPa | 2.6V | 08:30:00 | 01:43:04 | 00:00:00 | |
| KRY50SP-1 | 2026-08-30 06:00:12 | 52.42837 | 15.01988 | 290° | 11km/h | 19125m | 3.8m/s | -54.0°C | 1.1% | 66.8hPa | 2.7V | 00:00:00 | 00:00:00 | 00:00:00 | |
| DB0DAN | 2026-08-30 06:00:10 | 52.42835 | 15.02003 | 279° | 13km/h | 19111m | 5.8m/s | -54.1°C | 1% | 66.96hPa | 2.7V | 00:00:00 | 00:00:00 | 00:00:00 | |
| AA1-15 | 2026-08-30 06:00:09 | 52.42835 | 15.02008 | 279° | 15km/h | 19106m | 3.7m/s | -54.2°C | 0.5% | 67hPa | 2.7V | 18:12:15 | 01:43:00 | 00:00:00 | |
| DL1XH-west | 2026-08-30 06:00:07 | 52.42835 | 15.02020 | 260° | 15km/h | 19098m | 4.8m/s | -54.3°C | 0.5% | 67.1hPa | 2.6V | 18:12:15 | 01:42:58 | 00:00:00 | |
| DL1XH1-15 | 2026-08-30 06:00:06 | 52.42836 | 15.02030 | 253° | 11km/h | 19088m | 5.3m/s | -54.4°C | 4.6% | 67.2hPa | 2.7V | 08:30:00 | 01:42:56 | 00:00:00 | |
| DF8AY | 2026-08-30 06:00:06 | 52.42836 | 15.02025 | 252° | 13km/h | 19093m | 4.4m/s | 0°C | 0% | 67.2hPa | 2.6V | 18:12:15 | 01:42:57 | 00:00:00 | |
| AA1-15 | 2026-08-30 05:59:58 | 52.42844 | 15.02048 | 214° | 4km/h | 19054m | 6m/s | -54.6°C | 0.5% | 67.6hPa | 2.7V | 18:12:15 | 01:42:49 | 00:00:00 | |
| SQ2ODE-11 | 2026-08-30 05:59:57 | 52.42843 | 15.02048 | 215° | 4km/h | 19054m | 6.0m/s | -54.6°C | 1.1% | 67.6hPa | 2.6V | 00:00:00 | 00:00:00 | 00:00:00 | |
| DL1XH1-15 | 2026-08-30 05:59:56 | 52.42845 | 15.02049 | 200° | 0km/h | 19039m | 5.3m/s | -54.9°C | 4.8% | 67.8hPa | 2.6V | 08:30:00 | 01:42:46 | 00:00:00 | |
| DL1XH-west | 2026-08-30 05:59:56 | 52.42845 | 15.02049 | 191° | 2km/h | 19045m | 5.5m/s | -54.9°C | 0.6% | 67.7hPa | 2.6V | 18:12:15 | 01:42:47 | 00:00:00 | |
| DB0DAN | 2026-08-30 05:59:55 | 52.42845 | 15.02049 | 201° | 0km/h | 19039m | 5.3m/s | -54.9°C | 1.1% | 67.76hPa | 2.6V | 00:00:00 | 00:00:00 | 00:00:00 | |
| DM0DOS-11 | 2026-08-30 05:59:55 | 52.42846 | 15.02049 | 188° | 5km/h | 19029m | 4.4m/s | -54.8°C | 4.7% | 67.8hPa | 2.7V | 08:30:00 | 01:42:44 | 00:00:00 | |
| DF8AY | 2026-08-30 05:59:55 | 52.42845 | 15.02049 | 201° | 0km/h | 19039m | 5.3m/s | 0°C | 0% | 67.8hPa | 2.6V | 18:12:15 | 01:42:46 | 00:00:00 | |
| SONDE2-12 | 2026-08-30 05:59:49 | 52.42854 | 15.02043 | 134° | 9km/h | 19005m | 3.7m/s | -54.8°C | 1.4% | 68.1hPa | 2.7V | 00:00:00 | 00:00:00 | 00:00:00 | |
| AA1-15 | 2026-08-30 05:59:47 | 52.42856 | 15.02039 | 122° | 11km/h | 19000m | 5.8m/s | -54.7°C | 0.6% | 68.1hPa | 2.7V | 18:12:15 | 01:42:38 | 00:00:00 | |
| DL1XH1-15 | 2026-08-30 05:59:46 | 52.42857 | 15.02030 | 99° | 13km/h | 18990m | 3.9m/s | -54.6°C | 4.8% | 68.2hPa | 2.7V | 08:30:00 | 01:42:36 | 00:00:00 | |
| DM0DOS-11 | 2026-08-30 05:59:46 | 52.42858 | 15.02021 | 94° | 9km/h | 18981m | 3.7m/s | -54.6°C | 4.8% | 68.3hPa | 2.6V | 08:30:00 | 01:42:34 | 00:00:00 | |
| DL1XH-west | 2026-08-30 05:59:45 | 52.42857 | 15.02030 | 100° | 13km/h | 18990m | 3.9m/s | -54.7°C | 0.6% | 68.2hPa | 2.7V | 18:12:15 | 01:42:36 | 00:00:00 | |
| KRY50SP-1 | 2026-08-30 05:59:43 | 52.42858 | 15.02025 | 102° | 11km/h | 18986m | 5.1m/s | -54.7°C | 1.1% | 68.3hPa | 2.7V | 00:00:00 | 00:00:00 | 00:00:00 | |
| DB0DAN | 2026-08-30 05:59:40 | 52.42856 | 15.02010 | 62° | 9km/h | 18967m | 4.5m/s | -54.7°C | 1.2% | 68.48hPa | 2.7V | 00:00:00 | 00:00:00 | 00:00:00 | |
| SONDE2-11 | 2026-08-30 05:59:39 | 52.42855 | 15.02007 | 66° | 5km/h | 18962m | 5.1m/s | -54.6°C | 1.1% | 68.5hPa | 2.7V | 00:00:00 | 00:00:00 | 00:00:00 | |
| EDDB2-12 | 2026-08-30 05:59:38 | 52.42855 | 15.02004 | 78° | 7km/h | 18958m | 4.1m/s | -54.7°C | 1.2% | 68.6hPa | 2.7V | 00:00:00 | 00:00:00 | 00:00:00 | |
| SP3BTT-10 | 2026-08-30 05:59:37 | 52.42854 | 15.02000 | 83° | 29km/h | 18953m | 5.4m/s | -54.5°C | 4.8% | 68.6hPa | 2.7V | 00:00:00 | 00:00:00 | 00:00:00 | |
| DL1XH1-15 | 2026-08-30 05:59:36 | 52.42854 | 15.01989 | 93° | 15km/h | 18943m | 5.2m/s | -54.5°C | 4.7% | 68.7hPa | 2.7V | 08:30:00 | 01:42:26 | 00:00:00 | |
| AA1-15 | 2026-08-30 05:59:36 | 52.42854 | 15.01995 | 87° | 15km/h | 18948m | 4m/s | -54.5°C | 0.5% | 68.7hPa | 2.6V | 18:12:15 | 01:42:27 | 00:00:00 | |
| D01LWL | 2026-08-30 05:59:36 | 52.42854 | 15.01989 | 93° | 15km/h | 18944m | 5.2m/s | -54.5°C | 1.1% | 68.7hPa | 2.7V | 00:00:00 | 00:00:00 | 00:00:00 | |
| DM0DOS-11 | 2026-08-30 05:59:35 | 52.42855 | 15.01977 | 95° | 15km/h | 18934m | 3.9m/s | -54.5°C | 4.7% | 68.8hPa | 2.7V | 08:30:00 | 01:42:24 | 00:00:00 | |
| DL1XH-west | 2026-08-30 05:59:34 | 52.42855 | 15.01983 | 100° | 15km/h | 18938m | 4.5m/s | -54.5°C | 0.6% | 68.8hPa | 2.7V | 18:12:15 | 01:42:25 | 00:00:00 | |
| 13BRC | 2026-08-30 05:59:33 | 52.42855 | 15.01983 | 101° | 15km/h | 18939m | 4.5m/s | -54.5°C | 1.1% | 68.8hPa | 2.6V | 00:00:00 | 00:00:00 | 00:00:00 | |
| EDDB2-11 | 2026-08-30 05:59:32 | 52.42855 | 15.01970 | 89° | 15km/h | 18930m | 5.6m/s | -54.4°C | 1.1% | 68.9hPa | 2.6V | 00:00:00 | 00:00:00 | 00:00:00 | |
| SQ2ODE-11 | 2026-08-30 05:59:31 | 52.42855 | 15.01970 | 91° | 16km/h | 18930m | 5.6m/s | -54.4°C | 1.1% | 68.9hPa | 2.6V | 00:00:00 | 00:00:00 | 00:00:00 | |
| DL2RXE-15 | 2026-08-30 05:59:28 | 52.42853 | 15.01950 | 72° | 15km/h | 18915m | 4.5m/s | -54.4°C | 1.1% | 69.1hPa | 2.6V | 00:00:00 | 00:00:00 | 00:00:00 | |
| DL1XH1-15 | 2026-08-30 05:59:26 | 52.42845 | 15.01925 | 62° | 16km/h | 18896m | 5.1m/s | -54.3°C | 4.6% | 69.3hPa | 2.6V | 08:30:00 | 01:42:16 | 00:00:00 | |
| DB0DAN | 2026-08-30 05:59:25 | 52.42845 | 15.01925 | 62° | 15km/h | 18896m | 5.1m/s | -54.3°C | 1.1% | 69.26hPa | 2.6V | 00:00:00 | 00:00:00 | 00:00:00 | |
| DM0DOS-11 | 2026-08-30 05:59:25 | 52.42842 | 15.01914 | 61° | 16km/h | 18886m | 5.7m/s | -54.2°C | 4.7% | 69.4hPa | 2.7V | 08:30:00 | 01:42:14 | 00:00:00 | |
| AA1-15 | 2026-08-30 05:59:25 | 52.42845 | 15.01925 | 62° | 16km/h | 18896m | 5.1m/s | -54.3°C | 0.5% | 69.3hPa | 2.6V | 18:12:15 | 01:42:16 | 00:00:00 | |
| DF8AY | 2026-08-30 05:59:24 | 52.42843 | 15.01920 | 62° | 15km/h | 18892m | 3.7m/s | 0°C | 0% | 0hPa | 2.6V | 18:12:15 | 01:42:15 | 00:00:00 | |
| DL1XH-west | 2026-08-30 05:59:23 | 52.42842 | 15.01914 | 61° | 16km/h | 18887m | 5.7m/s | -54.3°C | 0.6% | 69.4hPa | 2.7V | 18:12:15 | 01:42:14 | 00:00:00 | |
| SONDE2-12 | 2026-08-30 05:59:18 | 52.42831 | 15.01871 | 71° | 24km/h | 18859m | 4.8m/s | -54.3°C | 1.3% | 69.7hPa | 2.7V | 00:00:00 | 00:00:00 | 00:00:00 | |
| DL1XH1-15 | 2026-08-30 05:59:16 | 52.42827 | 15.01852 | 73° | 24km/h | 18849m | 4.7m/s | -54.2°C | 4.6% | 69.8hPa | 2.7V | 08:30:00 | 01:42:06 | 00:00:00 | |
| DM0DOS-11 | 2026-08-30 05:59:15 | 52.42823 | 15.01833 | 63° | 26km/h | 18840m | 4.9m/s | -54.3°C | 4.7% | 69.8hPa | 2.6V | 08:30:00 | 01:42:04 | 00:00:00 | |
| DF8AY | 2026-08-30 05:59:14 | 52.42825 | 15.01842 | 69° | 26km/h | 18845m | 4.6m/s | 0°C | 0% | 0hPa | 2.6V | 18:12:15 | 01:42:05 | 00:00:00 | |
| DL1XH-west | 2026-08-30 05:59:12 | 52.42819 | 15.01823 | 61° | 26km/h | 18835m | 4m/s | -54.3°C | 0.5% | 69.9hPa | 2.6V | 18:12:15 | 01:42:03 | 00:00:00 | |
| DB0DAN | 2026-08-30 05:59:10 | 52.42814 | 15.01806 | 61° | 22km/h | 18826m | 4.1m/s | -54.4°C | 1.2% | 70.05hPa | 2.7V | 00:00:00 | 00:00:00 | 00:00:00 | |
| KRY50SP-1 | 2026-08-30 05:59:09 | 52.42813 | 15.01806 | 62° | 22km/h | 18826m | 4.1m/s | -54.4°C | 1.2% | 70.1hPa | 2.7V | 00:00:00 | 00:00:00 | 00:00:00 | |
| SONDE2-11 | 2026-08-30 05:59:08 | 52.42808 | 15.01790 | 56° | 24km/h | 18817m | 5.0m/s | -54.4°C | 1.1% | 70.1hPa | 2.7V | 00:00:00 | 00:00:00 | 00:00:00 | |
| POL1PZ | 2026-08-30 05:59:07 | 52.42804 | 15.01781 | 60° | 24km/h | 18812m | 4.2m/s | -54.5°C | 1.1% | 70.2hPa | 2.7V | 00:00:00 | 00:00:00 | 00:00:00 | |
| DL1XH1-15 | 2026-08-30 05:59:07 | 52.42799 | 15.01765 | 63° | 24km/h | 18802m | 4.1m/s | -54.6°C | 4.7% | 70.2hPa | 2.7V | 08:30:00 | 01:41:56 | 00:00:00 | |
| DM0DOS-11 | 2026-08-30 05:59:05 | 52.42793 | 15.01747 | 56° | 27km/h | 18793m | 3.5m/s | -54.7°C | 4.8% | 70.4hPa | 2.7V | 08:30:00 | 01:41:54 | 00:00:00 | |
| AA1-15 | 2026-08-30 05:59:03 | 52.42793 | 15.01747 | 57° | 27km/h | 18793m | 3.5m/s | -54.7°C | 0.6% | 70.4hPa | 2.7V | 18:12:15 | 01:41:54 | 00:00:00 | |
| DL1XH-west | 2026-08-30 05:59:01 | 52.42785 | 15.01728 | 55° | 27km/h | 18784m | 3.8m/s | -54.7°C | 0.5% | 70.5hPa | 2.6V | 18:12:15 | 01:41:52 | 00:00:00 | |
| DJ2DS-15 | 2026-08-30 05:59:01 | 52.42781 | 15.01719 | 53° | 29km/h | 18780m | 5.5m/s | -54.7°C | 1.1% | 70.5hPa | 2.6V | 00:00:00 | 00:00:00 | 00:00:00 | |
| SQ2ODE-11 | 2026-08-30 05:59:00 | 52.42785 | 15.01728 | 56° | 27km/h | 18785m | 3.8m/s | -54.7°C | 1.1% | 70.5hPa | 2.6V | 00:00:00 | 00:00:00 | 00:00:00 | |
| DJ2DS-15 | 2026-08-30 05:58:58 | 52.42771 | 15.01699 | 51° | 31km/h | 18770m | 5.6m/s | -54.6°C | 4.7% | 70.6hPa | 2.6V | 00:00:00 | 01:41:49 | 00:00:00 | |
| SP6BVK | 2026-08-30 05:58:57 | 52.42771 | 15.01699 | 52° | 31km/h | 18770m | 5.6m/s | -54.7°C | 1.1% | 70.6hPa | 2.6V | 00:00:00 | 00:00:00 | 00:00:00 | |
| DAC517 | 2026-08-30 05:58:56 | 52.42766 | 15.01689 | 50° | 31km/h | 18765m | 4.5m/s | -54.6°C | 1.1% | 70.7hPa | 2.6V | 00:00:00 | 00:00:00 | 00:00:00 | |
| DB0DAN | 2026-08-30 05:58:55 | 52.42755 | 15.01670 | 45° | 31km/h | 18755m | 4.9m/s | -54.6°C | 1.1% | 70.78hPa | 2.6V | 00:00:00 | 00:00:00 | 00:00:00 | |
| DM0DOS-11 | 2026-08-30 05:58:55 | 52.42744 | 15.01652 | 41° | 29km/h | 18746m | 4.6m/s | -54.5°C | 4.8% | 70.9hPa | 2.7V | 08:30:00 | 01:41:44 | 00:00:00 | |
| AA1-15 | 2026-08-30 05:58:52 | 52.42738 | 15.01644 | 38° | 31km/h | 18741m | 4.9m/s | -54.6°C | 0.7% | 71hPa | 2.7V | 18:12:15 | 01:41:43 | 00:00:00 | |
| DL1XH-west | 2026-08-30 05:58:50 | 52.42725 | 15.01628 | 35° | 33km/h | 18731m | 5.3m/s | -54.6°C | 0.7% | 71.1hPa | 2.6V | 18:12:15 | 01:41:41 | 00:00:00 | |
| SONDE2-12 | 2026-08-30 05:58:46 | 52.42697 | 15.01597 | 35° | 35km/h | 18712m | 4.7m/s | -54.5°C | 1.4% | 71.3hPa | 2.6V | 00:00:00 | 00:00:00 | 00:00:00 | |
| DM0DOS-11 | 2026-08-30 05:58:45 | 52.42676 | 15.01573 | 35° | 33km/h | 18697m | 5m/s | -54.4°C | 4.8% | 71.5hPa | 2.6V | 08:30:00 | 01:41:34 | 00:00:00 | |
| AA1-15 | 2026-08-30 05:58:41 | 52.42663 | 15.01557 | 35° | 31km/h | 18687m | 4.8m/s | -54.3°C | 0.6% | 71.5hPa | 2.7V | 18:12:15 | 01:41:32 | 00:00:00 | |
| DL1XH-west | 2026-08-30 05:58:39 | 52.42650 | 15.01544 | 31° | 27km/h | 18678m | 4m/s | -54.2°C | 0.6% | 71.7hPa | 2.7V | 18:12:15 | 01:41:30 | 00:00:00 | |
| SP6BVK | 2026-08-30 05:58:37 | 52.42638 | 15.01532 | 28° | 29km/h | 18668m | 4.0m/s | -54.2°C | 1.1% | 71.8hPa | 2.7V | 00:00:00 | 00:00:00 | 00:00:00 | |
| EDDB2-12 | 2026-08-30 05:58:36 | 52.42631 | 15.01527 | 25° | 27km/h | 18663m | 5.8m/s | -54.2°C | 1.1% | 71.8hPa | 2.7V | 00:00:00 | 00:00:00 | 00:00:00 | |
| DM0DOS-11 | 2026-08-30 05:58:35 | 52.42609 | 15.01510 | 27° | 35km/h | 18648m | 3.7m/s | -54.1°C | 4.8% | 72hPa | 2.7V | 08:30:00 | 01:41:24 | 00:00:00 | |
| AA1-15 | 2026-08-30 05:58:30 | 52.42587 | 15.01492 | 25° | 31km/h | 18634m | 4.1m/s | -54°C | 0.5% | 72.2hPa | 2.6V | 18:12:15 | 01:41:21 | 00:00:00 | |
| DL1XH-west | 2026-08-30 05:58:29 | 52.42579 | 15.01487 | 25° | 33km/h | 18629m | 5.5m/s | -54°C | 0.5% | 72.2hPa | 2.7V | 18:12:15 | 01:41:20 | 00:00:00 | |
| DC4HF-4 | 2026-08-30 05:58:28 | 52.42572 | 15.01481 | 22° | 33km/h | 18624m | 4.9m/s | -54.0°C | 1.1% | 72.3hPa | 2.6V | 00:00:00 | 00:00:00 | 00:00:00 | |
| DL1XH1-15 | 2026-08-30 05:58:26 | 52.42548 | 15.01468 | 15° | 33km/h | 18609m | 5.4m/s | -53.9°C | 4.6% | 72.4hPa | 2.6V | 08:30:00 | 01:41:16 | 00:00:00 | |
| DB0DAN | 2026-08-30 05:58:25 | 52.42548 | 15.01468 | 16° | 31km/h | 18609m | 5.4m/s | -53.9°C | 1.1% | 72.43hPa | 2.6V | 00:00:00 | 00:00:00 | 00:00:00 | |
| AA1-15 | 2026-08-30 05:58:19 | 52.42502 | 15.01444 | 26° | 31km/h | 18581m | 4.4m/s | -53.9°C | 0.5% | 72.8hPa | 2.6V | 18:12:15 | 01:41:10 | 00:00:00 | |
| DL1XH-west | 2026-08-30 05:58:18 | 52.42496 | 15.01439 | 29° | 29km/h | 18575m | 5.5m/s | -53.8°C | 0.5% | 72.8hPa | 2.6V | 18:12:15 | 01:41:09 | 00:00:00 | |
| DJ2DS-15 | 2026-08-30 05:58:17 | 52.42489 | 15.01433 | 32° | 29km/h | 18571m | 4.1m/s | -53.8°C | 4.6% | 72.8hPa | 2.7V | 00:00:00 | 01:41:08 | 00:00:00 | |
| DL1XH1-15 | 2026-08-30 05:58:16 | 52.42476 | 15.01419 | 30° | 33km/h | 18562m | 3.2m/s | -53.8°C | 4.6% | 73hPa | 2.7V | 08:30:00 | 01:41:06 | 00:00:00 | |
| DL2RXE-15 | 2026-08-30 05:58:16 | 52.42483 | 15.01426 | 34° | 33km/h | 18566m | 5.2m/s | -53.8°C | 1.1% | 72.9hPa | 2.6V | 00:00:00 | 00:00:00 | 00:00:00 | |
| DM0DOS-11 | 2026-08-30 05:58:15 | 52.42462 | 15.01407 | 24° | 29km/h | 18553m | 4.4m/s | -53.6°C | 4.6% | 73.1hPa | 2.6V | 08:30:00 | 01:41:04 | 00:00:00 | |
| KRY50SP-1 | 2026-08-30 05:58:14 | 52.42476 | 15.01419 | 31° | 33km/h | 18562m | 3.2m/s | -53.8°C | 1.1% | 73.0hPa | 2.7V | 00:00:00 | 00:00:00 | 00:00:00 | |
| SQ2ODE-11 | 2026-08-30 05:58:13 | 52.42469 | 15.01413 | 30° | 31km/h | 18558m | 5.1m/s | -53.7°C | 1.1% | 73.0hPa | 2.7V | 00:00:00 | 00:00:00 | 00:00:00 | |
| 13BRC | 2026-08-30 05:58:11 | 52.42455 | 15.01402 | 22° | 29km/h | 18549m | 4.4m/s | -53.6°C | 1.1% | 73.1hPa | 2.7V | 00:00:00 | 00:00:00 | 00:00:00 | |
| DB0DAN | 2026-08-30 05:58:10 | 52.42440 | 15.01394 | 16° | 31km/h | 18539m | 4.2m/s | -53.6°C | 1.1% | 73.28hPa | 2.7V | 00:00:00 | 00:00:00 | 00:00:00 | |
| AA1-15 | 2026-08-30 05:58:08 | 52.42425 | 15.01388 | 13° | 29km/h | 18529m | 4.5m/s | -53.6°C | 0.5% | 73.3hPa | 2.6V | 18:12:15 | 01:40:59 | 00:00:00 | |
| DL1XH-west | 2026-08-30 05:58:07 | 52.42417 | 15.01385 | 13° | 29km/h | 18525m | 4.9m/s | -53.6°C | 0.5% | 73.4hPa | 2.6V | 18:12:15 | 01:40:58 | 00:00:00 | |
| DL1XH1-15 | 2026-08-30 05:58:06 | 52.42403 | 15.01379 | 15° | 29km/h | 18515m | 4.6m/s | -53.6°C | 4.5% | 73.5hPa | 2.7V | 08:30:00 | 01:40:56 | 00:00:00 | |
| AA1-15 | 2026-08-30 05:57:58 | 52.42356 | 15.01359 | 12° | 29km/h | 18482m | 4.3m/s | -53.5°C | 0.5% | 73.9hPa | 2.7V | 18:12:15 | 01:40:49 | 00:00:00 | |
| DJ2DS-15 | 2026-08-30 05:57:57 | 52.42348 | 15.01356 | 13° | 26km/h | 18478m | 5.4m/s | -53.4°C | 4.4% | 73.9hPa | 2.6V | 00:00:00 | 01:40:48 | 00:00:00 | |
| DL1XH1-15 | 2026-08-30 05:57:56 | 52.42333 | 15.01351 | 10° | 29km/h | 18468m | 5.7m/s | -53.4°C | 4.4% | 74.1hPa | 2.6V | 08:30:00 | 01:40:46 | 00:00:00 | |
| DL1XH-west | 2026-08-30 05:57:56 | 52.42341 | 15.01353 | 12° | 31km/h | 18473m | 3.8m/s | -53.5°C | 0.5% | 74hPa | 2.6V | 18:12:15 | 01:40:47 | 00:00:00 | |
| DB0DAN | 2026-08-30 05:57:55 | 52.42333 | 15.01351 | 11° | 29km/h | 18468m | 5.7m/s | -53.4°C | 1.1% | 74.09hPa | 2.6V | 00:00:00 | 00:00:00 | 00:00:00 | |
| DM0DOS-11 | 2026-08-30 05:57:55 | 52.42319 | 15.01348 | 8° | 27km/h | 18458m | 4.2m/s | -53.4°C | 4.4% | 74.2hPa | 2.7V | 08:30:00 | 01:40:44 | 00:00:00 | |
| AA1-15 | 2026-08-30 05:57:47 | 52.42279 | 15.01333 | 14° | 26km/h | 18429m | 5m/s | -53.3°C | 0.5% | 74.5hPa | 2.7V | 18:12:15 | 01:40:38 | 00:00:00 | |
| DL1XH1-15 | 2026-08-30 05:57:46 | 52.42267 | 15.01328 | 8° | 24km/h | 18420m | 5.7m/s | -53.4°C | 4.5% | 74.6hPa | 2.7V | 08:30:00 | 01:40:36 | 00:00:00 | |
| DL1XH-west | 2026-08-30 05:57:46 | 52.42267 | 15.01328 | 8° | 24km/h | 18420m | 5.7m/s | -53.4°C | 0.5% | 74.6hPa | 2.7V | 18:12:15 | 01:40:36 | 00:00:00 | |
| DM0DOS-11 | 2026-08-30 05:57:45 | 52.42255 | 15.01327 | 4° | 22km/h | 18411m | 5.4m/s | -53.5°C | 4.5% | 74.7hPa | 2.6V | 08:30:00 | 01:40:34 | 00:00:00 | |
| SONDE2-12 | 2026-08-30 05:57:45 | 52.42261 | 15.01327 | 2° | 22km/h | 18416m | 3.9m/s | -53.4°C | 1.3% | 74.7hPa | 2.7V | 00:00:00 | 00:00:00 | 00:00:00 | |
| DL2RXE-15 | 2026-08-30 05:57:44 | 52.42267 | 15.01328 | 9° | 24km/h | 18421m | 5.7m/s | -53.4°C | 1.1% | 74.6hPa | 2.7V | 00:00:00 | 00:00:00 | 00:00:00 | |
| POL1PZ | 2026-08-30 05:57:43 | 52.42261 | 15.01327 | 4° | 24km/h | 18416m | 3.9m/s | -53.4°C | 1.1% | 74.7hPa | 2.7V | 00:00:00 | 00:00:00 | 00:00:00 | |
| KRY50SP-1 | 2026-08-30 05:57:41 | 52.42250 | 15.01326 | 9° | 22km/h | 18406m | 4.9m/s | -53.4°C | 1.1% | 74.8hPa | 2.7V | 00:00:00 | 00:00:00 | 00:00:00 | |
| DB0DAN | 2026-08-30 05:57:40 | 52.42239 | 15.01324 | 4° | 22km/h | 18397m | 5.3m/s | -53.3°C | 1.1% | 74.92hPa | 2.7V | 00:00:00 | 00:00:00 | 00:00:00 | |
| DJ2DS-15 | 2026-08-30 05:57:37 | 52.42221 | 15.01320 | 12° | 22km/h | 18383m | 3.8m/s | 0°C | 0% | 0hPa | 2.7V | 00:00:00 | 01:40:28 | 00:00:00 | |
| DL1XH1-15 | 2026-08-30 05:57:36 | 52.42208 | 15.01317 | 3° | 26km/h | 18373m | 5m/s | -53.3°C | 4.3% | 75.2hPa | 2.7V | 08:30:00 | 01:40:26 | 00:00:00 | |
| AA1-15 | 2026-08-30 05:57:36 | 52.42215 | 15.01318 | 8° | 26km/h | 18379m | 4.9m/s | -53.3°C | 0.5% | 75.1hPa | 2.6V | 18:12:15 | 01:40:27 | 00:00:00 | |
| DM0DOS-11 | 2026-08-30 05:57:35 | 52.42195 | 15.01317 | 359° | 24km/h | 18364m | 5.6m/s | -53.5°C | 4.4% | 75.3hPa | 2.7V | 08:30:00 | 01:40:24 | 00:00:00 | |
| DL1XH-west | 2026-08-30 05:57:34 | 52.42201 | 15.01317 | 359° | 26km/h | 18369m | 4.2m/s | -53.3°C | 0.4% | 75.2hPa | 2.7V | 18:12:15 | 01:40:25 | 00:00:00 | |
| DAC517 | 2026-08-30 05:57:32 | 52.42195 | 15.01317 | 360° | 24km/h | 18365m | 5.6m/s | -53.5°C | 1.1% | 75.3hPa | 2.6V | 00:00:00 | 00:00:00 | 00:00:00 | |
| D01LWL | 2026-08-30 05:57:31 | 52.42183 | 15.01318 | 352° | 22km/h | 18355m | 5.2m/s | -53.6°C | 1.0% | 75.4hPa | 2.6V | 00:00:00 | 00:00:00 | 00:00:00 | |
| MECKS9 | 2026-08-30 05:57:30 | 52.42183 | 15.01318 | 353° | 24km/h | 18355m | 5.2m/s | -53.6°C | 1.0% | 75.4hPa | 2.6V | 00:00:00 | 00:00:00 | 00:00:00 | |
| 13BRC | 2026-08-30 05:57:29 | 52.42177 | 15.01320 | 350° | 24km/h | 18350m | 4.4m/s | -53.6°C | 1.1% | 75.5hPa | 2.6V | 00:00:00 | 00:00:00 | 00:00:00 | |
| EDDB2-11 | 2026-08-30 05:57:28 | 52.42166 | 15.01323 | 356° | 20km/h | 18340m | 4.9m/s | -53.7°C | 1.1% | 75.6hPa | 2.6V | 00:00:00 | 00:00:00 | 00:00:00 | |
| DL1XH1-15 | 2026-08-30 05:57:26 | 52.42151 | 15.01323 | 2° | 20km/h | 18327m | 3.9m/s | -53.5°C | 4.6% | 75.7hPa | 2.6V | 08:30:00 | 01:40:16 | 00:00:00 | |
| DB0DAN | 2026-08-30 05:57:25 | 52.42151 | 15.01323 | 3° | 18km/h | 18327m | 3.9m/s | -53.5°C | 1.1% | 75.72hPa | 2.6V | 00:00:00 | 00:00:00 | 00:00:00 | |
| DM0DOS-11 | 2026-08-30 05:57:25 | 52.42141 | 15.01321 | 14° | 20km/h | 18317m | 4.7m/s | -53.3°C | 4.5% | 75.8hPa | 2.7V | 08:30:00 | 01:40:14 | 00:00:00 | |
| AA1-15 | 2026-08-30 05:57:25 | 52.42151 | 15.01323 | 3° | 20km/h | 18327m | 3.9m/s | -53.5°C | 0.5% | 75.7hPa | 2.6V | 18:12:15 | 01:40:16 | 00:00:00 | |
| DL1XH-west | 2026-08-30 05:57:23 | 52.42141 | 15.01321 | 14° | 20km/h | 18317m | 4.7m/s | -53.3°C | 0.5% | 75.8hPa | 2.7V | 18:12:15 | 01:40:14 | 00:00:00 | |
| SQ2ODE-11 | 2026-08-30 05:57:22 | 52.42141 | 15.01321 | 15° | 20km/h | 18317m | 4.7m/s | -53.3°C | 1.1% | 75.8hPa | 2.7V | 00:00:00 | 00:00:00 | 00:00:00 | |
| SONCRA | 2026-08-30 05:57:20 | 52.42126 | 15.01316 | 9° | 20km/h | 18302m | 5.7m/s | -53.3°C | 1.1% | 76.0hPa | 2.7V | 00:00:00 | 00:00:00 | 00:00:00 | |
| S3001 | 2026-08-30 05:57:19 | 52.42121 | 15.01315 | 11° | 18km/h | 18297m | 4.5m/s | -53.4°C | 1.1% | 76.1hPa | 2.7V | 00:00:00 | 00:00:00 | 00:00:00 | |
| DJ2DS-15 | 2026-08-30 05:57:17 | 52.42111 | 15.01314 | 355° | 20km/h | 18288m | 4.5m/s | 0°C | 0% | 0hPa | 2.7V | 00:00:00 | 01:40:08 | 00:00:00 | |
| DL1XH1-15 | 2026-08-30 05:57:16 | 52.42101 | 15.01315 | 358° | 20km/h | 18278m | 5.3m/s | -53.4°C | 4.5% | 76.3hPa | 2.7V | 08:30:00 | 01:40:06 | 00:00:00 | |
| DM0DOS-11 | 2026-08-30 05:57:15 | 52.42090 | 15.01315 | 0° | 22km/h | 18268m | 5.5m/s | -53.4°C | 4.5% | 76.4hPa | 2.6V | 08:30:00 | 01:40:04 | 00:00:00 | |
| AA1-15 | 2026-08-30 05:57:14 | 52.42096 | 15.01315 | 2° | 22km/h | 18273m | 4.1m/s | -53.4°C | 0.5% | 76.4hPa | 2.6V | 18:12:15 | 01:40:05 | 00:00:00 | |
| DL1XH-west | 2026-08-30 05:57:13 | 52.42090 | 15.01315 | 0° | 22km/h | 18268m | 5.5m/s | -53.4°C | 0.5% | 76.4hPa | 2.6V | 18:12:15 | 01:40:04 | 00:00:00 | |
| DJ2DS-15 | 2026-08-30 05:57:13 | 52.42085 | 15.01315 | 1° | 22km/h | 18264m | 4.0m/s | -53.3°C | 1.1% | 76.5hPa | 2.7V | 00:00:00 | 00:00:00 | 00:00:00 | |
| SQ2ODE-11 | 2026-08-30 05:57:11 | 52.42084 | 15.01315 | 2° | 22km/h | 18264m | 4.0m/s | -53.3°C | 1.1% | 76.5hPa | 2.7V | 00:00:00 | 00:00:00 | 00:00:00 | |
| DB0DAN | 2026-08-30 05:57:10 | 52.42073 | 15.01312 | 15° | 22km/h | 18254m | 4.7m/s | -53.3°C | 1.1% | 76.59hPa | 2.7V | 00:00:00 | 00:00:00 | 00:00:00 | |
| DAC517 | 2026-08-30 05:57:08 | 52.42068 | 15.01310 | 19° | 22km/h | 18249m | 4.9m/s | -53.3°C | 1.1% | 76.6hPa | 2.7V | 00:00:00 | 00:00:00 | 00:00:00 | |
| KRY50SP-1 | 2026-08-30 05:57:07 | 52.42062 | 15.01307 | 17° | 22km/h | 18244m | 5.0m/s | -53.2°C | 1.1% | 76.7hPa | 2.7V | 00:00:00 | 00:00:00 | 00:00:00 | |
| DL1XH1-15 | 2026-08-30 05:57:06 | 52.42049 | 15.01299 | 20° | 16km/h | 18230m | 4.3m/s | -53.2°C | 4.3% | 76.9hPa | 2.7V | 08:30:00 | 01:39:56 | 00:00:00 | |
| DM0DOS-11 | 2026-08-30 05:57:05 | 52.42041 | 15.01296 | 3° | 16km/h | 18220m | 4.4m/s | -53.3°C | 4.4% | 77hPa | 2.6V | 08:30:00 | 01:39:54 | 00:00:00 | |
| AA1-15 | 2026-08-30 05:57:03 | 52.42041 | 15.01296 | 4° | 16km/h | 18220m | 4.4m/s | -53.3°C | 0.4% | 77hPa | 2.6V | 18:12:15 | 01:39:54 | 00:00:00 | |
| DL1XH-west | 2026-08-30 05:57:02 | 52.42037 | 15.01295 | 5° | 15km/h | 18215m | 4.9m/s | -53.3°C | 0.4% | 77hPa | 2.6V | 18:12:15 | 01:39:53 | 00:00:00 | |
| KRY50SP-1 | 2026-08-30 05:57:02 | 52.42037 | 15.01295 | 6° | 15km/h | 18215m | 4.9m/s | -53.3°C | 1.1% | 77.0hPa | 2.6V | 00:00:00 | 00:00:00 | 00:00:00 | |
| SQ2ODE-11 | 2026-08-30 05:57:01 | 52.42037 | 15.01295 | 6° | 15km/h | 18215m | 4.9m/s | -53.3°C | 1.1% | 77.0hPa | 2.6V | 00:00:00 | 00:00:00 | 00:00:00 | |
| D01LWL | 2026-08-30 05:57:00 | 52.42029 | 15.01294 | 5° | 15km/h | 18206m | 3.8m/s | -53.2°C | 1.1% | 77.1hPa | 2.6V | 00:00:00 | 00:00:00 | 00:00:00 | |
| DJ2DS-15 | 2026-08-30 05:56:57 | 52.42016 | 15.01293 | 8° | 15km/h | 18192m | 5.1m/s | 0°C | 0% | 0hPa | 2.6V | 00:00:00 | 01:39:48 | 00:00:00 | |
| DL1XH1-15 | 2026-08-30 05:56:56 | 52.42007 | 15.01289 | 20° | 18km/h | 18183m | 3.9m/s | -53.5°C | 4.5% | 77.4hPa | 2.6V | 08:30:00 | 01:39:46 | 00:00:00 | |
| DB0DAN | 2026-08-30 05:56:55 | 52.42007 | 15.01289 | 21° | 18km/h | 18183m | 3.9m/s | -53.5°C | 1.1% | 77.43hPa | 2.6V | 00:00:00 | 00:00:00 | 00:00:00 | |
| DM0DOS-11 | 2026-08-30 05:56:55 | 52.41998 | 15.01283 | 23° | 18km/h | 18174m | 4m/s | -53.6°C | 4.5% | 77.5hPa | 2.7V | 08:30:00 | 01:39:44 | 00:00:00 | |
| AA1-15 | 2026-08-30 05:56:52 | 52.41994 | 15.01280 | 31° | 18km/h | 18169m | 5.5m/s | -53.6°C | 0.5% | 77.6hPa | 2.7V | 18:12:15 | 01:39:43 | 00:00:00 | |
| DL1XH-west | 2026-08-30 05:56:51 | 52.41991 | 15.01276 | 33° | 16km/h | 18164m | 3.7m/s | -53.6°C | 0.5% | 77.7hPa | 2.6V | 18:12:15 | 01:39:42 | 00:00:00 | |
| SONCRA | 2026-08-30 05:56:49 | 52.41983 | 15.01270 | 23° | 15km/h | 18154m | 4.2m/s | -53.7°C | 1.1% | 77.8hPa | 2.6V | 00:00:00 | 00:00:00 | 00:00:00 | |
| S3001 | 2026-08-30 05:56:48 | 52.41980 | 15.01267 | 23° | 13km/h | 18150m | 5.3m/s | -53.7°C | 1.1% | 77.8hPa | 2.6V | 00:00:00 | 00:00:00 | 00:00:00 | |
| DAC517 | 2026-08-30 05:56:47 | 52.41980 | 15.01267 | 24° | 15km/h | 18150m | 5.3m/s | -53.6°C | 1.1% | 77.8hPa | 2.6V | 00:00:00 | 00:00:00 | 00:00:00 | |
| DL1XH1-15 | 2026-08-30 05:56:46 | 52.41970 | 15.01266 | 348° | 15km/h | 18135m | 4.8m/s | -53.8°C | 4.7% | 78hPa | 2.6V | 08:30:00 | 01:39:36 | 00:00:00 | |
| DM0DOS-11 | 2026-08-30 05:56:45 | 52.41963 | 15.01268 | 350° | 11km/h | 18125m | 4.5m/s | -53.9°C | 4.7% | 78.1hPa | 2.6V | 08:30:00 | 01:39:34 | 00:00:00 | |
| SONDE2-12 | 2026-08-30 05:56:42 | 52.41961 | 15.01269 | 352° | 9km/h | 18121m | 5.2m/s | -53.9°C | 1.4% | 78.2hPa | 2.7V | 00:00:00 | 00:00:00 | 00:00:00 | |
| AA1-15 | 2026-08-30 05:56:41 | 52.41958 | 15.01269 | 353° | 11km/h | 18115m | 5.1m/s | -53.9°C | 0.6% | 78.2hPa | 2.7V | 18:12:15 | 01:39:32 | 00:00:00 | |
| DL1XH-west | 2026-08-30 05:56:40 | 52.41955 | 15.01269 | 5° | 11km/h | 18110m | 4.3m/s | -53.8°C | 0.6% | 78.3hPa | 2.7V | 18:12:15 | 01:39:31 | 00:00:00 | |
| KRY50SP-1 | 2026-08-30 05:56:38 | 52.41953 | 15.01268 | 23° | 9km/h | 18106m | 5.3m/s | -53.8°C | 1.1% | 78.4hPa | 2.7V | 00:00:00 | 00:00:00 | 00:00:00 | |
| DJ2DS-15 | 2026-08-30 05:56:37 | 52.41947 | 15.01265 | 16° | 9km/h | 18096m | 5.5m/s | 0°C | 0% | 0hPa | 2.7V | 00:00:00 | 01:39:28 | 00:00:00 | |
| DL1XH1-15 | 2026-08-30 05:56:36 | 52.41941 | 15.01264 | 2° | 11km/h | 18087m | 5.7m/s | -53.7°C | 4.6% | 78.6hPa | 2.7V | 08:30:00 | 01:39:26 | 00:00:00 | |
| DM0DOS-11 | 2026-08-30 05:56:35 | 52.41936 | 15.01265 | 349° | 11km/h | 18077m | 4.2m/s | -53.6°C | 4.6% | 78.7hPa | 2.6V | 08:30:00 | 01:39:24 | 00:00:00 | |
| DL1XH-west | 2026-08-30 05:56:30 | 52.41929 | 15.01270 | 333° | 9km/h | 18063m | 5.4m/s | -53.6°C | 0.5% | 78.9hPa | 2.7V | 18:12:15 | 01:39:21 | 00:00:00 | |
| D01LWL | 2026-08-30 05:56:29 | 52.41927 | 15.01271 | 329° | 7km/h | 18058m | 4.4m/s | -53.6°C | 1.1% | 78.9hPa | 2.7V | 00:00:00 | 00:00:00 | 00:00:00 | |
| DAC517 | 2026-08-30 05:56:27 | 52.41925 | 15.01273 | 329° | 7km/h | 18053m | 5.5m/s | -53.5°C | 1.1% | 79.0hPa | 2.7V | 00:00:00 | 00:00:00 | 00:00:00 | |
| EDDB2-11 | 2026-08-30 05:56:26 | 52.41922 | 15.01275 | 349° | 4km/h | 18044m | 5.4m/s | -53.6°C | 1.1% | 79.1hPa | 2.7V | 00:00:00 | 00:00:00 | 00:00:00 | |
| DM0DOS-11 | 2026-08-30 05:56:25 | 52.41919 | 15.01274 | 8° | 5km/h | 18030m | 4.3m/s | -53.4°C | 4.6% | 79.3hPa | 2.7V | 08:30:00 | 01:39:14 | 00:00:00 | |
| DL1XH-west | 2026-08-30 05:56:20 | 52.41916 | 15.01274 | 326° | 4km/h | 18016m | 4.1m/s | -53.3°C | 0.5% | 79.5hPa | 2.6V | 18:12:15 | 01:39:11 | 00:00:00 | |
| SONCRA | 2026-08-30 05:56:18 | 52.41913 | 15.01281 | 284° | 5km/h | 18001m | 4.1m/s | -53.2°C | 1.1% | 79.7hPa | 2.6V | 00:00:00 | 00:00:00 | 00:00:00 | |
| DJ2DS-15 | 2026-08-30 05:56:17 | 52.41913 | 15.01281 | 285° | 4km/h | 18001m | 4.1m/s | 0°C | 0% | 0hPa | 2.6V | 00:00:00 | 01:39:08 | 00:00:00 | |
| DL1XH1-15 | 2026-08-30 05:56:16 | 52.41914 | 15.01286 | 249° | 5km/h | 17992m | 3.9m/s | -53.2°C | 4.6% | 79.8hPa | 2.6V | 08:30:00 | 01:39:06 | 00:00:00 | |
| DM0DOS-11 | 2026-08-30 05:56:15 | 52.41914 | 15.01289 | 273° | 2km/h | 17983m | 4.1m/s | -53.1°C | 4.5% | 79.9hPa | 2.6V | 08:30:00 | 01:39:04 | 00:00:00 | |
| SQ2ODE-11 | 2026-08-30 05:56:12 | 52.41914 | 15.01289 | 275° | 2km/h | 17983m | 4.1m/s | -53.1°C | 1.1% | 79.9hPa | 2.7V | 00:00:00 | 00:00:00 | 00:00:00 | |
| SP6BVK | 2026-08-30 05:56:11 | 52.41914 | 15.01289 | 0° | 0km/h | 17979m | 4.8m/s | -53.1°C | 1.1% | 80.0hPa | 2.7V | 00:00:00 | 00:00:00 | 00:00:00 | |
| DB0DAN | 2026-08-30 05:56:10 | 52.41915 | 15.01287 | 105° | 4km/h | 17969m | 4.5m/s | -53.1°C | 1.1% | 80.07hPa | 2.7V | 00:00:00 | 00:00:00 | 00:00:00 | |
| DL1XH-west | 2026-08-30 05:56:09 | 52.41915 | 15.01285 | 81° | 4km/h | 17964m | 4.9m/s | -53°C | 0.5% | 80.1hPa | 2.6V | 18:12:15 | 01:39:00 | 00:00:00 | |
| DL1XH1-15 | 2026-08-30 05:56:06 | 52.41915 | 15.01283 | 273° | 2km/h | 17946m | 5.4m/s | -52.9°C | 4.5% | 80.3hPa | 2.6V | 08:30:00 | 01:38:56 | 00:00:00 | |
| DAC517 | 2026-08-30 05:56:05 | 52.41915 | 15.01282 | 0° | 0km/h | 17951m | 3.4m/s | -53.0°C | 1.1% | 80.3hPa | 2.7V | 00:00:00 | 00:00:00 | 00:00:00 | |
| DC4HF-4 | 2026-08-30 05:56:04 | 52.41915 | 15.01284 | 284° | 4km/h | 17941m | 4.4m/s | -52.9°C | 1.1% | 80.4hPa | 2.7V | 00:00:00 | 00:00:00 | 00:00:00 | |
| KRY50SP-1 | 2026-08-30 05:56:03 | 52.41915 | 15.01284 | 285° | 5km/h | 17941m | 4.4m/s | -52.9°C | 1.1% | 80.4hPa | 2.7V | 00:00:00 | 00:00:00 | 00:00:00 | |
| SONDE2-11 | 2026-08-30 05:56:02 | 52.41915 | 15.01289 | 256° | 5km/h | 17932m | 4.2m/s | -52.8°C | 1.1% | 80.5hPa | 2.7V | 00:00:00 | 00:00:00 | 00:00:00 | |
| EDDB2-12 | 2026-08-30 05:56:01 | 52.41915 | 15.01292 | 245° | 5km/h | 17928m | 3.8m/s | -52.8°C | 1.1% | 80.6hPa | 2.7V | 00:00:00 | 00:00:00 | 00:00:00 | |
| DJ2DS-15 | 2026-08-30 05:56:00 | 52.41916 | 15.01294 | 252° | 4km/h | 17923m | 5.4m/s | -52.8°C | -1.0% | -1.0hPa | 2.7V | 00:00:00 | 00:00:00 | 00:00:00 | |
| D01LWL | 2026-08-30 05:55:58 | 52.41917 | 15.01295 | 184° | 4km/h | 17915m | 5.3m/s | -52.7°C | 1.1% | 80.8hPa | 2.7V | 00:00:00 | 00:00:00 | 00:00:00 | |
| DL1XH-west | 2026-08-30 05:55:58 | 52.41917 | 15.01295 | 184° | 4km/h | 17915m | 5.3m/s | -52.7°C | 0.5% | 80.8hPa | 2.7V | 18:12:15 | 01:38:49 | 00:00:00 | |
| KRY50SP-1 | 2026-08-30 05:55:57 | 52.41917 | 15.01295 | 185° | 4km/h | 17915m | 5.3m/s | -52.7°C | 1.1% | 80.8hPa | 2.7V | 00:00:00 | 00:00:00 | 00:00:00 | |
| DL1XH1-15 | 2026-08-30 05:55:56 | 52.41920 | 15.01294 | 157° | 4km/h | 17900m | 4.8m/s | -52.6°C | 4.4% | 80.9hPa | 2.7V | 08:30:00 | 01:38:46 | 00:00:00 | |
| DB0DAN | 2026-08-30 05:55:55 | 52.41920 | 15.01294 | 158° | 4km/h | 17900m | 4.9m/s | -52.7°C | 1.1% | 80.93hPa | 2.7V | 00:00:00 | 00:00:00 | 00:00:00 | |
| DL1XH-west | 2026-08-30 05:55:48 | 52.41928 | 15.01297 | 204° | 7km/h | 17868m | 4.5m/s | -52.4°C | 0.5% | 81.3hPa | 2.7V | 18:12:15 | 01:38:39 | 00:00:00 | |
| AA1-15 | 2026-08-30 05:55:47 | 52.41930 | 15.01298 | 197° | 7km/h | 17864m | 3.8m/s | -52.3°C | 0.4% | 81.4hPa | 2.7V | 18:12:15 | 01:38:38 | 00:00:00 | |
| SONCRA | 2026-08-30 05:55:47 | 52.41932 | 15.01299 | 195° | 5km/h | 17859m | 5.1m/s | -52.3°C | 1.1% | 81.5hPa | 2.6V | 00:00:00 | 00:00:00 | 00:00:00 | |
| DL1XH1-15 | 2026-08-30 05:55:46 | 52.41933 | 15.01300 | 192° | 4km/h | 17855m | 4.1m/s | -52.2°C | 4.4% | 81.5hPa | 2.6V | 08:30:00 | 01:38:36 | 00:00:00 | |
| S3001 | 2026-08-30 05:55:46 | 52.41932 | 15.01299 | 195° | 5km/h | 17859m | 5.1m/s | -52.3°C | 1.1% | 81.5hPa | 2.7V | 00:00:00 | 00:00:00 | 00:00:00 | |
| DM0DOS-11 | 2026-08-30 05:55:45 | 52.41936 | 15.01300 | 168° | 7km/h | 17847m | 5m/s | -52.2°C | 4.4% | 81.6hPa | 2.7V | 08:30:00 | 01:38:34 | 00:00:00 | |
| DAC517 | 2026-08-30 05:55:44 | 52.41933 | 15.01300 | 194° | 4km/h | 17855m | 4.1m/s | -52.2°C | 1.1% | 81.5hPa | 2.6V | 00:00:00 | 00:00:00 | 00:00:00 | |
| POL1PZ | 2026-08-30 05:55:42 | 52.41936 | 15.01300 | 170° | 7km/h | 17847m | 5.0m/s | -52.3°C | 1.1% | 81.6hPa | 2.6V | 00:00:00 | 00:00:00 | 00:00:00 | |
| SQ2ODE-11 | 2026-08-30 05:55:41 | 52.41938 | 15.01299 | 162° | 9km/h | 17842m | 4.4m/s | -52.1°C | 1.1% | 81.7hPa | 2.6V | 00:00:00 | 00:00:00 | 00:00:00 | |
| DB0DAN | 2026-08-30 05:55:40 | 52.41942 | 15.01296 | 154° | 9km/h | 17833m | 4.8m/s | -52.1°C | 1.1% | 81.79hPa | 2.6V | 00:00:00 | 00:00:00 | 00:00:00 | |
| DL1XH-west | 2026-08-30 05:55:37 | 52.41950 | 15.01292 | 169° | 11km/h | 17819m | 4m/s | -51.9°C | 0.4% | 82hPa | 2.7V | 18:12:15 | 01:38:28 | 00:00:00 | |
| DL1XH1-15 | 2026-08-30 05:55:37 | 52.41955 | 15.01290 | 164° | 9km/h | 17809m | 4.3m/s | -51.9°C | 4.1% | 82.1hPa | 2.7V | 08:30:00 | 01:38:26 | 00:00:00 | |
| AA1-15 | 2026-08-30 05:55:36 | 52.41952 | 15.01291 | 167° | 11km/h | 17814m | 5.2m/s | -51.9°C | 0.4% | 82hPa | 2.7V | 18:12:15 | 01:38:27 | 00:00:00 | |
| DM0DOS-11 | 2026-08-30 05:55:35 | 52.41959 | 15.01288 | 167° | 9km/h | 17800m | 5.5m/s | -51.9°C | 4.2% | 82.2hPa | 2.6V | 08:30:00 | 01:38:24 | 00:00:00 | |
| SP3BTT-10 | 2026-08-30 05:55:35 | 52.41955 | 15.01290 | 165° | 20km/h | 17810m | 4.2m/s | -51.8°C | 4.1% | 82.0hPa | 2.7V | 00:00:00 | 00:00:00 | 00:00:00 | |
| KRY50SP-1 | 2026-08-30 05:55:34 | 52.41955 | 15.01290 | 165° | 9km/h | 17810m | 4.3m/s | -51.9°C | 1.0% | 82.1hPa | 2.7V | 00:00:00 | 00:00:00 | 00:00:00 | |
| SONDE2-11 | 2026-08-30 05:55:31 | 52.41963 | 15.01286 | 148° | 7km/h | 17791m | 5.5m/s | -51.7°C | 1.0% | 82.3hPa | 2.7V | 00:00:00 | 00:00:00 | 00:00:00 | |
| EDDB2-12 | 2026-08-30 05:55:30 | 52.41965 | 15.01284 | 137° | 7km/h | 17786m | 4.2m/s | -51.7°C | 1.0% | 82.4hPa | 2.7V | 00:00:00 | 00:00:00 | 00:00:00 | |
| KRY50SP-1 | 2026-08-30 05:55:29 | 52.41965 | 15.01284 | 139° | 7km/h | 17787m | 4.2m/s | -51.7°C | 1.0% | 82.4hPa | 2.7V | 00:00:00 | 00:00:00 | 00:00:00 | |
| DC4HF-4 | 2026-08-30 05:55:28 | 52.41968 | 15.01279 | 147° | 7km/h | 17777m | 3.4m/s | -51.7°C | 1.0% | 82.5hPa | 2.7V | 00:00:00 | 00:00:00 | 00:00:00 | |
| D01LWL | 2026-08-30 05:55:27 | 52.41969 | 15.01278 | 141° | 5km/h | 17773m | 4.7m/s | -51.5°C | 1.0% | 82.5hPa | 2.7V | 00:00:00 | 00:00:00 | 00:00:00 | |
| DL1XH1-15 | 2026-08-30 05:55:26 | 52.41971 | 15.01276 | 162° | 4km/h | 17764m | 4m/s | -51.5°C | 4.1% | 82.6hPa | 2.7V | 08:30:00 | 01:38:16 | 00:00:00 | |
| DL1XH-west | 2026-08-30 05:55:26 | 52.41970 | 15.01276 | 137° | 4km/h | 17768m | 4.7m/s | -51.5°C | 0.3% | 82.6hPa | 2.6V | 18:12:15 | 01:38:17 | 00:00:00 | |
| DB0DAN | 2026-08-30 05:55:25 | 52.41971 | 15.01276 | 163° | 4km/h | 17764m | 4m/s | -51.5°C | 1% | 82.64hPa | 2.7V | 00:00:00 | 00:00:00 | 00:00:00 | |
| DM0DOS-11 | 2026-08-30 05:55:25 | 52.41973 | 15.01277 | 203° | 5km/h | 17756m | 3.4m/s | -51.5°C | 4.1% | 82.8hPa | 2.7V | 08:30:00 | 01:38:14 | 00:00:00 | |
| AA1-15 | 2026-08-30 05:55:25 | 52.41971 | 15.01276 | 163° | 4km/h | 17764m | 4m/s | -51.5°C | 0.3% | 82.6hPa | 2.7V | 18:12:15 | 01:38:16 | 00:00:00 | |
| EDDB2-11 | 2026-08-30 05:55:24 | 52.41972 | 15.01276 | 197° | 4km/h | 17760m | 4.8m/s | -51.5°C | 1.0% | 82.8hPa | 2.6V | 00:00:00 | 00:00:00 | 00:00:00 | |
| DAC517 | 2026-08-30 05:55:23 | 52.41972 | 15.01275 | 198° | 5km/h | 17760m | 4.8m/s | -51.5°C | 1.0% | 82.8hPa | 2.6V | 00:00:00 | 00:00:00 | 00:00:00 | |
| POL1PZ | 2026-08-30 05:55:22 | 52.41973 | 15.01277 | 205° | 5km/h | 17756m | 3.4m/s | -51.5°C | 1.0% | 82.8hPa | 2.6V | 00:00:00 | 00:00:00 | 00:00:00 | |
| KRY50SP-1 | 2026-08-30 05:55:18 | 52.41980 | 15.01277 | 169° | 9km/h | 17738m | 4.7m/s | -51.6°C | 1.0% | 83.0hPa | 2.6V | 00:00:00 | 00:00:00 | 00:00:00 | |
| DL1XH1-15 | 2026-08-30 05:55:16 | 52.41988 | 15.01267 | 135° | 13km/h | 17718m | 6.1m/s | -51.6°C | 4.1% | 83.3hPa | 2.6V | 08:30:00 | 01:38:06 | 00:00:00 | |
| DL1XH-west | 2026-08-30 05:55:16 | 52.41986 | 15.01270 | 131° | 11km/h | 17724m | 4.4m/s | -51.6°C | 0.4% | 83.2hPa | 2.6V | 18:12:15 | 01:38:07 | 00:00:00 | |
| SONCRA | 2026-08-30 05:55:16 | 52.41988 | 15.01267 | 135° | 11km/h | 17718m | 6.1m/s | -51.6°C | 1.0% | 83.3hPa | 2.7V | 00:00:00 | 00:00:00 | 00:00:00 | |
| DM0DOS-11 | 2026-08-30 05:55:15 | 52.41992 | 15.01260 | 128° | 13km/h | 17709m | 5.2m/s | -51.7°C | 4.1% | 83.4hPa | 2.7V | 08:30:00 | 01:38:04 | 00:00:00 | |
| AA1-15 | 2026-08-30 05:55:14 | 52.41990 | 15.01263 | 134° | 13km/h | 17713m | 3.3m/s | -51.6°C | 0.3% | 83.3hPa | 2.6V | 18:12:15 | 01:38:05 | 00:00:00 | |
| KRY50SP-1 | 2026-08-30 05:55:12 | 52.41992 | 15.01260 | 130° | 13km/h | 17709m | 5.2m/s | -51.7°C | 1.0% | 83.4hPa | 2.6V | 00:00:00 | 00:00:00 | 00:00:00 | |
| DB0DAN | 2026-08-30 05:55:10 | 52.41997 | 15.01247 | 135° | 13km/h | 17695m | 4.8m/s | -51.7°C | 1% | 83.56hPa | 2.6V | 00:00:00 | 00:00:00 | 00:00:00 | |
| SONDE2-12 | 2026-08-30 05:55:09 | 52.42000 | 15.01244 | 137° | 13km/h | 17691m | 3.9m/s | -51.7°C | 1.2% | 83.6hPa | 2.7V | 00:00:00 | 00:00:00 | 00:00:00 | |
| DL2RXE-15 | 2026-08-30 05:55:08 | 52.42000 | 15.01243 | 139° | 15km/h | 17691m | 3.9m/s | -51.7°C | 1.0% | 83.6hPa | 2.7V | 00:00:00 | 00:00:00 | 00:00:00 | |
| DL1XH1-15 | 2026-08-30 05:55:06 | 52.42009 | 15.01224 | 128° | 16km/h | 17672m | 5.7m/s | -51.6°C | 4.1% | 83.8hPa | 2.7V | 08:30:00 | 01:37:56 | 00:00:00 | |
| DM0DOS-11 | 2026-08-30 05:55:05 | 52.42014 | 15.01214 | 121° | 15km/h | 17663m | 5.4m/s | -51.6°C | 4.1% | 83.9hPa | 2.6V | 08:30:00 | 01:37:54 | 00:00:00 | |
| DL1XH-west | 2026-08-30 05:55:05 | 52.42009 | 15.01224 | 129° | 16km/h | 17673m | 5.7m/s | -51.6°C | 0.3% | 83.8hPa | 2.7V | 18:12:15 | 01:37:56 | 00:00:00 | |
| AA1-15 | 2026-08-30 05:55:03 | 52.42014 | 15.01214 | 122° | 15km/h | 17663m | 5.4m/s | -51.6°C | 0.3% | 84hPa | 2.6V | 18:12:15 | 01:37:54 | 00:00:00 | |
| POL1PZ | 2026-08-30 05:55:01 | 52.42016 | 15.01208 | 123° | 15km/h | 17659m | 4.5m/s | -51.5°C | 1.0% | 84.1hPa | 2.7V | 00:00:00 | 00:00:00 | 00:00:00 | |
| SONDE2-11 | 2026-08-30 05:55:00 | 52.42020 | 15.01199 | 126° | 13km/h | 17649m | 4.0m/s | -51.5°C | 1.0% | 84.1hPa | 2.7V | 00:00:00 | 00:00:00 | 00:00:00 | |
| EDDB2-12 | 2026-08-30 05:54:59 | 52.42022 | 15.01195 | 120° | 13km/h | 17644m | 5.7m/s | -51.6°C | 1.0% | 84.2hPa | 2.7V | 00:00:00 | 00:00:00 | 00:00:00 | |
| DL1XH1-15 | 2026-08-30 05:54:56 | 52.42030 | 15.01168 | 115° | 22km/h | 17626m | 4.6m/s | -51.5°C | 4.1% | 84.4hPa | 2.7V | 08:30:00 | 01:37:46 | 00:00:00 | |
| DB0DAN | 2026-08-30 05:54:55 | 52.42030 | 15.01168 | 115° | 20km/h | 17626m | 4.6m/s | -51.6°C | 1% | 84.44hPa | 2.7V | 00:00:00 | 00:00:00 | 00:00:00 | |
| DM0DOS-11 | 2026-08-30 05:54:55 | 52.42034 | 15.01151 | 111° | 24km/h | 17616m | 4.8m/s | -51.5°C | 4.1% | 84.6hPa | 2.6V | 08:30:00 | 01:37:44 | 00:00:00 | |
| DL1XH-west | 2026-08-30 05:54:55 | 52.42030 | 15.01168 | 115° | 22km/h | 17626m | 4.6m/s | -51.6°C | 0.3% | 84.4hPa | 2.7V | 18:12:15 | 01:37:46 | 00:00:00 | |
| AA1-15 | 2026-08-30 05:54:52 | 52.42036 | 15.01142 | 114° | 24km/h | 17611m | 5.6m/s | -51.6°C | 0.3% | 84.7hPa | 2.7V | 18:12:15 | 01:37:43 | 00:00:00 | |
| DJ2DS-15 | 2026-08-30 05:54:48 | 52.42047 | 15.01098 | 112° | 22km/h | 17587m | 4.7m/s | 0°C | -1.0% | -1.0hPa | 2.6V | 00:00:00 | 00:00:00 | 00:00:00 | |
| DL2RXE-15 | 2026-08-30 05:54:47 | 52.42045 | 15.01106 | 110° | 22km/h | 17592m | 5.2m/s | -51.6°C | 1.0% | 84.9hPa | 2.6V | 00:00:00 | 00:00:00 | 00:00:00 | |
| DL1XH1-15 | 2026-08-30 05:54:46 | 52.42050 | 15.01081 | 104° | 20km/h | 17578m | 5.1m/s | -51.5°C | 4.1% | 85.1hPa | 2.6V | 08:30:00 | 01:37:36 | 00:00:00 | |
| SONCRA | 2026-08-30 05:54:45 | 52.42051 | 15.01073 | 99° | 22km/h | 17573m | 3.9m/s | -51.5°C | 1.0% | 85.1hPa | 2.7V | 00:00:00 | 00:00:00 | 00:00:00 | |
| DM0DOS-11 | 2026-08-30 05:54:44 | 52.42052 | 15.01063 | 101° | 24km/h | 17569m | 4.9m/s | -51.6°C | 4.1% | 85.2hPa | 2.7V | 08:30:00 | 01:37:34 | 00:00:00 | |
| DL1XH-west | 2026-08-30 05:54:44 | 52.42051 | 15.01073 | 99° | 22km/h | 17573m | 3.9m/s | -51.5°C | 0.3% | 85.1hPa | 2.7V | 18:12:15 | 01:37:35 | 00:00:00 | |
| AA1-15 | 2026-08-30 05:54:41 | 52.42055 | 15.01043 | 106° | 26km/h | 17560m | 4.4m/s | -51.5°C | 0.3% | 85.3hPa | 2.6V | 18:12:15 | 01:37:32 | 00:00:00 | |
| DB0DAN | 2026-08-30 05:54:40 | 52.42057 | 15.01033 | 105° | 24km/h | 17554m | 5.3m/s | -51.5°C | 1% | 85.41hPa | 2.6V | 00:00:00 | 00:00:00 | 00:00:00 | |
| SONDE2-12 | 2026-08-30 05:54:38 | 52.42061 | 15.01013 | 111° | 26km/h | 17545m | 5.5m/s | -51.7°C | 1.2% | 85.5hPa | 2.6V | 00:00:00 | 00:00:00 | 00:00:00 | |
| SP3BTT-10 | 2026-08-30 05:54:35 | 52.42068 | 15.00983 | 105° | 42km/h | 17531m | 4.1m/s | -51.6°C | 4.1% | 85.6hPa | 2.6V | 00:00:00 | 00:00:00 | 08:30:00 | |
| DM0DOS-11 | 2026-08-30 05:54:34 | 52.42073 | 15.00934 | 92° | 31km/h | 17513m | 5.3m/s | -51.6°C | 4.1% | 86hPa | 2.7V | 08:30:00 | 01:37:22 | 00:00:00 | |
| DL1XH-west | 2026-08-30 05:54:33 | 52.42071 | 15.00960 | 101° | 31km/h | 17521m | 4.3m/s | -51.6°C | 0.4% | 85.8hPa | 2.6V | 18:12:15 | 01:37:24 | 00:00:00 | |
| DF8AY | 2026-08-30 05:54:31 | 52.42073 | 15.00934 | 92° | 31km/h | 17513m | 5.4m/s | 0°C | 0% | 0hPa | 2.7V | 18:12:15 | 01:37:22 | 00:00:00 | |
| AA1-15 | 2026-08-30 05:54:31 | 52.42073 | 15.00921 | 89° | 33km/h | 17508m | 4m/s | -51.6°C | 0.3% | 86hPa | 2.7V | 18:12:15 | 01:37:21 | 00:00:00 | |
| SQ2ODE-11 | 2026-08-30 05:54:31 | 52.42073 | 15.00934 | 93° | 31km/h | 17513m | 5.4m/s | -51.6°C | 1.0% | 86.0hPa | 2.6V | 00:00:00 | 00:00:00 | 00:00:00 | |
| SONDE2-11 | 2026-08-30 05:54:29 | 52.42073 | 15.00907 | 90° | 33km/h | 17503m | 5.7m/s | -51.5°C | 1.1% | 86.1hPa | 2.6V | 00:00:00 | 00:00:00 | 00:00:00 | |
| EDDB2-12 | 2026-08-30 05:54:28 | 52.42073 | 15.00892 | 93° | 35km/h | 17499m | 4.2m/s | -51.5°C | 1.0% | 86.1hPa | 2.6V | 00:00:00 | 00:00:00 | 00:00:00 | |
| DL1XH1-15 | 2026-08-30 05:54:26 | 52.42078 | 15.00819 | 99° | 37km/h | 17475m | 4.4m/s | -51.7°C | 4.2% | 86.5hPa | 2.6V | 08:30:00 | 01:37:14 | 00:00:00 | |
| DL1XH-west | 2026-08-30 05:54:22 | 52.42079 | 15.00804 | 100° | 37km/h | 17470m | 5.9m/s | -51.7°C | 0.3% | 86.5hPa | 2.6V | 18:12:15 | 01:37:13 | 00:00:00 | |
| EDDB2-11 | 2026-08-30 05:54:22 | 52.42081 | 15.00789 | 100° | 35km/h | 17465m | 4.6m/s | -51.8°C | 1.0% | 86.6hPa | 2.6V | 00:00:00 | 00:00:00 | 00:00:00 | |
| POL1PZ | 2026-08-30 05:54:21 | 52.42081 | 15.00789 | 101° | 35km/h | 17465m | 4.6m/s | -51.8°C | 1.0% | 86.6hPa | 2.6V | 00:00:00 | 00:00:00 | 00:00:00 | |
| DM0DOS-11 | 2026-08-30 05:54:20 | 52.42087 | 15.00703 | 87° | 37km/h | 17436m | 5.2m/s | -51.9°C | 4.3% | 87hPa | 2.6V | 08:30:00 | 01:37:06 | 00:00:00 | |
| AA1-15 | 2026-08-30 05:54:19 | 52.42084 | 15.00761 | 102° | 37km/h | 17455m | 4.3m/s | -51.8°C | 0.4% | 86.7hPa | 2.7V | 18:12:15 | 01:37:10 | 00:00:00 | |
| DF8AY | 2026-08-30 05:54:17 | 52.42087 | 15.00732 | 95° | 35km/h | 17445m | 5.1m/s | 0°C | 0% | 0hPa | 2.6V | 18:12:15 | 01:37:08 | 00:00:00 | |
| DL1XH-west | 2026-08-30 05:54:11 | 52.42084 | 15.00641 | 86° | 38km/h | 17416m | 5.9m/s | -52°C | 0.4% | 87.2hPa | 2.6V | 18:12:15 | 01:37:02 | 00:00:00 | |
| AA1-15 | 2026-08-30 05:54:08 | 52.42084 | 15.00594 | 91° | 35km/h | 17402m | 5.1m/s | -52.1°C | 0.4% | 87.4hPa | 2.7V | 18:12:15 | 01:36:59 | 00:00:00 | |
| SONDE2-12 | 2026-08-30 05:54:07 | 52.42084 | 15.00580 | 88° | 33km/h | 17398m | 3.7m/s | -52.0°C | 1.3% | 87.5hPa | 2.6V | 00:00:00 | 00:00:00 | 00:00:00 | |
| DL1XH1-15 | 2026-08-30 05:54:06 | 52.42079 | 15.00520 | 72° | 40km/h | 17379m | 4m/s | -51.9°C | 4.2% | 87.7hPa | 2.6V | 08:30:00 | 01:36:54 | 00:00:00 | |
| DL1XH-west | 2026-08-30 05:54:01 | 52.42071 | 15.00487 | 69° | 47km/h | 17369m | 4.9m/s | -52°C | 0.4% | 87.9hPa | 2.7V | 18:12:15 | 01:36:52 | 00:00:00 | |
| DAC517 | 2026-08-30 05:54:00 | 52.42071 | 15.00487 | 70° | 47km/h | 17369m | 4.9m/s | -52.0°C | 1.1% | 87.9hPa | 2.7V | 00:00:00 | 00:00:00 | 00:00:00 | |
| DM0DOS-11 | 2026-08-30 05:53:59 | 52.42046 | 15.00358 | 73° | 42km/h | 17336m | 4m/s | -52.1°C | 4.3% | 88.3hPa | 2.7V | 08:30:00 | 01:36:45 | 00:00:00 | |
| AA1-15 | 2026-08-30 05:53:57 | 52.42055 | 15.00413 | 74° | 49km/h | 17350m | 4.5m/s | -52.1°C | 0.5% | 88.1hPa | 2.6V | 18:12:15 | 01:36:48 | 00:00:00 | |
| DL1XH1-15 | 2026-08-30 05:53:56 | 52.42043 | 15.00342 | 73° | 40km/h | 17332m | 4.6m/s | -52.1°C | 4.2% | 88.4hPa | 2.6V | 08:30:00 | 01:36:44 | 00:00:00 | |
| DL1XH-west | 2026-08-30 05:53:50 | 52.42033 | 15.00294 | 66° | 40km/h | 17318m | 5.6m/s | -52.2°C | 0.4% | 88.6hPa | 2.7V | 18:12:15 | 01:36:41 | 00:00:00 | |
| DF8AY | 2026-08-30 05:53:49 | 52.42028 | 15.00278 | 66° | 42km/h | 17313m | 4.3m/s | 0°C | 0% | 0hPa | 2.7V | 18:12:15 | 01:36:40 | 00:00:00 | |
| AA1-15 | 2026-08-30 05:53:46 | 52.42015 | 15.00229 | 65° | 44km/h | 17298m | 6m/s | -52.3°C | 0.4% | 88.8hPa | 2.6V | 18:12:15 | 01:36:37 | 00:00:00 | |
| SQ2ODE-11 | 2026-08-30 05:53:45 | 52.42015 | 15.00229 | 66° | 44km/h | 17298m | 6.0m/s | -52.3°C | 1.1% | 88.8hPa | 2.6V | 00:00:00 | 00:00:00 | 00:00:00 | |
| DM0DOS-11 | 2026-08-30 05:53:44 | 52.42001 | 15.00178 | 69° | 46km/h | 17283m | 4.4m/s | -52.5°C | 4.3% | 89hPa | 2.6V | 08:30:00 | 01:36:34 | 00:00:00 | |
| SONCRA | 2026-08-30 05:53:43 | 52.41998 | 15.00161 | 69° | 42km/h | 17279m | 5.5m/s | -52.5°C | 1.1% | 89.1hPa | 2.7V | 00:00:00 | 00:00:00 | 00:00:00 | |
| 13BRC | 2026-08-30 05:53:41 | 52.41997 | 15.00161 | 71° | 44km/h | 17279m | 5.5m/s | -52.5°C | 1.1% | 89.1hPa | 2.7V | 00:00:00 | 00:00:00 | 00:00:00 | |
| DB0DAN | 2026-08-30 05:53:40 | 52.41991 | 15.00128 | 72° | 40km/h | 17268m | 5.3m/s | -52.6°C | 1.1% | 89.25hPa | 2.7V | 00:00:00 | 00:00:00 | 00:00:00 | |
| DL1XH-west | 2026-08-30 05:53:40 | 52.41991 | 15.00128 | 72° | 42km/h | 17268m | 5.3m/s | -52.6°C | 0.5% | 89.2hPa | 2.7V | 18:12:15 | 01:36:31 | 00:00:00 | |
| DF8AY | 2026-08-30 05:53:39 | 52.41988 | 15.00112 | 74° | 42km/h | 17264m | 4.6m/s | 0°C | 0% | 0hPa | 2.6V | 18:12:15 | 01:36:30 | 00:00:00 | |
| SONDE2-12 | 2026-08-30 05:53:36 | 52.41977 | 15.00063 | 68° | 40km/h | 17250m | 4.4m/s | -52.6°C | 1.4% | 89.5hPa | 2.6V | 00:00:00 | 00:00:00 | 00:00:00 | |
| AA1-15 | 2026-08-30 05:53:35 | 52.41973 | 15.00047 | 67° | 42km/h | 17245m | 5.4m/s | -52.6°C | 0.5% | 89.6hPa | 2.6V | 18:12:15 | 01:36:26 | 00:00:00 | |
| SP3BTT-10 | 2026-08-30 05:53:35 | 52.41973 | 15.00047 | 67° | 44km/h | 17245m | 5.3m/s | -52.6°C | 4.4% | 89.5hPa | 2.7V | 00:00:00 | 00:00:00 | 00:00:00 | |
| DM0DOS-11 | 2026-08-30 05:53:34 | 52.41964 | 15.00014 | 63° | 44km/h | 17236m | 5.2m/s | -52.6°C | 4.4% | 89.7hPa | 2.7V | 08:30:00 | 01:36:24 | 00:00:00 | |
| DL1XH-west | 2026-08-30 05:53:29 | 52.41943 | 14.99947 | 66° | 47km/h | 17217m | 3.3m/s | -52.4°C | 0.4% | 90hPa | 2.6V | 18:12:15 | 01:36:20 | 00:00:00 | |
| SONDE2-11 | 2026-08-30 05:53:27 | 52.41929 | 14.99894 | 67° | 44km/h | 17204m | 3.8m/s | -52.4°C | 1.1% | 90.1hPa | 2.6V | 00:00:00 | 00:00:00 | 00:00:00 | |
| DL1XH1-15 | 2026-08-30 05:53:26 | 52.41911 | 14.99827 | 64° | 42km/h | 17185m | 3.7m/s | -52.3°C | 4.3% | 90.4hPa | 2.6V | 08:30:00 | 01:36:13 | 00:00:00 | |
| AA1-15 | 2026-08-30 05:53:25 | 52.41924 | 14.99877 | 69° | 46km/h | 17199m | 5m/s | -52.3°C | 0.5% | 90.2hPa | 2.7V | 18:12:15 | 01:36:16 | 00:00:00 | |
| DB0DAN | 2026-08-30 05:53:25 | 52.41924 | 14.99877 | 69° | 44km/h | 17199m | 5m/s | -52.3°C | 1.1% | 90.24hPa | 2.7V | 00:00:00 | 00:00:00 | 00:00:00 | |
| DL1XH-west | 2026-08-30 05:53:18 | 52.41893 | 14.99763 | 64° | 40km/h | 17167m | 4.8m/s | -52.3°C | 0.4% | 90.7hPa | 2.6V | 18:12:15 | 01:36:09 | 00:00:00 | |
| DL1XH1-15 | 2026-08-30 05:53:16 | 52.41866 | 14.99664 | 64° | 46km/h | 17139m | 4m/s | -52.2°C | 4.2% | 91hPa | 2.6V | 08:30:00 | 01:36:03 | 00:00:00 | |
| AA1-15 | 2026-08-30 05:53:15 | 52.41880 | 14.99715 | 67° | 46km/h | 17153m | 2.9m/s | -52.2°C | 0.4% | 90.9hPa | 2.7V | 18:12:15 | 01:36:06 | 00:00:00 | |
| SQ2ODE-11 | 2026-08-30 05:53:13 | 52.41875 | 14.99698 | 67° | 46km/h | 17149m | 5.5m/s | -52.2°C | 1.1% | 90.9hPa | 2.6V | 00:00:00 | 00:00:00 | 00:00:00 | |
| DB0DAN | 2026-08-30 05:53:10 | 52.41856 | 14.99628 | 67° | 46km/h | 17129m | 4.1m/s | -52.2°C | 1.1% | 91.19hPa | 2.6V | 00:00:00 | 00:00:00 | 00:00:00 | |
| DL1XH-west | 2026-08-30 05:53:07 | 52.41842 | 14.99576 | 65° | 46km/h | 17115m | 5.4m/s | -52.3°C | 0.4% | 91.4hPa | 2.7V | 18:12:15 | 01:35:58 | 00:00:00 | |
| DL1XH1-15 | 2026-08-30 05:53:06 | 52.41817 | 14.99491 | 63° | 47km/h | 17092m | 5.2m/s | -52.3°C | 4.3% | 91.7hPa | 2.7V | 08:30:00 | 01:35:53 | 00:00:00 | |
| SONDE2-12 | 2026-08-30 05:53:05 | 52.41832 | 14.99542 | 65° | 46km/h | 17106m | 3.8m/s | -52.3°C | 1.4% | 91.5hPa | 2.6V | 00:00:00 | 00:00:00 | 00:00:00 | |
| AA1-15 | 2026-08-30 05:53:04 | 52.41827 | 14.99525 | 63° | 46km/h | 17101m | 5.1m/s | -52.3°C | 0.5% | 91.6hPa | 2.6V | 18:12:15 | 01:35:55 | 00:00:00 | |
| DL1XH-west | 2026-08-30 05:52:57 | 52.41790 | 14.99406 | 65° | 46km/h | 17068m | 4.7m/s | -52.6°C | 0.5% | 92hPa | 2.7V | 18:12:15 | 01:35:48 | 00:00:00 | |
| SONDE2-11 | 2026-08-30 05:52:56 | 52.41780 | 14.99373 | 64° | 42km/h | 17060m | 5.0m/s | -52.6°C | 1.1% | 92.2hPa | 2.7V | 00:00:00 | 00:00:00 | 00:00:00 | |
| DB0DAN | 2026-08-30 05:52:55 | 52.41780 | 14.99373 | 64° | 42km/h | 17060m | 5m/s | -52.6°C | 1.1% | 92.18hPa | 2.7V | 00:00:00 | 00:00:00 | 00:00:00 | |
| EDDB2-12 | 2026-08-30 05:52:55 | 52.41780 | 14.99373 | 64° | 42km/h | 17060m | 5.0m/s | -52.6°C | 1.1% | 92.2hPa | 2.6V | 00:00:00 | 00:00:00 | 00:00:00 | |
| DM0DOS-11 | 2026-08-30 05:52:54 | 52.41771 | 14.99341 | 64° | 42km/h | 17051m | 6.1m/s | -52.7°C | 4.5% | 92.3hPa | 2.6V | 08:30:00 | 01:35:44 | 00:00:00 | |
| AA1-15 | 2026-08-30 05:52:53 | 52.41770 | 14.99341 | 65° | 42km/h | 17051m | 6.1m/s | -52.7°C | 0.5% | 92.3hPa | 2.6V | 18:12:15 | 01:35:44 | 00:00:00 | |
| DL1XH-west | 2026-08-30 05:52:47 | 52.41738 | 14.99244 | 58° | 46km/h | 17022m | 5.1m/s | -52.7°C | 0.5% | 92.7hPa | 2.6V | 18:12:15 | 01:35:38 | 00:00:00 | |
| KRY50SP-1 | 2026-08-30 05:52:46 | 52.41738 | 14.99244 | 59° | 46km/h | 17022m | 5.1m/s | -52.7°C | 1.1% | 92.7hPa | 2.6V | 00:00:00 | 00:00:00 | 00:00:00 | |
| SP6BVK | 2026-08-30 05:52:45 | 52.41732 | 14.99229 | 58° | 46km/h | 17018m | 4.3m/s | -52.6°C | 1.1% | 92.8hPa | 2.6V | 00:00:00 | 00:00:00 | 00:00:00 | |
| DM0DOS-11 | 2026-08-30 05:52:44 | 52.41713 | 14.99181 | 58° | 46km/h | 17004m | 4m/s | -52.8°C | 4.4% | 93hPa | 2.6V | 08:30:00 | 01:35:34 | 00:00:00 | |
| AA1-15 | 2026-08-30 05:52:42 | 52.41707 | 14.99165 | 58° | 46km/h | 16999m | 5.7m/s | -52.9°C | 0.5% | 93.1hPa | 2.7V | 18:12:15 | 01:35:33 | 00:00:00 | |
| DB0DAN | 2026-08-30 05:52:40 | 52.41695 | 14.99135 | 55° | 42km/h | 16990m | 4.8m/s | -52.7°C | 1.1% | 93.19hPa | 2.6V | 00:00:00 | 00:00:00 | 00:00:00 | |
| DL1XH-west | 2026-08-30 05:52:36 | 52.41669 | 14.99076 | 54° | 44km/h | 16971m | 4.1m/s | -52.5°C | 0.5% | 93.5hPa | 2.6V | 18:12:15 | 01:35:27 | 00:00:00 | |
| DL1XH1-15 | 2026-08-30 05:52:35 | 52.41642 | 14.99011 | 52° | 49km/h | 16952m | 4.8m/s | -52.5°C | 4.4% | 93.7hPa | 2.7V | 08:30:00 | 01:35:23 | 00:00:00 | |
| SP3BTT-10 | 2026-08-30 05:52:35 | 52.41662 | 14.99060 | 55° | 38km/h | 16967m | 5.6m/s | -52.4°C | 4.4% | 93.5hPa | 2.7V | 00:00:00 | 00:00:00 | 00:00:00 | |
| DM0DOS-11 | 2026-08-30 05:52:34 | 52.41649 | 14.99027 | 55° | 49km/h | 16957m | 4.8m/s | -52.5°C | 4.3% | 93.7hPa | 2.7V | 08:30:00 | 01:35:24 | 00:00:00 | |
| AA1-15 | 2026-08-30 05:52:31 | 52.41634 | 14.98995 | 53° | 49km/h | 16948m | 3.8m/s | -52.6°C | 0.5% | 93.8hPa | 2.6V | 18:12:15 | 01:35:22 | 00:00:00 | |
| DL1XH-west | 2026-08-30 05:52:26 | 52.41598 | 14.98917 | 48° | 47km/h | 16926m | 4.3m/s | -52.7°C | 0.5% | 94.1hPa | 2.7V | 18:12:15 | 01:35:17 | 00:00:00 | |
| DB0DAN | 2026-08-30 05:52:25 | 52.41590 | 14.98902 | 48° | 46km/h | 16921m | 5.3m/s | -52.6°C | 1.1% | 94.22hPa | 2.6V | 00:00:00 | 00:00:00 | 00:00:00 | |
| DL1XH1-15 | 2026-08-30 05:52:25 | 52.41565 | 14.98858 | 47° | 47km/h | 16906m | 4.7m/s | -52.5°C | 4.4% | 94.4hPa | 2.7V | 08:30:00 | 01:35:13 | 00:00:00 | |
| DM0DOS-11 | 2026-08-30 05:52:24 | 52.41573 | 14.98872 | 48° | 47km/h | 16911m | 5m/s | -52.6°C | 4.5% | 94.3hPa | 2.6V | 08:30:00 | 01:35:14 | 00:00:00 | |
| AA1-15 | 2026-08-30 05:52:20 | 52.41550 | 14.98828 | 51° | 46km/h | 16897m | 5m/s | -52.5°C | 0.5% | 94.6hPa | 2.7V | 18:12:15 | 01:35:11 | 00:00:00 | |
| DAC517 | 2026-08-30 05:52:19 | 52.41550 | 14.98828 | 52° | 46km/h | 16897m | 5.0m/s | -52.5°C | 1.1% | 94.6hPa | 2.6V | 00:00:00 | 00:00:00 | 00:00:00 | |
| KRY50SP-1 | 2026-08-30 05:52:17 | 52.41536 | 14.98799 | 52° | 44km/h | 16887m | 5.8m/s | -52.3°C | 1.1% | 94.7hPa | 2.6V | 00:00:00 | 00:00:00 | 00:00:00 | |
| DL1XH1-15 | 2026-08-30 05:52:15 | 52.41487 | 14.98705 | 49° | 40km/h | 16854m | 4.2m/s | -52.1°C | 4.3% | 95.2hPa | 2.6V | 08:30:00 | 01:35:02 | 00:00:00 | |
| DL1XH-west | 2026-08-30 05:52:15 | 52.41516 | 14.98757 | 52° | 42km/h | 16872m | 4.5m/s | -52.2°C | 0.4% | 94.9hPa | 2.7V | 18:12:15 | 01:35:06 | 00:00:00 | |
| DM0DOS-11 | 2026-08-30 05:52:14 | 52.41502 | 14.98730 | 46° | 44km/h | 16863m | 3.9m/s | -52.2°C | 4.3% | 95.1hPa | 2.6V | 08:30:00 | 01:35:04 | 00:00:00 | |
| AA1-15 | 2026-08-30 05:52:09 | 52.41474 | 14.98679 | 51° | 42km/h | 16844m | 5.5m/s | -52.2°C | 0.4% | 95.4hPa | 2.7V | 18:12:15 | 01:35:00 | 00:00:00 | |
| S3001 | 2026-08-30 05:52:09 | 52.41467 | 14.98665 | 53° | 42km/h | 16840m | 4.0m/s | -52.3°C | 1.1% | 95.4hPa | 2.6V | 00:00:00 | 00:00:00 | 00:00:00 | |
| SQ2ODE-11 | 2026-08-30 05:52:07 | 52.41467 | 14.98666 | 55° | 42km/h | 16840m | 4.0m/s | -52.3°C | 1.1% | 95.4hPa | 2.6V | 00:00:00 | 00:00:00 | 00:00:00 | |
| DL1XH1-15 | 2026-08-30 05:52:05 | 52.41425 | 14.98561 | 55° | 44km/h | 16808m | 4.2m/s | -52.2°C | 4.3% | 95.9hPa | 2.6V | 08:30:00 | 01:34:52 | 00:00:00 | |
| DL1XH-west | 2026-08-30 05:52:04 | 52.41444 | 14.98606 | 56° | 46km/h | 16821m | 4.1m/s | -52.3°C | 0.5% | 95.7hPa | 2.7V | 18:12:15 | 01:34:55 | 00:00:00 | |
| SONDE2-12 | 2026-08-30 05:52:03 | 52.41437 | 14.98591 | 55° | 44km/h | 16817m | 4.6m/s | -52.3°C | 1.4% | 95.7hPa | 2.7V | 00:00:00 | 00:00:00 | 00:00:00 | |
| AA1-15 | 2026-08-30 05:51:58 | 52.41404 | 14.98520 | 47° | 40km/h | 16794m | 4.5m/s | -52.2°C | 0.5% | 96.1hPa | 2.7V | 18:12:15 | 01:34:49 | 00:00:00 | |
| DL1XH1-15 | 2026-08-30 05:51:55 | 52.41364 | 14.98435 | 58° | 37km/h | 16762m | 4.9m/s | -52°C | 4.3% | 96.5hPa | 2.6V | 08:30:00 | 01:34:42 | 00:00:00 | |
| DL1XH-west | 2026-08-30 05:51:54 | 52.41379 | 14.98472 | 52° | 38km/h | 16776m | 4m/s | -52.1°C | 0.5% | 96.4hPa | 2.6V | 18:12:15 | 01:34:45 | 00:00:00 | |
| AA1-15 | 2026-08-30 05:51:47 | 52.41344 | 14.98384 | 57° | 35km/h | 16744m | 4.7m/s | -51.9°C | 0.4% | 96.8hPa | 2.6V | 18:12:15 | 01:34:38 | 00:00:00 | |
| EDDB2-11 | 2026-08-30 05:51:47 | 52.41339 | 14.98372 | 57° | 35km/h | 16740m | 5.0m/s | -51.9°C | 1.1% | 96.9hPa | 2.7V | 00:00:00 | 00:00:00 | 00:00:00 | |
| DL1XH1-15 | 2026-08-30 05:51:45 | 52.41313 | 14.98316 | 48° | 35km/h | 16716m | 5.1m/s | -51.7°C | 4.2% | 97.2hPa | 2.7V | 08:30:00 | 01:34:32 | 00:00:00 | |
| DL1XH-west | 2026-08-30 05:51:43 | 52.41324 | 14.98336 | 51° | 33km/h | 16726m | 5m/s | -51.9°C | 0.4% | 97.1hPa | 2.6V | 18:12:15 | 01:34:34 | 00:00:00 | |
| SP6BVK | 2026-08-30 05:51:42 | 52.41324 | 14.98336 | 52° | 33km/h | 16726m | 5.0m/s | -51.9°C | 1.1% | 97.1hPa | 2.7V | 00:00:00 | 00:00:00 | 00:00:00 | |
| DB0DAN | 2026-08-30 05:51:40 | 52.41307 | 14.98305 | 49° | 33km/h | 16712m | 3.3m/s | -51.7°C | 1.1% | 97.31hPa | 2.7V | 00:00:00 | 00:00:00 | 00:00:00 | |
| AA1-15 | 2026-08-30 05:51:37 | 52.41293 | 14.98275 | 54° | 31km/h | 16698m | 5m/s | -51.6°C | 0.4% | 97.5hPa | 2.6V | 18:12:15 | 01:34:28 | 00:00:00 | |
| DL1XH-west | 2026-08-30 05:51:33 | 52.41275 | 14.98231 | 56° | 29km/h | 16680m | 4.2m/s | -51.6°C | 0.3% | 97.8hPa | 2.7V | 18:12:15 | 01:34:24 | 00:00:00 | |
| SONDE2-12 | 2026-08-30 05:51:32 | 52.41271 | 14.98221 | 53° | 29km/h | 16676m | 5.3m/s | -51.7°C | 1.3% | 97.9hPa | 2.6V | 00:00:00 | 00:00:00 | 00:00:00 | |
| AA1-15 | 2026-08-30 05:51:26 | 52.41241 | 14.98167 | 48° | 29km/h | 16648m | 4.1m/s | -51.9°C | 0.4% | 98.3hPa | 2.6V | 18:12:15 | 01:34:17 | 00:00:00 | |
| DB0DAN | 2026-08-30 05:51:25 | 52.41236 | 14.98158 | 53° | 26km/h | 16643m | 4.6m/s | -51.9°C | 1.1% | 98.3hPa | 2.6V | 00:00:00 | 00:00:00 | 00:00:00 | |
| DL1XH1-15 | 2026-08-30 05:51:25 | 52.41224 | 14.98121 | 65° | 26km/h | 16624m | 3m/s | -51.8°C | 4.2% | 98.6hPa | 2.7V | 08:30:00 | 01:34:12 | 00:00:00 | |
| DL1XH-west | 2026-08-30 05:51:22 | 52.41227 | 14.98130 | 64° | 26km/h | 16628m | 5.2m/s | -51.8°C | 0.4% | 98.6hPa | 2.7V | 18:12:15 | 01:34:13 | 00:00:00 | |
| AA1-15 | 2026-08-30 05:51:15 | 52.41208 | 14.98071 | 55° | 20km/h | 16598m | 4.4m/s | -52°C | 0.4% | 99.1hPa | 2.7V | 18:12:15 | 01:34:06 | 00:00:00 | |
| DL1XH1-15 | 2026-08-30 05:51:15 | 52.41196 | 14.98044 | 58° | 20km/h | 16579m | 4.1m/s | -52.1°C | 4.3% | 99.3hPa | 2.7V | 08:30:00 | 01:34:02 | 00:00:00 | |
| DL1XH-west | 2026-08-30 05:51:12 | 52.41199 | 14.98051 | 54° | 20km/h | 16584m | 5.7m/s | -52.1°C | 0.4% | 99.3hPa | 2.6V | 18:12:15 | 01:34:03 | 00:00:00 | |
| SQ2ODE-11 | 2026-08-30 05:51:12 | 52.41202 | 14.98057 | 53° | 20km/h | 16589m | 4.0m/s | -52.0°C | 0% | 0hPa | 2.7V | 00:00:00 | 00:00:00 | 00:00:00 | |
| DM0DOS-11 | 2026-08-30 05:51:11 | 52.41183 | 14.98000 | 70° | 26km/h | 16557m | 3.3m/s | -52°C | 4.3% | 99.7hPa | 2.7V | 08:30:00 | 01:33:57 | 00:00:00 | |
| DB0DAN | 2026-08-30 05:51:10 | 52.41193 | 14.98037 | 60° | 20km/h | 16574m | 5.5m/s | -52.1°C | 1.1% | 99.43hPa | 2.7V | 00:00:00 | 00:00:00 | 00:00:00 | |
| POL1PZ | 2026-08-30 05:51:09 | 52.41193 | 14.98037 | 61° | 22km/h | 16574m | 5.5m/s | -52.1°C | 1.1% | 99.4hPa | 2.7V | 00:00:00 | 00:00:00 | 00:00:00 | |
| SQ2ODE-11 | 2026-08-30 05:51:07 | 52.41185 | 14.98010 | 70° | 24km/h | 16561m | 4.7m/s | -52.0°C | 0% | 0hPa | 2.7V | 00:00:00 | 00:00:00 | 00:00:00 | |
| DL1XH1-15 | 2026-08-30 05:51:05 | 52.41168 | 14.97951 | 58° | 24km/h | 16534m | 3.7m/s | -51.9°C | 4.3% | 100hPa | 2.7V | 08:30:00 | 01:33:52 | 00:00:00 | |
| AA1-15 | 2026-08-30 05:51:04 | 52.41178 | 14.97980 | 64° | 29km/h | 16548m | 3.9m/s | -51.9°C | 0.5% | 99.8hPa | 2.6V | 18:12:15 | 01:33:55 | 00:00:00 | |
| DL1XH-west | 2026-08-30 05:51:02 | 52.41171 | 14.97960 | 61° | 26km/h | 16539m | 4.8m/s | -51.9°C | 0.5% | 100hPa | 2.7V | 18:12:15 | 01:33:53 | 00:00:00 | |
| SONDE2-12 | 2026-08-30 05:51:01 | 52.41168 | 14.97951 | 58° | 24km/h | 16535m | 3.7m/s | -51.9°C | 1.4% | 100.0hPa | 2.6V | 00:00:00 | 00:00:00 | 00:00:00 | |
| KRY50SP-1 | 2026-08-30 05:51:00 | 52.41168 | 14.97951 | 59° | 24km/h | 16535m | 3.7m/s | -51.9°C | 1.1% | 100.0hPa | 2.6V | 00:00:00 | 00:00:00 | 00:00:00 | |
| 13BRC | 2026-08-30 05:50:58 | 52.41161 | 14.97934 | 52° | 26km/h | 16526m | 4.1m/s | -51.9°C | 1.1% | 100.2hPa | 2.6V | 00:00:00 | 00:00:00 | 00:00:00 | |
| DAC517 | 2026-08-30 05:50:57 | 52.41157 | 14.97925 | 53° | 26km/h | 16521m | 5.4m/s | -52.0°C | 1.1% | 100.2hPa | 2.6V | 00:00:00 | 00:00:00 | 00:00:00 | |
| DB0DAN | 2026-08-30 05:50:55 | 52.41145 | 14.97901 | 54° | 26km/h | 16507m | 4.2m/s | -52.1°C | 1.1% | 100.47hPa | 2.6V | 00:00:00 | 00:00:00 | 00:00:00 | |
| DL1XH1-15 | 2026-08-30 05:50:55 | 52.41130 | 14.97864 | 53° | 27km/h | 16488m | 4.5m/s | -52°C | 4.2% | 100.8hPa | 2.6V | 08:30:00 | 01:33:42 | 00:00:00 | |
| AA1-15 | 2026-08-30 05:50:53 | 52.41138 | 14.97883 | 57° | 26km/h | 16497m | 4.1m/s | -52.1°C | 0.4% | 100.6hPa | 2.7V | 18:12:15 | 01:33:44 | 00:00:00 | |
| DL1XH-west | 2026-08-30 05:50:52 | 52.41130 | 14.97864 | 54° | 27km/h | 16488m | 4.5m/s | -52°C | 0.4% | 100.8hPa | 2.6V | 18:12:15 | 01:33:42 | 00:00:00 | |
| DM0DOS-11 | 2026-08-30 05:50:52 | 52.41109 | 14.97822 | 44° | 27km/h | 16464m | 4.3m/s | -51.9°C | 4.3% | 101.1hPa | 2.7V | 08:30:00 | 01:33:37 | 00:00:00 | |
| SONDE2-11 | 2026-08-30 05:50:52 | 52.41130 | 14.97864 | 53° | 27km/h | 16488m | 4.5m/s | -52.0°C | 1.1% | 100.8hPa | 2.7V | 00:00:00 | 00:00:00 | 00:00:00 | |
| EDDB2-12 | 2026-08-30 05:50:51 | 52.41126 | 14.97855 | 53° | 26km/h | 16483m | 4.9m/s | -52.0°C | 1.1% | 100.8hPa | 2.7V | 00:00:00 | 00:00:00 | 00:00:00 | |
| DL2RXE-15 | 2026-08-30 05:50:50 | 52.41130 | 14.97864 | 55° | 27km/h | 16488m | 4.5m/s | -52.0°C | 1.1% | 100.8hPa | 2.7V | 00:00:00 | 00:00:00 | 00:00:00 | |
| SQ2ODE-11 | 2026-08-30 05:50:48 | 52.41122 | 14.97846 | 54° | 26km/h | 16479m | 4.3m/s | -52.0°C | 0% | 0hPa | 2.7V | 00:00:00 | 00:00:00 | 00:00:00 | |
| DL1XH1-15 | 2026-08-30 05:50:45 | 52.41085 | 14.97783 | 45° | 27km/h | 16442m | 5.4m/s | -51.7°C | 4.4% | 101.5hPa | 2.7V | 08:30:00 | 01:33:32 | 00:00:00 | |
| EDDB2-11 | 2026-08-30 05:50:45 | 52.41099 | 14.97807 | 45° | 24km/h | 16456m | 3.3m/s | -51.8°C | 1.2% | 101.2hPa | 2.7V | 00:00:00 | 00:00:00 | 00:00:00 | |
| AA1-15 | 2026-08-30 05:50:42 | 52.41090 | 14.97791 | 45° | 27km/h | 16447m | 4m/s | -51.8°C | 0.5% | 101.4hPa | 2.7V | 18:12:15 | 01:33:33 | 00:00:00 | |
| SP6BVK | 2026-08-30 05:50:41 | 52.41090 | 14.97791 | 46° | 27km/h | 16447m | 4.0m/s | -51.8°C | 1.2% | 101.4hPa | 2.7V | 00:00:00 | 00:00:00 | 00:00:00 | |
| DB0DAN | 2026-08-30 05:50:40 | 52.41080 | 14.97775 | 45° | 26km/h | 16438m | 3.3m/s | -51.7°C | 1.1% | 101.53hPa | 2.7V | 00:00:00 | 00:00:00 | 00:00:00 | |
| DL1XH-west | 2026-08-30 05:50:40 | 52.41080 | 14.97775 | 45° | 27km/h | 16438m | 3.3m/s | -51.7°C | 0.4% | 101.5hPa | 2.7V | 18:12:15 | 01:33:31 | 00:00:00 | |
| 13BRC | 2026-08-30 05:50:38 | 52.41075 | 14.97767 | 45° | 27km/h | 16434m | 5.2m/s | -51.7°C | 1.2% | 101.6hPa | 2.6V | 00:00:00 | 00:00:00 | 00:00:00 | |
| DAC517 | 2026-08-30 05:50:37 | 52.41070 | 14.97759 | 44° | 27km/h | 16429m | 3.7m/s | -51.7°C | 1.1% | 101.7hPa | 2.6V | 00:00:00 | 00:00:00 | 00:00:00 | |
| SONCRA | 2026-08-30 05:50:36 | 52.41060 | 14.97745 | 41° | 24km/h | 16420m | 3.8m/s | -51.7°C | 1.1% | 101.8hPa | 2.6V | 00:00:00 | 00:00:00 | 00:00:00 | |
| DL1XH1-15 | 2026-08-30 05:50:35 | 52.41034 | 14.97712 | 34° | 24km/h | 16398m | 3.7m/s | -51.7°C | 4.1% | 102.2hPa | 2.6V | 08:30:00 | 01:33:22 | 00:00:00 | |
| SP3BTT-10 | 2026-08-30 05:50:35 | 52.41055 | 14.97738 | 40° | 20km/h | 16416m | 5.1m/s | -51.7°C | 4.2% | 101.8hPa | 2.6V | 00:00:00 | 00:00:00 | 00:00:00 | |
| KRY50SP-1 | 2026-08-30 05:50:32 | 52.41044 | 14.97724 | 36° | 27km/h | 16407m | 4.1m/s | -51.7°C | 1.1% | 102.0hPa | 2.6V | 00:00:00 | 00:00:00 | 00:00:00 | |
| DM0DOS-11 | 2026-08-30 05:50:31 | 52.41010 | 14.97684 | 44° | 22km/h | 16374m | 4.4m/s | -51.5°C | 4.2% | 102.5hPa | 2.6V | 08:30:00 | 01:33:17 | 00:00:00 | |
| AA1-15 | 2026-08-30 05:50:31 | 52.41034 | 14.97712 | 34° | 24km/h | 16398m | 3.7m/s | -51.7°C | 0.3% | 102.2hPa | 2.6V | 18:12:15 | 01:33:22 | 00:00:00 | |
| DL2RXE-15 | 2026-08-30 05:50:30 | 52.41029 | 14.97707 | 33° | 24km/h | 16394m | 5.3m/s | -51.7°C | 1.1% | 102.2hPa | 2.6V | 00:00:00 | 00:00:00 | 00:00:00 | |
| DL1XH-west | 2026-08-30 05:50:30 | 52.41024 | 14.97702 | 33° | 24km/h | 16389m | 3.7m/s | -51.6°C | 0.3% | 102.3hPa | 2.7V | 18:12:15 | 01:33:20 | 00:00:00 | |
| SQ2ODE-11 | 2026-08-30 05:50:29 | 52.41029 | 14.97707 | 33° | 24km/h | 16394m | 5.3m/s | -51.7°C | 0% | 0hPa | 2.6V | 00:00:00 | 00:00:00 | 00:00:00 | |
| POL1PZ | 2026-08-30 05:50:28 | 52.41023 | 14.97702 | 34° | 24km/h | 16389m | 3.7m/s | -51.6°C | 1.1% | 102.3hPa | 2.6V | 00:00:00 | 00:00:00 | 00:00:00 | |
| KRY50SP-1 | 2026-08-30 05:50:27 | 52.41019 | 14.97696 | 36° | 24km/h | 16385m | 5.8m/s | -51.6°C | 1.1% | 102.4hPa | 2.6V | 00:00:00 | 00:00:00 | 00:00:00 | |
| DL1XH1-15 | 2026-08-30 05:50:26 | 52.40992 | 14.97650 | 50° | 22km/h | 16353m | 5.2m/s | -51.4°C | 4.2% | 102.9hPa | 2.6V | 08:30:00 | 01:33:12 | 00:00:00 | |
| DB0DAN | 2026-08-30 05:50:25 | 52.41006 | 14.97678 | 44° | 22km/h | 16370m | 4.7m/s | -51.5°C | 1.1% | 102.6hPa | 2.6V | 00:00:00 | 00:00:00 | 00:00:00 | |
| KRY50SP-1 | 2026-08-30 05:50:22 | 52.40999 | 14.97664 | 52° | 22km/h | 16362m | 4.9m/s | -51.5°C | 1.1% | 102.8hPa | 2.7V | 00:00:00 | 00:00:00 | 00:00:00 | |
| DM0DOS-11 | 2026-08-30 05:50:21 | 52.40974 | 14.97615 | 50° | 24km/h | 16330m | 4.5m/s | -51.3°C | 4.2% | 103.2hPa | 2.7V | 08:30:00 | 01:33:07 | 00:00:00 | |
| AA1-15 | 2026-08-30 05:50:20 | 52.40988 | 14.97643 | 50° | 22km/h | 16348m | 3.7m/s | -51.4°C | 0.4% | 102.9hPa | 2.6V | 18:12:15 | 01:33:11 | 00:00:00 | |
| DL1XH-west | 2026-08-30 05:50:19 | 52.40985 | 14.97636 | 52° | 22km/h | 16344m | 4.5m/s | -51.4°C | 0.4% | 103hPa | 2.6V | 18:12:15 | 01:33:10 | 00:00:00 | |
| 13BRC | 2026-08-30 05:50:17 | 52.40982 | 14.97629 | 52° | 22km/h | 16340m | 4.4m/s | -51.4°C | 1.1% | 103.1hPa | 2.6V | 00:00:00 | 00:00:00 | 00:00:00 | |
| DAC517 | 2026-08-30 05:50:16 | 52.40978 | 14.97622 | 49° | 24km/h | 16335m | 4.5m/s | -51.3°C | 1.1% | 103.1hPa | 2.6V | 00:00:00 | 00:00:00 | 00:00:00 | |
| EDDB2-11 | 2026-08-30 05:50:14 | 52.40965 | 14.97592 | 57° | 20km/h | 16317m | 5.0m/s | -51.3°C | 1.1% | 103.5hPa | 2.6V | 00:00:00 | 00:00:00 | 00:00:00 | |
| DL1XH1-15 | 2026-08-30 05:50:12 | 52.40960 | 14.97578 | 67° | 18km/h | 16308m | 5m/s | -51.2°C | 4.1% | 103.6hPa | 2.6V | 08:30:00 | 01:33:02 | 00:00:00 | |
| DM0DOS-11 | 2026-08-30 05:50:11 | 52.40950 | 14.97547 | 60° | 16km/h | 16285m | 4m/s | -51.3°C | 4.1% | 104hPa | 2.6V | 08:30:00 | 01:32:57 | 00:00:00 | |
| DB0DAN | 2026-08-30 05:50:10 | 52.40958 | 14.97571 | 67° | 16km/h | 16304m | 3.7m/s | -51.3°C | 1.1% | 103.67hPa | 2.6V | 00:00:00 | 00:00:00 | 00:00:00 | |
| AA1-15 | 2026-08-30 05:50:09 | 52.40956 | 14.97565 | 61° | 16km/h | 16299m | 5.2m/s | -51.3°C | 0.4% | 103.7hPa | 2.7V | 18:12:15 | 01:33:00 | 00:00:00 | |
| DL1XH-west | 2026-08-30 05:50:08 | 52.40954 | 14.97559 | 60° | 16km/h | 16294m | 4.5m/s | -51.2°C | 0.4% | 103.8hPa | 2.7V | 18:12:15 | 01:32:59 | 00:00:00 | |
| SONCRA | 2026-08-30 05:50:05 | 52.40948 | 14.97541 | 52° | 16km/h | 16280m | 5.2m/s | -51.4°C | 1.1% | 104.0hPa | 2.6V | 00:00:00 | 00:00:00 | 00:00:00 | |
| S3001 | 2026-08-30 05:50:04 | 52.40945 | 14.97535 | 54° | 16km/h | 16276m | 3.6m/s | -51.4°C | 1.1% | 104.1hPa | 2.6V | 00:00:00 | 00:00:00 | 00:00:00 | |
| DL1XH1-15 | 2026-08-30 05:50:02 | 52.40940 | 14.97517 | 74° | 15km/h | 16263m | 4.2m/s | -51.3°C | 4.1% | 104.3hPa | 2.6V | 08:30:00 | 01:32:52 | 00:00:00 | |
| DM0DOS-11 | 2026-08-30 05:50:01 | 52.40938 | 14.97487 | 98° | 15km/h | 16240m | 3.8m/s | -51.2°C | 4% | 104.7hPa | 2.6V | 08:30:00 | 01:32:47 | 00:00:00 | |
| SONDE2-12 | 2026-08-30 05:49:59 | 52.40938 | 14.97505 | 77° | 15km/h | 16254m | 3.9m/s | -51.3°C | 1.4% | 104.5hPa | 2.7V | 00:00:00 | 00:00:00 | 00:00:00 | |
| AA1-15 | 2026-08-30 05:49:58 | 52.40937 | 14.97499 | 82° | 15km/h | 16249m | 5.6m/s | -51.3°C | 0.4% | 104.5hPa | 2.7V | 18:12:15 | 01:32:49 | 00:00:00 | |
| DL1XH-west | 2026-08-30 05:49:57 | 52.40937 | 14.97493 | 96° | 15km/h | 16244m | 4.4m/s | -51.2°C | 0.4% | 104.6hPa | 2.7V | 18:12:15 | 01:32:48 | 00:00:00 | |
| DAC517 | 2026-08-30 05:49:56 | 52.40937 | 14.97493 | 97° | 15km/h | 16245m | 4.4m/s | -51.2°C | 1.1% | 104.6hPa | 2.6V | 00:00:00 | 00:00:00 | 00:00:00 | |
| DB0DAN | 2026-08-30 05:49:55 | 52.40938 | 14.97481 | 96° | 15km/h | 16236m | 4.7m/s | -51.2°C | 1.1% | 104.77hPa | 2.6V | 00:00:00 | 00:00:00 | 00:00:00 | |
| KRY50SP-1 | 2026-08-30 05:49:54 | 52.40938 | 14.97481 | 97° | 16km/h | 16236m | 4.7m/s | -51.2°C | 1.1% | 104.8hPa | 2.7V | 00:00:00 | 00:00:00 | 00:00:00 | |
| DL1XH1-15 | 2026-08-30 05:49:52 | 52.40940 | 14.97452 | 88° | 22km/h | 16218m | 4.4m/s | -51.1°C | 4.1% | 105hPa | 2.7V | 08:30:00 | 01:32:42 | 00:00:00 | |
| DM0DOS-11 | 2026-08-30 05:49:49 | 52.40939 | 14.97391 | 94° | 20km/h | 16189m | 2.9m/s | -51.3°C | 4% | 105.5hPa | 2.6V | 08:30:00 | 01:32:35 | 00:00:00 | |
| DL1XH-west | 2026-08-30 05:49:47 | 52.40940 | 14.97416 | 85° | 22km/h | 16202m | 5.1m/s | -51.2°C | 0.3% | 105.3hPa | 2.7V | 18:12:15 | 01:32:38 | 00:00:00 | |
| D01LWL | 2026-08-30 05:49:45 | 52.40939 | 14.97399 | 91° | 18km/h | 16193m | 4.7m/s | -51.3°C | 1.1% | 105.4hPa | 2.7V | 00:00:00 | 00:00:00 | 00:00:00 | |
| KRY50SP-1 | 2026-08-30 05:49:43 | 52.40939 | 14.97391 | 96° | 20km/h | 16189m | 2.9m/s | -51.3°C | 1.1% | 105.5hPa | 2.7V | 00:00:00 | 00:00:00 | 00:00:00 | |
| DL1XH1-15 | 2026-08-30 05:49:42 | 52.40940 | 14.97359 | 95° | 20km/h | 16172m | 3.3m/s | -51.6°C | 4.1% | 105.8hPa | 2.7V | 08:30:00 | 01:32:31 | 00:00:00 | |
| DM0DOS-11 | 2026-08-30 05:49:39 | 52.40934 | 14.97312 | 58° | 22km/h | 16145m | 4.4m/s | -51.8°C | 4% | 106.2hPa | 2.7V | 08:30:00 | 01:32:25 | 00:00:00 | |
| DL1XH-west | 2026-08-30 05:49:37 | 52.40939 | 14.97336 | 78° | 18km/h | 16159m | 5.3m/s | -51.7°C | 0.5% | 106hPa | 2.6V | 18:12:15 | 01:32:28 | 00:00:00 | |
| AA1-15 | 2026-08-30 05:49:36 | 52.40938 | 14.97328 | 74° | 20km/h | 16154m | 4.4m/s | -51.7°C | 0.4% | 106.1hPa | 2.6V | 18:12:15 | 01:32:27 | 00:00:00 | |
| SP3BTT-10 | 2026-08-30 05:49:35 | 52.40936 | 14.97320 | 66° | 33km/h | 16150m | 4.9m/s | -51.7°C | 4.1% | 106.1hPa | 2.7V | 00:00:00 | 00:00:00 | 00:00:00 | |
| SONCRA | 2026-08-30 05:49:34 | 52.40934 | 14.97312 | 58° | 22km/h | 16145m | 4.4m/s | -51.8°C | 1.1% | 106.2hPa | 2.7V | 00:00:00 | 00:00:00 | 00:00:00 | |
| S3001 | 2026-08-30 05:49:33 | 52.40931 | 14.97304 | 58° | 22km/h | 16140m | 5.2m/s | -51.8°C | 1.1% | 106.3hPa | 2.7V | 00:00:00 | 00:00:00 | 00:00:00 | |
| DL1XH1-15 | 2026-08-30 05:49:32 | 52.40922 | 14.97282 | 52° | 20km/h | 16127m | 3.9m/s | -52.1°C | 4.2% | 106.5hPa | 2.7V | 08:30:00 | 01:32:21 | 00:00:00 | |
| DM0DOS-11 | 2026-08-30 05:49:29 | 52.40908 | 14.97234 | 70° | 26km/h | 16101m | 4.4m/s | -52.6°C | 4.4% | 107hPa | 2.6V | 08:30:00 | 01:32:15 | 00:00:00 | |
| SONDE2-12 | 2026-08-30 05:49:28 | 52.40917 | 14.97268 | 63° | 18km/h | 16119m | 4.7m/s | -52.3°C | 1.5% | 106.7hPa | 2.6V | 00:00:00 | 00:00:00 | 00:00:00 | |
| DL1XH-west | 2026-08-30 05:49:27 | 52.40914 | 14.97261 | 69° | 20km/h | 16114m | 4.2m/s | -52.4°C | 0.5% | 106.7hPa | 2.6V | 18:12:15 | 01:32:18 | 00:00:00 | |
| AA1-15 | 2026-08-30 05:49:26 | 52.40912 | 14.97252 | 68° | 22km/h | 16110m | 4.6m/s | -52.5°C | 0.6% | 106.8hPa | 2.7V | 18:12:15 | 01:32:17 | 00:00:00 | |
| DB0DAN | 2026-08-30 05:49:25 | 52.40910 | 14.97243 | 68° | 24km/h | 16106m | 4m/s | -52.6°C | 1.3% | 106.87hPa | 2.7V | 00:00:00 | 00:00:00 | 00:00:00 | |
| KRY50SP-1 | 2026-08-30 05:49:21 | 52.40904 | 14.97212 | 76° | 29km/h | 16093m | 3.1m/s | -52.8°C | 1.3% | 107.1hPa | 2.7V | 00:00:00 | 00:00:00 | 00:00:00 | |
| SQ2ODE-11 | 2026-08-30 05:49:20 | 52.40902 | 14.97200 | 74° | 31km/h | 16089m | 4.7m/s | -52.7°C | 0% | 0hPa | 2.7V | 00:00:00 | 00:00:00 | 00:00:00 | |
| DM0DOS-11 | 2026-08-30 05:49:19 | 52.40888 | 14.97107 | 75° | 35km/h | 16057m | 4.3m/s | -53.2°C | 4.7% | 107.7hPa | 2.7V | 08:30:00 | 01:32:05 | 00:00:00 | |
| DL1XH-west | 2026-08-30 05:49:16 | 52.40892 | 14.97134 | 74° | 35km/h | 16066m | 5m/s | -53.2°C | 0.7% | 107.5hPa | 2.7V | 18:12:15 | 01:32:07 | 00:00:00 | |
| AA1-15 | 2026-08-30 05:49:15 | 52.40890 | 14.97121 | 75° | 35km/h | 16061m | 4.4m/s | -53.2°C | 0.7% | 107.6hPa | 2.7V | 18:12:15 | 01:32:06 | 00:00:00 | |
| D01LWL | 2026-08-30 05:49:14 | 52.40888 | 14.97107 | 75° | 35km/h | 16057m | 4.3m/s | -53.2°C | 1.3% | 107.7hPa | 2.7V | 00:00:00 | 00:00:00 | 00:00:00 | |
| DAC517 | 2026-08-30 05:49:13 | 52.40888 | 14.97107 | 77° | 35km/h | 16057m | 4.3m/s | -53.2°C | 1.3% | 107.7hPa | 2.7V | 00:00:00 | 00:00:00 | 00:00:00 | |
| DL1XH1-15 | 2026-08-30 05:49:12 | 52.40877 | 14.97051 | 71° | 35km/h | 16038m | 5m/s | -53.3°C | 4.7% | 108hPa | 2.7V | 08:30:00 | 01:32:01 | 00:00:00 | |
| SQ2ODE-11 | 2026-08-30 05:49:11 | 52.40882 | 14.97079 | 71° | 37km/h | 16048m | 4.4m/s | -53.2°C | 0% | 0hPa | 2.7V | 00:00:00 | 00:00:00 | 00:00:00 | |
| KRY50SP-1 | 2026-08-30 05:49:10 | 52.40879 | 14.97065 | 71° | 35km/h | 16043m | 4.6m/s | -53.2°C | 1.3% | 107.9hPa | 2.7V | 00:00:00 | 00:00:00 | 00:00:00 | |
| DB0DAN | 2026-08-30 05:49:10 | 52.40877 | 14.97051 | 71° | 33km/h | 16039m | 5m/s | -53.3°C | 1.3% | 108hPa | 2.7V | 00:00:00 | 00:00:00 | 00:00:00 | |
| DM0DOS-11 | 2026-08-30 05:49:09 | 52.40858 | 14.96964 | 71° | 38km/h | 16011m | 4.1m/s | -53.3°C | 4.7% | 108.5hPa | 2.7V | 08:30:00 | 01:31:55 | 00:00:00 | |
| DL1XH-west | 2026-08-30 05:49:06 | 52.40864 | 14.96994 | 71° | 38km/h | 16020m | 5.2m/s | -53.2°C | 0.8% | 108.3hPa | 2.6V | 18:12:15 | 01:31:57 | 00:00:00 | |
| AA1-15 | 2026-08-30 05:49:04 | 52.40858 | 14.96964 | 71° | 38km/h | 16011m | 4.1m/s | -53.3°C | 0.8% | 108.5hPa | 2.7V | 18:12:15 | 01:31:55 | 00:00:00 | |
| SONCRA | 2026-08-30 05:49:03 | 52.40855 | 14.96948 | 69° | 40km/h | 16007m | 4.8m/s | -53.3°C | 1.4% | 108.5hPa | 2.6V | 00:00:00 | 00:00:00 | 00:00:00 | |
| DL1XH1-15 | 2026-08-30 05:49:02 | 52.40844 | 14.96905 | 63° | 35km/h | 15993m | 4.6m/s | -53.2°C | 4.7% | 108.8hPa | 2.6V | 08:30:00 | 01:31:51 | 00:00:00 | |
| KRY50SP-1 | 2026-08-30 05:49:00 | 52.40847 | 14.96918 | 68° | 37km/h | 15998m | 4.8m/s | -53.3°C | 1.4% | 108.7hPa | 2.6V | 00:00:00 | 00:00:00 | 00:00:00 | |
| DM0DOS-11 | 2026-08-30 05:48:59 | 52.40815 | 14.96834 | 54° | 35km/h | 15965m | 4.1m/s | -53.2°C | 4.7% | 109.3hPa | 2.6V | 08:30:00 | 01:31:45 | 00:00:00 | |
| SONDE2-12 | 2026-08-30 05:48:57 | 52.40830 | 14.96868 | 56° | 33km/h | 15978m | 5.7m/s | -53.2°C | 1.7% | 109.0hPa | 2.7V | 00:00:00 | 00:00:00 | 00:00:00 | |
| DL1XH-west | 2026-08-30 05:48:56 | 52.40825 | 14.96856 | 56° | 33km/h | 15974m | 3.5m/s | -53.2°C | 0.8% | 109.1hPa | 2.7V | 18:12:15 | 01:31:47 | 00:00:00 | |
| DB0DAN | 2026-08-30 05:48:55 | 52.40820 | 14.96845 | 55° | 33km/h | 15969m | 5.3m/s | -53.3°C | 1.4% | 109.18hPa | 2.6V | 00:00:00 | 00:00:00 | 00:00:00 | |
| AA1-15 | 2026-08-30 05:48:53 | 52.40810 | 14.96822 | 58° | 35km/h | 15961m | 4m/s | -53.2°C | 0.9% | 109.3hPa | 2.7V | 18:12:15 | 01:31:44 | 00:00:00 | |
| DL1XH1-15 | 2026-08-30 05:48:52 | 52.40799 | 14.96784 | 68° | 35km/h | 15947m | 5.1m/s | -53.2°C | 4.7% | 109.5hPa | 2.6V | 08:30:00 | 01:31:41 | 00:00:00 | |
| SQ2ODE-11 | 2026-08-30 05:48:50 | 52.40802 | 14.96797 | 67° | 33km/h | 15952m | 3.9m/s | 0°C | 0% | 0hPa | 2.7V | 00:00:00 | 00:00:00 | 00:00:00 | |
| DM0DOS-11 | 2026-08-30 05:48:49 | 52.40782 | 14.96699 | 68° | 35km/h | 15919m | 4.1m/s | -53.3°C | 4.7% | 110hPa | 2.7V | 08:30:00 | 01:31:35 | 00:00:00 | |
| DL1XH-west | 2026-08-30 05:48:46 | 52.40788 | 14.96727 | 74° | 37km/h | 15928m | 4.4m/s | -53.4°C | 0.9% | 109.9hPa | 2.6V | 18:12:15 | 01:31:37 | 00:00:00 | |
| AA1-15 | 2026-08-30 05:48:42 | 52.40775 | 14.96674 | 61° | 31km/h | 15911m | 3.8m/s | -53.4°C | 0.8% | 110.2hPa | 2.6V | 18:12:15 | 01:31:33 | 00:00:00 | |
| DB0DAN | 2026-08-30 05:48:40 | 52.40767 | 14.96652 | 56° | 31km/h | 15902m | 4.3m/s | -53.5°C | 1.4% | 110.37hPa | 2.6V | 00:00:00 | 00:00:00 | 00:00:00 | |
| DL1XH1-15 | 2026-08-30 05:48:40 | 52.40745 | 14.96580 | 70° | 33km/h | 15873m | 5.6m/s | -54°C | 5% | 110.8hPa | 2.6V | 08:30:00 | 01:31:25 | 00:00:00 | |
| DL1XH-west | 2026-08-30 05:48:35 | 52.40748 | 14.96592 | 69° | 33km/h | 15879m | 4.2m/s | -53.9°C | 1% | 110.8hPa | 2.6V | 18:12:15 | 01:31:26 | 00:00:00 | |
| AA1-15 | 2026-08-30 05:48:31 | 52.40737 | 14.96542 | 69° | 33km/h | 15860m | 4.2m/s | -54°C | 1% | 111.1hPa | 2.7V | 18:12:15 | 01:31:22 | 00:00:00 | |
| DL1XH1-15 | 2026-08-30 05:48:31 | 52.40709 | 14.96460 | 60° | 33km/h | 15827m | 3.7m/s | -54.4°C | 5.1% | 111.6hPa | 2.6V | 08:30:00 | 01:31:15 | 00:00:00 | |
| SONDE2-12 | 2026-08-30 05:48:26 | 52.40717 | 14.96483 | 55° | 33km/h | 15836m | 4.7m/s | -54.3°C | 1.9% | 111.5hPa | 2.7V | 00:00:00 | 00:00:00 | 00:00:00 | |
| DB0DAN | 2026-08-30 05:48:25 | 52.40713 | 14.96472 | 57° | 31km/h | 15832m | 4.6m/s | -54.3°C | 1.5% | 111.55hPa | 2.7V | 00:00:00 | 00:00:00 | 00:00:00 | |
| DL1XH-west | 2026-08-30 05:48:25 | 52.40713 | 14.96472 | 57° | 33km/h | 15832m | 4.6m/s | -54.3°C | 1.1% | 111.5hPa | 2.7V | 18:12:15 | 01:31:16 | 00:00:00 | |
| AA1-15 | 2026-08-30 05:48:20 | 52.40695 | 14.96405 | 77° | 35km/h | 15809m | 4.4m/s | -54.4°C | 1.1% | 112hPa | 2.6V | 18:12:15 | 01:31:11 | 00:00:00 | |
| DM0DOS-11 | 2026-08-30 05:48:18 | 52.40682 | 14.96310 | 72° | 29km/h | 15776m | 4m/s | -54.3°C | 5.1% | 112.5hPa | 2.6V | 08:30:00 | 01:31:04 | 00:00:00 | |
| DL1XH-west | 2026-08-30 05:48:15 | 52.40687 | 14.96335 | 76° | 31km/h | 15786m | 4.2m/s | -54.3°C | 1.2% | 112.4hPa | 2.6V | 18:12:15 | 01:31:06 | 00:00:00 | |
| SQ2ODE-11 | 2026-08-30 05:48:14 | 52.40686 | 14.96335 | 77° | 31km/h | 15786m | 4.2m/s | 0°C | 0% | 0hPa | 2.7V | 00:00:00 | 00:00:00 | 00:00:00 | |
| DB0DAN | 2026-08-30 05:48:10 | 52.40677 | 14.96279 | 75° | 26km/h | 15762m | 5.9m/s | -54.4°C | 1.6% | 112.78hPa | 2.7V | 00:00:00 | 00:00:00 | 00:00:00 | |
| AA1-15 | 2026-08-30 05:48:09 | 52.40675 | 14.96268 | 78° | 27km/h | 15757m | 3.9m/s | -54.3°C | 1.2% | 112.9hPa | 2.6V | 18:12:15 | 01:31:00 | 00:00:00 | |
| DL1XH1-15 | 2026-08-30 05:48:09 | 52.40673 | 14.96212 | 92° | 29km/h | 15733m | 4.9m/s | -54.4°C | 5.4% | 113.3hPa | 2.7V | 08:30:00 | 01:30:55 | 00:00:00 | |
| DL1XH-west | 2026-08-30 05:48:05 | 52.40673 | 14.96212 | 92° | 29km/h | 15733m | 4.9m/s | -54.4°C | 1.3% | 113.3hPa | 2.7V | 18:12:15 | 01:30:55 | 00:00:00 | |
| SQ2ODE-11 | 2026-08-30 05:48:03 | 52.40673 | 14.96212 | 93° | 29km/h | 15733m | 4.9m/s | 0°C | 0% | 0hPa | 2.7V | 00:00:00 | 00:00:00 | 00:00:00 | |
| SONCRA | 2026-08-30 05:48:01 | 52.40676 | 14.96177 | 97° | 29km/h | 15718m | 5.8m/s | -54.4°C | 1.6% | 113.6hPa | 2.7V | 00:00:00 | 00:00:00 | 00:00:00 | |
| S3001 | 2026-08-30 05:48:00 | 52.40677 | 14.96165 | 94° | 29km/h | 15714m | 3.5m/s | -54.4°C | 1.6% | 113.6hPa | 2.7V | 00:00:00 | 00:00:00 | 00:00:00 | |
| DL1XH1-15 | 2026-08-30 05:47:59 | 52.40678 | 14.96091 | 93° | 31km/h | 15685m | 4.7m/s | -54.4°C | 5.2% | 114.1hPa | 2.7V | 08:30:00 | 01:30:45 | 00:00:00 | |
| AA1-15 | 2026-08-30 05:47:58 | 52.40677 | 14.96142 | 93° | 27km/h | 15705m | 4.2m/s | -54.5°C | 1.2% | 113.8hPa | 2.7V | 18:12:15 | 01:30:49 | 00:00:00 | |
| KRY50SP-1 | 2026-08-30 05:47:57 | 52.40677 | 14.96130 | 94° | 29km/h | 15700m | 5.6m/s | -54.5°C | 1.6% | 113.9hPa | 2.7V | 00:00:00 | 00:00:00 | 00:00:00 | |
| POL1PZ | 2026-08-30 05:47:56 | 52.40677 | 14.96130 | 94° | 29km/h | 15700m | 5.6m/s | -54.5°C | 1.6% | 113.9hPa | 2.7V | 00:00:00 | 00:00:00 | 00:00:00 | |
| DB0DAN | 2026-08-30 05:47:55 | 52.40678 | 14.96104 | 92° | 31km/h | 15690m | 4.7m/s | -54.5°C | 1.6% | 114.05hPa | 2.7V | 00:00:00 | 00:00:00 | 00:00:00 | |
| SONDE2-12 | 2026-08-30 05:47:55 | 52.40678 | 14.96104 | 91° | 31km/h | 15690m | 4.7m/s | -54.5°C | 2.0% | 114.1hPa | 2.6V | 00:00:00 | 00:00:00 | 00:00:00 | |
| DL1XH-west | 2026-08-30 05:47:53 | 52.40679 | 14.96078 | 93° | 31km/h | 15681m | 4.2m/s | -54.3°C | 1.2% | 114.2hPa | 2.6V | 18:12:15 | 01:30:44 | 00:00:00 | |
| SQ2ODE-11 | 2026-08-30 05:47:52 | 52.40679 | 14.96078 | 94° | 33km/h | 15681m | 4.2m/s | 0°C | 0% | 0hPa | 2.7V | 00:00:00 | 00:00:00 | 00:00:00 | |
| DAC517 | 2026-08-30 05:47:51 | 52.40679 | 14.96064 | 93° | 35km/h | 15676m | 5.5m/s | -54.4°C | 1.6% | 114.3hPa | 2.7V | 00:00:00 | 00:00:00 | 00:00:00 | |
| KRY50SP-1 | 2026-08-30 05:47:50 | 52.40680 | 14.96050 | 94° | 37km/h | 15671m | 5.2m/s | -54.3°C | 1.6% | 114.4hPa | 2.7V | 00:00:00 | 00:00:00 | 00:00:00 | |
| DL1XH1-15 | 2026-08-30 05:47:49 | 52.40683 | 14.95936 | 94° | 44km/h | 15637m | 5.5m/s | -53.8°C | 5.2% | 115hPa | 2.7V | 08:30:00 | 01:30:35 | 00:00:00 | |
| AA1-15 | 2026-08-30 05:47:47 | 52.40682 | 14.95987 | 91° | 42km/h | 15651m | 4.6m/s | -54°C | 1.2% | 114.8hPa | 2.6V | 18:12:15 | 01:30:38 | 00:00:00 | |
| SONDE2-11 | 2026-08-30 05:47:45 | 52.40682 | 14.95954 | 93° | 40km/h | 15641m | 3.3m/s | -53.8°C | 1.6% | 115.0hPa | 2.6V | 00:00:00 | 00:00:00 | 00:00:00 | |
| EDDB2-12 | 2026-08-30 05:47:44 | 52.40683 | 14.95936 | 94° | 42km/h | 15637m | 5.5m/s | -53.8°C | 1.6% | 115.0hPa | 2.6V | 00:00:00 | 00:00:00 | 00:00:00 | |
| DL1XH-west | 2026-08-30 05:47:42 | 52.40686 | 14.95900 | 98° | 44km/h | 15627m | 5.4m/s | -53.8°C | 1.2% | 115.2hPa | 2.6V | 18:12:15 | 01:30:33 | 00:00:00 | |
| DB0DAN | 2026-08-30 05:47:40 | 52.40689 | 14.95865 | 101° | 40km/h | 15617m | 6.5m/s | -53.8°C | 1.6% | 115.38hPa | 2.6V | 00:00:00 | 00:00:00 | 00:00:00 | |
| DL1XH1-15 | 2026-08-30 05:47:39 | 52.40696 | 14.95767 | 92° | 40km/h | 15585m | 5.5m/s | -53.5°C | 5% | 115.9hPa | 2.6V | 08:30:00 | 01:30:25 | 00:00:00 | |
| AA1-15 | 2026-08-30 05:47:36 | 52.40695 | 14.95799 | 95° | 38km/h | 15596m | 5.2m/s | -53.6°C | 1.1% | 115.7hPa | 2.6V | 18:12:15 | 01:30:27 | 00:00:00 | |
| DL1XH-west | 2026-08-30 05:47:31 | 52.40698 | 14.95716 | 93° | 46km/h | 15571m | 5.5m/s | -53.5°C | 1.1% | 116.2hPa | 2.7V | 18:12:15 | 01:30:22 | 00:00:00 | |
| SONCRA | 2026-08-30 05:47:30 | 52.40699 | 14.95697 | 96° | 46km/h | 15567m | 3.7m/s | -53.5°C | 1.5% | 116.3hPa | 2.7V | 00:00:00 | 00:00:00 | 00:00:00 | |
| DL1XH1-15 | 2026-08-30 05:47:29 | 52.40714 | 14.95584 | 102° | 44km/h | 15536m | 5.3m/s | -53.4°C | 5% | 116.8hPa | 2.7V | 08:30:00 | 01:30:15 | 00:00:00 | |
| AA1-15 | 2026-08-30 05:47:25 | 52.40711 | 14.95602 | 104° | 47km/h | 15541m | 4.5m/s | -53.4°C | 1.1% | 116.7hPa | 2.6V | 18:12:15 | 01:30:16 | 00:00:00 | |
| SONDE2-12 | 2026-08-30 05:47:24 | 52.40714 | 14.95584 | 102° | 44km/h | 15537m | 5.3m/s | -53.4°C | 2.0% | 116.8hPa | 2.6V | 00:00:00 | 00:00:00 | 00:00:00 | |
| DL1XH-west | 2026-08-30 05:47:21 | 52.40719 | 14.95530 | 95° | 46km/h | 15523m | 4.5m/s | -53.4°C | 1.1% | 117.1hPa | 2.6V | 18:12:15 | 01:30:12 | 00:00:00 | |
| DL1XH1-15 | 2026-08-30 05:47:19 | 52.40728 | 14.95396 | 99° | 49km/h | 15488m | 4.5m/s | -53.5°C | 0% | 117.7hPa | 2.6V | 08:30:00 | 01:30:05 | 00:00:00 | |
| AA1-15 | 2026-08-30 05:47:15 | 52.40726 | 14.95416 | 99° | 47km/h | 15493m | 5m/s | -53.5°C | 1.1% | 117.6hPa | 2.6V | 18:12:15 | 01:30:06 | 00:00:00 | |
| DL1XH-west | 2026-08-30 05:47:10 | 52.40736 | 14.95312 | 99° | 53km/h | 15468m | 3.3m/s | -53.6°C | 1.1% | 118.1hPa | 2.7V | 18:12:15 | 01:30:01 | 00:00:00 | |
| AA1-15 | 2026-08-30 05:47:05 | 52.40747 | 14.95175 | 94° | 57km/h | 15438m | 4.7m/s | -53.5°C | 1.1% | 118.6hPa | 2.6V | 18:12:15 | 01:29:55 | 00:00:00 | |
| DL1XH-west | 2026-08-30 05:46:59 | 52.40749 | 14.95058 | 90° | 60km/h | 15415m | 4m/s | -53.5°C | 1.2% | 119hPa | 2.6V | 18:12:15 | 01:29:50 | 00:00:00 | |
| DL1XH1-15 | 2026-08-30 05:46:59 | 52.40752 | 14.94931 | 94° | 64km/h | 15391m | 5.3m/s | -53.3°C | 0% | 0hPa | 2.6V | 08:30:00 | 01:29:45 | 00:00:00 | |
| SONCRA | 2026-08-30 05:46:59 | 52.40749 | 14.95058 | 89° | 58km/h | 15415m | 4.0m/s | -53.5°C | 1.6% | 119.0hPa | 2.7V | 00:00:00 | 00:00:00 | 00:00:00 | |
| S3001 | 2026-08-30 05:46:58 | 52.40749 | 14.95034 | 90° | 60km/h | 15411m | 4.8m/s | -53.5°C | 1.6% | 119.1hPa | 2.7V | 00:00:00 | 00:00:00 | 00:00:00 | |
| KRY50SP-1 | 2026-08-30 05:46:57 | 52.40749 | 14.95008 | 94° | 60km/h | 15406m | 5.0m/s | -53.5°C | 1.6% | 119.2hPa | 2.7V | 00:00:00 | 00:00:00 | 00:00:00 | |
| DB0DAN | 2026-08-30 05:46:55 | 52.40751 | 14.94957 | 94° | 60km/h | 15396m | 4.7m/s | -53.3°C | 1.6% | 119.4hPa | 2.7V | 00:00:00 | 00:00:00 | 00:00:00 | |
| AA1-15 | 2026-08-30 05:46:53 | 52.40754 | 14.94905 | 96° | 62km/h | 15386m | 4.9m/s | -53.2°C | 1.1% | 119.6hPa | 2.6V | 18:12:15 | 01:29:44 | 00:00:00 | |
| SONDE2-12 | 2026-08-30 05:46:53 | 52.40754 | 14.94905 | 95° | 60km/h | 15386m | 4.9m/s | -53.2°C | 1.9% | 119.6hPa | 2.6V | 00:00:00 | 00:00:00 | 00:00:00 | |
| SP6BVK | 2026-08-30 05:46:52 | 52.40754 | 14.94905 | 97° | 62km/h | 15386m | 4.9m/s | -53.2°C | 1.6% | 119.6hPa | 2.6V | 00:00:00 | 00:00:00 | 00:00:00 | |
| 13BRC | 2026-08-30 05:46:51 | 52.40755 | 14.94880 | 96° | 62km/h | 15382m | 3.3m/s | -53.2°C | 1.5% | 119.7hPa | 2.6V | 00:00:00 | 00:00:00 | 00:00:00 | |
| KRY50SP-1 | 2026-08-30 05:46:50 | 52.40756 | 14.94854 | 95° | 62km/h | 15378m | 5.3m/s | -53.2°C | 1.5% | 119.7hPa | 2.6V | 00:00:00 | 00:00:00 | 00:00:00 | |
| DL1XH1-15 | 2026-08-30 05:46:49 | 52.40756 | 14.94674 | 88° | 60km/h | 15344m | 4.4m/s | -53°C | 0% | 0hPa | 2.6V | 08:30:00 | 01:29:35 | 00:00:00 | |
| DL1XH-west | 2026-08-30 05:46:48 | 52.40757 | 14.94776 | 90° | 62km/h | 15363m | 5m/s | -53.1°C | 1% | 120hPa | 2.6V | 18:12:15 | 01:29:39 | 00:00:00 | |
| AA1-15 | 2026-08-30 05:46:42 | 52.40754 | 14.94624 | 86° | 62km/h | 15334m | 4.8m/s | -53°C | 1.1% | 120.6hPa | 2.7V | 18:12:15 | 01:29:33 | 00:00:00 | |
| DB0DAN | 2026-08-30 05:46:40 | 52.40752 | 14.94573 | 87° | 58km/h | 15325m | 5.2m/s | -53°C | 1.6% | 120.78hPa | 2.7V | 00:00:00 | 00:00:00 | 00:00:00 | |
| DL1XH1-15 | 2026-08-30 05:46:39 | 52.40751 | 14.94417 | 88° | 64km/h | 15296m | 4.5m/s | -53°C | 0% | 0hPa | 2.7V | 08:30:00 | 01:29:25 | 00:00:00 | |
| DL1XH-west | 2026-08-30 05:46:37 | 52.40751 | 14.94496 | 89° | 64km/h | 15311m | 4.6m/s | -53°C | 1.1% | 121hPa | 2.6V | 18:12:15 | 01:29:28 | 00:00:00 | |
| AA1-15 | 2026-08-30 05:46:31 | 52.40748 | 14.94339 | 85° | 60km/h | 15282m | 5.5m/s | -52.9°C | 1.1% | 121.5hPa | 2.6V | 18:12:15 | 01:29:22 | 00:00:00 | |
| DL1XH-west | 2026-08-30 05:46:26 | 52.40741 | 14.94212 | 86° | 62km/h | 15257m | 5.3m/s | -52.7°C | 1% | 122hPa | 2.6V | 18:12:15 | 01:29:17 | 00:00:00 | |
| DB0DAN | 2026-08-30 05:46:25 | 52.40740 | 14.94186 | 85° | 60km/h | 15252m | 5m/s | -52.7°C | 1.5% | 122.11hPa | 2.7V | 00:00:00 | 00:00:00 | 00:00:00 | |
| SONDE2-12 | 2026-08-30 05:46:22 | 52.40736 | 14.94082 | 86° | 62km/h | 15233m | 4.9m/s | -52.7°C | 1.8% | 122.5hPa | 2.7V | 00:00:00 | 00:00:00 | 00:00:00 | |
| AA1-15 | 2026-08-30 05:46:20 | 52.40735 | 14.94056 | 85° | 62km/h | 15229m | 4m/s | -52.6°C | 1% | 122.5hPa | 2.7V | 18:12:15 | 01:29:11 | 00:00:00 | |
| DL1XH-west | 2026-08-30 05:46:16 | 52.40727 | 14.93955 | 81° | 62km/h | 15210m | 4.3m/s | -52.5°C | 1% | 122.9hPa | 2.6V | 18:12:15 | 01:29:07 | 00:00:00 | |
| DL1XH1-15 | 2026-08-30 05:46:13 | 52.40716 | 14.93831 | 82° | 60km/h | 15186m | 5.2m/s | -52.2°C | 0% | 0hPa | 2.6V | 08:30:00 | 01:29:02 | 00:00:00 | |
| SONDE2-11 | 2026-08-30 05:46:12 | 52.40718 | 14.93855 | 82° | 60km/h | 15191m | 4.4m/s | -52.3°C | 1.5% | 123.3hPa | 2.6V | 00:00:00 | 00:00:00 | 00:00:00 | |
| DB0DAN | 2026-08-30 05:46:10 | 52.40714 | 14.93806 | 84° | 55km/h | 15181m | 4.9m/s | -52.2°C | 1.5% | 123.45hPa | 2.6V | 00:00:00 | 00:00:00 | 00:00:00 | |
| AA1-15 | 2026-08-30 05:46:09 | 52.40713 | 14.93782 | 84° | 58km/h | 15177m | 4.5m/s | -52.2°C | 0.9% | 123.5hPa | 2.7V | 18:12:15 | 01:29:00 | 00:00:00 | |
| DL1XH-west | 2026-08-30 05:46:05 | 52.40706 | 14.93686 | 83° | 60km/h | 15157m | 4.8m/s | -52.2°C | 1% | 123.9hPa | 2.6V | 18:12:15 | 01:28:56 | 00:00:00 | |
| SQ2ODE-11 | 2026-08-30 05:46:04 | 52.40706 | 14.93686 | 84° | 60km/h | 15158m | 4.8m/s | 0°C | 0% | 0hPa | 2.6V | 00:00:00 | 00:00:00 | 00:00:00 | |
| DL1XH1-15 | 2026-08-30 05:46:02 | 52.40688 | 14.93499 | 82° | 55km/h | 15117m | 6.1m/s | -51.9°C | 0% | 0hPa | 2.6V | 08:30:00 | 01:28:48 | 00:00:00 | |
| DM0DOS-11 | 2026-08-30 05:46:01 | 52.40686 | 14.93477 | 83° | 55km/h | 15113m | 3.6m/s | -51.9°C | 4.6% | 124.8hPa | 2.6V | 08:30:00 | 01:28:47 | 00:00:00 | |
| AA1-15 | 2026-08-30 05:45:58 | 52.40690 | 14.93521 | 83° | 53km/h | 15123m | 4.1m/s | -51.9°C | 0.9% | 124.6hPa | 2.7V | 18:12:15 | 01:28:49 | 00:00:00 | |
| SONCRA | 2026-08-30 05:45:57 | 52.40687 | 14.93477 | 83° | 53km/h | 15113m | 3.6m/s | -51.9°C | 1.4% | 124.8hPa | 2.6V | 00:00:00 | 00:00:00 | 00:00:00 | |
| S3001 | 2026-08-30 05:45:56 | 52.40687 | 14.93477 | 83° | 53km/h | 15113m | 3.6m/s | -51.9°C | 1.4% | 124.8hPa | 2.6V | 00:00:00 | 00:00:00 | 00:00:00 | |
| DB0DAN | 2026-08-30 05:45:55 | 52.40685 | 14.93455 | 84° | 49km/h | 15108m | 5.7m/s | -52°C | 1.4% | 124.84hPa | 2.6V | 00:00:00 | 00:00:00 | 00:00:00 | |
| DL1XH-west | 2026-08-30 05:45:54 | 52.40684 | 14.93434 | 84° | 51km/h | 15103m | 4.6m/s | -51.9°C | 0.9% | 124.9hPa | 2.7V | 18:12:15 | 01:28:45 | 00:00:00 | |
| DM0DOS-11 | 2026-08-30 05:45:51 | 52.40668 | 14.93264 | 78° | 51km/h | 15065m | 5.8m/s | -51.6°C | 4.5% | 125.7hPa | 2.7V | 08:30:00 | 01:28:37 | 00:00:00 | |
| SONDE2-12 | 2026-08-30 05:45:51 | 52.40677 | 14.93349 | 81° | 51km/h | 15085m | 5.2m/s | -51.7°C | 1.8% | 125.3hPa | 2.7V | 00:00:00 | 00:00:00 | 00:00:00 | |
| AA1-15 | 2026-08-30 05:45:47 | 52.40671 | 14.93285 | 80° | 53km/h | 15070m | 4.1m/s | -51.6°C | 0.9% | 125.6hPa | 2.7V | 18:12:15 | 01:28:38 | 00:00:00 | |
| DL1XH-west | 2026-08-30 05:45:44 | 52.40661 | 14.93203 | 81° | 49km/h | 15051m | 4.3m/s | -51.7°C | 0.9% | 126hPa | 2.7V | 18:12:15 | 01:28:34 | 00:00:00 | |
| DL1XH1-15 | 2026-08-30 05:45:43 | 52.40650 | 14.93066 | 80° | 47km/h | 15017m | 5.2m/s | 0°C | 0% | 0hPa | 2.6V | 08:30:00 | 01:28:27 | 00:00:00 | |
| SONDE2-11 | 2026-08-30 05:45:41 | 52.40658 | 14.93164 | 81° | 46km/h | 15040m | 4.1m/s | -51.7°C | 1.4% | 126.2hPa | 2.6V | 00:00:00 | 00:00:00 | 00:00:00 | |
| EDDB2-12 | 2026-08-30 05:45:40 | 52.40656 | 14.93144 | 82° | 46km/h | 15036m | 4.9m/s | -51.7°C | 1.4% | 126.2hPa | 2.6V | 00:00:00 | 00:00:00 | 00:00:00 | |
| DB0DAN | 2026-08-30 05:45:40 | 52.40656 | 14.93144 | 83° | 46km/h | 15036m | 4.9m/s | -51.7°C | 1.4% | 126.24hPa | 2.6V | 00:00:00 | 00:00:00 | 00:00:00 | |
| DM0DOS-11 | 2026-08-30 05:45:39 | 52.40645 | 14.93026 | 76° | 49km/h | 15007m | 5.3m/s | -51.7°C | 4.6% | 126.8hPa | 2.6V | 08:30:00 | 01:28:25 | 00:00:00 | |
| AA1-15 | 2026-08-30 05:45:36 | 52.40650 | 14.93066 | 81° | 47km/h | 15017m | 5.2m/s | -51.7°C | 0.9% | 126.6hPa | 2.6V | 18:12:15 | 01:28:27 | 00:00:00 | |
| DL1XH-west | 2026-08-30 05:45:31 | 52.40636 | 14.92964 | 77° | 55km/h | 14993m | 3.8m/s | -51.7°C | 0.9% | 127.1hPa | 2.7V | 18:12:15 | 01:28:22 | 00:00:00 | |
| DM0DOS-11 | 2026-08-30 05:45:29 | 52.40618 | 14.92819 | 79° | 47km/h | 14963m | 4.4m/s | -51.6°C | 4.7% | 127.7hPa | 2.6V | 08:30:00 | 01:28:15 | 00:00:00 | |
| KRY50SP-1 | 2026-08-30 05:45:28 | 52.40630 | 14.92921 | 78° | 51km/h | 14985m | 4.3m/s | -51.6°C | 1.5% | 127.3hPa | 2.7V | 00:00:00 | 00:00:00 | 00:00:00 | |
| DAC517 | 2026-08-30 05:45:27 | 52.40627 | 14.92901 | 80° | 51km/h | 14981m | 3.2m/s | -51.5°C | 1.4% | 127.3hPa | 2.7V | 00:00:00 | 00:00:00 | 00:00:00 | |
| DB0DAN | 2026-08-30 05:45:25 | 52.40620 | 14.92839 | 80° | 47km/h | 14968m | 5.5m/s | -51.6°C | 1.5% | 127.61hPa | 2.7V | 00:00:00 | 00:00:00 | 00:00:00 | |
| AA1-15 | 2026-08-30 05:45:25 | 52.40620 | 14.92839 | 80° | 49km/h | 14968m | 5.5m/s | -51.6°C | 0.9% | 127.6hPa | 2.7V | 18:12:15 | 01:28:16 | 00:00:00 | |
| DL1XH-west | 2026-08-30 05:45:21 | 52.40612 | 14.92761 | 79° | 49km/h | 14949m | 3.6m/s | -51.6°C | 0.9% | 127.9hPa | 2.7V | 18:12:15 | 01:28:12 | 00:00:00 | |
| SONDE2-12 | 2026-08-30 05:45:20 | 52.40607 | 14.92722 | 75° | 47km/h | 14940m | 3.5m/s | -51.4°C | 1.8% | 128.1hPa | 2.6V | 00:00:00 | 00:00:00 | 00:00:00 | |
| DM0DOS-11 | 2026-08-30 05:45:18 | 52.40591 | 14.92601 | 81° | 47km/h | 14913m | 3.7m/s | -51.3°C | 4.5% | 128.7hPa | 2.6V | 08:30:00 | 01:28:04 | 00:00:00 | |
| AA1-15 | 2026-08-30 05:45:15 | 52.40595 | 14.92641 | 77° | 49km/h | 14921m | 3.2m/s | -51.3°C | 0.9% | 128.5hPa | 2.6V | 18:12:15 | 01:28:06 | 00:00:00 | |
| DL1XH-west | 2026-08-30 05:45:10 | 52.40585 | 14.92544 | 80° | 47km/h | 14900m | 4.5m/s | -51.4°C | 0.9% | 128.9hPa | 2.7V | 18:12:15 | 01:28:01 | 00:00:00 | |
| EDDB2-12 | 2026-08-30 05:45:09 | 52.40582 | 14.92524 | 80° | 47km/h | 14896m | 4.4m/s | -51.3°C | 1.4% | 129.0hPa | 2.6V | 00:00:00 | 00:00:00 | 00:00:00 | |
| DM0DOS-11 | 2026-08-30 05:45:08 | 52.40568 | 14.92411 | 78° | 42km/h | 14869m | 4.7m/s | -51.2°C | 4.6% | 129.6hPa | 2.6V | 08:30:00 | 01:27:54 | 00:00:00 | |
| DL1XH1-15 | 2026-08-30 05:45:07 | 52.40564 | 14.92378 | 82° | 42km/h | 14860m | 5.1m/s | 0°C | 0% | 0hPa | 2.7V | 08:30:00 | 01:27:52 | 00:00:00 | |
| AA1-15 | 2026-08-30 05:45:04 | 52.40570 | 14.92429 | 78° | 46km/h | 14874m | 4.6m/s | -51.3°C | 0.9% | 129.5hPa | 2.7V | 18:12:15 | 01:27:55 | 00:00:00 | |
| DL1XH-west | 2026-08-30 05:45:00 | 52.40563 | 14.92361 | 83° | 42km/h | 14855m | 3.6m/s | -51.1°C | 0.8% | 129.8hPa | 2.7V | 18:12:15 | 01:27:51 | 00:00:00 | |
| DL1XH1-15 | 2026-08-30 05:44:56 | 52.40554 | 14.92205 | 81° | 40km/h | 14815m | 4.7m/s | 0°C | 0% | 0hPa | 2.6V | 08:30:00 | 01:27:42 | 00:00:00 | |
| AA1-15 | 2026-08-30 05:44:54 | 52.40558 | 14.92257 | 85° | 42km/h | 14829m | 4m/s | -51°C | 0.9% | 130.4hPa | 2.7V | 18:12:15 | 01:27:45 | 00:00:00 | |
| SONDE2-12 | 2026-08-30 05:44:49 | 52.40549 | 14.92154 | 79° | 42km/h | 14803m | 3.3m/s | -51.1°C | 1.8% | 130.9hPa | 2.7V | 00:00:00 | 00:00:00 | 00:00:00 | |
| DM0DOS-11 | 2026-08-30 05:44:48 | 52.40542 | 14.92066 | 87° | 42km/h | 14781m | 5.1m/s | -51°C | 4.5% | 131.3hPa | 2.7V | 08:30:00 | 01:27:34 | 00:00:00 | |
| DL1XH-west | 2026-08-30 05:44:48 | 52.40549 | 14.92154 | 79° | 44km/h | 14803m | 3.3m/s | 0°C | 0% | 130.9hPa | 2.7V | 18:12:15 | 01:27:39 | 00:00:00 | |
| AA1-15 | 2026-08-30 05:44:43 | 52.40542 | 14.92066 | 88° | 42km/h | 14781m | 5.1m/s | -51°C | 0.9% | 131.3hPa | 2.7V | 18:12:15 | 01:27:34 | 00:00:00 | |
| DL2RXE-15 | 2026-08-30 05:44:42 | 52.40542 | 14.92066 | 88° | 42km/h | 14781m | 5.1m/s | -51.0°C | 1.5% | 131.3hPa | 2.7V | 00:00:00 | 00:00:00 | 00:00:00 | |
| DL1XH1-15 | 2026-08-30 05:44:41 | 52.40541 | 14.92014 | 85° | 44km/h | 14768m | 3.6m/s | 0°C | 0% | 0hPa | 2.7V | 00:00:00 | 01:27:31 | 00:00:00 | |
| DB0DAN | 2026-08-30 05:44:40 | 52.40541 | 14.92014 | 85° | 42km/h | 14768m | 3.6m/s | -50.8°C | 1.5% | 131.6hPa | 2.7V | 00:00:00 | 00:00:00 | 00:00:00 | |
| SONDE2-11 | 2026-08-30 05:44:39 | 52.40540 | 14.91996 | 83° | 42km/h | 14764m | 3.6m/s | -50.8°C | 1.4% | 131.7hPa | 2.7V | 00:00:00 | 00:00:00 | 00:00:00 | |
| DM0DOS-11 | 2026-08-30 05:44:38 | 52.40529 | 14.91898 | 77° | 38km/h | 14739m | 4m/s | -50.7°C | 4.4% | 132.1hPa | 2.7V | 08:30:00 | 01:27:24 | 00:00:00 | |
| DL1XH-west | 2026-08-30 05:44:37 | 52.40537 | 14.91962 | 81° | 40km/h | 14756m | 3.7m/s | 0°C | 0% | 131.9hPa | 2.6V | 18:12:15 | 01:27:28 | 00:00:00 | |
| AA1-15 | 2026-08-30 05:44:33 | 52.40529 | 14.91898 | 77° | 38km/h | 14739m | 4.1m/s | -50.7°C | 0.9% | 132.1hPa | 2.7V | 18:12:15 | 01:27:24 | 00:00:00 | |
| EDDB2-11 | 2026-08-30 05:44:32 | 52.40527 | 14.91882 | 77° | 40km/h | 14735m | 4.7m/s | -50.7°C | 1.4% | 132.3hPa | 2.6V | 00:00:00 | 00:00:00 | 00:00:00 | |
| DL1XH1-15 | 2026-08-30 05:44:31 | 52.40522 | 14.91849 | 77° | 38km/h | 14725m | 4.7m/s | 0°C | 0% | 0hPa | 2.6V | 00:00:00 | 01:27:21 | 00:00:00 | |
| SP6BVK | 2026-08-30 05:44:28 | 52.40520 | 14.91833 | 81° | 40km/h | 14721m | 4.4m/s | -50.7°C | 1.4% | 132.6hPa | 2.7V | 00:00:00 | 00:00:00 | 00:00:00 | |
| DM0DOS-11 | 2026-08-30 05:44:27 | 52.40508 | 14.91714 | 77° | 42km/h | 14691m | 4.7m/s | -50.7°C | 4.6% | 133.1hPa | 2.7V | 08:30:00 | 01:27:13 | 00:00:00 | |
| KRY50SP-1 | 2026-08-30 05:44:26 | 52.40517 | 14.91799 | 83° | 42km/h | 14713m | 2.8m/s | -50.7°C | 1.5% | 132.7hPa | 2.6V | 00:00:00 | 00:00:00 | 00:00:00 | |
| DL1XH-west | 2026-08-30 05:44:26 | 52.40515 | 14.91782 | 82° | 42km/h | 14708m | 5m/s | 0°C | 0% | 0hPa | 2.7V | 18:12:15 | 01:27:17 | 00:00:00 | |
| DB0DAN | 2026-08-30 05:44:25 | 52.40514 | 14.91765 | 81° | 38km/h | 14704m | 4.1m/s | -50.7°C | 1.5% | 132.86hPa | 2.6V | 00:00:00 | 00:00:00 | 00:00:00 | |
| AA1-15 | 2026-08-30 05:44:22 | 52.40508 | 14.91714 | 77° | 42km/h | 14691m | 4.7m/s | -50.7°C | 1% | 133.1hPa | 2.7V | 18:12:15 | 01:27:13 | 00:00:00 | |
| SONDE2-12 | 2026-08-30 05:44:18 | 52.40493 | 14.91628 | 76° | 44km/h | 14669m | 5.2m/s | -50.7°C | 1.9% | 133.6hPa | 2.7V | 00:00:00 | 00:00:00 | 00:00:00 | |
| DM0DOS-11 | 2026-08-30 05:44:17 | 52.40480 | 14.91533 | 74° | 47km/h | 14647m | 3.6m/s | -50.6°C | 4.6% | 134hPa | 2.7V | 08:30:00 | 01:27:03 | 00:00:00 | |
| DL1XH-west | 2026-08-30 05:44:16 | 52.40491 | 14.91610 | 78° | 46km/h | 14665m | 2.9m/s | 0°C | 0% | 0hPa | 2.6V | 18:12:15 | 01:27:07 | 00:00:00 | |
| AA1-15 | 2026-08-30 05:44:11 | 52.40477 | 14.91514 | 73° | 49km/h | 14643m | 5.1m/s | -50.6°C | 1.2% | 134.1hPa | 2.7V | 18:12:15 | 01:27:02 | 00:00:00 | |
| DB0DAN | 2026-08-30 05:44:10 | 52.40473 | 14.91495 | 71° | 47km/h | 14639m | 3.7m/s | -50.6°C | 1.7% | 134.24hPa | 2.6V | 00:00:00 | 00:00:00 | 00:00:00 | |
| DL1XH-west | 2026-08-30 05:44:05 | 52.40449 | 14.91398 | 67° | 51km/h | 14616m | 5.1m/s | 0°C | 0% | 0hPa | 2.7V | 18:12:15 | 01:26:56 | 00:00:00 | |
| DAC517 | 2026-08-30 05:44:04 | 52.40449 | 14.91397 | 68° | 51km/h | 14616m | 5.1m/s | -50.9°C | 1.7% | 134.7hPa | 2.7V | 00:00:00 | 00:00:00 | 00:00:00 | |
| POL1PZ | 2026-08-30 05:44:02 | 52.40439 | 14.91358 | 71° | 53km/h | 14607m | 4.7m/s | -50.9°C | 0% | 0hPa | 2.7V | 00:00:00 | 00:00:00 | 00:00:00 | |
| DM0DOS-11 | 2026-08-30 05:44:01 | 52.40423 | 14.91275 | 73° | 53km/h | 14590m | 3.2m/s | -50.8°C | 4.8% | 135.2hPa | 2.7V | 08:30:00 | 01:26:50 | 00:00:00 | |
| AA1-15 | 2026-08-30 05:44:00 | 52.40427 | 14.91295 | 73° | 53km/h | 14594m | 4.6m/s | -50.7°C | 1.4% | 135.1hPa | 2.7V | 18:12:15 | 01:26:51 | 00:00:00 | |
| KRY50SP-1 | 2026-08-30 05:43:57 | 52.40419 | 14.91254 | 75° | 53km/h | 14586m | 4.9m/s | -50.7°C | 1.8% | 135.3hPa | 2.6V | 00:00:00 | 00:00:00 | 00:00:00 | |
| DB0DAN | 2026-08-30 05:43:55 | 52.40406 | 14.91191 | 69° | 51km/h | 14573m | 4.2m/s | -50.7°C | 1.9% | 135.59hPa | 2.6V | 00:00:00 | 00:00:00 | 00:00:00 | |
| DL1XH-west | 2026-08-30 05:43:54 | 52.40401 | 14.91170 | 68° | 57km/h | 14568m | 5.2m/s | 0°C | 0% | 0hPa | 2.7V | 18:12:15 | 01:26:45 | 00:00:00 | |
| DL2RXE-15 | 2026-08-30 05:43:52 | 52.40390 | 14.91127 | 67° | 57km/h | 14560m | 4.3m/s | -50.7°C | 2.0% | 135.8hPa | 2.6V | 00:00:00 | 00:00:00 | 00:00:00 | |
| DM0DOS-11 | 2026-08-30 05:43:51 | 52.40373 | 14.91061 | 68° | 57km/h | 14547m | 4.4m/s | -50.7°C | 5.2% | 136.1hPa | 2.6V | 08:30:00 | 01:26:40 | 00:00:00 | |
| AA1-15 | 2026-08-30 05:43:49 | 52.40373 | 14.91061 | 68° | 57km/h | 14547m | 4.4m/s | -50.7°C | 1.9% | 136.1hPa | 2.6V | 18:12:15 | 01:26:40 | 00:00:00 | |
| SONDE2-12 | 2026-08-30 05:43:47 | 52.40358 | 14.90996 | 69° | 57km/h | 14534m | 3.6m/s | -50.7°C | 2.5% | 136.4hPa | 2.6V | 00:00:00 | 00:00:00 | 00:00:00 | |
| DL1XH-west | 2026-08-30 05:43:44 | 52.40347 | 14.90953 | 66° | 57km/h | 14525m | 3.6m/s | 0°C | 0% | 0hPa | 2.6V | 18:12:15 | 01:26:35 | 00:00:00 | |
| DM0DOS-11 | 2026-08-30 05:43:41 | 52.40301 | 14.90799 | 62° | 60km/h | 14494m | 4.9m/s | -50.9°C | 5.2% | 137.2hPa | 2.6V | 08:30:00 | 01:26:28 | 00:00:00 | |
| DB0DAN | 2026-08-30 05:43:40 | 52.40322 | 14.90865 | 62° | 57km/h | 14507m | 3.7m/s | -51°C | 2.1% | 136.96hPa | 2.7V | 00:00:00 | 00:00:00 | 00:00:00 | |
| AA1-15 | 2026-08-30 05:43:39 | 52.40308 | 14.90821 | 63° | 60km/h | 14498m | 3.6m/s | -50.9°C | 1.9% | 137.1hPa | 2.6V | 18:12:15 | 01:26:29 | 00:00:00 | |
| SONDE2-11 | 2026-08-30 05:43:37 | 52.40301 | 14.90799 | 62° | 58km/h | 14494m | 4.9m/s | -50.9°C | 2.0% | 137.2hPa | 2.7V | 00:00:00 | 00:00:00 | 00:00:00 | |
| EDDB2-12 | 2026-08-30 05:43:36 | 52.40294 | 14.90777 | 62° | 58km/h | 14490m | 3.7m/s | -51.0°C | 2.1% | 137.3hPa | 2.7V | 00:00:00 | 00:00:00 | 00:00:00 | |
| SP3BTT-10 | 2026-08-30 05:43:35 | 52.40287 | 14.90755 | 65° | 53km/h | 14486m | 5.2m/s | -51.0°C | 5.2% | 137.4hPa | 2.7V | 00:00:00 | 00:00:00 | 00:00:00 | |
| D01LWL | 2026-08-30 05:43:33 | 52.40275 | 14.90711 | 67° | 58km/h | 14477m | 4.5m/s | -51.0°C | 2.0% | 137.6hPa | 2.7V | 00:00:00 | 00:00:00 | 00:00:00 | |
| DM0DOS-11 | 2026-08-30 05:43:31 | 52.40240 | 14.90577 | 65° | 58km/h | 14452m | 2.3m/s | -51°C | 5.4% | 138.1hPa | 2.7V | 08:30:00 | 01:26:18 | 00:00:00 | |
| AA1-15 | 2026-08-30 05:43:27 | 52.40241 | 14.90577 | 65° | 58km/h | 14452m | 2.3m/s | -51°C | 2% | 138.1hPa | 2.7V | 18:12:15 | 01:26:18 | 00:00:00 | |
| KRY50SP-1 | 2026-08-30 05:43:26 | 52.40240 | 14.90577 | 66° | 58km/h | 14452m | 2.3m/s | -51.0°C | 2.2% | 138.1hPa | 2.6V | 00:00:00 | 00:00:00 | 00:00:00 | |
| DB0DAN | 2026-08-30 05:43:25 | 52.40228 | 14.90532 | 67° | 58km/h | 14444m | 4.2m/s | -51°C | 2.2% | 138.31hPa | 2.6V | 00:00:00 | 00:00:00 | 00:00:00 | |
| DAC517 | 2026-08-30 05:43:24 | 52.40228 | 14.90532 | 68° | 60km/h | 14444m | 4.2m/s | -51.0°C | 2.2% | 138.3hPa | 2.6V | 00:00:00 | 00:00:00 | 00:00:00 | |
| SQ2ODE-11 | 2026-08-30 05:43:23 | 52.40222 | 14.90510 | 67° | 60km/h | 14441m | 3.1m/s | 0°C | 0% | 0hPa | 2.6V | 00:00:00 | 00:00:00 | 00:00:00 | |
| DM0DOS-11 | 2026-08-30 05:43:21 | 52.40179 | 14.90356 | 64° | 60km/h | 14411m | 5m/s | -50.8°C | 5.2% | 139hPa | 2.6V | 08:30:00 | 01:26:08 | 00:00:00 | |
| AA1-15 | 2026-08-30 05:43:16 | 52.40172 | 14.90334 | 65° | 58km/h | 14406m | 3.4m/s | -50.8°C | 1.9% | 139.1hPa | 2.7V | 18:12:15 | 01:26:07 | 00:00:00 | |
| SONDE2-12 | 2026-08-30 05:43:16 | 52.40166 | 14.90313 | 64° | 57km/h | 14402m | 4.9m/s | -50.8°C | 2.6% | 139.2hPa | 2.7V | 00:00:00 | 00:00:00 | 00:00:00 | |
| KRY50SP-1 | 2026-08-30 05:43:14 | 52.40166 | 14.90313 | 65° | 58km/h | 14402m | 4.9m/s | -50.8°C | 2.1% | 139.2hPa | 2.7V | 00:00:00 | 00:00:00 | 00:00:00 | |
| DB0DAN | 2026-08-30 05:43:10 | 52.40135 | 14.90207 | 65° | 53km/h | 14381m | 4m/s | -51°C | 2.1% | 139.64hPa | 2.7V | 00:00:00 | 00:00:00 | 00:00:00 | |
| AA1-15 | 2026-08-30 05:43:05 | 52.40106 | 14.90103 | 65° | 57km/h | 14360m | 4.6m/s | -51°C | 2% | 140.1hPa | 2.7V | 18:12:15 | 01:25:56 | 00:00:00 | |
| DAC517 | 2026-08-30 05:43:04 | 52.40106 | 14.90103 | 65° | 57km/h | 14360m | 4.6m/s | -51.0°C | 2.1% | 140.1hPa | 2.7V | 00:00:00 | 00:00:00 | 00:00:00 | |
| KRY50SP-1 | 2026-08-30 05:43:03 | 52.40100 | 14.90082 | 65° | 57km/h | 14356m | 3.0m/s | -50.9°C | 2.1% | 140.2hPa | 2.7V | 00:00:00 | 00:00:00 | 00:00:00 | |
| DM0DOS-11 | 2026-08-30 05:43:01 | 52.40075 | 14.90001 | 63° | 55km/h | 14339m | 3.3m/s | -50.9°C | 5.2% | 140.6hPa | 2.7V | 08:30:00 | 01:25:51 | 00:00:00 | |
| EDDB2-11 | 2026-08-30 05:42:59 | 52.40069 | 14.89982 | 63° | 51km/h | 14335m | 5.1m/s | -50.9°C | 2.0% | 140.7hPa | 2.7V | 00:00:00 | 00:00:00 | 00:00:00 | |
| KRY50SP-1 | 2026-08-30 05:42:57 | 52.40063 | 14.89962 | 65° | 51km/h | 14330m | 3.8m/s | -51.0°C | 2.1% | 140.7hPa | 2.7V | 00:00:00 | 00:00:00 | 00:00:00 | |
| DB0DAN | 2026-08-30 05:42:55 | 52.40045 | 14.89906 | 62° | 47km/h | 14318m | 5.1m/s | -51.1°C | 2.1% | 141.04hPa | 2.7V | 00:00:00 | 00:00:00 | 00:00:00 | |
| AA1-15 | 2026-08-30 05:42:54 | 52.40039 | 14.89888 | 60° | 49km/h | 14313m | 3.8m/s | -51.1°C | 2.1% | 141.1hPa | 2.7V | 18:12:15 | 01:25:45 | 00:00:00 | |
| SONDE2-12 | 2026-08-30 05:42:44 | 52.39972 | 14.89710 | 60° | 51km/h | 14271m | 3.5m/s | -51.3°C | 2.8% | 142.0hPa | 2.7V | 00:00:00 | 00:00:00 | 00:00:00 | |
| AA1-15 | 2026-08-30 05:42:43 | 52.39965 | 14.89692 | 61° | 51km/h | 14266m | 4.8m/s | -51.3°C | 2.2% | 142.1hPa | 2.7V | 18:12:15 | 01:25:34 | 00:00:00 | |
| SQ2ODE-11 | 2026-08-30 05:42:42 | 52.39965 | 14.89692 | 62° | 51km/h | 14266m | 4.8m/s | 0°C | 0% | 0hPa | 2.6V | 00:00:00 | 00:00:00 | 00:00:00 | |
| DB0DAN | 2026-08-30 05:42:40 | 52.39946 | 14.89635 | 60° | 51km/h | 14253m | 3.5m/s | -51.2°C | 2.2% | 142.45hPa | 2.6V | 00:00:00 | 00:00:00 | 00:00:00 | |
| DL2RXE-15 | 2026-08-30 05:42:38 | 52.39939 | 14.89617 | 59° | 51km/h | 14249m | 4.6m/s | -51.2°C | 2.2% | 142.5hPa | 2.7V | 00:00:00 | 00:00:00 | 00:00:00 | |
| DM0DOS-11 | 2026-08-30 05:42:37 | 52.39891 | 14.89487 | 64° | 51km/h | 14220m | 3.6m/s | -51.3°C | 5.5% | 143.2hPa | 2.7V | 08:30:00 | 01:25:23 | 00:00:00 | |
| AA1-15 | 2026-08-30 05:42:32 | 52.39891 | 14.89487 | 64° | 51km/h | 14220m | 3.6m/s | -51.3°C | 2.1% | 143.2hPa | 2.7V | 18:12:15 | 01:25:23 | 00:00:00 | |
| AA1-15 | 2026-08-30 05:42:22 | 52.39844 | 14.89304 | 65° | 46km/h | 14177m | 4.1m/s | -51.7°C | 2.1% | 144.1hPa | 2.6V | 18:12:15 | 01:25:13 | 00:00:00 | |
| SONDE2-12 | 2026-08-30 05:42:13 | 52.39804 | 14.89151 | 70° | 44km/h | 14140m | 3.9m/s | -52.1°C | 2.8% | 145.0hPa | 2.6V | 00:00:00 | 00:00:00 | 00:00:00 | |
| AA1-15 | 2026-08-30 05:42:11 | 52.39796 | 14.89116 | 73° | 47km/h | 14131m | 4.4m/s | -52.1°C | 2.1% | 145.2hPa | 2.6V | 18:12:15 | 01:25:02 | 00:00:00 | |
| DB0DAN | 2026-08-30 05:42:10 | 52.39793 | 14.89097 | 73° | 46km/h | 14127m | 4.3m/s | -52.1°C | 2.2% | 145.22hPa | 2.7V | 00:00:00 | 00:00:00 | 00:00:00 | |
| DM0DOS-11 | 2026-08-30 05:42:09 | 52.39765 | 14.88986 | 59° | 49km/h | 14101m | 4.8m/s | -52°C | 5.9% | 145.8hPa | 2.7V | 08:30:00 | 01:24:55 | 00:00:00 | |
| AA1-15 | 2026-08-30 05:42:00 | 52.39739 | 14.88919 | 59° | 46km/h | 14085m | 3.6m/s | -51.9°C | 2.2% | 146.2hPa | 2.6V | 18:12:15 | 01:24:51 | 00:00:00 | |
| D01LWL | 2026-08-30 05:42:00 | 52.39733 | 14.88902 | 60° | 46km/h | 14081m | 4.4m/s | -51.8°C | -1.0% | 146.3hPa | 2.6V | 00:00:00 | 00:00:00 | 00:00:00 | |
| EDDB2-11 | 2026-08-30 05:41:57 | 52.39722 | 14.88869 | 62° | 44km/h | 14073m | 4.8m/s | -51.7°C | 2.3% | 146.5hPa | 2.6V | 00:00:00 | 00:00:00 | 00:00:00 | |
| KRY50SP-1 | 2026-08-30 05:41:56 | 52.39722 | 14.88869 | 63° | 46km/h | 14073m | 4.8m/s | -51.7°C | 2.3% | 146.5hPa | 2.6V | 00:00:00 | 00:00:00 | 00:00:00 | |
| DB0DAN | 2026-08-30 05:41:55 | 52.39711 | 14.88837 | 61° | 42km/h | 14064m | 4.7m/s | -51.6°C | 2.2% | 146.67hPa | 2.6V | 00:00:00 | 00:00:00 | 00:00:00 | |
| KRY50SP-1 | 2026-08-30 05:41:50 | 52.39690 | 14.88775 | 60° | 44km/h | 14047m | 4.8m/s | -51.6°C | 2.3% | 147.0hPa | 2.6V | 00:00:00 | 00:00:00 | 00:00:00 | |
| DM0DOS-11 | 2026-08-30 05:41:49 | 52.39654 | 14.88666 | 62° | 42km/h | 14017m | 4.1m/s | -51.5°C | 5.6% | 147.7hPa | 2.6V | 08:30:00 | 01:24:35 | 00:00:00 | |
| AA1-15 | 2026-08-30 05:41:49 | 52.39679 | 14.88744 | 61° | 42km/h | 14039m | 4.5m/s | -51.5°C | 2.2% | 147.3hPa | 2.6V | 18:12:15 | 01:24:40 | 00:00:00 | |
| S3001 | 2026-08-30 05:41:48 | 52.39669 | 14.88714 | 62° | 42km/h | 14030m | 4.9m/s | -51.4°C | 2.2% | 147.4hPa | 2.7V | 00:00:00 | 00:00:00 | 00:00:00 | |
| DL2RXE-15 | 2026-08-30 05:41:47 | 52.39674 | 14.88729 | 63° | 40km/h | 14035m | 4.1m/s | -51.4°C | 2.2% | 147.3hPa | 2.7V | 00:00:00 | 00:00:00 | 00:00:00 | |
| KRY50SP-1 | 2026-08-30 05:41:45 | 52.39664 | 14.88698 | 64° | 44km/h | 14026m | 3.7m/s | -51.4°C | 2.2% | 147.5hPa | 2.7V | 00:00:00 | 00:00:00 | 00:00:00 | |
| 13BRC | 2026-08-30 05:41:44 | 52.39659 | 14.88682 | 64° | 44km/h | 14022m | 5.1m/s | -51.5°C | 2.2% | 147.6hPa | 2.7V | 00:00:00 | 00:00:00 | 00:00:00 | |
| SP3WXH-11 | 2026-08-30 05:41:43 | 52.39649 | 14.88650 | 62° | 44km/h | 14012m | 5.3m/s | -51.4°C | 2.3% | 147.8hPa | 2.7V | 00:00:00 | 00:00:00 | 00:00:00 | |
| DAC517 | 2026-08-30 05:41:42 | 52.39649 | 14.88650 | 63° | 44km/h | 14012m | 5.3m/s | -51.4°C | 2.3% | 147.8hPa | 2.7V | 00:00:00 | 00:00:00 | 00:00:00 | |
| SQ2ODE-11 | 2026-08-30 05:41:41 | 52.39644 | 14.88634 | 64° | 44km/h | 14008m | 3.3m/s | 0°C | 0% | 0hPa | 2.7V | 00:00:00 | 00:00:00 | 00:00:00 | |
| DB0DAN | 2026-08-30 05:41:40 | 52.39634 | 14.88602 | 65° | 40km/h | 13999m | 3.8m/s | -51.3°C | 2.2% | 148.14hPa | 2.7V | 00:00:00 | 00:00:00 | 00:00:00 | |
| AA1-15 | 2026-08-30 05:41:38 | 52.39625 | 14.88570 | 65° | 44km/h | 13991m | 4.1m/s | -51.4°C | 2% | 148.3hPa | 2.6V | 18:12:15 | 01:24:29 | 00:00:00 | |
| DM0DOS-11 | 2026-08-30 05:41:36 | 52.39595 | 14.88454 | 67° | 44km/h | 13962m | 3.1m/s | -51.2°C | 5.2% | 149hPa | 2.6V | 08:30:00 | 01:24:22 | 00:00:00 | |
| DF8AY | 2026-08-30 05:41:34 | 52.39608 | 14.88505 | 66° | 44km/h | 13974m | 4.4m/s | -51.3°C | 1.8% | 148.7hPa | 2.7V | 18:12:15 | 01:24:25 | 00:00:00 | |
| AA1-15 | 2026-08-30 05:41:27 | 52.39577 | 14.88390 | 67° | 40km/h | 13946m | 3.1m/s | -51.2°C | 1.7% | 149.4hPa | 2.6V | 18:12:15 | 01:24:18 | 00:00:00 | |
| DB0DAN | 2026-08-30 05:41:25 | 52.39569 | 14.88361 | 63° | 37km/h | 13937m | 4.1m/s | -51.3°C | 2% | 149.62hPa | 2.8V | 00:00:00 | 00:00:00 | 00:00:00 | |
| DF8AY | 2026-08-30 05:41:21 | 52.39552 | 14.88304 | 64° | 38km/h | 13920m | 3.7m/s | -51.4°C | 1.6% | 150hPa | 2.6V | 18:12:15 | 01:24:12 | 00:00:00 | |
| AA1-15 | 2026-08-30 05:41:16 | 52.39533 | 14.88230 | 69° | 38km/h | 13897m | 5.4m/s | -51.4°C | 1.5% | 150.5hPa | 2.6V | 18:12:15 | 01:24:07 | 00:00:00 | |
| DF8AY | 2026-08-30 05:41:11 | 52.39517 | 14.88158 | 72° | 35km/h | 13876m | 3.9m/s | -51.2°C | 1.4% | 151hPa | 2.8V | 18:12:15 | 01:24:02 | 00:00:00 | |
| DB0DAN | 2026-08-30 05:41:10 | 52.39514 | 14.88144 | 72° | 35km/h | 13871m | 5.2m/s | -51.2°C | 1.8% | 151.11hPa | 2.7V | 00:00:00 | 00:00:00 | 00:00:00 | |
| DM0DOS-11 | 2026-08-30 05:41:10 | 52.39505 | 14.88085 | 75° | 37km/h | 13854m | 5.1m/s | -51°C | 4.9% | 151.5hPa | 2.8V | 08:30:00 | 01:23:57 | 00:00:00 | |
| AA1-15 | 2026-08-30 05:41:05 | 52.39503 | 14.88071 | 78° | 37km/h | 13849m | 4.1m/s | -51°C | 1.3% | 151.6hPa | 2.8V | 18:12:15 | 01:23:56 | 00:00:00 | |
| DF8AY | 2026-08-30 05:41:01 | 52.39497 | 14.88014 | 82° | 35km/h | 13831m | 5.1m/s | -50.8°C | 1.2% | 152hPa | 2.6V | 18:12:15 | 01:23:52 | 00:00:00 | |
| DAC517 | 2026-08-30 05:41:00 | 52.39497 | 14.88014 | 83° | 35km/h | 13831m | 5.1m/s | -50.8°C | 1.7% | 152.0hPa | 2.7V | 00:00:00 | 00:00:00 | 00:00:00 | |
| DM0DOS-11 | 2026-08-30 05:40:58 | 52.39482 | 14.87895 | 76° | 38km/h | 13795m | 5.1m/s | -50.6°C | 4.8% | 152.9hPa | 2.7V | 08:30:00 | 01:23:44 | 00:00:00 | |
| D01LWL | 2026-08-30 05:40:58 | 52.39491 | 14.87957 | 79° | 35km/h | 13812m | 5.4m/s | 0°C | -1.0% | 152.4hPa | 2.8V | 00:00:00 | 00:00:00 | 00:00:00 | |
| DL2RXE-15 | 2026-08-30 05:40:56 | 52.39491 | 14.87957 | 80° | 37km/h | 13812m | 5.4m/s | -50.7°C | 1.8% | 152.5hPa | 2.8V | 00:00:00 | 00:00:00 | 00:00:00 | |
| DB0DAN | 2026-08-30 05:40:55 | 52.39487 | 14.87926 | 77° | 37km/h | 13803m | 5.3m/s | -50.6°C | 1.7% | 152.72hPa | 2.8V | 00:00:00 | 00:00:00 | 00:00:00 | |
| AA1-15 | 2026-08-30 05:40:54 | 52.39485 | 14.87911 | 76° | 38km/h | 13799m | 3.4m/s | -50.6°C | 1.3% | 152.8hPa | 2.7V | 18:12:15 | 01:23:45 | 00:00:00 | |
| DF8AY | 2026-08-30 05:40:51 | 52.39478 | 14.87865 | 78° | 38km/h | 13785m | 5.2m/s | -50.5°C | 1.2% | 153.1hPa | 2.6V | 18:12:15 | 01:23:42 | 00:00:00 | |
| KRY50SP-1 | 2026-08-30 05:40:50 | 52.39478 | 14.87864 | 79° | 38km/h | 13785m | 5.2m/s | -50.5°C | 1.7% | 153.1hPa | 2.7V | 00:00:00 | 00:00:00 | 00:00:00 | |
| DM0DOS-11 | 2026-08-30 05:40:46 | 52.39465 | 14.87701 | 82° | 40km/h | 13736m | 4.6m/s | -50.3°C | 4.5% | 154.3hPa | 2.7V | 08:30:00 | 01:23:32 | 00:00:00 | |
| S3001 | 2026-08-30 05:40:46 | 52.39469 | 14.87766 | 83° | 42km/h | 13756m | 4.1m/s | -50.4°C | 1.7% | 153.8hPa | 2.8V | 00:00:00 | 00:00:00 | 00:00:00 | |
| AA1-15 | 2026-08-30 05:40:43 | 52.39467 | 14.87732 | 85° | 38km/h | 13746m | 4.2m/s | -50.4°C | 1.1% | 154.1hPa | 2.8V | 18:12:15 | 01:23:34 | 00:00:00 | |
| SP6BVK | 2026-08-30 05:40:42 | 52.39466 | 14.87717 | 85° | 38km/h | 13741m | 6.8m/s | -50.4°C | 1.6% | 154.1hPa | 2.7V | 00:00:00 | 00:00:00 | 00:00:00 | |
| DB0DAN | 2026-08-30 05:40:40 | 52.39463 | 14.87684 | 80° | 38km/h | 13731m | 5.4m/s | -50.3°C | 1.6% | 154.41hPa | 2.7V | 00:00:00 | 00:00:00 | 00:00:00 | |
| DF8AY | 2026-08-30 05:40:40 | 52.39463 | 14.87684 | 80° | 40km/h | 13731m | 5.4m/s | -50.3°C | 1.1% | 154.4hPa | 2.7V | 18:12:15 | 01:23:31 | 00:00:00 | |
| AA1-15 | 2026-08-30 05:40:32 | 52.39453 | 14.87542 | 88° | 46km/h | 13692m | 6.3m/s | -50.1°C | 1.1% | 155.3hPa | 2.6V | 18:12:15 | 01:23:23 | 00:00:00 | |
| DF8AY | 2026-08-30 05:40:29 | 52.39451 | 14.87482 | 85° | 49km/h | 13676m | 4.4m/s | -50°C | 1.1% | 155.7hPa | 2.7V | 18:12:15 | 01:23:20 | 00:00:00 | |
| KRY50SP-1 | 2026-08-30 05:40:27 | 52.39450 | 14.87462 | 86° | 51km/h | 13671m | 5.7m/s | -50.0°C | 1.7% | 155.8hPa | 2.8V | 00:00:00 | 00:00:00 | 00:00:00 | |
| DB0DAN | 2026-08-30 05:40:25 | 52.39447 | 14.87397 | 84° | 49km/h | 13657m | 4.3m/s | -50°C | 1.7% | 156.19hPa | 2.8V | 00:00:00 | 00:00:00 | 00:00:00 | |
| DL1XH-west | 2026-08-30 05:40:22 | 52.39444 | 14.87331 | 89° | 53km/h | 13644m | 3.9m/s | 0°C | 0% | 0hPa | 2.6V | 18:12:15 | 01:23:13 | 00:00:00 | |
| DM0DOS-11 | 2026-08-30 05:40:20 | 52.39444 | 14.87243 | 89° | 55km/h | 13625m | 3.7m/s | -50°C | 4.5% | 156.9hPa | 2.8V | 08:30:00 | 01:23:09 | 00:00:00 | |
| DF8AY | 2026-08-30 05:40:18 | 52.39443 | 14.87243 | 89° | 55km/h | 13625m | 3.7m/s | -50°C | 1.1% | 156.9hPa | 2.8V | 18:12:15 | 01:23:09 | 00:00:00 | |
| AA1-15 | 2026-08-30 05:40:11 | 52.39436 | 14.87079 | 83° | 62km/h | 13591m | 4.9m/s | -50.3°C | 1.2% | 157.7hPa | 2.8V | 18:12:15 | 01:23:02 | 00:00:00 | |
| DB0DAN | 2026-08-30 05:40:10 | 52.39434 | 14.87052 | 83° | 62km/h | 13586m | 4.5m/s | -50.3°C | 1.7% | 157.84hPa | 2.7V | 00:00:00 | 00:00:00 | 00:00:00 | |
| DM0DOS-11 | 2026-08-30 05:40:10 | 52.39429 | 14.86999 | 81° | 66km/h | 13576m | 4.1m/s | -50.4°C | 4.8% | 158hPa | 2.6V | 08:30:00 | 01:22:59 | 00:00:00 | |
| DF8AY | 2026-08-30 05:40:09 | 52.39429 | 14.86999 | 82° | 66km/h | 13576m | 4.1m/s | -50.4°C | 1.3% | 158hPa | 2.6V | 18:12:15 | 01:22:59 | 00:00:00 | |
| DL1XH-west | 2026-08-30 05:40:09 | 52.39432 | 14.87026 | 81° | 66km/h | 13582m | 5.4m/s | 0°C | 0% | 0hPa | 2.6V | 18:12:15 | 01:23:00 | 00:00:00 | |
| AA1-15 | 2026-08-30 05:40:00 | 52.39411 | 14.86790 | 81° | 60km/h | 13541m | 3.1m/s | -50.2°C | 1.2% | 158.9hPa | 2.8V | 18:12:15 | 01:22:51 | 00:00:00 | |
| DL1XH-west | 2026-08-30 05:39:59 | 52.39409 | 14.86765 | 82° | 62km/h | 13537m | 4.7m/s | 0°C | 0% | 0hPa | 2.8V | 18:12:15 | 01:22:50 | 00:00:00 | |
| DF8AY | 2026-08-30 05:39:57 | 52.39404 | 14.86714 | 80° | 64km/h | 13528m | 5m/s | -50.2°C | 1.3% | 159.3hPa | 2.7V | 18:12:15 | 01:22:48 | 00:00:00 | |
| DB0DAN | 2026-08-30 05:39:55 | 52.39399 | 14.86661 | 82° | 62km/h | 13519m | 5.8m/s | -50.3°C | 1.8% | 159.51hPa | 2.6V | 00:00:00 | 00:00:00 | 00:00:00 | |
| AA1-15 | 2026-08-30 05:39:49 | 52.39387 | 14.86497 | 85° | 64km/h | 13493m | 3.7m/s | -50.2°C | 1.3% | 160.1hPa | 2.6V | 18:12:15 | 01:22:40 | 00:00:00 | |
| DL1XH-west | 2026-08-30 05:39:48 | 52.39386 | 14.86471 | 83° | 62km/h | 13489m | 4.5m/s | 0°C | 0% | 0hPa | 2.6V | 18:12:15 | 01:22:39 | 00:00:00 | |
| DF8AY | 2026-08-30 05:39:46 | 52.39382 | 14.86422 | 84° | 58km/h | 13481m | 4.7m/s | -50.2°C | 1.4% | 160.4hPa | 2.8V | 18:12:15 | 01:22:37 | 00:00:00 | |
| SONCRA | 2026-08-30 05:39:44 | 52.39379 | 14.86373 | 84° | 58km/h | 13472m | 4.8m/s | -50.2°C | 1.8% | 160.6hPa | 2.7V | 00:00:00 | 00:00:00 | 00:00:00 | |
| S3001 | 2026-08-30 05:39:43 | 52.39378 | 14.86348 | 83° | 60km/h | 13467m | 4.0m/s | -50.2°C | 1.8% | 160.8hPa | 2.7V | 00:00:00 | 00:00:00 | 00:00:00 | |
| DB0DAN | 2026-08-30 05:39:40 | 52.39373 | 14.86271 | 85° | 60km/h | 13454m | 3.6m/s | -50.2°C | 1.8% | 161.07hPa | 2.7V | 00:00:00 | 00:00:00 | 00:00:00 | |
| AA1-15 | 2026-08-30 05:39:38 | 52.39370 | 14.86220 | 84° | 60km/h | 13447m | 4m/s | -50.1°C | 1.3% | 161.3hPa | 2.6V | 18:12:15 | 01:22:29 | 00:00:00 | |
| DL1XH-west | 2026-08-30 05:39:37 | 52.39369 | 14.86195 | 86° | 60km/h | 13442m | 5m/s | 0°C | 0% | 0hPa | 2.6V | 18:12:15 | 01:22:28 | 00:00:00 | |
| DF8AY | 2026-08-30 05:39:36 | 52.39368 | 14.86171 | 86° | 58km/h | 13437m | 4.1m/s | -50.2°C | 1.4% | 161.5hPa | 2.8V | 18:12:15 | 01:22:27 | 00:00:00 | |
| AA1-15 | 2026-08-30 05:39:27 | 52.39357 | 14.85967 | 83° | 57km/h | 13399m | 5m/s | -50.4°C | 1.5% | 162.4hPa | 2.8V | 18:12:15 | 01:22:18 | 00:00:00 | |
| DB0DAN | 2026-08-30 05:39:25 | 52.39354 | 14.85920 | 84° | 55km/h | 13391m | 4.9m/s | -50.5°C | 1.9% | 162.64hPa | 2.7V | 00:00:00 | 00:00:00 | 00:00:00 | |
| DL1XH-west | 2026-08-30 05:39:25 | 52.39354 | 14.85920 | 84° | 58km/h | 13391m | 4.9m/s | 0°C | 0% | 0hPa | 2.7V | 18:12:15 | 01:22:16 | 00:00:00 | |
| AA1-15 | 2026-08-30 05:39:16 | 52.39340 | 14.85728 | 84° | 51km/h | 13353m | 4.2m/s | -50.8°C | 1.6% | 163.6hPa | 2.8V | 18:12:15 | 01:22:07 | 00:00:00 | |
| DL1XH-west | 2026-08-30 05:39:15 | 52.39339 | 14.85707 | 82° | 53km/h | 13349m | 4.5m/s | 0°C | 0% | 0hPa | 2.8V | 18:12:15 | 01:22:06 | 00:00:00 | |
| DF8AY | 2026-08-30 05:39:14 | 52.39337 | 14.85685 | 83° | 53km/h | 13344m | 4.6m/s | -50.7°C | 1.7% | 163.8hPa | 2.7V | 18:12:15 | 01:22:05 | 00:00:00 | |
| SONCRA | 2026-08-30 05:39:13 | 52.39335 | 14.85662 | 83° | 55km/h | 13340m | 4.5m/s | -50.7°C | 2.0% | 163.9hPa | 2.8V | 00:00:00 | 00:00:00 | 00:00:00 | |
| S3001 | 2026-08-30 05:39:12 | 52.39334 | 14.85639 | 82° | 57km/h | 13336m | 2.9m/s | -50.8°C | 2.0% | 164.1hPa | 2.8V | 00:00:00 | 00:00:00 | 00:00:00 | |
| DB0DAN | 2026-08-30 05:39:10 | 52.39329 | 14.85591 | 80° | 58km/h | 13328m | 3.7m/s | -50.8°C | 2.1% | 164.27hPa | 2.8V | 00:00:00 | 00:00:00 | 00:00:00 | |
| SONDE2-12 | 2026-08-30 05:39:07 | 52.39321 | 14.85518 | 79° | 58km/h | 13316m | 4.7m/s | -50.9°C | 2.5% | 164.6hPa | 2.8V | 00:00:00 | 00:00:00 | 00:00:00 | |
| AA1-15 | 2026-08-30 05:39:05 | 52.39315 | 14.85471 | 78° | 57km/h | 13308m | 3.9m/s | -50.9°C | 1.8% | 164.8hPa | 2.8V | 18:12:15 | 01:21:56 | 00:00:00 | |
| DF8AY | 2026-08-30 05:39:04 | 52.39313 | 14.85449 | 79° | 53km/h | 13304m | 4.4m/s | -50.8°C | 1.8% | 164.9hPa | 2.8V | 18:12:15 | 01:21:55 | 00:00:00 | |
| KRY50SP-1 | 2026-08-30 05:39:02 | 52.39310 | 14.85427 | 81° | 53km/h | 13300m | 2.9m/s | -50.8°C | 2.1% | 165.0hPa | 2.8V | 00:00:00 | 00:00:00 | 00:00:00 | |
| SONDE2-11 | 2026-08-30 05:38:58 | 52.39293 | 14.85289 | 76° | 60km/h | 13275m | 3.2m/s | -50.7°C | 2.0% | 165.6hPa | 2.8V | 00:00:00 | 00:00:00 | 00:00:00 | |
| EDDB2-12 | 2026-08-30 05:38:57 | 52.39293 | 14.85289 | 76° | 60km/h | 13275m | 3.2m/s | -50.7°C | 2.0% | 165.6hPa | 2.8V | 00:00:00 | 00:00:00 | 00:00:00 | |
| DB0DAN | 2026-08-30 05:38:55 | 52.39286 | 14.85239 | 79° | 58km/h | 13267m | 4.1m/s | -50.7°C | 2% | 165.81hPa | 2.8V | 00:00:00 | 00:00:00 | 00:00:00 | |
| DF8AY | 2026-08-30 05:38:54 | 52.39283 | 14.85215 | 78° | 60km/h | 13263m | 3.4m/s | -50.9°C | 1.8% | 165.9hPa | 2.8V | 18:12:15 | 01:21:45 | 00:00:00 | |
| EDDB2-11 | 2026-08-30 05:38:51 | 52.39273 | 14.85142 | 78° | 57km/h | 13250m | 4.4m/s | -50.9°C | 2.1% | 166.2hPa | 2.8V | 00:00:00 | 00:00:00 | 00:00:00 | |
| DF8AY | 2026-08-30 05:38:43 | 52.39243 | 14.84957 | 74° | 58km/h | 13217m | 3.8m/s | -50.9°C | 1.9% | 167.1hPa | 2.8V | 18:12:15 | 01:21:34 | 00:00:00 | |
| SONCRA | 2026-08-30 05:38:42 | 52.39239 | 14.84933 | 73° | 58km/h | 13213m | 3.7m/s | -51.0°C | 2.1% | 167.1hPa | 2.6V | 00:00:00 | 00:00:00 | 00:00:00 | |
| KRY50SP-1 | 2026-08-30 05:38:41 | 52.39239 | 14.84933 | 74° | 60km/h | 13213m | 3.7m/s | -51.0°C | 2.1% | 167.1hPa | 2.6V | 00:00:00 | 00:00:00 | 00:00:00 | |
| DB0DAN | 2026-08-30 05:38:40 | 52.39230 | 14.84886 | 73° | 57km/h | 13205m | 3.5m/s | -50.9°C | 2.1% | 167.31hPa | 2.6V | 00:00:00 | 00:00:00 | 00:00:00 | |
| SONDE2-12 | 2026-08-30 05:38:36 | 52.39213 | 14.84793 | 72° | 58km/h | 13190m | 2.8m/s | -51.1°C | 2.7% | 167.8hPa | 2.8V | 00:00:00 | 00:00:00 | 00:00:00 | |
| DF8AY | 2026-08-30 05:38:32 | 52.39195 | 14.84698 | 73° | 62km/h | 13174m | 3.4m/s | -51.2°C | 1.9% | 168.2hPa | 2.8V | 18:12:15 | 01:21:23 | 00:00:00 | |
| SP3BTT-10 | 2026-08-30 05:38:31 | 52.39190 | 14.84673 | 74° | 60km/h | 13170m | 4.0m/s | -51.3°C | 5.4% | 168.2hPa | 2.6V | 00:00:00 | 00:00:00 | 00:00:00 | |
| KRY50SP-1 | 2026-08-30 05:38:30 | 52.39191 | 14.84673 | 75° | 62km/h | 13170m | 4.1m/s | -51.3°C | 2.2% | 168.3hPa | 2.6V | 00:00:00 | 00:00:00 | 00:00:00 | |
| DB0DAN | 2026-08-30 05:38:25 | 52.39162 | 14.84521 | 72° | 60km/h | 13147m | 3.5m/s | -51.4°C | 2.3% | 168.9hPa | 2.6V | 00:00:00 | 00:00:00 | 00:00:00 | |
| DF8AY | 2026-08-30 05:38:21 | 52.39144 | 14.84427 | 72° | 58km/h | 13131m | 4.1m/s | -51.4°C | 2.2% | 169.3hPa | 2.6V | 18:12:15 | 01:21:12 | 00:00:00 | |
| AA1-15 | 2026-08-30 05:38:11 | 52.39110 | 14.84186 | 79° | 62km/h | 13093m | 4.2m/s | -51.3°C | 2.1% | 170.3hPa | 2.8V | 18:12:15 | 01:21:02 | 00:00:00 | |
| S3001 | 2026-08-30 05:38:10 | 52.39107 | 14.84161 | 79° | 60km/h | 13089m | 3.9m/s | -51.1°C | 2.3% | 170.4hPa | 2.8V | 00:00:00 | 00:00:00 | 00:00:00 | |
| DB0DAN | 2026-08-30 05:38:10 | 52.39107 | 14.84161 | 80° | 57km/h | 13089m | 3.9m/s | -51.1°C | 2.3% | 170.41hPa | 2.6V | 00:00:00 | 00:00:00 | 00:00:00 | |
| KRY50SP-1 | 2026-08-30 05:38:07 | 52.39101 | 14.84112 | 80° | 58km/h | 13080m | 3.6m/s | -51.1°C | 2.2% | 170.6hPa | 2.8V | 00:00:00 | 00:00:00 | 00:00:00 | |
| DM0DOS-11 | 2026-08-30 05:38:06 | 52.39089 | 14.83942 | 84° | 60km/h | 13051m | 4.7m/s | -50.9°C | 5.4% | 171.4hPa | 2.8V | 08:30:00 | 01:20:52 | 00:00:00 | |
| SONDE2-12 | 2026-08-30 05:38:05 | 52.39095 | 14.84041 | 82° | 58km/h | 13067m | 4.8m/s | -51.1°C | 2.7% | 171.0hPa | 2.8V | 00:00:00 | 00:00:00 | 00:00:00 | |
| AA1-15 | 2026-08-30 05:38:00 | 52.39088 | 14.83918 | 85° | 58km/h | 13046m | 3.8m/s | -50.9°C | 2% | 171.5hPa | 2.8V | 18:12:15 | 01:20:51 | 00:00:00 | |
| 13BRC | 2026-08-30 05:37:57 | 52.39085 | 14.83869 | 87° | 57km/h | 13038m | 4.0m/s | -50.9°C | 2.2% | 171.8hPa | 2.8V | 00:00:00 | 00:00:00 | 00:00:00 | |
| DAC517 | 2026-08-30 05:37:56 | 52.39084 | 14.83846 | 86° | 57km/h | 13034m | 3.8m/s | -50.8°C | 2.2% | 171.8hPa | 2.8V | 00:00:00 | 00:00:00 | 00:00:00 | |
| DB0DAN | 2026-08-30 05:37:55 | 52.39082 | 14.83799 | 86° | 55km/h | 13025m | 4.2m/s | -50.9°C | 2.2% | 172.1hPa | 2.8V | 00:00:00 | 00:00:00 | 00:00:00 | |
| EDDB2-12 | 2026-08-30 05:37:55 | 52.39082 | 14.83799 | 85° | 57km/h | 13025m | 4.2m/s | -50.9°C | 2.2% | 172.1hPa | 2.6V | 00:00:00 | 00:00:00 | 00:00:00 | |
| EDDB2-11 | 2026-08-30 05:37:49 | 52.39074 | 14.83624 | 88° | 60km/h | 12995m | 5.4m/s | -50.7°C | 2.2% | 172.9hPa | 2.6V | 00:00:00 | 00:00:00 | 00:00:00 | |
| AA1-15 | 2026-08-30 05:37:49 | 52.39075 | 14.83649 | 87° | 62km/h | 12999m | 3m/s | -50.7°C | 2% | 172.8hPa | 2.8V | 18:12:15 | 01:20:40 | 00:00:00 | |
| KRY50SP-1 | 2026-08-30 05:37:44 | 52.39075 | 14.83550 | 92° | 58km/h | 12982m | 4.0m/s | -50.7°C | 2.2% | 173.2hPa | 2.6V | 00:00:00 | 00:00:00 | 00:00:00 | |
| DM0DOS-11 | 2026-08-30 05:37:41 | 52.39075 | 14.83330 | 91° | 62km/h | 12946m | 4m/s | -50.4°C | 5.2% | 174.2hPa | 2.6V | 08:30:00 | 01:20:27 | 00:00:00 | |
| DB0DAN | 2026-08-30 05:37:40 | 52.39076 | 14.83430 | 90° | 55km/h | 12962m | 4.1m/s | -50.5°C | 2.2% | 173.8hPa | 2.8V | 00:00:00 | 00:00:00 | 00:00:00 | |
| AA1-15 | 2026-08-30 05:37:38 | 52.39075 | 14.83381 | 88° | 60km/h | 12954m | 3.9m/s | -50.5°C | 1.9% | 174hPa | 2.8V | 18:12:15 | 01:20:29 | 00:00:00 | |
| SONDE2-12 | 2026-08-30 05:37:34 | 52.39075 | 14.83278 | 90° | 62km/h | 12939m | 4.1m/s | -50.4°C | 2.6% | 174.5hPa | 2.8V | 00:00:00 | 00:00:00 | 00:00:00 | |
| DF8AY | 2026-08-30 05:37:28 | 52.39079 | 14.83126 | 94° | 62km/h | 12913m | 4.3m/s | -50.5°C | 1.9% | 175.1hPa | 2.8V | 18:12:15 | 01:20:19 | 00:00:00 | |
| AA1-15 | 2026-08-30 05:37:27 | 52.39080 | 14.83101 | 94° | 60km/h | 12908m | 4.8m/s | -50.5°C | 2% | 175.2hPa | 2.8V | 18:12:15 | 01:20:18 | 00:00:00 | |
| DB0DAN | 2026-08-30 05:37:25 | 52.39083 | 14.83051 | 95° | 57km/h | 12900m | 4.8m/s | -50.5°C | 2.2% | 175.43hPa | 2.6V | 00:00:00 | 00:00:00 | 00:00:00 | |
| EDDB2-12 | 2026-08-30 05:37:24 | 52.39086 | 14.83002 | 94° | 60km/h | 12892m | 4.5m/s | -50.5°C | 2.2% | 175.6hPa | 2.8V | 00:00:00 | 00:00:00 | 00:00:00 | |
| DM0DOS-11 | 2026-08-30 05:37:22 | 52.39092 | 14.82845 | 93° | 64km/h | 12868m | 3.6m/s | -50.6°C | 5.2% | 176.3hPa | 2.8V | 08:30:00 | 01:20:08 | 00:00:00 | |
| DF8AY | 2026-08-30 05:37:17 | 52.39092 | 14.82845 | 94° | 64km/h | 12868m | 3.6m/s | -50.6°C | 1.9% | 176.3hPa | 2.8V | 18:12:15 | 01:20:08 | 00:00:00 | |
| AA1-15 | 2026-08-30 05:37:16 | 52.39093 | 14.82818 | 95° | 66km/h | 12864m | 4.6m/s | -50.6°C | 2% | 176.4hPa | 2.8V | 18:12:15 | 01:20:07 | 00:00:00 | |
| DF8AY | 2026-08-30 05:37:07 | 52.39105 | 14.82575 | 93° | 69km/h | 12825m | 3.8m/s | -50.8°C | 2.2% | 177.4hPa | 2.8V | 18:12:15 | 01:19:58 | 00:00:00 | |
| AA1-15 | 2026-08-30 05:37:05 | 52.39106 | 14.82517 | 91° | 71km/h | 12816m | 3.8m/s | -50.8°C | 2.2% | 177.7hPa | 2.8V | 18:12:15 | 01:19:56 | 00:00:00 | |
| SONDE2-12 | 2026-08-30 05:37:03 | 52.39107 | 14.82458 | 91° | 71km/h | 12808m | 3.5m/s | -50.7°C | 3.0% | 177.9hPa | 2.8V | 00:00:00 | 00:00:00 | 00:00:00 | |
| DF8AY | 2026-08-30 05:36:56 | 52.39108 | 14.82253 | 91° | 68km/h | 12776m | 4.3m/s | -50.7°C | 2.3% | 178.7hPa | 2.8V | 18:12:15 | 01:19:47 | 00:00:00 | |
| AA1-15 | 2026-08-30 05:36:54 | 52.39108 | 14.82197 | 90° | 68km/h | 12767m | 3.3m/s | -50.6°C | 2.3% | 179hPa | 2.8V | 18:12:15 | 01:19:45 | 00:00:00 | |
| EDDB2-12 | 2026-08-30 05:36:53 | 52.39108 | 14.82142 | 90° | 68km/h | 12758m | 4.0m/s | -50.6°C | 2.4% | 179.3hPa | 2.6V | 00:00:00 | 00:00:00 | 00:00:00 | |
| DM0DOS-11 | 2026-08-30 05:36:52 | 52.39106 | 14.81999 | 86° | 69km/h | 12737m | 4.3m/s | -50.5°C | 5.5% | 179.8hPa | 2.6V | 08:30:00 | 01:19:38 | 00:00:00 | |
| DF8AY | 2026-08-30 05:36:46 | 52.39105 | 14.81971 | 86° | 68km/h | 12733m | 4.1m/s | -50.5°C | 2.4% | 180hPa | 2.6V | 18:12:15 | 01:19:37 | 00:00:00 | |
| AA1-15 | 2026-08-30 05:36:43 | 52.39102 | 14.81889 | 86° | 66km/h | 12720m | 5.3m/s | -50.5°C | 2.4% | 180.4hPa | 2.8V | 18:12:15 | 01:19:34 | 00:00:00 | |
| DB0DAN | 2026-08-30 05:36:40 | 52.39099 | 14.81809 | 87° | 62km/h | 12706m | 3.1m/s | -50.6°C | 2.6% | 180.71hPa | 2.7V | 00:00:00 | 00:00:00 | 00:00:00 | |
| DF8AY | 2026-08-30 05:36:36 | 52.39095 | 14.81702 | 88° | 66km/h | 12691m | 3.2m/s | -50.5°C | 2.5% | 181.1hPa | 2.8V | 18:12:15 | 01:19:27 | 00:00:00 | |
| AA1-15 | 2026-08-30 05:36:32 | 52.39090 | 14.81594 | 85° | 66km/h | 12674m | 4.2m/s | -50.6°C | 2.6% | 181.6hPa | 2.8V | 18:12:15 | 01:19:23 | 00:00:00 | |
| SP3BTT-10 | 2026-08-30 05:36:30 | 52.39086 | 14.81540 | 83° | 69km/h | 12665m | 3.8m/s | -50.5°C | 5.8% | 181.8hPa | 2.7V | 00:00:00 | 00:00:00 | 00:00:00 | |
| KRY50SP-1 | 2026-08-30 05:36:27 | 52.39083 | 14.81486 | 86° | 66km/h | 12657m | 3.9m/s | -50.7°C | 2.7% | 182.1hPa | 2.8V | 00:00:00 | 00:00:00 | 00:00:00 | |
| DB0DAN | 2026-08-30 05:36:25 | 52.39078 | 14.81406 | 86° | 62km/h | 12643m | 5.3m/s | -50.7°C | 2.7% | 182.46hPa | 2.8V | 00:00:00 | 00:00:00 | 00:00:00 | |
| DF8AY | 2026-08-30 05:36:25 | 52.39078 | 14.81406 | 86° | 66km/h | 12643m | 5.3m/s | -50.7°C | 2.7% | 182.5hPa | 2.8V | 18:12:15 | 01:19:16 | 00:00:00 | |
| AA1-15 | 2026-08-30 05:36:21 | 52.39072 | 14.81297 | 83° | 68km/h | 12626m | 3.9m/s | -50.7°C | 2.8% | 182.9hPa | 2.8V | 18:12:15 | 01:19:12 | 00:00:00 | |
| DF8AY | 2026-08-30 05:36:14 | 52.39055 | 14.81096 | 82° | 69km/h | 12596m | 4.1m/s | 0°C | 0% | 183.8hPa | 2.8V | 18:12:15 | 01:19:05 | 00:00:00 | |
| DAC517 | 2026-08-30 05:36:12 | 52.39053 | 14.81068 | 84° | 69km/h | 12592m | 4.7m/s | -50.4°C | 2.7% | 183.9hPa | 2.8V | 00:00:00 | 00:00:00 | 00:00:00 | |
| DB0DAN | 2026-08-30 05:36:10 | 52.39047 | 14.80981 | 83° | 68km/h | 12580m | 4.2m/s | -50.4°C | 2.8% | 184.25hPa | 2.8V | 00:00:00 | 00:00:00 | 00:00:00 | |
| AA1-15 | 2026-08-30 05:36:10 | 52.39047 | 14.80981 | 83° | 71km/h | 12579m | 4.2m/s | -50.4°C | 2.9% | 184.2hPa | 2.8V | 18:12:15 | 01:19:01 | 00:00:00 | |
| DF8AY | 2026-08-30 05:36:04 | 52.39034 | 14.80814 | 84° | 68km/h | 12555m | 4.9m/s | 0°C | 0% | 185hPa | 2.8V | 18:12:15 | 01:18:55 | 00:00:00 | |
| SONDE2-12 | 2026-08-30 05:36:01 | 52.39029 | 14.80730 | 83° | 69km/h | 12543m | 4.2m/s | -50.9°C | 3.6% | 185.3hPa | 2.7V | 00:00:00 | 00:00:00 | 00:00:00 | |
| AA1-15 | 2026-08-30 05:36:00 | 52.39027 | 14.80701 | 85° | 69km/h | 12539m | 4.2m/s | -50.9°C | 3.3% | 185.5hPa | 2.7V | 18:12:15 | 01:18:51 | 00:00:00 | |
| SP3BTT-10 | 2026-08-30 05:36:00 | 52.39027 | 14.80701 | 85° | 64km/h | 12539m | 4.2m/s | -50.9°C | 6.3% | 185.4hPa | 2.6V | 00:00:00 | 00:00:00 | 00:00:00 | |
| KRY50SP-1 | 2026-08-30 05:35:59 | 52.39027 | 14.80701 | 86° | 71km/h | 12539m | 4.2m/s | -50.9°C | 3.0% | 185.5hPa | 2.6V | 00:00:00 | 00:00:00 | 00:00:00 | |
| DM0DOS-11 | 2026-08-30 05:35:56 | 52.39019 | 14.80560 | 86° | 64km/h | 12518m | 3.3m/s | -50.9°C | 6.3% | 186.1hPa | 2.6V | 08:30:00 | 01:18:46 | 00:00:00 | |
| DB0DAN | 2026-08-30 05:35:55 | 52.39019 | 14.80560 | 87° | 62km/h | 12518m | 3.3m/s | -50.9°C | 3% | 186.12hPa | 2.6V | 00:00:00 | 00:00:00 | 00:00:00 | |
| DF8AY | 2026-08-30 05:35:53 | 52.39017 | 14.80508 | 85° | 60km/h | 12509m | 3.2m/s | 0°C | 0% | 0hPa | 2.7V | 18:12:15 | 01:18:44 | 00:00:00 | |
| AA1-15 | 2026-08-30 05:35:49 | 52.39012 | 14.80409 | 83° | 60km/h | 12493m | 3.3m/s | -51°C | 3.6% | 186.8hPa | 2.6V | 18:12:15 | 01:18:40 | 00:00:00 | |
| KRY50SP-1 | 2026-08-30 05:35:47 | 52.39010 | 14.80384 | 85° | 60km/h | 12489m | 4.6m/s | -51.0°C | 3.3% | 186.9hPa | 2.8V | 00:00:00 | 00:00:00 | 00:00:00 | |
| DM0DOS-11 | 2026-08-30 05:35:46 | 52.39006 | 14.80307 | 84° | 64km/h | 12476m | 4.2m/s | -51°C | 6.7% | 187.3hPa | 2.8V | 08:30:00 | 01:18:36 | 00:00:00 | |
| EDDB2-11 | 2026-08-30 05:35:45 | 52.39005 | 14.80281 | 85° | 64km/h | 12472m | 4.5m/s | -51.0°C | 3.4% | 187.4hPa | 2.8V | 00:00:00 | 00:00:00 | 00:00:00 | |
| DF8AY | 2026-08-30 05:35:41 | 52.39002 | 14.80202 | 86° | 64km/h | 12458m | 3.7m/s | 0°C | 0% | 0hPa | 2.8V | 18:12:15 | 01:18:32 | 00:00:00 | |
| DB0DAN | 2026-08-30 05:35:40 | 52.39001 | 14.80176 | 86° | 60km/h | 12455m | 3.8m/s | -51.2°C | 3.5% | 187.85hPa | 2.8V | 00:00:00 | 00:00:00 | 00:00:00 | |
| AA1-15 | 2026-08-30 05:35:38 | 52.38999 | 14.80124 | 86° | 64km/h | 12446m | 4m/s | -51.3°C | 4.3% | 188.1hPa | 2.6V | 18:12:15 | 01:18:29 | 00:00:00 | |
| DM0DOS-11 | 2026-08-30 05:35:36 | 52.38994 | 14.80046 | 85° | 64km/h | 12434m | 4m/s | -51.4°C | 7.3% | 188.5hPa | 2.8V | 08:30:00 | 01:18:26 | 00:00:00 | |
| DF8AY | 2026-08-30 05:35:30 | 52.38985 | 14.79916 | 83° | 66km/h | 12412m | 3.9m/s | 0°C | 0% | 0hPa | 2.8V | 18:12:15 | 01:18:21 | 00:00:00 | |
| AA1-15 | 2026-08-30 05:35:27 | 52.38977 | 14.79832 | 81° | 69km/h | 12400m | 3.9m/s | -51.4°C | 5.1% | 189.5hPa | 2.8V | 18:12:15 | 01:18:18 | 00:00:00 | |
| DM0DOS-11 | 2026-08-30 05:35:26 | 52.38968 | 14.79747 | 78° | 69km/h | 12387m | 4m/s | -51.6°C | 8% | 189.9hPa | 2.7V | 08:30:00 | 01:18:15 | 00:00:00 | |
| DB0DAN | 2026-08-30 05:35:25 | 52.38971 | 14.79775 | 80° | 66km/h | 12391m | 4.4m/s | -51.6°C | 4.2% | 189.72hPa | 2.7V | 00:00:00 | 00:00:00 | 00:00:00 | |
| AA1-15 | 2026-08-30 05:35:16 | 52.38945 | 14.79519 | 83° | 71km/h | 12353m | 4.4m/s | -51.8°C | 5.5% | 190.9hPa | 2.8V | 18:12:15 | 01:18:07 | 00:00:00 | |
| DL2RXE-15 | 2026-08-30 05:35:15 | 52.38945 | 14.79519 | 84° | 71km/h | 12353m | 4.4m/s | -51.8°C | 4.4% | 190.9hPa | 2.8V | 00:00:00 | 00:00:00 | 00:00:00 | |
| KRY50SP-1 | 2026-08-30 05:35:14 | 52.38943 | 14.79490 | 86° | 71km/h | 12349m | 4.0m/s | -51.8°C | 4.5% | 191.0hPa | 2.8V | 00:00:00 | 00:00:00 | 00:00:00 | |
| 13BRC | 2026-08-30 05:35:13 | 52.38941 | 14.79460 | 86° | 71km/h | 12344m | 4.6m/s | -51.8°C | 4.5% | 191.1hPa | 2.8V | 00:00:00 | 00:00:00 | 00:00:00 | |
| SP6BVK | 2026-08-30 05:35:11 | 52.38938 | 14.79401 | 87° | 71km/h | 12335m | 5.3m/s | -51.8°C | 4.5% | 191.4hPa | 2.8V | 00:00:00 | 00:00:00 | 00:00:00 | |
| DB0DAN | 2026-08-30 05:35:10 | 52.38935 | 14.79341 | 85° | 69km/h | 12327m | 4.8m/s | -51.9°C | 4.5% | 191.61hPa | 2.8V | 00:00:00 | 00:00:00 | 00:00:00 | |
| KRY50SP-1 | 2026-08-30 05:35:09 | 52.38935 | 14.79341 | 86° | 73km/h | 12327m | 4.8m/s | -51.9°C | 4.5% | 191.6hPa | 2.7V | 00:00:00 | 00:00:00 | 00:00:00 | |
| SQ2ODE-11 | 2026-08-30 05:35:07 | 52.38932 | 14.79280 | 87° | 73km/h | 12318m | 5.2m/s | 0°C | 0% | 0hPa | 2.7V | 00:00:00 | 00:00:00 | 00:00:00 | |
| DM0DOS-11 | 2026-08-30 05:35:06 | 52.38920 | 14.79058 | 84° | 80km/h | 12288m | 4.8m/s | -51.9°C | 8.7% | 192.8hPa | 2.7V | 08:30:00 | 01:17:52 | 00:00:00 | |
| AA1-15 | 2026-08-30 05:35:05 | 52.38927 | 14.79187 | 85° | 77km/h | 12306m | 4m/s | -51.8°C | 5.8% | 192.2hPa | 2.8V | 18:12:15 | 01:17:56 | 00:00:00 | |
| SONDE2-12 | 2026-08-30 05:34:59 | 52.38917 | 14.78991 | 83° | 82km/h | 12280m | 4.9m/s | -52.0°C | 5.9% | 193.0hPa | 2.8V | 00:00:00 | 00:00:00 | 00:00:00 | |
| DM0DOS-11 | 2026-08-30 05:34:56 | 52.38895 | 14.78721 | 81° | 84km/h | 12246m | 4.4m/s | -52.2°C | 9.2% | 194hPa | 2.8V | 08:30:00 | 01:17:42 | 00:00:00 | |
| DB0DAN | 2026-08-30 05:34:55 | 52.38907 | 14.78856 | 82° | 78km/h | 12263m | 4.8m/s | -52.1°C | 5.1% | 193.54hPa | 2.7V | 00:00:00 | 00:00:00 | 00:00:00 | |
| AA1-15 | 2026-08-30 05:34:54 | 52.38904 | 14.78822 | 81° | 82km/h | 12258m | 3.8m/s | -52.1°C | 6.3% | 193.6hPa | 2.8V | 18:12:15 | 01:17:45 | 00:00:00 | |
| EDDB2-12 | 2026-08-30 05:34:49 | 52.38886 | 14.78617 | 82° | 84km/h | 12233m | 3.8m/s | -52.2°C | 5.0% | 194.4hPa | 2.8V | 00:00:00 | 00:00:00 | 00:00:00 | |
| KRY50SP-1 | 2026-08-30 05:34:48 | 52.38889 | 14.78652 | 83° | 86km/h | 12238m | 4.3m/s | -52.2°C | 5.1% | 194.3hPa | 2.8V | 00:00:00 | 00:00:00 | 00:00:00 | |
| DM0DOS-11 | 2026-08-30 05:34:46 | 52.38861 | 14.78372 | 79° | 86km/h | 12205m | 3.7m/s | -52.2°C | 9.4% | 195.3hPa | 2.8V | 08:30:00 | 01:17:32 | 00:00:00 | |
| AA1-15 | 2026-08-30 05:34:43 | 52.38870 | 14.78442 | 80° | 86km/h | 12214m | 4.1m/s | -52.3°C | 6.7% | 195hPa | 2.7V | 18:12:15 | 01:17:34 | 00:00:00 | |
| KRY50SP-1 | 2026-08-30 05:34:42 | 52.38869 | 14.78442 | 80° | 86km/h | 12214m | 4.1m/s | -52.3°C | 5.3% | 195.0hPa | 2.8V | 00:00:00 | 00:00:00 | 00:00:00 | |
| Es werden nur die letzten 3500 von 4357 Frames angezeigt. GPX/KML und Diagramme bleiben verfügbar. | |||||||||||||||